<?xml version="1.0" encoding="UTF-8" standalone="no" ?>
<gpx xmlns="http://www.topografix.com/GPX/1/1" xmlns:xsi="http://www.w3.org/2001/XMLSchema-instance" xsi:schemaLocation="http://www.topografix.com/GPX/1/1 http://www.topografix.com/GPX/1/1/gpx.xsd" version="1.1" creator="VisuGPX - https://www.visugpx.com">
  <metadata>
    <name>Boves </name>
  </metadata>
  <trk>
    <name><![CDATA[Boves _1]]></name>
    <trkseg>
      <trkpt lat="49.84212" lon="2.39508">
        <ele>30.1</ele>
        <time>2023-04-19T12:03:28Z</time>
      </trkpt>
      <trkpt lat="49.84208" lon="2.39514">
        <ele>30.1</ele>
        <time>2023-04-19T12:03:29Z</time>
      </trkpt>
      <trkpt lat="49.84204" lon="2.39519">
        <ele>30.1</ele>
        <time>2023-04-19T12:03:30Z</time>
      </trkpt>
      <trkpt lat="49.84202" lon="2.39523">
        <ele>30.1</ele>
        <time>2023-04-19T12:03:31Z</time>
      </trkpt>
      <trkpt lat="49.84202" lon="2.39523">
        <ele>30.1</ele>
        <time>2023-04-19T12:03:32Z</time>
      </trkpt>
      <trkpt lat="49.84199" lon="2.39526">
        <ele>30.1</ele>
        <time>2023-04-19T12:03:34Z</time>
      </trkpt>
      <trkpt lat="49.84199" lon="2.39527">
        <ele>30.1</ele>
        <time>2023-04-19T12:03:35Z</time>
      </trkpt>
      <trkpt lat="49.84197" lon="2.39529">
        <ele>30.2</ele>
        <time>2023-04-19T12:03:36Z</time>
      </trkpt>
      <trkpt lat="49.84195" lon="2.3953">
        <ele>30.2</ele>
        <time>2023-04-19T12:03:38Z</time>
      </trkpt>
      <trkpt lat="49.84192" lon="2.39532">
        <ele>30.2</ele>
        <time>2023-04-19T12:03:39Z</time>
      </trkpt>
      <trkpt lat="49.84191" lon="2.39532">
        <ele>30.2</ele>
        <time>2023-04-19T12:03:40Z</time>
      </trkpt>
      <trkpt lat="49.84189" lon="2.39533">
        <ele>30.2</ele>
        <time>2023-04-19T12:03:41Z</time>
      </trkpt>
      <trkpt lat="49.84188" lon="2.39534">
        <ele>30.2</ele>
        <time>2023-04-19T12:03:42Z</time>
      </trkpt>
      <trkpt lat="49.84187" lon="2.39536">
        <ele>30.2</ele>
        <time>2023-04-19T12:03:44Z</time>
      </trkpt>
      <trkpt lat="49.84185" lon="2.39537">
        <ele>30.2</ele>
        <time>2023-04-19T12:03:45Z</time>
      </trkpt>
      <trkpt lat="49.84184" lon="2.39538">
        <ele>30.2</ele>
        <time>2023-04-19T12:03:46Z</time>
      </trkpt>
      <trkpt lat="49.84182" lon="2.39539">
        <ele>30.2</ele>
        <time>2023-04-19T12:03:47Z</time>
      </trkpt>
      <trkpt lat="49.8418" lon="2.3954">
        <ele>30.2</ele>
        <time>2023-04-19T12:03:48Z</time>
      </trkpt>
      <trkpt lat="49.84178" lon="2.39541">
        <ele>30.2</ele>
        <time>2023-04-19T12:03:50Z</time>
      </trkpt>
      <trkpt lat="49.84177" lon="2.39541">
        <ele>30.2</ele>
        <time>2023-04-19T12:03:51Z</time>
      </trkpt>
      <trkpt lat="49.84176" lon="2.39542">
        <ele>30.2</ele>
        <time>2023-04-19T12:03:52Z</time>
      </trkpt>
      <trkpt lat="49.84175" lon="2.39542">
        <ele>30.2</ele>
        <time>2023-04-19T12:03:53Z</time>
      </trkpt>
      <trkpt lat="49.84174" lon="2.39543">
        <ele>30.3</ele>
        <time>2023-04-19T12:03:54Z</time>
      </trkpt>
      <trkpt lat="49.84173" lon="2.39544">
        <ele>30.3</ele>
        <time>2023-04-19T12:03:55Z</time>
      </trkpt>
      <trkpt lat="49.84172" lon="2.39545">
        <ele>30.3</ele>
        <time>2023-04-19T12:03:57Z</time>
      </trkpt>
      <trkpt lat="49.84172" lon="2.39546">
        <ele>30.3</ele>
        <time>2023-04-19T12:03:58Z</time>
      </trkpt>
      <trkpt lat="49.84171" lon="2.39547">
        <ele>30.3</ele>
        <time>2023-04-19T12:03:59Z</time>
      </trkpt>
      <trkpt lat="49.84171" lon="2.39548">
        <ele>30.3</ele>
        <time>2023-04-19T12:04:00Z</time>
      </trkpt>
      <trkpt lat="49.84169" lon="2.39549">
        <ele>30.3</ele>
        <time>2023-04-19T12:04:01Z</time>
      </trkpt>
      <trkpt lat="49.84169" lon="2.3955">
        <ele>30.3</ele>
        <time>2023-04-19T12:04:02Z</time>
      </trkpt>
      <trkpt lat="49.84168" lon="2.39551">
        <ele>30.3</ele>
        <time>2023-04-19T12:04:03Z</time>
      </trkpt>
      <trkpt lat="49.84166" lon="2.39554">
        <ele>30.3</ele>
        <time>2023-04-19T12:04:04Z</time>
      </trkpt>
      <trkpt lat="49.84165" lon="2.39555">
        <ele>30.3</ele>
        <time>2023-04-19T12:04:06Z</time>
      </trkpt>
      <trkpt lat="49.84163" lon="2.39556">
        <ele>30.3</ele>
        <time>2023-04-19T12:04:08Z</time>
      </trkpt>
      <trkpt lat="49.84162" lon="2.39557">
        <ele>30.3</ele>
        <time>2023-04-19T12:04:09Z</time>
      </trkpt>
      <trkpt lat="49.84161" lon="2.39559">
        <ele>30.4</ele>
        <time>2023-04-19T12:04:10Z</time>
      </trkpt>
      <trkpt lat="49.8416" lon="2.3956">
        <ele>30.4</ele>
        <time>2023-04-19T12:04:11Z</time>
      </trkpt>
      <trkpt lat="49.84159" lon="2.39561">
        <ele>30.4</ele>
        <time>2023-04-19T12:04:12Z</time>
      </trkpt>
      <trkpt lat="49.84157" lon="2.39562">
        <ele>30.4</ele>
        <time>2023-04-19T12:04:14Z</time>
      </trkpt>
      <trkpt lat="49.84156" lon="2.39563">
        <ele>30.4</ele>
        <time>2023-04-19T12:04:16Z</time>
      </trkpt>
      <trkpt lat="49.84155" lon="2.39564">
        <ele>30.4</ele>
        <time>2023-04-19T12:04:17Z</time>
      </trkpt>
      <trkpt lat="49.84154" lon="2.39565">
        <ele>30.4</ele>
        <time>2023-04-19T12:04:18Z</time>
      </trkpt>
      <trkpt lat="49.84153" lon="2.39566">
        <ele>30.5</ele>
        <time>2023-04-19T12:04:19Z</time>
      </trkpt>
      <trkpt lat="49.84152" lon="2.39567">
        <ele>30.5</ele>
        <time>2023-04-19T12:04:20Z</time>
      </trkpt>
      <trkpt lat="49.84151" lon="2.39568">
        <ele>30.5</ele>
        <time>2023-04-19T12:04:21Z</time>
      </trkpt>
      <trkpt lat="49.8415" lon="2.39569">
        <ele>30.5</ele>
        <time>2023-04-19T12:04:22Z</time>
      </trkpt>
      <trkpt lat="49.84149" lon="2.39571">
        <ele>30.5</ele>
        <time>2023-04-19T12:04:24Z</time>
      </trkpt>
      <trkpt lat="49.8415" lon="2.39572">
        <ele>30.5</ele>
        <time>2023-04-19T12:04:25Z</time>
      </trkpt>
      <trkpt lat="49.8415" lon="2.39572">
        <ele>30.5</ele>
        <time>2023-04-19T12:04:26Z</time>
      </trkpt>
      <trkpt lat="49.84151" lon="2.39573">
        <ele>30.5</ele>
        <time>2023-04-19T12:04:27Z</time>
      </trkpt>
      <trkpt lat="49.84151" lon="2.39575">
        <ele>30.5</ele>
        <time>2023-04-19T12:04:29Z</time>
      </trkpt>
      <trkpt lat="49.84151" lon="2.39576">
        <ele>30.5</ele>
        <time>2023-04-19T12:04:30Z</time>
      </trkpt>
      <trkpt lat="49.84151" lon="2.39577">
        <ele>30.5</ele>
        <time>2023-04-19T12:04:31Z</time>
      </trkpt>
      <trkpt lat="49.84151" lon="2.39578">
        <ele>30.5</ele>
        <time>2023-04-19T12:04:32Z</time>
      </trkpt>
      <trkpt lat="49.8415" lon="2.3958">
        <ele>30.5</ele>
        <time>2023-04-19T12:04:33Z</time>
      </trkpt>
      <trkpt lat="49.8415" lon="2.39581">
        <ele>30.5</ele>
        <time>2023-04-19T12:04:34Z</time>
      </trkpt>
      <trkpt lat="49.84149" lon="2.39581">
        <ele>30.5</ele>
        <time>2023-04-19T12:04:35Z</time>
      </trkpt>
      <trkpt lat="49.84149" lon="2.39582">
        <ele>30.5</ele>
        <time>2023-04-19T12:04:37Z</time>
      </trkpt>
      <trkpt lat="49.84148" lon="2.39583">
        <ele>30.5</ele>
        <time>2023-04-19T12:04:38Z</time>
      </trkpt>
      <trkpt lat="49.84146" lon="2.39583">
        <ele>30.5</ele>
        <time>2023-04-19T12:04:39Z</time>
      </trkpt>
      <trkpt lat="49.84145" lon="2.39583">
        <ele>30.5</ele>
        <time>2023-04-19T12:04:40Z</time>
      </trkpt>
      <trkpt lat="49.84145" lon="2.39582">
        <ele>30.5</ele>
        <time>2023-04-19T12:04:41Z</time>
      </trkpt>
      <trkpt lat="49.84144" lon="2.39582">
        <ele>30.5</ele>
        <time>2023-04-19T12:04:42Z</time>
      </trkpt>
      <trkpt lat="49.84142" lon="2.39582">
        <ele>30.5</ele>
        <time>2023-04-19T12:04:44Z</time>
      </trkpt>
      <trkpt lat="49.84141" lon="2.39582">
        <ele>30.5</ele>
        <time>2023-04-19T12:04:45Z</time>
      </trkpt>
      <trkpt lat="49.8414" lon="2.39582">
        <ele>30.5</ele>
        <time>2023-04-19T12:04:46Z</time>
      </trkpt>
      <trkpt lat="49.84139" lon="2.39583">
        <ele>30.5</ele>
        <time>2023-04-19T12:04:47Z</time>
      </trkpt>
      <trkpt lat="49.84138" lon="2.39584">
        <ele>30.5</ele>
        <time>2023-04-19T12:04:48Z</time>
      </trkpt>
      <trkpt lat="49.84137" lon="2.39587">
        <ele>30.5</ele>
        <time>2023-04-19T12:04:49Z</time>
      </trkpt>
      <trkpt lat="49.84137" lon="2.39588">
        <ele>30.5</ele>
        <time>2023-04-19T12:04:50Z</time>
      </trkpt>
      <trkpt lat="49.84136" lon="2.39589">
        <ele>30.5</ele>
        <time>2023-04-19T12:04:51Z</time>
      </trkpt>
      <trkpt lat="49.84135" lon="2.3959">
        <ele>30.5</ele>
        <time>2023-04-19T12:04:53Z</time>
      </trkpt>
      <trkpt lat="49.84134" lon="2.39592">
        <ele>30.5</ele>
        <time>2023-04-19T12:04:54Z</time>
      </trkpt>
      <trkpt lat="49.84133" lon="2.39593">
        <ele>30.5</ele>
        <time>2023-04-19T12:04:55Z</time>
      </trkpt>
      <trkpt lat="49.84131" lon="2.39596">
        <ele>30.5</ele>
        <time>2023-04-19T12:04:56Z</time>
      </trkpt>
      <trkpt lat="49.8413" lon="2.39596">
        <ele>30.5</ele>
        <time>2023-04-19T12:04:57Z</time>
      </trkpt>
      <trkpt lat="49.8413" lon="2.39597">
        <ele>30.5</ele>
        <time>2023-04-19T12:04:58Z</time>
      </trkpt>
      <trkpt lat="49.84128" lon="2.396">
        <ele>30.5</ele>
        <time>2023-04-19T12:04:59Z</time>
      </trkpt>
      <trkpt lat="49.84127" lon="2.39601">
        <ele>30.6</ele>
        <time>2023-04-19T12:05:00Z</time>
      </trkpt>
      <trkpt lat="49.84127" lon="2.39602">
        <ele>30.6</ele>
        <time>2023-04-19T12:05:01Z</time>
      </trkpt>
      <trkpt lat="49.84126" lon="2.39603">
        <ele>30.6</ele>
        <time>2023-04-19T12:05:02Z</time>
      </trkpt>
      <trkpt lat="49.84124" lon="2.39606">
        <ele>30.6</ele>
        <time>2023-04-19T12:05:04Z</time>
      </trkpt>
      <trkpt lat="49.84123" lon="2.39607">
        <ele>30.6</ele>
        <time>2023-04-19T12:05:06Z</time>
      </trkpt>
      <trkpt lat="49.84123" lon="2.39609">
        <ele>30.6</ele>
        <time>2023-04-19T12:05:07Z</time>
      </trkpt>
      <trkpt lat="49.84122" lon="2.39611">
        <ele>30.6</ele>
        <time>2023-04-19T12:05:08Z</time>
      </trkpt>
      <trkpt lat="49.8412" lon="2.39614">
        <ele>30.6</ele>
        <time>2023-04-19T12:05:10Z</time>
      </trkpt>
      <trkpt lat="49.84119" lon="2.39616">
        <ele>30.6</ele>
        <time>2023-04-19T12:05:11Z</time>
      </trkpt>
      <trkpt lat="49.84118" lon="2.39618">
        <ele>30.6</ele>
        <time>2023-04-19T12:05:12Z</time>
      </trkpt>
      <trkpt lat="49.84117" lon="2.3962">
        <ele>30.6</ele>
        <time>2023-04-19T12:05:13Z</time>
      </trkpt>
      <trkpt lat="49.84116" lon="2.39621">
        <ele>30.6</ele>
        <time>2023-04-19T12:05:14Z</time>
      </trkpt>
      <trkpt lat="49.84114" lon="2.39623">
        <ele>30.6</ele>
        <time>2023-04-19T12:05:15Z</time>
      </trkpt>
      <trkpt lat="49.84113" lon="2.39624">
        <ele>30.6</ele>
        <time>2023-04-19T12:05:16Z</time>
      </trkpt>
      <trkpt lat="49.84111" lon="2.39625">
        <ele>30.6</ele>
        <time>2023-04-19T12:05:18Z</time>
      </trkpt>
      <trkpt lat="49.8411" lon="2.39625">
        <ele>30.6</ele>
        <time>2023-04-19T12:05:19Z</time>
      </trkpt>
      <trkpt lat="49.84109" lon="2.39625">
        <ele>30.6</ele>
        <time>2023-04-19T12:05:20Z</time>
      </trkpt>
      <trkpt lat="49.84107" lon="2.39626">
        <ele>30.6</ele>
        <time>2023-04-19T12:05:21Z</time>
      </trkpt>
      <trkpt lat="49.84106" lon="2.39627">
        <ele>30.6</ele>
        <time>2023-04-19T12:05:22Z</time>
      </trkpt>
      <trkpt lat="49.84105" lon="2.39628">
        <ele>30.6</ele>
        <time>2023-04-19T12:05:23Z</time>
      </trkpt>
      <trkpt lat="49.84103" lon="2.39629">
        <ele>30.6</ele>
        <time>2023-04-19T12:05:24Z</time>
      </trkpt>
      <trkpt lat="49.84101" lon="2.3963">
        <ele>30.6</ele>
        <time>2023-04-19T12:05:26Z</time>
      </trkpt>
      <trkpt lat="49.841" lon="2.39631">
        <ele>30.6</ele>
        <time>2023-04-19T12:05:27Z</time>
      </trkpt>
      <trkpt lat="49.84099" lon="2.39632">
        <ele>30.6</ele>
        <time>2023-04-19T12:05:28Z</time>
      </trkpt>
      <trkpt lat="49.84098" lon="2.39632">
        <ele>30.6</ele>
        <time>2023-04-19T12:05:29Z</time>
      </trkpt>
      <trkpt lat="49.84096" lon="2.39633">
        <ele>30.6</ele>
        <time>2023-04-19T12:05:30Z</time>
      </trkpt>
      <trkpt lat="49.84096" lon="2.39634">
        <ele>30.6</ele>
        <time>2023-04-19T12:05:31Z</time>
      </trkpt>
      <trkpt lat="49.84094" lon="2.39634">
        <ele>30.6</ele>
        <time>2023-04-19T12:05:32Z</time>
      </trkpt>
      <trkpt lat="49.84093" lon="2.39635">
        <ele>30.6</ele>
        <time>2023-04-19T12:05:34Z</time>
      </trkpt>
      <trkpt lat="49.84092" lon="2.39636">
        <ele>30.6</ele>
        <time>2023-04-19T12:05:35Z</time>
      </trkpt>
      <trkpt lat="49.8409" lon="2.39637">
        <ele>30.7</ele>
        <time>2023-04-19T12:05:36Z</time>
      </trkpt>
      <trkpt lat="49.84089" lon="2.39637">
        <ele>30.7</ele>
        <time>2023-04-19T12:05:37Z</time>
      </trkpt>
      <trkpt lat="49.84088" lon="2.39638">
        <ele>30.7</ele>
        <time>2023-04-19T12:05:38Z</time>
      </trkpt>
      <trkpt lat="49.84086" lon="2.39639">
        <ele>30.7</ele>
        <time>2023-04-19T12:05:39Z</time>
      </trkpt>
      <trkpt lat="49.84084" lon="2.3964">
        <ele>30.7</ele>
        <time>2023-04-19T12:05:40Z</time>
      </trkpt>
      <trkpt lat="49.84083" lon="2.3964">
        <ele>30.7</ele>
        <time>2023-04-19T12:05:42Z</time>
      </trkpt>
      <trkpt lat="49.84083" lon="2.3964">
        <ele>30.7</ele>
        <time>2023-04-19T12:05:43Z</time>
      </trkpt>
      <trkpt lat="49.84081" lon="2.39642">
        <ele>30.7</ele>
        <time>2023-04-19T12:05:44Z</time>
      </trkpt>
      <trkpt lat="49.8408" lon="2.39642">
        <ele>30.7</ele>
        <time>2023-04-19T12:05:45Z</time>
      </trkpt>
      <trkpt lat="49.84079" lon="2.39643">
        <ele>30.8</ele>
        <time>2023-04-19T12:05:46Z</time>
      </trkpt>
      <trkpt lat="49.84078" lon="2.39643">
        <ele>30.8</ele>
        <time>2023-04-19T12:05:48Z</time>
      </trkpt>
      <trkpt lat="49.84076" lon="2.39644">
        <ele>30.8</ele>
        <time>2023-04-19T12:05:49Z</time>
      </trkpt>
      <trkpt lat="49.84075" lon="2.39644">
        <ele>30.8</ele>
        <time>2023-04-19T12:05:50Z</time>
      </trkpt>
      <trkpt lat="49.84073" lon="2.39645">
        <ele>30.8</ele>
        <time>2023-04-19T12:05:51Z</time>
      </trkpt>
      <trkpt lat="49.84071" lon="2.39646">
        <ele>30.8</ele>
        <time>2023-04-19T12:05:52Z</time>
      </trkpt>
      <trkpt lat="49.8407" lon="2.39647">
        <ele>30.8</ele>
        <time>2023-04-19T12:05:53Z</time>
      </trkpt>
      <trkpt lat="49.84069" lon="2.39647">
        <ele>30.8</ele>
        <time>2023-04-19T12:05:54Z</time>
      </trkpt>
      <trkpt lat="49.84068" lon="2.39648">
        <ele>30.8</ele>
        <time>2023-04-19T12:05:55Z</time>
      </trkpt>
      <trkpt lat="49.84067" lon="2.39648">
        <ele>30.8</ele>
        <time>2023-04-19T12:05:56Z</time>
      </trkpt>
      <trkpt lat="49.84066" lon="2.39649">
        <ele>30.8</ele>
        <time>2023-04-19T12:05:58Z</time>
      </trkpt>
      <trkpt lat="49.84064" lon="2.3965">
        <ele>30.8</ele>
        <time>2023-04-19T12:05:59Z</time>
      </trkpt>
      <trkpt lat="49.84062" lon="2.39651">
        <ele>30.8</ele>
        <time>2023-04-19T12:06:00Z</time>
      </trkpt>
      <trkpt lat="49.84061" lon="2.39652">
        <ele>30.8</ele>
        <time>2023-04-19T12:06:01Z</time>
      </trkpt>
      <trkpt lat="49.8406" lon="2.39653">
        <ele>30.8</ele>
        <time>2023-04-19T12:06:02Z</time>
      </trkpt>
      <trkpt lat="49.84058" lon="2.39654">
        <ele>30.8</ele>
        <time>2023-04-19T12:06:03Z</time>
      </trkpt>
      <trkpt lat="49.84057" lon="2.39655">
        <ele>30.8</ele>
        <time>2023-04-19T12:06:04Z</time>
      </trkpt>
      <trkpt lat="49.84056" lon="2.39655">
        <ele>30.8</ele>
        <time>2023-04-19T12:06:05Z</time>
      </trkpt>
      <trkpt lat="49.84054" lon="2.39656">
        <ele>30.8</ele>
        <time>2023-04-19T12:06:06Z</time>
      </trkpt>
      <trkpt lat="49.84054" lon="2.39657">
        <ele>30.8</ele>
        <time>2023-04-19T12:06:08Z</time>
      </trkpt>
      <trkpt lat="49.84053" lon="2.39657">
        <ele>30.8</ele>
        <time>2023-04-19T12:06:09Z</time>
      </trkpt>
      <trkpt lat="49.84051" lon="2.39658">
        <ele>30.8</ele>
        <time>2023-04-19T12:06:10Z</time>
      </trkpt>
      <trkpt lat="49.8405" lon="2.39659">
        <ele>30.8</ele>
        <time>2023-04-19T12:06:11Z</time>
      </trkpt>
      <trkpt lat="49.84049" lon="2.3966">
        <ele>30.8</ele>
        <time>2023-04-19T12:06:12Z</time>
      </trkpt>
      <trkpt lat="49.84048" lon="2.3966">
        <ele>30.8</ele>
        <time>2023-04-19T12:06:14Z</time>
      </trkpt>
      <trkpt lat="49.84047" lon="2.39659">
        <ele>30.8</ele>
        <time>2023-04-19T12:06:15Z</time>
      </trkpt>
      <trkpt lat="49.84046" lon="2.39659">
        <ele>30.9</ele>
        <time>2023-04-19T12:06:16Z</time>
      </trkpt>
      <trkpt lat="49.84044" lon="2.3966">
        <ele>30.9</ele>
        <time>2023-04-19T12:06:17Z</time>
      </trkpt>
      <trkpt lat="49.84043" lon="2.3966">
        <ele>30.9</ele>
        <time>2023-04-19T12:06:18Z</time>
      </trkpt>
      <trkpt lat="49.84043" lon="2.3966">
        <ele>30.9</ele>
        <time>2023-04-19T12:06:19Z</time>
      </trkpt>
      <trkpt lat="49.84042" lon="2.39661">
        <ele>30.9</ele>
        <time>2023-04-19T12:06:20Z</time>
      </trkpt>
      <trkpt lat="49.8404" lon="2.39661">
        <ele>30.9</ele>
        <time>2023-04-19T12:06:21Z</time>
      </trkpt>
      <trkpt lat="49.84039" lon="2.39662">
        <ele>30.9</ele>
        <time>2023-04-19T12:06:22Z</time>
      </trkpt>
      <trkpt lat="49.84038" lon="2.39663">
        <ele>30.9</ele>
        <time>2023-04-19T12:06:23Z</time>
      </trkpt>
      <trkpt lat="49.84037" lon="2.39663">
        <ele>30.9</ele>
        <time>2023-04-19T12:06:24Z</time>
      </trkpt>
      <trkpt lat="49.84036" lon="2.39664">
        <ele>30.9</ele>
        <time>2023-04-19T12:06:26Z</time>
      </trkpt>
      <trkpt lat="49.84034" lon="2.39666">
        <ele>30.9</ele>
        <time>2023-04-19T12:06:27Z</time>
      </trkpt>
      <trkpt lat="49.84033" lon="2.39666">
        <ele>30.9</ele>
        <time>2023-04-19T12:06:28Z</time>
      </trkpt>
      <trkpt lat="49.84032" lon="2.39667">
        <ele>30.9</ele>
        <time>2023-04-19T12:06:29Z</time>
      </trkpt>
      <trkpt lat="49.84031" lon="2.39667">
        <ele>30.9</ele>
        <time>2023-04-19T12:06:30Z</time>
      </trkpt>
      <trkpt lat="49.8403" lon="2.39668">
        <ele>30.9</ele>
        <time>2023-04-19T12:06:31Z</time>
      </trkpt>
      <trkpt lat="49.84028" lon="2.39669">
        <ele>30.9</ele>
        <time>2023-04-19T12:06:33Z</time>
      </trkpt>
      <trkpt lat="49.84027" lon="2.3967">
        <ele>31</ele>
        <time>2023-04-19T12:06:34Z</time>
      </trkpt>
      <trkpt lat="49.84026" lon="2.3967">
        <ele>31</ele>
        <time>2023-04-19T12:06:35Z</time>
      </trkpt>
      <trkpt lat="49.84024" lon="2.39671">
        <ele>31</ele>
        <time>2023-04-19T12:06:36Z</time>
      </trkpt>
      <trkpt lat="49.84024" lon="2.39672">
        <ele>31</ele>
        <time>2023-04-19T12:06:37Z</time>
      </trkpt>
      <trkpt lat="49.84023" lon="2.39673">
        <ele>31</ele>
        <time>2023-04-19T12:06:38Z</time>
      </trkpt>
      <trkpt lat="49.84021" lon="2.39673">
        <ele>31</ele>
        <time>2023-04-19T12:06:39Z</time>
      </trkpt>
      <trkpt lat="49.8402" lon="2.39674">
        <ele>31</ele>
        <time>2023-04-19T12:06:40Z</time>
      </trkpt>
      <trkpt lat="49.84019" lon="2.39675">
        <ele>31</ele>
        <time>2023-04-19T12:06:42Z</time>
      </trkpt>
      <trkpt lat="49.84018" lon="2.39676">
        <ele>31</ele>
        <time>2023-04-19T12:06:43Z</time>
      </trkpt>
      <trkpt lat="49.84017" lon="2.39677">
        <ele>31</ele>
        <time>2023-04-19T12:06:44Z</time>
      </trkpt>
      <trkpt lat="49.84016" lon="2.39678">
        <ele>31</ele>
        <time>2023-04-19T12:06:45Z</time>
      </trkpt>
      <trkpt lat="49.84015" lon="2.39678">
        <ele>31</ele>
        <time>2023-04-19T12:06:46Z</time>
      </trkpt>
      <trkpt lat="49.84014" lon="2.39679">
        <ele>31</ele>
        <time>2023-04-19T12:06:47Z</time>
      </trkpt>
      <trkpt lat="49.84013" lon="2.3968">
        <ele>31</ele>
        <time>2023-04-19T12:06:48Z</time>
      </trkpt>
      <trkpt lat="49.84012" lon="2.3968">
        <ele>31.1</ele>
        <time>2023-04-19T12:06:49Z</time>
      </trkpt>
      <trkpt lat="49.8401" lon="2.39682">
        <ele>31.1</ele>
        <time>2023-04-19T12:06:50Z</time>
      </trkpt>
      <trkpt lat="49.84009" lon="2.39682">
        <ele>31.1</ele>
        <time>2023-04-19T12:06:51Z</time>
      </trkpt>
      <trkpt lat="49.84008" lon="2.39683">
        <ele>31.1</ele>
        <time>2023-04-19T12:06:52Z</time>
      </trkpt>
      <trkpt lat="49.84007" lon="2.39684">
        <ele>31.1</ele>
        <time>2023-04-19T12:06:54Z</time>
      </trkpt>
      <trkpt lat="49.84006" lon="2.39685">
        <ele>31.1</ele>
        <time>2023-04-19T12:06:55Z</time>
      </trkpt>
      <trkpt lat="49.84004" lon="2.39685">
        <ele>31.1</ele>
        <time>2023-04-19T12:06:56Z</time>
      </trkpt>
      <trkpt lat="49.84003" lon="2.39686">
        <ele>31.1</ele>
        <time>2023-04-19T12:06:57Z</time>
      </trkpt>
      <trkpt lat="49.84002" lon="2.39687">
        <ele>31.1</ele>
        <time>2023-04-19T12:06:58Z</time>
      </trkpt>
      <trkpt lat="49.84" lon="2.39687">
        <ele>31.1</ele>
        <time>2023-04-19T12:06:59Z</time>
      </trkpt>
      <trkpt lat="49.83999" lon="2.39688">
        <ele>31.1</ele>
        <time>2023-04-19T12:07:00Z</time>
      </trkpt>
      <trkpt lat="49.83998" lon="2.39689">
        <ele>31.1</ele>
        <time>2023-04-19T12:07:01Z</time>
      </trkpt>
      <trkpt lat="49.83996" lon="2.3969">
        <ele>31.2</ele>
        <time>2023-04-19T12:07:02Z</time>
      </trkpt>
      <trkpt lat="49.83995" lon="2.3969">
        <ele>31.2</ele>
        <time>2023-04-19T12:07:03Z</time>
      </trkpt>
      <trkpt lat="49.83993" lon="2.39691">
        <ele>31.2</ele>
        <time>2023-04-19T12:07:04Z</time>
      </trkpt>
      <trkpt lat="49.83992" lon="2.39692">
        <ele>31.2</ele>
        <time>2023-04-19T12:07:06Z</time>
      </trkpt>
      <trkpt lat="49.83991" lon="2.39692">
        <ele>31.2</ele>
        <time>2023-04-19T12:07:07Z</time>
      </trkpt>
      <trkpt lat="49.83989" lon="2.39694">
        <ele>31.2</ele>
        <time>2023-04-19T12:07:08Z</time>
      </trkpt>
      <trkpt lat="49.83988" lon="2.39694">
        <ele>31.2</ele>
        <time>2023-04-19T12:07:09Z</time>
      </trkpt>
      <trkpt lat="49.83986" lon="2.39695">
        <ele>31.2</ele>
        <time>2023-04-19T12:07:10Z</time>
      </trkpt>
      <trkpt lat="49.83985" lon="2.39696">
        <ele>31.2</ele>
        <time>2023-04-19T12:07:12Z</time>
      </trkpt>
      <trkpt lat="49.83983" lon="2.39697">
        <ele>31.2</ele>
        <time>2023-04-19T12:07:13Z</time>
      </trkpt>
      <trkpt lat="49.83982" lon="2.39697">
        <ele>31.2</ele>
        <time>2023-04-19T12:07:14Z</time>
      </trkpt>
      <trkpt lat="49.83981" lon="2.39698">
        <ele>31.2</ele>
        <time>2023-04-19T12:07:15Z</time>
      </trkpt>
      <trkpt lat="49.8398" lon="2.39698">
        <ele>31.2</ele>
        <time>2023-04-19T12:07:16Z</time>
      </trkpt>
      <trkpt lat="49.83978" lon="2.39699">
        <ele>31.2</ele>
        <time>2023-04-19T12:07:17Z</time>
      </trkpt>
      <trkpt lat="49.83977" lon="2.397">
        <ele>31.2</ele>
        <time>2023-04-19T12:07:18Z</time>
      </trkpt>
      <trkpt lat="49.83975" lon="2.39701">
        <ele>31.2</ele>
        <time>2023-04-19T12:07:20Z</time>
      </trkpt>
      <trkpt lat="49.83974" lon="2.39702">
        <ele>31.2</ele>
        <time>2023-04-19T12:07:21Z</time>
      </trkpt>
      <trkpt lat="49.83973" lon="2.39702">
        <ele>31.1</ele>
        <time>2023-04-19T12:07:22Z</time>
      </trkpt>
      <trkpt lat="49.83973" lon="2.39703">
        <ele>31.1</ele>
        <time>2023-04-19T12:07:23Z</time>
      </trkpt>
      <trkpt lat="49.83972" lon="2.39704">
        <ele>31.1</ele>
        <time>2023-04-19T12:07:24Z</time>
      </trkpt>
      <trkpt lat="49.83971" lon="2.39704">
        <ele>31.1</ele>
        <time>2023-04-19T12:07:25Z</time>
      </trkpt>
      <trkpt lat="49.8397" lon="2.39705">
        <ele>31.1</ele>
        <time>2023-04-19T12:07:26Z</time>
      </trkpt>
      <trkpt lat="49.83968" lon="2.39705">
        <ele>31.1</ele>
        <time>2023-04-19T12:07:27Z</time>
      </trkpt>
      <trkpt lat="49.83967" lon="2.39705">
        <ele>31.1</ele>
        <time>2023-04-19T12:07:29Z</time>
      </trkpt>
      <trkpt lat="49.83966" lon="2.39706">
        <ele>31.1</ele>
        <time>2023-04-19T12:07:30Z</time>
      </trkpt>
      <trkpt lat="49.83965" lon="2.39706">
        <ele>31.1</ele>
        <time>2023-04-19T12:07:31Z</time>
      </trkpt>
      <trkpt lat="49.83964" lon="2.39706">
        <ele>31.1</ele>
        <time>2023-04-19T12:07:32Z</time>
      </trkpt>
      <trkpt lat="49.83963" lon="2.39707">
        <ele>31.1</ele>
        <time>2023-04-19T12:07:33Z</time>
      </trkpt>
      <trkpt lat="49.83962" lon="2.39707">
        <ele>31.1</ele>
        <time>2023-04-19T12:07:34Z</time>
      </trkpt>
      <trkpt lat="49.8396" lon="2.39708">
        <ele>31.1</ele>
        <time>2023-04-19T12:07:35Z</time>
      </trkpt>
      <trkpt lat="49.83957" lon="2.39709">
        <ele>31.1</ele>
        <time>2023-04-19T12:07:36Z</time>
      </trkpt>
      <trkpt lat="49.83956" lon="2.3971">
        <ele>31.1</ele>
        <time>2023-04-19T12:07:37Z</time>
      </trkpt>
      <trkpt lat="49.83954" lon="2.39711">
        <ele>31.1</ele>
        <time>2023-04-19T12:07:39Z</time>
      </trkpt>
      <trkpt lat="49.83953" lon="2.39711">
        <ele>31.1</ele>
        <time>2023-04-19T12:07:40Z</time>
      </trkpt>
      <trkpt lat="49.8395" lon="2.39712">
        <ele>31.1</ele>
        <time>2023-04-19T12:07:41Z</time>
      </trkpt>
      <trkpt lat="49.83949" lon="2.39712">
        <ele>31.1</ele>
        <time>2023-04-19T12:07:42Z</time>
      </trkpt>
      <trkpt lat="49.83947" lon="2.39713">
        <ele>31.1</ele>
        <time>2023-04-19T12:07:43Z</time>
      </trkpt>
      <trkpt lat="49.83946" lon="2.39714">
        <ele>31.2</ele>
        <time>2023-04-19T12:07:44Z</time>
      </trkpt>
      <trkpt lat="49.83944" lon="2.39715">
        <ele>31.2</ele>
        <time>2023-04-19T12:07:46Z</time>
      </trkpt>
      <trkpt lat="49.83943" lon="2.39715">
        <ele>31.2</ele>
        <time>2023-04-19T12:07:47Z</time>
      </trkpt>
      <trkpt lat="49.83941" lon="2.39716">
        <ele>31.2</ele>
        <time>2023-04-19T12:07:48Z</time>
      </trkpt>
      <trkpt lat="49.83941" lon="2.39717">
        <ele>31.2</ele>
        <time>2023-04-19T12:07:49Z</time>
      </trkpt>
      <trkpt lat="49.8394" lon="2.39718">
        <ele>31.2</ele>
        <time>2023-04-19T12:07:51Z</time>
      </trkpt>
      <trkpt lat="49.83939" lon="2.39718">
        <ele>31.2</ele>
        <time>2023-04-19T12:07:52Z</time>
      </trkpt>
      <trkpt lat="49.83939" lon="2.39719">
        <ele>31.2</ele>
        <time>2023-04-19T12:07:54Z</time>
      </trkpt>
      <trkpt lat="49.8394" lon="2.39719">
        <ele>31.2</ele>
        <time>2023-04-19T12:07:55Z</time>
      </trkpt>
      <trkpt lat="49.8394" lon="2.39719">
        <ele>31.2</ele>
        <time>2023-04-19T12:07:56Z</time>
      </trkpt>
      <trkpt lat="49.8394" lon="2.39719">
        <ele>31.2</ele>
        <time>2023-04-19T12:07:58Z</time>
      </trkpt>
      <trkpt lat="49.8394" lon="2.39719">
        <ele>31.2</ele>
        <time>2023-04-19T12:08:00Z</time>
      </trkpt>
      <trkpt lat="49.8394" lon="2.39719">
        <ele>31.2</ele>
        <time>2023-04-19T12:08:01Z</time>
      </trkpt>
      <trkpt lat="49.8394" lon="2.39719">
        <ele>31.2</ele>
        <time>2023-04-19T12:08:02Z</time>
      </trkpt>
      <trkpt lat="49.8394" lon="2.39719">
        <ele>31.2</ele>
        <time>2023-04-19T12:08:04Z</time>
      </trkpt>
      <trkpt lat="49.8394" lon="2.39719">
        <ele>31.2</ele>
        <time>2023-04-19T12:08:05Z</time>
      </trkpt>
      <trkpt lat="49.8394" lon="2.39719">
        <ele>31.2</ele>
        <time>2023-04-19T12:08:07Z</time>
      </trkpt>
      <trkpt lat="49.8394" lon="2.39718">
        <ele>31.2</ele>
        <time>2023-04-19T12:08:08Z</time>
      </trkpt>
      <trkpt lat="49.8394" lon="2.39718">
        <ele>31.2</ele>
        <time>2023-04-19T12:08:09Z</time>
      </trkpt>
      <trkpt lat="49.83941" lon="2.39718">
        <ele>31.2</ele>
        <time>2023-04-19T12:08:10Z</time>
      </trkpt>
      <trkpt lat="49.83941" lon="2.39717">
        <ele>31.2</ele>
        <time>2023-04-19T12:08:11Z</time>
      </trkpt>
      <trkpt lat="49.8394" lon="2.39719">
        <ele>31.2</ele>
        <time>2023-04-19T12:08:13Z</time>
      </trkpt>
      <trkpt lat="49.83941" lon="2.39719">
        <ele>31.2</ele>
        <time>2023-04-19T12:08:15Z</time>
      </trkpt>
      <trkpt lat="49.83941" lon="2.39718">
        <ele>31.2</ele>
        <time>2023-04-19T12:08:16Z</time>
      </trkpt>
      <trkpt lat="49.83941" lon="2.39718">
        <ele>31.2</ele>
        <time>2023-04-19T12:08:17Z</time>
      </trkpt>
      <trkpt lat="49.83942" lon="2.39718">
        <ele>31.2</ele>
        <time>2023-04-19T12:08:18Z</time>
      </trkpt>
      <trkpt lat="49.83942" lon="2.39718">
        <ele>31.2</ele>
        <time>2023-04-19T12:08:19Z</time>
      </trkpt>
      <trkpt lat="49.83942" lon="2.39718">
        <ele>31.2</ele>
        <time>2023-04-19T12:08:20Z</time>
      </trkpt>
      <trkpt lat="49.83942" lon="2.39718">
        <ele>31.2</ele>
        <time>2023-04-19T12:08:21Z</time>
      </trkpt>
      <trkpt lat="49.83941" lon="2.39721">
        <ele>31.2</ele>
        <time>2023-04-19T12:08:22Z</time>
      </trkpt>
      <trkpt lat="49.8394" lon="2.39722">
        <ele>31.2</ele>
        <time>2023-04-19T12:08:24Z</time>
      </trkpt>
      <trkpt lat="49.8394" lon="2.39722">
        <ele>31.2</ele>
        <time>2023-04-19T12:08:25Z</time>
      </trkpt>
      <trkpt lat="49.83939" lon="2.39721">
        <ele>31.2</ele>
        <time>2023-04-19T12:08:26Z</time>
      </trkpt>
      <trkpt lat="49.83938" lon="2.3972">
        <ele>31.2</ele>
        <time>2023-04-19T12:08:27Z</time>
      </trkpt>
      <trkpt lat="49.83938" lon="2.39719">
        <ele>31.2</ele>
        <time>2023-04-19T12:08:28Z</time>
      </trkpt>
      <trkpt lat="49.83939" lon="2.39718">
        <ele>31.2</ele>
        <time>2023-04-19T12:08:30Z</time>
      </trkpt>
      <trkpt lat="49.8394" lon="2.39718">
        <ele>31.2</ele>
        <time>2023-04-19T12:08:31Z</time>
      </trkpt>
      <trkpt lat="49.8394" lon="2.39718">
        <ele>31.2</ele>
        <time>2023-04-19T12:08:32Z</time>
      </trkpt>
      <trkpt lat="49.83939" lon="2.39719">
        <ele>31.2</ele>
        <time>2023-04-19T12:08:34Z</time>
      </trkpt>
      <trkpt lat="49.83939" lon="2.39719">
        <ele>31.2</ele>
        <time>2023-04-19T12:08:35Z</time>
      </trkpt>
      <trkpt lat="49.83939" lon="2.3972">
        <ele>31.2</ele>
        <time>2023-04-19T12:08:37Z</time>
      </trkpt>
      <trkpt lat="49.83939" lon="2.39721">
        <ele>31.2</ele>
        <time>2023-04-19T12:08:38Z</time>
      </trkpt>
      <trkpt lat="49.83939" lon="2.39721">
        <ele>31.2</ele>
        <time>2023-04-19T12:08:39Z</time>
      </trkpt>
      <trkpt lat="49.83939" lon="2.39722">
        <ele>31.2</ele>
        <time>2023-04-19T12:08:40Z</time>
      </trkpt>
      <trkpt lat="49.8394" lon="2.39722">
        <ele>31.2</ele>
        <time>2023-04-19T12:08:41Z</time>
      </trkpt>
      <trkpt lat="49.83939" lon="2.39723">
        <ele>31.2</ele>
        <time>2023-04-19T12:08:43Z</time>
      </trkpt>
      <trkpt lat="49.83939" lon="2.39724">
        <ele>31.2</ele>
        <time>2023-04-19T12:08:44Z</time>
      </trkpt>
      <trkpt lat="49.83939" lon="2.39724">
        <ele>31.2</ele>
        <time>2023-04-19T12:08:45Z</time>
      </trkpt>
      <trkpt lat="49.83939" lon="2.39725">
        <ele>31.2</ele>
        <time>2023-04-19T12:08:46Z</time>
      </trkpt>
      <trkpt lat="49.83938" lon="2.39726">
        <ele>31.2</ele>
        <time>2023-04-19T12:08:47Z</time>
      </trkpt>
      <trkpt lat="49.83938" lon="2.39726">
        <ele>31.2</ele>
        <time>2023-04-19T12:08:48Z</time>
      </trkpt>
      <trkpt lat="49.83938" lon="2.39727">
        <ele>31.2</ele>
        <time>2023-04-19T12:08:49Z</time>
      </trkpt>
      <trkpt lat="49.83937" lon="2.39728">
        <ele>31.2</ele>
        <time>2023-04-19T12:08:50Z</time>
      </trkpt>
      <trkpt lat="49.83936" lon="2.39729">
        <ele>31.2</ele>
        <time>2023-04-19T12:08:52Z</time>
      </trkpt>
      <trkpt lat="49.83935" lon="2.3973">
        <ele>31.2</ele>
        <time>2023-04-19T12:08:53Z</time>
      </trkpt>
      <trkpt lat="49.83933" lon="2.3973">
        <ele>31.2</ele>
        <time>2023-04-19T12:08:54Z</time>
      </trkpt>
      <trkpt lat="49.83932" lon="2.3973">
        <ele>31.2</ele>
        <time>2023-04-19T12:08:55Z</time>
      </trkpt>
      <trkpt lat="49.83931" lon="2.3973">
        <ele>31.2</ele>
        <time>2023-04-19T12:08:56Z</time>
      </trkpt>
      <trkpt lat="49.83929" lon="2.3973">
        <ele>31.2</ele>
        <time>2023-04-19T12:08:58Z</time>
      </trkpt>
      <trkpt lat="49.83927" lon="2.3973">
        <ele>31.1</ele>
        <time>2023-04-19T12:08:59Z</time>
      </trkpt>
      <trkpt lat="49.83926" lon="2.3973">
        <ele>31.1</ele>
        <time>2023-04-19T12:09:00Z</time>
      </trkpt>
      <trkpt lat="49.83924" lon="2.3973">
        <ele>31.1</ele>
        <time>2023-04-19T12:09:01Z</time>
      </trkpt>
      <trkpt lat="49.83921" lon="2.39732">
        <ele>31.1</ele>
        <time>2023-04-19T12:09:02Z</time>
      </trkpt>
      <trkpt lat="49.83918" lon="2.39733">
        <ele>31.1</ele>
        <time>2023-04-19T12:09:04Z</time>
      </trkpt>
      <trkpt lat="49.83917" lon="2.39733">
        <ele>31.1</ele>
        <time>2023-04-19T12:09:05Z</time>
      </trkpt>
      <trkpt lat="49.83914" lon="2.39734">
        <ele>31</ele>
        <time>2023-04-19T12:09:06Z</time>
      </trkpt>
      <trkpt lat="49.83911" lon="2.39735">
        <ele>31</ele>
        <time>2023-04-19T12:09:07Z</time>
      </trkpt>
      <trkpt lat="49.8391" lon="2.39735">
        <ele>31</ele>
        <time>2023-04-19T12:09:08Z</time>
      </trkpt>
      <trkpt lat="49.83907" lon="2.39736">
        <ele>31</ele>
        <time>2023-04-19T12:09:09Z</time>
      </trkpt>
      <trkpt lat="49.83906" lon="2.39736">
        <ele>31</ele>
        <time>2023-04-19T12:09:10Z</time>
      </trkpt>
      <trkpt lat="49.83903" lon="2.39737">
        <ele>30.9</ele>
        <time>2023-04-19T12:09:11Z</time>
      </trkpt>
      <trkpt lat="49.839" lon="2.39738">
        <ele>30.9</ele>
        <time>2023-04-19T12:09:13Z</time>
      </trkpt>
      <trkpt lat="49.83899" lon="2.39739">
        <ele>30.9</ele>
        <time>2023-04-19T12:09:14Z</time>
      </trkpt>
      <trkpt lat="49.83895" lon="2.3974">
        <ele>30.8</ele>
        <time>2023-04-19T12:09:15Z</time>
      </trkpt>
      <trkpt lat="49.83894" lon="2.3974">
        <ele>30.8</ele>
        <time>2023-04-19T12:09:16Z</time>
      </trkpt>
      <trkpt lat="49.8389" lon="2.39741">
        <ele>30.8</ele>
        <time>2023-04-19T12:09:18Z</time>
      </trkpt>
      <trkpt lat="49.83889" lon="2.39741">
        <ele>30.8</ele>
        <time>2023-04-19T12:09:19Z</time>
      </trkpt>
      <trkpt lat="49.83887" lon="2.39741">
        <ele>30.7</ele>
        <time>2023-04-19T12:09:20Z</time>
      </trkpt>
      <trkpt lat="49.83886" lon="2.39742">
        <ele>30.7</ele>
        <time>2023-04-19T12:09:21Z</time>
      </trkpt>
      <trkpt lat="49.83885" lon="2.39742">
        <ele>30.7</ele>
        <time>2023-04-19T12:09:22Z</time>
      </trkpt>
      <trkpt lat="49.83884" lon="2.39743">
        <ele>30.7</ele>
        <time>2023-04-19T12:09:23Z</time>
      </trkpt>
      <trkpt lat="49.83884" lon="2.39742">
        <ele>30.7</ele>
        <time>2023-04-19T12:09:24Z</time>
      </trkpt>
      <trkpt lat="49.83884" lon="2.39742">
        <ele>30.7</ele>
        <time>2023-04-19T12:09:25Z</time>
      </trkpt>
      <trkpt lat="49.83883" lon="2.39741">
        <ele>30.7</ele>
        <time>2023-04-19T12:09:26Z</time>
      </trkpt>
      <trkpt lat="49.83882" lon="2.39741">
        <ele>30.7</ele>
        <time>2023-04-19T12:09:28Z</time>
      </trkpt>
      <trkpt lat="49.83882" lon="2.39741">
        <ele>30.7</ele>
        <time>2023-04-19T12:09:29Z</time>
      </trkpt>
      <trkpt lat="49.8388" lon="2.39742">
        <ele>30.7</ele>
        <time>2023-04-19T12:09:30Z</time>
      </trkpt>
      <trkpt lat="49.83879" lon="2.39742">
        <ele>30.7</ele>
        <time>2023-04-19T12:09:31Z</time>
      </trkpt>
      <trkpt lat="49.83878" lon="2.39743">
        <ele>30.7</ele>
        <time>2023-04-19T12:09:32Z</time>
      </trkpt>
      <trkpt lat="49.83876" lon="2.39744">
        <ele>30.7</ele>
        <time>2023-04-19T12:09:33Z</time>
      </trkpt>
      <trkpt lat="49.83875" lon="2.39744">
        <ele>30.7</ele>
        <time>2023-04-19T12:09:35Z</time>
      </trkpt>
      <trkpt lat="49.83874" lon="2.39744">
        <ele>30.7</ele>
        <time>2023-04-19T12:09:36Z</time>
      </trkpt>
      <trkpt lat="49.83873" lon="2.39744">
        <ele>30.6</ele>
        <time>2023-04-19T12:09:37Z</time>
      </trkpt>
      <trkpt lat="49.83873" lon="2.39745">
        <ele>30.6</ele>
        <time>2023-04-19T12:09:38Z</time>
      </trkpt>
      <trkpt lat="49.83872" lon="2.39745">
        <ele>30.6</ele>
        <time>2023-04-19T12:09:39Z</time>
      </trkpt>
      <trkpt lat="49.83871" lon="2.39746">
        <ele>30.6</ele>
        <time>2023-04-19T12:09:40Z</time>
      </trkpt>
      <trkpt lat="49.8387" lon="2.39746">
        <ele>30.6</ele>
        <time>2023-04-19T12:09:42Z</time>
      </trkpt>
      <trkpt lat="49.83869" lon="2.39747">
        <ele>30.6</ele>
        <time>2023-04-19T12:09:43Z</time>
      </trkpt>
      <trkpt lat="49.83868" lon="2.39748">
        <ele>30.6</ele>
        <time>2023-04-19T12:09:44Z</time>
      </trkpt>
      <trkpt lat="49.83866" lon="2.39749">
        <ele>30.6</ele>
        <time>2023-04-19T12:09:45Z</time>
      </trkpt>
      <trkpt lat="49.83865" lon="2.39751">
        <ele>30.6</ele>
        <time>2023-04-19T12:09:46Z</time>
      </trkpt>
      <trkpt lat="49.83864" lon="2.39751">
        <ele>30.6</ele>
        <time>2023-04-19T12:09:47Z</time>
      </trkpt>
      <trkpt lat="49.83863" lon="2.39752">
        <ele>30.6</ele>
        <time>2023-04-19T12:09:48Z</time>
      </trkpt>
      <trkpt lat="49.83861" lon="2.39752">
        <ele>30.6</ele>
        <time>2023-04-19T12:09:50Z</time>
      </trkpt>
      <trkpt lat="49.8386" lon="2.39753">
        <ele>30.6</ele>
        <time>2023-04-19T12:09:51Z</time>
      </trkpt>
      <trkpt lat="49.83858" lon="2.39754">
        <ele>30.6</ele>
        <time>2023-04-19T12:09:52Z</time>
      </trkpt>
      <trkpt lat="49.83857" lon="2.39755">
        <ele>30.6</ele>
        <time>2023-04-19T12:09:53Z</time>
      </trkpt>
      <trkpt lat="49.83856" lon="2.39755">
        <ele>30.6</ele>
        <time>2023-04-19T12:09:54Z</time>
      </trkpt>
      <trkpt lat="49.83855" lon="2.39756">
        <ele>30.6</ele>
        <time>2023-04-19T12:09:55Z</time>
      </trkpt>
      <trkpt lat="49.83853" lon="2.39758">
        <ele>30.6</ele>
        <time>2023-04-19T12:09:57Z</time>
      </trkpt>
      <trkpt lat="49.83852" lon="2.39759">
        <ele>30.6</ele>
        <time>2023-04-19T12:09:58Z</time>
      </trkpt>
      <trkpt lat="49.83851" lon="2.3976">
        <ele>30.6</ele>
        <time>2023-04-19T12:09:59Z</time>
      </trkpt>
      <trkpt lat="49.83849" lon="2.39761">
        <ele>30.6</ele>
        <time>2023-04-19T12:10:00Z</time>
      </trkpt>
      <trkpt lat="49.83849" lon="2.39762">
        <ele>30.6</ele>
        <time>2023-04-19T12:10:01Z</time>
      </trkpt>
      <trkpt lat="49.83848" lon="2.39763">
        <ele>30.6</ele>
        <time>2023-04-19T12:10:02Z</time>
      </trkpt>
      <trkpt lat="49.83847" lon="2.39764">
        <ele>30.6</ele>
        <time>2023-04-19T12:10:03Z</time>
      </trkpt>
      <trkpt lat="49.83847" lon="2.39765">
        <ele>30.6</ele>
        <time>2023-04-19T12:10:04Z</time>
      </trkpt>
      <trkpt lat="49.83846" lon="2.39765">
        <ele>30.6</ele>
        <time>2023-04-19T12:10:06Z</time>
      </trkpt>
      <trkpt lat="49.83845" lon="2.39766">
        <ele>30.6</ele>
        <time>2023-04-19T12:10:07Z</time>
      </trkpt>
      <trkpt lat="49.83845" lon="2.39767">
        <ele>30.6</ele>
        <time>2023-04-19T12:10:08Z</time>
      </trkpt>
      <trkpt lat="49.83844" lon="2.39768">
        <ele>30.6</ele>
        <time>2023-04-19T12:10:09Z</time>
      </trkpt>
      <trkpt lat="49.83843" lon="2.39769">
        <ele>30.6</ele>
        <time>2023-04-19T12:10:10Z</time>
      </trkpt>
      <trkpt lat="49.83842" lon="2.39769">
        <ele>30.6</ele>
        <time>2023-04-19T12:10:11Z</time>
      </trkpt>
      <trkpt lat="49.83841" lon="2.3977">
        <ele>30.6</ele>
        <time>2023-04-19T12:10:12Z</time>
      </trkpt>
      <trkpt lat="49.83841" lon="2.39771">
        <ele>30.6</ele>
        <time>2023-04-19T12:10:14Z</time>
      </trkpt>
      <trkpt lat="49.8384" lon="2.39772">
        <ele>30.6</ele>
        <time>2023-04-19T12:10:15Z</time>
      </trkpt>
      <trkpt lat="49.83839" lon="2.39772">
        <ele>30.6</ele>
        <time>2023-04-19T12:10:16Z</time>
      </trkpt>
      <trkpt lat="49.83838" lon="2.39774">
        <ele>30.6</ele>
        <time>2023-04-19T12:10:17Z</time>
      </trkpt>
      <trkpt lat="49.83837" lon="2.39775">
        <ele>30.6</ele>
        <time>2023-04-19T12:10:18Z</time>
      </trkpt>
      <trkpt lat="49.83836" lon="2.39775">
        <ele>30.6</ele>
        <time>2023-04-19T12:10:19Z</time>
      </trkpt>
      <trkpt lat="49.83835" lon="2.39777">
        <ele>30.6</ele>
        <time>2023-04-19T12:10:20Z</time>
      </trkpt>
      <trkpt lat="49.83835" lon="2.39778">
        <ele>30.6</ele>
        <time>2023-04-19T12:10:21Z</time>
      </trkpt>
      <trkpt lat="49.83834" lon="2.39779">
        <ele>30.6</ele>
        <time>2023-04-19T12:10:23Z</time>
      </trkpt>
      <trkpt lat="49.83833" lon="2.3978">
        <ele>30.6</ele>
        <time>2023-04-19T12:10:24Z</time>
      </trkpt>
      <trkpt lat="49.83833" lon="2.39781">
        <ele>30.6</ele>
        <time>2023-04-19T12:10:25Z</time>
      </trkpt>
      <trkpt lat="49.83832" lon="2.39781">
        <ele>30.6</ele>
        <time>2023-04-19T12:10:26Z</time>
      </trkpt>
      <trkpt lat="49.83831" lon="2.39782">
        <ele>30.6</ele>
        <time>2023-04-19T12:10:27Z</time>
      </trkpt>
      <trkpt lat="49.8383" lon="2.39784">
        <ele>30.6</ele>
        <time>2023-04-19T12:10:29Z</time>
      </trkpt>
      <trkpt lat="49.83829" lon="2.39785">
        <ele>30.7</ele>
        <time>2023-04-19T12:10:30Z</time>
      </trkpt>
      <trkpt lat="49.83829" lon="2.39786">
        <ele>30.7</ele>
        <time>2023-04-19T12:10:31Z</time>
      </trkpt>
      <trkpt lat="49.83828" lon="2.39787">
        <ele>30.7</ele>
        <time>2023-04-19T12:10:32Z</time>
      </trkpt>
      <trkpt lat="49.83827" lon="2.39788">
        <ele>30.7</ele>
        <time>2023-04-19T12:10:33Z</time>
      </trkpt>
      <trkpt lat="49.83827" lon="2.3979">
        <ele>30.7</ele>
        <time>2023-04-19T12:10:34Z</time>
      </trkpt>
      <trkpt lat="49.83825" lon="2.39792">
        <ele>30.7</ele>
        <time>2023-04-19T12:10:36Z</time>
      </trkpt>
      <trkpt lat="49.83824" lon="2.39792">
        <ele>30.7</ele>
        <time>2023-04-19T12:10:37Z</time>
      </trkpt>
      <trkpt lat="49.83822" lon="2.39793">
        <ele>30.7</ele>
        <time>2023-04-19T12:10:38Z</time>
      </trkpt>
      <trkpt lat="49.8382" lon="2.39795">
        <ele>30.7</ele>
        <time>2023-04-19T12:10:39Z</time>
      </trkpt>
      <trkpt lat="49.8382" lon="2.39795">
        <ele>30.7</ele>
        <time>2023-04-19T12:10:40Z</time>
      </trkpt>
      <trkpt lat="49.83819" lon="2.39796">
        <ele>30.7</ele>
        <time>2023-04-19T12:10:41Z</time>
      </trkpt>
      <trkpt lat="49.83818" lon="2.39796">
        <ele>30.7</ele>
        <time>2023-04-19T12:10:42Z</time>
      </trkpt>
      <trkpt lat="49.83816" lon="2.39797">
        <ele>30.7</ele>
        <time>2023-04-19T12:10:43Z</time>
      </trkpt>
      <trkpt lat="49.83815" lon="2.39797">
        <ele>30.7</ele>
        <time>2023-04-19T12:10:45Z</time>
      </trkpt>
      <trkpt lat="49.83814" lon="2.39798">
        <ele>30.7</ele>
        <time>2023-04-19T12:10:46Z</time>
      </trkpt>
      <trkpt lat="49.83812" lon="2.39798">
        <ele>30.7</ele>
        <time>2023-04-19T12:10:47Z</time>
      </trkpt>
      <trkpt lat="49.8381" lon="2.39798">
        <ele>30.7</ele>
        <time>2023-04-19T12:10:48Z</time>
      </trkpt>
      <trkpt lat="49.83809" lon="2.39798">
        <ele>30.7</ele>
        <time>2023-04-19T12:10:49Z</time>
      </trkpt>
      <trkpt lat="49.83808" lon="2.39798">
        <ele>30.8</ele>
        <time>2023-04-19T12:10:50Z</time>
      </trkpt>
      <trkpt lat="49.83807" lon="2.39798">
        <ele>30.8</ele>
        <time>2023-04-19T12:10:51Z</time>
      </trkpt>
      <trkpt lat="49.83805" lon="2.39798">
        <ele>30.8</ele>
        <time>2023-04-19T12:10:53Z</time>
      </trkpt>
      <trkpt lat="49.83803" lon="2.39798">
        <ele>30.8</ele>
        <time>2023-04-19T12:10:54Z</time>
      </trkpt>
      <trkpt lat="49.83801" lon="2.39799">
        <ele>30.8</ele>
        <time>2023-04-19T12:10:55Z</time>
      </trkpt>
      <trkpt lat="49.83798" lon="2.398">
        <ele>30.8</ele>
        <time>2023-04-19T12:10:56Z</time>
      </trkpt>
      <trkpt lat="49.83797" lon="2.398">
        <ele>30.8</ele>
        <time>2023-04-19T12:10:57Z</time>
      </trkpt>
      <trkpt lat="49.83794" lon="2.39801">
        <ele>30.8</ele>
        <time>2023-04-19T12:10:58Z</time>
      </trkpt>
      <trkpt lat="49.83793" lon="2.39801">
        <ele>30.8</ele>
        <time>2023-04-19T12:10:59Z</time>
      </trkpt>
      <trkpt lat="49.83792" lon="2.39802">
        <ele>30.8</ele>
        <time>2023-04-19T12:11:01Z</time>
      </trkpt>
      <trkpt lat="49.83791" lon="2.39802">
        <ele>30.8</ele>
        <time>2023-04-19T12:11:02Z</time>
      </trkpt>
      <trkpt lat="49.8379" lon="2.39802">
        <ele>30.8</ele>
        <time>2023-04-19T12:11:03Z</time>
      </trkpt>
      <trkpt lat="49.83789" lon="2.39802">
        <ele>30.8</ele>
        <time>2023-04-19T12:11:04Z</time>
      </trkpt>
      <trkpt lat="49.83789" lon="2.39802">
        <ele>30.8</ele>
        <time>2023-04-19T12:11:05Z</time>
      </trkpt>
      <trkpt lat="49.83788" lon="2.39802">
        <ele>30.8</ele>
        <time>2023-04-19T12:11:06Z</time>
      </trkpt>
      <trkpt lat="49.83787" lon="2.39802">
        <ele>30.8</ele>
        <time>2023-04-19T12:11:07Z</time>
      </trkpt>
      <trkpt lat="49.83786" lon="2.39803">
        <ele>30.8</ele>
        <time>2023-04-19T12:11:09Z</time>
      </trkpt>
      <trkpt lat="49.83784" lon="2.39803">
        <ele>30.8</ele>
        <time>2023-04-19T12:11:10Z</time>
      </trkpt>
      <trkpt lat="49.83783" lon="2.39803">
        <ele>30.8</ele>
        <time>2023-04-19T12:11:11Z</time>
      </trkpt>
      <trkpt lat="49.83782" lon="2.39803">
        <ele>30.8</ele>
        <time>2023-04-19T12:11:12Z</time>
      </trkpt>
      <trkpt lat="49.83782" lon="2.39803">
        <ele>30.8</ele>
        <time>2023-04-19T12:11:13Z</time>
      </trkpt>
      <trkpt lat="49.83781" lon="2.39804">
        <ele>30.8</ele>
        <time>2023-04-19T12:11:14Z</time>
      </trkpt>
      <trkpt lat="49.8378" lon="2.39804">
        <ele>30.8</ele>
        <time>2023-04-19T12:11:16Z</time>
      </trkpt>
      <trkpt lat="49.83779" lon="2.39805">
        <ele>30.8</ele>
        <time>2023-04-19T12:11:17Z</time>
      </trkpt>
      <trkpt lat="49.83778" lon="2.39805">
        <ele>30.8</ele>
        <time>2023-04-19T12:11:18Z</time>
      </trkpt>
      <trkpt lat="49.83778" lon="2.39805">
        <ele>30.8</ele>
        <time>2023-04-19T12:11:19Z</time>
      </trkpt>
      <trkpt lat="49.83776" lon="2.39806">
        <ele>30.8</ele>
        <time>2023-04-19T12:11:20Z</time>
      </trkpt>
      <trkpt lat="49.83775" lon="2.39807">
        <ele>30.8</ele>
        <time>2023-04-19T12:11:21Z</time>
      </trkpt>
      <trkpt lat="49.83773" lon="2.39807">
        <ele>30.8</ele>
        <time>2023-04-19T12:11:23Z</time>
      </trkpt>
      <trkpt lat="49.83771" lon="2.39807">
        <ele>30.8</ele>
        <time>2023-04-19T12:11:24Z</time>
      </trkpt>
      <trkpt lat="49.8377" lon="2.39807">
        <ele>30.8</ele>
        <time>2023-04-19T12:11:25Z</time>
      </trkpt>
      <trkpt lat="49.83768" lon="2.39807">
        <ele>30.8</ele>
        <time>2023-04-19T12:11:26Z</time>
      </trkpt>
      <trkpt lat="49.83766" lon="2.39806">
        <ele>30.8</ele>
        <time>2023-04-19T12:11:27Z</time>
      </trkpt>
      <trkpt lat="49.83764" lon="2.39806">
        <ele>30.8</ele>
        <time>2023-04-19T12:11:29Z</time>
      </trkpt>
      <trkpt lat="49.83761" lon="2.39806">
        <ele>30.8</ele>
        <time>2023-04-19T12:11:30Z</time>
      </trkpt>
      <trkpt lat="49.8376" lon="2.39807">
        <ele>30.7</ele>
        <time>2023-04-19T12:11:31Z</time>
      </trkpt>
      <trkpt lat="49.83758" lon="2.39807">
        <ele>30.7</ele>
        <time>2023-04-19T12:11:32Z</time>
      </trkpt>
      <trkpt lat="49.83757" lon="2.39808">
        <ele>30.7</ele>
        <time>2023-04-19T12:11:33Z</time>
      </trkpt>
      <trkpt lat="49.83756" lon="2.39808">
        <ele>30.7</ele>
        <time>2023-04-19T12:11:34Z</time>
      </trkpt>
      <trkpt lat="49.83755" lon="2.39808">
        <ele>30.7</ele>
        <time>2023-04-19T12:11:35Z</time>
      </trkpt>
      <trkpt lat="49.83753" lon="2.39808">
        <ele>30.7</ele>
        <time>2023-04-19T12:11:36Z</time>
      </trkpt>
      <trkpt lat="49.83752" lon="2.39808">
        <ele>30.7</ele>
        <time>2023-04-19T12:11:37Z</time>
      </trkpt>
      <trkpt lat="49.8375" lon="2.39808">
        <ele>30.7</ele>
        <time>2023-04-19T12:11:38Z</time>
      </trkpt>
      <trkpt lat="49.83749" lon="2.39809">
        <ele>30.7</ele>
        <time>2023-04-19T12:11:40Z</time>
      </trkpt>
      <trkpt lat="49.83748" lon="2.3981">
        <ele>30.7</ele>
        <time>2023-04-19T12:11:41Z</time>
      </trkpt>
      <trkpt lat="49.83747" lon="2.39811">
        <ele>30.7</ele>
        <time>2023-04-19T12:11:42Z</time>
      </trkpt>
      <trkpt lat="49.83746" lon="2.39812">
        <ele>30.7</ele>
        <time>2023-04-19T12:11:43Z</time>
      </trkpt>
      <trkpt lat="49.83746" lon="2.39813">
        <ele>30.7</ele>
        <time>2023-04-19T12:11:44Z</time>
      </trkpt>
      <trkpt lat="49.83744" lon="2.39815">
        <ele>30.7</ele>
        <time>2023-04-19T12:11:45Z</time>
      </trkpt>
      <trkpt lat="49.83743" lon="2.39816">
        <ele>30.7</ele>
        <time>2023-04-19T12:11:47Z</time>
      </trkpt>
      <trkpt lat="49.83743" lon="2.39817">
        <ele>30.7</ele>
        <time>2023-04-19T12:11:48Z</time>
      </trkpt>
      <trkpt lat="49.83742" lon="2.39818">
        <ele>30.7</ele>
        <time>2023-04-19T12:11:49Z</time>
      </trkpt>
      <trkpt lat="49.83741" lon="2.39818">
        <ele>30.7</ele>
        <time>2023-04-19T12:11:50Z</time>
      </trkpt>
      <trkpt lat="49.8374" lon="2.39818">
        <ele>30.7</ele>
        <time>2023-04-19T12:11:51Z</time>
      </trkpt>
      <trkpt lat="49.8374" lon="2.39819">
        <ele>30.7</ele>
        <time>2023-04-19T12:11:52Z</time>
      </trkpt>
      <trkpt lat="49.83739" lon="2.3982">
        <ele>30.7</ele>
        <time>2023-04-19T12:11:53Z</time>
      </trkpt>
      <trkpt lat="49.83738" lon="2.39821">
        <ele>30.7</ele>
        <time>2023-04-19T12:11:55Z</time>
      </trkpt>
      <trkpt lat="49.83738" lon="2.39821">
        <ele>30.7</ele>
        <time>2023-04-19T12:11:56Z</time>
      </trkpt>
      <trkpt lat="49.83737" lon="2.39821">
        <ele>30.7</ele>
        <time>2023-04-19T12:11:57Z</time>
      </trkpt>
      <trkpt lat="49.83737" lon="2.39821">
        <ele>30.7</ele>
        <time>2023-04-19T12:11:58Z</time>
      </trkpt>
      <trkpt lat="49.83736" lon="2.39822">
        <ele>30.7</ele>
        <time>2023-04-19T12:11:59Z</time>
      </trkpt>
      <trkpt lat="49.83735" lon="2.39822">
        <ele>30.7</ele>
        <time>2023-04-19T12:12:00Z</time>
      </trkpt>
      <trkpt lat="49.83734" lon="2.39822">
        <ele>30.7</ele>
        <time>2023-04-19T12:12:01Z</time>
      </trkpt>
      <trkpt lat="49.83732" lon="2.39822">
        <ele>30.7</ele>
        <time>2023-04-19T12:12:03Z</time>
      </trkpt>
      <trkpt lat="49.83731" lon="2.39822">
        <ele>30.7</ele>
        <time>2023-04-19T12:12:04Z</time>
      </trkpt>
      <trkpt lat="49.8373" lon="2.39822">
        <ele>30.7</ele>
        <time>2023-04-19T12:12:05Z</time>
      </trkpt>
      <trkpt lat="49.83728" lon="2.39823">
        <ele>30.7</ele>
        <time>2023-04-19T12:12:06Z</time>
      </trkpt>
      <trkpt lat="49.83727" lon="2.39823">
        <ele>30.7</ele>
        <time>2023-04-19T12:12:07Z</time>
      </trkpt>
      <trkpt lat="49.83724" lon="2.39823">
        <ele>30.7</ele>
        <time>2023-04-19T12:12:08Z</time>
      </trkpt>
      <trkpt lat="49.83722" lon="2.39823">
        <ele>30.7</ele>
        <time>2023-04-19T12:12:10Z</time>
      </trkpt>
      <trkpt lat="49.83721" lon="2.39823">
        <ele>30.7</ele>
        <time>2023-04-19T12:12:11Z</time>
      </trkpt>
      <trkpt lat="49.83719" lon="2.39823">
        <ele>30.7</ele>
        <time>2023-04-19T12:12:12Z</time>
      </trkpt>
      <trkpt lat="49.83716" lon="2.39822">
        <ele>30.7</ele>
        <time>2023-04-19T12:12:13Z</time>
      </trkpt>
      <trkpt lat="49.83715" lon="2.39822">
        <ele>30.7</ele>
        <time>2023-04-19T12:12:14Z</time>
      </trkpt>
      <trkpt lat="49.83712" lon="2.39822">
        <ele>30.7</ele>
        <time>2023-04-19T12:12:15Z</time>
      </trkpt>
      <trkpt lat="49.83712" lon="2.39823">
        <ele>30.7</ele>
        <time>2023-04-19T12:12:16Z</time>
      </trkpt>
      <trkpt lat="49.83709" lon="2.39822">
        <ele>30.7</ele>
        <time>2023-04-19T12:12:18Z</time>
      </trkpt>
      <trkpt lat="49.83708" lon="2.39822">
        <ele>30.7</ele>
        <time>2023-04-19T12:12:19Z</time>
      </trkpt>
      <trkpt lat="49.83706" lon="2.39822">
        <ele>30.8</ele>
        <time>2023-04-19T12:12:20Z</time>
      </trkpt>
      <trkpt lat="49.83705" lon="2.39822">
        <ele>30.8</ele>
        <time>2023-04-19T12:12:21Z</time>
      </trkpt>
      <trkpt lat="49.83704" lon="2.39821">
        <ele>30.8</ele>
        <time>2023-04-19T12:12:22Z</time>
      </trkpt>
      <trkpt lat="49.83703" lon="2.39821">
        <ele>30.8</ele>
        <time>2023-04-19T12:12:23Z</time>
      </trkpt>
      <trkpt lat="49.83702" lon="2.3982">
        <ele>30.8</ele>
        <time>2023-04-19T12:12:25Z</time>
      </trkpt>
      <trkpt lat="49.83702" lon="2.3982">
        <ele>30.8</ele>
        <time>2023-04-19T12:12:26Z</time>
      </trkpt>
      <trkpt lat="49.83701" lon="2.3982">
        <ele>30.8</ele>
        <time>2023-04-19T12:12:27Z</time>
      </trkpt>
      <trkpt lat="49.837" lon="2.3982">
        <ele>30.9</ele>
        <time>2023-04-19T12:12:28Z</time>
      </trkpt>
      <trkpt lat="49.83699" lon="2.39819">
        <ele>30.9</ele>
        <time>2023-04-19T12:12:29Z</time>
      </trkpt>
      <trkpt lat="49.83697" lon="2.39819">
        <ele>30.9</ele>
        <time>2023-04-19T12:12:30Z</time>
      </trkpt>
      <trkpt lat="49.83696" lon="2.39819">
        <ele>30.9</ele>
        <time>2023-04-19T12:12:31Z</time>
      </trkpt>
      <trkpt lat="49.83695" lon="2.39819">
        <ele>30.9</ele>
        <time>2023-04-19T12:12:32Z</time>
      </trkpt>
      <trkpt lat="49.83694" lon="2.39819">
        <ele>31</ele>
        <time>2023-04-19T12:12:34Z</time>
      </trkpt>
      <trkpt lat="49.83692" lon="2.39819">
        <ele>31</ele>
        <time>2023-04-19T12:12:35Z</time>
      </trkpt>
      <trkpt lat="49.8369" lon="2.39819">
        <ele>31</ele>
        <time>2023-04-19T12:12:36Z</time>
      </trkpt>
      <trkpt lat="49.83689" lon="2.39819">
        <ele>31</ele>
        <time>2023-04-19T12:12:37Z</time>
      </trkpt>
      <trkpt lat="49.83687" lon="2.3982">
        <ele>31.1</ele>
        <time>2023-04-19T12:12:38Z</time>
      </trkpt>
      <trkpt lat="49.83686" lon="2.3982">
        <ele>31.1</ele>
        <time>2023-04-19T12:12:39Z</time>
      </trkpt>
      <trkpt lat="49.83685" lon="2.3982">
        <ele>31.1</ele>
        <time>2023-04-19T12:12:40Z</time>
      </trkpt>
      <trkpt lat="49.83682" lon="2.39821">
        <ele>31.1</ele>
        <time>2023-04-19T12:12:42Z</time>
      </trkpt>
      <trkpt lat="49.83681" lon="2.39821">
        <ele>31.1</ele>
        <time>2023-04-19T12:12:43Z</time>
      </trkpt>
      <trkpt lat="49.8368" lon="2.39821">
        <ele>31.2</ele>
        <time>2023-04-19T12:12:44Z</time>
      </trkpt>
      <trkpt lat="49.83679" lon="2.39822">
        <ele>31.2</ele>
        <time>2023-04-19T12:12:45Z</time>
      </trkpt>
      <trkpt lat="49.83678" lon="2.39823">
        <ele>31.2</ele>
        <time>2023-04-19T12:12:46Z</time>
      </trkpt>
      <trkpt lat="49.83677" lon="2.39824">
        <ele>31.2</ele>
        <time>2023-04-19T12:12:47Z</time>
      </trkpt>
      <trkpt lat="49.83676" lon="2.39824">
        <ele>31.2</ele>
        <time>2023-04-19T12:12:48Z</time>
      </trkpt>
      <trkpt lat="49.83675" lon="2.39825">
        <ele>31.2</ele>
        <time>2023-04-19T12:12:50Z</time>
      </trkpt>
      <trkpt lat="49.83675" lon="2.39825">
        <ele>31.2</ele>
        <time>2023-04-19T12:12:51Z</time>
      </trkpt>
      <trkpt lat="49.83674" lon="2.39826">
        <ele>31.2</ele>
        <time>2023-04-19T12:12:52Z</time>
      </trkpt>
      <trkpt lat="49.83673" lon="2.39827">
        <ele>31.2</ele>
        <time>2023-04-19T12:12:53Z</time>
      </trkpt>
      <trkpt lat="49.83673" lon="2.39828">
        <ele>31.3</ele>
        <time>2023-04-19T12:12:54Z</time>
      </trkpt>
      <trkpt lat="49.83672" lon="2.39831">
        <ele>31.3</ele>
        <time>2023-04-19T12:12:56Z</time>
      </trkpt>
      <trkpt lat="49.83672" lon="2.39832">
        <ele>31.3</ele>
        <time>2023-04-19T12:12:57Z</time>
      </trkpt>
      <trkpt lat="49.83672" lon="2.39833">
        <ele>31.3</ele>
        <time>2023-04-19T12:12:58Z</time>
      </trkpt>
      <trkpt lat="49.83672" lon="2.39834">
        <ele>31.3</ele>
        <time>2023-04-19T12:12:59Z</time>
      </trkpt>
      <trkpt lat="49.83671" lon="2.39835">
        <ele>31.3</ele>
        <time>2023-04-19T12:13:00Z</time>
      </trkpt>
      <trkpt lat="49.8367" lon="2.39836">
        <ele>31.3</ele>
        <time>2023-04-19T12:13:01Z</time>
      </trkpt>
      <trkpt lat="49.8367" lon="2.39838">
        <ele>31.3</ele>
        <time>2023-04-19T12:13:02Z</time>
      </trkpt>
      <trkpt lat="49.83669" lon="2.39839">
        <ele>31.4</ele>
        <time>2023-04-19T12:13:03Z</time>
      </trkpt>
      <trkpt lat="49.83669" lon="2.3984">
        <ele>31.4</ele>
        <time>2023-04-19T12:13:05Z</time>
      </trkpt>
      <trkpt lat="49.83668" lon="2.39841">
        <ele>31.4</ele>
        <time>2023-04-19T12:13:06Z</time>
      </trkpt>
      <trkpt lat="49.83667" lon="2.39842">
        <ele>31.4</ele>
        <time>2023-04-19T12:13:07Z</time>
      </trkpt>
      <trkpt lat="49.83667" lon="2.39843">
        <ele>31.4</ele>
        <time>2023-04-19T12:13:08Z</time>
      </trkpt>
      <trkpt lat="49.83667" lon="2.39844">
        <ele>31.4</ele>
        <time>2023-04-19T12:13:09Z</time>
      </trkpt>
      <trkpt lat="49.83665" lon="2.39845">
        <ele>31.4</ele>
        <time>2023-04-19T12:13:10Z</time>
      </trkpt>
      <trkpt lat="49.83664" lon="2.39846">
        <ele>31.5</ele>
        <time>2023-04-19T12:13:11Z</time>
      </trkpt>
      <trkpt lat="49.83663" lon="2.39847">
        <ele>31.5</ele>
        <time>2023-04-19T12:13:13Z</time>
      </trkpt>
      <trkpt lat="49.83662" lon="2.39848">
        <ele>31.5</ele>
        <time>2023-04-19T12:13:14Z</time>
      </trkpt>
      <trkpt lat="49.83661" lon="2.3985">
        <ele>31.5</ele>
        <time>2023-04-19T12:13:15Z</time>
      </trkpt>
      <trkpt lat="49.8366" lon="2.39851">
        <ele>31.6</ele>
        <time>2023-04-19T12:13:16Z</time>
      </trkpt>
      <trkpt lat="49.83659" lon="2.39853">
        <ele>31.6</ele>
        <time>2023-04-19T12:13:17Z</time>
      </trkpt>
      <trkpt lat="49.83658" lon="2.39854">
        <ele>31.6</ele>
        <time>2023-04-19T12:13:18Z</time>
      </trkpt>
      <trkpt lat="49.83657" lon="2.39855">
        <ele>31.6</ele>
        <time>2023-04-19T12:13:20Z</time>
      </trkpt>
      <trkpt lat="49.83656" lon="2.39856">
        <ele>31.6</ele>
        <time>2023-04-19T12:13:21Z</time>
      </trkpt>
      <trkpt lat="49.83655" lon="2.39857">
        <ele>31.7</ele>
        <time>2023-04-19T12:13:22Z</time>
      </trkpt>
      <trkpt lat="49.83654" lon="2.39857">
        <ele>31.7</ele>
        <time>2023-04-19T12:13:23Z</time>
      </trkpt>
      <trkpt lat="49.83653" lon="2.39859">
        <ele>31.7</ele>
        <time>2023-04-19T12:13:24Z</time>
      </trkpt>
      <trkpt lat="49.83652" lon="2.3986">
        <ele>31.7</ele>
        <time>2023-04-19T12:13:25Z</time>
      </trkpt>
      <trkpt lat="49.8365" lon="2.39863">
        <ele>31.8</ele>
        <time>2023-04-19T12:13:26Z</time>
      </trkpt>
      <trkpt lat="49.83649" lon="2.39864">
        <ele>31.8</ele>
        <time>2023-04-19T12:13:28Z</time>
      </trkpt>
      <trkpt lat="49.83648" lon="2.39865">
        <ele>31.8</ele>
        <time>2023-04-19T12:13:29Z</time>
      </trkpt>
      <trkpt lat="49.83647" lon="2.39865">
        <ele>31.8</ele>
        <time>2023-04-19T12:13:30Z</time>
      </trkpt>
      <trkpt lat="49.83646" lon="2.39866">
        <ele>31.8</ele>
        <time>2023-04-19T12:13:31Z</time>
      </trkpt>
      <trkpt lat="49.83645" lon="2.39868">
        <ele>31.8</ele>
        <time>2023-04-19T12:13:32Z</time>
      </trkpt>
      <trkpt lat="49.83644" lon="2.39868">
        <ele>31.9</ele>
        <time>2023-04-19T12:13:34Z</time>
      </trkpt>
      <trkpt lat="49.83643" lon="2.39869">
        <ele>31.9</ele>
        <time>2023-04-19T12:13:35Z</time>
      </trkpt>
      <trkpt lat="49.83643" lon="2.3987">
        <ele>31.9</ele>
        <time>2023-04-19T12:13:36Z</time>
      </trkpt>
      <trkpt lat="49.83642" lon="2.39872">
        <ele>31.9</ele>
        <time>2023-04-19T12:13:37Z</time>
      </trkpt>
      <trkpt lat="49.8364" lon="2.39873">
        <ele>31.9</ele>
        <time>2023-04-19T12:13:38Z</time>
      </trkpt>
      <trkpt lat="49.83639" lon="2.39874">
        <ele>31.9</ele>
        <time>2023-04-19T12:13:39Z</time>
      </trkpt>
      <trkpt lat="49.83638" lon="2.39875">
        <ele>31.9</ele>
        <time>2023-04-19T12:13:40Z</time>
      </trkpt>
      <trkpt lat="49.83637" lon="2.39875">
        <ele>31.9</ele>
        <time>2023-04-19T12:13:42Z</time>
      </trkpt>
      <trkpt lat="49.83636" lon="2.39875">
        <ele>31.9</ele>
        <time>2023-04-19T12:13:43Z</time>
      </trkpt>
      <trkpt lat="49.83636" lon="2.39876">
        <ele>32</ele>
        <time>2023-04-19T12:13:44Z</time>
      </trkpt>
      <trkpt lat="49.83635" lon="2.39876">
        <ele>32</ele>
        <time>2023-04-19T12:13:45Z</time>
      </trkpt>
      <trkpt lat="49.83634" lon="2.39877">
        <ele>32</ele>
        <time>2023-04-19T12:13:46Z</time>
      </trkpt>
      <trkpt lat="49.83633" lon="2.39877">
        <ele>32</ele>
        <time>2023-04-19T12:13:47Z</time>
      </trkpt>
      <trkpt lat="49.83632" lon="2.39878">
        <ele>32</ele>
        <time>2023-04-19T12:13:48Z</time>
      </trkpt>
      <trkpt lat="49.83631" lon="2.39878">
        <ele>32</ele>
        <time>2023-04-19T12:13:49Z</time>
      </trkpt>
      <trkpt lat="49.83631" lon="2.39878">
        <ele>32</ele>
        <time>2023-04-19T12:13:50Z</time>
      </trkpt>
      <trkpt lat="49.8363" lon="2.39879">
        <ele>32</ele>
        <time>2023-04-19T12:13:52Z</time>
      </trkpt>
      <trkpt lat="49.83629" lon="2.39879">
        <ele>32</ele>
        <time>2023-04-19T12:13:53Z</time>
      </trkpt>
      <trkpt lat="49.83629" lon="2.3988">
        <ele>32</ele>
        <time>2023-04-19T12:13:54Z</time>
      </trkpt>
      <trkpt lat="49.83628" lon="2.3988">
        <ele>32</ele>
        <time>2023-04-19T12:13:55Z</time>
      </trkpt>
      <trkpt lat="49.83627" lon="2.39881">
        <ele>32</ele>
        <time>2023-04-19T12:13:56Z</time>
      </trkpt>
      <trkpt lat="49.83626" lon="2.39881">
        <ele>32</ele>
        <time>2023-04-19T12:13:57Z</time>
      </trkpt>
      <trkpt lat="49.83626" lon="2.39881">
        <ele>32</ele>
        <time>2023-04-19T12:13:58Z</time>
      </trkpt>
      <trkpt lat="49.83625" lon="2.39882">
        <ele>32</ele>
        <time>2023-04-19T12:14:00Z</time>
      </trkpt>
      <trkpt lat="49.83624" lon="2.39883">
        <ele>32.1</ele>
        <time>2023-04-19T12:14:01Z</time>
      </trkpt>
      <trkpt lat="49.83622" lon="2.39883">
        <ele>32.1</ele>
        <time>2023-04-19T12:14:02Z</time>
      </trkpt>
      <trkpt lat="49.83621" lon="2.39884">
        <ele>32.1</ele>
        <time>2023-04-19T12:14:03Z</time>
      </trkpt>
      <trkpt lat="49.8362" lon="2.39884">
        <ele>32.1</ele>
        <time>2023-04-19T12:14:04Z</time>
      </trkpt>
      <trkpt lat="49.8362" lon="2.39884">
        <ele>32.1</ele>
        <time>2023-04-19T12:14:05Z</time>
      </trkpt>
      <trkpt lat="49.83619" lon="2.39885">
        <ele>32.1</ele>
        <time>2023-04-19T12:14:07Z</time>
      </trkpt>
      <trkpt lat="49.83618" lon="2.39885">
        <ele>32.1</ele>
        <time>2023-04-19T12:14:08Z</time>
      </trkpt>
      <trkpt lat="49.83617" lon="2.39886">
        <ele>32.1</ele>
        <time>2023-04-19T12:14:09Z</time>
      </trkpt>
      <trkpt lat="49.83616" lon="2.39886">
        <ele>32.1</ele>
        <time>2023-04-19T12:14:10Z</time>
      </trkpt>
      <trkpt lat="49.83615" lon="2.39887">
        <ele>32.1</ele>
        <time>2023-04-19T12:14:11Z</time>
      </trkpt>
      <trkpt lat="49.83615" lon="2.39888">
        <ele>32.1</ele>
        <time>2023-04-19T12:14:12Z</time>
      </trkpt>
      <trkpt lat="49.83613" lon="2.39889">
        <ele>32.1</ele>
        <time>2023-04-19T12:14:13Z</time>
      </trkpt>
      <trkpt lat="49.83612" lon="2.3989">
        <ele>32.1</ele>
        <time>2023-04-19T12:14:14Z</time>
      </trkpt>
      <trkpt lat="49.83611" lon="2.39891">
        <ele>32.1</ele>
        <time>2023-04-19T12:14:16Z</time>
      </trkpt>
      <trkpt lat="49.8361" lon="2.39892">
        <ele>32.1</ele>
        <time>2023-04-19T12:14:17Z</time>
      </trkpt>
      <trkpt lat="49.83609" lon="2.39892">
        <ele>32.1</ele>
        <time>2023-04-19T12:14:18Z</time>
      </trkpt>
      <trkpt lat="49.83607" lon="2.39893">
        <ele>32.1</ele>
        <time>2023-04-19T12:14:19Z</time>
      </trkpt>
      <trkpt lat="49.83606" lon="2.39894">
        <ele>32.1</ele>
        <time>2023-04-19T12:14:20Z</time>
      </trkpt>
      <trkpt lat="49.83605" lon="2.39895">
        <ele>32.1</ele>
        <time>2023-04-19T12:14:21Z</time>
      </trkpt>
      <trkpt lat="49.83603" lon="2.39897">
        <ele>32.1</ele>
        <time>2023-04-19T12:14:23Z</time>
      </trkpt>
      <trkpt lat="49.83602" lon="2.39898">
        <ele>32.1</ele>
        <time>2023-04-19T12:14:24Z</time>
      </trkpt>
      <trkpt lat="49.83601" lon="2.39899">
        <ele>32.1</ele>
        <time>2023-04-19T12:14:25Z</time>
      </trkpt>
      <trkpt lat="49.836" lon="2.399">
        <ele>32.1</ele>
        <time>2023-04-19T12:14:26Z</time>
      </trkpt>
      <trkpt lat="49.83599" lon="2.39901">
        <ele>32.1</ele>
        <time>2023-04-19T12:14:27Z</time>
      </trkpt>
      <trkpt lat="49.83598" lon="2.39903">
        <ele>32.1</ele>
        <time>2023-04-19T12:14:28Z</time>
      </trkpt>
      <trkpt lat="49.83597" lon="2.39905">
        <ele>32.2</ele>
        <time>2023-04-19T12:14:30Z</time>
      </trkpt>
      <trkpt lat="49.83595" lon="2.39906">
        <ele>32.2</ele>
        <time>2023-04-19T12:14:31Z</time>
      </trkpt>
      <trkpt lat="49.83594" lon="2.39907">
        <ele>32.2</ele>
        <time>2023-04-19T12:14:32Z</time>
      </trkpt>
      <trkpt lat="49.83594" lon="2.39908">
        <ele>32.2</ele>
        <time>2023-04-19T12:14:33Z</time>
      </trkpt>
      <trkpt lat="49.83593" lon="2.39909">
        <ele>32.2</ele>
        <time>2023-04-19T12:14:34Z</time>
      </trkpt>
      <trkpt lat="49.83591" lon="2.3991">
        <ele>32.2</ele>
        <time>2023-04-19T12:14:35Z</time>
      </trkpt>
      <trkpt lat="49.8359" lon="2.39911">
        <ele>32.2</ele>
        <time>2023-04-19T12:14:37Z</time>
      </trkpt>
      <trkpt lat="49.83589" lon="2.39912">
        <ele>32.2</ele>
        <time>2023-04-19T12:14:38Z</time>
      </trkpt>
      <trkpt lat="49.83588" lon="2.39912">
        <ele>32.2</ele>
        <time>2023-04-19T12:14:39Z</time>
      </trkpt>
      <trkpt lat="49.83586" lon="2.39913">
        <ele>32.2</ele>
        <time>2023-04-19T12:14:40Z</time>
      </trkpt>
      <trkpt lat="49.83585" lon="2.39913">
        <ele>32.2</ele>
        <time>2023-04-19T12:14:41Z</time>
      </trkpt>
      <trkpt lat="49.83584" lon="2.39913">
        <ele>32.2</ele>
        <time>2023-04-19T12:14:42Z</time>
      </trkpt>
      <trkpt lat="49.83583" lon="2.39914">
        <ele>32.2</ele>
        <time>2023-04-19T12:14:43Z</time>
      </trkpt>
      <trkpt lat="49.83581" lon="2.39914">
        <ele>32.2</ele>
        <time>2023-04-19T12:14:45Z</time>
      </trkpt>
      <trkpt lat="49.8358" lon="2.39915">
        <ele>32.2</ele>
        <time>2023-04-19T12:14:46Z</time>
      </trkpt>
      <trkpt lat="49.83578" lon="2.39916">
        <ele>32.2</ele>
        <time>2023-04-19T12:14:47Z</time>
      </trkpt>
      <trkpt lat="49.83576" lon="2.39917">
        <ele>32.2</ele>
        <time>2023-04-19T12:14:48Z</time>
      </trkpt>
      <trkpt lat="49.83573" lon="2.39918">
        <ele>32.2</ele>
        <time>2023-04-19T12:14:50Z</time>
      </trkpt>
      <trkpt lat="49.83571" lon="2.39919">
        <ele>32.2</ele>
        <time>2023-04-19T12:14:51Z</time>
      </trkpt>
      <trkpt lat="49.8357" lon="2.39919">
        <ele>32.2</ele>
        <time>2023-04-19T12:14:52Z</time>
      </trkpt>
      <trkpt lat="49.83568" lon="2.3992">
        <ele>32.2</ele>
        <time>2023-04-19T12:14:53Z</time>
      </trkpt>
      <trkpt lat="49.83567" lon="2.39921">
        <ele>32.2</ele>
        <time>2023-04-19T12:14:54Z</time>
      </trkpt>
      <trkpt lat="49.83566" lon="2.39921">
        <ele>32.2</ele>
        <time>2023-04-19T12:14:55Z</time>
      </trkpt>
      <trkpt lat="49.83565" lon="2.39922">
        <ele>32.2</ele>
        <time>2023-04-19T12:14:57Z</time>
      </trkpt>
      <trkpt lat="49.83564" lon="2.39922">
        <ele>32.2</ele>
        <time>2023-04-19T12:14:58Z</time>
      </trkpt>
      <trkpt lat="49.83564" lon="2.39923">
        <ele>32.2</ele>
        <time>2023-04-19T12:14:59Z</time>
      </trkpt>
      <trkpt lat="49.83563" lon="2.39923">
        <ele>32.2</ele>
        <time>2023-04-19T12:15:00Z</time>
      </trkpt>
      <trkpt lat="49.83562" lon="2.39924">
        <ele>32.2</ele>
        <time>2023-04-19T12:15:01Z</time>
      </trkpt>
      <trkpt lat="49.83562" lon="2.39924">
        <ele>32.2</ele>
        <time>2023-04-19T12:15:02Z</time>
      </trkpt>
      <trkpt lat="49.83561" lon="2.39925">
        <ele>32.2</ele>
        <time>2023-04-19T12:15:03Z</time>
      </trkpt>
      <trkpt lat="49.83561" lon="2.39925">
        <ele>32.2</ele>
        <time>2023-04-19T12:15:05Z</time>
      </trkpt>
      <trkpt lat="49.8356" lon="2.39926">
        <ele>32.2</ele>
        <time>2023-04-19T12:15:06Z</time>
      </trkpt>
      <trkpt lat="49.83559" lon="2.39927">
        <ele>32.2</ele>
        <time>2023-04-19T12:15:07Z</time>
      </trkpt>
      <trkpt lat="49.83558" lon="2.39928">
        <ele>32.2</ele>
        <time>2023-04-19T12:15:08Z</time>
      </trkpt>
      <trkpt lat="49.83556" lon="2.39929">
        <ele>32.2</ele>
        <time>2023-04-19T12:15:09Z</time>
      </trkpt>
      <trkpt lat="49.83555" lon="2.39931">
        <ele>32.2</ele>
        <time>2023-04-19T12:15:10Z</time>
      </trkpt>
      <trkpt lat="49.83553" lon="2.39932">
        <ele>32.2</ele>
        <time>2023-04-19T12:15:11Z</time>
      </trkpt>
      <trkpt lat="49.83551" lon="2.39934">
        <ele>32.2</ele>
        <time>2023-04-19T12:15:13Z</time>
      </trkpt>
      <trkpt lat="49.8355" lon="2.39935">
        <ele>32.2</ele>
        <time>2023-04-19T12:15:14Z</time>
      </trkpt>
      <trkpt lat="49.83549" lon="2.39936">
        <ele>32.2</ele>
        <time>2023-04-19T12:15:15Z</time>
      </trkpt>
      <trkpt lat="49.83547" lon="2.39937">
        <ele>32.2</ele>
        <time>2023-04-19T12:15:16Z</time>
      </trkpt>
      <trkpt lat="49.83546" lon="2.39938">
        <ele>32.2</ele>
        <time>2023-04-19T12:15:17Z</time>
      </trkpt>
      <trkpt lat="49.83544" lon="2.3994">
        <ele>32.1</ele>
        <time>2023-04-19T12:15:18Z</time>
      </trkpt>
      <trkpt lat="49.83542" lon="2.39942">
        <ele>32.1</ele>
        <time>2023-04-19T12:15:19Z</time>
      </trkpt>
      <trkpt lat="49.83541" lon="2.39943">
        <ele>32.1</ele>
        <time>2023-04-19T12:15:20Z</time>
      </trkpt>
      <trkpt lat="49.8354" lon="2.39944">
        <ele>32.1</ele>
        <time>2023-04-19T12:15:21Z</time>
      </trkpt>
      <trkpt lat="49.83538" lon="2.39946">
        <ele>32.1</ele>
        <time>2023-04-19T12:15:23Z</time>
      </trkpt>
      <trkpt lat="49.83537" lon="2.39947">
        <ele>32.1</ele>
        <time>2023-04-19T12:15:24Z</time>
      </trkpt>
      <trkpt lat="49.83536" lon="2.39948">
        <ele>32.1</ele>
        <time>2023-04-19T12:15:25Z</time>
      </trkpt>
      <trkpt lat="49.83535" lon="2.39949">
        <ele>32</ele>
        <time>2023-04-19T12:15:26Z</time>
      </trkpt>
      <trkpt lat="49.83534" lon="2.3995">
        <ele>32</ele>
        <time>2023-04-19T12:15:27Z</time>
      </trkpt>
      <trkpt lat="49.83533" lon="2.39951">
        <ele>32</ele>
        <time>2023-04-19T12:15:28Z</time>
      </trkpt>
      <trkpt lat="49.83532" lon="2.39951">
        <ele>32</ele>
        <time>2023-04-19T12:15:29Z</time>
      </trkpt>
      <trkpt lat="49.83531" lon="2.39953">
        <ele>32</ele>
        <time>2023-04-19T12:15:30Z</time>
      </trkpt>
      <trkpt lat="49.8353" lon="2.39954">
        <ele>32</ele>
        <time>2023-04-19T12:15:32Z</time>
      </trkpt>
      <trkpt lat="49.83529" lon="2.39955">
        <ele>32</ele>
        <time>2023-04-19T12:15:33Z</time>
      </trkpt>
      <trkpt lat="49.83527" lon="2.39956">
        <ele>32</ele>
        <time>2023-04-19T12:15:34Z</time>
      </trkpt>
      <trkpt lat="49.83526" lon="2.39958">
        <ele>32</ele>
        <time>2023-04-19T12:15:35Z</time>
      </trkpt>
      <trkpt lat="49.83525" lon="2.39958">
        <ele>32</ele>
        <time>2023-04-19T12:15:36Z</time>
      </trkpt>
      <trkpt lat="49.83524" lon="2.39959">
        <ele>31.9</ele>
        <time>2023-04-19T12:15:37Z</time>
      </trkpt>
      <trkpt lat="49.83523" lon="2.39959">
        <ele>31.9</ele>
        <time>2023-04-19T12:15:38Z</time>
      </trkpt>
      <trkpt lat="49.83523" lon="2.3996">
        <ele>31.9</ele>
        <time>2023-04-19T12:15:39Z</time>
      </trkpt>
      <trkpt lat="49.83522" lon="2.3996">
        <ele>31.9</ele>
        <time>2023-04-19T12:15:40Z</time>
      </trkpt>
      <trkpt lat="49.83522" lon="2.39961">
        <ele>31.9</ele>
        <time>2023-04-19T12:15:42Z</time>
      </trkpt>
      <trkpt lat="49.83521" lon="2.39961">
        <ele>31.9</ele>
        <time>2023-04-19T12:15:43Z</time>
      </trkpt>
      <trkpt lat="49.8352" lon="2.39962">
        <ele>31.9</ele>
        <time>2023-04-19T12:15:44Z</time>
      </trkpt>
      <trkpt lat="49.8352" lon="2.39963">
        <ele>31.9</ele>
        <time>2023-04-19T12:15:45Z</time>
      </trkpt>
      <trkpt lat="49.83519" lon="2.39964">
        <ele>31.9</ele>
        <time>2023-04-19T12:15:46Z</time>
      </trkpt>
      <trkpt lat="49.83519" lon="2.39964">
        <ele>31.9</ele>
        <time>2023-04-19T12:15:47Z</time>
      </trkpt>
      <trkpt lat="49.83518" lon="2.39965">
        <ele>31.9</ele>
        <time>2023-04-19T12:15:48Z</time>
      </trkpt>
      <trkpt lat="49.83516" lon="2.39967">
        <ele>31.9</ele>
        <time>2023-04-19T12:15:49Z</time>
      </trkpt>
      <trkpt lat="49.83514" lon="2.39968">
        <ele>31.9</ele>
        <time>2023-04-19T12:15:51Z</time>
      </trkpt>
      <trkpt lat="49.83513" lon="2.39969">
        <ele>31.9</ele>
        <time>2023-04-19T12:15:52Z</time>
      </trkpt>
      <trkpt lat="49.83512" lon="2.3997">
        <ele>31.9</ele>
        <time>2023-04-19T12:15:53Z</time>
      </trkpt>
      <trkpt lat="49.83509" lon="2.39973">
        <ele>31.8</ele>
        <time>2023-04-19T12:15:54Z</time>
      </trkpt>
      <trkpt lat="49.83509" lon="2.39973">
        <ele>31.8</ele>
        <time>2023-04-19T12:15:55Z</time>
      </trkpt>
      <trkpt lat="49.83506" lon="2.39975">
        <ele>31.8</ele>
        <time>2023-04-19T12:15:57Z</time>
      </trkpt>
      <trkpt lat="49.83505" lon="2.39976">
        <ele>31.8</ele>
        <time>2023-04-19T12:15:58Z</time>
      </trkpt>
      <trkpt lat="49.83504" lon="2.39977">
        <ele>31.8</ele>
        <time>2023-04-19T12:15:59Z</time>
      </trkpt>
      <trkpt lat="49.83502" lon="2.39978">
        <ele>31.8</ele>
        <time>2023-04-19T12:16:00Z</time>
      </trkpt>
      <trkpt lat="49.83501" lon="2.39979">
        <ele>31.7</ele>
        <time>2023-04-19T12:16:01Z</time>
      </trkpt>
      <trkpt lat="49.835" lon="2.3998">
        <ele>31.7</ele>
        <time>2023-04-19T12:16:02Z</time>
      </trkpt>
      <trkpt lat="49.83499" lon="2.3998">
        <ele>31.7</ele>
        <time>2023-04-19T12:16:03Z</time>
      </trkpt>
      <trkpt lat="49.83498" lon="2.3998">
        <ele>31.7</ele>
        <time>2023-04-19T12:16:04Z</time>
      </trkpt>
      <trkpt lat="49.83497" lon="2.3998">
        <ele>31.7</ele>
        <time>2023-04-19T12:16:05Z</time>
      </trkpt>
      <trkpt lat="49.83496" lon="2.39981">
        <ele>31.7</ele>
        <time>2023-04-19T12:16:06Z</time>
      </trkpt>
      <trkpt lat="49.83494" lon="2.39981">
        <ele>31.7</ele>
        <time>2023-04-19T12:16:08Z</time>
      </trkpt>
      <trkpt lat="49.83493" lon="2.39981">
        <ele>31.7</ele>
        <time>2023-04-19T12:16:09Z</time>
      </trkpt>
      <trkpt lat="49.83492" lon="2.39981">
        <ele>31.6</ele>
        <time>2023-04-19T12:16:10Z</time>
      </trkpt>
      <trkpt lat="49.83489" lon="2.39982">
        <ele>31.6</ele>
        <time>2023-04-19T12:16:11Z</time>
      </trkpt>
      <trkpt lat="49.83488" lon="2.39982">
        <ele>31.6</ele>
        <time>2023-04-19T12:16:12Z</time>
      </trkpt>
      <trkpt lat="49.83487" lon="2.39983">
        <ele>31.6</ele>
        <time>2023-04-19T12:16:13Z</time>
      </trkpt>
      <trkpt lat="49.83485" lon="2.39984">
        <ele>31.6</ele>
        <time>2023-04-19T12:16:14Z</time>
      </trkpt>
      <trkpt lat="49.83484" lon="2.39984">
        <ele>31.6</ele>
        <time>2023-04-19T12:16:15Z</time>
      </trkpt>
      <trkpt lat="49.83482" lon="2.39985">
        <ele>31.6</ele>
        <time>2023-04-19T12:16:17Z</time>
      </trkpt>
      <trkpt lat="49.83481" lon="2.39986">
        <ele>31.5</ele>
        <time>2023-04-19T12:16:18Z</time>
      </trkpt>
      <trkpt lat="49.83479" lon="2.39987">
        <ele>31.5</ele>
        <time>2023-04-19T12:16:19Z</time>
      </trkpt>
      <trkpt lat="49.83478" lon="2.39987">
        <ele>31.5</ele>
        <time>2023-04-19T12:16:20Z</time>
      </trkpt>
      <trkpt lat="49.83477" lon="2.39987">
        <ele>31.5</ele>
        <time>2023-04-19T12:16:21Z</time>
      </trkpt>
      <trkpt lat="49.83475" lon="2.39988">
        <ele>31.5</ele>
        <time>2023-04-19T12:16:23Z</time>
      </trkpt>
      <trkpt lat="49.83474" lon="2.39988">
        <ele>31.5</ele>
        <time>2023-04-19T12:16:24Z</time>
      </trkpt>
      <trkpt lat="49.83473" lon="2.39988">
        <ele>31.5</ele>
        <time>2023-04-19T12:16:25Z</time>
      </trkpt>
      <trkpt lat="49.83472" lon="2.39988">
        <ele>31.5</ele>
        <time>2023-04-19T12:16:26Z</time>
      </trkpt>
      <trkpt lat="49.83472" lon="2.39987">
        <ele>31.5</ele>
        <time>2023-04-19T12:16:27Z</time>
      </trkpt>
      <trkpt lat="49.8347" lon="2.39987">
        <ele>31.4</ele>
        <time>2023-04-19T12:16:28Z</time>
      </trkpt>
      <trkpt lat="49.83469" lon="2.39987">
        <ele>31.4</ele>
        <time>2023-04-19T12:16:29Z</time>
      </trkpt>
      <trkpt lat="49.83468" lon="2.39988">
        <ele>31.4</ele>
        <time>2023-04-19T12:16:31Z</time>
      </trkpt>
      <trkpt lat="49.83466" lon="2.39988">
        <ele>31.4</ele>
        <time>2023-04-19T12:16:32Z</time>
      </trkpt>
      <trkpt lat="49.83465" lon="2.39988">
        <ele>31.4</ele>
        <time>2023-04-19T12:16:33Z</time>
      </trkpt>
      <trkpt lat="49.83463" lon="2.39988">
        <ele>31.4</ele>
        <time>2023-04-19T12:16:34Z</time>
      </trkpt>
      <trkpt lat="49.83462" lon="2.39988">
        <ele>31.3</ele>
        <time>2023-04-19T12:16:35Z</time>
      </trkpt>
      <trkpt lat="49.8346" lon="2.39987">
        <ele>31.3</ele>
        <time>2023-04-19T12:16:36Z</time>
      </trkpt>
      <trkpt lat="49.83457" lon="2.39987">
        <ele>31.3</ele>
        <time>2023-04-19T12:16:37Z</time>
      </trkpt>
      <trkpt lat="49.83456" lon="2.39988">
        <ele>31.3</ele>
        <time>2023-04-19T12:16:38Z</time>
      </trkpt>
      <trkpt lat="49.83455" lon="2.39988">
        <ele>31.3</ele>
        <time>2023-04-19T12:16:40Z</time>
      </trkpt>
      <trkpt lat="49.83454" lon="2.39988">
        <ele>31.2</ele>
        <time>2023-04-19T12:16:41Z</time>
      </trkpt>
      <trkpt lat="49.83453" lon="2.39988">
        <ele>31.2</ele>
        <time>2023-04-19T12:16:42Z</time>
      </trkpt>
      <trkpt lat="49.83452" lon="2.39989">
        <ele>31.2</ele>
        <time>2023-04-19T12:16:43Z</time>
      </trkpt>
      <trkpt lat="49.83452" lon="2.39989">
        <ele>31.2</ele>
        <time>2023-04-19T12:16:44Z</time>
      </trkpt>
      <trkpt lat="49.83451" lon="2.3999">
        <ele>31.2</ele>
        <time>2023-04-19T12:16:45Z</time>
      </trkpt>
      <trkpt lat="49.8345" lon="2.3999">
        <ele>31.2</ele>
        <time>2023-04-19T12:16:46Z</time>
      </trkpt>
      <trkpt lat="49.83449" lon="2.3999">
        <ele>31.2</ele>
        <time>2023-04-19T12:16:47Z</time>
      </trkpt>
      <trkpt lat="49.83448" lon="2.39991">
        <ele>31.2</ele>
        <time>2023-04-19T12:16:49Z</time>
      </trkpt>
      <trkpt lat="49.83447" lon="2.39991">
        <ele>31.2</ele>
        <time>2023-04-19T12:16:50Z</time>
      </trkpt>
      <trkpt lat="49.83446" lon="2.39991">
        <ele>31.2</ele>
        <time>2023-04-19T12:16:51Z</time>
      </trkpt>
      <trkpt lat="49.83445" lon="2.39992">
        <ele>31.1</ele>
        <time>2023-04-19T12:16:52Z</time>
      </trkpt>
      <trkpt lat="49.83443" lon="2.39993">
        <ele>31.1</ele>
        <time>2023-04-19T12:16:53Z</time>
      </trkpt>
      <trkpt lat="49.83442" lon="2.39994">
        <ele>31.1</ele>
        <time>2023-04-19T12:16:54Z</time>
      </trkpt>
      <trkpt lat="49.83441" lon="2.39995">
        <ele>31.1</ele>
        <time>2023-04-19T12:16:55Z</time>
      </trkpt>
      <trkpt lat="49.83439" lon="2.39996">
        <ele>31.1</ele>
        <time>2023-04-19T12:16:57Z</time>
      </trkpt>
      <trkpt lat="49.83438" lon="2.39997">
        <ele>31.1</ele>
        <time>2023-04-19T12:16:58Z</time>
      </trkpt>
      <trkpt lat="49.83437" lon="2.39998">
        <ele>31.1</ele>
        <time>2023-04-19T12:16:59Z</time>
      </trkpt>
      <trkpt lat="49.83436" lon="2.39998">
        <ele>31</ele>
        <time>2023-04-19T12:17:00Z</time>
      </trkpt>
      <trkpt lat="49.83435" lon="2.4">
        <ele>31</ele>
        <time>2023-04-19T12:17:02Z</time>
      </trkpt>
      <trkpt lat="49.83434" lon="2.40001">
        <ele>31</ele>
        <time>2023-04-19T12:17:03Z</time>
      </trkpt>
      <trkpt lat="49.83434" lon="2.40001">
        <ele>31</ele>
        <time>2023-04-19T12:17:04Z</time>
      </trkpt>
      <trkpt lat="49.83433" lon="2.40002">
        <ele>31</ele>
        <time>2023-04-19T12:17:05Z</time>
      </trkpt>
      <trkpt lat="49.83431" lon="2.40003">
        <ele>31</ele>
        <time>2023-04-19T12:17:06Z</time>
      </trkpt>
      <trkpt lat="49.8343" lon="2.40004">
        <ele>31</ele>
        <time>2023-04-19T12:17:07Z</time>
      </trkpt>
      <trkpt lat="49.83429" lon="2.40005">
        <ele>31</ele>
        <time>2023-04-19T12:17:08Z</time>
      </trkpt>
      <trkpt lat="49.83428" lon="2.40006">
        <ele>31</ele>
        <time>2023-04-19T12:17:10Z</time>
      </trkpt>
      <trkpt lat="49.83427" lon="2.40007">
        <ele>31</ele>
        <time>2023-04-19T12:17:11Z</time>
      </trkpt>
      <trkpt lat="49.83426" lon="2.40008">
        <ele>30.9</ele>
        <time>2023-04-19T12:17:12Z</time>
      </trkpt>
      <trkpt lat="49.83425" lon="2.40009">
        <ele>30.9</ele>
        <time>2023-04-19T12:17:13Z</time>
      </trkpt>
      <trkpt lat="49.83424" lon="2.4001">
        <ele>30.9</ele>
        <time>2023-04-19T12:17:14Z</time>
      </trkpt>
      <trkpt lat="49.83423" lon="2.40011">
        <ele>30.9</ele>
        <time>2023-04-19T12:17:15Z</time>
      </trkpt>
      <trkpt lat="49.83422" lon="2.40011">
        <ele>30.9</ele>
        <time>2023-04-19T12:17:16Z</time>
      </trkpt>
      <trkpt lat="49.83421" lon="2.40012">
        <ele>30.9</ele>
        <time>2023-04-19T12:17:17Z</time>
      </trkpt>
      <trkpt lat="49.8342" lon="2.40013">
        <ele>30.9</ele>
        <time>2023-04-19T12:17:19Z</time>
      </trkpt>
      <trkpt lat="49.8342" lon="2.40014">
        <ele>30.9</ele>
        <time>2023-04-19T12:17:20Z</time>
      </trkpt>
      <trkpt lat="49.83418" lon="2.40015">
        <ele>30.9</ele>
        <time>2023-04-19T12:17:21Z</time>
      </trkpt>
      <trkpt lat="49.83417" lon="2.40016">
        <ele>30.9</ele>
        <time>2023-04-19T12:17:22Z</time>
      </trkpt>
      <trkpt lat="49.83416" lon="2.40018">
        <ele>30.9</ele>
        <time>2023-04-19T12:17:23Z</time>
      </trkpt>
      <trkpt lat="49.83415" lon="2.40019">
        <ele>30.9</ele>
        <time>2023-04-19T12:17:24Z</time>
      </trkpt>
      <trkpt lat="49.83414" lon="2.40021">
        <ele>30.9</ele>
        <time>2023-04-19T12:17:25Z</time>
      </trkpt>
      <trkpt lat="49.83413" lon="2.40022">
        <ele>30.9</ele>
        <time>2023-04-19T12:17:26Z</time>
      </trkpt>
      <trkpt lat="49.83412" lon="2.40023">
        <ele>30.9</ele>
        <time>2023-04-19T12:17:28Z</time>
      </trkpt>
      <trkpt lat="49.83411" lon="2.40024">
        <ele>30.9</ele>
        <time>2023-04-19T12:17:29Z</time>
      </trkpt>
      <trkpt lat="49.8341" lon="2.40025">
        <ele>30.9</ele>
        <time>2023-04-19T12:17:30Z</time>
      </trkpt>
      <trkpt lat="49.83409" lon="2.40027">
        <ele>30.9</ele>
        <time>2023-04-19T12:17:31Z</time>
      </trkpt>
      <trkpt lat="49.83408" lon="2.40027">
        <ele>30.9</ele>
        <time>2023-04-19T12:17:32Z</time>
      </trkpt>
      <trkpt lat="49.83407" lon="2.40028">
        <ele>30.9</ele>
        <time>2023-04-19T12:17:33Z</time>
      </trkpt>
      <trkpt lat="49.83406" lon="2.40029">
        <ele>30.9</ele>
        <time>2023-04-19T12:17:34Z</time>
      </trkpt>
      <trkpt lat="49.83406" lon="2.40029">
        <ele>30.9</ele>
        <time>2023-04-19T12:17:35Z</time>
      </trkpt>
      <trkpt lat="49.83405" lon="2.4003">
        <ele>30.9</ele>
        <time>2023-04-19T12:17:37Z</time>
      </trkpt>
      <trkpt lat="49.83404" lon="2.40031">
        <ele>30.9</ele>
        <time>2023-04-19T12:17:38Z</time>
      </trkpt>
      <trkpt lat="49.83403" lon="2.40032">
        <ele>30.9</ele>
        <time>2023-04-19T12:17:39Z</time>
      </trkpt>
      <trkpt lat="49.83402" lon="2.40033">
        <ele>30.9</ele>
        <time>2023-04-19T12:17:40Z</time>
      </trkpt>
      <trkpt lat="49.83401" lon="2.40033">
        <ele>30.9</ele>
        <time>2023-04-19T12:17:41Z</time>
      </trkpt>
      <trkpt lat="49.834" lon="2.40034">
        <ele>30.9</ele>
        <time>2023-04-19T12:17:42Z</time>
      </trkpt>
      <trkpt lat="49.83399" lon="2.40036">
        <ele>30.9</ele>
        <time>2023-04-19T12:17:44Z</time>
      </trkpt>
      <trkpt lat="49.83398" lon="2.40036">
        <ele>30.9</ele>
        <time>2023-04-19T12:17:45Z</time>
      </trkpt>
      <trkpt lat="49.83397" lon="2.40037">
        <ele>30.9</ele>
        <time>2023-04-19T12:17:46Z</time>
      </trkpt>
      <trkpt lat="49.83396" lon="2.40038">
        <ele>30.8</ele>
        <time>2023-04-19T12:17:47Z</time>
      </trkpt>
      <trkpt lat="49.83394" lon="2.40039">
        <ele>30.8</ele>
        <time>2023-04-19T12:17:48Z</time>
      </trkpt>
      <trkpt lat="49.83393" lon="2.4004">
        <ele>30.8</ele>
        <time>2023-04-19T12:17:50Z</time>
      </trkpt>
      <trkpt lat="49.83392" lon="2.40041">
        <ele>30.8</ele>
        <time>2023-04-19T12:17:51Z</time>
      </trkpt>
      <trkpt lat="49.8339" lon="2.40043">
        <ele>30.8</ele>
        <time>2023-04-19T12:17:53Z</time>
      </trkpt>
      <trkpt lat="49.83389" lon="2.40044">
        <ele>30.8</ele>
        <time>2023-04-19T12:17:54Z</time>
      </trkpt>
      <trkpt lat="49.83389" lon="2.40045">
        <ele>30.7</ele>
        <time>2023-04-19T12:17:55Z</time>
      </trkpt>
      <trkpt lat="49.83388" lon="2.40046">
        <ele>30.7</ele>
        <time>2023-04-19T12:17:56Z</time>
      </trkpt>
      <trkpt lat="49.83387" lon="2.40048">
        <ele>30.7</ele>
        <time>2023-04-19T12:17:58Z</time>
      </trkpt>
      <trkpt lat="49.83387" lon="2.40049">
        <ele>30.7</ele>
        <time>2023-04-19T12:17:59Z</time>
      </trkpt>
      <trkpt lat="49.83387" lon="2.4005">
        <ele>30.7</ele>
        <time>2023-04-19T12:18:01Z</time>
      </trkpt>
      <trkpt lat="49.83387" lon="2.4005">
        <ele>30.7</ele>
        <time>2023-04-19T12:18:02Z</time>
      </trkpt>
      <trkpt lat="49.83387" lon="2.4005">
        <ele>30.7</ele>
        <time>2023-04-19T12:18:03Z</time>
      </trkpt>
      <trkpt lat="49.83387" lon="2.4005">
        <ele>30.7</ele>
        <time>2023-04-19T12:18:05Z</time>
      </trkpt>
      <trkpt lat="49.83387" lon="2.4005">
        <ele>30.7</ele>
        <time>2023-04-19T12:18:06Z</time>
      </trkpt>
      <trkpt lat="49.83388" lon="2.4005">
        <ele>30.7</ele>
        <time>2023-04-19T12:18:07Z</time>
      </trkpt>
      <trkpt lat="49.83388" lon="2.40049">
        <ele>30.7</ele>
        <time>2023-04-19T12:18:09Z</time>
      </trkpt>
      <trkpt lat="49.83389" lon="2.40049">
        <ele>30.7</ele>
        <time>2023-04-19T12:18:10Z</time>
      </trkpt>
      <trkpt lat="49.83389" lon="2.40049">
        <ele>30.7</ele>
        <time>2023-04-19T12:18:12Z</time>
      </trkpt>
      <trkpt lat="49.83389" lon="2.40049">
        <ele>30.7</ele>
        <time>2023-04-19T12:18:13Z</time>
      </trkpt>
      <trkpt lat="49.83389" lon="2.40047">
        <ele>30.7</ele>
        <time>2023-04-19T12:18:14Z</time>
      </trkpt>
      <trkpt lat="49.8339" lon="2.40047">
        <ele>30.7</ele>
        <time>2023-04-19T12:18:15Z</time>
      </trkpt>
      <trkpt lat="49.8339" lon="2.40046">
        <ele>30.7</ele>
        <time>2023-04-19T12:18:16Z</time>
      </trkpt>
      <trkpt lat="49.8339" lon="2.40046">
        <ele>30.7</ele>
        <time>2023-04-19T12:18:17Z</time>
      </trkpt>
      <trkpt lat="49.8339" lon="2.40045">
        <ele>30.7</ele>
        <time>2023-04-19T12:18:18Z</time>
      </trkpt>
      <trkpt lat="49.8339" lon="2.40048">
        <ele>30.7</ele>
        <time>2023-04-19T12:18:20Z</time>
      </trkpt>
      <trkpt lat="49.8339" lon="2.40048">
        <ele>30.7</ele>
        <time>2023-04-19T12:18:22Z</time>
      </trkpt>
      <trkpt lat="49.83391" lon="2.40048">
        <ele>30.7</ele>
        <time>2023-04-19T12:18:23Z</time>
      </trkpt>
      <trkpt lat="49.83391" lon="2.40048">
        <ele>30.7</ele>
        <time>2023-04-19T12:18:24Z</time>
      </trkpt>
      <trkpt lat="49.83391" lon="2.40048">
        <ele>30.7</ele>
        <time>2023-04-19T12:18:26Z</time>
      </trkpt>
      <trkpt lat="49.83391" lon="2.40048">
        <ele>30.7</ele>
        <time>2023-04-19T12:18:27Z</time>
      </trkpt>
      <trkpt lat="49.83391" lon="2.40048">
        <ele>30.7</ele>
        <time>2023-04-19T12:18:29Z</time>
      </trkpt>
      <trkpt lat="49.83391" lon="2.40048">
        <ele>30.7</ele>
        <time>2023-04-19T12:18:30Z</time>
      </trkpt>
      <trkpt lat="49.83391" lon="2.40048">
        <ele>30.7</ele>
        <time>2023-04-19T12:18:31Z</time>
      </trkpt>
      <trkpt lat="49.83391" lon="2.40049">
        <ele>30.7</ele>
        <time>2023-04-19T12:18:33Z</time>
      </trkpt>
      <trkpt lat="49.83391" lon="2.40049">
        <ele>30.7</ele>
        <time>2023-04-19T12:18:34Z</time>
      </trkpt>
      <trkpt lat="49.83392" lon="2.40048">
        <ele>30.7</ele>
        <time>2023-04-19T12:18:35Z</time>
      </trkpt>
      <trkpt lat="49.83392" lon="2.40047">
        <ele>30.7</ele>
        <time>2023-04-19T12:18:37Z</time>
      </trkpt>
      <trkpt lat="49.83392" lon="2.40046">
        <ele>30.7</ele>
        <time>2023-04-19T12:18:38Z</time>
      </trkpt>
      <trkpt lat="49.83392" lon="2.40046">
        <ele>30.7</ele>
        <time>2023-04-19T12:18:40Z</time>
      </trkpt>
      <trkpt lat="49.83392" lon="2.40045">
        <ele>30.7</ele>
        <time>2023-04-19T12:18:41Z</time>
      </trkpt>
      <trkpt lat="49.83393" lon="2.40044">
        <ele>30.7</ele>
        <time>2023-04-19T12:18:42Z</time>
      </trkpt>
      <trkpt lat="49.83393" lon="2.40042">
        <ele>30.7</ele>
        <time>2023-04-19T12:18:43Z</time>
      </trkpt>
      <trkpt lat="49.83393" lon="2.40042">
        <ele>30.7</ele>
        <time>2023-04-19T12:18:44Z</time>
      </trkpt>
      <trkpt lat="49.83393" lon="2.40042">
        <ele>30.7</ele>
        <time>2023-04-19T12:18:45Z</time>
      </trkpt>
      <trkpt lat="49.83393" lon="2.40042">
        <ele>30.7</ele>
        <time>2023-04-19T12:18:46Z</time>
      </trkpt>
      <trkpt lat="49.83393" lon="2.40042">
        <ele>30.7</ele>
        <time>2023-04-19T12:18:47Z</time>
      </trkpt>
      <trkpt lat="49.83393" lon="2.40042">
        <ele>30.7</ele>
        <time>2023-04-19T12:18:48Z</time>
      </trkpt>
      <trkpt lat="49.83393" lon="2.40042">
        <ele>30.7</ele>
        <time>2023-04-19T12:18:49Z</time>
      </trkpt>
      <trkpt lat="49.83393" lon="2.40042">
        <ele>30.7</ele>
        <time>2023-04-19T12:18:50Z</time>
      </trkpt>
      <trkpt lat="49.83393" lon="2.40042">
        <ele>30.7</ele>
        <time>2023-04-19T12:18:51Z</time>
      </trkpt>
      <trkpt lat="49.83393" lon="2.40042">
        <ele>30.7</ele>
        <time>2023-04-19T12:18:52Z</time>
      </trkpt>
      <trkpt lat="49.83393" lon="2.4004">
        <ele>30.7</ele>
        <time>2023-04-19T12:18:53Z</time>
      </trkpt>
      <trkpt lat="49.83393" lon="2.40039">
        <ele>30.7</ele>
        <time>2023-04-19T12:18:54Z</time>
      </trkpt>
      <trkpt lat="49.83393" lon="2.40039">
        <ele>30.7</ele>
        <time>2023-04-19T12:18:55Z</time>
      </trkpt>
      <trkpt lat="49.83393" lon="2.40039">
        <ele>30.7</ele>
        <time>2023-04-19T12:18:56Z</time>
      </trkpt>
      <trkpt lat="49.83393" lon="2.40039">
        <ele>30.7</ele>
        <time>2023-04-19T12:18:57Z</time>
      </trkpt>
      <trkpt lat="49.83392" lon="2.40038">
        <ele>30.7</ele>
        <time>2023-04-19T12:18:58Z</time>
      </trkpt>
      <trkpt lat="49.83392" lon="2.40038">
        <ele>30.7</ele>
        <time>2023-04-19T12:18:59Z</time>
      </trkpt>
      <trkpt lat="49.83392" lon="2.40038">
        <ele>30.7</ele>
        <time>2023-04-19T12:19:00Z</time>
      </trkpt>
      <trkpt lat="49.83392" lon="2.40038">
        <ele>30.7</ele>
        <time>2023-04-19T12:19:01Z</time>
      </trkpt>
      <trkpt lat="49.83392" lon="2.40038">
        <ele>30.7</ele>
        <time>2023-04-19T12:19:02Z</time>
      </trkpt>
      <trkpt lat="49.83392" lon="2.40038">
        <ele>30.7</ele>
        <time>2023-04-19T12:19:03Z</time>
      </trkpt>
      <trkpt lat="49.83392" lon="2.40038">
        <ele>30.7</ele>
        <time>2023-04-19T12:19:04Z</time>
      </trkpt>
      <trkpt lat="49.83391" lon="2.40038">
        <ele>30.7</ele>
        <time>2023-04-19T12:19:05Z</time>
      </trkpt>
      <trkpt lat="49.83391" lon="2.40038">
        <ele>30.7</ele>
        <time>2023-04-19T12:19:06Z</time>
      </trkpt>
      <trkpt lat="49.83391" lon="2.40038">
        <ele>30.7</ele>
        <time>2023-04-19T12:19:07Z</time>
      </trkpt>
      <trkpt lat="49.83391" lon="2.40038">
        <ele>30.7</ele>
        <time>2023-04-19T12:19:08Z</time>
      </trkpt>
      <trkpt lat="49.83391" lon="2.40037">
        <ele>30.7</ele>
        <time>2023-04-19T12:19:09Z</time>
      </trkpt>
      <trkpt lat="49.83391" lon="2.40037">
        <ele>30.7</ele>
        <time>2023-04-19T12:19:10Z</time>
      </trkpt>
      <trkpt lat="49.83391" lon="2.40037">
        <ele>30.7</ele>
        <time>2023-04-19T12:19:11Z</time>
      </trkpt>
      <trkpt lat="49.83391" lon="2.40037">
        <ele>30.7</ele>
        <time>2023-04-19T12:19:12Z</time>
      </trkpt>
      <trkpt lat="49.8339" lon="2.40037">
        <ele>30.7</ele>
        <time>2023-04-19T12:19:13Z</time>
      </trkpt>
      <trkpt lat="49.8339" lon="2.40037">
        <ele>30.7</ele>
        <time>2023-04-19T12:19:14Z</time>
      </trkpt>
      <trkpt lat="49.8339" lon="2.40037">
        <ele>30.7</ele>
        <time>2023-04-19T12:19:15Z</time>
      </trkpt>
      <trkpt lat="49.8339" lon="2.40037">
        <ele>30.7</ele>
        <time>2023-04-19T12:19:17Z</time>
      </trkpt>
      <trkpt lat="49.8339" lon="2.40037">
        <ele>30.7</ele>
        <time>2023-04-19T12:19:18Z</time>
      </trkpt>
      <trkpt lat="49.8339" lon="2.40037">
        <ele>30.7</ele>
        <time>2023-04-19T12:19:19Z</time>
      </trkpt>
      <trkpt lat="49.8339" lon="2.40037">
        <ele>30.7</ele>
        <time>2023-04-19T12:19:20Z</time>
      </trkpt>
      <trkpt lat="49.83389" lon="2.40036">
        <ele>30.7</ele>
        <time>2023-04-19T12:19:21Z</time>
      </trkpt>
      <trkpt lat="49.83388" lon="2.40038">
        <ele>30.7</ele>
        <time>2023-04-19T12:19:22Z</time>
      </trkpt>
      <trkpt lat="49.83386" lon="2.40038">
        <ele>30.7</ele>
        <time>2023-04-19T12:19:24Z</time>
      </trkpt>
      <trkpt lat="49.83385" lon="2.40038">
        <ele>30.6</ele>
        <time>2023-04-19T12:19:25Z</time>
      </trkpt>
      <trkpt lat="49.83384" lon="2.40039">
        <ele>30.6</ele>
        <time>2023-04-19T12:19:26Z</time>
      </trkpt>
      <trkpt lat="49.83383" lon="2.40039">
        <ele>30.6</ele>
        <time>2023-04-19T12:19:27Z</time>
      </trkpt>
      <trkpt lat="49.83381" lon="2.4004">
        <ele>30.6</ele>
        <time>2023-04-19T12:19:29Z</time>
      </trkpt>
      <trkpt lat="49.8338" lon="2.40041">
        <ele>30.6</ele>
        <time>2023-04-19T12:19:30Z</time>
      </trkpt>
      <trkpt lat="49.83379" lon="2.40041">
        <ele>30.6</ele>
        <time>2023-04-19T12:19:31Z</time>
      </trkpt>
      <trkpt lat="49.83378" lon="2.40042">
        <ele>30.6</ele>
        <time>2023-04-19T12:19:32Z</time>
      </trkpt>
      <trkpt lat="49.83376" lon="2.40042">
        <ele>30.6</ele>
        <time>2023-04-19T12:19:34Z</time>
      </trkpt>
      <trkpt lat="49.83375" lon="2.40043">
        <ele>30.6</ele>
        <time>2023-04-19T12:19:35Z</time>
      </trkpt>
      <trkpt lat="49.83374" lon="2.40043">
        <ele>30.6</ele>
        <time>2023-04-19T12:19:36Z</time>
      </trkpt>
      <trkpt lat="49.83373" lon="2.40043">
        <ele>30.6</ele>
        <time>2023-04-19T12:19:37Z</time>
      </trkpt>
      <trkpt lat="49.83372" lon="2.40044">
        <ele>30.6</ele>
        <time>2023-04-19T12:19:39Z</time>
      </trkpt>
      <trkpt lat="49.83371" lon="2.40044">
        <ele>30.6</ele>
        <time>2023-04-19T12:19:40Z</time>
      </trkpt>
      <trkpt lat="49.8337" lon="2.40045">
        <ele>30.6</ele>
        <time>2023-04-19T12:19:41Z</time>
      </trkpt>
      <trkpt lat="49.83368" lon="2.40045">
        <ele>30.6</ele>
        <time>2023-04-19T12:19:42Z</time>
      </trkpt>
      <trkpt lat="49.83366" lon="2.40046">
        <ele>30.6</ele>
        <time>2023-04-19T12:19:44Z</time>
      </trkpt>
      <trkpt lat="49.83365" lon="2.40046">
        <ele>30.6</ele>
        <time>2023-04-19T12:19:45Z</time>
      </trkpt>
      <trkpt lat="49.83363" lon="2.40047">
        <ele>30.6</ele>
        <time>2023-04-19T12:19:46Z</time>
      </trkpt>
      <trkpt lat="49.83362" lon="2.40048">
        <ele>30.6</ele>
        <time>2023-04-19T12:19:47Z</time>
      </trkpt>
      <trkpt lat="49.83361" lon="2.40048">
        <ele>30.6</ele>
        <time>2023-04-19T12:19:48Z</time>
      </trkpt>
      <trkpt lat="49.83359" lon="2.40049">
        <ele>30.6</ele>
        <time>2023-04-19T12:19:49Z</time>
      </trkpt>
      <trkpt lat="49.83358" lon="2.40051">
        <ele>30.6</ele>
        <time>2023-04-19T12:19:50Z</time>
      </trkpt>
      <trkpt lat="49.83356" lon="2.40052">
        <ele>30.6</ele>
        <time>2023-04-19T12:19:51Z</time>
      </trkpt>
      <trkpt lat="49.83355" lon="2.40053">
        <ele>30.6</ele>
        <time>2023-04-19T12:19:52Z</time>
      </trkpt>
      <trkpt lat="49.83354" lon="2.40054">
        <ele>30.6</ele>
        <time>2023-04-19T12:19:54Z</time>
      </trkpt>
      <trkpt lat="49.83352" lon="2.40056">
        <ele>30.6</ele>
        <time>2023-04-19T12:19:55Z</time>
      </trkpt>
      <trkpt lat="49.83351" lon="2.40057">
        <ele>30.6</ele>
        <time>2023-04-19T12:19:56Z</time>
      </trkpt>
      <trkpt lat="49.8335" lon="2.40059">
        <ele>30.6</ele>
        <time>2023-04-19T12:19:57Z</time>
      </trkpt>
      <trkpt lat="49.83349" lon="2.4006">
        <ele>30.6</ele>
        <time>2023-04-19T12:19:58Z</time>
      </trkpt>
      <trkpt lat="49.83347" lon="2.40062">
        <ele>30.6</ele>
        <time>2023-04-19T12:20:00Z</time>
      </trkpt>
      <trkpt lat="49.83346" lon="2.40064">
        <ele>30.6</ele>
        <time>2023-04-19T12:20:01Z</time>
      </trkpt>
      <trkpt lat="49.83345" lon="2.40066">
        <ele>30.6</ele>
        <time>2023-04-19T12:20:02Z</time>
      </trkpt>
      <trkpt lat="49.83344" lon="2.40066">
        <ele>30.6</ele>
        <time>2023-04-19T12:20:03Z</time>
      </trkpt>
      <trkpt lat="49.83343" lon="2.40067">
        <ele>30.6</ele>
        <time>2023-04-19T12:20:04Z</time>
      </trkpt>
      <trkpt lat="49.83342" lon="2.40068">
        <ele>30.6</ele>
        <time>2023-04-19T12:20:05Z</time>
      </trkpt>
      <trkpt lat="49.83341" lon="2.40068">
        <ele>30.6</ele>
        <time>2023-04-19T12:20:06Z</time>
      </trkpt>
      <trkpt lat="49.8334" lon="2.40069">
        <ele>30.6</ele>
        <time>2023-04-19T12:20:08Z</time>
      </trkpt>
      <trkpt lat="49.83339" lon="2.4007">
        <ele>30.6</ele>
        <time>2023-04-19T12:20:09Z</time>
      </trkpt>
      <trkpt lat="49.83338" lon="2.4007">
        <ele>30.6</ele>
        <time>2023-04-19T12:20:10Z</time>
      </trkpt>
      <trkpt lat="49.83337" lon="2.40071">
        <ele>30.6</ele>
        <time>2023-04-19T12:20:11Z</time>
      </trkpt>
      <trkpt lat="49.83335" lon="2.40072">
        <ele>30.6</ele>
        <time>2023-04-19T12:20:12Z</time>
      </trkpt>
      <trkpt lat="49.83334" lon="2.40073">
        <ele>30.6</ele>
        <time>2023-04-19T12:20:13Z</time>
      </trkpt>
      <trkpt lat="49.83332" lon="2.40073">
        <ele>30.6</ele>
        <time>2023-04-19T12:20:15Z</time>
      </trkpt>
      <trkpt lat="49.83331" lon="2.40073">
        <ele>30.6</ele>
        <time>2023-04-19T12:20:16Z</time>
      </trkpt>
      <trkpt lat="49.8333" lon="2.40074">
        <ele>30.6</ele>
        <time>2023-04-19T12:20:17Z</time>
      </trkpt>
      <trkpt lat="49.83328" lon="2.40074">
        <ele>30.6</ele>
        <time>2023-04-19T12:20:18Z</time>
      </trkpt>
      <trkpt lat="49.83327" lon="2.40075">
        <ele>30.7</ele>
        <time>2023-04-19T12:20:19Z</time>
      </trkpt>
      <trkpt lat="49.83325" lon="2.40076">
        <ele>30.7</ele>
        <time>2023-04-19T12:20:20Z</time>
      </trkpt>
      <trkpt lat="49.83324" lon="2.40076">
        <ele>30.7</ele>
        <time>2023-04-19T12:20:21Z</time>
      </trkpt>
      <trkpt lat="49.83322" lon="2.40077">
        <ele>30.7</ele>
        <time>2023-04-19T12:20:23Z</time>
      </trkpt>
      <trkpt lat="49.83321" lon="2.40078">
        <ele>30.7</ele>
        <time>2023-04-19T12:20:24Z</time>
      </trkpt>
      <trkpt lat="49.83321" lon="2.40078">
        <ele>30.7</ele>
        <time>2023-04-19T12:20:25Z</time>
      </trkpt>
      <trkpt lat="49.83321" lon="2.40078">
        <ele>30.7</ele>
        <time>2023-04-19T12:20:26Z</time>
      </trkpt>
      <trkpt lat="49.8332" lon="2.40078">
        <ele>30.7</ele>
        <time>2023-04-19T12:20:27Z</time>
      </trkpt>
      <trkpt lat="49.83319" lon="2.40078">
        <ele>30.7</ele>
        <time>2023-04-19T12:20:29Z</time>
      </trkpt>
      <trkpt lat="49.83318" lon="2.40078">
        <ele>30.7</ele>
        <time>2023-04-19T12:20:30Z</time>
      </trkpt>
      <trkpt lat="49.83316" lon="2.40079">
        <ele>30.7</ele>
        <time>2023-04-19T12:20:31Z</time>
      </trkpt>
      <trkpt lat="49.83315" lon="2.40079">
        <ele>30.7</ele>
        <time>2023-04-19T12:20:32Z</time>
      </trkpt>
      <trkpt lat="49.83313" lon="2.4008">
        <ele>30.7</ele>
        <time>2023-04-19T12:20:33Z</time>
      </trkpt>
      <trkpt lat="49.83312" lon="2.4008">
        <ele>30.7</ele>
        <time>2023-04-19T12:20:34Z</time>
      </trkpt>
      <trkpt lat="49.8331" lon="2.4008">
        <ele>30.7</ele>
        <time>2023-04-19T12:20:36Z</time>
      </trkpt>
      <trkpt lat="49.83309" lon="2.40081">
        <ele>30.7</ele>
        <time>2023-04-19T12:20:37Z</time>
      </trkpt>
      <trkpt lat="49.83308" lon="2.40081">
        <ele>30.7</ele>
        <time>2023-04-19T12:20:38Z</time>
      </trkpt>
      <trkpt lat="49.83307" lon="2.40082">
        <ele>30.8</ele>
        <time>2023-04-19T12:20:39Z</time>
      </trkpt>
      <trkpt lat="49.83306" lon="2.40082">
        <ele>30.8</ele>
        <time>2023-04-19T12:20:40Z</time>
      </trkpt>
      <trkpt lat="49.83305" lon="2.40082">
        <ele>30.8</ele>
        <time>2023-04-19T12:20:42Z</time>
      </trkpt>
      <trkpt lat="49.83304" lon="2.40082">
        <ele>30.8</ele>
        <time>2023-04-19T12:20:43Z</time>
      </trkpt>
      <trkpt lat="49.83302" lon="2.40082">
        <ele>30.8</ele>
        <time>2023-04-19T12:20:44Z</time>
      </trkpt>
      <trkpt lat="49.83301" lon="2.40082">
        <ele>30.8</ele>
        <time>2023-04-19T12:20:45Z</time>
      </trkpt>
      <trkpt lat="49.833" lon="2.40083">
        <ele>30.8</ele>
        <time>2023-04-19T12:20:46Z</time>
      </trkpt>
      <trkpt lat="49.83299" lon="2.40083">
        <ele>30.8</ele>
        <time>2023-04-19T12:20:47Z</time>
      </trkpt>
      <trkpt lat="49.83297" lon="2.40083">
        <ele>30.8</ele>
        <time>2023-04-19T12:20:48Z</time>
      </trkpt>
      <trkpt lat="49.83295" lon="2.40083">
        <ele>30.8</ele>
        <time>2023-04-19T12:20:49Z</time>
      </trkpt>
      <trkpt lat="49.83294" lon="2.40083">
        <ele>30.9</ele>
        <time>2023-04-19T12:20:51Z</time>
      </trkpt>
      <trkpt lat="49.83293" lon="2.40083">
        <ele>30.9</ele>
        <time>2023-04-19T12:20:52Z</time>
      </trkpt>
      <trkpt lat="49.83293" lon="2.40083">
        <ele>30.9</ele>
        <time>2023-04-19T12:20:53Z</time>
      </trkpt>
      <trkpt lat="49.83292" lon="2.40084">
        <ele>30.9</ele>
        <time>2023-04-19T12:20:54Z</time>
      </trkpt>
      <trkpt lat="49.83292" lon="2.40084">
        <ele>30.9</ele>
        <time>2023-04-19T12:20:55Z</time>
      </trkpt>
      <trkpt lat="49.83291" lon="2.40084">
        <ele>30.9</ele>
        <time>2023-04-19T12:20:56Z</time>
      </trkpt>
      <trkpt lat="49.8329" lon="2.40084">
        <ele>30.9</ele>
        <time>2023-04-19T12:20:58Z</time>
      </trkpt>
      <trkpt lat="49.83289" lon="2.40084">
        <ele>30.9</ele>
        <time>2023-04-19T12:20:59Z</time>
      </trkpt>
      <trkpt lat="49.83288" lon="2.40085">
        <ele>30.9</ele>
        <time>2023-04-19T12:21:00Z</time>
      </trkpt>
      <trkpt lat="49.83287" lon="2.40085">
        <ele>30.9</ele>
        <time>2023-04-19T12:21:01Z</time>
      </trkpt>
      <trkpt lat="49.83286" lon="2.40085">
        <ele>30.9</ele>
        <time>2023-04-19T12:21:02Z</time>
      </trkpt>
      <trkpt lat="49.83285" lon="2.40086">
        <ele>30.9</ele>
        <time>2023-04-19T12:21:03Z</time>
      </trkpt>
      <trkpt lat="49.83284" lon="2.40086">
        <ele>30.9</ele>
        <time>2023-04-19T12:21:05Z</time>
      </trkpt>
      <trkpt lat="49.83283" lon="2.40086">
        <ele>30.9</ele>
        <time>2023-04-19T12:21:06Z</time>
      </trkpt>
      <trkpt lat="49.83282" lon="2.40087">
        <ele>31</ele>
        <time>2023-04-19T12:21:07Z</time>
      </trkpt>
      <trkpt lat="49.8328" lon="2.40088">
        <ele>31</ele>
        <time>2023-04-19T12:21:08Z</time>
      </trkpt>
      <trkpt lat="49.83279" lon="2.40088">
        <ele>31</ele>
        <time>2023-04-19T12:21:09Z</time>
      </trkpt>
      <trkpt lat="49.83278" lon="2.40089">
        <ele>31</ele>
        <time>2023-04-19T12:21:10Z</time>
      </trkpt>
      <trkpt lat="49.83275" lon="2.4009">
        <ele>31</ele>
        <time>2023-04-19T12:21:12Z</time>
      </trkpt>
      <trkpt lat="49.83274" lon="2.4009">
        <ele>31</ele>
        <time>2023-04-19T12:21:13Z</time>
      </trkpt>
      <trkpt lat="49.83273" lon="2.40091">
        <ele>31</ele>
        <time>2023-04-19T12:21:14Z</time>
      </trkpt>
      <trkpt lat="49.83271" lon="2.40091">
        <ele>31</ele>
        <time>2023-04-19T12:21:15Z</time>
      </trkpt>
      <trkpt lat="49.8327" lon="2.40092">
        <ele>31</ele>
        <time>2023-04-19T12:21:16Z</time>
      </trkpt>
      <trkpt lat="49.83268" lon="2.40093">
        <ele>31</ele>
        <time>2023-04-19T12:21:18Z</time>
      </trkpt>
      <trkpt lat="49.83267" lon="2.40093">
        <ele>31.1</ele>
        <time>2023-04-19T12:21:19Z</time>
      </trkpt>
      <trkpt lat="49.83266" lon="2.40094">
        <ele>31.1</ele>
        <time>2023-04-19T12:21:20Z</time>
      </trkpt>
      <trkpt lat="49.83265" lon="2.40094">
        <ele>31.1</ele>
        <time>2023-04-19T12:21:21Z</time>
      </trkpt>
      <trkpt lat="49.83264" lon="2.40096">
        <ele>31.1</ele>
        <time>2023-04-19T12:21:22Z</time>
      </trkpt>
      <trkpt lat="49.83263" lon="2.40096">
        <ele>31.1</ele>
        <time>2023-04-19T12:21:24Z</time>
      </trkpt>
      <trkpt lat="49.83263" lon="2.40097">
        <ele>31.1</ele>
        <time>2023-04-19T12:21:25Z</time>
      </trkpt>
      <trkpt lat="49.83262" lon="2.40097">
        <ele>31.1</ele>
        <time>2023-04-19T12:21:26Z</time>
      </trkpt>
      <trkpt lat="49.8326" lon="2.40099">
        <ele>31.1</ele>
        <time>2023-04-19T12:21:27Z</time>
      </trkpt>
      <trkpt lat="49.8326" lon="2.40099">
        <ele>31.1</ele>
        <time>2023-04-19T12:21:28Z</time>
      </trkpt>
      <trkpt lat="49.83259" lon="2.401">
        <ele>31.1</ele>
        <time>2023-04-19T12:21:29Z</time>
      </trkpt>
      <trkpt lat="49.83258" lon="2.401">
        <ele>31.1</ele>
        <time>2023-04-19T12:21:30Z</time>
      </trkpt>
      <trkpt lat="49.83256" lon="2.40102">
        <ele>31.1</ele>
        <time>2023-04-19T12:21:32Z</time>
      </trkpt>
      <trkpt lat="49.83255" lon="2.40103">
        <ele>31.1</ele>
        <time>2023-04-19T12:21:33Z</time>
      </trkpt>
      <trkpt lat="49.83253" lon="2.40104">
        <ele>31.1</ele>
        <time>2023-04-19T12:21:34Z</time>
      </trkpt>
      <trkpt lat="49.83252" lon="2.40105">
        <ele>31.1</ele>
        <time>2023-04-19T12:21:35Z</time>
      </trkpt>
      <trkpt lat="49.83251" lon="2.40106">
        <ele>31.1</ele>
        <time>2023-04-19T12:21:36Z</time>
      </trkpt>
      <trkpt lat="49.83249" lon="2.40107">
        <ele>31.1</ele>
        <time>2023-04-19T12:21:37Z</time>
      </trkpt>
      <trkpt lat="49.83248" lon="2.40107">
        <ele>31.1</ele>
        <time>2023-04-19T12:21:39Z</time>
      </trkpt>
      <trkpt lat="49.83247" lon="2.40108">
        <ele>31.1</ele>
        <time>2023-04-19T12:21:40Z</time>
      </trkpt>
      <trkpt lat="49.83246" lon="2.40109">
        <ele>31.1</ele>
        <time>2023-04-19T12:21:41Z</time>
      </trkpt>
      <trkpt lat="49.83245" lon="2.40109">
        <ele>31.1</ele>
        <time>2023-04-19T12:21:42Z</time>
      </trkpt>
      <trkpt lat="49.83244" lon="2.4011">
        <ele>31.1</ele>
        <time>2023-04-19T12:21:43Z</time>
      </trkpt>
      <trkpt lat="49.83243" lon="2.40111">
        <ele>31.1</ele>
        <time>2023-04-19T12:21:44Z</time>
      </trkpt>
      <trkpt lat="49.83242" lon="2.40112">
        <ele>31.1</ele>
        <time>2023-04-19T12:21:45Z</time>
      </trkpt>
      <trkpt lat="49.83241" lon="2.40113">
        <ele>31.1</ele>
        <time>2023-04-19T12:21:46Z</time>
      </trkpt>
      <trkpt lat="49.83239" lon="2.40116">
        <ele>31.1</ele>
        <time>2023-04-19T12:21:47Z</time>
      </trkpt>
      <trkpt lat="49.83238" lon="2.40117">
        <ele>31.1</ele>
        <time>2023-04-19T12:21:49Z</time>
      </trkpt>
      <trkpt lat="49.83237" lon="2.40118">
        <ele>31.1</ele>
        <time>2023-04-19T12:21:50Z</time>
      </trkpt>
      <trkpt lat="49.83236" lon="2.40119">
        <ele>31.1</ele>
        <time>2023-04-19T12:21:51Z</time>
      </trkpt>
      <trkpt lat="49.83234" lon="2.40121">
        <ele>31.1</ele>
        <time>2023-04-19T12:21:52Z</time>
      </trkpt>
      <trkpt lat="49.83233" lon="2.40122">
        <ele>31.1</ele>
        <time>2023-04-19T12:21:53Z</time>
      </trkpt>
      <trkpt lat="49.83232" lon="2.40122">
        <ele>31.1</ele>
        <time>2023-04-19T12:21:54Z</time>
      </trkpt>
      <trkpt lat="49.83232" lon="2.40123">
        <ele>31.1</ele>
        <time>2023-04-19T12:21:56Z</time>
      </trkpt>
      <trkpt lat="49.83232" lon="2.40124">
        <ele>31.1</ele>
        <time>2023-04-19T12:21:57Z</time>
      </trkpt>
      <trkpt lat="49.83232" lon="2.40124">
        <ele>31.1</ele>
        <time>2023-04-19T12:21:58Z</time>
      </trkpt>
      <trkpt lat="49.83232" lon="2.40125">
        <ele>31.1</ele>
        <time>2023-04-19T12:21:59Z</time>
      </trkpt>
      <trkpt lat="49.83231" lon="2.40126">
        <ele>31.1</ele>
        <time>2023-04-19T12:22:00Z</time>
      </trkpt>
      <trkpt lat="49.8323" lon="2.40127">
        <ele>31.1</ele>
        <time>2023-04-19T12:22:02Z</time>
      </trkpt>
      <trkpt lat="49.83228" lon="2.40128">
        <ele>31.1</ele>
        <time>2023-04-19T12:22:03Z</time>
      </trkpt>
      <trkpt lat="49.83227" lon="2.40129">
        <ele>31.1</ele>
        <time>2023-04-19T12:22:04Z</time>
      </trkpt>
      <trkpt lat="49.83226" lon="2.4013">
        <ele>31.1</ele>
        <time>2023-04-19T12:22:05Z</time>
      </trkpt>
      <trkpt lat="49.83225" lon="2.40131">
        <ele>31</ele>
        <time>2023-04-19T12:22:06Z</time>
      </trkpt>
      <trkpt lat="49.83224" lon="2.40132">
        <ele>31</ele>
        <time>2023-04-19T12:22:07Z</time>
      </trkpt>
      <trkpt lat="49.83222" lon="2.40133">
        <ele>31</ele>
        <time>2023-04-19T12:22:08Z</time>
      </trkpt>
      <trkpt lat="49.83221" lon="2.40134">
        <ele>31</ele>
        <time>2023-04-19T12:22:09Z</time>
      </trkpt>
      <trkpt lat="49.83221" lon="2.40135">
        <ele>31</ele>
        <time>2023-04-19T12:22:10Z</time>
      </trkpt>
      <trkpt lat="49.83219" lon="2.40136">
        <ele>31</ele>
        <time>2023-04-19T12:22:11Z</time>
      </trkpt>
      <trkpt lat="49.83218" lon="2.40137">
        <ele>31</ele>
        <time>2023-04-19T12:22:13Z</time>
      </trkpt>
      <trkpt lat="49.83216" lon="2.40138">
        <ele>31</ele>
        <time>2023-04-19T12:22:14Z</time>
      </trkpt>
      <trkpt lat="49.83215" lon="2.40139">
        <ele>31</ele>
        <time>2023-04-19T12:22:15Z</time>
      </trkpt>
      <trkpt lat="49.83214" lon="2.4014">
        <ele>31</ele>
        <time>2023-04-19T12:22:16Z</time>
      </trkpt>
      <trkpt lat="49.83213" lon="2.40142">
        <ele>31</ele>
        <time>2023-04-19T12:22:17Z</time>
      </trkpt>
      <trkpt lat="49.83212" lon="2.40143">
        <ele>31</ele>
        <time>2023-04-19T12:22:18Z</time>
      </trkpt>
      <trkpt lat="49.8321" lon="2.40144">
        <ele>31</ele>
        <time>2023-04-19T12:22:20Z</time>
      </trkpt>
      <trkpt lat="49.83208" lon="2.40146">
        <ele>31</ele>
        <time>2023-04-19T12:22:21Z</time>
      </trkpt>
      <trkpt lat="49.83207" lon="2.40147">
        <ele>31</ele>
        <time>2023-04-19T12:22:22Z</time>
      </trkpt>
      <trkpt lat="49.83206" lon="2.40148">
        <ele>30.9</ele>
        <time>2023-04-19T12:22:23Z</time>
      </trkpt>
      <trkpt lat="49.83204" lon="2.40149">
        <ele>30.9</ele>
        <time>2023-04-19T12:22:25Z</time>
      </trkpt>
      <trkpt lat="49.83203" lon="2.40151">
        <ele>30.9</ele>
        <time>2023-04-19T12:22:26Z</time>
      </trkpt>
      <trkpt lat="49.83202" lon="2.40151">
        <ele>30.9</ele>
        <time>2023-04-19T12:22:27Z</time>
      </trkpt>
      <trkpt lat="49.83201" lon="2.40152">
        <ele>30.9</ele>
        <time>2023-04-19T12:22:28Z</time>
      </trkpt>
      <trkpt lat="49.832" lon="2.40153">
        <ele>30.9</ele>
        <time>2023-04-19T12:22:29Z</time>
      </trkpt>
      <trkpt lat="49.83198" lon="2.40154">
        <ele>30.9</ele>
        <time>2023-04-19T12:22:31Z</time>
      </trkpt>
      <trkpt lat="49.83198" lon="2.40155">
        <ele>30.9</ele>
        <time>2023-04-19T12:22:32Z</time>
      </trkpt>
      <trkpt lat="49.83197" lon="2.40156">
        <ele>30.9</ele>
        <time>2023-04-19T12:22:33Z</time>
      </trkpt>
      <trkpt lat="49.83195" lon="2.40157">
        <ele>30.9</ele>
        <time>2023-04-19T12:22:34Z</time>
      </trkpt>
      <trkpt lat="49.83194" lon="2.40157">
        <ele>30.9</ele>
        <time>2023-04-19T12:22:35Z</time>
      </trkpt>
      <trkpt lat="49.83194" lon="2.40158">
        <ele>30.9</ele>
        <time>2023-04-19T12:22:36Z</time>
      </trkpt>
      <trkpt lat="49.83193" lon="2.40159">
        <ele>30.9</ele>
        <time>2023-04-19T12:22:37Z</time>
      </trkpt>
      <trkpt lat="49.83191" lon="2.40161">
        <ele>30.9</ele>
        <time>2023-04-19T12:22:39Z</time>
      </trkpt>
      <trkpt lat="49.8319" lon="2.40161">
        <ele>30.9</ele>
        <time>2023-04-19T12:22:40Z</time>
      </trkpt>
      <trkpt lat="49.83189" lon="2.40162">
        <ele>30.9</ele>
        <time>2023-04-19T12:22:41Z</time>
      </trkpt>
      <trkpt lat="49.83187" lon="2.40163">
        <ele>30.9</ele>
        <time>2023-04-19T12:22:42Z</time>
      </trkpt>
      <trkpt lat="49.83186" lon="2.40163">
        <ele>30.9</ele>
        <time>2023-04-19T12:22:43Z</time>
      </trkpt>
      <trkpt lat="49.83183" lon="2.40166">
        <ele>30.9</ele>
        <time>2023-04-19T12:22:45Z</time>
      </trkpt>
      <trkpt lat="49.83181" lon="2.40167">
        <ele>30.9</ele>
        <time>2023-04-19T12:22:46Z</time>
      </trkpt>
      <trkpt lat="49.83181" lon="2.40168">
        <ele>30.8</ele>
        <time>2023-04-19T12:22:48Z</time>
      </trkpt>
      <trkpt lat="49.8318" lon="2.40169">
        <ele>30.8</ele>
        <time>2023-04-19T12:22:49Z</time>
      </trkpt>
      <trkpt lat="49.8318" lon="2.4017">
        <ele>30.8</ele>
        <time>2023-04-19T12:22:50Z</time>
      </trkpt>
      <trkpt lat="49.83181" lon="2.40171">
        <ele>30.8</ele>
        <time>2023-04-19T12:22:51Z</time>
      </trkpt>
      <trkpt lat="49.83181" lon="2.40172">
        <ele>30.8</ele>
        <time>2023-04-19T12:22:52Z</time>
      </trkpt>
      <trkpt lat="49.83181" lon="2.40173">
        <ele>30.8</ele>
        <time>2023-04-19T12:22:53Z</time>
      </trkpt>
      <trkpt lat="49.83181" lon="2.40174">
        <ele>30.8</ele>
        <time>2023-04-19T12:22:55Z</time>
      </trkpt>
      <trkpt lat="49.8318" lon="2.40175">
        <ele>30.8</ele>
        <time>2023-04-19T12:22:56Z</time>
      </trkpt>
      <trkpt lat="49.8318" lon="2.40175">
        <ele>30.8</ele>
        <time>2023-04-19T12:22:57Z</time>
      </trkpt>
      <trkpt lat="49.83179" lon="2.40177">
        <ele>30.8</ele>
        <time>2023-04-19T12:22:58Z</time>
      </trkpt>
      <trkpt lat="49.83177" lon="2.40178">
        <ele>30.8</ele>
        <time>2023-04-19T12:22:59Z</time>
      </trkpt>
      <trkpt lat="49.83176" lon="2.40179">
        <ele>30.8</ele>
        <time>2023-04-19T12:23:01Z</time>
      </trkpt>
      <trkpt lat="49.83175" lon="2.40181">
        <ele>30.8</ele>
        <time>2023-04-19T12:23:02Z</time>
      </trkpt>
      <trkpt lat="49.83174" lon="2.40182">
        <ele>30.8</ele>
        <time>2023-04-19T12:23:03Z</time>
      </trkpt>
      <trkpt lat="49.83174" lon="2.40182">
        <ele>30.8</ele>
        <time>2023-04-19T12:23:04Z</time>
      </trkpt>
      <trkpt lat="49.83174" lon="2.40183">
        <ele>30.7</ele>
        <time>2023-04-19T12:23:05Z</time>
      </trkpt>
      <trkpt lat="49.83172" lon="2.40185">
        <ele>30.7</ele>
        <time>2023-04-19T12:23:06Z</time>
      </trkpt>
      <trkpt lat="49.83172" lon="2.40186">
        <ele>30.7</ele>
        <time>2023-04-19T12:23:08Z</time>
      </trkpt>
      <trkpt lat="49.83171" lon="2.40187">
        <ele>30.7</ele>
        <time>2023-04-19T12:23:09Z</time>
      </trkpt>
      <trkpt lat="49.83169" lon="2.4019">
        <ele>30.7</ele>
        <time>2023-04-19T12:23:10Z</time>
      </trkpt>
      <trkpt lat="49.83168" lon="2.40191">
        <ele>30.7</ele>
        <time>2023-04-19T12:23:11Z</time>
      </trkpt>
      <trkpt lat="49.83168" lon="2.40192">
        <ele>30.7</ele>
        <time>2023-04-19T12:23:12Z</time>
      </trkpt>
      <trkpt lat="49.83166" lon="2.40194">
        <ele>30.7</ele>
        <time>2023-04-19T12:23:13Z</time>
      </trkpt>
      <trkpt lat="49.83165" lon="2.40195">
        <ele>30.7</ele>
        <time>2023-04-19T12:23:15Z</time>
      </trkpt>
      <trkpt lat="49.83163" lon="2.40197">
        <ele>30.7</ele>
        <time>2023-04-19T12:23:16Z</time>
      </trkpt>
      <trkpt lat="49.83163" lon="2.40199">
        <ele>30.6</ele>
        <time>2023-04-19T12:23:17Z</time>
      </trkpt>
      <trkpt lat="49.83162" lon="2.40201">
        <ele>30.6</ele>
        <time>2023-04-19T12:23:18Z</time>
      </trkpt>
      <trkpt lat="49.83161" lon="2.40203">
        <ele>30.6</ele>
        <time>2023-04-19T12:23:19Z</time>
      </trkpt>
      <trkpt lat="49.8316" lon="2.40205">
        <ele>30.6</ele>
        <time>2023-04-19T12:23:20Z</time>
      </trkpt>
      <trkpt lat="49.8316" lon="2.40207">
        <ele>30.6</ele>
        <time>2023-04-19T12:23:22Z</time>
      </trkpt>
      <trkpt lat="49.83159" lon="2.40209">
        <ele>30.6</ele>
        <time>2023-04-19T12:23:23Z</time>
      </trkpt>
      <trkpt lat="49.83158" lon="2.40211">
        <ele>30.6</ele>
        <time>2023-04-19T12:23:24Z</time>
      </trkpt>
      <trkpt lat="49.83158" lon="2.40213">
        <ele>30.6</ele>
        <time>2023-04-19T12:23:25Z</time>
      </trkpt>
      <trkpt lat="49.83157" lon="2.40216">
        <ele>30.6</ele>
        <time>2023-04-19T12:23:26Z</time>
      </trkpt>
      <trkpt lat="49.83155" lon="2.40219">
        <ele>30.6</ele>
        <time>2023-04-19T12:23:27Z</time>
      </trkpt>
      <trkpt lat="49.83154" lon="2.4022">
        <ele>30.6</ele>
        <time>2023-04-19T12:23:28Z</time>
      </trkpt>
      <trkpt lat="49.83153" lon="2.40222">
        <ele>30.6</ele>
        <time>2023-04-19T12:23:30Z</time>
      </trkpt>
      <trkpt lat="49.83153" lon="2.40224">
        <ele>30.6</ele>
        <time>2023-04-19T12:23:31Z</time>
      </trkpt>
      <trkpt lat="49.83152" lon="2.40226">
        <ele>30.6</ele>
        <time>2023-04-19T12:23:32Z</time>
      </trkpt>
      <trkpt lat="49.83151" lon="2.40227">
        <ele>30.6</ele>
        <time>2023-04-19T12:23:33Z</time>
      </trkpt>
      <trkpt lat="49.8315" lon="2.40229">
        <ele>30.6</ele>
        <time>2023-04-19T12:23:34Z</time>
      </trkpt>
      <trkpt lat="49.83149" lon="2.40232">
        <ele>30.7</ele>
        <time>2023-04-19T12:23:35Z</time>
      </trkpt>
      <trkpt lat="49.83148" lon="2.40234">
        <ele>30.7</ele>
        <time>2023-04-19T12:23:36Z</time>
      </trkpt>
      <trkpt lat="49.83147" lon="2.40236">
        <ele>30.7</ele>
        <time>2023-04-19T12:23:38Z</time>
      </trkpt>
      <trkpt lat="49.83146" lon="2.40238">
        <ele>30.7</ele>
        <time>2023-04-19T12:23:39Z</time>
      </trkpt>
      <trkpt lat="49.83145" lon="2.4024">
        <ele>30.7</ele>
        <time>2023-04-19T12:23:40Z</time>
      </trkpt>
      <trkpt lat="49.83144" lon="2.40242">
        <ele>30.7</ele>
        <time>2023-04-19T12:23:41Z</time>
      </trkpt>
      <trkpt lat="49.83144" lon="2.40244">
        <ele>30.7</ele>
        <time>2023-04-19T12:23:42Z</time>
      </trkpt>
      <trkpt lat="49.83143" lon="2.40245">
        <ele>30.7</ele>
        <time>2023-04-19T12:23:44Z</time>
      </trkpt>
      <trkpt lat="49.83143" lon="2.40246">
        <ele>30.7</ele>
        <time>2023-04-19T12:23:45Z</time>
      </trkpt>
      <trkpt lat="49.83143" lon="2.40247">
        <ele>30.7</ele>
        <time>2023-04-19T12:23:46Z</time>
      </trkpt>
      <trkpt lat="49.83143" lon="2.40248">
        <ele>30.7</ele>
        <time>2023-04-19T12:23:47Z</time>
      </trkpt>
      <trkpt lat="49.83143" lon="2.40249">
        <ele>30.7</ele>
        <time>2023-04-19T12:23:48Z</time>
      </trkpt>
      <trkpt lat="49.83142" lon="2.4025">
        <ele>30.7</ele>
        <time>2023-04-19T12:23:49Z</time>
      </trkpt>
      <trkpt lat="49.83142" lon="2.40252">
        <ele>30.7</ele>
        <time>2023-04-19T12:23:50Z</time>
      </trkpt>
      <trkpt lat="49.83142" lon="2.40253">
        <ele>30.7</ele>
        <time>2023-04-19T12:23:51Z</time>
      </trkpt>
      <trkpt lat="49.83142" lon="2.40253">
        <ele>30.7</ele>
        <time>2023-04-19T12:23:52Z</time>
      </trkpt>
      <trkpt lat="49.83143" lon="2.40253">
        <ele>30.7</ele>
        <time>2023-04-19T12:23:54Z</time>
      </trkpt>
      <trkpt lat="49.83144" lon="2.40253">
        <ele>30.7</ele>
        <time>2023-04-19T12:23:55Z</time>
      </trkpt>
      <trkpt lat="49.83144" lon="2.40254">
        <ele>30.7</ele>
        <time>2023-04-19T12:23:56Z</time>
      </trkpt>
      <trkpt lat="49.83144" lon="2.40255">
        <ele>30.7</ele>
        <time>2023-04-19T12:23:57Z</time>
      </trkpt>
      <trkpt lat="49.83144" lon="2.40256">
        <ele>30.7</ele>
        <time>2023-04-19T12:23:58Z</time>
      </trkpt>
      <trkpt lat="49.83144" lon="2.40257">
        <ele>30.7</ele>
        <time>2023-04-19T12:23:59Z</time>
      </trkpt>
      <trkpt lat="49.83144" lon="2.40258">
        <ele>30.7</ele>
        <time>2023-04-19T12:24:00Z</time>
      </trkpt>
      <trkpt lat="49.83143" lon="2.4026">
        <ele>30.7</ele>
        <time>2023-04-19T12:24:02Z</time>
      </trkpt>
      <trkpt lat="49.83143" lon="2.40262">
        <ele>30.7</ele>
        <time>2023-04-19T12:24:03Z</time>
      </trkpt>
      <trkpt lat="49.83142" lon="2.40264">
        <ele>30.7</ele>
        <time>2023-04-19T12:24:04Z</time>
      </trkpt>
      <trkpt lat="49.83141" lon="2.40266">
        <ele>30.7</ele>
        <time>2023-04-19T12:24:05Z</time>
      </trkpt>
      <trkpt lat="49.83141" lon="2.40267">
        <ele>30.6</ele>
        <time>2023-04-19T12:24:07Z</time>
      </trkpt>
      <trkpt lat="49.83141" lon="2.40268">
        <ele>30.6</ele>
        <time>2023-04-19T12:24:08Z</time>
      </trkpt>
      <trkpt lat="49.83141" lon="2.40269">
        <ele>30.6</ele>
        <time>2023-04-19T12:24:09Z</time>
      </trkpt>
      <trkpt lat="49.8314" lon="2.4027">
        <ele>30.6</ele>
        <time>2023-04-19T12:24:10Z</time>
      </trkpt>
      <trkpt lat="49.8314" lon="2.40272">
        <ele>30.6</ele>
        <time>2023-04-19T12:24:11Z</time>
      </trkpt>
      <trkpt lat="49.8314" lon="2.40273">
        <ele>30.6</ele>
        <time>2023-04-19T12:24:12Z</time>
      </trkpt>
      <trkpt lat="49.83139" lon="2.40274">
        <ele>30.6</ele>
        <time>2023-04-19T12:24:13Z</time>
      </trkpt>
      <trkpt lat="49.83139" lon="2.40275">
        <ele>30.6</ele>
        <time>2023-04-19T12:24:14Z</time>
      </trkpt>
      <trkpt lat="49.83138" lon="2.40276">
        <ele>30.6</ele>
        <time>2023-04-19T12:24:16Z</time>
      </trkpt>
      <trkpt lat="49.83138" lon="2.40278">
        <ele>30.6</ele>
        <time>2023-04-19T12:24:17Z</time>
      </trkpt>
      <trkpt lat="49.83138" lon="2.40279">
        <ele>30.6</ele>
        <time>2023-04-19T12:24:18Z</time>
      </trkpt>
      <trkpt lat="49.83138" lon="2.40281">
        <ele>30.6</ele>
        <time>2023-04-19T12:24:19Z</time>
      </trkpt>
      <trkpt lat="49.83137" lon="2.40283">
        <ele>30.6</ele>
        <time>2023-04-19T12:24:20Z</time>
      </trkpt>
      <trkpt lat="49.83137" lon="2.40285">
        <ele>30.7</ele>
        <time>2023-04-19T12:24:21Z</time>
      </trkpt>
      <trkpt lat="49.83136" lon="2.40288">
        <ele>30.7</ele>
        <time>2023-04-19T12:24:22Z</time>
      </trkpt>
      <trkpt lat="49.83135" lon="2.4029">
        <ele>30.7</ele>
        <time>2023-04-19T12:24:24Z</time>
      </trkpt>
      <trkpt lat="49.83133" lon="2.40295">
        <ele>30.7</ele>
        <time>2023-04-19T12:24:25Z</time>
      </trkpt>
      <trkpt lat="49.83132" lon="2.40296">
        <ele>30.7</ele>
        <time>2023-04-19T12:24:26Z</time>
      </trkpt>
      <trkpt lat="49.8313" lon="2.403">
        <ele>30.7</ele>
        <time>2023-04-19T12:24:27Z</time>
      </trkpt>
      <trkpt lat="49.8313" lon="2.40302">
        <ele>30.7</ele>
        <time>2023-04-19T12:24:28Z</time>
      </trkpt>
      <trkpt lat="49.83128" lon="2.40305">
        <ele>30.7</ele>
        <time>2023-04-19T12:24:29Z</time>
      </trkpt>
      <trkpt lat="49.83128" lon="2.40306">
        <ele>30.7</ele>
        <time>2023-04-19T12:24:31Z</time>
      </trkpt>
      <trkpt lat="49.83127" lon="2.40308">
        <ele>30.7</ele>
        <time>2023-04-19T12:24:32Z</time>
      </trkpt>
      <trkpt lat="49.83127" lon="2.40309">
        <ele>30.7</ele>
        <time>2023-04-19T12:24:33Z</time>
      </trkpt>
      <trkpt lat="49.83126" lon="2.4031">
        <ele>30.7</ele>
        <time>2023-04-19T12:24:34Z</time>
      </trkpt>
      <trkpt lat="49.83126" lon="2.40311">
        <ele>30.7</ele>
        <time>2023-04-19T12:24:35Z</time>
      </trkpt>
      <trkpt lat="49.83126" lon="2.40312">
        <ele>30.7</ele>
        <time>2023-04-19T12:24:36Z</time>
      </trkpt>
      <trkpt lat="49.83126" lon="2.40313">
        <ele>30.8</ele>
        <time>2023-04-19T12:24:37Z</time>
      </trkpt>
      <trkpt lat="49.83125" lon="2.40314">
        <ele>30.8</ele>
        <time>2023-04-19T12:24:39Z</time>
      </trkpt>
      <trkpt lat="49.83125" lon="2.40315">
        <ele>30.8</ele>
        <time>2023-04-19T12:24:40Z</time>
      </trkpt>
      <trkpt lat="49.83125" lon="2.40316">
        <ele>30.8</ele>
        <time>2023-04-19T12:24:41Z</time>
      </trkpt>
      <trkpt lat="49.83125" lon="2.40317">
        <ele>30.8</ele>
        <time>2023-04-19T12:24:42Z</time>
      </trkpt>
      <trkpt lat="49.83125" lon="2.40318">
        <ele>30.8</ele>
        <time>2023-04-19T12:24:43Z</time>
      </trkpt>
      <trkpt lat="49.83124" lon="2.4032">
        <ele>30.8</ele>
        <time>2023-04-19T12:24:44Z</time>
      </trkpt>
      <trkpt lat="49.83124" lon="2.40323">
        <ele>30.8</ele>
        <time>2023-04-19T12:24:46Z</time>
      </trkpt>
      <trkpt lat="49.83123" lon="2.40324">
        <ele>30.8</ele>
        <time>2023-04-19T12:24:47Z</time>
      </trkpt>
      <trkpt lat="49.83123" lon="2.40326">
        <ele>30.8</ele>
        <time>2023-04-19T12:24:48Z</time>
      </trkpt>
      <trkpt lat="49.83123" lon="2.40327">
        <ele>30.8</ele>
        <time>2023-04-19T12:24:49Z</time>
      </trkpt>
      <trkpt lat="49.83123" lon="2.40329">
        <ele>30.8</ele>
        <time>2023-04-19T12:24:50Z</time>
      </trkpt>
      <trkpt lat="49.83122" lon="2.4033">
        <ele>30.8</ele>
        <time>2023-04-19T12:24:51Z</time>
      </trkpt>
      <trkpt lat="49.83122" lon="2.40332">
        <ele>30.8</ele>
        <time>2023-04-19T12:24:52Z</time>
      </trkpt>
      <trkpt lat="49.83122" lon="2.40332">
        <ele>30.8</ele>
        <time>2023-04-19T12:24:53Z</time>
      </trkpt>
      <trkpt lat="49.83122" lon="2.40333">
        <ele>30.8</ele>
        <time>2023-04-19T12:24:55Z</time>
      </trkpt>
      <trkpt lat="49.83121" lon="2.40335">
        <ele>30.9</ele>
        <time>2023-04-19T12:24:56Z</time>
      </trkpt>
      <trkpt lat="49.83121" lon="2.40336">
        <ele>30.9</ele>
        <time>2023-04-19T12:24:57Z</time>
      </trkpt>
      <trkpt lat="49.8312" lon="2.40338">
        <ele>30.9</ele>
        <time>2023-04-19T12:24:58Z</time>
      </trkpt>
      <trkpt lat="49.83119" lon="2.40339">
        <ele>30.9</ele>
        <time>2023-04-19T12:24:59Z</time>
      </trkpt>
      <trkpt lat="49.83119" lon="2.40341">
        <ele>30.9</ele>
        <time>2023-04-19T12:25:00Z</time>
      </trkpt>
      <trkpt lat="49.83118" lon="2.40343">
        <ele>30.9</ele>
        <time>2023-04-19T12:25:01Z</time>
      </trkpt>
      <trkpt lat="49.83118" lon="2.40344">
        <ele>30.9</ele>
        <time>2023-04-19T12:25:03Z</time>
      </trkpt>
      <trkpt lat="49.83117" lon="2.40347">
        <ele>30.9</ele>
        <time>2023-04-19T12:25:04Z</time>
      </trkpt>
      <trkpt lat="49.83117" lon="2.40349">
        <ele>30.9</ele>
        <time>2023-04-19T12:25:05Z</time>
      </trkpt>
      <trkpt lat="49.83117" lon="2.4035">
        <ele>31</ele>
        <time>2023-04-19T12:25:06Z</time>
      </trkpt>
      <trkpt lat="49.83116" lon="2.40353">
        <ele>31</ele>
        <time>2023-04-19T12:25:07Z</time>
      </trkpt>
      <trkpt lat="49.83116" lon="2.40355">
        <ele>31</ele>
        <time>2023-04-19T12:25:08Z</time>
      </trkpt>
      <trkpt lat="49.83115" lon="2.40357">
        <ele>31</ele>
        <time>2023-04-19T12:25:10Z</time>
      </trkpt>
      <trkpt lat="49.83115" lon="2.40359">
        <ele>31</ele>
        <time>2023-04-19T12:25:11Z</time>
      </trkpt>
      <trkpt lat="49.83115" lon="2.4036">
        <ele>31</ele>
        <time>2023-04-19T12:25:12Z</time>
      </trkpt>
      <trkpt lat="49.83114" lon="2.40365">
        <ele>31</ele>
        <time>2023-04-19T12:25:13Z</time>
      </trkpt>
      <trkpt lat="49.83114" lon="2.40366">
        <ele>31</ele>
        <time>2023-04-19T12:25:14Z</time>
      </trkpt>
      <trkpt lat="49.83114" lon="2.40369">
        <ele>31.1</ele>
        <time>2023-04-19T12:25:15Z</time>
      </trkpt>
      <trkpt lat="49.83114" lon="2.40372">
        <ele>31.1</ele>
        <time>2023-04-19T12:25:16Z</time>
      </trkpt>
      <trkpt lat="49.83113" lon="2.40375">
        <ele>31.1</ele>
        <time>2023-04-19T12:25:18Z</time>
      </trkpt>
      <trkpt lat="49.83113" lon="2.40379">
        <ele>31.2</ele>
        <time>2023-04-19T12:25:19Z</time>
      </trkpt>
      <trkpt lat="49.83113" lon="2.4038">
        <ele>31.2</ele>
        <time>2023-04-19T12:25:20Z</time>
      </trkpt>
      <trkpt lat="49.83113" lon="2.40383">
        <ele>31.2</ele>
        <time>2023-04-19T12:25:21Z</time>
      </trkpt>
      <trkpt lat="49.83113" lon="2.40384">
        <ele>31.2</ele>
        <time>2023-04-19T12:25:22Z</time>
      </trkpt>
      <trkpt lat="49.83113" lon="2.40385">
        <ele>31.2</ele>
        <time>2023-04-19T12:25:23Z</time>
      </trkpt>
      <trkpt lat="49.83113" lon="2.40387">
        <ele>31.2</ele>
        <time>2023-04-19T12:25:24Z</time>
      </trkpt>
      <trkpt lat="49.83113" lon="2.40388">
        <ele>31.3</ele>
        <time>2023-04-19T12:25:25Z</time>
      </trkpt>
      <trkpt lat="49.83112" lon="2.40389">
        <ele>31.3</ele>
        <time>2023-04-19T12:25:27Z</time>
      </trkpt>
      <trkpt lat="49.83112" lon="2.4039">
        <ele>31.3</ele>
        <time>2023-04-19T12:25:28Z</time>
      </trkpt>
      <trkpt lat="49.83112" lon="2.40394">
        <ele>31.3</ele>
        <time>2023-04-19T12:25:29Z</time>
      </trkpt>
      <trkpt lat="49.83112" lon="2.40395">
        <ele>31.4</ele>
        <time>2023-04-19T12:25:30Z</time>
      </trkpt>
      <trkpt lat="49.83112" lon="2.40396">
        <ele>31.4</ele>
        <time>2023-04-19T12:25:31Z</time>
      </trkpt>
      <trkpt lat="49.83111" lon="2.40398">
        <ele>31.4</ele>
        <time>2023-04-19T12:25:32Z</time>
      </trkpt>
      <trkpt lat="49.83111" lon="2.404">
        <ele>31.4</ele>
        <time>2023-04-19T12:25:33Z</time>
      </trkpt>
      <trkpt lat="49.83111" lon="2.40402">
        <ele>31.5</ele>
        <time>2023-04-19T12:25:34Z</time>
      </trkpt>
      <trkpt lat="49.83111" lon="2.40403">
        <ele>31.5</ele>
        <time>2023-04-19T12:25:36Z</time>
      </trkpt>
      <trkpt lat="49.83111" lon="2.40404">
        <ele>31.5</ele>
        <time>2023-04-19T12:25:37Z</time>
      </trkpt>
      <trkpt lat="49.83111" lon="2.40405">
        <ele>31.5</ele>
        <time>2023-04-19T12:25:38Z</time>
      </trkpt>
      <trkpt lat="49.83111" lon="2.40407">
        <ele>31.6</ele>
        <time>2023-04-19T12:25:39Z</time>
      </trkpt>
      <trkpt lat="49.83112" lon="2.40408">
        <ele>31.6</ele>
        <time>2023-04-19T12:25:40Z</time>
      </trkpt>
      <trkpt lat="49.83112" lon="2.4041">
        <ele>31.6</ele>
        <time>2023-04-19T12:25:41Z</time>
      </trkpt>
      <trkpt lat="49.83112" lon="2.40412">
        <ele>31.7</ele>
        <time>2023-04-19T12:25:42Z</time>
      </trkpt>
      <trkpt lat="49.83113" lon="2.40413">
        <ele>31.7</ele>
        <time>2023-04-19T12:25:44Z</time>
      </trkpt>
      <trkpt lat="49.83113" lon="2.40415">
        <ele>31.7</ele>
        <time>2023-04-19T12:25:45Z</time>
      </trkpt>
      <trkpt lat="49.83114" lon="2.40416">
        <ele>31.8</ele>
        <time>2023-04-19T12:25:46Z</time>
      </trkpt>
      <trkpt lat="49.83114" lon="2.40419">
        <ele>31.8</ele>
        <time>2023-04-19T12:25:47Z</time>
      </trkpt>
      <trkpt lat="49.83114" lon="2.40421">
        <ele>31.9</ele>
        <time>2023-04-19T12:25:48Z</time>
      </trkpt>
      <trkpt lat="49.83114" lon="2.40423">
        <ele>31.9</ele>
        <time>2023-04-19T12:25:50Z</time>
      </trkpt>
      <trkpt lat="49.83115" lon="2.40424">
        <ele>32</ele>
        <time>2023-04-19T12:25:51Z</time>
      </trkpt>
      <trkpt lat="49.83115" lon="2.40426">
        <ele>32</ele>
        <time>2023-04-19T12:25:52Z</time>
      </trkpt>
      <trkpt lat="49.83115" lon="2.40428">
        <ele>32.1</ele>
        <time>2023-04-19T12:25:53Z</time>
      </trkpt>
      <trkpt lat="49.83115" lon="2.40429">
        <ele>32.1</ele>
        <time>2023-04-19T12:25:54Z</time>
      </trkpt>
      <trkpt lat="49.83116" lon="2.40431">
        <ele>32.1</ele>
        <time>2023-04-19T12:25:56Z</time>
      </trkpt>
      <trkpt lat="49.83117" lon="2.40432">
        <ele>32.2</ele>
        <time>2023-04-19T12:25:57Z</time>
      </trkpt>
      <trkpt lat="49.83118" lon="2.40433">
        <ele>32.2</ele>
        <time>2023-04-19T12:25:59Z</time>
      </trkpt>
      <trkpt lat="49.83118" lon="2.40434">
        <ele>32.3</ele>
        <time>2023-04-19T12:26:00Z</time>
      </trkpt>
      <trkpt lat="49.83119" lon="2.40434">
        <ele>32.4</ele>
        <time>2023-04-19T12:26:02Z</time>
      </trkpt>
      <trkpt lat="49.8312" lon="2.40434">
        <ele>32.4</ele>
        <time>2023-04-19T12:26:03Z</time>
      </trkpt>
      <trkpt lat="49.83121" lon="2.40434">
        <ele>32.4</ele>
        <time>2023-04-19T12:26:04Z</time>
      </trkpt>
      <trkpt lat="49.83122" lon="2.40435">
        <ele>32.3</ele>
        <time>2023-04-19T12:26:06Z</time>
      </trkpt>
      <trkpt lat="49.83122" lon="2.40434">
        <ele>32.3</ele>
        <time>2023-04-19T12:26:07Z</time>
      </trkpt>
      <trkpt lat="49.83123" lon="2.40434">
        <ele>32.3</ele>
        <time>2023-04-19T12:26:09Z</time>
      </trkpt>
      <trkpt lat="49.83122" lon="2.40433">
        <ele>32.3</ele>
        <time>2023-04-19T12:26:10Z</time>
      </trkpt>
      <trkpt lat="49.83122" lon="2.40433">
        <ele>32.3</ele>
        <time>2023-04-19T12:26:11Z</time>
      </trkpt>
      <trkpt lat="49.83122" lon="2.40432">
        <ele>32.3</ele>
        <time>2023-04-19T12:26:12Z</time>
      </trkpt>
      <trkpt lat="49.83122" lon="2.40432">
        <ele>32.3</ele>
        <time>2023-04-19T12:26:14Z</time>
      </trkpt>
      <trkpt lat="49.83122" lon="2.40431">
        <ele>32.3</ele>
        <time>2023-04-19T12:26:15Z</time>
      </trkpt>
      <trkpt lat="49.83122" lon="2.40431">
        <ele>32.3</ele>
        <time>2023-04-19T12:26:17Z</time>
      </trkpt>
      <trkpt lat="49.83122" lon="2.40431">
        <ele>32.2</ele>
        <time>2023-04-19T12:26:18Z</time>
      </trkpt>
      <trkpt lat="49.83121" lon="2.4043">
        <ele>32.2</ele>
        <time>2023-04-19T12:26:19Z</time>
      </trkpt>
      <trkpt lat="49.8312" lon="2.4043">
        <ele>32.2</ele>
        <time>2023-04-19T12:26:20Z</time>
      </trkpt>
      <trkpt lat="49.8312" lon="2.4043">
        <ele>32.2</ele>
        <time>2023-04-19T12:26:21Z</time>
      </trkpt>
      <trkpt lat="49.8312" lon="2.4043">
        <ele>32.2</ele>
        <time>2023-04-19T12:26:22Z</time>
      </trkpt>
      <trkpt lat="49.8312" lon="2.40429">
        <ele>32.2</ele>
        <time>2023-04-19T12:26:23Z</time>
      </trkpt>
      <trkpt lat="49.83119" lon="2.40429">
        <ele>32.2</ele>
        <time>2023-04-19T12:26:24Z</time>
      </trkpt>
      <trkpt lat="49.83119" lon="2.40429">
        <ele>32.2</ele>
        <time>2023-04-19T12:26:25Z</time>
      </trkpt>
      <trkpt lat="49.83119" lon="2.40429">
        <ele>32.2</ele>
        <time>2023-04-19T12:26:26Z</time>
      </trkpt>
      <trkpt lat="49.83119" lon="2.40429">
        <ele>32.1</ele>
        <time>2023-04-19T12:26:27Z</time>
      </trkpt>
      <trkpt lat="49.83118" lon="2.40429">
        <ele>32.1</ele>
        <time>2023-04-19T12:26:28Z</time>
      </trkpt>
      <trkpt lat="49.83118" lon="2.40428">
        <ele>32.1</ele>
        <time>2023-04-19T12:26:29Z</time>
      </trkpt>
      <trkpt lat="49.83118" lon="2.40428">
        <ele>32.1</ele>
        <time>2023-04-19T12:26:30Z</time>
      </trkpt>
      <trkpt lat="49.83118" lon="2.40428">
        <ele>32.1</ele>
        <time>2023-04-19T12:26:31Z</time>
      </trkpt>
      <trkpt lat="49.83118" lon="2.40428">
        <ele>32.1</ele>
        <time>2023-04-19T12:26:32Z</time>
      </trkpt>
      <trkpt lat="49.83117" lon="2.40428">
        <ele>32.1</ele>
        <time>2023-04-19T12:26:33Z</time>
      </trkpt>
      <trkpt lat="49.83117" lon="2.40428">
        <ele>32.1</ele>
        <time>2023-04-19T12:26:34Z</time>
      </trkpt>
      <trkpt lat="49.83117" lon="2.40428">
        <ele>32.1</ele>
        <time>2023-04-19T12:26:35Z</time>
      </trkpt>
      <trkpt lat="49.8312" lon="2.40432">
        <ele>32</ele>
        <time>2023-04-19T12:26:37Z</time>
      </trkpt>
      <trkpt lat="49.83119" lon="2.40432">
        <ele>31.9</ele>
        <time>2023-04-19T12:26:38Z</time>
      </trkpt>
      <trkpt lat="49.83118" lon="2.40432">
        <ele>31.9</ele>
        <time>2023-04-19T12:26:39Z</time>
      </trkpt>
      <trkpt lat="49.83118" lon="2.40432">
        <ele>31.9</ele>
        <time>2023-04-19T12:26:40Z</time>
      </trkpt>
      <trkpt lat="49.83117" lon="2.40433">
        <ele>31.8</ele>
        <time>2023-04-19T12:26:41Z</time>
      </trkpt>
      <trkpt lat="49.83115" lon="2.40432">
        <ele>31.8</ele>
        <time>2023-04-19T12:26:42Z</time>
      </trkpt>
      <trkpt lat="49.83114" lon="2.40432">
        <ele>31.8</ele>
        <time>2023-04-19T12:26:44Z</time>
      </trkpt>
      <trkpt lat="49.83114" lon="2.40432">
        <ele>31.8</ele>
        <time>2023-04-19T12:26:45Z</time>
      </trkpt>
      <trkpt lat="49.83114" lon="2.40432">
        <ele>31.7</ele>
        <time>2023-04-19T12:26:47Z</time>
      </trkpt>
      <trkpt lat="49.83114" lon="2.40433">
        <ele>31.7</ele>
        <time>2023-04-19T12:26:49Z</time>
      </trkpt>
      <trkpt lat="49.83113" lon="2.40433">
        <ele>31.7</ele>
        <time>2023-04-19T12:26:50Z</time>
      </trkpt>
      <trkpt lat="49.83113" lon="2.40433">
        <ele>31.7</ele>
        <time>2023-04-19T12:26:51Z</time>
      </trkpt>
      <trkpt lat="49.83112" lon="2.40433">
        <ele>31.7</ele>
        <time>2023-04-19T12:26:52Z</time>
      </trkpt>
      <trkpt lat="49.83112" lon="2.40434">
        <ele>31.7</ele>
        <time>2023-04-19T12:26:53Z</time>
      </trkpt>
      <trkpt lat="49.83112" lon="2.40433">
        <ele>31.6</ele>
        <time>2023-04-19T12:26:55Z</time>
      </trkpt>
      <trkpt lat="49.83112" lon="2.40433">
        <ele>31.6</ele>
        <time>2023-04-19T12:26:56Z</time>
      </trkpt>
      <trkpt lat="49.83113" lon="2.40432">
        <ele>31.6</ele>
        <time>2023-04-19T12:26:58Z</time>
      </trkpt>
      <trkpt lat="49.83113" lon="2.40432">
        <ele>31.6</ele>
        <time>2023-04-19T12:26:59Z</time>
      </trkpt>
      <trkpt lat="49.83114" lon="2.40431">
        <ele>31.6</ele>
        <time>2023-04-19T12:27:00Z</time>
      </trkpt>
      <trkpt lat="49.83114" lon="2.40431">
        <ele>31.6</ele>
        <time>2023-04-19T12:27:01Z</time>
      </trkpt>
      <trkpt lat="49.83114" lon="2.40431">
        <ele>31.5</ele>
        <time>2023-04-19T12:27:02Z</time>
      </trkpt>
      <trkpt lat="49.83113" lon="2.40432">
        <ele>31.5</ele>
        <time>2023-04-19T12:27:04Z</time>
      </trkpt>
      <trkpt lat="49.83112" lon="2.40432">
        <ele>31.5</ele>
        <time>2023-04-19T12:27:05Z</time>
      </trkpt>
      <trkpt lat="49.83112" lon="2.40433">
        <ele>31.5</ele>
        <time>2023-04-19T12:27:06Z</time>
      </trkpt>
      <trkpt lat="49.83111" lon="2.40434">
        <ele>31.5</ele>
        <time>2023-04-19T12:27:07Z</time>
      </trkpt>
      <trkpt lat="49.8311" lon="2.40435">
        <ele>31.4</ele>
        <time>2023-04-19T12:27:08Z</time>
      </trkpt>
      <trkpt lat="49.83108" lon="2.40436">
        <ele>31.4</ele>
        <time>2023-04-19T12:27:09Z</time>
      </trkpt>
      <trkpt lat="49.83106" lon="2.40439">
        <ele>31.3</ele>
        <time>2023-04-19T12:27:10Z</time>
      </trkpt>
      <trkpt lat="49.83105" lon="2.4044">
        <ele>31.3</ele>
        <time>2023-04-19T12:27:11Z</time>
      </trkpt>
      <trkpt lat="49.83102" lon="2.40442">
        <ele>31.2</ele>
        <time>2023-04-19T12:27:13Z</time>
      </trkpt>
      <trkpt lat="49.83099" lon="2.40447">
        <ele>31.1</ele>
        <time>2023-04-19T12:27:14Z</time>
      </trkpt>
      <trkpt lat="49.83097" lon="2.40449">
        <ele>31.1</ele>
        <time>2023-04-19T12:27:15Z</time>
      </trkpt>
      <trkpt lat="49.83094" lon="2.40452">
        <ele>31</ele>
        <time>2023-04-19T12:27:16Z</time>
      </trkpt>
      <trkpt lat="49.83093" lon="2.40453">
        <ele>31</ele>
        <time>2023-04-19T12:27:17Z</time>
      </trkpt>
      <trkpt lat="49.83091" lon="2.40455">
        <ele>31</ele>
        <time>2023-04-19T12:27:18Z</time>
      </trkpt>
      <trkpt lat="49.83089" lon="2.40456">
        <ele>30.9</ele>
        <time>2023-04-19T12:27:20Z</time>
      </trkpt>
      <trkpt lat="49.83087" lon="2.40459">
        <ele>30.9</ele>
        <time>2023-04-19T12:27:21Z</time>
      </trkpt>
      <trkpt lat="49.83086" lon="2.40459">
        <ele>30.9</ele>
        <time>2023-04-19T12:27:22Z</time>
      </trkpt>
      <trkpt lat="49.83085" lon="2.4046">
        <ele>30.9</ele>
        <time>2023-04-19T12:27:23Z</time>
      </trkpt>
      <trkpt lat="49.83084" lon="2.4046">
        <ele>30.9</ele>
        <time>2023-04-19T12:27:24Z</time>
      </trkpt>
      <trkpt lat="49.83083" lon="2.4046">
        <ele>30.8</ele>
        <time>2023-04-19T12:27:25Z</time>
      </trkpt>
      <trkpt lat="49.8308" lon="2.40463">
        <ele>30.8</ele>
        <time>2023-04-19T12:27:27Z</time>
      </trkpt>
      <trkpt lat="49.83079" lon="2.40463">
        <ele>30.8</ele>
        <time>2023-04-19T12:27:28Z</time>
      </trkpt>
      <trkpt lat="49.83076" lon="2.40465">
        <ele>30.8</ele>
        <time>2023-04-19T12:27:29Z</time>
      </trkpt>
      <trkpt lat="49.83075" lon="2.40466">
        <ele>30.8</ele>
        <time>2023-04-19T12:27:30Z</time>
      </trkpt>
      <trkpt lat="49.83074" lon="2.40467">
        <ele>30.7</ele>
        <time>2023-04-19T12:27:31Z</time>
      </trkpt>
      <trkpt lat="49.83073" lon="2.40468">
        <ele>30.7</ele>
        <time>2023-04-19T12:27:33Z</time>
      </trkpt>
      <trkpt lat="49.83071" lon="2.40469">
        <ele>30.7</ele>
        <time>2023-04-19T12:27:34Z</time>
      </trkpt>
      <trkpt lat="49.8307" lon="2.4047">
        <ele>30.7</ele>
        <time>2023-04-19T12:27:35Z</time>
      </trkpt>
      <trkpt lat="49.83069" lon="2.40471">
        <ele>30.7</ele>
        <time>2023-04-19T12:27:36Z</time>
      </trkpt>
      <trkpt lat="49.83068" lon="2.40472">
        <ele>30.7</ele>
        <time>2023-04-19T12:27:37Z</time>
      </trkpt>
      <trkpt lat="49.83067" lon="2.40473">
        <ele>30.7</ele>
        <time>2023-04-19T12:27:39Z</time>
      </trkpt>
      <trkpt lat="49.83066" lon="2.40475">
        <ele>30.7</ele>
        <time>2023-04-19T12:27:40Z</time>
      </trkpt>
      <trkpt lat="49.83065" lon="2.40476">
        <ele>30.7</ele>
        <time>2023-04-19T12:27:41Z</time>
      </trkpt>
      <trkpt lat="49.83064" lon="2.40477">
        <ele>30.7</ele>
        <time>2023-04-19T12:27:42Z</time>
      </trkpt>
      <trkpt lat="49.83062" lon="2.40478">
        <ele>30.6</ele>
        <time>2023-04-19T12:27:43Z</time>
      </trkpt>
      <trkpt lat="49.83061" lon="2.40479">
        <ele>30.6</ele>
        <time>2023-04-19T12:27:44Z</time>
      </trkpt>
      <trkpt lat="49.8306" lon="2.4048">
        <ele>30.6</ele>
        <time>2023-04-19T12:27:45Z</time>
      </trkpt>
      <trkpt lat="49.83059" lon="2.40482">
        <ele>30.6</ele>
        <time>2023-04-19T12:27:47Z</time>
      </trkpt>
      <trkpt lat="49.83057" lon="2.40483">
        <ele>30.6</ele>
        <time>2023-04-19T12:27:48Z</time>
      </trkpt>
      <trkpt lat="49.83057" lon="2.40484">
        <ele>30.6</ele>
        <time>2023-04-19T12:27:49Z</time>
      </trkpt>
      <trkpt lat="49.83055" lon="2.40484">
        <ele>30.6</ele>
        <time>2023-04-19T12:27:50Z</time>
      </trkpt>
      <trkpt lat="49.83055" lon="2.40485">
        <ele>30.6</ele>
        <time>2023-04-19T12:27:51Z</time>
      </trkpt>
      <trkpt lat="49.83054" lon="2.40486">
        <ele>30.6</ele>
        <time>2023-04-19T12:27:52Z</time>
      </trkpt>
      <trkpt lat="49.83054" lon="2.40486">
        <ele>30.6</ele>
        <time>2023-04-19T12:27:53Z</time>
      </trkpt>
      <trkpt lat="49.83053" lon="2.40487">
        <ele>30.6</ele>
        <time>2023-04-19T12:27:55Z</time>
      </trkpt>
      <trkpt lat="49.83052" lon="2.40487">
        <ele>30.6</ele>
        <time>2023-04-19T12:27:56Z</time>
      </trkpt>
      <trkpt lat="49.83051" lon="2.40488">
        <ele>30.6</ele>
        <time>2023-04-19T12:27:57Z</time>
      </trkpt>
      <trkpt lat="49.83051" lon="2.40488">
        <ele>30.6</ele>
        <time>2023-04-19T12:27:58Z</time>
      </trkpt>
      <trkpt lat="49.8305" lon="2.40489">
        <ele>30.6</ele>
        <time>2023-04-19T12:27:59Z</time>
      </trkpt>
      <trkpt lat="49.8305" lon="2.40489">
        <ele>30.6</ele>
        <time>2023-04-19T12:28:00Z</time>
      </trkpt>
      <trkpt lat="49.83049" lon="2.4049">
        <ele>30.6</ele>
        <time>2023-04-19T12:28:01Z</time>
      </trkpt>
      <trkpt lat="49.83049" lon="2.4049">
        <ele>30.6</ele>
        <time>2023-04-19T12:28:02Z</time>
      </trkpt>
      <trkpt lat="49.83047" lon="2.40492">
        <ele>30.6</ele>
        <time>2023-04-19T12:28:03Z</time>
      </trkpt>
      <trkpt lat="49.83046" lon="2.40493">
        <ele>30.6</ele>
        <time>2023-04-19T12:28:05Z</time>
      </trkpt>
      <trkpt lat="49.83045" lon="2.40494">
        <ele>30.6</ele>
        <time>2023-04-19T12:28:06Z</time>
      </trkpt>
      <trkpt lat="49.83044" lon="2.40495">
        <ele>30.6</ele>
        <time>2023-04-19T12:28:07Z</time>
      </trkpt>
      <trkpt lat="49.83043" lon="2.40495">
        <ele>30.6</ele>
        <time>2023-04-19T12:28:08Z</time>
      </trkpt>
      <trkpt lat="49.83042" lon="2.40497">
        <ele>30.6</ele>
        <time>2023-04-19T12:28:09Z</time>
      </trkpt>
      <trkpt lat="49.83041" lon="2.40497">
        <ele>30.6</ele>
        <time>2023-04-19T12:28:10Z</time>
      </trkpt>
      <trkpt lat="49.8304" lon="2.40497">
        <ele>30.6</ele>
        <time>2023-04-19T12:28:11Z</time>
      </trkpt>
      <trkpt lat="49.83039" lon="2.40498">
        <ele>30.6</ele>
        <time>2023-04-19T12:28:12Z</time>
      </trkpt>
      <trkpt lat="49.83037" lon="2.40499">
        <ele>30.6</ele>
        <time>2023-04-19T12:28:14Z</time>
      </trkpt>
      <trkpt lat="49.83035" lon="2.405">
        <ele>30.6</ele>
        <time>2023-04-19T12:28:15Z</time>
      </trkpt>
      <trkpt lat="49.83034" lon="2.40501">
        <ele>30.6</ele>
        <time>2023-04-19T12:28:16Z</time>
      </trkpt>
      <trkpt lat="49.83032" lon="2.40503">
        <ele>30.6</ele>
        <time>2023-04-19T12:28:17Z</time>
      </trkpt>
      <trkpt lat="49.83031" lon="2.40504">
        <ele>30.6</ele>
        <time>2023-04-19T12:28:18Z</time>
      </trkpt>
      <trkpt lat="49.83029" lon="2.40505">
        <ele>30.6</ele>
        <time>2023-04-19T12:28:19Z</time>
      </trkpt>
      <trkpt lat="49.83028" lon="2.40506">
        <ele>30.6</ele>
        <time>2023-04-19T12:28:20Z</time>
      </trkpt>
      <trkpt lat="49.83027" lon="2.40507">
        <ele>30.6</ele>
        <time>2023-04-19T12:28:22Z</time>
      </trkpt>
      <trkpt lat="49.83026" lon="2.40507">
        <ele>30.6</ele>
        <time>2023-04-19T12:28:23Z</time>
      </trkpt>
      <trkpt lat="49.83025" lon="2.40507">
        <ele>30.6</ele>
        <time>2023-04-19T12:28:24Z</time>
      </trkpt>
      <trkpt lat="49.83024" lon="2.40508">
        <ele>30.6</ele>
        <time>2023-04-19T12:28:25Z</time>
      </trkpt>
      <trkpt lat="49.83023" lon="2.40509">
        <ele>30.6</ele>
        <time>2023-04-19T12:28:26Z</time>
      </trkpt>
      <trkpt lat="49.83022" lon="2.40509">
        <ele>30.6</ele>
        <time>2023-04-19T12:28:27Z</time>
      </trkpt>
      <trkpt lat="49.83021" lon="2.40509">
        <ele>30.6</ele>
        <time>2023-04-19T12:28:28Z</time>
      </trkpt>
      <trkpt lat="49.83019" lon="2.4051">
        <ele>30.6</ele>
        <time>2023-04-19T12:28:29Z</time>
      </trkpt>
      <trkpt lat="49.83019" lon="2.40511">
        <ele>30.6</ele>
        <time>2023-04-19T12:28:30Z</time>
      </trkpt>
      <trkpt lat="49.83018" lon="2.40511">
        <ele>30.6</ele>
        <time>2023-04-19T12:28:32Z</time>
      </trkpt>
      <trkpt lat="49.83017" lon="2.40512">
        <ele>30.6</ele>
        <time>2023-04-19T12:28:33Z</time>
      </trkpt>
      <trkpt lat="49.83016" lon="2.40512">
        <ele>30.6</ele>
        <time>2023-04-19T12:28:34Z</time>
      </trkpt>
      <trkpt lat="49.83015" lon="2.40513">
        <ele>30.6</ele>
        <time>2023-04-19T12:28:35Z</time>
      </trkpt>
      <trkpt lat="49.83014" lon="2.40514">
        <ele>30.6</ele>
        <time>2023-04-19T12:28:36Z</time>
      </trkpt>
      <trkpt lat="49.83012" lon="2.40516">
        <ele>30.6</ele>
        <time>2023-04-19T12:28:38Z</time>
      </trkpt>
      <trkpt lat="49.8301" lon="2.40518">
        <ele>30.6</ele>
        <time>2023-04-19T12:28:39Z</time>
      </trkpt>
      <trkpt lat="49.83009" lon="2.40519">
        <ele>30.6</ele>
        <time>2023-04-19T12:28:41Z</time>
      </trkpt>
      <trkpt lat="49.83008" lon="2.4052">
        <ele>30.6</ele>
        <time>2023-04-19T12:28:43Z</time>
      </trkpt>
      <trkpt lat="49.83006" lon="2.40521">
        <ele>30.6</ele>
        <time>2023-04-19T12:28:44Z</time>
      </trkpt>
      <trkpt lat="49.83005" lon="2.40522">
        <ele>30.6</ele>
        <time>2023-04-19T12:28:45Z</time>
      </trkpt>
      <trkpt lat="49.83004" lon="2.40523">
        <ele>30.6</ele>
        <time>2023-04-19T12:28:46Z</time>
      </trkpt>
      <trkpt lat="49.83003" lon="2.40524">
        <ele>30.7</ele>
        <time>2023-04-19T12:28:47Z</time>
      </trkpt>
      <trkpt lat="49.83002" lon="2.40525">
        <ele>30.7</ele>
        <time>2023-04-19T12:28:48Z</time>
      </trkpt>
      <trkpt lat="49.83002" lon="2.40526">
        <ele>30.7</ele>
        <time>2023-04-19T12:28:49Z</time>
      </trkpt>
      <trkpt lat="49.83001" lon="2.40527">
        <ele>30.7</ele>
        <time>2023-04-19T12:28:51Z</time>
      </trkpt>
      <trkpt lat="49.83" lon="2.40528">
        <ele>30.7</ele>
        <time>2023-04-19T12:28:52Z</time>
      </trkpt>
      <trkpt lat="49.82999" lon="2.40528">
        <ele>30.7</ele>
        <time>2023-04-19T12:28:53Z</time>
      </trkpt>
      <trkpt lat="49.82999" lon="2.40529">
        <ele>30.7</ele>
        <time>2023-04-19T12:28:54Z</time>
      </trkpt>
      <trkpt lat="49.82998" lon="2.4053">
        <ele>30.7</ele>
        <time>2023-04-19T12:28:55Z</time>
      </trkpt>
      <trkpt lat="49.82996" lon="2.40532">
        <ele>30.7</ele>
        <time>2023-04-19T12:28:57Z</time>
      </trkpt>
      <trkpt lat="49.82996" lon="2.40533">
        <ele>30.7</ele>
        <time>2023-04-19T12:28:58Z</time>
      </trkpt>
      <trkpt lat="49.82994" lon="2.40535">
        <ele>30.7</ele>
        <time>2023-04-19T12:28:59Z</time>
      </trkpt>
      <trkpt lat="49.82993" lon="2.40536">
        <ele>30.7</ele>
        <time>2023-04-19T12:29:00Z</time>
      </trkpt>
      <trkpt lat="49.82992" lon="2.40537">
        <ele>30.7</ele>
        <time>2023-04-19T12:29:01Z</time>
      </trkpt>
      <trkpt lat="49.82991" lon="2.40537">
        <ele>30.7</ele>
        <time>2023-04-19T12:29:02Z</time>
      </trkpt>
      <trkpt lat="49.82989" lon="2.40538">
        <ele>30.7</ele>
        <time>2023-04-19T12:29:03Z</time>
      </trkpt>
      <trkpt lat="49.82988" lon="2.40539">
        <ele>30.7</ele>
        <time>2023-04-19T12:29:05Z</time>
      </trkpt>
      <trkpt lat="49.82987" lon="2.4054">
        <ele>30.7</ele>
        <time>2023-04-19T12:29:06Z</time>
      </trkpt>
      <trkpt lat="49.82986" lon="2.40541">
        <ele>30.7</ele>
        <time>2023-04-19T12:29:07Z</time>
      </trkpt>
      <trkpt lat="49.82985" lon="2.40542">
        <ele>30.7</ele>
        <time>2023-04-19T12:29:08Z</time>
      </trkpt>
      <trkpt lat="49.82983" lon="2.40543">
        <ele>30.7</ele>
        <time>2023-04-19T12:29:09Z</time>
      </trkpt>
      <trkpt lat="49.82982" lon="2.40544">
        <ele>30.7</ele>
        <time>2023-04-19T12:29:11Z</time>
      </trkpt>
      <trkpt lat="49.8298" lon="2.40546">
        <ele>30.8</ele>
        <time>2023-04-19T12:29:12Z</time>
      </trkpt>
      <trkpt lat="49.82979" lon="2.40547">
        <ele>30.8</ele>
        <time>2023-04-19T12:29:13Z</time>
      </trkpt>
      <trkpt lat="49.82978" lon="2.40547">
        <ele>30.8</ele>
        <time>2023-04-19T12:29:14Z</time>
      </trkpt>
      <trkpt lat="49.82976" lon="2.40548">
        <ele>30.8</ele>
        <time>2023-04-19T12:29:15Z</time>
      </trkpt>
      <trkpt lat="49.82975" lon="2.4055">
        <ele>30.8</ele>
        <time>2023-04-19T12:29:16Z</time>
      </trkpt>
      <trkpt lat="49.82973" lon="2.4055">
        <ele>30.8</ele>
        <time>2023-04-19T12:29:17Z</time>
      </trkpt>
      <trkpt lat="49.82972" lon="2.40551">
        <ele>30.8</ele>
        <time>2023-04-19T12:29:18Z</time>
      </trkpt>
      <trkpt lat="49.82971" lon="2.40551">
        <ele>30.8</ele>
        <time>2023-04-19T12:29:20Z</time>
      </trkpt>
      <trkpt lat="49.8297" lon="2.40552">
        <ele>30.8</ele>
        <time>2023-04-19T12:29:21Z</time>
      </trkpt>
      <trkpt lat="49.82969" lon="2.40552">
        <ele>30.8</ele>
        <time>2023-04-19T12:29:22Z</time>
      </trkpt>
      <trkpt lat="49.82969" lon="2.40551">
        <ele>30.8</ele>
        <time>2023-04-19T12:29:23Z</time>
      </trkpt>
      <trkpt lat="49.82968" lon="2.40551">
        <ele>30.8</ele>
        <time>2023-04-19T12:29:24Z</time>
      </trkpt>
      <trkpt lat="49.82967" lon="2.40552">
        <ele>30.8</ele>
        <time>2023-04-19T12:29:25Z</time>
      </trkpt>
      <trkpt lat="49.82966" lon="2.40553">
        <ele>30.8</ele>
        <time>2023-04-19T12:29:26Z</time>
      </trkpt>
      <trkpt lat="49.82965" lon="2.40554">
        <ele>30.8</ele>
        <time>2023-04-19T12:29:27Z</time>
      </trkpt>
      <trkpt lat="49.82963" lon="2.40555">
        <ele>30.8</ele>
        <time>2023-04-19T12:29:28Z</time>
      </trkpt>
      <trkpt lat="49.82962" lon="2.40556">
        <ele>30.8</ele>
        <time>2023-04-19T12:29:30Z</time>
      </trkpt>
      <trkpt lat="49.8296" lon="2.40557">
        <ele>30.9</ele>
        <time>2023-04-19T12:29:31Z</time>
      </trkpt>
      <trkpt lat="49.82959" lon="2.40557">
        <ele>30.9</ele>
        <time>2023-04-19T12:29:32Z</time>
      </trkpt>
      <trkpt lat="49.82959" lon="2.40558">
        <ele>30.9</ele>
        <time>2023-04-19T12:29:33Z</time>
      </trkpt>
      <trkpt lat="49.82958" lon="2.40558">
        <ele>30.9</ele>
        <time>2023-04-19T12:29:34Z</time>
      </trkpt>
      <trkpt lat="49.82956" lon="2.4056">
        <ele>30.9</ele>
        <time>2023-04-19T12:29:35Z</time>
      </trkpt>
      <trkpt lat="49.82956" lon="2.4056">
        <ele>30.9</ele>
        <time>2023-04-19T12:29:37Z</time>
      </trkpt>
      <trkpt lat="49.82955" lon="2.40561">
        <ele>30.9</ele>
        <time>2023-04-19T12:29:39Z</time>
      </trkpt>
      <trkpt lat="49.82954" lon="2.40562">
        <ele>30.9</ele>
        <time>2023-04-19T12:29:40Z</time>
      </trkpt>
      <trkpt lat="49.82953" lon="2.40563">
        <ele>30.9</ele>
        <time>2023-04-19T12:29:41Z</time>
      </trkpt>
      <trkpt lat="49.82952" lon="2.40564">
        <ele>30.9</ele>
        <time>2023-04-19T12:29:42Z</time>
      </trkpt>
      <trkpt lat="49.8295" lon="2.40565">
        <ele>30.9</ele>
        <time>2023-04-19T12:29:43Z</time>
      </trkpt>
      <trkpt lat="49.82949" lon="2.40566">
        <ele>31</ele>
        <time>2023-04-19T12:29:45Z</time>
      </trkpt>
      <trkpt lat="49.82947" lon="2.40568">
        <ele>31</ele>
        <time>2023-04-19T12:29:46Z</time>
      </trkpt>
      <trkpt lat="49.82946" lon="2.40568">
        <ele>31</ele>
        <time>2023-04-19T12:29:47Z</time>
      </trkpt>
      <trkpt lat="49.82945" lon="2.40569">
        <ele>31</ele>
        <time>2023-04-19T12:29:48Z</time>
      </trkpt>
      <trkpt lat="49.82944" lon="2.4057">
        <ele>31</ele>
        <time>2023-04-19T12:29:49Z</time>
      </trkpt>
      <trkpt lat="49.82943" lon="2.4057">
        <ele>31</ele>
        <time>2023-04-19T12:29:50Z</time>
      </trkpt>
      <trkpt lat="49.82942" lon="2.40571">
        <ele>31</ele>
        <time>2023-04-19T12:29:51Z</time>
      </trkpt>
      <trkpt lat="49.82941" lon="2.40572">
        <ele>31</ele>
        <time>2023-04-19T12:29:53Z</time>
      </trkpt>
      <trkpt lat="49.82941" lon="2.40572">
        <ele>31.1</ele>
        <time>2023-04-19T12:29:54Z</time>
      </trkpt>
      <trkpt lat="49.82939" lon="2.40574">
        <ele>31.1</ele>
        <time>2023-04-19T12:29:55Z</time>
      </trkpt>
      <trkpt lat="49.82939" lon="2.40575">
        <ele>31.1</ele>
        <time>2023-04-19T12:29:56Z</time>
      </trkpt>
      <trkpt lat="49.82938" lon="2.40575">
        <ele>31.1</ele>
        <time>2023-04-19T12:29:57Z</time>
      </trkpt>
      <trkpt lat="49.82937" lon="2.40577">
        <ele>31.1</ele>
        <time>2023-04-19T12:29:59Z</time>
      </trkpt>
      <trkpt lat="49.82935" lon="2.40578">
        <ele>31.1</ele>
        <time>2023-04-19T12:30:00Z</time>
      </trkpt>
      <trkpt lat="49.82935" lon="2.40578">
        <ele>31.1</ele>
        <time>2023-04-19T12:30:01Z</time>
      </trkpt>
      <trkpt lat="49.82934" lon="2.40578">
        <ele>31.2</ele>
        <time>2023-04-19T12:30:02Z</time>
      </trkpt>
      <trkpt lat="49.82932" lon="2.40578">
        <ele>31.2</ele>
        <time>2023-04-19T12:30:03Z</time>
      </trkpt>
      <trkpt lat="49.8293" lon="2.40579">
        <ele>31.2</ele>
        <time>2023-04-19T12:30:04Z</time>
      </trkpt>
      <trkpt lat="49.82929" lon="2.4058">
        <ele>31.2</ele>
        <time>2023-04-19T12:30:05Z</time>
      </trkpt>
      <trkpt lat="49.82928" lon="2.40581">
        <ele>31.2</ele>
        <time>2023-04-19T12:30:06Z</time>
      </trkpt>
      <trkpt lat="49.82926" lon="2.40582">
        <ele>31.3</ele>
        <time>2023-04-19T12:30:07Z</time>
      </trkpt>
      <trkpt lat="49.82924" lon="2.40582">
        <ele>31.3</ele>
        <time>2023-04-19T12:30:08Z</time>
      </trkpt>
      <trkpt lat="49.82923" lon="2.40583">
        <ele>31.3</ele>
        <time>2023-04-19T12:30:10Z</time>
      </trkpt>
      <trkpt lat="49.82922" lon="2.40584">
        <ele>31.3</ele>
        <time>2023-04-19T12:30:11Z</time>
      </trkpt>
      <trkpt lat="49.8292" lon="2.40585">
        <ele>31.3</ele>
        <time>2023-04-19T12:30:12Z</time>
      </trkpt>
      <trkpt lat="49.82919" lon="2.40586">
        <ele>31.3</ele>
        <time>2023-04-19T12:30:13Z</time>
      </trkpt>
      <trkpt lat="49.82918" lon="2.40587">
        <ele>31.3</ele>
        <time>2023-04-19T12:30:14Z</time>
      </trkpt>
      <trkpt lat="49.82917" lon="2.40588">
        <ele>31.3</ele>
        <time>2023-04-19T12:30:15Z</time>
      </trkpt>
      <trkpt lat="49.82915" lon="2.40588">
        <ele>31.4</ele>
        <time>2023-04-19T12:30:16Z</time>
      </trkpt>
      <trkpt lat="49.82914" lon="2.40589">
        <ele>31.4</ele>
        <time>2023-04-19T12:30:17Z</time>
      </trkpt>
      <trkpt lat="49.82913" lon="2.40589">
        <ele>31.4</ele>
        <time>2023-04-19T12:30:19Z</time>
      </trkpt>
      <trkpt lat="49.82912" lon="2.40589">
        <ele>31.4</ele>
        <time>2023-04-19T12:30:20Z</time>
      </trkpt>
      <trkpt lat="49.8291" lon="2.40589">
        <ele>31.4</ele>
        <time>2023-04-19T12:30:21Z</time>
      </trkpt>
      <trkpt lat="49.82909" lon="2.4059">
        <ele>31.4</ele>
        <time>2023-04-19T12:30:22Z</time>
      </trkpt>
      <trkpt lat="49.82908" lon="2.4059">
        <ele>31.4</ele>
        <time>2023-04-19T12:30:23Z</time>
      </trkpt>
      <trkpt lat="49.82907" lon="2.4059">
        <ele>31.4</ele>
        <time>2023-04-19T12:30:24Z</time>
      </trkpt>
      <trkpt lat="49.82906" lon="2.4059">
        <ele>31.4</ele>
        <time>2023-04-19T12:30:25Z</time>
      </trkpt>
      <trkpt lat="49.82905" lon="2.4059">
        <ele>31.4</ele>
        <time>2023-04-19T12:30:26Z</time>
      </trkpt>
      <trkpt lat="49.82903" lon="2.4059">
        <ele>31.4</ele>
        <time>2023-04-19T12:30:28Z</time>
      </trkpt>
      <trkpt lat="49.82902" lon="2.4059">
        <ele>31.4</ele>
        <time>2023-04-19T12:30:29Z</time>
      </trkpt>
      <trkpt lat="49.82901" lon="2.4059">
        <ele>31.4</ele>
        <time>2023-04-19T12:30:30Z</time>
      </trkpt>
      <trkpt lat="49.829" lon="2.4059">
        <ele>31.4</ele>
        <time>2023-04-19T12:30:31Z</time>
      </trkpt>
      <trkpt lat="49.82898" lon="2.4059">
        <ele>31.4</ele>
        <time>2023-04-19T12:30:32Z</time>
      </trkpt>
      <trkpt lat="49.82895" lon="2.4059">
        <ele>31.4</ele>
        <time>2023-04-19T12:30:33Z</time>
      </trkpt>
      <trkpt lat="49.82894" lon="2.4059">
        <ele>31.4</ele>
        <time>2023-04-19T12:30:34Z</time>
      </trkpt>
      <trkpt lat="49.82892" lon="2.4059">
        <ele>31.4</ele>
        <time>2023-04-19T12:30:36Z</time>
      </trkpt>
      <trkpt lat="49.82891" lon="2.4059">
        <ele>31.4</ele>
        <time>2023-04-19T12:30:37Z</time>
      </trkpt>
      <trkpt lat="49.82889" lon="2.4059">
        <ele>31.4</ele>
        <time>2023-04-19T12:30:38Z</time>
      </trkpt>
      <trkpt lat="49.82888" lon="2.4059">
        <ele>31.4</ele>
        <time>2023-04-19T12:30:39Z</time>
      </trkpt>
      <trkpt lat="49.82888" lon="2.40589">
        <ele>31.4</ele>
        <time>2023-04-19T12:30:40Z</time>
      </trkpt>
      <trkpt lat="49.82887" lon="2.40589">
        <ele>31.4</ele>
        <time>2023-04-19T12:30:41Z</time>
      </trkpt>
      <trkpt lat="49.82885" lon="2.40589">
        <ele>31.4</ele>
        <time>2023-04-19T12:30:42Z</time>
      </trkpt>
      <trkpt lat="49.82884" lon="2.40589">
        <ele>31.5</ele>
        <time>2023-04-19T12:30:44Z</time>
      </trkpt>
      <trkpt lat="49.82883" lon="2.40589">
        <ele>31.5</ele>
        <time>2023-04-19T12:30:45Z</time>
      </trkpt>
      <trkpt lat="49.82882" lon="2.40589">
        <ele>31.5</ele>
        <time>2023-04-19T12:30:46Z</time>
      </trkpt>
      <trkpt lat="49.82882" lon="2.40589">
        <ele>31.5</ele>
        <time>2023-04-19T12:30:47Z</time>
      </trkpt>
      <trkpt lat="49.82881" lon="2.4059">
        <ele>31.5</ele>
        <time>2023-04-19T12:30:48Z</time>
      </trkpt>
      <trkpt lat="49.8288" lon="2.4059">
        <ele>31.5</ele>
        <time>2023-04-19T12:30:49Z</time>
      </trkpt>
      <trkpt lat="49.82879" lon="2.4059">
        <ele>31.5</ele>
        <time>2023-04-19T12:30:51Z</time>
      </trkpt>
      <trkpt lat="49.82879" lon="2.40591">
        <ele>31.5</ele>
        <time>2023-04-19T12:30:52Z</time>
      </trkpt>
      <trkpt lat="49.82878" lon="2.40591">
        <ele>31.5</ele>
        <time>2023-04-19T12:30:53Z</time>
      </trkpt>
      <trkpt lat="49.82877" lon="2.40593">
        <ele>31.5</ele>
        <time>2023-04-19T12:30:54Z</time>
      </trkpt>
      <trkpt lat="49.82876" lon="2.40593">
        <ele>31.5</ele>
        <time>2023-04-19T12:30:55Z</time>
      </trkpt>
      <trkpt lat="49.82876" lon="2.40594">
        <ele>31.5</ele>
        <time>2023-04-19T12:30:56Z</time>
      </trkpt>
      <trkpt lat="49.82875" lon="2.40595">
        <ele>31.5</ele>
        <time>2023-04-19T12:30:57Z</time>
      </trkpt>
      <trkpt lat="49.82875" lon="2.40596">
        <ele>31.5</ele>
        <time>2023-04-19T12:30:59Z</time>
      </trkpt>
      <trkpt lat="49.82875" lon="2.40597">
        <ele>31.5</ele>
        <time>2023-04-19T12:31:00Z</time>
      </trkpt>
      <trkpt lat="49.82874" lon="2.40599">
        <ele>31.5</ele>
        <time>2023-04-19T12:31:01Z</time>
      </trkpt>
      <trkpt lat="49.82874" lon="2.40601">
        <ele>31.5</ele>
        <time>2023-04-19T12:31:02Z</time>
      </trkpt>
      <trkpt lat="49.82873" lon="2.40603">
        <ele>31.6</ele>
        <time>2023-04-19T12:31:03Z</time>
      </trkpt>
      <trkpt lat="49.82873" lon="2.40606">
        <ele>31.6</ele>
        <time>2023-04-19T12:31:04Z</time>
      </trkpt>
      <trkpt lat="49.82873" lon="2.40608">
        <ele>31.6</ele>
        <time>2023-04-19T12:31:05Z</time>
      </trkpt>
      <trkpt lat="49.82873" lon="2.40609">
        <ele>31.6</ele>
        <time>2023-04-19T12:31:07Z</time>
      </trkpt>
      <trkpt lat="49.82872" lon="2.40611">
        <ele>31.6</ele>
        <time>2023-04-19T12:31:08Z</time>
      </trkpt>
      <trkpt lat="49.82872" lon="2.40612">
        <ele>31.6</ele>
        <time>2023-04-19T12:31:09Z</time>
      </trkpt>
      <trkpt lat="49.82872" lon="2.40616">
        <ele>31.6</ele>
        <time>2023-04-19T12:31:10Z</time>
      </trkpt>
      <trkpt lat="49.82872" lon="2.40617">
        <ele>31.6</ele>
        <time>2023-04-19T12:31:11Z</time>
      </trkpt>
      <trkpt lat="49.82873" lon="2.40618">
        <ele>31.6</ele>
        <time>2023-04-19T12:31:12Z</time>
      </trkpt>
      <trkpt lat="49.82873" lon="2.40622">
        <ele>31.7</ele>
        <time>2023-04-19T12:31:13Z</time>
      </trkpt>
      <trkpt lat="49.82873" lon="2.40624">
        <ele>31.7</ele>
        <time>2023-04-19T12:31:15Z</time>
      </trkpt>
      <trkpt lat="49.82873" lon="2.40625">
        <ele>31.7</ele>
        <time>2023-04-19T12:31:16Z</time>
      </trkpt>
      <trkpt lat="49.82873" lon="2.40627">
        <ele>31.7</ele>
        <time>2023-04-19T12:31:17Z</time>
      </trkpt>
      <trkpt lat="49.82873" lon="2.40628">
        <ele>31.7</ele>
        <time>2023-04-19T12:31:18Z</time>
      </trkpt>
      <trkpt lat="49.82873" lon="2.4063">
        <ele>31.7</ele>
        <time>2023-04-19T12:31:19Z</time>
      </trkpt>
      <trkpt lat="49.82873" lon="2.40632">
        <ele>31.7</ele>
        <time>2023-04-19T12:31:20Z</time>
      </trkpt>
      <trkpt lat="49.82873" lon="2.40634">
        <ele>31.7</ele>
        <time>2023-04-19T12:31:21Z</time>
      </trkpt>
      <trkpt lat="49.82873" lon="2.40636">
        <ele>31.7</ele>
        <time>2023-04-19T12:31:22Z</time>
      </trkpt>
      <trkpt lat="49.82872" lon="2.40638">
        <ele>31.7</ele>
        <time>2023-04-19T12:31:23Z</time>
      </trkpt>
      <trkpt lat="49.82872" lon="2.40641">
        <ele>31.7</ele>
        <time>2023-04-19T12:31:25Z</time>
      </trkpt>
      <trkpt lat="49.82871" lon="2.40643">
        <ele>31.7</ele>
        <time>2023-04-19T12:31:26Z</time>
      </trkpt>
      <trkpt lat="49.8287" lon="2.40645">
        <ele>31.7</ele>
        <time>2023-04-19T12:31:27Z</time>
      </trkpt>
      <trkpt lat="49.82869" lon="2.40647">
        <ele>31.7</ele>
        <time>2023-04-19T12:31:28Z</time>
      </trkpt>
      <trkpt lat="49.82867" lon="2.40651">
        <ele>31.7</ele>
        <time>2023-04-19T12:31:29Z</time>
      </trkpt>
      <trkpt lat="49.82867" lon="2.40653">
        <ele>31.7</ele>
        <time>2023-04-19T12:31:30Z</time>
      </trkpt>
      <trkpt lat="49.82865" lon="2.40657">
        <ele>31.7</ele>
        <time>2023-04-19T12:31:31Z</time>
      </trkpt>
      <trkpt lat="49.82864" lon="2.40659">
        <ele>31.7</ele>
        <time>2023-04-19T12:31:32Z</time>
      </trkpt>
      <trkpt lat="49.82863" lon="2.40663">
        <ele>31.7</ele>
        <time>2023-04-19T12:31:33Z</time>
      </trkpt>
      <trkpt lat="49.82862" lon="2.40665">
        <ele>31.7</ele>
        <time>2023-04-19T12:31:34Z</time>
      </trkpt>
      <trkpt lat="49.8286" lon="2.40668">
        <ele>31.7</ele>
        <time>2023-04-19T12:31:36Z</time>
      </trkpt>
      <trkpt lat="49.8286" lon="2.40669">
        <ele>31.7</ele>
        <time>2023-04-19T12:31:37Z</time>
      </trkpt>
      <trkpt lat="49.82857" lon="2.40672">
        <ele>31.7</ele>
        <time>2023-04-19T12:31:38Z</time>
      </trkpt>
      <trkpt lat="49.82857" lon="2.40673">
        <ele>31.7</ele>
        <time>2023-04-19T12:31:39Z</time>
      </trkpt>
      <trkpt lat="49.82854" lon="2.40675">
        <ele>31.7</ele>
        <time>2023-04-19T12:31:40Z</time>
      </trkpt>
      <trkpt lat="49.82853" lon="2.40676">
        <ele>31.7</ele>
        <time>2023-04-19T12:31:41Z</time>
      </trkpt>
      <trkpt lat="49.82851" lon="2.40677">
        <ele>31.7</ele>
        <time>2023-04-19T12:31:42Z</time>
      </trkpt>
      <trkpt lat="49.82849" lon="2.40677">
        <ele>31.7</ele>
        <time>2023-04-19T12:31:44Z</time>
      </trkpt>
      <trkpt lat="49.82847" lon="2.40677">
        <ele>31.7</ele>
        <time>2023-04-19T12:31:45Z</time>
      </trkpt>
      <trkpt lat="49.82847" lon="2.40677">
        <ele>31.7</ele>
        <time>2023-04-19T12:31:46Z</time>
      </trkpt>
      <trkpt lat="49.82846" lon="2.40677">
        <ele>31.7</ele>
        <time>2023-04-19T12:31:47Z</time>
      </trkpt>
      <trkpt lat="49.82845" lon="2.40676">
        <ele>31.8</ele>
        <time>2023-04-19T12:31:48Z</time>
      </trkpt>
      <trkpt lat="49.82844" lon="2.40676">
        <ele>31.8</ele>
        <time>2023-04-19T12:31:49Z</time>
      </trkpt>
      <trkpt lat="49.82843" lon="2.40676">
        <ele>31.8</ele>
        <time>2023-04-19T12:31:50Z</time>
      </trkpt>
      <trkpt lat="49.82841" lon="2.40675">
        <ele>31.8</ele>
        <time>2023-04-19T12:31:52Z</time>
      </trkpt>
      <trkpt lat="49.82841" lon="2.40673">
        <ele>31.8</ele>
        <time>2023-04-19T12:31:53Z</time>
      </trkpt>
      <trkpt lat="49.8284" lon="2.40672">
        <ele>31.8</ele>
        <time>2023-04-19T12:31:54Z</time>
      </trkpt>
      <trkpt lat="49.82839" lon="2.40671">
        <ele>31.8</ele>
        <time>2023-04-19T12:31:55Z</time>
      </trkpt>
      <trkpt lat="49.82838" lon="2.4067">
        <ele>31.8</ele>
        <time>2023-04-19T12:31:56Z</time>
      </trkpt>
      <trkpt lat="49.82836" lon="2.40669">
        <ele>31.8</ele>
        <time>2023-04-19T12:31:57Z</time>
      </trkpt>
      <trkpt lat="49.82836" lon="2.40669">
        <ele>31.8</ele>
        <time>2023-04-19T12:31:58Z</time>
      </trkpt>
      <trkpt lat="49.82834" lon="2.40669">
        <ele>31.8</ele>
        <time>2023-04-19T12:32:00Z</time>
      </trkpt>
      <trkpt lat="49.82834" lon="2.40669">
        <ele>31.8</ele>
        <time>2023-04-19T12:32:01Z</time>
      </trkpt>
      <trkpt lat="49.82833" lon="2.40669">
        <ele>31.8</ele>
        <time>2023-04-19T12:32:02Z</time>
      </trkpt>
      <trkpt lat="49.82832" lon="2.4067">
        <ele>31.8</ele>
        <time>2023-04-19T12:32:03Z</time>
      </trkpt>
      <trkpt lat="49.82831" lon="2.4067">
        <ele>31.8</ele>
        <time>2023-04-19T12:32:04Z</time>
      </trkpt>
      <trkpt lat="49.8283" lon="2.4067">
        <ele>31.8</ele>
        <time>2023-04-19T12:32:05Z</time>
      </trkpt>
      <trkpt lat="49.82829" lon="2.40671">
        <ele>31.8</ele>
        <time>2023-04-19T12:32:06Z</time>
      </trkpt>
      <trkpt lat="49.82828" lon="2.40672">
        <ele>31.8</ele>
        <time>2023-04-19T12:32:07Z</time>
      </trkpt>
      <trkpt lat="49.82827" lon="2.40672">
        <ele>31.8</ele>
        <time>2023-04-19T12:32:08Z</time>
      </trkpt>
      <trkpt lat="49.82826" lon="2.40673">
        <ele>31.8</ele>
        <time>2023-04-19T12:32:09Z</time>
      </trkpt>
      <trkpt lat="49.82824" lon="2.40673">
        <ele>31.8</ele>
        <time>2023-04-19T12:32:11Z</time>
      </trkpt>
      <trkpt lat="49.82823" lon="2.40673">
        <ele>31.8</ele>
        <time>2023-04-19T12:32:12Z</time>
      </trkpt>
      <trkpt lat="49.82823" lon="2.40674">
        <ele>31.8</ele>
        <time>2023-04-19T12:32:13Z</time>
      </trkpt>
      <trkpt lat="49.82822" lon="2.40674">
        <ele>31.8</ele>
        <time>2023-04-19T12:32:14Z</time>
      </trkpt>
      <trkpt lat="49.8282" lon="2.40674">
        <ele>31.8</ele>
        <time>2023-04-19T12:32:16Z</time>
      </trkpt>
      <trkpt lat="49.8282" lon="2.40674">
        <ele>31.8</ele>
        <time>2023-04-19T12:32:17Z</time>
      </trkpt>
      <trkpt lat="49.82819" lon="2.40675">
        <ele>31.8</ele>
        <time>2023-04-19T12:32:18Z</time>
      </trkpt>
      <trkpt lat="49.82817" lon="2.40675">
        <ele>31.8</ele>
        <time>2023-04-19T12:32:19Z</time>
      </trkpt>
      <trkpt lat="49.82816" lon="2.40676">
        <ele>31.8</ele>
        <time>2023-04-19T12:32:20Z</time>
      </trkpt>
      <trkpt lat="49.82815" lon="2.40677">
        <ele>31.8</ele>
        <time>2023-04-19T12:32:21Z</time>
      </trkpt>
      <trkpt lat="49.82813" lon="2.40677">
        <ele>31.8</ele>
        <time>2023-04-19T12:32:22Z</time>
      </trkpt>
      <trkpt lat="49.82813" lon="2.40677">
        <ele>31.8</ele>
        <time>2023-04-19T12:32:23Z</time>
      </trkpt>
      <trkpt lat="49.82812" lon="2.40677">
        <ele>31.8</ele>
        <time>2023-04-19T12:32:24Z</time>
      </trkpt>
      <trkpt lat="49.8281" lon="2.40679">
        <ele>31.8</ele>
        <time>2023-04-19T12:32:25Z</time>
      </trkpt>
      <trkpt lat="49.82809" lon="2.40679">
        <ele>31.8</ele>
        <time>2023-04-19T12:32:27Z</time>
      </trkpt>
      <trkpt lat="49.82808" lon="2.4068">
        <ele>31.8</ele>
        <time>2023-04-19T12:32:28Z</time>
      </trkpt>
      <trkpt lat="49.82807" lon="2.40681">
        <ele>31.8</ele>
        <time>2023-04-19T12:32:29Z</time>
      </trkpt>
      <trkpt lat="49.82805" lon="2.40682">
        <ele>31.8</ele>
        <time>2023-04-19T12:32:30Z</time>
      </trkpt>
      <trkpt lat="49.82803" lon="2.40682">
        <ele>31.9</ele>
        <time>2023-04-19T12:32:31Z</time>
      </trkpt>
      <trkpt lat="49.82802" lon="2.40682">
        <ele>31.9</ele>
        <time>2023-04-19T12:32:32Z</time>
      </trkpt>
      <trkpt lat="49.82801" lon="2.40682">
        <ele>31.9</ele>
        <time>2023-04-19T12:32:33Z</time>
      </trkpt>
      <trkpt lat="49.828" lon="2.40682">
        <ele>31.9</ele>
        <time>2023-04-19T12:32:34Z</time>
      </trkpt>
      <trkpt lat="49.82798" lon="2.40682">
        <ele>31.9</ele>
        <time>2023-04-19T12:32:35Z</time>
      </trkpt>
      <trkpt lat="49.82797" lon="2.40683">
        <ele>31.9</ele>
        <time>2023-04-19T12:32:37Z</time>
      </trkpt>
      <trkpt lat="49.82796" lon="2.40683">
        <ele>31.9</ele>
        <time>2023-04-19T12:32:38Z</time>
      </trkpt>
      <trkpt lat="49.82794" lon="2.40684">
        <ele>31.9</ele>
        <time>2023-04-19T12:32:39Z</time>
      </trkpt>
      <trkpt lat="49.82793" lon="2.40684">
        <ele>31.9</ele>
        <time>2023-04-19T12:32:40Z</time>
      </trkpt>
      <trkpt lat="49.82792" lon="2.40685">
        <ele>31.9</ele>
        <time>2023-04-19T12:32:41Z</time>
      </trkpt>
      <trkpt lat="49.8279" lon="2.40686">
        <ele>31.9</ele>
        <time>2023-04-19T12:32:42Z</time>
      </trkpt>
      <trkpt lat="49.82789" lon="2.40687">
        <ele>31.9</ele>
        <time>2023-04-19T12:32:44Z</time>
      </trkpt>
      <trkpt lat="49.82788" lon="2.40688">
        <ele>31.9</ele>
        <time>2023-04-19T12:32:45Z</time>
      </trkpt>
      <trkpt lat="49.82787" lon="2.40688">
        <ele>31.9</ele>
        <time>2023-04-19T12:32:46Z</time>
      </trkpt>
      <trkpt lat="49.82785" lon="2.40689">
        <ele>31.9</ele>
        <time>2023-04-19T12:32:47Z</time>
      </trkpt>
      <trkpt lat="49.82784" lon="2.4069">
        <ele>31.9</ele>
        <time>2023-04-19T12:32:48Z</time>
      </trkpt>
      <trkpt lat="49.82783" lon="2.4069">
        <ele>31.9</ele>
        <time>2023-04-19T12:32:49Z</time>
      </trkpt>
      <trkpt lat="49.82782" lon="2.40691">
        <ele>31.9</ele>
        <time>2023-04-19T12:32:51Z</time>
      </trkpt>
      <trkpt lat="49.82782" lon="2.40692">
        <ele>31.9</ele>
        <time>2023-04-19T12:32:52Z</time>
      </trkpt>
      <trkpt lat="49.8278" lon="2.40692">
        <ele>31.9</ele>
        <time>2023-04-19T12:32:53Z</time>
      </trkpt>
      <trkpt lat="49.82779" lon="2.40693">
        <ele>32</ele>
        <time>2023-04-19T12:32:54Z</time>
      </trkpt>
      <trkpt lat="49.82778" lon="2.40694">
        <ele>32</ele>
        <time>2023-04-19T12:32:55Z</time>
      </trkpt>
      <trkpt lat="49.82777" lon="2.40695">
        <ele>32</ele>
        <time>2023-04-19T12:32:56Z</time>
      </trkpt>
      <trkpt lat="49.82776" lon="2.40695">
        <ele>32</ele>
        <time>2023-04-19T12:32:57Z</time>
      </trkpt>
      <trkpt lat="49.82775" lon="2.40696">
        <ele>32</ele>
        <time>2023-04-19T12:32:59Z</time>
      </trkpt>
      <trkpt lat="49.82774" lon="2.40697">
        <ele>32</ele>
        <time>2023-04-19T12:33:00Z</time>
      </trkpt>
      <trkpt lat="49.82773" lon="2.40697">
        <ele>32</ele>
        <time>2023-04-19T12:33:01Z</time>
      </trkpt>
      <trkpt lat="49.82772" lon="2.40699">
        <ele>32</ele>
        <time>2023-04-19T12:33:02Z</time>
      </trkpt>
      <trkpt lat="49.82771" lon="2.407">
        <ele>32</ele>
        <time>2023-04-19T12:33:03Z</time>
      </trkpt>
      <trkpt lat="49.82771" lon="2.407">
        <ele>32</ele>
        <time>2023-04-19T12:33:04Z</time>
      </trkpt>
      <trkpt lat="49.8277" lon="2.40701">
        <ele>32</ele>
        <time>2023-04-19T12:33:05Z</time>
      </trkpt>
      <trkpt lat="49.82769" lon="2.40702">
        <ele>32.1</ele>
        <time>2023-04-19T12:33:06Z</time>
      </trkpt>
      <trkpt lat="49.82767" lon="2.40703">
        <ele>32.1</ele>
        <time>2023-04-19T12:33:08Z</time>
      </trkpt>
      <trkpt lat="49.82768" lon="2.40703">
        <ele>32.1</ele>
        <time>2023-04-19T12:33:09Z</time>
      </trkpt>
      <trkpt lat="49.82767" lon="2.40703">
        <ele>32.1</ele>
        <time>2023-04-19T12:33:10Z</time>
      </trkpt>
      <trkpt lat="49.82766" lon="2.40703">
        <ele>32.1</ele>
        <time>2023-04-19T12:33:11Z</time>
      </trkpt>
      <trkpt lat="49.82766" lon="2.40702">
        <ele>32.1</ele>
        <time>2023-04-19T12:33:12Z</time>
      </trkpt>
      <trkpt lat="49.82764" lon="2.40703">
        <ele>32.1</ele>
        <time>2023-04-19T12:33:13Z</time>
      </trkpt>
      <trkpt lat="49.82763" lon="2.40703">
        <ele>32.1</ele>
        <time>2023-04-19T12:33:14Z</time>
      </trkpt>
      <trkpt lat="49.82762" lon="2.40704">
        <ele>32.1</ele>
        <time>2023-04-19T12:33:15Z</time>
      </trkpt>
      <trkpt lat="49.8276" lon="2.40704">
        <ele>32.2</ele>
        <time>2023-04-19T12:33:17Z</time>
      </trkpt>
      <trkpt lat="49.82759" lon="2.40704">
        <ele>32.2</ele>
        <time>2023-04-19T12:33:18Z</time>
      </trkpt>
      <trkpt lat="49.82758" lon="2.40705">
        <ele>32.2</ele>
        <time>2023-04-19T12:33:19Z</time>
      </trkpt>
      <trkpt lat="49.82757" lon="2.40705">
        <ele>32.2</ele>
        <time>2023-04-19T12:33:20Z</time>
      </trkpt>
      <trkpt lat="49.82756" lon="2.40705">
        <ele>32.2</ele>
        <time>2023-04-19T12:33:21Z</time>
      </trkpt>
      <trkpt lat="49.82755" lon="2.40706">
        <ele>32.2</ele>
        <time>2023-04-19T12:33:22Z</time>
      </trkpt>
      <trkpt lat="49.82753" lon="2.40707">
        <ele>32.3</ele>
        <time>2023-04-19T12:33:24Z</time>
      </trkpt>
      <trkpt lat="49.82752" lon="2.40707">
        <ele>32.3</ele>
        <time>2023-04-19T12:33:25Z</time>
      </trkpt>
      <trkpt lat="49.82751" lon="2.40708">
        <ele>32.3</ele>
        <time>2023-04-19T12:33:26Z</time>
      </trkpt>
      <trkpt lat="49.82749" lon="2.40708">
        <ele>32.3</ele>
        <time>2023-04-19T12:33:27Z</time>
      </trkpt>
      <trkpt lat="49.82748" lon="2.40709">
        <ele>32.3</ele>
        <time>2023-04-19T12:33:28Z</time>
      </trkpt>
      <trkpt lat="49.82746" lon="2.4071">
        <ele>32.3</ele>
        <time>2023-04-19T12:33:29Z</time>
      </trkpt>
      <trkpt lat="49.82744" lon="2.40711">
        <ele>32.4</ele>
        <time>2023-04-19T12:33:30Z</time>
      </trkpt>
      <trkpt lat="49.82744" lon="2.40711">
        <ele>32.4</ele>
        <time>2023-04-19T12:33:32Z</time>
      </trkpt>
      <trkpt lat="49.82743" lon="2.40711">
        <ele>32.4</ele>
        <time>2023-04-19T12:33:33Z</time>
      </trkpt>
      <trkpt lat="49.82742" lon="2.40712">
        <ele>32.4</ele>
        <time>2023-04-19T12:33:34Z</time>
      </trkpt>
      <trkpt lat="49.82741" lon="2.40712">
        <ele>32.4</ele>
        <time>2023-04-19T12:33:35Z</time>
      </trkpt>
      <trkpt lat="49.8274" lon="2.40713">
        <ele>32.4</ele>
        <time>2023-04-19T12:33:36Z</time>
      </trkpt>
      <trkpt lat="49.82738" lon="2.40715">
        <ele>32.5</ele>
        <time>2023-04-19T12:33:37Z</time>
      </trkpt>
      <trkpt lat="49.82737" lon="2.40715">
        <ele>32.5</ele>
        <time>2023-04-19T12:33:39Z</time>
      </trkpt>
      <trkpt lat="49.82736" lon="2.40716">
        <ele>32.5</ele>
        <time>2023-04-19T12:33:40Z</time>
      </trkpt>
      <trkpt lat="49.82736" lon="2.40717">
        <ele>32.5</ele>
        <time>2023-04-19T12:33:41Z</time>
      </trkpt>
      <trkpt lat="49.82734" lon="2.40718">
        <ele>32.5</ele>
        <time>2023-04-19T12:33:42Z</time>
      </trkpt>
      <trkpt lat="49.82733" lon="2.40718">
        <ele>32.5</ele>
        <time>2023-04-19T12:33:43Z</time>
      </trkpt>
      <trkpt lat="49.82732" lon="2.40719">
        <ele>32.5</ele>
        <time>2023-04-19T12:33:44Z</time>
      </trkpt>
      <trkpt lat="49.82731" lon="2.40719">
        <ele>32.5</ele>
        <time>2023-04-19T12:33:45Z</time>
      </trkpt>
      <trkpt lat="49.8273" lon="2.4072">
        <ele>32.5</ele>
        <time>2023-04-19T12:33:47Z</time>
      </trkpt>
      <trkpt lat="49.82729" lon="2.4072">
        <ele>32.6</ele>
        <time>2023-04-19T12:33:48Z</time>
      </trkpt>
      <trkpt lat="49.82728" lon="2.40721">
        <ele>32.6</ele>
        <time>2023-04-19T12:33:49Z</time>
      </trkpt>
      <trkpt lat="49.82727" lon="2.40721">
        <ele>32.6</ele>
        <time>2023-04-19T12:33:50Z</time>
      </trkpt>
      <trkpt lat="49.82726" lon="2.40722">
        <ele>32.6</ele>
        <time>2023-04-19T12:33:51Z</time>
      </trkpt>
      <trkpt lat="49.82724" lon="2.40723">
        <ele>32.6</ele>
        <time>2023-04-19T12:33:53Z</time>
      </trkpt>
      <trkpt lat="49.82723" lon="2.40724">
        <ele>32.6</ele>
        <time>2023-04-19T12:33:54Z</time>
      </trkpt>
      <trkpt lat="49.82721" lon="2.40725">
        <ele>32.7</ele>
        <time>2023-04-19T12:33:55Z</time>
      </trkpt>
      <trkpt lat="49.8272" lon="2.40725">
        <ele>32.7</ele>
        <time>2023-04-19T12:33:56Z</time>
      </trkpt>
      <trkpt lat="49.82719" lon="2.40724">
        <ele>32.7</ele>
        <time>2023-04-19T12:33:57Z</time>
      </trkpt>
      <trkpt lat="49.82718" lon="2.40725">
        <ele>32.7</ele>
        <time>2023-04-19T12:33:58Z</time>
      </trkpt>
      <trkpt lat="49.82716" lon="2.40724">
        <ele>32.7</ele>
        <time>2023-04-19T12:34:00Z</time>
      </trkpt>
      <trkpt lat="49.82715" lon="2.40724">
        <ele>32.7</ele>
        <time>2023-04-19T12:34:01Z</time>
      </trkpt>
      <trkpt lat="49.82714" lon="2.40724">
        <ele>32.7</ele>
        <time>2023-04-19T12:34:02Z</time>
      </trkpt>
      <trkpt lat="49.82713" lon="2.40724">
        <ele>32.7</ele>
        <time>2023-04-19T12:34:03Z</time>
      </trkpt>
      <trkpt lat="49.82713" lon="2.40724">
        <ele>32.7</ele>
        <time>2023-04-19T12:34:04Z</time>
      </trkpt>
      <trkpt lat="49.82712" lon="2.40724">
        <ele>32.8</ele>
        <time>2023-04-19T12:34:05Z</time>
      </trkpt>
      <trkpt lat="49.82711" lon="2.40723">
        <ele>32.8</ele>
        <time>2023-04-19T12:34:06Z</time>
      </trkpt>
      <trkpt lat="49.82709" lon="2.40723">
        <ele>32.8</ele>
        <time>2023-04-19T12:34:08Z</time>
      </trkpt>
      <trkpt lat="49.82708" lon="2.40723">
        <ele>32.8</ele>
        <time>2023-04-19T12:34:09Z</time>
      </trkpt>
      <trkpt lat="49.82707" lon="2.40723">
        <ele>32.8</ele>
        <time>2023-04-19T12:34:10Z</time>
      </trkpt>
      <trkpt lat="49.82706" lon="2.40723">
        <ele>32.8</ele>
        <time>2023-04-19T12:34:11Z</time>
      </trkpt>
      <trkpt lat="49.82705" lon="2.40722">
        <ele>32.8</ele>
        <time>2023-04-19T12:34:12Z</time>
      </trkpt>
      <trkpt lat="49.82703" lon="2.40721">
        <ele>32.9</ele>
        <time>2023-04-19T12:34:13Z</time>
      </trkpt>
      <trkpt lat="49.82702" lon="2.4072">
        <ele>32.9</ele>
        <time>2023-04-19T12:34:14Z</time>
      </trkpt>
      <trkpt lat="49.82701" lon="2.4072">
        <ele>32.9</ele>
        <time>2023-04-19T12:34:15Z</time>
      </trkpt>
      <trkpt lat="49.82699" lon="2.4072">
        <ele>32.9</ele>
        <time>2023-04-19T12:34:17Z</time>
      </trkpt>
      <trkpt lat="49.82698" lon="2.40721">
        <ele>32.9</ele>
        <time>2023-04-19T12:34:18Z</time>
      </trkpt>
      <trkpt lat="49.82697" lon="2.40721">
        <ele>32.9</ele>
        <time>2023-04-19T12:34:19Z</time>
      </trkpt>
      <trkpt lat="49.82695" lon="2.40721">
        <ele>32.9</ele>
        <time>2023-04-19T12:34:20Z</time>
      </trkpt>
      <trkpt lat="49.82694" lon="2.40722">
        <ele>33</ele>
        <time>2023-04-19T12:34:22Z</time>
      </trkpt>
      <trkpt lat="49.82693" lon="2.40722">
        <ele>33</ele>
        <time>2023-04-19T12:34:23Z</time>
      </trkpt>
      <trkpt lat="49.82692" lon="2.40723">
        <ele>33</ele>
        <time>2023-04-19T12:34:24Z</time>
      </trkpt>
      <trkpt lat="49.82691" lon="2.40723">
        <ele>33</ele>
        <time>2023-04-19T12:34:25Z</time>
      </trkpt>
      <trkpt lat="49.8269" lon="2.40726">
        <ele>33</ele>
        <time>2023-04-19T12:34:26Z</time>
      </trkpt>
      <trkpt lat="49.82691" lon="2.40727">
        <ele>33</ele>
        <time>2023-04-19T12:34:27Z</time>
      </trkpt>
      <trkpt lat="49.82692" lon="2.40728">
        <ele>33</ele>
        <time>2023-04-19T12:34:29Z</time>
      </trkpt>
      <trkpt lat="49.82692" lon="2.4073">
        <ele>33.1</ele>
        <time>2023-04-19T12:34:30Z</time>
      </trkpt>
      <trkpt lat="49.82693" lon="2.40731">
        <ele>33.1</ele>
        <time>2023-04-19T12:34:31Z</time>
      </trkpt>
      <trkpt lat="49.82692" lon="2.40734">
        <ele>33.1</ele>
        <time>2023-04-19T12:34:32Z</time>
      </trkpt>
      <trkpt lat="49.82691" lon="2.40734">
        <ele>33.1</ele>
        <time>2023-04-19T12:34:33Z</time>
      </trkpt>
      <trkpt lat="49.82689" lon="2.40735">
        <ele>33.2</ele>
        <time>2023-04-19T12:34:35Z</time>
      </trkpt>
      <trkpt lat="49.82688" lon="2.40736">
        <ele>33.2</ele>
        <time>2023-04-19T12:34:36Z</time>
      </trkpt>
      <trkpt lat="49.82687" lon="2.40737">
        <ele>33.2</ele>
        <time>2023-04-19T12:34:37Z</time>
      </trkpt>
      <trkpt lat="49.82685" lon="2.40739">
        <ele>33.2</ele>
        <time>2023-04-19T12:34:38Z</time>
      </trkpt>
      <trkpt lat="49.82684" lon="2.4074">
        <ele>33.3</ele>
        <time>2023-04-19T12:34:39Z</time>
      </trkpt>
      <trkpt lat="49.82682" lon="2.40743">
        <ele>33.3</ele>
        <time>2023-04-19T12:34:40Z</time>
      </trkpt>
      <trkpt lat="49.82681" lon="2.40744">
        <ele>33.3</ele>
        <time>2023-04-19T12:34:41Z</time>
      </trkpt>
      <trkpt lat="49.82681" lon="2.40745">
        <ele>33.3</ele>
        <time>2023-04-19T12:34:42Z</time>
      </trkpt>
      <trkpt lat="49.82681" lon="2.40747">
        <ele>33.4</ele>
        <time>2023-04-19T12:34:44Z</time>
      </trkpt>
      <trkpt lat="49.82681" lon="2.40749">
        <ele>33.4</ele>
        <time>2023-04-19T12:34:45Z</time>
      </trkpt>
      <trkpt lat="49.8268" lon="2.40752">
        <ele>33.4</ele>
        <time>2023-04-19T12:34:46Z</time>
      </trkpt>
      <trkpt lat="49.82681" lon="2.40752">
        <ele>33.4</ele>
        <time>2023-04-19T12:34:47Z</time>
      </trkpt>
      <trkpt lat="49.82682" lon="2.40753">
        <ele>33.4</ele>
        <time>2023-04-19T12:34:48Z</time>
      </trkpt>
      <trkpt lat="49.82682" lon="2.40754">
        <ele>33.4</ele>
        <time>2023-04-19T12:34:50Z</time>
      </trkpt>
      <trkpt lat="49.82683" lon="2.40755">
        <ele>33.5</ele>
        <time>2023-04-19T12:34:51Z</time>
      </trkpt>
      <trkpt lat="49.82683" lon="2.40756">
        <ele>33.5</ele>
        <time>2023-04-19T12:34:52Z</time>
      </trkpt>
      <trkpt lat="49.82683" lon="2.40757">
        <ele>33.5</ele>
        <time>2023-04-19T12:34:53Z</time>
      </trkpt>
      <trkpt lat="49.82684" lon="2.40759">
        <ele>33.5</ele>
        <time>2023-04-19T12:34:54Z</time>
      </trkpt>
      <trkpt lat="49.82684" lon="2.40761">
        <ele>33.5</ele>
        <time>2023-04-19T12:34:55Z</time>
      </trkpt>
      <trkpt lat="49.82684" lon="2.40762">
        <ele>33.5</ele>
        <time>2023-04-19T12:34:56Z</time>
      </trkpt>
      <trkpt lat="49.82684" lon="2.40764">
        <ele>33.5</ele>
        <time>2023-04-19T12:34:58Z</time>
      </trkpt>
      <trkpt lat="49.82684" lon="2.40766">
        <ele>33.6</ele>
        <time>2023-04-19T12:34:59Z</time>
      </trkpt>
      <trkpt lat="49.82684" lon="2.40768">
        <ele>33.6</ele>
        <time>2023-04-19T12:35:00Z</time>
      </trkpt>
      <trkpt lat="49.82685" lon="2.40769">
        <ele>33.6</ele>
        <time>2023-04-19T12:35:01Z</time>
      </trkpt>
      <trkpt lat="49.82685" lon="2.40771">
        <ele>33.6</ele>
        <time>2023-04-19T12:35:03Z</time>
      </trkpt>
      <trkpt lat="49.82685" lon="2.40773">
        <ele>33.6</ele>
        <time>2023-04-19T12:35:04Z</time>
      </trkpt>
      <trkpt lat="49.82685" lon="2.40775">
        <ele>33.7</ele>
        <time>2023-04-19T12:35:05Z</time>
      </trkpt>
      <trkpt lat="49.82686" lon="2.40778">
        <ele>33.7</ele>
        <time>2023-04-19T12:35:06Z</time>
      </trkpt>
      <trkpt lat="49.82686" lon="2.4078">
        <ele>33.7</ele>
        <time>2023-04-19T12:35:07Z</time>
      </trkpt>
      <trkpt lat="49.82686" lon="2.40781">
        <ele>33.7</ele>
        <time>2023-04-19T12:35:08Z</time>
      </trkpt>
      <trkpt lat="49.82686" lon="2.40783">
        <ele>33.7</ele>
        <time>2023-04-19T12:35:09Z</time>
      </trkpt>
      <trkpt lat="49.82686" lon="2.40787">
        <ele>33.8</ele>
        <time>2023-04-19T12:35:10Z</time>
      </trkpt>
      <trkpt lat="49.82686" lon="2.40789">
        <ele>33.8</ele>
        <time>2023-04-19T12:35:12Z</time>
      </trkpt>
      <trkpt lat="49.82686" lon="2.40791">
        <ele>33.8</ele>
        <time>2023-04-19T12:35:13Z</time>
      </trkpt>
      <trkpt lat="49.82686" lon="2.40792">
        <ele>33.8</ele>
        <time>2023-04-19T12:35:14Z</time>
      </trkpt>
      <trkpt lat="49.82686" lon="2.40794">
        <ele>33.8</ele>
        <time>2023-04-19T12:35:15Z</time>
      </trkpt>
      <trkpt lat="49.82686" lon="2.40797">
        <ele>33.8</ele>
        <time>2023-04-19T12:35:16Z</time>
      </trkpt>
      <trkpt lat="49.82685" lon="2.40799">
        <ele>33.8</ele>
        <time>2023-04-19T12:35:17Z</time>
      </trkpt>
      <trkpt lat="49.82685" lon="2.40801">
        <ele>33.9</ele>
        <time>2023-04-19T12:35:18Z</time>
      </trkpt>
      <trkpt lat="49.82685" lon="2.40803">
        <ele>33.9</ele>
        <time>2023-04-19T12:35:19Z</time>
      </trkpt>
      <trkpt lat="49.82685" lon="2.40805">
        <ele>33.9</ele>
        <time>2023-04-19T12:35:21Z</time>
      </trkpt>
      <trkpt lat="49.82685" lon="2.40808">
        <ele>33.9</ele>
        <time>2023-04-19T12:35:22Z</time>
      </trkpt>
      <trkpt lat="49.82685" lon="2.4081">
        <ele>33.9</ele>
        <time>2023-04-19T12:35:23Z</time>
      </trkpt>
      <trkpt lat="49.82685" lon="2.40812">
        <ele>33.9</ele>
        <time>2023-04-19T12:35:24Z</time>
      </trkpt>
      <trkpt lat="49.82685" lon="2.40816">
        <ele>33.9</ele>
        <time>2023-04-19T12:35:25Z</time>
      </trkpt>
      <trkpt lat="49.82685" lon="2.40818">
        <ele>33.9</ele>
        <time>2023-04-19T12:35:26Z</time>
      </trkpt>
      <trkpt lat="49.82685" lon="2.4082">
        <ele>33.9</ele>
        <time>2023-04-19T12:35:28Z</time>
      </trkpt>
      <trkpt lat="49.82685" lon="2.40822">
        <ele>33.9</ele>
        <time>2023-04-19T12:35:29Z</time>
      </trkpt>
      <trkpt lat="49.82685" lon="2.40824">
        <ele>33.9</ele>
        <time>2023-04-19T12:35:30Z</time>
      </trkpt>
      <trkpt lat="49.82685" lon="2.40827">
        <ele>33.9</ele>
        <time>2023-04-19T12:35:31Z</time>
      </trkpt>
      <trkpt lat="49.82685" lon="2.40828">
        <ele>33.9</ele>
        <time>2023-04-19T12:35:33Z</time>
      </trkpt>
      <trkpt lat="49.82685" lon="2.40829">
        <ele>33.8</ele>
        <time>2023-04-19T12:35:34Z</time>
      </trkpt>
      <trkpt lat="49.82685" lon="2.40831">
        <ele>33.8</ele>
        <time>2023-04-19T12:35:35Z</time>
      </trkpt>
      <trkpt lat="49.82685" lon="2.40832">
        <ele>33.8</ele>
        <time>2023-04-19T12:35:36Z</time>
      </trkpt>
      <trkpt lat="49.82684" lon="2.40833">
        <ele>33.8</ele>
        <time>2023-04-19T12:35:37Z</time>
      </trkpt>
      <trkpt lat="49.82683" lon="2.40837">
        <ele>33.8</ele>
        <time>2023-04-19T12:35:39Z</time>
      </trkpt>
      <trkpt lat="49.82684" lon="2.4084">
        <ele>33.8</ele>
        <time>2023-04-19T12:35:41Z</time>
      </trkpt>
      <trkpt lat="49.82684" lon="2.40842">
        <ele>33.7</ele>
        <time>2023-04-19T12:35:42Z</time>
      </trkpt>
      <trkpt lat="49.82684" lon="2.40843">
        <ele>33.7</ele>
        <time>2023-04-19T12:35:43Z</time>
      </trkpt>
      <trkpt lat="49.82684" lon="2.40844">
        <ele>33.7</ele>
        <time>2023-04-19T12:35:44Z</time>
      </trkpt>
      <trkpt lat="49.82684" lon="2.40845">
        <ele>33.7</ele>
        <time>2023-04-19T12:35:45Z</time>
      </trkpt>
      <trkpt lat="49.82684" lon="2.40847">
        <ele>33.7</ele>
        <time>2023-04-19T12:35:46Z</time>
      </trkpt>
      <trkpt lat="49.82684" lon="2.40848">
        <ele>33.6</ele>
        <time>2023-04-19T12:35:48Z</time>
      </trkpt>
      <trkpt lat="49.82684" lon="2.40848">
        <ele>33.6</ele>
        <time>2023-04-19T12:35:49Z</time>
      </trkpt>
      <trkpt lat="49.82685" lon="2.40849">
        <ele>33.6</ele>
        <time>2023-04-19T12:35:50Z</time>
      </trkpt>
      <trkpt lat="49.82685" lon="2.40849">
        <ele>33.6</ele>
        <time>2023-04-19T12:35:52Z</time>
      </trkpt>
      <trkpt lat="49.82685" lon="2.40849">
        <ele>33.6</ele>
        <time>2023-04-19T12:35:53Z</time>
      </trkpt>
      <trkpt lat="49.82685" lon="2.40849">
        <ele>33.6</ele>
        <time>2023-04-19T12:35:54Z</time>
      </trkpt>
      <trkpt lat="49.82686" lon="2.40849">
        <ele>33.6</ele>
        <time>2023-04-19T12:35:55Z</time>
      </trkpt>
      <trkpt lat="49.82686" lon="2.40849">
        <ele>33.6</ele>
        <time>2023-04-19T12:35:56Z</time>
      </trkpt>
      <trkpt lat="49.82686" lon="2.40849">
        <ele>33.6</ele>
        <time>2023-04-19T12:35:58Z</time>
      </trkpt>
      <trkpt lat="49.82686" lon="2.40849">
        <ele>33.6</ele>
        <time>2023-04-19T12:35:59Z</time>
      </trkpt>
      <trkpt lat="49.82687" lon="2.4085">
        <ele>33.6</ele>
        <time>2023-04-19T12:36:00Z</time>
      </trkpt>
      <trkpt lat="49.82687" lon="2.4085">
        <ele>33.6</ele>
        <time>2023-04-19T12:36:01Z</time>
      </trkpt>
      <trkpt lat="49.82687" lon="2.4085">
        <ele>33.5</ele>
        <time>2023-04-19T12:36:02Z</time>
      </trkpt>
      <trkpt lat="49.8269" lon="2.40846">
        <ele>33.4</ele>
        <time>2023-04-19T12:36:04Z</time>
      </trkpt>
      <trkpt lat="49.82691" lon="2.40846">
        <ele>33.4</ele>
        <time>2023-04-19T12:36:05Z</time>
      </trkpt>
      <trkpt lat="49.82692" lon="2.40845">
        <ele>33.4</ele>
        <time>2023-04-19T12:36:06Z</time>
      </trkpt>
      <trkpt lat="49.82692" lon="2.40845">
        <ele>33.4</ele>
        <time>2023-04-19T12:36:07Z</time>
      </trkpt>
      <trkpt lat="49.82693" lon="2.40845">
        <ele>33.3</ele>
        <time>2023-04-19T12:36:08Z</time>
      </trkpt>
      <trkpt lat="49.82694" lon="2.40845">
        <ele>33.3</ele>
        <time>2023-04-19T12:36:09Z</time>
      </trkpt>
      <trkpt lat="49.82695" lon="2.40846">
        <ele>33.3</ele>
        <time>2023-04-19T12:36:11Z</time>
      </trkpt>
      <trkpt lat="49.82696" lon="2.40847">
        <ele>33.3</ele>
        <time>2023-04-19T12:36:12Z</time>
      </trkpt>
      <trkpt lat="49.82697" lon="2.40847">
        <ele>33.2</ele>
        <time>2023-04-19T12:36:13Z</time>
      </trkpt>
      <trkpt lat="49.82698" lon="2.40847">
        <ele>33.2</ele>
        <time>2023-04-19T12:36:14Z</time>
      </trkpt>
      <trkpt lat="49.82699" lon="2.40847">
        <ele>33.2</ele>
        <time>2023-04-19T12:36:15Z</time>
      </trkpt>
      <trkpt lat="49.827" lon="2.40847">
        <ele>33.2</ele>
        <time>2023-04-19T12:36:16Z</time>
      </trkpt>
      <trkpt lat="49.82702" lon="2.40847">
        <ele>33.1</ele>
        <time>2023-04-19T12:36:17Z</time>
      </trkpt>
      <trkpt lat="49.82704" lon="2.40846">
        <ele>33.1</ele>
        <time>2023-04-19T12:36:19Z</time>
      </trkpt>
      <trkpt lat="49.82708" lon="2.40846">
        <ele>33</ele>
        <time>2023-04-19T12:36:20Z</time>
      </trkpt>
      <trkpt lat="49.82709" lon="2.40846">
        <ele>33</ele>
        <time>2023-04-19T12:36:21Z</time>
      </trkpt>
      <trkpt lat="49.82712" lon="2.40846">
        <ele>32.9</ele>
        <time>2023-04-19T12:36:22Z</time>
      </trkpt>
      <trkpt lat="49.82713" lon="2.40846">
        <ele>32.9</ele>
        <time>2023-04-19T12:36:23Z</time>
      </trkpt>
      <trkpt lat="49.82715" lon="2.40846">
        <ele>32.9</ele>
        <time>2023-04-19T12:36:24Z</time>
      </trkpt>
      <trkpt lat="49.82717" lon="2.40846">
        <ele>32.8</ele>
        <time>2023-04-19T12:36:25Z</time>
      </trkpt>
      <trkpt lat="49.82718" lon="2.40845">
        <ele>32.8</ele>
        <time>2023-04-19T12:36:27Z</time>
      </trkpt>
      <trkpt lat="49.8272" lon="2.40845">
        <ele>32.8</ele>
        <time>2023-04-19T12:36:28Z</time>
      </trkpt>
      <trkpt lat="49.82722" lon="2.40844">
        <ele>32.7</ele>
        <time>2023-04-19T12:36:29Z</time>
      </trkpt>
      <trkpt lat="49.82723" lon="2.40844">
        <ele>32.7</ele>
        <time>2023-04-19T12:36:30Z</time>
      </trkpt>
      <trkpt lat="49.82724" lon="2.40844">
        <ele>32.7</ele>
        <time>2023-04-19T12:36:31Z</time>
      </trkpt>
      <trkpt lat="49.82725" lon="2.40843">
        <ele>32.7</ele>
        <time>2023-04-19T12:36:32Z</time>
      </trkpt>
      <trkpt lat="49.82726" lon="2.40843">
        <ele>32.7</ele>
        <time>2023-04-19T12:36:33Z</time>
      </trkpt>
      <trkpt lat="49.82727" lon="2.40843">
        <ele>32.6</ele>
        <time>2023-04-19T12:36:34Z</time>
      </trkpt>
      <trkpt lat="49.82729" lon="2.40842">
        <ele>32.6</ele>
        <time>2023-04-19T12:36:35Z</time>
      </trkpt>
      <trkpt lat="49.8273" lon="2.40842">
        <ele>32.6</ele>
        <time>2023-04-19T12:36:37Z</time>
      </trkpt>
      <trkpt lat="49.8273" lon="2.40842">
        <ele>32.6</ele>
        <time>2023-04-19T12:36:38Z</time>
      </trkpt>
      <trkpt lat="49.82732" lon="2.40841">
        <ele>32.6</ele>
        <time>2023-04-19T12:36:39Z</time>
      </trkpt>
      <trkpt lat="49.82733" lon="2.40841">
        <ele>32.5</ele>
        <time>2023-04-19T12:36:40Z</time>
      </trkpt>
      <trkpt lat="49.82734" lon="2.40841">
        <ele>32.5</ele>
        <time>2023-04-19T12:36:41Z</time>
      </trkpt>
      <trkpt lat="49.82735" lon="2.4084">
        <ele>32.5</ele>
        <time>2023-04-19T12:36:42Z</time>
      </trkpt>
      <trkpt lat="49.82736" lon="2.4084">
        <ele>32.5</ele>
        <time>2023-04-19T12:36:43Z</time>
      </trkpt>
      <trkpt lat="49.82739" lon="2.40839">
        <ele>32.5</ele>
        <time>2023-04-19T12:36:44Z</time>
      </trkpt>
      <trkpt lat="49.8274" lon="2.40839">
        <ele>32.4</ele>
        <time>2023-04-19T12:36:46Z</time>
      </trkpt>
      <trkpt lat="49.82742" lon="2.40839">
        <ele>32.4</ele>
        <time>2023-04-19T12:36:47Z</time>
      </trkpt>
      <trkpt lat="49.82743" lon="2.40838">
        <ele>32.4</ele>
        <time>2023-04-19T12:36:48Z</time>
      </trkpt>
      <trkpt lat="49.82744" lon="2.40838">
        <ele>32.4</ele>
        <time>2023-04-19T12:36:49Z</time>
      </trkpt>
      <trkpt lat="49.82745" lon="2.40839">
        <ele>32.4</ele>
        <time>2023-04-19T12:36:50Z</time>
      </trkpt>
      <trkpt lat="49.82746" lon="2.40839">
        <ele>32.4</ele>
        <time>2023-04-19T12:36:51Z</time>
      </trkpt>
      <trkpt lat="49.82749" lon="2.4084">
        <ele>32.3</ele>
        <time>2023-04-19T12:36:53Z</time>
      </trkpt>
      <trkpt lat="49.8275" lon="2.4084">
        <ele>32.3</ele>
        <time>2023-04-19T12:36:54Z</time>
      </trkpt>
      <trkpt lat="49.82751" lon="2.4084">
        <ele>32.3</ele>
        <time>2023-04-19T12:36:55Z</time>
      </trkpt>
      <trkpt lat="49.82753" lon="2.4084">
        <ele>32.3</ele>
        <time>2023-04-19T12:36:56Z</time>
      </trkpt>
      <trkpt lat="49.82754" lon="2.40841">
        <ele>32.3</ele>
        <time>2023-04-19T12:36:57Z</time>
      </trkpt>
      <trkpt lat="49.82755" lon="2.40841">
        <ele>32.3</ele>
        <time>2023-04-19T12:36:59Z</time>
      </trkpt>
      <trkpt lat="49.82756" lon="2.40841">
        <ele>32.3</ele>
        <time>2023-04-19T12:37:00Z</time>
      </trkpt>
      <trkpt lat="49.82758" lon="2.40842">
        <ele>32.3</ele>
        <time>2023-04-19T12:37:01Z</time>
      </trkpt>
      <trkpt lat="49.82759" lon="2.40842">
        <ele>32.3</ele>
        <time>2023-04-19T12:37:02Z</time>
      </trkpt>
      <trkpt lat="49.8276" lon="2.40842">
        <ele>32.3</ele>
        <time>2023-04-19T12:37:03Z</time>
      </trkpt>
      <trkpt lat="49.82761" lon="2.40842">
        <ele>32.3</ele>
        <time>2023-04-19T12:37:04Z</time>
      </trkpt>
      <trkpt lat="49.82763" lon="2.40842">
        <ele>32.2</ele>
        <time>2023-04-19T12:37:05Z</time>
      </trkpt>
      <trkpt lat="49.82764" lon="2.40842">
        <ele>32.2</ele>
        <time>2023-04-19T12:37:06Z</time>
      </trkpt>
      <trkpt lat="49.82765" lon="2.40842">
        <ele>32.2</ele>
        <time>2023-04-19T12:37:07Z</time>
      </trkpt>
      <trkpt lat="49.82766" lon="2.40842">
        <ele>32.2</ele>
        <time>2023-04-19T12:37:09Z</time>
      </trkpt>
      <trkpt lat="49.82767" lon="2.40843">
        <ele>32.2</ele>
        <time>2023-04-19T12:37:10Z</time>
      </trkpt>
      <trkpt lat="49.82768" lon="2.40843">
        <ele>32.2</ele>
        <time>2023-04-19T12:37:11Z</time>
      </trkpt>
      <trkpt lat="49.82769" lon="2.40844">
        <ele>32.2</ele>
        <time>2023-04-19T12:37:12Z</time>
      </trkpt>
      <trkpt lat="49.8277" lon="2.40845">
        <ele>32.2</ele>
        <time>2023-04-19T12:37:13Z</time>
      </trkpt>
      <trkpt lat="49.82771" lon="2.40846">
        <ele>32.2</ele>
        <time>2023-04-19T12:37:14Z</time>
      </trkpt>
      <trkpt lat="49.82772" lon="2.40847">
        <ele>32.2</ele>
        <time>2023-04-19T12:37:15Z</time>
      </trkpt>
      <trkpt lat="49.82773" lon="2.40849">
        <ele>32.2</ele>
        <time>2023-04-19T12:37:16Z</time>
      </trkpt>
      <trkpt lat="49.82774" lon="2.4085">
        <ele>32.2</ele>
        <time>2023-04-19T12:37:17Z</time>
      </trkpt>
      <trkpt lat="49.82775" lon="2.40851">
        <ele>32.2</ele>
        <time>2023-04-19T12:37:18Z</time>
      </trkpt>
      <trkpt lat="49.82776" lon="2.40852">
        <ele>32.2</ele>
        <time>2023-04-19T12:37:20Z</time>
      </trkpt>
      <trkpt lat="49.82777" lon="2.40854">
        <ele>32.2</ele>
        <time>2023-04-19T12:37:21Z</time>
      </trkpt>
      <trkpt lat="49.82779" lon="2.40856">
        <ele>32.1</ele>
        <time>2023-04-19T12:37:22Z</time>
      </trkpt>
      <trkpt lat="49.82779" lon="2.40856">
        <ele>32.1</ele>
        <time>2023-04-19T12:37:23Z</time>
      </trkpt>
      <trkpt lat="49.8278" lon="2.40857">
        <ele>32.1</ele>
        <time>2023-04-19T12:37:24Z</time>
      </trkpt>
      <trkpt lat="49.82781" lon="2.40859">
        <ele>32.1</ele>
        <time>2023-04-19T12:37:26Z</time>
      </trkpt>
      <trkpt lat="49.82782" lon="2.40859">
        <ele>32.1</ele>
        <time>2023-04-19T12:37:27Z</time>
      </trkpt>
      <trkpt lat="49.82783" lon="2.4086">
        <ele>32.1</ele>
        <time>2023-04-19T12:37:28Z</time>
      </trkpt>
      <trkpt lat="49.82784" lon="2.40861">
        <ele>32.1</ele>
        <time>2023-04-19T12:37:29Z</time>
      </trkpt>
      <trkpt lat="49.82785" lon="2.40863">
        <ele>32.1</ele>
        <time>2023-04-19T12:37:30Z</time>
      </trkpt>
      <trkpt lat="49.82786" lon="2.40865">
        <ele>32.1</ele>
        <time>2023-04-19T12:37:32Z</time>
      </trkpt>
      <trkpt lat="49.82787" lon="2.40867">
        <ele>32.1</ele>
        <time>2023-04-19T12:37:33Z</time>
      </trkpt>
      <trkpt lat="49.82787" lon="2.40869">
        <ele>32.1</ele>
        <time>2023-04-19T12:37:34Z</time>
      </trkpt>
      <trkpt lat="49.82788" lon="2.40871">
        <ele>32.1</ele>
        <time>2023-04-19T12:37:35Z</time>
      </trkpt>
      <trkpt lat="49.82788" lon="2.40874">
        <ele>32.2</ele>
        <time>2023-04-19T12:37:36Z</time>
      </trkpt>
      <trkpt lat="49.82789" lon="2.40875">
        <ele>32.2</ele>
        <time>2023-04-19T12:37:37Z</time>
      </trkpt>
      <trkpt lat="49.82789" lon="2.40877">
        <ele>32.2</ele>
        <time>2023-04-19T12:37:38Z</time>
      </trkpt>
      <trkpt lat="49.82789" lon="2.40879">
        <ele>32.2</ele>
        <time>2023-04-19T12:37:39Z</time>
      </trkpt>
      <trkpt lat="49.82789" lon="2.40881">
        <ele>32.2</ele>
        <time>2023-04-19T12:37:40Z</time>
      </trkpt>
      <trkpt lat="49.8279" lon="2.40883">
        <ele>32.2</ele>
        <time>2023-04-19T12:37:41Z</time>
      </trkpt>
      <trkpt lat="49.8279" lon="2.40885">
        <ele>32.2</ele>
        <time>2023-04-19T12:37:42Z</time>
      </trkpt>
      <trkpt lat="49.8279" lon="2.40888">
        <ele>32.2</ele>
        <time>2023-04-19T12:37:43Z</time>
      </trkpt>
      <trkpt lat="49.8279" lon="2.40889">
        <ele>32.2</ele>
        <time>2023-04-19T12:37:45Z</time>
      </trkpt>
      <trkpt lat="49.8279" lon="2.40891">
        <ele>32.2</ele>
        <time>2023-04-19T12:37:46Z</time>
      </trkpt>
      <trkpt lat="49.82791" lon="2.40893">
        <ele>32.2</ele>
        <time>2023-04-19T12:37:47Z</time>
      </trkpt>
      <trkpt lat="49.82791" lon="2.40895">
        <ele>32.2</ele>
        <time>2023-04-19T12:37:48Z</time>
      </trkpt>
      <trkpt lat="49.82791" lon="2.40897">
        <ele>32.2</ele>
        <time>2023-04-19T12:37:49Z</time>
      </trkpt>
      <trkpt lat="49.8279" lon="2.40899">
        <ele>32.2</ele>
        <time>2023-04-19T12:37:50Z</time>
      </trkpt>
      <trkpt lat="49.82789" lon="2.40902">
        <ele>32.2</ele>
        <time>2023-04-19T12:37:51Z</time>
      </trkpt>
      <trkpt lat="49.82788" lon="2.40903">
        <ele>32.3</ele>
        <time>2023-04-19T12:37:53Z</time>
      </trkpt>
      <trkpt lat="49.82788" lon="2.40905">
        <ele>32.3</ele>
        <time>2023-04-19T12:37:54Z</time>
      </trkpt>
      <trkpt lat="49.82787" lon="2.40906">
        <ele>32.3</ele>
        <time>2023-04-19T12:37:55Z</time>
      </trkpt>
      <trkpt lat="49.82786" lon="2.40908">
        <ele>32.3</ele>
        <time>2023-04-19T12:37:56Z</time>
      </trkpt>
      <trkpt lat="49.82786" lon="2.40911">
        <ele>32.3</ele>
        <time>2023-04-19T12:37:58Z</time>
      </trkpt>
      <trkpt lat="49.82786" lon="2.40913">
        <ele>32.3</ele>
        <time>2023-04-19T12:37:59Z</time>
      </trkpt>
      <trkpt lat="49.82786" lon="2.40917">
        <ele>32.3</ele>
        <time>2023-04-19T12:38:00Z</time>
      </trkpt>
      <trkpt lat="49.82786" lon="2.40918">
        <ele>32.3</ele>
        <time>2023-04-19T12:38:01Z</time>
      </trkpt>
      <trkpt lat="49.82786" lon="2.40919">
        <ele>32.3</ele>
        <time>2023-04-19T12:38:02Z</time>
      </trkpt>
      <trkpt lat="49.82787" lon="2.40921">
        <ele>32.2</ele>
        <time>2023-04-19T12:38:03Z</time>
      </trkpt>
      <trkpt lat="49.82787" lon="2.40923">
        <ele>32.2</ele>
        <time>2023-04-19T12:38:04Z</time>
      </trkpt>
      <trkpt lat="49.82787" lon="2.40926">
        <ele>32.2</ele>
        <time>2023-04-19T12:38:05Z</time>
      </trkpt>
      <trkpt lat="49.82787" lon="2.40928">
        <ele>32.2</ele>
        <time>2023-04-19T12:38:06Z</time>
      </trkpt>
      <trkpt lat="49.82787" lon="2.40932">
        <ele>32.2</ele>
        <time>2023-04-19T12:38:07Z</time>
      </trkpt>
      <trkpt lat="49.82787" lon="2.40933">
        <ele>32.2</ele>
        <time>2023-04-19T12:38:08Z</time>
      </trkpt>
      <trkpt lat="49.82787" lon="2.40937">
        <ele>32.2</ele>
        <time>2023-04-19T12:38:10Z</time>
      </trkpt>
      <trkpt lat="49.82787" lon="2.40938">
        <ele>32.2</ele>
        <time>2023-04-19T12:38:11Z</time>
      </trkpt>
      <trkpt lat="49.82787" lon="2.4094">
        <ele>32.2</ele>
        <time>2023-04-19T12:38:12Z</time>
      </trkpt>
      <trkpt lat="49.82787" lon="2.40943">
        <ele>32.2</ele>
        <time>2023-04-19T12:38:13Z</time>
      </trkpt>
      <trkpt lat="49.82787" lon="2.40944">
        <ele>32.2</ele>
        <time>2023-04-19T12:38:14Z</time>
      </trkpt>
      <trkpt lat="49.82788" lon="2.40945">
        <ele>32.2</ele>
        <time>2023-04-19T12:38:15Z</time>
      </trkpt>
      <trkpt lat="49.82788" lon="2.40947">
        <ele>32.2</ele>
        <time>2023-04-19T12:38:16Z</time>
      </trkpt>
      <trkpt lat="49.82789" lon="2.4095">
        <ele>32.2</ele>
        <time>2023-04-19T12:38:17Z</time>
      </trkpt>
      <trkpt lat="49.82789" lon="2.40953">
        <ele>32.2</ele>
        <time>2023-04-19T12:38:18Z</time>
      </trkpt>
      <trkpt lat="49.8279" lon="2.40955">
        <ele>32.2</ele>
        <time>2023-04-19T12:38:20Z</time>
      </trkpt>
      <trkpt lat="49.8279" lon="2.40956">
        <ele>32.2</ele>
        <time>2023-04-19T12:38:21Z</time>
      </trkpt>
      <trkpt lat="49.8279" lon="2.40958">
        <ele>32.2</ele>
        <time>2023-04-19T12:38:22Z</time>
      </trkpt>
      <trkpt lat="49.82791" lon="2.40961">
        <ele>32.2</ele>
        <time>2023-04-19T12:38:23Z</time>
      </trkpt>
      <trkpt lat="49.82791" lon="2.40963">
        <ele>32.2</ele>
        <time>2023-04-19T12:38:24Z</time>
      </trkpt>
      <trkpt lat="49.82792" lon="2.40966">
        <ele>32.2</ele>
        <time>2023-04-19T12:38:25Z</time>
      </trkpt>
      <trkpt lat="49.82792" lon="2.40969">
        <ele>32.3</ele>
        <time>2023-04-19T12:38:26Z</time>
      </trkpt>
      <trkpt lat="49.82793" lon="2.40971">
        <ele>32.3</ele>
        <time>2023-04-19T12:38:28Z</time>
      </trkpt>
      <trkpt lat="49.82793" lon="2.40973">
        <ele>32.3</ele>
        <time>2023-04-19T12:38:29Z</time>
      </trkpt>
      <trkpt lat="49.82793" lon="2.40975">
        <ele>32.3</ele>
        <time>2023-04-19T12:38:30Z</time>
      </trkpt>
      <trkpt lat="49.82793" lon="2.40976">
        <ele>32.3</ele>
        <time>2023-04-19T12:38:31Z</time>
      </trkpt>
      <trkpt lat="49.82793" lon="2.4098">
        <ele>32.3</ele>
        <time>2023-04-19T12:38:32Z</time>
      </trkpt>
      <trkpt lat="49.82794" lon="2.40981">
        <ele>32.3</ele>
        <time>2023-04-19T12:38:33Z</time>
      </trkpt>
      <trkpt lat="49.82794" lon="2.40983">
        <ele>32.3</ele>
        <time>2023-04-19T12:38:35Z</time>
      </trkpt>
      <trkpt lat="49.82794" lon="2.40984">
        <ele>32.3</ele>
        <time>2023-04-19T12:38:36Z</time>
      </trkpt>
      <trkpt lat="49.82795" lon="2.40986">
        <ele>32.3</ele>
        <time>2023-04-19T12:38:37Z</time>
      </trkpt>
      <trkpt lat="49.82795" lon="2.40987">
        <ele>32.3</ele>
        <time>2023-04-19T12:38:38Z</time>
      </trkpt>
      <trkpt lat="49.82795" lon="2.40989">
        <ele>32.4</ele>
        <time>2023-04-19T12:38:39Z</time>
      </trkpt>
      <trkpt lat="49.82796" lon="2.4099">
        <ele>32.4</ele>
        <time>2023-04-19T12:38:40Z</time>
      </trkpt>
      <trkpt lat="49.82796" lon="2.40992">
        <ele>32.4</ele>
        <time>2023-04-19T12:38:41Z</time>
      </trkpt>
      <trkpt lat="49.82797" lon="2.40994">
        <ele>32.4</ele>
        <time>2023-04-19T12:38:42Z</time>
      </trkpt>
      <trkpt lat="49.82797" lon="2.40995">
        <ele>32.4</ele>
        <time>2023-04-19T12:38:43Z</time>
      </trkpt>
      <trkpt lat="49.82798" lon="2.40997">
        <ele>32.4</ele>
        <time>2023-04-19T12:38:45Z</time>
      </trkpt>
      <trkpt lat="49.82798" lon="2.40999">
        <ele>32.4</ele>
        <time>2023-04-19T12:38:46Z</time>
      </trkpt>
      <trkpt lat="49.82799" lon="2.41001">
        <ele>32.5</ele>
        <time>2023-04-19T12:38:47Z</time>
      </trkpt>
      <trkpt lat="49.828" lon="2.41003">
        <ele>32.5</ele>
        <time>2023-04-19T12:38:48Z</time>
      </trkpt>
      <trkpt lat="49.82801" lon="2.41006">
        <ele>32.5</ele>
        <time>2023-04-19T12:38:50Z</time>
      </trkpt>
      <trkpt lat="49.82802" lon="2.41008">
        <ele>32.5</ele>
        <time>2023-04-19T12:38:51Z</time>
      </trkpt>
      <trkpt lat="49.82803" lon="2.41009">
        <ele>32.6</ele>
        <time>2023-04-19T12:38:52Z</time>
      </trkpt>
      <trkpt lat="49.82804" lon="2.41011">
        <ele>32.6</ele>
        <time>2023-04-19T12:38:54Z</time>
      </trkpt>
      <trkpt lat="49.82804" lon="2.41012">
        <ele>32.6</ele>
        <time>2023-04-19T12:38:55Z</time>
      </trkpt>
      <trkpt lat="49.82805" lon="2.41013">
        <ele>32.6</ele>
        <time>2023-04-19T12:38:56Z</time>
      </trkpt>
      <trkpt lat="49.82806" lon="2.41015">
        <ele>32.6</ele>
        <time>2023-04-19T12:38:57Z</time>
      </trkpt>
      <trkpt lat="49.82807" lon="2.41016">
        <ele>32.6</ele>
        <time>2023-04-19T12:38:59Z</time>
      </trkpt>
      <trkpt lat="49.82807" lon="2.41018">
        <ele>32.6</ele>
        <time>2023-04-19T12:39:00Z</time>
      </trkpt>
      <trkpt lat="49.82809" lon="2.4102">
        <ele>32.6</ele>
        <time>2023-04-19T12:39:01Z</time>
      </trkpt>
      <trkpt lat="49.82809" lon="2.41021">
        <ele>32.7</ele>
        <time>2023-04-19T12:39:02Z</time>
      </trkpt>
      <trkpt lat="49.8281" lon="2.41022">
        <ele>32.7</ele>
        <time>2023-04-19T12:39:03Z</time>
      </trkpt>
      <trkpt lat="49.8281" lon="2.41022">
        <ele>32.7</ele>
        <time>2023-04-19T12:39:04Z</time>
      </trkpt>
      <trkpt lat="49.82811" lon="2.41023">
        <ele>32.7</ele>
        <time>2023-04-19T12:39:05Z</time>
      </trkpt>
      <trkpt lat="49.82812" lon="2.41024">
        <ele>32.7</ele>
        <time>2023-04-19T12:39:06Z</time>
      </trkpt>
      <trkpt lat="49.82813" lon="2.41025">
        <ele>32.7</ele>
        <time>2023-04-19T12:39:08Z</time>
      </trkpt>
      <trkpt lat="49.82814" lon="2.41026">
        <ele>32.7</ele>
        <time>2023-04-19T12:39:09Z</time>
      </trkpt>
      <trkpt lat="49.82815" lon="2.41027">
        <ele>32.7</ele>
        <time>2023-04-19T12:39:10Z</time>
      </trkpt>
      <trkpt lat="49.82816" lon="2.41028">
        <ele>32.7</ele>
        <time>2023-04-19T12:39:11Z</time>
      </trkpt>
      <trkpt lat="49.82817" lon="2.41029">
        <ele>32.7</ele>
        <time>2023-04-19T12:39:12Z</time>
      </trkpt>
      <trkpt lat="49.82817" lon="2.41031">
        <ele>32.7</ele>
        <time>2023-04-19T12:39:13Z</time>
      </trkpt>
      <trkpt lat="49.82818" lon="2.41032">
        <ele>32.7</ele>
        <time>2023-04-19T12:39:14Z</time>
      </trkpt>
      <trkpt lat="49.82819" lon="2.41034">
        <ele>32.7</ele>
        <time>2023-04-19T12:39:15Z</time>
      </trkpt>
      <trkpt lat="49.8282" lon="2.41035">
        <ele>32.8</ele>
        <time>2023-04-19T12:39:17Z</time>
      </trkpt>
      <trkpt lat="49.82821" lon="2.41036">
        <ele>32.8</ele>
        <time>2023-04-19T12:39:18Z</time>
      </trkpt>
      <trkpt lat="49.82822" lon="2.41038">
        <ele>32.8</ele>
        <time>2023-04-19T12:39:19Z</time>
      </trkpt>
      <trkpt lat="49.82824" lon="2.41042">
        <ele>32.8</ele>
        <time>2023-04-19T12:39:20Z</time>
      </trkpt>
      <trkpt lat="49.82824" lon="2.41043">
        <ele>32.8</ele>
        <time>2023-04-19T12:39:21Z</time>
      </trkpt>
      <trkpt lat="49.82825" lon="2.41046">
        <ele>32.8</ele>
        <time>2023-04-19T12:39:23Z</time>
      </trkpt>
      <trkpt lat="49.82826" lon="2.41048">
        <ele>32.9</ele>
        <time>2023-04-19T12:39:24Z</time>
      </trkpt>
      <trkpt lat="49.82827" lon="2.4105">
        <ele>32.9</ele>
        <time>2023-04-19T12:39:25Z</time>
      </trkpt>
      <trkpt lat="49.82828" lon="2.41052">
        <ele>32.9</ele>
        <time>2023-04-19T12:39:26Z</time>
      </trkpt>
      <trkpt lat="49.82829" lon="2.41054">
        <ele>32.9</ele>
        <time>2023-04-19T12:39:27Z</time>
      </trkpt>
      <trkpt lat="49.8283" lon="2.41055">
        <ele>32.9</ele>
        <time>2023-04-19T12:39:28Z</time>
      </trkpt>
      <trkpt lat="49.8283" lon="2.41057">
        <ele>32.9</ele>
        <time>2023-04-19T12:39:29Z</time>
      </trkpt>
      <trkpt lat="49.82831" lon="2.41058">
        <ele>33</ele>
        <time>2023-04-19T12:39:30Z</time>
      </trkpt>
      <trkpt lat="49.82831" lon="2.4106">
        <ele>33</ele>
        <time>2023-04-19T12:39:31Z</time>
      </trkpt>
      <trkpt lat="49.82832" lon="2.41063">
        <ele>33</ele>
        <time>2023-04-19T12:39:32Z</time>
      </trkpt>
      <trkpt lat="49.82833" lon="2.41064">
        <ele>33</ele>
        <time>2023-04-19T12:39:34Z</time>
      </trkpt>
      <trkpt lat="49.82833" lon="2.41065">
        <ele>33</ele>
        <time>2023-04-19T12:39:35Z</time>
      </trkpt>
      <trkpt lat="49.82834" lon="2.41067">
        <ele>33</ele>
        <time>2023-04-19T12:39:36Z</time>
      </trkpt>
      <trkpt lat="49.82834" lon="2.4107">
        <ele>33</ele>
        <time>2023-04-19T12:39:37Z</time>
      </trkpt>
      <trkpt lat="49.82835" lon="2.41074">
        <ele>33</ele>
        <time>2023-04-19T12:39:38Z</time>
      </trkpt>
      <trkpt lat="49.82836" lon="2.41076">
        <ele>33</ele>
        <time>2023-04-19T12:39:40Z</time>
      </trkpt>
      <trkpt lat="49.82836" lon="2.41078">
        <ele>33.1</ele>
        <time>2023-04-19T12:39:42Z</time>
      </trkpt>
      <trkpt lat="49.82837" lon="2.41079">
        <ele>33.1</ele>
        <time>2023-04-19T12:39:43Z</time>
      </trkpt>
      <trkpt lat="49.82837" lon="2.41081">
        <ele>33.1</ele>
        <time>2023-04-19T12:39:44Z</time>
      </trkpt>
      <trkpt lat="49.82837" lon="2.41083">
        <ele>33.1</ele>
        <time>2023-04-19T12:39:45Z</time>
      </trkpt>
      <trkpt lat="49.82838" lon="2.41084">
        <ele>33.1</ele>
        <time>2023-04-19T12:39:46Z</time>
      </trkpt>
      <trkpt lat="49.82838" lon="2.41086">
        <ele>33.1</ele>
        <time>2023-04-19T12:39:47Z</time>
      </trkpt>
      <trkpt lat="49.82839" lon="2.41088">
        <ele>33.1</ele>
        <time>2023-04-19T12:39:48Z</time>
      </trkpt>
      <trkpt lat="49.8284" lon="2.4109">
        <ele>33.1</ele>
        <time>2023-04-19T12:39:49Z</time>
      </trkpt>
      <trkpt lat="49.8284" lon="2.41092">
        <ele>33.1</ele>
        <time>2023-04-19T12:39:51Z</time>
      </trkpt>
      <trkpt lat="49.8284" lon="2.41093">
        <ele>33.1</ele>
        <time>2023-04-19T12:39:52Z</time>
      </trkpt>
      <trkpt lat="49.82841" lon="2.41095">
        <ele>33.1</ele>
        <time>2023-04-19T12:39:53Z</time>
      </trkpt>
      <trkpt lat="49.82841" lon="2.41096">
        <ele>33.1</ele>
        <time>2023-04-19T12:39:54Z</time>
      </trkpt>
      <trkpt lat="49.82842" lon="2.41098">
        <ele>33.1</ele>
        <time>2023-04-19T12:39:55Z</time>
      </trkpt>
      <trkpt lat="49.82842" lon="2.411">
        <ele>33.1</ele>
        <time>2023-04-19T12:39:57Z</time>
      </trkpt>
      <trkpt lat="49.82843" lon="2.41102">
        <ele>33.1</ele>
        <time>2023-04-19T12:39:58Z</time>
      </trkpt>
      <trkpt lat="49.82843" lon="2.41104">
        <ele>33.1</ele>
        <time>2023-04-19T12:39:59Z</time>
      </trkpt>
      <trkpt lat="49.82843" lon="2.41106">
        <ele>33</ele>
        <time>2023-04-19T12:40:00Z</time>
      </trkpt>
      <trkpt lat="49.82844" lon="2.41109">
        <ele>33</ele>
        <time>2023-04-19T12:40:02Z</time>
      </trkpt>
      <trkpt lat="49.82844" lon="2.4111">
        <ele>33</ele>
        <time>2023-04-19T12:40:03Z</time>
      </trkpt>
      <trkpt lat="49.82845" lon="2.41112">
        <ele>33</ele>
        <time>2023-04-19T12:40:04Z</time>
      </trkpt>
      <trkpt lat="49.82845" lon="2.41114">
        <ele>33</ele>
        <time>2023-04-19T12:40:05Z</time>
      </trkpt>
      <trkpt lat="49.82845" lon="2.41115">
        <ele>33</ele>
        <time>2023-04-19T12:40:06Z</time>
      </trkpt>
      <trkpt lat="49.82845" lon="2.41116">
        <ele>33</ele>
        <time>2023-04-19T12:40:07Z</time>
      </trkpt>
      <trkpt lat="49.82846" lon="2.41118">
        <ele>33</ele>
        <time>2023-04-19T12:40:08Z</time>
      </trkpt>
      <trkpt lat="49.82846" lon="2.4112">
        <ele>33</ele>
        <time>2023-04-19T12:40:09Z</time>
      </trkpt>
      <trkpt lat="49.82846" lon="2.41122">
        <ele>33</ele>
        <time>2023-04-19T12:40:11Z</time>
      </trkpt>
      <trkpt lat="49.82847" lon="2.41123">
        <ele>33</ele>
        <time>2023-04-19T12:40:12Z</time>
      </trkpt>
      <trkpt lat="49.82847" lon="2.41125">
        <ele>33</ele>
        <time>2023-04-19T12:40:13Z</time>
      </trkpt>
      <trkpt lat="49.82847" lon="2.41127">
        <ele>33</ele>
        <time>2023-04-19T12:40:14Z</time>
      </trkpt>
      <trkpt lat="49.82847" lon="2.41128">
        <ele>33</ele>
        <time>2023-04-19T12:40:15Z</time>
      </trkpt>
      <trkpt lat="49.82848" lon="2.41129">
        <ele>33</ele>
        <time>2023-04-19T12:40:16Z</time>
      </trkpt>
      <trkpt lat="49.82848" lon="2.41132">
        <ele>33</ele>
        <time>2023-04-19T12:40:17Z</time>
      </trkpt>
      <trkpt lat="49.82848" lon="2.41134">
        <ele>33</ele>
        <time>2023-04-19T12:40:18Z</time>
      </trkpt>
      <trkpt lat="49.82849" lon="2.41135">
        <ele>33</ele>
        <time>2023-04-19T12:40:19Z</time>
      </trkpt>
      <trkpt lat="49.82849" lon="2.41137">
        <ele>33</ele>
        <time>2023-04-19T12:40:21Z</time>
      </trkpt>
      <trkpt lat="49.82849" lon="2.41138">
        <ele>33</ele>
        <time>2023-04-19T12:40:22Z</time>
      </trkpt>
      <trkpt lat="49.82849" lon="2.4114">
        <ele>33</ele>
        <time>2023-04-19T12:40:23Z</time>
      </trkpt>
      <trkpt lat="49.8285" lon="2.41143">
        <ele>33</ele>
        <time>2023-04-19T12:40:24Z</time>
      </trkpt>
      <trkpt lat="49.8285" lon="2.41145">
        <ele>33</ele>
        <time>2023-04-19T12:40:26Z</time>
      </trkpt>
      <trkpt lat="49.8285" lon="2.41147">
        <ele>32.9</ele>
        <time>2023-04-19T12:40:27Z</time>
      </trkpt>
      <trkpt lat="49.82851" lon="2.41148">
        <ele>32.9</ele>
        <time>2023-04-19T12:40:28Z</time>
      </trkpt>
      <trkpt lat="49.82851" lon="2.4115">
        <ele>32.9</ele>
        <time>2023-04-19T12:40:29Z</time>
      </trkpt>
      <trkpt lat="49.82851" lon="2.41152">
        <ele>32.9</ele>
        <time>2023-04-19T12:40:30Z</time>
      </trkpt>
      <trkpt lat="49.82852" lon="2.41154">
        <ele>32.9</ele>
        <time>2023-04-19T12:40:31Z</time>
      </trkpt>
      <trkpt lat="49.82852" lon="2.41157">
        <ele>32.9</ele>
        <time>2023-04-19T12:40:32Z</time>
      </trkpt>
      <trkpt lat="49.82853" lon="2.41159">
        <ele>32.9</ele>
        <time>2023-04-19T12:40:33Z</time>
      </trkpt>
      <trkpt lat="49.82853" lon="2.41163">
        <ele>32.9</ele>
        <time>2023-04-19T12:40:34Z</time>
      </trkpt>
      <trkpt lat="49.82854" lon="2.41165">
        <ele>32.9</ele>
        <time>2023-04-19T12:40:36Z</time>
      </trkpt>
      <trkpt lat="49.82854" lon="2.41166">
        <ele>32.8</ele>
        <time>2023-04-19T12:40:37Z</time>
      </trkpt>
      <trkpt lat="49.82854" lon="2.41168">
        <ele>32.8</ele>
        <time>2023-04-19T12:40:38Z</time>
      </trkpt>
      <trkpt lat="49.82855" lon="2.41169">
        <ele>32.8</ele>
        <time>2023-04-19T12:40:39Z</time>
      </trkpt>
      <trkpt lat="49.82855" lon="2.41172">
        <ele>32.8</ele>
        <time>2023-04-19T12:40:40Z</time>
      </trkpt>
      <trkpt lat="49.82856" lon="2.41174">
        <ele>32.8</ele>
        <time>2023-04-19T12:40:41Z</time>
      </trkpt>
      <trkpt lat="49.82856" lon="2.41175">
        <ele>32.8</ele>
        <time>2023-04-19T12:40:42Z</time>
      </trkpt>
      <trkpt lat="49.82857" lon="2.41177">
        <ele>32.8</ele>
        <time>2023-04-19T12:40:43Z</time>
      </trkpt>
      <trkpt lat="49.82857" lon="2.41179">
        <ele>32.8</ele>
        <time>2023-04-19T12:40:44Z</time>
      </trkpt>
      <trkpt lat="49.82857" lon="2.41181">
        <ele>32.8</ele>
        <time>2023-04-19T12:40:46Z</time>
      </trkpt>
      <trkpt lat="49.82858" lon="2.41184">
        <ele>32.7</ele>
        <time>2023-04-19T12:40:47Z</time>
      </trkpt>
      <trkpt lat="49.82859" lon="2.41185">
        <ele>32.7</ele>
        <time>2023-04-19T12:40:48Z</time>
      </trkpt>
      <trkpt lat="49.82859" lon="2.41187">
        <ele>32.7</ele>
        <time>2023-04-19T12:40:49Z</time>
      </trkpt>
      <trkpt lat="49.82859" lon="2.41188">
        <ele>32.7</ele>
        <time>2023-04-19T12:40:50Z</time>
      </trkpt>
      <trkpt lat="49.8286" lon="2.4119">
        <ele>32.7</ele>
        <time>2023-04-19T12:40:51Z</time>
      </trkpt>
      <trkpt lat="49.8286" lon="2.41191">
        <ele>32.7</ele>
        <time>2023-04-19T12:40:52Z</time>
      </trkpt>
      <trkpt lat="49.8286" lon="2.41193">
        <ele>32.7</ele>
        <time>2023-04-19T12:40:53Z</time>
      </trkpt>
      <trkpt lat="49.82861" lon="2.41194">
        <ele>32.7</ele>
        <time>2023-04-19T12:40:54Z</time>
      </trkpt>
      <trkpt lat="49.82861" lon="2.41196">
        <ele>32.7</ele>
        <time>2023-04-19T12:40:56Z</time>
      </trkpt>
      <trkpt lat="49.82862" lon="2.41197">
        <ele>32.7</ele>
        <time>2023-04-19T12:40:57Z</time>
      </trkpt>
      <trkpt lat="49.82862" lon="2.41199">
        <ele>32.7</ele>
        <time>2023-04-19T12:40:58Z</time>
      </trkpt>
      <trkpt lat="49.82863" lon="2.41201">
        <ele>32.7</ele>
        <time>2023-04-19T12:40:59Z</time>
      </trkpt>
      <trkpt lat="49.82863" lon="2.41204">
        <ele>32.6</ele>
        <time>2023-04-19T12:41:00Z</time>
      </trkpt>
      <trkpt lat="49.82863" lon="2.41205">
        <ele>32.6</ele>
        <time>2023-04-19T12:41:01Z</time>
      </trkpt>
      <trkpt lat="49.82863" lon="2.41206">
        <ele>32.6</ele>
        <time>2023-04-19T12:41:02Z</time>
      </trkpt>
      <trkpt lat="49.82863" lon="2.4121">
        <ele>32.6</ele>
        <time>2023-04-19T12:41:03Z</time>
      </trkpt>
      <trkpt lat="49.82864" lon="2.41211">
        <ele>32.6</ele>
        <time>2023-04-19T12:41:05Z</time>
      </trkpt>
      <trkpt lat="49.82864" lon="2.41213">
        <ele>32.6</ele>
        <time>2023-04-19T12:41:06Z</time>
      </trkpt>
      <trkpt lat="49.82864" lon="2.41214">
        <ele>32.6</ele>
        <time>2023-04-19T12:41:07Z</time>
      </trkpt>
      <trkpt lat="49.82865" lon="2.41215">
        <ele>32.6</ele>
        <time>2023-04-19T12:41:08Z</time>
      </trkpt>
      <trkpt lat="49.82865" lon="2.41217">
        <ele>32.6</ele>
        <time>2023-04-19T12:41:09Z</time>
      </trkpt>
      <trkpt lat="49.82866" lon="2.41219">
        <ele>32.6</ele>
        <time>2023-04-19T12:41:10Z</time>
      </trkpt>
      <trkpt lat="49.82867" lon="2.41222">
        <ele>32.6</ele>
        <time>2023-04-19T12:41:11Z</time>
      </trkpt>
      <trkpt lat="49.82868" lon="2.41226">
        <ele>32.6</ele>
        <time>2023-04-19T12:41:12Z</time>
      </trkpt>
      <trkpt lat="49.82868" lon="2.41227">
        <ele>32.6</ele>
        <time>2023-04-19T12:41:14Z</time>
      </trkpt>
      <trkpt lat="49.82868" lon="2.41229">
        <ele>32.6</ele>
        <time>2023-04-19T12:41:15Z</time>
      </trkpt>
      <trkpt lat="49.82869" lon="2.41231">
        <ele>32.6</ele>
        <time>2023-04-19T12:41:16Z</time>
      </trkpt>
      <trkpt lat="49.82869" lon="2.41232">
        <ele>32.6</ele>
        <time>2023-04-19T12:41:17Z</time>
      </trkpt>
      <trkpt lat="49.8287" lon="2.41234">
        <ele>32.5</ele>
        <time>2023-04-19T12:41:18Z</time>
      </trkpt>
      <trkpt lat="49.8287" lon="2.41236">
        <ele>32.5</ele>
        <time>2023-04-19T12:41:19Z</time>
      </trkpt>
      <trkpt lat="49.82871" lon="2.41238">
        <ele>32.5</ele>
        <time>2023-04-19T12:41:20Z</time>
      </trkpt>
      <trkpt lat="49.82871" lon="2.4124">
        <ele>32.5</ele>
        <time>2023-04-19T12:41:21Z</time>
      </trkpt>
      <trkpt lat="49.82871" lon="2.41241">
        <ele>32.5</ele>
        <time>2023-04-19T12:41:22Z</time>
      </trkpt>
      <trkpt lat="49.82871" lon="2.41242">
        <ele>32.5</ele>
        <time>2023-04-19T12:41:24Z</time>
      </trkpt>
      <trkpt lat="49.82872" lon="2.41244">
        <ele>32.5</ele>
        <time>2023-04-19T12:41:25Z</time>
      </trkpt>
      <trkpt lat="49.82872" lon="2.41246">
        <ele>32.5</ele>
        <time>2023-04-19T12:41:26Z</time>
      </trkpt>
      <trkpt lat="49.82872" lon="2.41249">
        <ele>32.5</ele>
        <time>2023-04-19T12:41:27Z</time>
      </trkpt>
      <trkpt lat="49.82873" lon="2.41251">
        <ele>32.5</ele>
        <time>2023-04-19T12:41:28Z</time>
      </trkpt>
      <trkpt lat="49.82873" lon="2.41252">
        <ele>32.5</ele>
        <time>2023-04-19T12:41:29Z</time>
      </trkpt>
      <trkpt lat="49.82873" lon="2.41253">
        <ele>32.5</ele>
        <time>2023-04-19T12:41:30Z</time>
      </trkpt>
      <trkpt lat="49.82873" lon="2.41255">
        <ele>32.5</ele>
        <time>2023-04-19T12:41:31Z</time>
      </trkpt>
      <trkpt lat="49.82873" lon="2.41256">
        <ele>32.5</ele>
        <time>2023-04-19T12:41:32Z</time>
      </trkpt>
      <trkpt lat="49.82874" lon="2.41257">
        <ele>32.6</ele>
        <time>2023-04-19T12:41:34Z</time>
      </trkpt>
      <trkpt lat="49.82874" lon="2.41259">
        <ele>32.6</ele>
        <time>2023-04-19T12:41:35Z</time>
      </trkpt>
      <trkpt lat="49.82874" lon="2.4126">
        <ele>32.6</ele>
        <time>2023-04-19T12:41:36Z</time>
      </trkpt>
      <trkpt lat="49.82874" lon="2.41263">
        <ele>32.6</ele>
        <time>2023-04-19T12:41:37Z</time>
      </trkpt>
      <trkpt lat="49.82874" lon="2.41265">
        <ele>32.6</ele>
        <time>2023-04-19T12:41:39Z</time>
      </trkpt>
      <trkpt lat="49.82874" lon="2.41266">
        <ele>32.6</ele>
        <time>2023-04-19T12:41:40Z</time>
      </trkpt>
      <trkpt lat="49.82875" lon="2.4127">
        <ele>32.6</ele>
        <time>2023-04-19T12:41:41Z</time>
      </trkpt>
      <trkpt lat="49.82875" lon="2.41271">
        <ele>32.6</ele>
        <time>2023-04-19T12:41:42Z</time>
      </trkpt>
      <trkpt lat="49.82875" lon="2.41272">
        <ele>32.6</ele>
        <time>2023-04-19T12:41:43Z</time>
      </trkpt>
      <trkpt lat="49.82875" lon="2.41274">
        <ele>32.6</ele>
        <time>2023-04-19T12:41:44Z</time>
      </trkpt>
      <trkpt lat="49.82875" lon="2.41276">
        <ele>32.6</ele>
        <time>2023-04-19T12:41:45Z</time>
      </trkpt>
      <trkpt lat="49.82875" lon="2.41277">
        <ele>32.6</ele>
        <time>2023-04-19T12:41:46Z</time>
      </trkpt>
      <trkpt lat="49.82876" lon="2.4128">
        <ele>32.6</ele>
        <time>2023-04-19T12:41:47Z</time>
      </trkpt>
      <trkpt lat="49.82876" lon="2.41282">
        <ele>32.6</ele>
        <time>2023-04-19T12:41:49Z</time>
      </trkpt>
      <trkpt lat="49.82876" lon="2.41283">
        <ele>32.6</ele>
        <time>2023-04-19T12:41:50Z</time>
      </trkpt>
      <trkpt lat="49.82876" lon="2.41284">
        <ele>32.6</ele>
        <time>2023-04-19T12:41:51Z</time>
      </trkpt>
      <trkpt lat="49.82876" lon="2.41285">
        <ele>32.6</ele>
        <time>2023-04-19T12:41:52Z</time>
      </trkpt>
      <trkpt lat="49.82876" lon="2.41287">
        <ele>32.6</ele>
        <time>2023-04-19T12:41:53Z</time>
      </trkpt>
      <trkpt lat="49.82876" lon="2.41288">
        <ele>32.6</ele>
        <time>2023-04-19T12:41:54Z</time>
      </trkpt>
      <trkpt lat="49.82877" lon="2.41291">
        <ele>32.6</ele>
        <time>2023-04-19T12:41:56Z</time>
      </trkpt>
      <trkpt lat="49.82877" lon="2.41293">
        <ele>32.6</ele>
        <time>2023-04-19T12:41:57Z</time>
      </trkpt>
      <trkpt lat="49.82877" lon="2.41295">
        <ele>32.6</ele>
        <time>2023-04-19T12:41:58Z</time>
      </trkpt>
      <trkpt lat="49.82877" lon="2.41297">
        <ele>32.6</ele>
        <time>2023-04-19T12:41:59Z</time>
      </trkpt>
      <trkpt lat="49.82877" lon="2.41302">
        <ele>32.6</ele>
        <time>2023-04-19T12:42:01Z</time>
      </trkpt>
      <trkpt lat="49.82877" lon="2.41305">
        <ele>32.6</ele>
        <time>2023-04-19T12:42:03Z</time>
      </trkpt>
      <trkpt lat="49.82877" lon="2.41306">
        <ele>32.6</ele>
        <time>2023-04-19T12:42:04Z</time>
      </trkpt>
      <trkpt lat="49.82877" lon="2.41309">
        <ele>32.6</ele>
        <time>2023-04-19T12:42:05Z</time>
      </trkpt>
      <trkpt lat="49.82877" lon="2.41311">
        <ele>32.6</ele>
        <time>2023-04-19T12:42:06Z</time>
      </trkpt>
      <trkpt lat="49.82877" lon="2.41314">
        <ele>32.6</ele>
        <time>2023-04-19T12:42:07Z</time>
      </trkpt>
      <trkpt lat="49.82877" lon="2.41316">
        <ele>32.6</ele>
        <time>2023-04-19T12:42:08Z</time>
      </trkpt>
      <trkpt lat="49.82878" lon="2.41317">
        <ele>32.6</ele>
        <time>2023-04-19T12:42:09Z</time>
      </trkpt>
      <trkpt lat="49.82878" lon="2.4132">
        <ele>32.6</ele>
        <time>2023-04-19T12:42:10Z</time>
      </trkpt>
      <trkpt lat="49.82879" lon="2.41322">
        <ele>32.6</ele>
        <time>2023-04-19T12:42:11Z</time>
      </trkpt>
      <trkpt lat="49.82879" lon="2.41326">
        <ele>32.6</ele>
        <time>2023-04-19T12:42:12Z</time>
      </trkpt>
      <trkpt lat="49.82879" lon="2.41328">
        <ele>32.6</ele>
        <time>2023-04-19T12:42:14Z</time>
      </trkpt>
      <trkpt lat="49.82879" lon="2.4133">
        <ele>32.6</ele>
        <time>2023-04-19T12:42:15Z</time>
      </trkpt>
      <trkpt lat="49.82879" lon="2.41331">
        <ele>32.6</ele>
        <time>2023-04-19T12:42:16Z</time>
      </trkpt>
      <trkpt lat="49.82879" lon="2.41333">
        <ele>32.6</ele>
        <time>2023-04-19T12:42:17Z</time>
      </trkpt>
      <trkpt lat="49.82879" lon="2.41335">
        <ele>32.6</ele>
        <time>2023-04-19T12:42:18Z</time>
      </trkpt>
      <trkpt lat="49.82879" lon="2.41337">
        <ele>32.6</ele>
        <time>2023-04-19T12:42:19Z</time>
      </trkpt>
      <trkpt lat="49.82879" lon="2.41339">
        <ele>32.6</ele>
        <time>2023-04-19T12:42:20Z</time>
      </trkpt>
      <trkpt lat="49.8288" lon="2.41342">
        <ele>32.6</ele>
        <time>2023-04-19T12:42:21Z</time>
      </trkpt>
      <trkpt lat="49.8288" lon="2.41343">
        <ele>32.7</ele>
        <time>2023-04-19T12:42:22Z</time>
      </trkpt>
      <trkpt lat="49.82881" lon="2.41345">
        <ele>32.7</ele>
        <time>2023-04-19T12:42:23Z</time>
      </trkpt>
      <trkpt lat="49.82881" lon="2.41346">
        <ele>32.7</ele>
        <time>2023-04-19T12:42:25Z</time>
      </trkpt>
      <trkpt lat="49.82882" lon="2.41347">
        <ele>32.7</ele>
        <time>2023-04-19T12:42:26Z</time>
      </trkpt>
      <trkpt lat="49.82882" lon="2.41349">
        <ele>32.7</ele>
        <time>2023-04-19T12:42:27Z</time>
      </trkpt>
      <trkpt lat="49.82882" lon="2.4135">
        <ele>32.7</ele>
        <time>2023-04-19T12:42:28Z</time>
      </trkpt>
      <trkpt lat="49.82883" lon="2.41353">
        <ele>32.7</ele>
        <time>2023-04-19T12:42:29Z</time>
      </trkpt>
      <trkpt lat="49.82883" lon="2.41354">
        <ele>32.7</ele>
        <time>2023-04-19T12:42:30Z</time>
      </trkpt>
      <trkpt lat="49.82883" lon="2.41355">
        <ele>32.7</ele>
        <time>2023-04-19T12:42:31Z</time>
      </trkpt>
      <trkpt lat="49.82883" lon="2.41356">
        <ele>32.7</ele>
        <time>2023-04-19T12:42:32Z</time>
      </trkpt>
      <trkpt lat="49.82884" lon="2.41358">
        <ele>32.7</ele>
        <time>2023-04-19T12:42:34Z</time>
      </trkpt>
      <trkpt lat="49.82884" lon="2.41359">
        <ele>32.7</ele>
        <time>2023-04-19T12:42:35Z</time>
      </trkpt>
      <trkpt lat="49.82884" lon="2.41361">
        <ele>32.7</ele>
        <time>2023-04-19T12:42:36Z</time>
      </trkpt>
      <trkpt lat="49.82884" lon="2.41363">
        <ele>32.7</ele>
        <time>2023-04-19T12:42:37Z</time>
      </trkpt>
      <trkpt lat="49.82884" lon="2.41364">
        <ele>32.7</ele>
        <time>2023-04-19T12:42:38Z</time>
      </trkpt>
      <trkpt lat="49.82885" lon="2.41366">
        <ele>32.7</ele>
        <time>2023-04-19T12:42:39Z</time>
      </trkpt>
      <trkpt lat="49.82885" lon="2.41369">
        <ele>32.7</ele>
        <time>2023-04-19T12:42:41Z</time>
      </trkpt>
      <trkpt lat="49.82885" lon="2.41371">
        <ele>32.6</ele>
        <time>2023-04-19T12:42:42Z</time>
      </trkpt>
      <trkpt lat="49.82885" lon="2.41372">
        <ele>32.6</ele>
        <time>2023-04-19T12:42:43Z</time>
      </trkpt>
      <trkpt lat="49.82885" lon="2.41373">
        <ele>32.6</ele>
        <time>2023-04-19T12:42:44Z</time>
      </trkpt>
      <trkpt lat="49.82886" lon="2.41375">
        <ele>32.6</ele>
        <time>2023-04-19T12:42:45Z</time>
      </trkpt>
      <trkpt lat="49.82886" lon="2.41377">
        <ele>32.6</ele>
        <time>2023-04-19T12:42:47Z</time>
      </trkpt>
      <trkpt lat="49.82886" lon="2.41379">
        <ele>32.6</ele>
        <time>2023-04-19T12:42:48Z</time>
      </trkpt>
      <trkpt lat="49.82886" lon="2.4138">
        <ele>32.6</ele>
        <time>2023-04-19T12:42:49Z</time>
      </trkpt>
      <trkpt lat="49.82886" lon="2.41381">
        <ele>32.6</ele>
        <time>2023-04-19T12:42:50Z</time>
      </trkpt>
      <trkpt lat="49.82887" lon="2.41383">
        <ele>32.6</ele>
        <time>2023-04-19T12:42:51Z</time>
      </trkpt>
      <trkpt lat="49.82887" lon="2.41385">
        <ele>32.6</ele>
        <time>2023-04-19T12:42:52Z</time>
      </trkpt>
      <trkpt lat="49.82887" lon="2.41389">
        <ele>32.6</ele>
        <time>2023-04-19T12:42:53Z</time>
      </trkpt>
      <trkpt lat="49.82888" lon="2.41391">
        <ele>32.5</ele>
        <time>2023-04-19T12:42:54Z</time>
      </trkpt>
      <trkpt lat="49.82888" lon="2.41392">
        <ele>32.5</ele>
        <time>2023-04-19T12:42:55Z</time>
      </trkpt>
      <trkpt lat="49.82888" lon="2.41394">
        <ele>32.5</ele>
        <time>2023-04-19T12:42:56Z</time>
      </trkpt>
      <trkpt lat="49.82888" lon="2.41395">
        <ele>32.5</ele>
        <time>2023-04-19T12:42:58Z</time>
      </trkpt>
      <trkpt lat="49.82889" lon="2.41397">
        <ele>32.5</ele>
        <time>2023-04-19T12:42:59Z</time>
      </trkpt>
      <trkpt lat="49.82889" lon="2.41399">
        <ele>32.5</ele>
        <time>2023-04-19T12:43:00Z</time>
      </trkpt>
      <trkpt lat="49.82889" lon="2.41401">
        <ele>32.5</ele>
        <time>2023-04-19T12:43:01Z</time>
      </trkpt>
      <trkpt lat="49.8289" lon="2.41403">
        <ele>32.5</ele>
        <time>2023-04-19T12:43:02Z</time>
      </trkpt>
      <trkpt lat="49.8289" lon="2.41405">
        <ele>32.5</ele>
        <time>2023-04-19T12:43:03Z</time>
      </trkpt>
      <trkpt lat="49.8289" lon="2.41408">
        <ele>32.5</ele>
        <time>2023-04-19T12:43:04Z</time>
      </trkpt>
      <trkpt lat="49.8289" lon="2.41409">
        <ele>32.5</ele>
        <time>2023-04-19T12:43:05Z</time>
      </trkpt>
      <trkpt lat="49.8289" lon="2.41411">
        <ele>32.5</ele>
        <time>2023-04-19T12:43:07Z</time>
      </trkpt>
      <trkpt lat="49.8289" lon="2.41413">
        <ele>32.5</ele>
        <time>2023-04-19T12:43:08Z</time>
      </trkpt>
      <trkpt lat="49.8289" lon="2.41414">
        <ele>32.5</ele>
        <time>2023-04-19T12:43:09Z</time>
      </trkpt>
      <trkpt lat="49.8289" lon="2.41417">
        <ele>32.5</ele>
        <time>2023-04-19T12:43:10Z</time>
      </trkpt>
      <trkpt lat="49.8289" lon="2.41419">
        <ele>32.6</ele>
        <time>2023-04-19T12:43:11Z</time>
      </trkpt>
      <trkpt lat="49.8289" lon="2.41422">
        <ele>32.6</ele>
        <time>2023-04-19T12:43:13Z</time>
      </trkpt>
      <trkpt lat="49.8289" lon="2.41424">
        <ele>32.6</ele>
        <time>2023-04-19T12:43:14Z</time>
      </trkpt>
      <trkpt lat="49.8289" lon="2.41427">
        <ele>32.6</ele>
        <time>2023-04-19T12:43:15Z</time>
      </trkpt>
      <trkpt lat="49.8289" lon="2.41429">
        <ele>32.6</ele>
        <time>2023-04-19T12:43:16Z</time>
      </trkpt>
      <trkpt lat="49.8289" lon="2.41432">
        <ele>32.6</ele>
        <time>2023-04-19T12:43:17Z</time>
      </trkpt>
      <trkpt lat="49.8289" lon="2.41433">
        <ele>32.6</ele>
        <time>2023-04-19T12:43:18Z</time>
      </trkpt>
      <trkpt lat="49.8289" lon="2.41434">
        <ele>32.6</ele>
        <time>2023-04-19T12:43:19Z</time>
      </trkpt>
      <trkpt lat="49.8289" lon="2.41437">
        <ele>32.6</ele>
        <time>2023-04-19T12:43:20Z</time>
      </trkpt>
      <trkpt lat="49.8289" lon="2.41439">
        <ele>32.6</ele>
        <time>2023-04-19T12:43:21Z</time>
      </trkpt>
      <trkpt lat="49.82891" lon="2.41442">
        <ele>32.6</ele>
        <time>2023-04-19T12:43:23Z</time>
      </trkpt>
      <trkpt lat="49.82891" lon="2.41444">
        <ele>32.7</ele>
        <time>2023-04-19T12:43:24Z</time>
      </trkpt>
      <trkpt lat="49.82891" lon="2.41446">
        <ele>32.7</ele>
        <time>2023-04-19T12:43:25Z</time>
      </trkpt>
      <trkpt lat="49.82891" lon="2.41447">
        <ele>32.7</ele>
        <time>2023-04-19T12:43:26Z</time>
      </trkpt>
      <trkpt lat="49.82892" lon="2.41449">
        <ele>32.7</ele>
        <time>2023-04-19T12:43:27Z</time>
      </trkpt>
      <trkpt lat="49.82892" lon="2.41451">
        <ele>32.7</ele>
        <time>2023-04-19T12:43:28Z</time>
      </trkpt>
      <trkpt lat="49.82892" lon="2.41453">
        <ele>32.7</ele>
        <time>2023-04-19T12:43:29Z</time>
      </trkpt>
      <trkpt lat="49.82892" lon="2.41454">
        <ele>32.7</ele>
        <time>2023-04-19T12:43:31Z</time>
      </trkpt>
      <trkpt lat="49.82892" lon="2.41456">
        <ele>32.7</ele>
        <time>2023-04-19T12:43:32Z</time>
      </trkpt>
      <trkpt lat="49.82891" lon="2.41458">
        <ele>32.7</ele>
        <time>2023-04-19T12:43:33Z</time>
      </trkpt>
      <trkpt lat="49.82891" lon="2.4146">
        <ele>32.7</ele>
        <time>2023-04-19T12:43:34Z</time>
      </trkpt>
      <trkpt lat="49.82891" lon="2.41464">
        <ele>32.7</ele>
        <time>2023-04-19T12:43:35Z</time>
      </trkpt>
      <trkpt lat="49.82892" lon="2.41465">
        <ele>32.7</ele>
        <time>2023-04-19T12:43:36Z</time>
      </trkpt>
      <trkpt lat="49.82892" lon="2.41466">
        <ele>32.7</ele>
        <time>2023-04-19T12:43:37Z</time>
      </trkpt>
      <trkpt lat="49.82892" lon="2.41468">
        <ele>32.7</ele>
        <time>2023-04-19T12:43:39Z</time>
      </trkpt>
      <trkpt lat="49.82892" lon="2.4147">
        <ele>32.7</ele>
        <time>2023-04-19T12:43:40Z</time>
      </trkpt>
      <trkpt lat="49.82892" lon="2.41471">
        <ele>32.7</ele>
        <time>2023-04-19T12:43:41Z</time>
      </trkpt>
      <trkpt lat="49.82893" lon="2.41473">
        <ele>32.7</ele>
        <time>2023-04-19T12:43:42Z</time>
      </trkpt>
      <trkpt lat="49.82893" lon="2.41474">
        <ele>32.7</ele>
        <time>2023-04-19T12:43:43Z</time>
      </trkpt>
      <trkpt lat="49.82893" lon="2.41476">
        <ele>32.7</ele>
        <time>2023-04-19T12:43:44Z</time>
      </trkpt>
      <trkpt lat="49.82894" lon="2.41479">
        <ele>32.7</ele>
        <time>2023-04-19T12:43:46Z</time>
      </trkpt>
      <trkpt lat="49.82895" lon="2.41481">
        <ele>32.7</ele>
        <time>2023-04-19T12:43:47Z</time>
      </trkpt>
      <trkpt lat="49.82895" lon="2.41483">
        <ele>32.7</ele>
        <time>2023-04-19T12:43:48Z</time>
      </trkpt>
      <trkpt lat="49.82895" lon="2.41485">
        <ele>32.7</ele>
        <time>2023-04-19T12:43:49Z</time>
      </trkpt>
      <trkpt lat="49.82896" lon="2.41485">
        <ele>32.7</ele>
        <time>2023-04-19T12:43:50Z</time>
      </trkpt>
      <trkpt lat="49.82896" lon="2.41487">
        <ele>32.7</ele>
        <time>2023-04-19T12:43:51Z</time>
      </trkpt>
      <trkpt lat="49.82897" lon="2.41489">
        <ele>32.7</ele>
        <time>2023-04-19T12:43:53Z</time>
      </trkpt>
      <trkpt lat="49.82897" lon="2.4149">
        <ele>32.8</ele>
        <time>2023-04-19T12:43:54Z</time>
      </trkpt>
      <trkpt lat="49.82898" lon="2.41492">
        <ele>32.8</ele>
        <time>2023-04-19T12:43:55Z</time>
      </trkpt>
      <trkpt lat="49.82898" lon="2.41492">
        <ele>32.8</ele>
        <time>2023-04-19T12:43:56Z</time>
      </trkpt>
      <trkpt lat="49.82897" lon="2.41494">
        <ele>32.8</ele>
        <time>2023-04-19T12:43:57Z</time>
      </trkpt>
      <trkpt lat="49.82897" lon="2.41495">
        <ele>32.8</ele>
        <time>2023-04-19T12:43:58Z</time>
      </trkpt>
      <trkpt lat="49.82897" lon="2.41497">
        <ele>32.8</ele>
        <time>2023-04-19T12:43:59Z</time>
      </trkpt>
      <trkpt lat="49.82897" lon="2.41498">
        <ele>32.8</ele>
        <time>2023-04-19T12:44:01Z</time>
      </trkpt>
      <trkpt lat="49.82897" lon="2.415">
        <ele>32.8</ele>
        <time>2023-04-19T12:44:02Z</time>
      </trkpt>
      <trkpt lat="49.82897" lon="2.41503">
        <ele>32.8</ele>
        <time>2023-04-19T12:44:03Z</time>
      </trkpt>
      <trkpt lat="49.82897" lon="2.41504">
        <ele>32.8</ele>
        <time>2023-04-19T12:44:04Z</time>
      </trkpt>
      <trkpt lat="49.82897" lon="2.41506">
        <ele>32.8</ele>
        <time>2023-04-19T12:44:05Z</time>
      </trkpt>
      <trkpt lat="49.82897" lon="2.41507">
        <ele>32.8</ele>
        <time>2023-04-19T12:44:06Z</time>
      </trkpt>
      <trkpt lat="49.82897" lon="2.41509">
        <ele>32.8</ele>
        <time>2023-04-19T12:44:07Z</time>
      </trkpt>
      <trkpt lat="49.82897" lon="2.41511">
        <ele>32.8</ele>
        <time>2023-04-19T12:44:08Z</time>
      </trkpt>
      <trkpt lat="49.82897" lon="2.41513">
        <ele>32.9</ele>
        <time>2023-04-19T12:44:09Z</time>
      </trkpt>
      <trkpt lat="49.82896" lon="2.41515">
        <ele>32.9</ele>
        <time>2023-04-19T12:44:10Z</time>
      </trkpt>
      <trkpt lat="49.82896" lon="2.41517">
        <ele>32.9</ele>
        <time>2023-04-19T12:44:12Z</time>
      </trkpt>
      <trkpt lat="49.82896" lon="2.41518">
        <ele>32.9</ele>
        <time>2023-04-19T12:44:13Z</time>
      </trkpt>
      <trkpt lat="49.82896" lon="2.4152">
        <ele>32.9</ele>
        <time>2023-04-19T12:44:14Z</time>
      </trkpt>
      <trkpt lat="49.82895" lon="2.41522">
        <ele>32.9</ele>
        <time>2023-04-19T12:44:15Z</time>
      </trkpt>
      <trkpt lat="49.82895" lon="2.41523">
        <ele>32.9</ele>
        <time>2023-04-19T12:44:16Z</time>
      </trkpt>
      <trkpt lat="49.82894" lon="2.41525">
        <ele>32.9</ele>
        <time>2023-04-19T12:44:17Z</time>
      </trkpt>
      <trkpt lat="49.82894" lon="2.41526">
        <ele>32.9</ele>
        <time>2023-04-19T12:44:19Z</time>
      </trkpt>
      <trkpt lat="49.82894" lon="2.41529">
        <ele>32.9</ele>
        <time>2023-04-19T12:44:20Z</time>
      </trkpt>
      <trkpt lat="49.82894" lon="2.4153">
        <ele>32.9</ele>
        <time>2023-04-19T12:44:21Z</time>
      </trkpt>
      <trkpt lat="49.82894" lon="2.41532">
        <ele>32.9</ele>
        <time>2023-04-19T12:44:22Z</time>
      </trkpt>
      <trkpt lat="49.82894" lon="2.41534">
        <ele>32.9</ele>
        <time>2023-04-19T12:44:23Z</time>
      </trkpt>
      <trkpt lat="49.82894" lon="2.41536">
        <ele>33</ele>
        <time>2023-04-19T12:44:24Z</time>
      </trkpt>
      <trkpt lat="49.82894" lon="2.41538">
        <ele>33</ele>
        <time>2023-04-19T12:44:26Z</time>
      </trkpt>
      <trkpt lat="49.82893" lon="2.41541">
        <ele>33</ele>
        <time>2023-04-19T12:44:27Z</time>
      </trkpt>
      <trkpt lat="49.82893" lon="2.41544">
        <ele>33</ele>
        <time>2023-04-19T12:44:29Z</time>
      </trkpt>
      <trkpt lat="49.82893" lon="2.41546">
        <ele>33</ele>
        <time>2023-04-19T12:44:30Z</time>
      </trkpt>
      <trkpt lat="49.82892" lon="2.41548">
        <ele>33</ele>
        <time>2023-04-19T12:44:31Z</time>
      </trkpt>
      <trkpt lat="49.82892" lon="2.41551">
        <ele>33</ele>
        <time>2023-04-19T12:44:32Z</time>
      </trkpt>
      <trkpt lat="49.82892" lon="2.41553">
        <ele>33</ele>
        <time>2023-04-19T12:44:34Z</time>
      </trkpt>
      <trkpt lat="49.82892" lon="2.41554">
        <ele>33</ele>
        <time>2023-04-19T12:44:35Z</time>
      </trkpt>
      <trkpt lat="49.82892" lon="2.41555">
        <ele>33</ele>
        <time>2023-04-19T12:44:36Z</time>
      </trkpt>
      <trkpt lat="49.82891" lon="2.41557">
        <ele>33.1</ele>
        <time>2023-04-19T12:44:37Z</time>
      </trkpt>
      <trkpt lat="49.82891" lon="2.41559">
        <ele>33.1</ele>
        <time>2023-04-19T12:44:38Z</time>
      </trkpt>
      <trkpt lat="49.82891" lon="2.41561">
        <ele>33.1</ele>
        <time>2023-04-19T12:44:39Z</time>
      </trkpt>
      <trkpt lat="49.82891" lon="2.41563">
        <ele>33.1</ele>
        <time>2023-04-19T12:44:40Z</time>
      </trkpt>
      <trkpt lat="49.82891" lon="2.41564">
        <ele>33.1</ele>
        <time>2023-04-19T12:44:41Z</time>
      </trkpt>
      <trkpt lat="49.82891" lon="2.41567">
        <ele>33.1</ele>
        <time>2023-04-19T12:44:43Z</time>
      </trkpt>
      <trkpt lat="49.8289" lon="2.41568">
        <ele>33.1</ele>
        <time>2023-04-19T12:44:44Z</time>
      </trkpt>
      <trkpt lat="49.8289" lon="2.4157">
        <ele>33.1</ele>
        <time>2023-04-19T12:44:45Z</time>
      </trkpt>
      <trkpt lat="49.8289" lon="2.41571">
        <ele>33.1</ele>
        <time>2023-04-19T12:44:46Z</time>
      </trkpt>
      <trkpt lat="49.8289" lon="2.41573">
        <ele>33.1</ele>
        <time>2023-04-19T12:44:47Z</time>
      </trkpt>
      <trkpt lat="49.8289" lon="2.41576">
        <ele>33.2</ele>
        <time>2023-04-19T12:44:49Z</time>
      </trkpt>
      <trkpt lat="49.8289" lon="2.41578">
        <ele>33.2</ele>
        <time>2023-04-19T12:44:50Z</time>
      </trkpt>
      <trkpt lat="49.82889" lon="2.4158">
        <ele>33.2</ele>
        <time>2023-04-19T12:44:51Z</time>
      </trkpt>
      <trkpt lat="49.82889" lon="2.41581">
        <ele>33.2</ele>
        <time>2023-04-19T12:44:52Z</time>
      </trkpt>
      <trkpt lat="49.82889" lon="2.41583">
        <ele>33.2</ele>
        <time>2023-04-19T12:44:53Z</time>
      </trkpt>
      <trkpt lat="49.82889" lon="2.41586">
        <ele>33.2</ele>
        <time>2023-04-19T12:44:54Z</time>
      </trkpt>
      <trkpt lat="49.82889" lon="2.41588">
        <ele>33.3</ele>
        <time>2023-04-19T12:44:56Z</time>
      </trkpt>
      <trkpt lat="49.82888" lon="2.41589">
        <ele>33.3</ele>
        <time>2023-04-19T12:44:57Z</time>
      </trkpt>
      <trkpt lat="49.82888" lon="2.41591">
        <ele>33.3</ele>
        <time>2023-04-19T12:44:58Z</time>
      </trkpt>
      <trkpt lat="49.82887" lon="2.41593">
        <ele>33.3</ele>
        <time>2023-04-19T12:44:59Z</time>
      </trkpt>
      <trkpt lat="49.82887" lon="2.41596">
        <ele>33.3</ele>
        <time>2023-04-19T12:45:00Z</time>
      </trkpt>
      <trkpt lat="49.82886" lon="2.41598">
        <ele>33.3</ele>
        <time>2023-04-19T12:45:01Z</time>
      </trkpt>
      <trkpt lat="49.82885" lon="2.416">
        <ele>33.3</ele>
        <time>2023-04-19T12:45:02Z</time>
      </trkpt>
      <trkpt lat="49.82885" lon="2.41601">
        <ele>33.4</ele>
        <time>2023-04-19T12:45:03Z</time>
      </trkpt>
      <trkpt lat="49.82884" lon="2.41604">
        <ele>33.4</ele>
        <time>2023-04-19T12:45:05Z</time>
      </trkpt>
      <trkpt lat="49.82884" lon="2.41605">
        <ele>33.4</ele>
        <time>2023-04-19T12:45:06Z</time>
      </trkpt>
      <trkpt lat="49.82884" lon="2.41606">
        <ele>33.4</ele>
        <time>2023-04-19T12:45:07Z</time>
      </trkpt>
      <trkpt lat="49.82883" lon="2.4161">
        <ele>33.4</ele>
        <time>2023-04-19T12:45:08Z</time>
      </trkpt>
      <trkpt lat="49.82883" lon="2.41611">
        <ele>33.4</ele>
        <time>2023-04-19T12:45:09Z</time>
      </trkpt>
      <trkpt lat="49.82882" lon="2.41612">
        <ele>33.4</ele>
        <time>2023-04-19T12:45:10Z</time>
      </trkpt>
      <trkpt lat="49.82882" lon="2.41617">
        <ele>33.5</ele>
        <time>2023-04-19T12:45:11Z</time>
      </trkpt>
      <trkpt lat="49.82882" lon="2.41618">
        <ele>33.5</ele>
        <time>2023-04-19T12:45:13Z</time>
      </trkpt>
      <trkpt lat="49.82882" lon="2.41619">
        <ele>33.5</ele>
        <time>2023-04-19T12:45:14Z</time>
      </trkpt>
      <trkpt lat="49.82882" lon="2.41621">
        <ele>33.5</ele>
        <time>2023-04-19T12:45:15Z</time>
      </trkpt>
      <trkpt lat="49.82881" lon="2.41622">
        <ele>33.5</ele>
        <time>2023-04-19T12:45:16Z</time>
      </trkpt>
      <trkpt lat="49.82882" lon="2.41626">
        <ele>33.6</ele>
        <time>2023-04-19T12:45:17Z</time>
      </trkpt>
      <trkpt lat="49.82882" lon="2.41628">
        <ele>33.6</ele>
        <time>2023-04-19T12:45:19Z</time>
      </trkpt>
      <trkpt lat="49.82882" lon="2.4163">
        <ele>33.6</ele>
        <time>2023-04-19T12:45:20Z</time>
      </trkpt>
      <trkpt lat="49.82882" lon="2.41631">
        <ele>33.6</ele>
        <time>2023-04-19T12:45:21Z</time>
      </trkpt>
      <trkpt lat="49.82882" lon="2.41633">
        <ele>33.6</ele>
        <time>2023-04-19T12:45:22Z</time>
      </trkpt>
      <trkpt lat="49.82883" lon="2.41636">
        <ele>33.6</ele>
        <time>2023-04-19T12:45:23Z</time>
      </trkpt>
      <trkpt lat="49.82883" lon="2.41637">
        <ele>33.6</ele>
        <time>2023-04-19T12:45:24Z</time>
      </trkpt>
      <trkpt lat="49.82883" lon="2.41639">
        <ele>33.6</ele>
        <time>2023-04-19T12:45:25Z</time>
      </trkpt>
      <trkpt lat="49.82884" lon="2.41642">
        <ele>33.7</ele>
        <time>2023-04-19T12:45:27Z</time>
      </trkpt>
      <trkpt lat="49.82884" lon="2.41643">
        <ele>33.7</ele>
        <time>2023-04-19T12:45:28Z</time>
      </trkpt>
      <trkpt lat="49.82884" lon="2.41645">
        <ele>33.7</ele>
        <time>2023-04-19T12:45:29Z</time>
      </trkpt>
      <trkpt lat="49.82884" lon="2.41647">
        <ele>33.7</ele>
        <time>2023-04-19T12:45:30Z</time>
      </trkpt>
      <trkpt lat="49.82884" lon="2.4165">
        <ele>33.7</ele>
        <time>2023-04-19T12:45:31Z</time>
      </trkpt>
      <trkpt lat="49.82884" lon="2.41652">
        <ele>33.7</ele>
        <time>2023-04-19T12:45:32Z</time>
      </trkpt>
      <trkpt lat="49.82884" lon="2.41654">
        <ele>33.7</ele>
        <time>2023-04-19T12:45:33Z</time>
      </trkpt>
      <trkpt lat="49.82884" lon="2.41656">
        <ele>33.7</ele>
        <time>2023-04-19T12:45:34Z</time>
      </trkpt>
      <trkpt lat="49.82884" lon="2.41658">
        <ele>33.7</ele>
        <time>2023-04-19T12:45:36Z</time>
      </trkpt>
      <trkpt lat="49.82884" lon="2.4166">
        <ele>33.8</ele>
        <time>2023-04-19T12:45:37Z</time>
      </trkpt>
      <trkpt lat="49.82883" lon="2.41662">
        <ele>33.8</ele>
        <time>2023-04-19T12:45:38Z</time>
      </trkpt>
      <trkpt lat="49.82883" lon="2.41665">
        <ele>33.8</ele>
        <time>2023-04-19T12:45:39Z</time>
      </trkpt>
      <trkpt lat="49.82883" lon="2.41666">
        <ele>33.8</ele>
        <time>2023-04-19T12:45:40Z</time>
      </trkpt>
      <trkpt lat="49.82884" lon="2.41668">
        <ele>33.8</ele>
        <time>2023-04-19T12:45:41Z</time>
      </trkpt>
      <trkpt lat="49.82884" lon="2.4167">
        <ele>33.8</ele>
        <time>2023-04-19T12:45:42Z</time>
      </trkpt>
      <trkpt lat="49.82883" lon="2.41674">
        <ele>33.8</ele>
        <time>2023-04-19T12:45:43Z</time>
      </trkpt>
      <trkpt lat="49.82883" lon="2.41675">
        <ele>33.8</ele>
        <time>2023-04-19T12:45:45Z</time>
      </trkpt>
      <trkpt lat="49.82884" lon="2.41677">
        <ele>33.8</ele>
        <time>2023-04-19T12:45:46Z</time>
      </trkpt>
      <trkpt lat="49.82884" lon="2.41678">
        <ele>33.8</ele>
        <time>2023-04-19T12:45:47Z</time>
      </trkpt>
      <trkpt lat="49.82884" lon="2.4168">
        <ele>33.8</ele>
        <time>2023-04-19T12:45:48Z</time>
      </trkpt>
      <trkpt lat="49.82884" lon="2.41682">
        <ele>33.8</ele>
        <time>2023-04-19T12:45:49Z</time>
      </trkpt>
      <trkpt lat="49.82884" lon="2.41683">
        <ele>33.8</ele>
        <time>2023-04-19T12:45:50Z</time>
      </trkpt>
      <trkpt lat="49.82884" lon="2.41685">
        <ele>33.8</ele>
        <time>2023-04-19T12:45:51Z</time>
      </trkpt>
      <trkpt lat="49.82884" lon="2.41687">
        <ele>33.8</ele>
        <time>2023-04-19T12:45:52Z</time>
      </trkpt>
      <trkpt lat="49.82883" lon="2.4169">
        <ele>33.8</ele>
        <time>2023-04-19T12:45:53Z</time>
      </trkpt>
      <trkpt lat="49.82883" lon="2.41691">
        <ele>33.8</ele>
        <time>2023-04-19T12:45:55Z</time>
      </trkpt>
      <trkpt lat="49.82883" lon="2.41693">
        <ele>33.8</ele>
        <time>2023-04-19T12:45:56Z</time>
      </trkpt>
      <trkpt lat="49.82883" lon="2.41694">
        <ele>33.8</ele>
        <time>2023-04-19T12:45:57Z</time>
      </trkpt>
      <trkpt lat="49.82883" lon="2.41696">
        <ele>33.8</ele>
        <time>2023-04-19T12:45:58Z</time>
      </trkpt>
      <trkpt lat="49.82882" lon="2.41698">
        <ele>33.9</ele>
        <time>2023-04-19T12:45:59Z</time>
      </trkpt>
      <trkpt lat="49.82882" lon="2.417">
        <ele>33.9</ele>
        <time>2023-04-19T12:46:00Z</time>
      </trkpt>
      <trkpt lat="49.82881" lon="2.41703">
        <ele>33.9</ele>
        <time>2023-04-19T12:46:01Z</time>
      </trkpt>
      <trkpt lat="49.82881" lon="2.41705">
        <ele>33.9</ele>
        <time>2023-04-19T12:46:02Z</time>
      </trkpt>
      <trkpt lat="49.8288" lon="2.41706">
        <ele>33.9</ele>
        <time>2023-04-19T12:46:03Z</time>
      </trkpt>
      <trkpt lat="49.8288" lon="2.41707">
        <ele>33.9</ele>
        <time>2023-04-19T12:46:05Z</time>
      </trkpt>
      <trkpt lat="49.82879" lon="2.41709">
        <ele>33.9</ele>
        <time>2023-04-19T12:46:06Z</time>
      </trkpt>
      <trkpt lat="49.82879" lon="2.41711">
        <ele>33.9</ele>
        <time>2023-04-19T12:46:07Z</time>
      </trkpt>
      <trkpt lat="49.82879" lon="2.41712">
        <ele>33.9</ele>
        <time>2023-04-19T12:46:08Z</time>
      </trkpt>
      <trkpt lat="49.82878" lon="2.41714">
        <ele>33.9</ele>
        <time>2023-04-19T12:46:09Z</time>
      </trkpt>
      <trkpt lat="49.82878" lon="2.41716">
        <ele>33.9</ele>
        <time>2023-04-19T12:46:10Z</time>
      </trkpt>
      <trkpt lat="49.82878" lon="2.41718">
        <ele>33.9</ele>
        <time>2023-04-19T12:46:11Z</time>
      </trkpt>
      <trkpt lat="49.82878" lon="2.4172">
        <ele>33.9</ele>
        <time>2023-04-19T12:46:12Z</time>
      </trkpt>
      <trkpt lat="49.82877" lon="2.41722">
        <ele>33.9</ele>
        <time>2023-04-19T12:46:14Z</time>
      </trkpt>
      <trkpt lat="49.82877" lon="2.41724">
        <ele>33.9</ele>
        <time>2023-04-19T12:46:15Z</time>
      </trkpt>
      <trkpt lat="49.82876" lon="2.41725">
        <ele>33.9</ele>
        <time>2023-04-19T12:46:16Z</time>
      </trkpt>
      <trkpt lat="49.82876" lon="2.41726">
        <ele>33.9</ele>
        <time>2023-04-19T12:46:17Z</time>
      </trkpt>
      <trkpt lat="49.82876" lon="2.41727">
        <ele>33.9</ele>
        <time>2023-04-19T12:46:18Z</time>
      </trkpt>
      <trkpt lat="49.82875" lon="2.4173">
        <ele>33.9</ele>
        <time>2023-04-19T12:46:19Z</time>
      </trkpt>
      <trkpt lat="49.82874" lon="2.41731">
        <ele>33.9</ele>
        <time>2023-04-19T12:46:20Z</time>
      </trkpt>
      <trkpt lat="49.82874" lon="2.41732">
        <ele>33.9</ele>
        <time>2023-04-19T12:46:21Z</time>
      </trkpt>
      <trkpt lat="49.82873" lon="2.41734">
        <ele>33.9</ele>
        <time>2023-04-19T12:46:22Z</time>
      </trkpt>
      <trkpt lat="49.82872" lon="2.41736">
        <ele>33.9</ele>
        <time>2023-04-19T12:46:24Z</time>
      </trkpt>
      <trkpt lat="49.82872" lon="2.41737">
        <ele>33.9</ele>
        <time>2023-04-19T12:46:25Z</time>
      </trkpt>
      <trkpt lat="49.82872" lon="2.41737">
        <ele>33.9</ele>
        <time>2023-04-19T12:46:26Z</time>
      </trkpt>
      <trkpt lat="49.82871" lon="2.41739">
        <ele>33.9</ele>
        <time>2023-04-19T12:46:27Z</time>
      </trkpt>
      <trkpt lat="49.8287" lon="2.4174">
        <ele>33.9</ele>
        <time>2023-04-19T12:46:28Z</time>
      </trkpt>
      <trkpt lat="49.8287" lon="2.41741">
        <ele>33.9</ele>
        <time>2023-04-19T12:46:29Z</time>
      </trkpt>
      <trkpt lat="49.8287" lon="2.41743">
        <ele>33.9</ele>
        <time>2023-04-19T12:46:30Z</time>
      </trkpt>
      <trkpt lat="49.82869" lon="2.41745">
        <ele>33.9</ele>
        <time>2023-04-19T12:46:31Z</time>
      </trkpt>
      <trkpt lat="49.82869" lon="2.41747">
        <ele>33.9</ele>
        <time>2023-04-19T12:46:32Z</time>
      </trkpt>
      <trkpt lat="49.82869" lon="2.41749">
        <ele>33.9</ele>
        <time>2023-04-19T12:46:33Z</time>
      </trkpt>
      <trkpt lat="49.82868" lon="2.4175">
        <ele>33.9</ele>
        <time>2023-04-19T12:46:35Z</time>
      </trkpt>
      <trkpt lat="49.82867" lon="2.41754">
        <ele>33.9</ele>
        <time>2023-04-19T12:46:36Z</time>
      </trkpt>
      <trkpt lat="49.82867" lon="2.41755">
        <ele>33.9</ele>
        <time>2023-04-19T12:46:37Z</time>
      </trkpt>
      <trkpt lat="49.82866" lon="2.41756">
        <ele>33.9</ele>
        <time>2023-04-19T12:46:38Z</time>
      </trkpt>
      <trkpt lat="49.82866" lon="2.41757">
        <ele>33.9</ele>
        <time>2023-04-19T12:46:39Z</time>
      </trkpt>
      <trkpt lat="49.82866" lon="2.41758">
        <ele>33.9</ele>
        <time>2023-04-19T12:46:40Z</time>
      </trkpt>
      <trkpt lat="49.82865" lon="2.4176">
        <ele>33.9</ele>
        <time>2023-04-19T12:46:41Z</time>
      </trkpt>
      <trkpt lat="49.82865" lon="2.41761">
        <ele>33.9</ele>
        <time>2023-04-19T12:46:42Z</time>
      </trkpt>
      <trkpt lat="49.82864" lon="2.41763">
        <ele>33.9</ele>
        <time>2023-04-19T12:46:43Z</time>
      </trkpt>
      <trkpt lat="49.82864" lon="2.41764">
        <ele>33.9</ele>
        <time>2023-04-19T12:46:45Z</time>
      </trkpt>
      <trkpt lat="49.82863" lon="2.41767">
        <ele>33.9</ele>
        <time>2023-04-19T12:46:46Z</time>
      </trkpt>
      <trkpt lat="49.82863" lon="2.41768">
        <ele>33.9</ele>
        <time>2023-04-19T12:46:47Z</time>
      </trkpt>
      <trkpt lat="49.82862" lon="2.41769">
        <ele>33.9</ele>
        <time>2023-04-19T12:46:48Z</time>
      </trkpt>
      <trkpt lat="49.82861" lon="2.41771">
        <ele>33.9</ele>
        <time>2023-04-19T12:46:49Z</time>
      </trkpt>
      <trkpt lat="49.82861" lon="2.41772">
        <ele>33.9</ele>
        <time>2023-04-19T12:46:50Z</time>
      </trkpt>
      <trkpt lat="49.8286" lon="2.41773">
        <ele>33.9</ele>
        <time>2023-04-19T12:46:51Z</time>
      </trkpt>
      <trkpt lat="49.82859" lon="2.41776">
        <ele>33.8</ele>
        <time>2023-04-19T12:46:52Z</time>
      </trkpt>
      <trkpt lat="49.82859" lon="2.41778">
        <ele>33.8</ele>
        <time>2023-04-19T12:46:53Z</time>
      </trkpt>
      <trkpt lat="49.82859" lon="2.41779">
        <ele>33.8</ele>
        <time>2023-04-19T12:46:55Z</time>
      </trkpt>
      <trkpt lat="49.82858" lon="2.41781">
        <ele>33.8</ele>
        <time>2023-04-19T12:46:56Z</time>
      </trkpt>
      <trkpt lat="49.82858" lon="2.41782">
        <ele>33.8</ele>
        <time>2023-04-19T12:46:57Z</time>
      </trkpt>
      <trkpt lat="49.82857" lon="2.41783">
        <ele>33.9</ele>
        <time>2023-04-19T12:46:58Z</time>
      </trkpt>
      <trkpt lat="49.82857" lon="2.41785">
        <ele>33.8</ele>
        <time>2023-04-19T12:46:59Z</time>
      </trkpt>
      <trkpt lat="49.82856" lon="2.41786">
        <ele>33.8</ele>
        <time>2023-04-19T12:47:00Z</time>
      </trkpt>
      <trkpt lat="49.82856" lon="2.41788">
        <ele>33.8</ele>
        <time>2023-04-19T12:47:01Z</time>
      </trkpt>
      <trkpt lat="49.82855" lon="2.41791">
        <ele>33.8</ele>
        <time>2023-04-19T12:47:02Z</time>
      </trkpt>
      <trkpt lat="49.82854" lon="2.41792">
        <ele>33.8</ele>
        <time>2023-04-19T12:47:03Z</time>
      </trkpt>
      <trkpt lat="49.82853" lon="2.41794">
        <ele>33.8</ele>
        <time>2023-04-19T12:47:04Z</time>
      </trkpt>
      <trkpt lat="49.82852" lon="2.41796">
        <ele>33.8</ele>
        <time>2023-04-19T12:47:06Z</time>
      </trkpt>
      <trkpt lat="49.82851" lon="2.41798">
        <ele>33.7</ele>
        <time>2023-04-19T12:47:07Z</time>
      </trkpt>
      <trkpt lat="49.8285" lon="2.418">
        <ele>33.7</ele>
        <time>2023-04-19T12:47:08Z</time>
      </trkpt>
      <trkpt lat="49.8285" lon="2.41802">
        <ele>33.7</ele>
        <time>2023-04-19T12:47:09Z</time>
      </trkpt>
      <trkpt lat="49.82848" lon="2.41804">
        <ele>33.7</ele>
        <time>2023-04-19T12:47:10Z</time>
      </trkpt>
      <trkpt lat="49.82848" lon="2.41805">
        <ele>33.7</ele>
        <time>2023-04-19T12:47:11Z</time>
      </trkpt>
      <trkpt lat="49.82847" lon="2.41806">
        <ele>33.7</ele>
        <time>2023-04-19T12:47:12Z</time>
      </trkpt>
      <trkpt lat="49.82846" lon="2.41809">
        <ele>33.6</ele>
        <time>2023-04-19T12:47:13Z</time>
      </trkpt>
      <trkpt lat="49.82845" lon="2.4181">
        <ele>33.6</ele>
        <time>2023-04-19T12:47:15Z</time>
      </trkpt>
      <trkpt lat="49.82844" lon="2.41811">
        <ele>33.6</ele>
        <time>2023-04-19T12:47:16Z</time>
      </trkpt>
      <trkpt lat="49.82843" lon="2.41814">
        <ele>33.6</ele>
        <time>2023-04-19T12:47:17Z</time>
      </trkpt>
      <trkpt lat="49.82843" lon="2.41815">
        <ele>33.6</ele>
        <time>2023-04-19T12:47:18Z</time>
      </trkpt>
      <trkpt lat="49.82842" lon="2.41816">
        <ele>33.6</ele>
        <time>2023-04-19T12:47:19Z</time>
      </trkpt>
      <trkpt lat="49.82841" lon="2.41817">
        <ele>33.5</ele>
        <time>2023-04-19T12:47:20Z</time>
      </trkpt>
      <trkpt lat="49.8284" lon="2.41819">
        <ele>33.5</ele>
        <time>2023-04-19T12:47:21Z</time>
      </trkpt>
      <trkpt lat="49.82839" lon="2.4182">
        <ele>33.5</ele>
        <time>2023-04-19T12:47:22Z</time>
      </trkpt>
      <trkpt lat="49.82839" lon="2.41821">
        <ele>33.5</ele>
        <time>2023-04-19T12:47:23Z</time>
      </trkpt>
      <trkpt lat="49.82837" lon="2.41823">
        <ele>33.5</ele>
        <time>2023-04-19T12:47:25Z</time>
      </trkpt>
      <trkpt lat="49.82836" lon="2.41825">
        <ele>33.4</ele>
        <time>2023-04-19T12:47:26Z</time>
      </trkpt>
      <trkpt lat="49.82836" lon="2.41826">
        <ele>33.4</ele>
        <time>2023-04-19T12:47:27Z</time>
      </trkpt>
      <trkpt lat="49.82835" lon="2.41826">
        <ele>33.4</ele>
        <time>2023-04-19T12:47:28Z</time>
      </trkpt>
      <trkpt lat="49.82834" lon="2.41828">
        <ele>33.4</ele>
        <time>2023-04-19T12:47:29Z</time>
      </trkpt>
      <trkpt lat="49.82833" lon="2.41829">
        <ele>33.4</ele>
        <time>2023-04-19T12:47:30Z</time>
      </trkpt>
      <trkpt lat="49.82832" lon="2.4183">
        <ele>33.3</ele>
        <time>2023-04-19T12:47:31Z</time>
      </trkpt>
      <trkpt lat="49.82832" lon="2.41831">
        <ele>33.3</ele>
        <time>2023-04-19T12:47:32Z</time>
      </trkpt>
      <trkpt lat="49.82831" lon="2.41833">
        <ele>33.3</ele>
        <time>2023-04-19T12:47:34Z</time>
      </trkpt>
      <trkpt lat="49.8283" lon="2.41834">
        <ele>33.3</ele>
        <time>2023-04-19T12:47:35Z</time>
      </trkpt>
      <trkpt lat="49.82829" lon="2.41836">
        <ele>33.2</ele>
        <time>2023-04-19T12:47:36Z</time>
      </trkpt>
      <trkpt lat="49.82829" lon="2.41837">
        <ele>33.2</ele>
        <time>2023-04-19T12:47:37Z</time>
      </trkpt>
      <trkpt lat="49.82828" lon="2.41838">
        <ele>33.2</ele>
        <time>2023-04-19T12:47:39Z</time>
      </trkpt>
      <trkpt lat="49.82827" lon="2.4184">
        <ele>33.2</ele>
        <time>2023-04-19T12:47:40Z</time>
      </trkpt>
      <trkpt lat="49.82826" lon="2.41842">
        <ele>33.2</ele>
        <time>2023-04-19T12:47:42Z</time>
      </trkpt>
      <trkpt lat="49.82825" lon="2.41843">
        <ele>33.2</ele>
        <time>2023-04-19T12:47:43Z</time>
      </trkpt>
      <trkpt lat="49.82824" lon="2.41844">
        <ele>33.2</ele>
        <time>2023-04-19T12:47:44Z</time>
      </trkpt>
      <trkpt lat="49.82824" lon="2.41845">
        <ele>33.2</ele>
        <time>2023-04-19T12:47:45Z</time>
      </trkpt>
      <trkpt lat="49.82823" lon="2.41846">
        <ele>33.1</ele>
        <time>2023-04-19T12:47:47Z</time>
      </trkpt>
      <trkpt lat="49.82823" lon="2.41848">
        <ele>33.1</ele>
        <time>2023-04-19T12:47:48Z</time>
      </trkpt>
      <trkpt lat="49.82822" lon="2.41849">
        <ele>33.1</ele>
        <time>2023-04-19T12:47:49Z</time>
      </trkpt>
      <trkpt lat="49.82821" lon="2.41851">
        <ele>33.1</ele>
        <time>2023-04-19T12:47:50Z</time>
      </trkpt>
      <trkpt lat="49.8282" lon="2.41853">
        <ele>33</ele>
        <time>2023-04-19T12:47:51Z</time>
      </trkpt>
      <trkpt lat="49.82819" lon="2.41854">
        <ele>33</ele>
        <time>2023-04-19T12:47:52Z</time>
      </trkpt>
      <trkpt lat="49.82817" lon="2.41856">
        <ele>32.9</ele>
        <time>2023-04-19T12:47:53Z</time>
      </trkpt>
      <trkpt lat="49.82816" lon="2.41857">
        <ele>32.9</ele>
        <time>2023-04-19T12:47:54Z</time>
      </trkpt>
      <trkpt lat="49.82815" lon="2.41858">
        <ele>32.9</ele>
        <time>2023-04-19T12:47:56Z</time>
      </trkpt>
      <trkpt lat="49.82815" lon="2.41858">
        <ele>32.9</ele>
        <time>2023-04-19T12:47:57Z</time>
      </trkpt>
      <trkpt lat="49.82813" lon="2.41859">
        <ele>32.8</ele>
        <time>2023-04-19T12:47:58Z</time>
      </trkpt>
      <trkpt lat="49.82812" lon="2.41861">
        <ele>32.8</ele>
        <time>2023-04-19T12:47:59Z</time>
      </trkpt>
      <trkpt lat="49.82811" lon="2.41861">
        <ele>32.8</ele>
        <time>2023-04-19T12:48:00Z</time>
      </trkpt>
      <trkpt lat="49.8281" lon="2.41862">
        <ele>32.8</ele>
        <time>2023-04-19T12:48:01Z</time>
      </trkpt>
      <trkpt lat="49.82809" lon="2.41863">
        <ele>32.7</ele>
        <time>2023-04-19T12:48:02Z</time>
      </trkpt>
      <trkpt lat="49.82807" lon="2.41864">
        <ele>32.7</ele>
        <time>2023-04-19T12:48:03Z</time>
      </trkpt>
      <trkpt lat="49.82806" lon="2.41865">
        <ele>32.7</ele>
        <time>2023-04-19T12:48:05Z</time>
      </trkpt>
      <trkpt lat="49.82805" lon="2.41866">
        <ele>32.7</ele>
        <time>2023-04-19T12:48:06Z</time>
      </trkpt>
      <trkpt lat="49.82804" lon="2.41867">
        <ele>32.7</ele>
        <time>2023-04-19T12:48:07Z</time>
      </trkpt>
      <trkpt lat="49.82803" lon="2.41868">
        <ele>32.6</ele>
        <time>2023-04-19T12:48:08Z</time>
      </trkpt>
      <trkpt lat="49.82802" lon="2.41868">
        <ele>32.6</ele>
        <time>2023-04-19T12:48:09Z</time>
      </trkpt>
      <trkpt lat="49.82801" lon="2.41869">
        <ele>32.6</ele>
        <time>2023-04-19T12:48:10Z</time>
      </trkpt>
      <trkpt lat="49.828" lon="2.4187">
        <ele>32.6</ele>
        <time>2023-04-19T12:48:12Z</time>
      </trkpt>
      <trkpt lat="49.82799" lon="2.4187">
        <ele>32.6</ele>
        <time>2023-04-19T12:48:13Z</time>
      </trkpt>
      <trkpt lat="49.82798" lon="2.41871">
        <ele>32.6</ele>
        <time>2023-04-19T12:48:14Z</time>
      </trkpt>
      <trkpt lat="49.82797" lon="2.41872">
        <ele>32.6</ele>
        <time>2023-04-19T12:48:15Z</time>
      </trkpt>
      <trkpt lat="49.82795" lon="2.41874">
        <ele>32.6</ele>
        <time>2023-04-19T12:48:16Z</time>
      </trkpt>
      <trkpt lat="49.82794" lon="2.41874">
        <ele>32.6</ele>
        <time>2023-04-19T12:48:18Z</time>
      </trkpt>
      <trkpt lat="49.82793" lon="2.41875">
        <ele>32.6</ele>
        <time>2023-04-19T12:48:19Z</time>
      </trkpt>
      <trkpt lat="49.82792" lon="2.41876">
        <ele>32.6</ele>
        <time>2023-04-19T12:48:20Z</time>
      </trkpt>
      <trkpt lat="49.82792" lon="2.41877">
        <ele>32.6</ele>
        <time>2023-04-19T12:48:21Z</time>
      </trkpt>
      <trkpt lat="49.82791" lon="2.41878">
        <ele>32.6</ele>
        <time>2023-04-19T12:48:22Z</time>
      </trkpt>
      <trkpt lat="49.82789" lon="2.41879">
        <ele>32.6</ele>
        <time>2023-04-19T12:48:24Z</time>
      </trkpt>
      <trkpt lat="49.82788" lon="2.4188">
        <ele>32.6</ele>
        <time>2023-04-19T12:48:25Z</time>
      </trkpt>
      <trkpt lat="49.82786" lon="2.41882">
        <ele>32.6</ele>
        <time>2023-04-19T12:48:27Z</time>
      </trkpt>
      <trkpt lat="49.82785" lon="2.41882">
        <ele>32.6</ele>
        <time>2023-04-19T12:48:28Z</time>
      </trkpt>
      <trkpt lat="49.82785" lon="2.41883">
        <ele>32.6</ele>
        <time>2023-04-19T12:48:29Z</time>
      </trkpt>
      <trkpt lat="49.82783" lon="2.41884">
        <ele>32.6</ele>
        <time>2023-04-19T12:48:30Z</time>
      </trkpt>
      <trkpt lat="49.82782" lon="2.41884">
        <ele>32.6</ele>
        <time>2023-04-19T12:48:31Z</time>
      </trkpt>
      <trkpt lat="49.82781" lon="2.41884">
        <ele>32.6</ele>
        <time>2023-04-19T12:48:32Z</time>
      </trkpt>
      <trkpt lat="49.82779" lon="2.41886">
        <ele>32.7</ele>
        <time>2023-04-19T12:48:33Z</time>
      </trkpt>
      <trkpt lat="49.82778" lon="2.41887">
        <ele>32.7</ele>
        <time>2023-04-19T12:48:34Z</time>
      </trkpt>
      <trkpt lat="49.82778" lon="2.41887">
        <ele>32.7</ele>
        <time>2023-04-19T12:48:35Z</time>
      </trkpt>
      <trkpt lat="49.82777" lon="2.41889">
        <ele>32.7</ele>
        <time>2023-04-19T12:48:37Z</time>
      </trkpt>
      <trkpt lat="49.82776" lon="2.4189">
        <ele>32.7</ele>
        <time>2023-04-19T12:48:38Z</time>
      </trkpt>
      <trkpt lat="49.82775" lon="2.41891">
        <ele>32.7</ele>
        <time>2023-04-19T12:48:39Z</time>
      </trkpt>
      <trkpt lat="49.82775" lon="2.41892">
        <ele>32.7</ele>
        <time>2023-04-19T12:48:40Z</time>
      </trkpt>
      <trkpt lat="49.82774" lon="2.41893">
        <ele>32.7</ele>
        <time>2023-04-19T12:48:41Z</time>
      </trkpt>
      <trkpt lat="49.82773" lon="2.41893">
        <ele>32.7</ele>
        <time>2023-04-19T12:48:42Z</time>
      </trkpt>
      <trkpt lat="49.82773" lon="2.41894">
        <ele>32.7</ele>
        <time>2023-04-19T12:48:43Z</time>
      </trkpt>
      <trkpt lat="49.82772" lon="2.41895">
        <ele>32.7</ele>
        <time>2023-04-19T12:48:44Z</time>
      </trkpt>
      <trkpt lat="49.8277" lon="2.41896">
        <ele>32.7</ele>
        <time>2023-04-19T12:48:45Z</time>
      </trkpt>
      <trkpt lat="49.82769" lon="2.41896">
        <ele>32.7</ele>
        <time>2023-04-19T12:48:47Z</time>
      </trkpt>
      <trkpt lat="49.82768" lon="2.41896">
        <ele>32.7</ele>
        <time>2023-04-19T12:48:48Z</time>
      </trkpt>
      <trkpt lat="49.82767" lon="2.41897">
        <ele>32.7</ele>
        <time>2023-04-19T12:48:49Z</time>
      </trkpt>
      <trkpt lat="49.82766" lon="2.41897">
        <ele>32.7</ele>
        <time>2023-04-19T12:48:50Z</time>
      </trkpt>
      <trkpt lat="49.82765" lon="2.41898">
        <ele>32.7</ele>
        <time>2023-04-19T12:48:51Z</time>
      </trkpt>
      <trkpt lat="49.82764" lon="2.41898">
        <ele>32.7</ele>
        <time>2023-04-19T12:48:52Z</time>
      </trkpt>
      <trkpt lat="49.82763" lon="2.41898">
        <ele>32.7</ele>
        <time>2023-04-19T12:48:53Z</time>
      </trkpt>
      <trkpt lat="49.82763" lon="2.41899">
        <ele>32.7</ele>
        <time>2023-04-19T12:48:54Z</time>
      </trkpt>
      <trkpt lat="49.82761" lon="2.419">
        <ele>32.7</ele>
        <time>2023-04-19T12:48:55Z</time>
      </trkpt>
      <trkpt lat="49.82759" lon="2.41901">
        <ele>32.7</ele>
        <time>2023-04-19T12:48:56Z</time>
      </trkpt>
      <trkpt lat="49.82758" lon="2.41902">
        <ele>32.7</ele>
        <time>2023-04-19T12:48:58Z</time>
      </trkpt>
      <trkpt lat="49.82757" lon="2.41902">
        <ele>32.7</ele>
        <time>2023-04-19T12:48:59Z</time>
      </trkpt>
      <trkpt lat="49.82756" lon="2.41903">
        <ele>32.7</ele>
        <time>2023-04-19T12:49:00Z</time>
      </trkpt>
      <trkpt lat="49.82754" lon="2.41903">
        <ele>32.7</ele>
        <time>2023-04-19T12:49:01Z</time>
      </trkpt>
      <trkpt lat="49.82752" lon="2.41903">
        <ele>32.6</ele>
        <time>2023-04-19T12:49:02Z</time>
      </trkpt>
      <trkpt lat="49.82751" lon="2.41904">
        <ele>32.6</ele>
        <time>2023-04-19T12:49:03Z</time>
      </trkpt>
      <trkpt lat="49.8275" lon="2.41904">
        <ele>32.6</ele>
        <time>2023-04-19T12:49:04Z</time>
      </trkpt>
      <trkpt lat="49.82748" lon="2.41904">
        <ele>32.5</ele>
        <time>2023-04-19T12:49:06Z</time>
      </trkpt>
      <trkpt lat="49.82747" lon="2.41904">
        <ele>32.5</ele>
        <time>2023-04-19T12:49:07Z</time>
      </trkpt>
      <trkpt lat="49.82746" lon="2.41905">
        <ele>32.5</ele>
        <time>2023-04-19T12:49:08Z</time>
      </trkpt>
      <trkpt lat="49.82744" lon="2.41905">
        <ele>32.4</ele>
        <time>2023-04-19T12:49:09Z</time>
      </trkpt>
      <trkpt lat="49.82743" lon="2.41906">
        <ele>32.4</ele>
        <time>2023-04-19T12:49:10Z</time>
      </trkpt>
      <trkpt lat="49.82741" lon="2.41906">
        <ele>32.4</ele>
        <time>2023-04-19T12:49:11Z</time>
      </trkpt>
      <trkpt lat="49.8274" lon="2.41906">
        <ele>32.3</ele>
        <time>2023-04-19T12:49:12Z</time>
      </trkpt>
      <trkpt lat="49.82738" lon="2.41907">
        <ele>32.3</ele>
        <time>2023-04-19T12:49:13Z</time>
      </trkpt>
      <trkpt lat="49.82737" lon="2.41907">
        <ele>32.3</ele>
        <time>2023-04-19T12:49:14Z</time>
      </trkpt>
      <trkpt lat="49.82735" lon="2.41908">
        <ele>32.2</ele>
        <time>2023-04-19T12:49:16Z</time>
      </trkpt>
      <trkpt lat="49.82734" lon="2.41908">
        <ele>32.2</ele>
        <time>2023-04-19T12:49:17Z</time>
      </trkpt>
      <trkpt lat="49.82733" lon="2.41908">
        <ele>32.2</ele>
        <time>2023-04-19T12:49:18Z</time>
      </trkpt>
      <trkpt lat="49.82731" lon="2.41909">
        <ele>32.2</ele>
        <time>2023-04-19T12:49:19Z</time>
      </trkpt>
      <trkpt lat="49.8273" lon="2.41909">
        <ele>32.2</ele>
        <time>2023-04-19T12:49:20Z</time>
      </trkpt>
      <trkpt lat="49.82729" lon="2.4191">
        <ele>32.1</ele>
        <time>2023-04-19T12:49:21Z</time>
      </trkpt>
      <trkpt lat="49.82727" lon="2.4191">
        <ele>32.1</ele>
        <time>2023-04-19T12:49:22Z</time>
      </trkpt>
      <trkpt lat="49.82726" lon="2.41911">
        <ele>32.1</ele>
        <time>2023-04-19T12:49:23Z</time>
      </trkpt>
      <trkpt lat="49.82725" lon="2.41912">
        <ele>32.1</ele>
        <time>2023-04-19T12:49:25Z</time>
      </trkpt>
      <trkpt lat="49.82724" lon="2.41912">
        <ele>32.1</ele>
        <time>2023-04-19T12:49:26Z</time>
      </trkpt>
      <trkpt lat="49.82723" lon="2.41912">
        <ele>32.1</ele>
        <time>2023-04-19T12:49:27Z</time>
      </trkpt>
      <trkpt lat="49.82722" lon="2.41912">
        <ele>32.1</ele>
        <time>2023-04-19T12:49:28Z</time>
      </trkpt>
      <trkpt lat="49.82721" lon="2.41912">
        <ele>32.1</ele>
        <time>2023-04-19T12:49:29Z</time>
      </trkpt>
      <trkpt lat="49.82719" lon="2.41913">
        <ele>32</ele>
        <time>2023-04-19T12:49:31Z</time>
      </trkpt>
      <trkpt lat="49.82718" lon="2.41913">
        <ele>32</ele>
        <time>2023-04-19T12:49:32Z</time>
      </trkpt>
      <trkpt lat="49.82717" lon="2.41913">
        <ele>32</ele>
        <time>2023-04-19T12:49:33Z</time>
      </trkpt>
      <trkpt lat="49.82716" lon="2.41914">
        <ele>32</ele>
        <time>2023-04-19T12:49:34Z</time>
      </trkpt>
      <trkpt lat="49.82715" lon="2.41914">
        <ele>32</ele>
        <time>2023-04-19T12:49:35Z</time>
      </trkpt>
      <trkpt lat="49.82715" lon="2.41913">
        <ele>32</ele>
        <time>2023-04-19T12:49:36Z</time>
      </trkpt>
      <trkpt lat="49.82714" lon="2.41914">
        <ele>32</ele>
        <time>2023-04-19T12:49:37Z</time>
      </trkpt>
      <trkpt lat="49.82713" lon="2.41914">
        <ele>32</ele>
        <time>2023-04-19T12:49:38Z</time>
      </trkpt>
      <trkpt lat="49.82712" lon="2.41914">
        <ele>32</ele>
        <time>2023-04-19T12:49:40Z</time>
      </trkpt>
      <trkpt lat="49.82711" lon="2.41914">
        <ele>32.1</ele>
        <time>2023-04-19T12:49:41Z</time>
      </trkpt>
      <trkpt lat="49.8271" lon="2.41915">
        <ele>32.1</ele>
        <time>2023-04-19T12:49:42Z</time>
      </trkpt>
      <trkpt lat="49.8271" lon="2.41915">
        <ele>32.1</ele>
        <time>2023-04-19T12:49:43Z</time>
      </trkpt>
      <trkpt lat="49.82709" lon="2.41916">
        <ele>32.1</ele>
        <time>2023-04-19T12:49:44Z</time>
      </trkpt>
      <trkpt lat="49.82708" lon="2.41916">
        <ele>32.1</ele>
        <time>2023-04-19T12:49:45Z</time>
      </trkpt>
      <trkpt lat="49.82707" lon="2.41917">
        <ele>32.1</ele>
        <time>2023-04-19T12:49:46Z</time>
      </trkpt>
      <trkpt lat="49.82705" lon="2.41918">
        <ele>32.1</ele>
        <time>2023-04-19T12:49:47Z</time>
      </trkpt>
      <trkpt lat="49.82704" lon="2.41918">
        <ele>32.1</ele>
        <time>2023-04-19T12:49:49Z</time>
      </trkpt>
      <trkpt lat="49.82704" lon="2.41919">
        <ele>32.1</ele>
        <time>2023-04-19T12:49:50Z</time>
      </trkpt>
      <trkpt lat="49.82702" lon="2.4192">
        <ele>32.2</ele>
        <time>2023-04-19T12:49:51Z</time>
      </trkpt>
      <trkpt lat="49.82701" lon="2.4192">
        <ele>32.2</ele>
        <time>2023-04-19T12:49:52Z</time>
      </trkpt>
      <trkpt lat="49.827" lon="2.41921">
        <ele>32.2</ele>
        <time>2023-04-19T12:49:53Z</time>
      </trkpt>
      <trkpt lat="49.82699" lon="2.41922">
        <ele>32.2</ele>
        <time>2023-04-19T12:49:54Z</time>
      </trkpt>
      <trkpt lat="49.82698" lon="2.41923">
        <ele>32.2</ele>
        <time>2023-04-19T12:49:55Z</time>
      </trkpt>
      <trkpt lat="49.82696" lon="2.41923">
        <ele>32.3</ele>
        <time>2023-04-19T12:49:56Z</time>
      </trkpt>
      <trkpt lat="49.82695" lon="2.41924">
        <ele>32.3</ele>
        <time>2023-04-19T12:49:57Z</time>
      </trkpt>
      <trkpt lat="49.82693" lon="2.41926">
        <ele>32.3</ele>
        <time>2023-04-19T12:49:59Z</time>
      </trkpt>
      <trkpt lat="49.82692" lon="2.41926">
        <ele>32.3</ele>
        <time>2023-04-19T12:50:00Z</time>
      </trkpt>
      <trkpt lat="49.82691" lon="2.41927">
        <ele>32.4</ele>
        <time>2023-04-19T12:50:01Z</time>
      </trkpt>
      <trkpt lat="49.8269" lon="2.41927">
        <ele>32.4</ele>
        <time>2023-04-19T12:50:02Z</time>
      </trkpt>
      <trkpt lat="49.82689" lon="2.41928">
        <ele>32.4</ele>
        <time>2023-04-19T12:50:03Z</time>
      </trkpt>
      <trkpt lat="49.82688" lon="2.41928">
        <ele>32.4</ele>
        <time>2023-04-19T12:50:04Z</time>
      </trkpt>
      <trkpt lat="49.82685" lon="2.41929">
        <ele>32.5</ele>
        <time>2023-04-19T12:50:06Z</time>
      </trkpt>
      <trkpt lat="49.82684" lon="2.41929">
        <ele>32.5</ele>
        <time>2023-04-19T12:50:07Z</time>
      </trkpt>
      <trkpt lat="49.82683" lon="2.41929">
        <ele>32.5</ele>
        <time>2023-04-19T12:50:08Z</time>
      </trkpt>
      <trkpt lat="49.82682" lon="2.41929">
        <ele>32.5</ele>
        <time>2023-04-19T12:50:10Z</time>
      </trkpt>
      <trkpt lat="49.8268" lon="2.41929">
        <ele>32.5</ele>
        <time>2023-04-19T12:50:11Z</time>
      </trkpt>
      <trkpt lat="49.82679" lon="2.41929">
        <ele>32.6</ele>
        <time>2023-04-19T12:50:12Z</time>
      </trkpt>
      <trkpt lat="49.82678" lon="2.41929">
        <ele>32.6</ele>
        <time>2023-04-19T12:50:13Z</time>
      </trkpt>
      <trkpt lat="49.82675" lon="2.41928">
        <ele>32.6</ele>
        <time>2023-04-19T12:50:15Z</time>
      </trkpt>
      <trkpt lat="49.82674" lon="2.41928">
        <ele>32.6</ele>
        <time>2023-04-19T12:50:16Z</time>
      </trkpt>
      <trkpt lat="49.82673" lon="2.41928">
        <ele>32.6</ele>
        <time>2023-04-19T12:50:17Z</time>
      </trkpt>
      <trkpt lat="49.82672" lon="2.41928">
        <ele>32.7</ele>
        <time>2023-04-19T12:50:19Z</time>
      </trkpt>
      <trkpt lat="49.8267" lon="2.41928">
        <ele>32.7</ele>
        <time>2023-04-19T12:50:20Z</time>
      </trkpt>
      <trkpt lat="49.82669" lon="2.41927">
        <ele>32.7</ele>
        <time>2023-04-19T12:50:21Z</time>
      </trkpt>
      <trkpt lat="49.82668" lon="2.41927">
        <ele>32.7</ele>
        <time>2023-04-19T12:50:22Z</time>
      </trkpt>
      <trkpt lat="49.82667" lon="2.41927">
        <ele>32.7</ele>
        <time>2023-04-19T12:50:23Z</time>
      </trkpt>
      <trkpt lat="49.82665" lon="2.41927">
        <ele>32.7</ele>
        <time>2023-04-19T12:50:24Z</time>
      </trkpt>
      <trkpt lat="49.82664" lon="2.41928">
        <ele>32.7</ele>
        <time>2023-04-19T12:50:25Z</time>
      </trkpt>
      <trkpt lat="49.82662" lon="2.41928">
        <ele>32.7</ele>
        <time>2023-04-19T12:50:26Z</time>
      </trkpt>
      <trkpt lat="49.82662" lon="2.41928">
        <ele>32.7</ele>
        <time>2023-04-19T12:50:27Z</time>
      </trkpt>
      <trkpt lat="49.82661" lon="2.41928">
        <ele>32.7</ele>
        <time>2023-04-19T12:50:29Z</time>
      </trkpt>
      <trkpt lat="49.82659" lon="2.41928">
        <ele>32.7</ele>
        <time>2023-04-19T12:50:30Z</time>
      </trkpt>
      <trkpt lat="49.82658" lon="2.41927">
        <ele>32.7</ele>
        <time>2023-04-19T12:50:31Z</time>
      </trkpt>
      <trkpt lat="49.82656" lon="2.41927">
        <ele>32.7</ele>
        <time>2023-04-19T12:50:32Z</time>
      </trkpt>
      <trkpt lat="49.82655" lon="2.41927">
        <ele>32.8</ele>
        <time>2023-04-19T12:50:33Z</time>
      </trkpt>
      <trkpt lat="49.82654" lon="2.41927">
        <ele>32.8</ele>
        <time>2023-04-19T12:50:34Z</time>
      </trkpt>
      <trkpt lat="49.82653" lon="2.41927">
        <ele>32.8</ele>
        <time>2023-04-19T12:50:36Z</time>
      </trkpt>
      <trkpt lat="49.82652" lon="2.41927">
        <ele>32.8</ele>
        <time>2023-04-19T12:50:37Z</time>
      </trkpt>
      <trkpt lat="49.82651" lon="2.41927">
        <ele>32.8</ele>
        <time>2023-04-19T12:50:38Z</time>
      </trkpt>
      <trkpt lat="49.8265" lon="2.41927">
        <ele>32.8</ele>
        <time>2023-04-19T12:50:39Z</time>
      </trkpt>
      <trkpt lat="49.82649" lon="2.41926">
        <ele>32.8</ele>
        <time>2023-04-19T12:50:41Z</time>
      </trkpt>
      <trkpt lat="49.82647" lon="2.41926">
        <ele>32.8</ele>
        <time>2023-04-19T12:50:42Z</time>
      </trkpt>
      <trkpt lat="49.82646" lon="2.41925">
        <ele>32.8</ele>
        <time>2023-04-19T12:50:44Z</time>
      </trkpt>
      <trkpt lat="49.82645" lon="2.41925">
        <ele>32.8</ele>
        <time>2023-04-19T12:50:45Z</time>
      </trkpt>
      <trkpt lat="49.82645" lon="2.41925">
        <ele>32.8</ele>
        <time>2023-04-19T12:50:46Z</time>
      </trkpt>
      <trkpt lat="49.82644" lon="2.41924">
        <ele>32.8</ele>
        <time>2023-04-19T12:50:48Z</time>
      </trkpt>
      <trkpt lat="49.82644" lon="2.41925">
        <ele>32.8</ele>
        <time>2023-04-19T12:50:49Z</time>
      </trkpt>
      <trkpt lat="49.82644" lon="2.41925">
        <ele>32.8</ele>
        <time>2023-04-19T12:50:50Z</time>
      </trkpt>
      <trkpt lat="49.82644" lon="2.41925">
        <ele>32.8</ele>
        <time>2023-04-19T12:50:52Z</time>
      </trkpt>
      <trkpt lat="49.82644" lon="2.41925">
        <ele>32.8</ele>
        <time>2023-04-19T12:50:53Z</time>
      </trkpt>
      <trkpt lat="49.82644" lon="2.41925">
        <ele>32.8</ele>
        <time>2023-04-19T12:50:54Z</time>
      </trkpt>
      <trkpt lat="49.82645" lon="2.41924">
        <ele>32.8</ele>
        <time>2023-04-19T12:50:56Z</time>
      </trkpt>
      <trkpt lat="49.82645" lon="2.41924">
        <ele>32.8</ele>
        <time>2023-04-19T12:50:57Z</time>
      </trkpt>
      <trkpt lat="49.82645" lon="2.41924">
        <ele>32.8</ele>
        <time>2023-04-19T12:50:58Z</time>
      </trkpt>
      <trkpt lat="49.82646" lon="2.41924">
        <ele>32.8</ele>
        <time>2023-04-19T12:51:00Z</time>
      </trkpt>
      <trkpt lat="49.82646" lon="2.41924">
        <ele>32.8</ele>
        <time>2023-04-19T12:51:01Z</time>
      </trkpt>
      <trkpt lat="49.82646" lon="2.41924">
        <ele>32.8</ele>
        <time>2023-04-19T12:51:03Z</time>
      </trkpt>
      <trkpt lat="49.82647" lon="2.41924">
        <ele>32.8</ele>
        <time>2023-04-19T12:51:04Z</time>
      </trkpt>
      <trkpt lat="49.82647" lon="2.41925">
        <ele>32.8</ele>
        <time>2023-04-19T12:51:05Z</time>
      </trkpt>
      <trkpt lat="49.82647" lon="2.41925">
        <ele>32.8</ele>
        <time>2023-04-19T12:51:06Z</time>
      </trkpt>
      <trkpt lat="49.82647" lon="2.41925">
        <ele>32.8</ele>
        <time>2023-04-19T12:51:07Z</time>
      </trkpt>
      <trkpt lat="49.82647" lon="2.41925">
        <ele>32.8</ele>
        <time>2023-04-19T12:51:08Z</time>
      </trkpt>
      <trkpt lat="49.82647" lon="2.41925">
        <ele>32.8</ele>
        <time>2023-04-19T12:51:09Z</time>
      </trkpt>
      <trkpt lat="49.82648" lon="2.41925">
        <ele>32.8</ele>
        <time>2023-04-19T12:51:10Z</time>
      </trkpt>
      <trkpt lat="49.82648" lon="2.41925">
        <ele>32.8</ele>
        <time>2023-04-19T12:51:11Z</time>
      </trkpt>
      <trkpt lat="49.82647" lon="2.41925">
        <ele>32.8</ele>
        <time>2023-04-19T12:51:12Z</time>
      </trkpt>
      <trkpt lat="49.82647" lon="2.41925">
        <ele>32.8</ele>
        <time>2023-04-19T12:51:13Z</time>
      </trkpt>
      <trkpt lat="49.82647" lon="2.41925">
        <ele>32.8</ele>
        <time>2023-04-19T12:51:14Z</time>
      </trkpt>
      <trkpt lat="49.82647" lon="2.41925">
        <ele>32.8</ele>
        <time>2023-04-19T12:51:15Z</time>
      </trkpt>
      <trkpt lat="49.82647" lon="2.41925">
        <ele>32.8</ele>
        <time>2023-04-19T12:51:16Z</time>
      </trkpt>
      <trkpt lat="49.82647" lon="2.41925">
        <ele>32.8</ele>
        <time>2023-04-19T12:51:17Z</time>
      </trkpt>
      <trkpt lat="49.82647" lon="2.41925">
        <ele>32.8</ele>
        <time>2023-04-19T12:51:18Z</time>
      </trkpt>
      <trkpt lat="49.82647" lon="2.41925">
        <ele>32.8</ele>
        <time>2023-04-19T12:51:19Z</time>
      </trkpt>
      <trkpt lat="49.82647" lon="2.41925">
        <ele>32.8</ele>
        <time>2023-04-19T12:51:20Z</time>
      </trkpt>
      <trkpt lat="49.82647" lon="2.41925">
        <ele>32.8</ele>
        <time>2023-04-19T12:51:21Z</time>
      </trkpt>
      <trkpt lat="49.82647" lon="2.41925">
        <ele>32.8</ele>
        <time>2023-04-19T12:51:22Z</time>
      </trkpt>
      <trkpt lat="49.82647" lon="2.41925">
        <ele>32.8</ele>
        <time>2023-04-19T12:51:23Z</time>
      </trkpt>
      <trkpt lat="49.82647" lon="2.41925">
        <ele>32.8</ele>
        <time>2023-04-19T12:51:24Z</time>
      </trkpt>
      <trkpt lat="49.82647" lon="2.41925">
        <ele>32.8</ele>
        <time>2023-04-19T12:51:25Z</time>
      </trkpt>
      <trkpt lat="49.82647" lon="2.41925">
        <ele>32.8</ele>
        <time>2023-04-19T12:51:26Z</time>
      </trkpt>
      <trkpt lat="49.82647" lon="2.41925">
        <ele>32.8</ele>
        <time>2023-04-19T12:51:27Z</time>
      </trkpt>
      <trkpt lat="49.82647" lon="2.41925">
        <ele>32.8</ele>
        <time>2023-04-19T12:51:28Z</time>
      </trkpt>
      <trkpt lat="49.82647" lon="2.41925">
        <ele>32.8</ele>
        <time>2023-04-19T12:51:29Z</time>
      </trkpt>
      <trkpt lat="49.82647" lon="2.41925">
        <ele>32.8</ele>
        <time>2023-04-19T12:51:30Z</time>
      </trkpt>
      <trkpt lat="49.82647" lon="2.41925">
        <ele>32.8</ele>
        <time>2023-04-19T12:51:31Z</time>
      </trkpt>
      <trkpt lat="49.82647" lon="2.41925">
        <ele>32.8</ele>
        <time>2023-04-19T12:51:32Z</time>
      </trkpt>
      <trkpt lat="49.82647" lon="2.41925">
        <ele>32.8</ele>
        <time>2023-04-19T12:51:33Z</time>
      </trkpt>
      <trkpt lat="49.82647" lon="2.41925">
        <ele>32.8</ele>
        <time>2023-04-19T12:51:34Z</time>
      </trkpt>
      <trkpt lat="49.82647" lon="2.41925">
        <ele>32.8</ele>
        <time>2023-04-19T12:51:35Z</time>
      </trkpt>
      <trkpt lat="49.82647" lon="2.41925">
        <ele>32.8</ele>
        <time>2023-04-19T12:51:36Z</time>
      </trkpt>
      <trkpt lat="49.82647" lon="2.41925">
        <ele>32.8</ele>
        <time>2023-04-19T12:51:37Z</time>
      </trkpt>
      <trkpt lat="49.82647" lon="2.41925">
        <ele>32.8</ele>
        <time>2023-04-19T12:51:38Z</time>
      </trkpt>
      <trkpt lat="49.82647" lon="2.41925">
        <ele>32.8</ele>
        <time>2023-04-19T12:51:39Z</time>
      </trkpt>
      <trkpt lat="49.82647" lon="2.41925">
        <ele>32.8</ele>
        <time>2023-04-19T12:51:40Z</time>
      </trkpt>
      <trkpt lat="49.82647" lon="2.41925">
        <ele>32.8</ele>
        <time>2023-04-19T12:51:41Z</time>
      </trkpt>
      <trkpt lat="49.82647" lon="2.41925">
        <ele>32.8</ele>
        <time>2023-04-19T12:51:42Z</time>
      </trkpt>
      <trkpt lat="49.82647" lon="2.41925">
        <ele>32.8</ele>
        <time>2023-04-19T12:51:43Z</time>
      </trkpt>
      <trkpt lat="49.82647" lon="2.41925">
        <ele>32.8</ele>
        <time>2023-04-19T12:51:44Z</time>
      </trkpt>
      <trkpt lat="49.82647" lon="2.41925">
        <ele>32.8</ele>
        <time>2023-04-19T12:51:45Z</time>
      </trkpt>
      <trkpt lat="49.82647" lon="2.41925">
        <ele>32.8</ele>
        <time>2023-04-19T12:51:46Z</time>
      </trkpt>
      <trkpt lat="49.82647" lon="2.41925">
        <ele>32.8</ele>
        <time>2023-04-19T12:51:47Z</time>
      </trkpt>
      <trkpt lat="49.82647" lon="2.41925">
        <ele>32.8</ele>
        <time>2023-04-19T12:51:48Z</time>
      </trkpt>
      <trkpt lat="49.82647" lon="2.41925">
        <ele>32.8</ele>
        <time>2023-04-19T12:51:49Z</time>
      </trkpt>
      <trkpt lat="49.82647" lon="2.41925">
        <ele>32.8</ele>
        <time>2023-04-19T12:51:50Z</time>
      </trkpt>
      <trkpt lat="49.82647" lon="2.41925">
        <ele>32.8</ele>
        <time>2023-04-19T12:51:51Z</time>
      </trkpt>
      <trkpt lat="49.82647" lon="2.41925">
        <ele>32.8</ele>
        <time>2023-04-19T12:51:52Z</time>
      </trkpt>
      <trkpt lat="49.82647" lon="2.41925">
        <ele>32.8</ele>
        <time>2023-04-19T12:51:53Z</time>
      </trkpt>
      <trkpt lat="49.82647" lon="2.41925">
        <ele>32.8</ele>
        <time>2023-04-19T12:51:54Z</time>
      </trkpt>
      <trkpt lat="49.82647" lon="2.41925">
        <ele>32.8</ele>
        <time>2023-04-19T12:51:55Z</time>
      </trkpt>
      <trkpt lat="49.82647" lon="2.41925">
        <ele>32.8</ele>
        <time>2023-04-19T12:51:56Z</time>
      </trkpt>
      <trkpt lat="49.82647" lon="2.41925">
        <ele>32.8</ele>
        <time>2023-04-19T12:51:57Z</time>
      </trkpt>
      <trkpt lat="49.82647" lon="2.41925">
        <ele>32.8</ele>
        <time>2023-04-19T12:51:58Z</time>
      </trkpt>
      <trkpt lat="49.82647" lon="2.41925">
        <ele>32.8</ele>
        <time>2023-04-19T12:51:59Z</time>
      </trkpt>
      <trkpt lat="49.82647" lon="2.41925">
        <ele>32.8</ele>
        <time>2023-04-19T12:52:00Z</time>
      </trkpt>
      <trkpt lat="49.82647" lon="2.41925">
        <ele>32.8</ele>
        <time>2023-04-19T12:52:01Z</time>
      </trkpt>
      <trkpt lat="49.82647" lon="2.41925">
        <ele>32.8</ele>
        <time>2023-04-19T12:52:02Z</time>
      </trkpt>
      <trkpt lat="49.82647" lon="2.41925">
        <ele>32.8</ele>
        <time>2023-04-19T12:52:03Z</time>
      </trkpt>
      <trkpt lat="49.82647" lon="2.41925">
        <ele>32.8</ele>
        <time>2023-04-19T12:52:04Z</time>
      </trkpt>
      <trkpt lat="49.82647" lon="2.41925">
        <ele>32.8</ele>
        <time>2023-04-19T12:52:05Z</time>
      </trkpt>
      <trkpt lat="49.82647" lon="2.41925">
        <ele>32.8</ele>
        <time>2023-04-19T12:52:06Z</time>
      </trkpt>
      <trkpt lat="49.82647" lon="2.41925">
        <ele>32.8</ele>
        <time>2023-04-19T12:52:07Z</time>
      </trkpt>
      <trkpt lat="49.82647" lon="2.41925">
        <ele>32.8</ele>
        <time>2023-04-19T12:52:08Z</time>
      </trkpt>
      <trkpt lat="49.82647" lon="2.41925">
        <ele>32.8</ele>
        <time>2023-04-19T12:52:09Z</time>
      </trkpt>
      <trkpt lat="49.82647" lon="2.41925">
        <ele>32.8</ele>
        <time>2023-04-19T12:52:10Z</time>
      </trkpt>
      <trkpt lat="49.82647" lon="2.41925">
        <ele>32.8</ele>
        <time>2023-04-19T12:52:11Z</time>
      </trkpt>
      <trkpt lat="49.82647" lon="2.41925">
        <ele>32.8</ele>
        <time>2023-04-19T12:52:12Z</time>
      </trkpt>
      <trkpt lat="49.82647" lon="2.41925">
        <ele>32.8</ele>
        <time>2023-04-19T12:52:13Z</time>
      </trkpt>
      <trkpt lat="49.82647" lon="2.41925">
        <ele>32.8</ele>
        <time>2023-04-19T12:52:14Z</time>
      </trkpt>
      <trkpt lat="49.82647" lon="2.41925">
        <ele>32.8</ele>
        <time>2023-04-19T12:52:15Z</time>
      </trkpt>
      <trkpt lat="49.82647" lon="2.41925">
        <ele>32.8</ele>
        <time>2023-04-19T12:52:16Z</time>
      </trkpt>
      <trkpt lat="49.82647" lon="2.41925">
        <ele>32.8</ele>
        <time>2023-04-19T12:52:17Z</time>
      </trkpt>
      <trkpt lat="49.82647" lon="2.41925">
        <ele>32.8</ele>
        <time>2023-04-19T12:52:18Z</time>
      </trkpt>
      <trkpt lat="49.82647" lon="2.41925">
        <ele>32.8</ele>
        <time>2023-04-19T12:52:19Z</time>
      </trkpt>
      <trkpt lat="49.82647" lon="2.41925">
        <ele>32.8</ele>
        <time>2023-04-19T12:52:20Z</time>
      </trkpt>
      <trkpt lat="49.82647" lon="2.41925">
        <ele>32.8</ele>
        <time>2023-04-19T12:52:21Z</time>
      </trkpt>
      <trkpt lat="49.82647" lon="2.41925">
        <ele>32.8</ele>
        <time>2023-04-19T12:52:22Z</time>
      </trkpt>
      <trkpt lat="49.82647" lon="2.41925">
        <ele>32.8</ele>
        <time>2023-04-19T12:52:23Z</time>
      </trkpt>
      <trkpt lat="49.82648" lon="2.41926">
        <ele>32.8</ele>
        <time>2023-04-19T12:52:24Z</time>
      </trkpt>
      <trkpt lat="49.82648" lon="2.41926">
        <ele>32.8</ele>
        <time>2023-04-19T12:52:25Z</time>
      </trkpt>
      <trkpt lat="49.82648" lon="2.41926">
        <ele>32.8</ele>
        <time>2023-04-19T12:52:26Z</time>
      </trkpt>
      <trkpt lat="49.82648" lon="2.41926">
        <ele>32.8</ele>
        <time>2023-04-19T12:52:27Z</time>
      </trkpt>
      <trkpt lat="49.82648" lon="2.41926">
        <ele>32.8</ele>
        <time>2023-04-19T12:52:28Z</time>
      </trkpt>
      <trkpt lat="49.82648" lon="2.41926">
        <ele>32.8</ele>
        <time>2023-04-19T12:52:29Z</time>
      </trkpt>
      <trkpt lat="49.82649" lon="2.41926">
        <ele>32.8</ele>
        <time>2023-04-19T12:52:30Z</time>
      </trkpt>
      <trkpt lat="49.82649" lon="2.41925">
        <ele>32.8</ele>
        <time>2023-04-19T12:52:31Z</time>
      </trkpt>
      <trkpt lat="49.82649" lon="2.41925">
        <ele>32.8</ele>
        <time>2023-04-19T12:52:32Z</time>
      </trkpt>
      <trkpt lat="49.8265" lon="2.41925">
        <ele>32.8</ele>
        <time>2023-04-19T12:52:33Z</time>
      </trkpt>
      <trkpt lat="49.8265" lon="2.41925">
        <ele>32.8</ele>
        <time>2023-04-19T12:52:34Z</time>
      </trkpt>
      <trkpt lat="49.82651" lon="2.41924">
        <ele>32.8</ele>
        <time>2023-04-19T12:52:35Z</time>
      </trkpt>
      <trkpt lat="49.82651" lon="2.41924">
        <ele>32.9</ele>
        <time>2023-04-19T12:52:36Z</time>
      </trkpt>
      <trkpt lat="49.82651" lon="2.41924">
        <ele>32.9</ele>
        <time>2023-04-19T12:52:37Z</time>
      </trkpt>
      <trkpt lat="49.82652" lon="2.41923">
        <ele>32.9</ele>
        <time>2023-04-19T12:52:39Z</time>
      </trkpt>
      <trkpt lat="49.82652" lon="2.41923">
        <ele>32.9</ele>
        <time>2023-04-19T12:52:40Z</time>
      </trkpt>
      <trkpt lat="49.82653" lon="2.41923">
        <ele>32.9</ele>
        <time>2023-04-19T12:52:41Z</time>
      </trkpt>
      <trkpt lat="49.82654" lon="2.41919">
        <ele>32.9</ele>
        <time>2023-04-19T12:52:42Z</time>
      </trkpt>
      <trkpt lat="49.82654" lon="2.41918">
        <ele>32.9</ele>
        <time>2023-04-19T12:52:43Z</time>
      </trkpt>
      <trkpt lat="49.82654" lon="2.41918">
        <ele>32.9</ele>
        <time>2023-04-19T12:52:44Z</time>
      </trkpt>
      <trkpt lat="49.82653" lon="2.41917">
        <ele>32.9</ele>
        <time>2023-04-19T12:52:45Z</time>
      </trkpt>
      <trkpt lat="49.82653" lon="2.41918">
        <ele>32.9</ele>
        <time>2023-04-19T12:52:47Z</time>
      </trkpt>
      <trkpt lat="49.82652" lon="2.41919">
        <ele>32.9</ele>
        <time>2023-04-19T12:52:48Z</time>
      </trkpt>
      <trkpt lat="49.82652" lon="2.4192">
        <ele>32.9</ele>
        <time>2023-04-19T12:52:49Z</time>
      </trkpt>
      <trkpt lat="49.82652" lon="2.41919">
        <ele>32.9</ele>
        <time>2023-04-19T12:52:50Z</time>
      </trkpt>
      <trkpt lat="49.82652" lon="2.41919">
        <ele>32.9</ele>
        <time>2023-04-19T12:52:51Z</time>
      </trkpt>
      <trkpt lat="49.82652" lon="2.41919">
        <ele>32.9</ele>
        <time>2023-04-19T12:52:53Z</time>
      </trkpt>
      <trkpt lat="49.82652" lon="2.41919">
        <ele>32.9</ele>
        <time>2023-04-19T12:52:54Z</time>
      </trkpt>
      <trkpt lat="49.82651" lon="2.4192">
        <ele>33</ele>
        <time>2023-04-19T12:52:56Z</time>
      </trkpt>
      <trkpt lat="49.82651" lon="2.4192">
        <ele>33</ele>
        <time>2023-04-19T12:52:57Z</time>
      </trkpt>
      <trkpt lat="49.82651" lon="2.4192">
        <ele>33</ele>
        <time>2023-04-19T12:52:59Z</time>
      </trkpt>
      <trkpt lat="49.82651" lon="2.4192">
        <ele>33</ele>
        <time>2023-04-19T12:53:00Z</time>
      </trkpt>
      <trkpt lat="49.82651" lon="2.41921">
        <ele>33</ele>
        <time>2023-04-19T12:53:01Z</time>
      </trkpt>
      <trkpt lat="49.82651" lon="2.41922">
        <ele>33</ele>
        <time>2023-04-19T12:53:02Z</time>
      </trkpt>
      <trkpt lat="49.82651" lon="2.41922">
        <ele>33</ele>
        <time>2023-04-19T12:53:03Z</time>
      </trkpt>
      <trkpt lat="49.82651" lon="2.41922">
        <ele>33</ele>
        <time>2023-04-19T12:53:04Z</time>
      </trkpt>
      <trkpt lat="49.82651" lon="2.41922">
        <ele>33</ele>
        <time>2023-04-19T12:53:05Z</time>
      </trkpt>
      <trkpt lat="49.82651" lon="2.41923">
        <ele>33</ele>
        <time>2023-04-19T12:53:06Z</time>
      </trkpt>
      <trkpt lat="49.82651" lon="2.41923">
        <ele>33</ele>
        <time>2023-04-19T12:53:07Z</time>
      </trkpt>
      <trkpt lat="49.82651" lon="2.41924">
        <ele>33</ele>
        <time>2023-04-19T12:53:08Z</time>
      </trkpt>
      <trkpt lat="49.82651" lon="2.41924">
        <ele>33</ele>
        <time>2023-04-19T12:53:09Z</time>
      </trkpt>
      <trkpt lat="49.82651" lon="2.41925">
        <ele>33</ele>
        <time>2023-04-19T12:53:10Z</time>
      </trkpt>
      <trkpt lat="49.8265" lon="2.41925">
        <ele>33</ele>
        <time>2023-04-19T12:53:11Z</time>
      </trkpt>
      <trkpt lat="49.8265" lon="2.41925">
        <ele>33</ele>
        <time>2023-04-19T12:53:12Z</time>
      </trkpt>
      <trkpt lat="49.8265" lon="2.41924">
        <ele>33</ele>
        <time>2023-04-19T12:53:13Z</time>
      </trkpt>
      <trkpt lat="49.8265" lon="2.41924">
        <ele>33</ele>
        <time>2023-04-19T12:53:14Z</time>
      </trkpt>
      <trkpt lat="49.8265" lon="2.41925">
        <ele>33</ele>
        <time>2023-04-19T12:53:15Z</time>
      </trkpt>
      <trkpt lat="49.8265" lon="2.41925">
        <ele>33</ele>
        <time>2023-04-19T12:53:16Z</time>
      </trkpt>
      <trkpt lat="49.8265" lon="2.41925">
        <ele>33</ele>
        <time>2023-04-19T12:53:17Z</time>
      </trkpt>
      <trkpt lat="49.8265" lon="2.41925">
        <ele>33</ele>
        <time>2023-04-19T12:53:18Z</time>
      </trkpt>
      <trkpt lat="49.8265" lon="2.41925">
        <ele>33</ele>
        <time>2023-04-19T12:53:19Z</time>
      </trkpt>
      <trkpt lat="49.8265" lon="2.41925">
        <ele>33</ele>
        <time>2023-04-19T12:53:20Z</time>
      </trkpt>
      <trkpt lat="49.8265" lon="2.41925">
        <ele>33</ele>
        <time>2023-04-19T12:53:21Z</time>
      </trkpt>
      <trkpt lat="49.8265" lon="2.41925">
        <ele>33</ele>
        <time>2023-04-19T12:53:22Z</time>
      </trkpt>
      <trkpt lat="49.8265" lon="2.41925">
        <ele>33</ele>
        <time>2023-04-19T12:53:23Z</time>
      </trkpt>
      <trkpt lat="49.8265" lon="2.41925">
        <ele>33</ele>
        <time>2023-04-19T12:53:24Z</time>
      </trkpt>
      <trkpt lat="49.8265" lon="2.41925">
        <ele>33</ele>
        <time>2023-04-19T12:53:25Z</time>
      </trkpt>
      <trkpt lat="49.8265" lon="2.41925">
        <ele>33</ele>
        <time>2023-04-19T12:53:26Z</time>
      </trkpt>
      <trkpt lat="49.8265" lon="2.41925">
        <ele>33</ele>
        <time>2023-04-19T12:53:27Z</time>
      </trkpt>
      <trkpt lat="49.8265" lon="2.41925">
        <ele>33</ele>
        <time>2023-04-19T12:53:28Z</time>
      </trkpt>
      <trkpt lat="49.8265" lon="2.41925">
        <ele>33</ele>
        <time>2023-04-19T12:53:29Z</time>
      </trkpt>
      <trkpt lat="49.8265" lon="2.41925">
        <ele>33</ele>
        <time>2023-04-19T12:53:30Z</time>
      </trkpt>
      <trkpt lat="49.8265" lon="2.41925">
        <ele>33</ele>
        <time>2023-04-19T12:53:31Z</time>
      </trkpt>
      <trkpt lat="49.8265" lon="2.41925">
        <ele>33</ele>
        <time>2023-04-19T12:53:32Z</time>
      </trkpt>
      <trkpt lat="49.8265" lon="2.41925">
        <ele>33</ele>
        <time>2023-04-19T12:53:33Z</time>
      </trkpt>
      <trkpt lat="49.8265" lon="2.41925">
        <ele>33</ele>
        <time>2023-04-19T12:53:34Z</time>
      </trkpt>
      <trkpt lat="49.8265" lon="2.41925">
        <ele>33</ele>
        <time>2023-04-19T12:53:35Z</time>
      </trkpt>
      <trkpt lat="49.8265" lon="2.41925">
        <ele>33</ele>
        <time>2023-04-19T12:53:36Z</time>
      </trkpt>
      <trkpt lat="49.8265" lon="2.41925">
        <ele>33</ele>
        <time>2023-04-19T12:53:37Z</time>
      </trkpt>
      <trkpt lat="49.82649" lon="2.41926">
        <ele>33</ele>
        <time>2023-04-19T12:53:38Z</time>
      </trkpt>
      <trkpt lat="49.82648" lon="2.41927">
        <ele>33.1</ele>
        <time>2023-04-19T12:53:39Z</time>
      </trkpt>
      <trkpt lat="49.82647" lon="2.41927">
        <ele>33.1</ele>
        <time>2023-04-19T12:53:40Z</time>
      </trkpt>
      <trkpt lat="49.82647" lon="2.41927">
        <ele>33.1</ele>
        <time>2023-04-19T12:53:42Z</time>
      </trkpt>
      <trkpt lat="49.82646" lon="2.41928">
        <ele>33.1</ele>
        <time>2023-04-19T12:53:43Z</time>
      </trkpt>
      <trkpt lat="49.82645" lon="2.41929">
        <ele>33.1</ele>
        <time>2023-04-19T12:53:44Z</time>
      </trkpt>
      <trkpt lat="49.82644" lon="2.4193">
        <ele>33.1</ele>
        <time>2023-04-19T12:53:45Z</time>
      </trkpt>
      <trkpt lat="49.82643" lon="2.4193">
        <ele>33.2</ele>
        <time>2023-04-19T12:53:46Z</time>
      </trkpt>
      <trkpt lat="49.82642" lon="2.4193">
        <ele>33.2</ele>
        <time>2023-04-19T12:53:47Z</time>
      </trkpt>
      <trkpt lat="49.82641" lon="2.41931">
        <ele>33.2</ele>
        <time>2023-04-19T12:53:48Z</time>
      </trkpt>
      <trkpt lat="49.8264" lon="2.41931">
        <ele>33.2</ele>
        <time>2023-04-19T12:53:50Z</time>
      </trkpt>
      <trkpt lat="49.82639" lon="2.41931">
        <ele>33.2</ele>
        <time>2023-04-19T12:53:51Z</time>
      </trkpt>
      <trkpt lat="49.82637" lon="2.4193">
        <ele>33.3</ele>
        <time>2023-04-19T12:53:52Z</time>
      </trkpt>
      <trkpt lat="49.82636" lon="2.41929">
        <ele>33.3</ele>
        <time>2023-04-19T12:53:53Z</time>
      </trkpt>
      <trkpt lat="49.82635" lon="2.41928">
        <ele>33.3</ele>
        <time>2023-04-19T12:53:54Z</time>
      </trkpt>
      <trkpt lat="49.82633" lon="2.41928">
        <ele>33.4</ele>
        <time>2023-04-19T12:53:55Z</time>
      </trkpt>
      <trkpt lat="49.82632" lon="2.41928">
        <ele>33.4</ele>
        <time>2023-04-19T12:53:57Z</time>
      </trkpt>
      <trkpt lat="49.82631" lon="2.41928">
        <ele>33.4</ele>
        <time>2023-04-19T12:53:58Z</time>
      </trkpt>
      <trkpt lat="49.8263" lon="2.41928">
        <ele>33.5</ele>
        <time>2023-04-19T12:53:59Z</time>
      </trkpt>
      <trkpt lat="49.82629" lon="2.41928">
        <ele>33.5</ele>
        <time>2023-04-19T12:54:00Z</time>
      </trkpt>
      <trkpt lat="49.82628" lon="2.41928">
        <ele>33.5</ele>
        <time>2023-04-19T12:54:02Z</time>
      </trkpt>
      <trkpt lat="49.82626" lon="2.41927">
        <ele>33.6</ele>
        <time>2023-04-19T12:54:03Z</time>
      </trkpt>
      <trkpt lat="49.82624" lon="2.41927">
        <ele>33.7</ele>
        <time>2023-04-19T12:54:04Z</time>
      </trkpt>
      <trkpt lat="49.82623" lon="2.41926">
        <ele>33.7</ele>
        <time>2023-04-19T12:54:06Z</time>
      </trkpt>
      <trkpt lat="49.82622" lon="2.41926">
        <ele>33.7</ele>
        <time>2023-04-19T12:54:07Z</time>
      </trkpt>
      <trkpt lat="49.82621" lon="2.41926">
        <ele>33.8</ele>
        <time>2023-04-19T12:54:08Z</time>
      </trkpt>
      <trkpt lat="49.8262" lon="2.41925">
        <ele>33.8</ele>
        <time>2023-04-19T12:54:09Z</time>
      </trkpt>
      <trkpt lat="49.82619" lon="2.41925">
        <ele>33.9</ele>
        <time>2023-04-19T12:54:10Z</time>
      </trkpt>
      <trkpt lat="49.82618" lon="2.41925">
        <ele>33.9</ele>
        <time>2023-04-19T12:54:11Z</time>
      </trkpt>
      <trkpt lat="49.82616" lon="2.41925">
        <ele>34</ele>
        <time>2023-04-19T12:54:13Z</time>
      </trkpt>
      <trkpt lat="49.82615" lon="2.41925">
        <ele>34</ele>
        <time>2023-04-19T12:54:14Z</time>
      </trkpt>
      <trkpt lat="49.82613" lon="2.41925">
        <ele>34</ele>
        <time>2023-04-19T12:54:15Z</time>
      </trkpt>
      <trkpt lat="49.82612" lon="2.41925">
        <ele>34</ele>
        <time>2023-04-19T12:54:16Z</time>
      </trkpt>
      <trkpt lat="49.82609" lon="2.41926">
        <ele>34</ele>
        <time>2023-04-19T12:54:17Z</time>
      </trkpt>
      <trkpt lat="49.82608" lon="2.41926">
        <ele>34</ele>
        <time>2023-04-19T12:54:18Z</time>
      </trkpt>
      <trkpt lat="49.82607" lon="2.41927">
        <ele>34</ele>
        <time>2023-04-19T12:54:20Z</time>
      </trkpt>
      <trkpt lat="49.82605" lon="2.41928">
        <ele>34</ele>
        <time>2023-04-19T12:54:21Z</time>
      </trkpt>
      <trkpt lat="49.82604" lon="2.41928">
        <ele>34</ele>
        <time>2023-04-19T12:54:22Z</time>
      </trkpt>
      <trkpt lat="49.82602" lon="2.41929">
        <ele>34</ele>
        <time>2023-04-19T12:54:23Z</time>
      </trkpt>
      <trkpt lat="49.826" lon="2.41929">
        <ele>34</ele>
        <time>2023-04-19T12:54:24Z</time>
      </trkpt>
      <trkpt lat="49.82599" lon="2.41929">
        <ele>34</ele>
        <time>2023-04-19T12:54:25Z</time>
      </trkpt>
      <trkpt lat="49.82598" lon="2.4193">
        <ele>34</ele>
        <time>2023-04-19T12:54:26Z</time>
      </trkpt>
      <trkpt lat="49.82596" lon="2.4193">
        <ele>33.9</ele>
        <time>2023-04-19T12:54:27Z</time>
      </trkpt>
      <trkpt lat="49.82595" lon="2.41931">
        <ele>33.9</ele>
        <time>2023-04-19T12:54:29Z</time>
      </trkpt>
      <trkpt lat="49.82594" lon="2.41931">
        <ele>33.9</ele>
        <time>2023-04-19T12:54:30Z</time>
      </trkpt>
      <trkpt lat="49.82592" lon="2.41931">
        <ele>33.9</ele>
        <time>2023-04-19T12:54:31Z</time>
      </trkpt>
      <trkpt lat="49.82591" lon="2.41931">
        <ele>33.9</ele>
        <time>2023-04-19T12:54:32Z</time>
      </trkpt>
      <trkpt lat="49.8259" lon="2.41931">
        <ele>33.9</ele>
        <time>2023-04-19T12:54:33Z</time>
      </trkpt>
      <trkpt lat="49.82588" lon="2.41932">
        <ele>33.9</ele>
        <time>2023-04-19T12:54:34Z</time>
      </trkpt>
      <trkpt lat="49.82587" lon="2.41932">
        <ele>33.8</ele>
        <time>2023-04-19T12:54:35Z</time>
      </trkpt>
      <trkpt lat="49.82585" lon="2.41931">
        <ele>33.8</ele>
        <time>2023-04-19T12:54:37Z</time>
      </trkpt>
      <trkpt lat="49.82584" lon="2.41931">
        <ele>33.8</ele>
        <time>2023-04-19T12:54:38Z</time>
      </trkpt>
      <trkpt lat="49.82583" lon="2.41931">
        <ele>33.8</ele>
        <time>2023-04-19T12:54:39Z</time>
      </trkpt>
      <trkpt lat="49.82582" lon="2.41932">
        <ele>33.8</ele>
        <time>2023-04-19T12:54:40Z</time>
      </trkpt>
      <trkpt lat="49.82581" lon="2.41932">
        <ele>33.8</ele>
        <time>2023-04-19T12:54:41Z</time>
      </trkpt>
      <trkpt lat="49.8258" lon="2.41931">
        <ele>33.8</ele>
        <time>2023-04-19T12:54:42Z</time>
      </trkpt>
      <trkpt lat="49.82579" lon="2.41931">
        <ele>33.8</ele>
        <time>2023-04-19T12:54:43Z</time>
      </trkpt>
      <trkpt lat="49.82577" lon="2.41931">
        <ele>33.7</ele>
        <time>2023-04-19T12:54:44Z</time>
      </trkpt>
      <trkpt lat="49.82576" lon="2.41931">
        <ele>33.7</ele>
        <time>2023-04-19T12:54:45Z</time>
      </trkpt>
      <trkpt lat="49.82575" lon="2.41931">
        <ele>33.7</ele>
        <time>2023-04-19T12:54:46Z</time>
      </trkpt>
      <trkpt lat="49.82574" lon="2.41931">
        <ele>33.7</ele>
        <time>2023-04-19T12:54:48Z</time>
      </trkpt>
      <trkpt lat="49.82574" lon="2.41931">
        <ele>33.7</ele>
        <time>2023-04-19T12:54:49Z</time>
      </trkpt>
      <trkpt lat="49.82573" lon="2.41931">
        <ele>33.7</ele>
        <time>2023-04-19T12:54:50Z</time>
      </trkpt>
      <trkpt lat="49.82572" lon="2.41931">
        <ele>33.7</ele>
        <time>2023-04-19T12:54:51Z</time>
      </trkpt>
      <trkpt lat="49.8257" lon="2.41932">
        <ele>33.6</ele>
        <time>2023-04-19T12:54:52Z</time>
      </trkpt>
      <trkpt lat="49.82569" lon="2.41932">
        <ele>33.6</ele>
        <time>2023-04-19T12:54:53Z</time>
      </trkpt>
      <trkpt lat="49.82568" lon="2.41932">
        <ele>33.6</ele>
        <time>2023-04-19T12:54:54Z</time>
      </trkpt>
      <trkpt lat="49.82566" lon="2.41933">
        <ele>33.6</ele>
        <time>2023-04-19T12:54:55Z</time>
      </trkpt>
      <trkpt lat="49.82565" lon="2.41933">
        <ele>33.6</ele>
        <time>2023-04-19T12:54:56Z</time>
      </trkpt>
      <trkpt lat="49.82564" lon="2.41933">
        <ele>33.6</ele>
        <time>2023-04-19T12:54:58Z</time>
      </trkpt>
      <trkpt lat="49.82563" lon="2.41933">
        <ele>33.6</ele>
        <time>2023-04-19T12:54:59Z</time>
      </trkpt>
      <trkpt lat="49.82562" lon="2.41933">
        <ele>33.6</ele>
        <time>2023-04-19T12:55:00Z</time>
      </trkpt>
      <trkpt lat="49.82561" lon="2.41933">
        <ele>33.5</ele>
        <time>2023-04-19T12:55:01Z</time>
      </trkpt>
      <trkpt lat="49.8256" lon="2.41933">
        <ele>33.5</ele>
        <time>2023-04-19T12:55:02Z</time>
      </trkpt>
      <trkpt lat="49.82559" lon="2.41933">
        <ele>33.5</ele>
        <time>2023-04-19T12:55:03Z</time>
      </trkpt>
      <trkpt lat="49.82558" lon="2.41933">
        <ele>33.5</ele>
        <time>2023-04-19T12:55:04Z</time>
      </trkpt>
      <trkpt lat="49.82556" lon="2.41933">
        <ele>33.5</ele>
        <time>2023-04-19T12:55:05Z</time>
      </trkpt>
      <trkpt lat="49.82554" lon="2.41934">
        <ele>33.5</ele>
        <time>2023-04-19T12:55:06Z</time>
      </trkpt>
      <trkpt lat="49.82553" lon="2.41934">
        <ele>33.4</ele>
        <time>2023-04-19T12:55:08Z</time>
      </trkpt>
      <trkpt lat="49.82551" lon="2.41934">
        <ele>33.4</ele>
        <time>2023-04-19T12:55:09Z</time>
      </trkpt>
      <trkpt lat="49.8255" lon="2.41934">
        <ele>33.4</ele>
        <time>2023-04-19T12:55:10Z</time>
      </trkpt>
      <trkpt lat="49.82548" lon="2.41935">
        <ele>33.4</ele>
        <time>2023-04-19T12:55:11Z</time>
      </trkpt>
      <trkpt lat="49.82547" lon="2.41934">
        <ele>33.4</ele>
        <time>2023-04-19T12:55:12Z</time>
      </trkpt>
      <trkpt lat="49.82545" lon="2.41934">
        <ele>33.4</ele>
        <time>2023-04-19T12:55:13Z</time>
      </trkpt>
      <trkpt lat="49.82544" lon="2.41934">
        <ele>33.4</ele>
        <time>2023-04-19T12:55:14Z</time>
      </trkpt>
      <trkpt lat="49.82542" lon="2.41934">
        <ele>33.4</ele>
        <time>2023-04-19T12:55:15Z</time>
      </trkpt>
      <trkpt lat="49.82541" lon="2.41935">
        <ele>33.3</ele>
        <time>2023-04-19T12:55:17Z</time>
      </trkpt>
      <trkpt lat="49.8254" lon="2.41935">
        <ele>33.3</ele>
        <time>2023-04-19T12:55:18Z</time>
      </trkpt>
      <trkpt lat="49.82539" lon="2.41935">
        <ele>33.3</ele>
        <time>2023-04-19T12:55:19Z</time>
      </trkpt>
      <trkpt lat="49.82538" lon="2.41935">
        <ele>33.3</ele>
        <time>2023-04-19T12:55:20Z</time>
      </trkpt>
      <trkpt lat="49.82537" lon="2.41936">
        <ele>33.3</ele>
        <time>2023-04-19T12:55:21Z</time>
      </trkpt>
      <trkpt lat="49.82535" lon="2.41936">
        <ele>33.3</ele>
        <time>2023-04-19T12:55:22Z</time>
      </trkpt>
      <trkpt lat="49.82534" lon="2.41937">
        <ele>33.3</ele>
        <time>2023-04-19T12:55:23Z</time>
      </trkpt>
      <trkpt lat="49.82533" lon="2.41937">
        <ele>33.3</ele>
        <time>2023-04-19T12:55:24Z</time>
      </trkpt>
      <trkpt lat="49.82531" lon="2.41938">
        <ele>33.3</ele>
        <time>2023-04-19T12:55:25Z</time>
      </trkpt>
      <trkpt lat="49.8253" lon="2.41938">
        <ele>33.3</ele>
        <time>2023-04-19T12:55:26Z</time>
      </trkpt>
      <trkpt lat="49.82528" lon="2.41939">
        <ele>33.3</ele>
        <time>2023-04-19T12:55:28Z</time>
      </trkpt>
      <trkpt lat="49.82527" lon="2.41939">
        <ele>33.3</ele>
        <time>2023-04-19T12:55:29Z</time>
      </trkpt>
      <trkpt lat="49.82526" lon="2.41939">
        <ele>33.3</ele>
        <time>2023-04-19T12:55:30Z</time>
      </trkpt>
      <trkpt lat="49.82524" lon="2.41938">
        <ele>33.3</ele>
        <time>2023-04-19T12:55:31Z</time>
      </trkpt>
      <trkpt lat="49.82523" lon="2.41938">
        <ele>33.3</ele>
        <time>2023-04-19T12:55:32Z</time>
      </trkpt>
      <trkpt lat="49.82523" lon="2.41937">
        <ele>33.4</ele>
        <time>2023-04-19T12:55:33Z</time>
      </trkpt>
      <trkpt lat="49.82521" lon="2.41937">
        <ele>33.4</ele>
        <time>2023-04-19T12:55:34Z</time>
      </trkpt>
      <trkpt lat="49.8252" lon="2.41936">
        <ele>33.4</ele>
        <time>2023-04-19T12:55:35Z</time>
      </trkpt>
      <trkpt lat="49.82519" lon="2.41935">
        <ele>33.4</ele>
        <time>2023-04-19T12:55:36Z</time>
      </trkpt>
      <trkpt lat="49.82518" lon="2.41934">
        <ele>33.4</ele>
        <time>2023-04-19T12:55:38Z</time>
      </trkpt>
      <trkpt lat="49.82517" lon="2.41933">
        <ele>33.4</ele>
        <time>2023-04-19T12:55:39Z</time>
      </trkpt>
      <trkpt lat="49.82514" lon="2.41933">
        <ele>33.5</ele>
        <time>2023-04-19T12:55:40Z</time>
      </trkpt>
      <trkpt lat="49.82513" lon="2.41933">
        <ele>33.5</ele>
        <time>2023-04-19T12:55:41Z</time>
      </trkpt>
      <trkpt lat="49.82512" lon="2.41932">
        <ele>33.5</ele>
        <time>2023-04-19T12:55:42Z</time>
      </trkpt>
      <trkpt lat="49.8251" lon="2.41932">
        <ele>33.5</ele>
        <time>2023-04-19T12:55:43Z</time>
      </trkpt>
      <trkpt lat="49.82508" lon="2.41932">
        <ele>33.5</ele>
        <time>2023-04-19T12:55:44Z</time>
      </trkpt>
      <trkpt lat="49.82507" lon="2.41933">
        <ele>33.6</ele>
        <time>2023-04-19T12:55:45Z</time>
      </trkpt>
      <trkpt lat="49.82505" lon="2.41934">
        <ele>33.6</ele>
        <time>2023-04-19T12:55:47Z</time>
      </trkpt>
      <trkpt lat="49.82504" lon="2.41934">
        <ele>33.6</ele>
        <time>2023-04-19T12:55:48Z</time>
      </trkpt>
      <trkpt lat="49.82502" lon="2.41934">
        <ele>33.6</ele>
        <time>2023-04-19T12:55:49Z</time>
      </trkpt>
      <trkpt lat="49.82501" lon="2.41934">
        <ele>33.6</ele>
        <time>2023-04-19T12:55:50Z</time>
      </trkpt>
      <trkpt lat="49.82499" lon="2.41934">
        <ele>33.6</ele>
        <time>2023-04-19T12:55:51Z</time>
      </trkpt>
      <trkpt lat="49.82498" lon="2.41934">
        <ele>33.7</ele>
        <time>2023-04-19T12:55:52Z</time>
      </trkpt>
      <trkpt lat="49.82497" lon="2.41934">
        <ele>33.7</ele>
        <time>2023-04-19T12:55:54Z</time>
      </trkpt>
      <trkpt lat="49.82496" lon="2.41934">
        <ele>33.7</ele>
        <time>2023-04-19T12:55:55Z</time>
      </trkpt>
      <trkpt lat="49.82495" lon="2.41934">
        <ele>33.7</ele>
        <time>2023-04-19T12:55:56Z</time>
      </trkpt>
      <trkpt lat="49.82493" lon="2.41934">
        <ele>33.7</ele>
        <time>2023-04-19T12:55:57Z</time>
      </trkpt>
      <trkpt lat="49.82492" lon="2.41934">
        <ele>33.7</ele>
        <time>2023-04-19T12:55:58Z</time>
      </trkpt>
      <trkpt lat="49.82491" lon="2.41934">
        <ele>33.7</ele>
        <time>2023-04-19T12:55:59Z</time>
      </trkpt>
      <trkpt lat="49.8249" lon="2.41934">
        <ele>33.7</ele>
        <time>2023-04-19T12:56:00Z</time>
      </trkpt>
      <trkpt lat="49.82489" lon="2.41933">
        <ele>33.8</ele>
        <time>2023-04-19T12:56:01Z</time>
      </trkpt>
      <trkpt lat="49.82488" lon="2.41933">
        <ele>33.8</ele>
        <time>2023-04-19T12:56:02Z</time>
      </trkpt>
      <trkpt lat="49.82488" lon="2.41933">
        <ele>33.8</ele>
        <time>2023-04-19T12:56:04Z</time>
      </trkpt>
      <trkpt lat="49.82487" lon="2.41933">
        <ele>33.8</ele>
        <time>2023-04-19T12:56:05Z</time>
      </trkpt>
      <trkpt lat="49.82485" lon="2.41933">
        <ele>33.8</ele>
        <time>2023-04-19T12:56:06Z</time>
      </trkpt>
      <trkpt lat="49.82485" lon="2.41934">
        <ele>33.8</ele>
        <time>2023-04-19T12:56:07Z</time>
      </trkpt>
      <trkpt lat="49.82484" lon="2.41934">
        <ele>33.8</ele>
        <time>2023-04-19T12:56:08Z</time>
      </trkpt>
      <trkpt lat="49.82483" lon="2.41934">
        <ele>33.8</ele>
        <time>2023-04-19T12:56:09Z</time>
      </trkpt>
      <trkpt lat="49.82482" lon="2.41935">
        <ele>33.8</ele>
        <time>2023-04-19T12:56:10Z</time>
      </trkpt>
      <trkpt lat="49.8248" lon="2.41935">
        <ele>33.9</ele>
        <time>2023-04-19T12:56:11Z</time>
      </trkpt>
      <trkpt lat="49.82479" lon="2.41935">
        <ele>33.9</ele>
        <time>2023-04-19T12:56:13Z</time>
      </trkpt>
      <trkpt lat="49.82479" lon="2.41936">
        <ele>33.9</ele>
        <time>2023-04-19T12:56:14Z</time>
      </trkpt>
      <trkpt lat="49.82478" lon="2.41936">
        <ele>33.9</ele>
        <time>2023-04-19T12:56:15Z</time>
      </trkpt>
      <trkpt lat="49.82476" lon="2.41937">
        <ele>33.9</ele>
        <time>2023-04-19T12:56:16Z</time>
      </trkpt>
      <trkpt lat="49.82476" lon="2.41937">
        <ele>33.9</ele>
        <time>2023-04-19T12:56:17Z</time>
      </trkpt>
      <trkpt lat="49.82475" lon="2.41937">
        <ele>33.9</ele>
        <time>2023-04-19T12:56:18Z</time>
      </trkpt>
      <trkpt lat="49.82474" lon="2.41938">
        <ele>33.9</ele>
        <time>2023-04-19T12:56:19Z</time>
      </trkpt>
      <trkpt lat="49.82473" lon="2.41938">
        <ele>33.9</ele>
        <time>2023-04-19T12:56:20Z</time>
      </trkpt>
      <trkpt lat="49.82472" lon="2.41939">
        <ele>33.9</ele>
        <time>2023-04-19T12:56:21Z</time>
      </trkpt>
      <trkpt lat="49.82471" lon="2.41939">
        <ele>33.9</ele>
        <time>2023-04-19T12:56:23Z</time>
      </trkpt>
      <trkpt lat="49.8247" lon="2.41939">
        <ele>33.9</ele>
        <time>2023-04-19T12:56:24Z</time>
      </trkpt>
      <trkpt lat="49.82468" lon="2.41939">
        <ele>33.9</ele>
        <time>2023-04-19T12:56:25Z</time>
      </trkpt>
      <trkpt lat="49.82466" lon="2.41939">
        <ele>34</ele>
        <time>2023-04-19T12:56:26Z</time>
      </trkpt>
      <trkpt lat="49.82464" lon="2.41938">
        <ele>34</ele>
        <time>2023-04-19T12:56:27Z</time>
      </trkpt>
      <trkpt lat="49.82464" lon="2.41938">
        <ele>34</ele>
        <time>2023-04-19T12:56:28Z</time>
      </trkpt>
      <trkpt lat="49.82463" lon="2.41938">
        <ele>34</ele>
        <time>2023-04-19T12:56:29Z</time>
      </trkpt>
      <trkpt lat="49.82461" lon="2.41938">
        <ele>34</ele>
        <time>2023-04-19T12:56:30Z</time>
      </trkpt>
      <trkpt lat="49.8246" lon="2.41937">
        <ele>34</ele>
        <time>2023-04-19T12:56:32Z</time>
      </trkpt>
      <trkpt lat="49.82459" lon="2.41937">
        <ele>34</ele>
        <time>2023-04-19T12:56:33Z</time>
      </trkpt>
      <trkpt lat="49.82458" lon="2.41937">
        <ele>34</ele>
        <time>2023-04-19T12:56:34Z</time>
      </trkpt>
      <trkpt lat="49.82457" lon="2.41937">
        <ele>34</ele>
        <time>2023-04-19T12:56:35Z</time>
      </trkpt>
      <trkpt lat="49.82456" lon="2.41937">
        <ele>34</ele>
        <time>2023-04-19T12:56:36Z</time>
      </trkpt>
      <trkpt lat="49.82455" lon="2.41937">
        <ele>34</ele>
        <time>2023-04-19T12:56:37Z</time>
      </trkpt>
      <trkpt lat="49.82454" lon="2.41937">
        <ele>34</ele>
        <time>2023-04-19T12:56:38Z</time>
      </trkpt>
      <trkpt lat="49.82453" lon="2.41937">
        <ele>34</ele>
        <time>2023-04-19T12:56:39Z</time>
      </trkpt>
      <trkpt lat="49.82453" lon="2.41937">
        <ele>34</ele>
        <time>2023-04-19T12:56:41Z</time>
      </trkpt>
      <trkpt lat="49.82452" lon="2.41937">
        <ele>34</ele>
        <time>2023-04-19T12:56:42Z</time>
      </trkpt>
      <trkpt lat="49.82451" lon="2.41937">
        <ele>34</ele>
        <time>2023-04-19T12:56:43Z</time>
      </trkpt>
      <trkpt lat="49.8245" lon="2.41937">
        <ele>34</ele>
        <time>2023-04-19T12:56:44Z</time>
      </trkpt>
      <trkpt lat="49.82449" lon="2.41936">
        <ele>34.1</ele>
        <time>2023-04-19T12:56:45Z</time>
      </trkpt>
      <trkpt lat="49.82448" lon="2.41936">
        <ele>34.1</ele>
        <time>2023-04-19T12:56:46Z</time>
      </trkpt>
      <trkpt lat="49.82446" lon="2.41936">
        <ele>34.1</ele>
        <time>2023-04-19T12:56:47Z</time>
      </trkpt>
      <trkpt lat="49.82445" lon="2.41936">
        <ele>34.1</ele>
        <time>2023-04-19T12:56:48Z</time>
      </trkpt>
      <trkpt lat="49.82444" lon="2.41936">
        <ele>34.1</ele>
        <time>2023-04-19T12:56:50Z</time>
      </trkpt>
      <trkpt lat="49.82443" lon="2.41935">
        <ele>34.1</ele>
        <time>2023-04-19T12:56:51Z</time>
      </trkpt>
      <trkpt lat="49.82441" lon="2.41935">
        <ele>34.1</ele>
        <time>2023-04-19T12:56:52Z</time>
      </trkpt>
      <trkpt lat="49.8244" lon="2.41934">
        <ele>34.1</ele>
        <time>2023-04-19T12:56:53Z</time>
      </trkpt>
      <trkpt lat="49.82439" lon="2.41934">
        <ele>34.1</ele>
        <time>2023-04-19T12:56:54Z</time>
      </trkpt>
      <trkpt lat="49.82437" lon="2.41933">
        <ele>34.1</ele>
        <time>2023-04-19T12:56:55Z</time>
      </trkpt>
      <trkpt lat="49.82435" lon="2.41932">
        <ele>34.1</ele>
        <time>2023-04-19T12:56:56Z</time>
      </trkpt>
      <trkpt lat="49.82434" lon="2.41932">
        <ele>34.1</ele>
        <time>2023-04-19T12:56:57Z</time>
      </trkpt>
      <trkpt lat="49.82432" lon="2.41931">
        <ele>34.1</ele>
        <time>2023-04-19T12:56:58Z</time>
      </trkpt>
      <trkpt lat="49.82431" lon="2.4193">
        <ele>34.1</ele>
        <time>2023-04-19T12:57:00Z</time>
      </trkpt>
      <trkpt lat="49.8243" lon="2.4193">
        <ele>34.1</ele>
        <time>2023-04-19T12:57:01Z</time>
      </trkpt>
      <trkpt lat="49.82428" lon="2.41929">
        <ele>34.1</ele>
        <time>2023-04-19T12:57:02Z</time>
      </trkpt>
      <trkpt lat="49.82427" lon="2.41929">
        <ele>34.1</ele>
        <time>2023-04-19T12:57:03Z</time>
      </trkpt>
      <trkpt lat="49.82425" lon="2.41929">
        <ele>34.1</ele>
        <time>2023-04-19T12:57:04Z</time>
      </trkpt>
      <trkpt lat="49.82424" lon="2.41929">
        <ele>34.1</ele>
        <time>2023-04-19T12:57:05Z</time>
      </trkpt>
      <trkpt lat="49.82423" lon="2.41928">
        <ele>34.1</ele>
        <time>2023-04-19T12:57:06Z</time>
      </trkpt>
      <trkpt lat="49.82422" lon="2.41929">
        <ele>34.1</ele>
        <time>2023-04-19T12:57:07Z</time>
      </trkpt>
      <trkpt lat="49.8242" lon="2.41929">
        <ele>34.1</ele>
        <time>2023-04-19T12:57:08Z</time>
      </trkpt>
      <trkpt lat="49.82419" lon="2.41929">
        <ele>34.1</ele>
        <time>2023-04-19T12:57:10Z</time>
      </trkpt>
      <trkpt lat="49.82418" lon="2.41929">
        <ele>34.1</ele>
        <time>2023-04-19T12:57:11Z</time>
      </trkpt>
      <trkpt lat="49.82417" lon="2.41928">
        <ele>34.1</ele>
        <time>2023-04-19T12:57:12Z</time>
      </trkpt>
      <trkpt lat="49.82416" lon="2.41928">
        <ele>34</ele>
        <time>2023-04-19T12:57:13Z</time>
      </trkpt>
      <trkpt lat="49.82414" lon="2.41928">
        <ele>34</ele>
        <time>2023-04-19T12:57:14Z</time>
      </trkpt>
      <trkpt lat="49.82413" lon="2.41928">
        <ele>34</ele>
        <time>2023-04-19T12:57:15Z</time>
      </trkpt>
      <trkpt lat="49.82412" lon="2.41928">
        <ele>34</ele>
        <time>2023-04-19T12:57:16Z</time>
      </trkpt>
      <trkpt lat="49.82411" lon="2.41928">
        <ele>34</ele>
        <time>2023-04-19T12:57:17Z</time>
      </trkpt>
      <trkpt lat="49.8241" lon="2.41928">
        <ele>34</ele>
        <time>2023-04-19T12:57:18Z</time>
      </trkpt>
      <trkpt lat="49.82409" lon="2.41929">
        <ele>34</ele>
        <time>2023-04-19T12:57:19Z</time>
      </trkpt>
      <trkpt lat="49.82408" lon="2.41929">
        <ele>34</ele>
        <time>2023-04-19T12:57:21Z</time>
      </trkpt>
      <trkpt lat="49.82406" lon="2.41929">
        <ele>34</ele>
        <time>2023-04-19T12:57:22Z</time>
      </trkpt>
      <trkpt lat="49.82405" lon="2.41929">
        <ele>34</ele>
        <time>2023-04-19T12:57:23Z</time>
      </trkpt>
      <trkpt lat="49.82403" lon="2.4193">
        <ele>34</ele>
        <time>2023-04-19T12:57:24Z</time>
      </trkpt>
      <trkpt lat="49.82402" lon="2.4193">
        <ele>33.9</ele>
        <time>2023-04-19T12:57:25Z</time>
      </trkpt>
      <trkpt lat="49.82401" lon="2.4193">
        <ele>33.9</ele>
        <time>2023-04-19T12:57:26Z</time>
      </trkpt>
      <trkpt lat="49.82399" lon="2.4193">
        <ele>33.9</ele>
        <time>2023-04-19T12:57:27Z</time>
      </trkpt>
      <trkpt lat="49.82398" lon="2.4193">
        <ele>33.9</ele>
        <time>2023-04-19T12:57:28Z</time>
      </trkpt>
      <trkpt lat="49.82397" lon="2.4193">
        <ele>33.9</ele>
        <time>2023-04-19T12:57:29Z</time>
      </trkpt>
      <trkpt lat="49.82395" lon="2.41929">
        <ele>33.9</ele>
        <time>2023-04-19T12:57:30Z</time>
      </trkpt>
      <trkpt lat="49.82394" lon="2.41928">
        <ele>33.9</ele>
        <time>2023-04-19T12:57:32Z</time>
      </trkpt>
      <trkpt lat="49.82393" lon="2.41928">
        <ele>33.9</ele>
        <time>2023-04-19T12:57:33Z</time>
      </trkpt>
      <trkpt lat="49.82392" lon="2.41928">
        <ele>33.9</ele>
        <time>2023-04-19T12:57:34Z</time>
      </trkpt>
      <trkpt lat="49.82391" lon="2.41927">
        <ele>33.9</ele>
        <time>2023-04-19T12:57:35Z</time>
      </trkpt>
      <trkpt lat="49.82389" lon="2.41926">
        <ele>33.9</ele>
        <time>2023-04-19T12:57:37Z</time>
      </trkpt>
      <trkpt lat="49.82388" lon="2.41926">
        <ele>33.9</ele>
        <time>2023-04-19T12:57:38Z</time>
      </trkpt>
      <trkpt lat="49.82386" lon="2.41926">
        <ele>33.9</ele>
        <time>2023-04-19T12:57:39Z</time>
      </trkpt>
      <trkpt lat="49.82385" lon="2.41925">
        <ele>33.9</ele>
        <time>2023-04-19T12:57:40Z</time>
      </trkpt>
      <trkpt lat="49.82384" lon="2.41924">
        <ele>33.9</ele>
        <time>2023-04-19T12:57:41Z</time>
      </trkpt>
      <trkpt lat="49.82383" lon="2.41924">
        <ele>33.9</ele>
        <time>2023-04-19T12:57:42Z</time>
      </trkpt>
      <trkpt lat="49.82382" lon="2.41924">
        <ele>33.9</ele>
        <time>2023-04-19T12:57:43Z</time>
      </trkpt>
      <trkpt lat="49.8238" lon="2.41923">
        <ele>33.9</ele>
        <time>2023-04-19T12:57:44Z</time>
      </trkpt>
      <trkpt lat="49.82378" lon="2.41923">
        <ele>33.9</ele>
        <time>2023-04-19T12:57:46Z</time>
      </trkpt>
      <trkpt lat="49.82377" lon="2.41923">
        <ele>33.9</ele>
        <time>2023-04-19T12:57:47Z</time>
      </trkpt>
      <trkpt lat="49.82376" lon="2.41922">
        <ele>33.9</ele>
        <time>2023-04-19T12:57:48Z</time>
      </trkpt>
      <trkpt lat="49.82375" lon="2.41922">
        <ele>33.8</ele>
        <time>2023-04-19T12:57:49Z</time>
      </trkpt>
      <trkpt lat="49.82374" lon="2.41922">
        <ele>33.8</ele>
        <time>2023-04-19T12:57:50Z</time>
      </trkpt>
      <trkpt lat="49.82373" lon="2.41921">
        <ele>33.8</ele>
        <time>2023-04-19T12:57:51Z</time>
      </trkpt>
      <trkpt lat="49.82372" lon="2.41921">
        <ele>33.8</ele>
        <time>2023-04-19T12:57:52Z</time>
      </trkpt>
      <trkpt lat="49.8237" lon="2.41921">
        <ele>33.8</ele>
        <time>2023-04-19T12:57:54Z</time>
      </trkpt>
      <trkpt lat="49.82368" lon="2.41921">
        <ele>33.8</ele>
        <time>2023-04-19T12:57:55Z</time>
      </trkpt>
      <trkpt lat="49.82367" lon="2.4192">
        <ele>33.8</ele>
        <time>2023-04-19T12:57:56Z</time>
      </trkpt>
      <trkpt lat="49.82366" lon="2.4192">
        <ele>33.8</ele>
        <time>2023-04-19T12:57:57Z</time>
      </trkpt>
      <trkpt lat="49.82364" lon="2.4192">
        <ele>33.8</ele>
        <time>2023-04-19T12:57:58Z</time>
      </trkpt>
      <trkpt lat="49.82363" lon="2.4192">
        <ele>33.8</ele>
        <time>2023-04-19T12:57:59Z</time>
      </trkpt>
      <trkpt lat="49.82362" lon="2.4192">
        <ele>33.8</ele>
        <time>2023-04-19T12:58:00Z</time>
      </trkpt>
      <trkpt lat="49.8236" lon="2.4192">
        <ele>33.7</ele>
        <time>2023-04-19T12:58:01Z</time>
      </trkpt>
      <trkpt lat="49.8236" lon="2.4192">
        <ele>33.7</ele>
        <time>2023-04-19T12:58:02Z</time>
      </trkpt>
      <trkpt lat="49.82359" lon="2.41919">
        <ele>33.7</ele>
        <time>2023-04-19T12:58:03Z</time>
      </trkpt>
      <trkpt lat="49.82357" lon="2.41919">
        <ele>33.7</ele>
        <time>2023-04-19T12:58:04Z</time>
      </trkpt>
      <trkpt lat="49.82356" lon="2.41919">
        <ele>33.7</ele>
        <time>2023-04-19T12:58:06Z</time>
      </trkpt>
      <trkpt lat="49.82355" lon="2.41919">
        <ele>33.7</ele>
        <time>2023-04-19T12:58:07Z</time>
      </trkpt>
      <trkpt lat="49.82354" lon="2.41919">
        <ele>33.7</ele>
        <time>2023-04-19T12:58:08Z</time>
      </trkpt>
      <trkpt lat="49.82352" lon="2.41919">
        <ele>33.7</ele>
        <time>2023-04-19T12:58:09Z</time>
      </trkpt>
      <trkpt lat="49.82351" lon="2.41919">
        <ele>33.7</ele>
        <time>2023-04-19T12:58:10Z</time>
      </trkpt>
      <trkpt lat="49.82349" lon="2.41919">
        <ele>33.7</ele>
        <time>2023-04-19T12:58:11Z</time>
      </trkpt>
      <trkpt lat="49.82347" lon="2.41919">
        <ele>33.6</ele>
        <time>2023-04-19T12:58:12Z</time>
      </trkpt>
      <trkpt lat="49.82346" lon="2.41918">
        <ele>33.6</ele>
        <time>2023-04-19T12:58:13Z</time>
      </trkpt>
      <trkpt lat="49.82345" lon="2.41918">
        <ele>33.6</ele>
        <time>2023-04-19T12:58:14Z</time>
      </trkpt>
      <trkpt lat="49.82343" lon="2.41918">
        <ele>33.6</ele>
        <time>2023-04-19T12:58:15Z</time>
      </trkpt>
      <trkpt lat="49.82342" lon="2.41917">
        <ele>33.6</ele>
        <time>2023-04-19T12:58:17Z</time>
      </trkpt>
      <trkpt lat="49.82341" lon="2.41917">
        <ele>33.6</ele>
        <time>2023-04-19T12:58:18Z</time>
      </trkpt>
      <trkpt lat="49.8234" lon="2.41917">
        <ele>33.6</ele>
        <time>2023-04-19T12:58:19Z</time>
      </trkpt>
      <trkpt lat="49.82339" lon="2.41917">
        <ele>33.6</ele>
        <time>2023-04-19T12:58:20Z</time>
      </trkpt>
      <trkpt lat="49.82338" lon="2.41916">
        <ele>33.6</ele>
        <time>2023-04-19T12:58:21Z</time>
      </trkpt>
      <trkpt lat="49.82337" lon="2.41916">
        <ele>33.6</ele>
        <time>2023-04-19T12:58:22Z</time>
      </trkpt>
      <trkpt lat="49.82336" lon="2.41916">
        <ele>33.6</ele>
        <time>2023-04-19T12:58:23Z</time>
      </trkpt>
      <trkpt lat="49.82334" lon="2.41916">
        <ele>33.5</ele>
        <time>2023-04-19T12:58:24Z</time>
      </trkpt>
      <trkpt lat="49.82333" lon="2.41916">
        <ele>33.5</ele>
        <time>2023-04-19T12:58:25Z</time>
      </trkpt>
      <trkpt lat="49.82332" lon="2.41915">
        <ele>33.5</ele>
        <time>2023-04-19T12:58:27Z</time>
      </trkpt>
      <trkpt lat="49.82331" lon="2.41915">
        <ele>33.5</ele>
        <time>2023-04-19T12:58:28Z</time>
      </trkpt>
      <trkpt lat="49.8233" lon="2.41914">
        <ele>33.5</ele>
        <time>2023-04-19T12:58:29Z</time>
      </trkpt>
      <trkpt lat="49.82329" lon="2.41913">
        <ele>33.5</ele>
        <time>2023-04-19T12:58:30Z</time>
      </trkpt>
      <trkpt lat="49.82328" lon="2.41912">
        <ele>33.5</ele>
        <time>2023-04-19T12:58:31Z</time>
      </trkpt>
      <trkpt lat="49.82326" lon="2.41912">
        <ele>33.5</ele>
        <time>2023-04-19T12:58:32Z</time>
      </trkpt>
      <trkpt lat="49.82325" lon="2.41911">
        <ele>33.5</ele>
        <time>2023-04-19T12:58:34Z</time>
      </trkpt>
      <trkpt lat="49.82323" lon="2.41911">
        <ele>33.5</ele>
        <time>2023-04-19T12:58:35Z</time>
      </trkpt>
      <trkpt lat="49.82322" lon="2.4191">
        <ele>33.5</ele>
        <time>2023-04-19T12:58:36Z</time>
      </trkpt>
      <trkpt lat="49.82321" lon="2.4191">
        <ele>33.5</ele>
        <time>2023-04-19T12:58:37Z</time>
      </trkpt>
      <trkpt lat="49.82319" lon="2.41909">
        <ele>33.5</ele>
        <time>2023-04-19T12:58:38Z</time>
      </trkpt>
      <trkpt lat="49.82317" lon="2.41909">
        <ele>33.5</ele>
        <time>2023-04-19T12:58:39Z</time>
      </trkpt>
      <trkpt lat="49.82316" lon="2.41909">
        <ele>33.5</ele>
        <time>2023-04-19T12:58:40Z</time>
      </trkpt>
      <trkpt lat="49.82314" lon="2.41908">
        <ele>33.5</ele>
        <time>2023-04-19T12:58:41Z</time>
      </trkpt>
      <trkpt lat="49.82313" lon="2.41908">
        <ele>33.5</ele>
        <time>2023-04-19T12:58:42Z</time>
      </trkpt>
      <trkpt lat="49.82311" lon="2.41907">
        <ele>33.4</ele>
        <time>2023-04-19T12:58:44Z</time>
      </trkpt>
      <trkpt lat="49.8231" lon="2.41907">
        <ele>33.4</ele>
        <time>2023-04-19T12:58:45Z</time>
      </trkpt>
      <trkpt lat="49.82309" lon="2.41906">
        <ele>33.4</ele>
        <time>2023-04-19T12:58:46Z</time>
      </trkpt>
      <trkpt lat="49.82308" lon="2.41906">
        <ele>33.4</ele>
        <time>2023-04-19T12:58:47Z</time>
      </trkpt>
      <trkpt lat="49.82307" lon="2.41905">
        <ele>33.4</ele>
        <time>2023-04-19T12:58:48Z</time>
      </trkpt>
      <trkpt lat="49.82306" lon="2.41904">
        <ele>33.4</ele>
        <time>2023-04-19T12:58:50Z</time>
      </trkpt>
      <trkpt lat="49.82306" lon="2.41903">
        <ele>33.4</ele>
        <time>2023-04-19T12:58:51Z</time>
      </trkpt>
      <trkpt lat="49.82305" lon="2.41903">
        <ele>33.4</ele>
        <time>2023-04-19T12:58:52Z</time>
      </trkpt>
      <trkpt lat="49.82304" lon="2.41903">
        <ele>33.4</ele>
        <time>2023-04-19T12:58:53Z</time>
      </trkpt>
      <trkpt lat="49.82302" lon="2.41903">
        <ele>33.4</ele>
        <time>2023-04-19T12:58:54Z</time>
      </trkpt>
      <trkpt lat="49.82301" lon="2.41903">
        <ele>33.4</ele>
        <time>2023-04-19T12:58:55Z</time>
      </trkpt>
      <trkpt lat="49.823" lon="2.41903">
        <ele>33.4</ele>
        <time>2023-04-19T12:58:57Z</time>
      </trkpt>
      <trkpt lat="49.82299" lon="2.41903">
        <ele>33.4</ele>
        <time>2023-04-19T12:58:58Z</time>
      </trkpt>
      <trkpt lat="49.82298" lon="2.41902">
        <ele>33.4</ele>
        <time>2023-04-19T12:58:59Z</time>
      </trkpt>
      <trkpt lat="49.82298" lon="2.41902">
        <ele>33.5</ele>
        <time>2023-04-19T12:59:00Z</time>
      </trkpt>
      <trkpt lat="49.82297" lon="2.41902">
        <ele>33.5</ele>
        <time>2023-04-19T12:59:01Z</time>
      </trkpt>
      <trkpt lat="49.82297" lon="2.41902">
        <ele>33.5</ele>
        <time>2023-04-19T12:59:02Z</time>
      </trkpt>
      <trkpt lat="49.82296" lon="2.41902">
        <ele>33.5</ele>
        <time>2023-04-19T12:59:03Z</time>
      </trkpt>
      <trkpt lat="49.82294" lon="2.41902">
        <ele>33.5</ele>
        <time>2023-04-19T12:59:05Z</time>
      </trkpt>
      <trkpt lat="49.82293" lon="2.41902">
        <ele>33.5</ele>
        <time>2023-04-19T12:59:06Z</time>
      </trkpt>
      <trkpt lat="49.82291" lon="2.41903">
        <ele>33.5</ele>
        <time>2023-04-19T12:59:07Z</time>
      </trkpt>
      <trkpt lat="49.8229" lon="2.41903">
        <ele>33.5</ele>
        <time>2023-04-19T12:59:08Z</time>
      </trkpt>
      <trkpt lat="49.82288" lon="2.41903">
        <ele>33.5</ele>
        <time>2023-04-19T12:59:09Z</time>
      </trkpt>
      <trkpt lat="49.82287" lon="2.41903">
        <ele>33.5</ele>
        <time>2023-04-19T12:59:10Z</time>
      </trkpt>
      <trkpt lat="49.82286" lon="2.41902">
        <ele>33.5</ele>
        <time>2023-04-19T12:59:11Z</time>
      </trkpt>
      <trkpt lat="49.82285" lon="2.41902">
        <ele>33.5</ele>
        <time>2023-04-19T12:59:13Z</time>
      </trkpt>
      <trkpt lat="49.82283" lon="2.41902">
        <ele>33.5</ele>
        <time>2023-04-19T12:59:14Z</time>
      </trkpt>
      <trkpt lat="49.82282" lon="2.41902">
        <ele>33.6</ele>
        <time>2023-04-19T12:59:15Z</time>
      </trkpt>
      <trkpt lat="49.82281" lon="2.41901">
        <ele>33.6</ele>
        <time>2023-04-19T12:59:16Z</time>
      </trkpt>
      <trkpt lat="49.82279" lon="2.419">
        <ele>33.6</ele>
        <time>2023-04-19T12:59:17Z</time>
      </trkpt>
      <trkpt lat="49.82278" lon="2.41899">
        <ele>33.6</ele>
        <time>2023-04-19T12:59:19Z</time>
      </trkpt>
      <trkpt lat="49.82277" lon="2.41898">
        <ele>33.6</ele>
        <time>2023-04-19T12:59:20Z</time>
      </trkpt>
      <trkpt lat="49.82276" lon="2.41896">
        <ele>33.6</ele>
        <time>2023-04-19T12:59:21Z</time>
      </trkpt>
      <trkpt lat="49.82274" lon="2.41895">
        <ele>33.5</ele>
        <time>2023-04-19T12:59:22Z</time>
      </trkpt>
      <trkpt lat="49.82273" lon="2.41895">
        <ele>33.5</ele>
        <time>2023-04-19T12:59:23Z</time>
      </trkpt>
      <trkpt lat="49.82272" lon="2.41894">
        <ele>33.5</ele>
        <time>2023-04-19T12:59:24Z</time>
      </trkpt>
      <trkpt lat="49.82271" lon="2.41894">
        <ele>33.5</ele>
        <time>2023-04-19T12:59:25Z</time>
      </trkpt>
      <trkpt lat="49.8227" lon="2.41894">
        <ele>33.5</ele>
        <time>2023-04-19T12:59:26Z</time>
      </trkpt>
      <trkpt lat="49.8227" lon="2.41895">
        <ele>33.5</ele>
        <time>2023-04-19T12:59:27Z</time>
      </trkpt>
      <trkpt lat="49.82269" lon="2.41895">
        <ele>33.5</ele>
        <time>2023-04-19T12:59:28Z</time>
      </trkpt>
      <trkpt lat="49.82267" lon="2.41894">
        <ele>33.5</ele>
        <time>2023-04-19T12:59:30Z</time>
      </trkpt>
      <trkpt lat="49.82266" lon="2.41894">
        <ele>33.5</ele>
        <time>2023-04-19T12:59:31Z</time>
      </trkpt>
      <trkpt lat="49.82264" lon="2.41894">
        <ele>33.5</ele>
        <time>2023-04-19T12:59:32Z</time>
      </trkpt>
      <trkpt lat="49.82263" lon="2.41894">
        <ele>33.5</ele>
        <time>2023-04-19T12:59:33Z</time>
      </trkpt>
      <trkpt lat="49.82261" lon="2.41894">
        <ele>33.4</ele>
        <time>2023-04-19T12:59:34Z</time>
      </trkpt>
      <trkpt lat="49.82259" lon="2.41893">
        <ele>33.4</ele>
        <time>2023-04-19T12:59:35Z</time>
      </trkpt>
      <trkpt lat="49.82258" lon="2.41894">
        <ele>33.4</ele>
        <time>2023-04-19T12:59:36Z</time>
      </trkpt>
      <trkpt lat="49.82257" lon="2.41894">
        <ele>33.4</ele>
        <time>2023-04-19T12:59:37Z</time>
      </trkpt>
      <trkpt lat="49.82255" lon="2.41894">
        <ele>33.4</ele>
        <time>2023-04-19T12:59:38Z</time>
      </trkpt>
      <trkpt lat="49.82253" lon="2.41893">
        <ele>33.4</ele>
        <time>2023-04-19T12:59:39Z</time>
      </trkpt>
      <trkpt lat="49.82251" lon="2.41893">
        <ele>33.4</ele>
        <time>2023-04-19T12:59:41Z</time>
      </trkpt>
      <trkpt lat="49.82249" lon="2.41892">
        <ele>33.4</ele>
        <time>2023-04-19T12:59:42Z</time>
      </trkpt>
      <trkpt lat="49.82248" lon="2.41892">
        <ele>33.4</ele>
        <time>2023-04-19T12:59:43Z</time>
      </trkpt>
      <trkpt lat="49.82247" lon="2.41892">
        <ele>33.4</ele>
        <time>2023-04-19T12:59:44Z</time>
      </trkpt>
      <trkpt lat="49.82246" lon="2.41891">
        <ele>33.4</ele>
        <time>2023-04-19T12:59:45Z</time>
      </trkpt>
      <trkpt lat="49.82244" lon="2.41891">
        <ele>33.4</ele>
        <time>2023-04-19T12:59:47Z</time>
      </trkpt>
      <trkpt lat="49.82243" lon="2.41891">
        <ele>33.4</ele>
        <time>2023-04-19T12:59:48Z</time>
      </trkpt>
      <trkpt lat="49.82242" lon="2.4189">
        <ele>33.4</ele>
        <time>2023-04-19T12:59:49Z</time>
      </trkpt>
      <trkpt lat="49.82241" lon="2.4189">
        <ele>33.4</ele>
        <time>2023-04-19T12:59:50Z</time>
      </trkpt>
      <trkpt lat="49.8224" lon="2.41889">
        <ele>33.4</ele>
        <time>2023-04-19T12:59:51Z</time>
      </trkpt>
      <trkpt lat="49.82239" lon="2.41889">
        <ele>33.3</ele>
        <time>2023-04-19T12:59:52Z</time>
      </trkpt>
      <trkpt lat="49.82238" lon="2.41889">
        <ele>33.3</ele>
        <time>2023-04-19T12:59:53Z</time>
      </trkpt>
      <trkpt lat="49.82236" lon="2.41888">
        <ele>33.3</ele>
        <time>2023-04-19T12:59:54Z</time>
      </trkpt>
      <trkpt lat="49.82235" lon="2.41888">
        <ele>33.3</ele>
        <time>2023-04-19T12:59:55Z</time>
      </trkpt>
      <trkpt lat="49.82234" lon="2.41888">
        <ele>33.3</ele>
        <time>2023-04-19T12:59:56Z</time>
      </trkpt>
      <trkpt lat="49.82233" lon="2.41887">
        <ele>33.3</ele>
        <time>2023-04-19T12:59:58Z</time>
      </trkpt>
      <trkpt lat="49.82232" lon="2.41887">
        <ele>33.3</ele>
        <time>2023-04-19T12:59:59Z</time>
      </trkpt>
      <trkpt lat="49.8223" lon="2.41887">
        <ele>33.3</ele>
        <time>2023-04-19T13:00:00Z</time>
      </trkpt>
      <trkpt lat="49.82229" lon="2.41887">
        <ele>33.3</ele>
        <time>2023-04-19T13:00:01Z</time>
      </trkpt>
      <trkpt lat="49.82228" lon="2.41886">
        <ele>33.3</ele>
        <time>2023-04-19T13:00:02Z</time>
      </trkpt>
      <trkpt lat="49.82227" lon="2.41886">
        <ele>33.3</ele>
        <time>2023-04-19T13:00:03Z</time>
      </trkpt>
      <trkpt lat="49.82227" lon="2.41885">
        <ele>33.3</ele>
        <time>2023-04-19T13:00:04Z</time>
      </trkpt>
      <trkpt lat="49.82226" lon="2.41885">
        <ele>33.3</ele>
        <time>2023-04-19T13:00:05Z</time>
      </trkpt>
      <trkpt lat="49.82225" lon="2.41885">
        <ele>33.3</ele>
        <time>2023-04-19T13:00:06Z</time>
      </trkpt>
      <trkpt lat="49.82224" lon="2.41884">
        <ele>33.3</ele>
        <time>2023-04-19T13:00:08Z</time>
      </trkpt>
      <trkpt lat="49.82222" lon="2.41883">
        <ele>33.3</ele>
        <time>2023-04-19T13:00:09Z</time>
      </trkpt>
      <trkpt lat="49.82221" lon="2.41882">
        <ele>33.3</ele>
        <time>2023-04-19T13:00:10Z</time>
      </trkpt>
      <trkpt lat="49.82219" lon="2.41882">
        <ele>33.3</ele>
        <time>2023-04-19T13:00:11Z</time>
      </trkpt>
      <trkpt lat="49.82218" lon="2.41881">
        <ele>33.3</ele>
        <time>2023-04-19T13:00:12Z</time>
      </trkpt>
      <trkpt lat="49.82217" lon="2.41881">
        <ele>33.3</ele>
        <time>2023-04-19T13:00:13Z</time>
      </trkpt>
      <trkpt lat="49.82215" lon="2.4188">
        <ele>33.3</ele>
        <time>2023-04-19T13:00:14Z</time>
      </trkpt>
      <trkpt lat="49.82215" lon="2.41879">
        <ele>33.3</ele>
        <time>2023-04-19T13:00:15Z</time>
      </trkpt>
      <trkpt lat="49.82214" lon="2.41879">
        <ele>33.3</ele>
        <time>2023-04-19T13:00:16Z</time>
      </trkpt>
      <trkpt lat="49.82212" lon="2.41878">
        <ele>33.3</ele>
        <time>2023-04-19T13:00:18Z</time>
      </trkpt>
      <trkpt lat="49.82211" lon="2.41878">
        <ele>33.3</ele>
        <time>2023-04-19T13:00:19Z</time>
      </trkpt>
      <trkpt lat="49.82209" lon="2.41877">
        <ele>33.3</ele>
        <time>2023-04-19T13:00:20Z</time>
      </trkpt>
      <trkpt lat="49.82208" lon="2.41876">
        <ele>33.3</ele>
        <time>2023-04-19T13:00:21Z</time>
      </trkpt>
      <trkpt lat="49.82206" lon="2.41875">
        <ele>33.2</ele>
        <time>2023-04-19T13:00:22Z</time>
      </trkpt>
      <trkpt lat="49.82206" lon="2.41875">
        <ele>33.2</ele>
        <time>2023-04-19T13:00:23Z</time>
      </trkpt>
      <trkpt lat="49.82205" lon="2.41875">
        <ele>33.2</ele>
        <time>2023-04-19T13:00:24Z</time>
      </trkpt>
      <trkpt lat="49.82203" lon="2.41874">
        <ele>33.2</ele>
        <time>2023-04-19T13:00:26Z</time>
      </trkpt>
      <trkpt lat="49.82202" lon="2.41874">
        <ele>33.2</ele>
        <time>2023-04-19T13:00:27Z</time>
      </trkpt>
      <trkpt lat="49.822" lon="2.41873">
        <ele>33.2</ele>
        <time>2023-04-19T13:00:29Z</time>
      </trkpt>
      <trkpt lat="49.82199" lon="2.41872">
        <ele>33.2</ele>
        <time>2023-04-19T13:00:30Z</time>
      </trkpt>
      <trkpt lat="49.82198" lon="2.41872">
        <ele>33.2</ele>
        <time>2023-04-19T13:00:31Z</time>
      </trkpt>
      <trkpt lat="49.82197" lon="2.41873">
        <ele>33.2</ele>
        <time>2023-04-19T13:00:32Z</time>
      </trkpt>
      <trkpt lat="49.82196" lon="2.41873">
        <ele>33.2</ele>
        <time>2023-04-19T13:00:33Z</time>
      </trkpt>
      <trkpt lat="49.82194" lon="2.41873">
        <ele>33.2</ele>
        <time>2023-04-19T13:00:34Z</time>
      </trkpt>
      <trkpt lat="49.82193" lon="2.41873">
        <ele>33.2</ele>
        <time>2023-04-19T13:00:35Z</time>
      </trkpt>
      <trkpt lat="49.82192" lon="2.41873">
        <ele>33.2</ele>
        <time>2023-04-19T13:00:36Z</time>
      </trkpt>
      <trkpt lat="49.82191" lon="2.41872">
        <ele>33.2</ele>
        <time>2023-04-19T13:00:37Z</time>
      </trkpt>
      <trkpt lat="49.8219" lon="2.41872">
        <ele>33.2</ele>
        <time>2023-04-19T13:00:38Z</time>
      </trkpt>
      <trkpt lat="49.82189" lon="2.41871">
        <ele>33.2</ele>
        <time>2023-04-19T13:00:40Z</time>
      </trkpt>
      <trkpt lat="49.82189" lon="2.41871">
        <ele>33.2</ele>
        <time>2023-04-19T13:00:41Z</time>
      </trkpt>
      <trkpt lat="49.82188" lon="2.4187">
        <ele>33.2</ele>
        <time>2023-04-19T13:00:42Z</time>
      </trkpt>
      <trkpt lat="49.82187" lon="2.41869">
        <ele>33.1</ele>
        <time>2023-04-19T13:00:43Z</time>
      </trkpt>
      <trkpt lat="49.82184" lon="2.41869">
        <ele>33.1</ele>
        <time>2023-04-19T13:00:44Z</time>
      </trkpt>
      <trkpt lat="49.82183" lon="2.41868">
        <ele>33.1</ele>
        <time>2023-04-19T13:00:45Z</time>
      </trkpt>
      <trkpt lat="49.82182" lon="2.41868">
        <ele>33.1</ele>
        <time>2023-04-19T13:00:46Z</time>
      </trkpt>
      <trkpt lat="49.82181" lon="2.41867">
        <ele>33.1</ele>
        <time>2023-04-19T13:00:47Z</time>
      </trkpt>
      <trkpt lat="49.82178" lon="2.41866">
        <ele>33.1</ele>
        <time>2023-04-19T13:00:49Z</time>
      </trkpt>
      <trkpt lat="49.82175" lon="2.41865">
        <ele>33.1</ele>
        <time>2023-04-19T13:00:50Z</time>
      </trkpt>
      <trkpt lat="49.82174" lon="2.41865">
        <ele>33.1</ele>
        <time>2023-04-19T13:00:51Z</time>
      </trkpt>
      <trkpt lat="49.82172" lon="2.41864">
        <ele>33.1</ele>
        <time>2023-04-19T13:00:52Z</time>
      </trkpt>
      <trkpt lat="49.8217" lon="2.41864">
        <ele>33.1</ele>
        <time>2023-04-19T13:00:53Z</time>
      </trkpt>
      <trkpt lat="49.82168" lon="2.41863">
        <ele>33</ele>
        <time>2023-04-19T13:00:54Z</time>
      </trkpt>
      <trkpt lat="49.82167" lon="2.41863">
        <ele>33</ele>
        <time>2023-04-19T13:00:56Z</time>
      </trkpt>
      <trkpt lat="49.82166" lon="2.41862">
        <ele>33</ele>
        <time>2023-04-19T13:00:57Z</time>
      </trkpt>
      <trkpt lat="49.82165" lon="2.41862">
        <ele>33</ele>
        <time>2023-04-19T13:00:58Z</time>
      </trkpt>
      <trkpt lat="49.82164" lon="2.41862">
        <ele>33</ele>
        <time>2023-04-19T13:00:59Z</time>
      </trkpt>
      <trkpt lat="49.82162" lon="2.41861">
        <ele>33</ele>
        <time>2023-04-19T13:01:00Z</time>
      </trkpt>
      <trkpt lat="49.82161" lon="2.4186">
        <ele>33</ele>
        <time>2023-04-19T13:01:01Z</time>
      </trkpt>
      <trkpt lat="49.8216" lon="2.4186">
        <ele>33</ele>
        <time>2023-04-19T13:01:02Z</time>
      </trkpt>
      <trkpt lat="49.82159" lon="2.41859">
        <ele>33</ele>
        <time>2023-04-19T13:01:03Z</time>
      </trkpt>
      <trkpt lat="49.82158" lon="2.41859">
        <ele>33</ele>
        <time>2023-04-19T13:01:04Z</time>
      </trkpt>
      <trkpt lat="49.82157" lon="2.41858">
        <ele>33</ele>
        <time>2023-04-19T13:01:05Z</time>
      </trkpt>
      <trkpt lat="49.82157" lon="2.41858">
        <ele>33</ele>
        <time>2023-04-19T13:01:07Z</time>
      </trkpt>
      <trkpt lat="49.82156" lon="2.41857">
        <ele>33</ele>
        <time>2023-04-19T13:01:08Z</time>
      </trkpt>
      <trkpt lat="49.82155" lon="2.41857">
        <ele>33</ele>
        <time>2023-04-19T13:01:09Z</time>
      </trkpt>
      <trkpt lat="49.82153" lon="2.41856">
        <ele>32.9</ele>
        <time>2023-04-19T13:01:10Z</time>
      </trkpt>
      <trkpt lat="49.82152" lon="2.41856">
        <ele>32.9</ele>
        <time>2023-04-19T13:01:12Z</time>
      </trkpt>
      <trkpt lat="49.82152" lon="2.41856">
        <ele>32.9</ele>
        <time>2023-04-19T13:01:13Z</time>
      </trkpt>
      <trkpt lat="49.82151" lon="2.41856">
        <ele>32.9</ele>
        <time>2023-04-19T13:01:14Z</time>
      </trkpt>
      <trkpt lat="49.82149" lon="2.41856">
        <ele>32.9</ele>
        <time>2023-04-19T13:01:15Z</time>
      </trkpt>
      <trkpt lat="49.82148" lon="2.41856">
        <ele>32.9</ele>
        <time>2023-04-19T13:01:16Z</time>
      </trkpt>
      <trkpt lat="49.82147" lon="2.41856">
        <ele>32.9</ele>
        <time>2023-04-19T13:01:17Z</time>
      </trkpt>
      <trkpt lat="49.82146" lon="2.41856">
        <ele>32.9</ele>
        <time>2023-04-19T13:01:18Z</time>
      </trkpt>
      <trkpt lat="49.82145" lon="2.41856">
        <ele>32.9</ele>
        <time>2023-04-19T13:01:19Z</time>
      </trkpt>
      <trkpt lat="49.82144" lon="2.41856">
        <ele>32.9</ele>
        <time>2023-04-19T13:01:21Z</time>
      </trkpt>
      <trkpt lat="49.82143" lon="2.41856">
        <ele>32.9</ele>
        <time>2023-04-19T13:01:22Z</time>
      </trkpt>
      <trkpt lat="49.82141" lon="2.41855">
        <ele>32.9</ele>
        <time>2023-04-19T13:01:23Z</time>
      </trkpt>
      <trkpt lat="49.82141" lon="2.41855">
        <ele>32.9</ele>
        <time>2023-04-19T13:01:24Z</time>
      </trkpt>
      <trkpt lat="49.8214" lon="2.41855">
        <ele>32.9</ele>
        <time>2023-04-19T13:01:25Z</time>
      </trkpt>
      <trkpt lat="49.82139" lon="2.41853">
        <ele>32.9</ele>
        <time>2023-04-19T13:01:26Z</time>
      </trkpt>
      <trkpt lat="49.82138" lon="2.41852">
        <ele>32.8</ele>
        <time>2023-04-19T13:01:27Z</time>
      </trkpt>
      <trkpt lat="49.82136" lon="2.41851">
        <ele>32.8</ele>
        <time>2023-04-19T13:01:28Z</time>
      </trkpt>
      <trkpt lat="49.82135" lon="2.4185">
        <ele>32.8</ele>
        <time>2023-04-19T13:01:29Z</time>
      </trkpt>
      <trkpt lat="49.82133" lon="2.41849">
        <ele>32.8</ele>
        <time>2023-04-19T13:01:30Z</time>
      </trkpt>
      <trkpt lat="49.82132" lon="2.41849">
        <ele>32.8</ele>
        <time>2023-04-19T13:01:32Z</time>
      </trkpt>
      <trkpt lat="49.82131" lon="2.41848">
        <ele>32.8</ele>
        <time>2023-04-19T13:01:33Z</time>
      </trkpt>
      <trkpt lat="49.82129" lon="2.41847">
        <ele>32.8</ele>
        <time>2023-04-19T13:01:34Z</time>
      </trkpt>
      <trkpt lat="49.82128" lon="2.41846">
        <ele>32.8</ele>
        <time>2023-04-19T13:01:35Z</time>
      </trkpt>
      <trkpt lat="49.82126" lon="2.41845">
        <ele>32.8</ele>
        <time>2023-04-19T13:01:36Z</time>
      </trkpt>
      <trkpt lat="49.82125" lon="2.41844">
        <ele>32.8</ele>
        <time>2023-04-19T13:01:37Z</time>
      </trkpt>
      <trkpt lat="49.82123" lon="2.41843">
        <ele>32.8</ele>
        <time>2023-04-19T13:01:38Z</time>
      </trkpt>
      <trkpt lat="49.82122" lon="2.41842">
        <ele>32.8</ele>
        <time>2023-04-19T13:01:39Z</time>
      </trkpt>
      <trkpt lat="49.8212" lon="2.41842">
        <ele>32.8</ele>
        <time>2023-04-19T13:01:40Z</time>
      </trkpt>
      <trkpt lat="49.82119" lon="2.41841">
        <ele>32.8</ele>
        <time>2023-04-19T13:01:41Z</time>
      </trkpt>
      <trkpt lat="49.82118" lon="2.4184">
        <ele>32.8</ele>
        <time>2023-04-19T13:01:43Z</time>
      </trkpt>
      <trkpt lat="49.82117" lon="2.4184">
        <ele>32.8</ele>
        <time>2023-04-19T13:01:44Z</time>
      </trkpt>
      <trkpt lat="49.82116" lon="2.4184">
        <ele>32.8</ele>
        <time>2023-04-19T13:01:45Z</time>
      </trkpt>
      <trkpt lat="49.82114" lon="2.4184">
        <ele>32.8</ele>
        <time>2023-04-19T13:01:46Z</time>
      </trkpt>
      <trkpt lat="49.82113" lon="2.4184">
        <ele>32.8</ele>
        <time>2023-04-19T13:01:48Z</time>
      </trkpt>
      <trkpt lat="49.82111" lon="2.4184">
        <ele>32.8</ele>
        <time>2023-04-19T13:01:49Z</time>
      </trkpt>
      <trkpt lat="49.8211" lon="2.4184">
        <ele>32.8</ele>
        <time>2023-04-19T13:01:50Z</time>
      </trkpt>
      <trkpt lat="49.82109" lon="2.41839">
        <ele>32.8</ele>
        <time>2023-04-19T13:01:51Z</time>
      </trkpt>
      <trkpt lat="49.82107" lon="2.41839">
        <ele>32.8</ele>
        <time>2023-04-19T13:01:52Z</time>
      </trkpt>
      <trkpt lat="49.82107" lon="2.41839">
        <ele>32.8</ele>
        <time>2023-04-19T13:01:53Z</time>
      </trkpt>
      <trkpt lat="49.82105" lon="2.41838">
        <ele>32.8</ele>
        <time>2023-04-19T13:01:54Z</time>
      </trkpt>
      <trkpt lat="49.82105" lon="2.41838">
        <ele>32.8</ele>
        <time>2023-04-19T13:01:55Z</time>
      </trkpt>
      <trkpt lat="49.82104" lon="2.41838">
        <ele>32.8</ele>
        <time>2023-04-19T13:01:56Z</time>
      </trkpt>
      <trkpt lat="49.82103" lon="2.41838">
        <ele>32.8</ele>
        <time>2023-04-19T13:01:57Z</time>
      </trkpt>
      <trkpt lat="49.82101" lon="2.41837">
        <ele>32.8</ele>
        <time>2023-04-19T13:01:59Z</time>
      </trkpt>
      <trkpt lat="49.82101" lon="2.41837">
        <ele>32.8</ele>
        <time>2023-04-19T13:02:00Z</time>
      </trkpt>
      <trkpt lat="49.821" lon="2.41837">
        <ele>32.8</ele>
        <time>2023-04-19T13:02:01Z</time>
      </trkpt>
      <trkpt lat="49.82099" lon="2.41836">
        <ele>32.8</ele>
        <time>2023-04-19T13:02:02Z</time>
      </trkpt>
      <trkpt lat="49.82097" lon="2.41836">
        <ele>32.8</ele>
        <time>2023-04-19T13:02:04Z</time>
      </trkpt>
      <trkpt lat="49.82096" lon="2.41836">
        <ele>32.8</ele>
        <time>2023-04-19T13:02:05Z</time>
      </trkpt>
      <trkpt lat="49.82095" lon="2.41835">
        <ele>32.8</ele>
        <time>2023-04-19T13:02:06Z</time>
      </trkpt>
      <trkpt lat="49.82094" lon="2.41835">
        <ele>32.8</ele>
        <time>2023-04-19T13:02:07Z</time>
      </trkpt>
      <trkpt lat="49.82093" lon="2.41835">
        <ele>32.8</ele>
        <time>2023-04-19T13:02:08Z</time>
      </trkpt>
      <trkpt lat="49.82092" lon="2.41834">
        <ele>32.8</ele>
        <time>2023-04-19T13:02:09Z</time>
      </trkpt>
      <trkpt lat="49.82091" lon="2.41833">
        <ele>32.8</ele>
        <time>2023-04-19T13:02:10Z</time>
      </trkpt>
      <trkpt lat="49.8209" lon="2.41832">
        <ele>32.8</ele>
        <time>2023-04-19T13:02:11Z</time>
      </trkpt>
      <trkpt lat="49.8209" lon="2.41832">
        <ele>32.8</ele>
        <time>2023-04-19T13:02:12Z</time>
      </trkpt>
      <trkpt lat="49.82088" lon="2.41831">
        <ele>32.8</ele>
        <time>2023-04-19T13:02:13Z</time>
      </trkpt>
      <trkpt lat="49.82088" lon="2.41831">
        <ele>32.8</ele>
        <time>2023-04-19T13:02:15Z</time>
      </trkpt>
      <trkpt lat="49.82087" lon="2.41831">
        <ele>32.8</ele>
        <time>2023-04-19T13:02:16Z</time>
      </trkpt>
      <trkpt lat="49.82087" lon="2.41831">
        <ele>32.8</ele>
        <time>2023-04-19T13:02:17Z</time>
      </trkpt>
      <trkpt lat="49.82086" lon="2.4183">
        <ele>32.8</ele>
        <time>2023-04-19T13:02:18Z</time>
      </trkpt>
      <trkpt lat="49.82085" lon="2.41829">
        <ele>32.8</ele>
        <time>2023-04-19T13:02:19Z</time>
      </trkpt>
      <trkpt lat="49.82083" lon="2.41828">
        <ele>32.8</ele>
        <time>2023-04-19T13:02:21Z</time>
      </trkpt>
      <trkpt lat="49.82082" lon="2.41827">
        <ele>32.8</ele>
        <time>2023-04-19T13:02:22Z</time>
      </trkpt>
      <trkpt lat="49.82081" lon="2.41826">
        <ele>32.8</ele>
        <time>2023-04-19T13:02:23Z</time>
      </trkpt>
      <trkpt lat="49.82079" lon="2.41825">
        <ele>32.8</ele>
        <time>2023-04-19T13:02:24Z</time>
      </trkpt>
      <trkpt lat="49.82078" lon="2.41824">
        <ele>32.8</ele>
        <time>2023-04-19T13:02:25Z</time>
      </trkpt>
      <trkpt lat="49.82078" lon="2.41824">
        <ele>32.8</ele>
        <time>2023-04-19T13:02:26Z</time>
      </trkpt>
      <trkpt lat="49.82076" lon="2.41823">
        <ele>32.8</ele>
        <time>2023-04-19T13:02:27Z</time>
      </trkpt>
      <trkpt lat="49.82075" lon="2.41822">
        <ele>32.8</ele>
        <time>2023-04-19T13:02:28Z</time>
      </trkpt>
      <trkpt lat="49.82074" lon="2.41822">
        <ele>32.8</ele>
        <time>2023-04-19T13:02:29Z</time>
      </trkpt>
      <trkpt lat="49.82072" lon="2.4182">
        <ele>32.8</ele>
        <time>2023-04-19T13:02:30Z</time>
      </trkpt>
      <trkpt lat="49.82071" lon="2.4182">
        <ele>32.8</ele>
        <time>2023-04-19T13:02:32Z</time>
      </trkpt>
      <trkpt lat="49.82071" lon="2.41819">
        <ele>32.8</ele>
        <time>2023-04-19T13:02:33Z</time>
      </trkpt>
      <trkpt lat="49.82069" lon="2.41818">
        <ele>32.8</ele>
        <time>2023-04-19T13:02:34Z</time>
      </trkpt>
      <trkpt lat="49.82068" lon="2.41817">
        <ele>32.8</ele>
        <time>2023-04-19T13:02:35Z</time>
      </trkpt>
      <trkpt lat="49.82067" lon="2.41817">
        <ele>32.8</ele>
        <time>2023-04-19T13:02:36Z</time>
      </trkpt>
      <trkpt lat="49.82066" lon="2.41816">
        <ele>32.8</ele>
        <time>2023-04-19T13:02:37Z</time>
      </trkpt>
      <trkpt lat="49.82065" lon="2.41816">
        <ele>32.8</ele>
        <time>2023-04-19T13:02:38Z</time>
      </trkpt>
      <trkpt lat="49.82063" lon="2.41815">
        <ele>32.8</ele>
        <time>2023-04-19T13:02:39Z</time>
      </trkpt>
      <trkpt lat="49.82062" lon="2.41814">
        <ele>32.7</ele>
        <time>2023-04-19T13:02:41Z</time>
      </trkpt>
      <trkpt lat="49.82061" lon="2.41813">
        <ele>32.7</ele>
        <time>2023-04-19T13:02:42Z</time>
      </trkpt>
      <trkpt lat="49.8206" lon="2.41812">
        <ele>32.7</ele>
        <time>2023-04-19T13:02:43Z</time>
      </trkpt>
      <trkpt lat="49.82059" lon="2.41811">
        <ele>32.7</ele>
        <time>2023-04-19T13:02:44Z</time>
      </trkpt>
      <trkpt lat="49.82057" lon="2.4181">
        <ele>32.7</ele>
        <time>2023-04-19T13:02:45Z</time>
      </trkpt>
      <trkpt lat="49.82056" lon="2.41809">
        <ele>32.7</ele>
        <time>2023-04-19T13:02:46Z</time>
      </trkpt>
      <trkpt lat="49.82054" lon="2.41808">
        <ele>32.7</ele>
        <time>2023-04-19T13:02:48Z</time>
      </trkpt>
      <trkpt lat="49.82053" lon="2.41807">
        <ele>32.7</ele>
        <time>2023-04-19T13:02:49Z</time>
      </trkpt>
      <trkpt lat="49.82052" lon="2.41807">
        <ele>32.7</ele>
        <time>2023-04-19T13:02:50Z</time>
      </trkpt>
      <trkpt lat="49.82051" lon="2.41806">
        <ele>32.7</ele>
        <time>2023-04-19T13:02:51Z</time>
      </trkpt>
      <trkpt lat="49.82048" lon="2.41804">
        <ele>32.7</ele>
        <time>2023-04-19T13:02:52Z</time>
      </trkpt>
      <trkpt lat="49.82047" lon="2.41803">
        <ele>32.7</ele>
        <time>2023-04-19T13:02:54Z</time>
      </trkpt>
      <trkpt lat="49.82046" lon="2.41803">
        <ele>32.7</ele>
        <time>2023-04-19T13:02:55Z</time>
      </trkpt>
      <trkpt lat="49.82045" lon="2.41802">
        <ele>32.7</ele>
        <time>2023-04-19T13:02:56Z</time>
      </trkpt>
      <trkpt lat="49.82044" lon="2.41801">
        <ele>32.7</ele>
        <time>2023-04-19T13:02:57Z</time>
      </trkpt>
      <trkpt lat="49.82042" lon="2.418">
        <ele>32.7</ele>
        <time>2023-04-19T13:02:58Z</time>
      </trkpt>
      <trkpt lat="49.82041" lon="2.418">
        <ele>32.7</ele>
        <time>2023-04-19T13:02:59Z</time>
      </trkpt>
      <trkpt lat="49.82041" lon="2.418">
        <ele>32.7</ele>
        <time>2023-04-19T13:03:00Z</time>
      </trkpt>
      <trkpt lat="49.8204" lon="2.41799">
        <ele>32.7</ele>
        <time>2023-04-19T13:03:01Z</time>
      </trkpt>
      <trkpt lat="49.82039" lon="2.41799">
        <ele>32.6</ele>
        <time>2023-04-19T13:03:02Z</time>
      </trkpt>
      <trkpt lat="49.82038" lon="2.41798">
        <ele>32.6</ele>
        <time>2023-04-19T13:03:04Z</time>
      </trkpt>
      <trkpt lat="49.82037" lon="2.41797">
        <ele>32.6</ele>
        <time>2023-04-19T13:03:05Z</time>
      </trkpt>
      <trkpt lat="49.82036" lon="2.41796">
        <ele>32.6</ele>
        <time>2023-04-19T13:03:06Z</time>
      </trkpt>
      <trkpt lat="49.82035" lon="2.41795">
        <ele>32.6</ele>
        <time>2023-04-19T13:03:07Z</time>
      </trkpt>
      <trkpt lat="49.82033" lon="2.41795">
        <ele>32.6</ele>
        <time>2023-04-19T13:03:08Z</time>
      </trkpt>
      <trkpt lat="49.82032" lon="2.41794">
        <ele>32.6</ele>
        <time>2023-04-19T13:03:09Z</time>
      </trkpt>
      <trkpt lat="49.82031" lon="2.41793">
        <ele>32.6</ele>
        <time>2023-04-19T13:03:10Z</time>
      </trkpt>
      <trkpt lat="49.82029" lon="2.41792">
        <ele>32.6</ele>
        <time>2023-04-19T13:03:11Z</time>
      </trkpt>
      <trkpt lat="49.82028" lon="2.41791">
        <ele>32.6</ele>
        <time>2023-04-19T13:03:12Z</time>
      </trkpt>
      <trkpt lat="49.82026" lon="2.4179">
        <ele>32.6</ele>
        <time>2023-04-19T13:03:13Z</time>
      </trkpt>
      <trkpt lat="49.82025" lon="2.4179">
        <ele>32.6</ele>
        <time>2023-04-19T13:03:15Z</time>
      </trkpt>
      <trkpt lat="49.82024" lon="2.41789">
        <ele>32.6</ele>
        <time>2023-04-19T13:03:16Z</time>
      </trkpt>
      <trkpt lat="49.82021" lon="2.41788">
        <ele>32.6</ele>
        <time>2023-04-19T13:03:17Z</time>
      </trkpt>
      <trkpt lat="49.8202" lon="2.41787">
        <ele>32.6</ele>
        <time>2023-04-19T13:03:18Z</time>
      </trkpt>
      <trkpt lat="49.82019" lon="2.41787">
        <ele>32.6</ele>
        <time>2023-04-19T13:03:19Z</time>
      </trkpt>
      <trkpt lat="49.82017" lon="2.41786">
        <ele>32.6</ele>
        <time>2023-04-19T13:03:20Z</time>
      </trkpt>
      <trkpt lat="49.82015" lon="2.41784">
        <ele>32.6</ele>
        <time>2023-04-19T13:03:21Z</time>
      </trkpt>
      <trkpt lat="49.82014" lon="2.41783">
        <ele>32.6</ele>
        <time>2023-04-19T13:03:22Z</time>
      </trkpt>
      <trkpt lat="49.82013" lon="2.41782">
        <ele>32.6</ele>
        <time>2023-04-19T13:03:23Z</time>
      </trkpt>
      <trkpt lat="49.82011" lon="2.41781">
        <ele>32.6</ele>
        <time>2023-04-19T13:03:24Z</time>
      </trkpt>
      <trkpt lat="49.8201" lon="2.41781">
        <ele>32.6</ele>
        <time>2023-04-19T13:03:25Z</time>
      </trkpt>
      <trkpt lat="49.82008" lon="2.4178">
        <ele>32.6</ele>
        <time>2023-04-19T13:03:26Z</time>
      </trkpt>
      <trkpt lat="49.82007" lon="2.4178">
        <ele>32.6</ele>
        <time>2023-04-19T13:03:27Z</time>
      </trkpt>
      <trkpt lat="49.82006" lon="2.4178">
        <ele>32.6</ele>
        <time>2023-04-19T13:03:29Z</time>
      </trkpt>
      <trkpt lat="49.82004" lon="2.41779">
        <ele>32.6</ele>
        <time>2023-04-19T13:03:30Z</time>
      </trkpt>
      <trkpt lat="49.82003" lon="2.41779">
        <ele>32.6</ele>
        <time>2023-04-19T13:03:31Z</time>
      </trkpt>
      <trkpt lat="49.82001" lon="2.41779">
        <ele>32.6</ele>
        <time>2023-04-19T13:03:32Z</time>
      </trkpt>
      <trkpt lat="49.82" lon="2.41778">
        <ele>32.6</ele>
        <time>2023-04-19T13:03:33Z</time>
      </trkpt>
      <trkpt lat="49.81998" lon="2.41777">
        <ele>32.6</ele>
        <time>2023-04-19T13:03:35Z</time>
      </trkpt>
      <trkpt lat="49.81996" lon="2.41777">
        <ele>32.6</ele>
        <time>2023-04-19T13:03:36Z</time>
      </trkpt>
      <trkpt lat="49.81995" lon="2.41776">
        <ele>32.6</ele>
        <time>2023-04-19T13:03:37Z</time>
      </trkpt>
      <trkpt lat="49.81993" lon="2.41776">
        <ele>32.6</ele>
        <time>2023-04-19T13:03:38Z</time>
      </trkpt>
      <trkpt lat="49.81992" lon="2.41776">
        <ele>32.6</ele>
        <time>2023-04-19T13:03:40Z</time>
      </trkpt>
      <trkpt lat="49.8199" lon="2.41776">
        <ele>32.6</ele>
        <time>2023-04-19T13:03:41Z</time>
      </trkpt>
      <trkpt lat="49.81988" lon="2.41776">
        <ele>32.6</ele>
        <time>2023-04-19T13:03:42Z</time>
      </trkpt>
      <trkpt lat="49.81987" lon="2.41776">
        <ele>32.6</ele>
        <time>2023-04-19T13:03:43Z</time>
      </trkpt>
      <trkpt lat="49.81986" lon="2.41776">
        <ele>32.6</ele>
        <time>2023-04-19T13:03:44Z</time>
      </trkpt>
      <trkpt lat="49.81983" lon="2.41775">
        <ele>32.7</ele>
        <time>2023-04-19T13:03:46Z</time>
      </trkpt>
      <trkpt lat="49.81983" lon="2.41775">
        <ele>32.7</ele>
        <time>2023-04-19T13:03:47Z</time>
      </trkpt>
      <trkpt lat="49.81981" lon="2.41775">
        <ele>32.7</ele>
        <time>2023-04-19T13:03:48Z</time>
      </trkpt>
      <trkpt lat="49.8198" lon="2.41775">
        <ele>32.7</ele>
        <time>2023-04-19T13:03:49Z</time>
      </trkpt>
      <trkpt lat="49.81978" lon="2.41775">
        <ele>32.7</ele>
        <time>2023-04-19T13:03:50Z</time>
      </trkpt>
      <trkpt lat="49.81978" lon="2.41777">
        <ele>32.7</ele>
        <time>2023-04-19T13:03:51Z</time>
      </trkpt>
      <trkpt lat="49.81977" lon="2.41779">
        <ele>32.7</ele>
        <time>2023-04-19T13:03:53Z</time>
      </trkpt>
      <trkpt lat="49.81978" lon="2.41781">
        <ele>32.7</ele>
        <time>2023-04-19T13:03:54Z</time>
      </trkpt>
      <trkpt lat="49.81979" lon="2.41782">
        <ele>32.7</ele>
        <time>2023-04-19T13:03:55Z</time>
      </trkpt>
      <trkpt lat="49.81979" lon="2.41784">
        <ele>32.7</ele>
        <time>2023-04-19T13:03:56Z</time>
      </trkpt>
      <trkpt lat="49.81979" lon="2.41784">
        <ele>32.7</ele>
        <time>2023-04-19T13:03:57Z</time>
      </trkpt>
      <trkpt lat="49.81979" lon="2.41786">
        <ele>32.7</ele>
        <time>2023-04-19T13:03:59Z</time>
      </trkpt>
      <trkpt lat="49.81979" lon="2.41787">
        <ele>32.7</ele>
        <time>2023-04-19T13:04:00Z</time>
      </trkpt>
      <trkpt lat="49.8198" lon="2.41788">
        <ele>32.7</ele>
        <time>2023-04-19T13:04:02Z</time>
      </trkpt>
      <trkpt lat="49.8198" lon="2.41788">
        <ele>32.7</ele>
        <time>2023-04-19T13:04:03Z</time>
      </trkpt>
      <trkpt lat="49.8198" lon="2.41788">
        <ele>32.7</ele>
        <time>2023-04-19T13:04:04Z</time>
      </trkpt>
      <trkpt lat="49.81981" lon="2.41788">
        <ele>32.7</ele>
        <time>2023-04-19T13:04:06Z</time>
      </trkpt>
      <trkpt lat="49.81981" lon="2.41788">
        <ele>32.7</ele>
        <time>2023-04-19T13:04:07Z</time>
      </trkpt>
      <trkpt lat="49.81981" lon="2.41788">
        <ele>32.7</ele>
        <time>2023-04-19T13:04:09Z</time>
      </trkpt>
      <trkpt lat="49.81981" lon="2.41788">
        <ele>32.7</ele>
        <time>2023-04-19T13:04:10Z</time>
      </trkpt>
      <trkpt lat="49.81981" lon="2.41788">
        <ele>32.7</ele>
        <time>2023-04-19T13:04:12Z</time>
      </trkpt>
      <trkpt lat="49.81981" lon="2.41788">
        <ele>32.7</ele>
        <time>2023-04-19T13:04:13Z</time>
      </trkpt>
      <trkpt lat="49.81981" lon="2.41787">
        <ele>32.7</ele>
        <time>2023-04-19T13:04:14Z</time>
      </trkpt>
      <trkpt lat="49.8198" lon="2.41786">
        <ele>32.7</ele>
        <time>2023-04-19T13:04:16Z</time>
      </trkpt>
      <trkpt lat="49.8198" lon="2.41784">
        <ele>32.7</ele>
        <time>2023-04-19T13:04:17Z</time>
      </trkpt>
      <trkpt lat="49.81979" lon="2.41783">
        <ele>32.7</ele>
        <time>2023-04-19T13:04:18Z</time>
      </trkpt>
      <trkpt lat="49.81978" lon="2.41782">
        <ele>32.7</ele>
        <time>2023-04-19T13:04:19Z</time>
      </trkpt>
      <trkpt lat="49.81977" lon="2.41781">
        <ele>32.7</ele>
        <time>2023-04-19T13:04:20Z</time>
      </trkpt>
      <trkpt lat="49.81976" lon="2.41779">
        <ele>32.7</ele>
        <time>2023-04-19T13:04:21Z</time>
      </trkpt>
      <trkpt lat="49.81976" lon="2.41778">
        <ele>32.7</ele>
        <time>2023-04-19T13:04:23Z</time>
      </trkpt>
      <trkpt lat="49.81975" lon="2.41778">
        <ele>32.7</ele>
        <time>2023-04-19T13:04:24Z</time>
      </trkpt>
      <trkpt lat="49.81974" lon="2.41778">
        <ele>32.7</ele>
        <time>2023-04-19T13:04:25Z</time>
      </trkpt>
      <trkpt lat="49.81974" lon="2.41779">
        <ele>32.7</ele>
        <time>2023-04-19T13:04:26Z</time>
      </trkpt>
      <trkpt lat="49.81974" lon="2.41779">
        <ele>32.7</ele>
        <time>2023-04-19T13:04:27Z</time>
      </trkpt>
      <trkpt lat="49.81974" lon="2.41778">
        <ele>32.7</ele>
        <time>2023-04-19T13:04:28Z</time>
      </trkpt>
      <trkpt lat="49.81973" lon="2.41778">
        <ele>32.7</ele>
        <time>2023-04-19T13:04:30Z</time>
      </trkpt>
      <trkpt lat="49.81972" lon="2.41777">
        <ele>32.7</ele>
        <time>2023-04-19T13:04:31Z</time>
      </trkpt>
      <trkpt lat="49.81972" lon="2.41776">
        <ele>32.7</ele>
        <time>2023-04-19T13:04:32Z</time>
      </trkpt>
      <trkpt lat="49.8197" lon="2.41775">
        <ele>32.7</ele>
        <time>2023-04-19T13:04:33Z</time>
      </trkpt>
      <trkpt lat="49.81969" lon="2.41773">
        <ele>32.7</ele>
        <time>2023-04-19T13:04:34Z</time>
      </trkpt>
      <trkpt lat="49.81968" lon="2.41772">
        <ele>32.7</ele>
        <time>2023-04-19T13:04:35Z</time>
      </trkpt>
      <trkpt lat="49.81968" lon="2.41771">
        <ele>32.6</ele>
        <time>2023-04-19T13:04:36Z</time>
      </trkpt>
      <trkpt lat="49.81966" lon="2.41768">
        <ele>32.6</ele>
        <time>2023-04-19T13:04:38Z</time>
      </trkpt>
      <trkpt lat="49.81964" lon="2.41767">
        <ele>32.6</ele>
        <time>2023-04-19T13:04:39Z</time>
      </trkpt>
      <trkpt lat="49.81963" lon="2.41766">
        <ele>32.6</ele>
        <time>2023-04-19T13:04:40Z</time>
      </trkpt>
      <trkpt lat="49.81962" lon="2.41765">
        <ele>32.6</ele>
        <time>2023-04-19T13:04:41Z</time>
      </trkpt>
      <trkpt lat="49.8196" lon="2.41764">
        <ele>32.6</ele>
        <time>2023-04-19T13:04:42Z</time>
      </trkpt>
      <trkpt lat="49.81959" lon="2.41763">
        <ele>32.6</ele>
        <time>2023-04-19T13:04:43Z</time>
      </trkpt>
      <trkpt lat="49.81958" lon="2.41763">
        <ele>32.6</ele>
        <time>2023-04-19T13:04:44Z</time>
      </trkpt>
      <trkpt lat="49.81957" lon="2.41762">
        <ele>32.6</ele>
        <time>2023-04-19T13:04:46Z</time>
      </trkpt>
      <trkpt lat="49.81956" lon="2.41761">
        <ele>32.6</ele>
        <time>2023-04-19T13:04:47Z</time>
      </trkpt>
      <trkpt lat="49.81955" lon="2.4176">
        <ele>32.6</ele>
        <time>2023-04-19T13:04:48Z</time>
      </trkpt>
      <trkpt lat="49.81954" lon="2.4176">
        <ele>32.6</ele>
        <time>2023-04-19T13:04:49Z</time>
      </trkpt>
      <trkpt lat="49.81954" lon="2.4176">
        <ele>32.6</ele>
        <time>2023-04-19T13:04:50Z</time>
      </trkpt>
      <trkpt lat="49.81953" lon="2.41759">
        <ele>32.6</ele>
        <time>2023-04-19T13:04:51Z</time>
      </trkpt>
      <trkpt lat="49.81953" lon="2.41758">
        <ele>32.6</ele>
        <time>2023-04-19T13:04:52Z</time>
      </trkpt>
      <trkpt lat="49.81952" lon="2.41758">
        <ele>32.6</ele>
        <time>2023-04-19T13:04:53Z</time>
      </trkpt>
      <trkpt lat="49.81949" lon="2.41756">
        <ele>32.5</ele>
        <time>2023-04-19T13:04:54Z</time>
      </trkpt>
      <trkpt lat="49.81948" lon="2.41755">
        <ele>32.5</ele>
        <time>2023-04-19T13:04:56Z</time>
      </trkpt>
      <trkpt lat="49.81946" lon="2.41754">
        <ele>32.5</ele>
        <time>2023-04-19T13:04:57Z</time>
      </trkpt>
      <trkpt lat="49.81945" lon="2.41753">
        <ele>32.5</ele>
        <time>2023-04-19T13:04:58Z</time>
      </trkpt>
      <trkpt lat="49.81943" lon="2.41752">
        <ele>32.5</ele>
        <time>2023-04-19T13:04:59Z</time>
      </trkpt>
      <trkpt lat="49.81942" lon="2.41751">
        <ele>32.5</ele>
        <time>2023-04-19T13:05:00Z</time>
      </trkpt>
      <trkpt lat="49.81942" lon="2.41751">
        <ele>32.5</ele>
        <time>2023-04-19T13:05:01Z</time>
      </trkpt>
      <trkpt lat="49.81942" lon="2.41751">
        <ele>32.5</ele>
        <time>2023-04-19T13:05:03Z</time>
      </trkpt>
      <trkpt lat="49.81941" lon="2.4175">
        <ele>32.5</ele>
        <time>2023-04-19T13:05:04Z</time>
      </trkpt>
      <trkpt lat="49.8194" lon="2.4175">
        <ele>32.5</ele>
        <time>2023-04-19T13:05:05Z</time>
      </trkpt>
      <trkpt lat="49.81938" lon="2.41749">
        <ele>32.5</ele>
        <time>2023-04-19T13:05:06Z</time>
      </trkpt>
      <trkpt lat="49.81937" lon="2.41747">
        <ele>32.5</ele>
        <time>2023-04-19T13:05:07Z</time>
      </trkpt>
      <trkpt lat="49.81936" lon="2.41746">
        <ele>32.5</ele>
        <time>2023-04-19T13:05:08Z</time>
      </trkpt>
      <trkpt lat="49.81934" lon="2.41746">
        <ele>32.5</ele>
        <time>2023-04-19T13:05:09Z</time>
      </trkpt>
      <trkpt lat="49.81933" lon="2.41745">
        <ele>32.5</ele>
        <time>2023-04-19T13:05:10Z</time>
      </trkpt>
      <trkpt lat="49.81932" lon="2.41744">
        <ele>32.5</ele>
        <time>2023-04-19T13:05:11Z</time>
      </trkpt>
      <trkpt lat="49.81931" lon="2.41744">
        <ele>32.5</ele>
        <time>2023-04-19T13:05:12Z</time>
      </trkpt>
      <trkpt lat="49.81929" lon="2.41743">
        <ele>32.5</ele>
        <time>2023-04-19T13:05:13Z</time>
      </trkpt>
      <trkpt lat="49.81928" lon="2.41743">
        <ele>32.5</ele>
        <time>2023-04-19T13:05:15Z</time>
      </trkpt>
      <trkpt lat="49.81927" lon="2.41742">
        <ele>32.5</ele>
        <time>2023-04-19T13:05:16Z</time>
      </trkpt>
      <trkpt lat="49.81926" lon="2.41742">
        <ele>32.5</ele>
        <time>2023-04-19T13:05:17Z</time>
      </trkpt>
      <trkpt lat="49.81925" lon="2.41741">
        <ele>32.5</ele>
        <time>2023-04-19T13:05:18Z</time>
      </trkpt>
      <trkpt lat="49.81925" lon="2.41741">
        <ele>32.5</ele>
        <time>2023-04-19T13:05:19Z</time>
      </trkpt>
      <trkpt lat="49.81925" lon="2.41741">
        <ele>32.5</ele>
        <time>2023-04-19T13:05:20Z</time>
      </trkpt>
      <trkpt lat="49.81924" lon="2.41741">
        <ele>32.5</ele>
        <time>2023-04-19T13:05:21Z</time>
      </trkpt>
      <trkpt lat="49.81923" lon="2.41741">
        <ele>32.5</ele>
        <time>2023-04-19T13:05:23Z</time>
      </trkpt>
      <trkpt lat="49.81923" lon="2.4174">
        <ele>32.5</ele>
        <time>2023-04-19T13:05:24Z</time>
      </trkpt>
      <trkpt lat="49.81922" lon="2.4174">
        <ele>32.4</ele>
        <time>2023-04-19T13:05:25Z</time>
      </trkpt>
      <trkpt lat="49.81921" lon="2.4174">
        <ele>32.4</ele>
        <time>2023-04-19T13:05:26Z</time>
      </trkpt>
      <trkpt lat="49.81921" lon="2.41739">
        <ele>32.4</ele>
        <time>2023-04-19T13:05:27Z</time>
      </trkpt>
      <trkpt lat="49.81919" lon="2.41739">
        <ele>32.4</ele>
        <time>2023-04-19T13:05:28Z</time>
      </trkpt>
      <trkpt lat="49.81917" lon="2.41737">
        <ele>32.4</ele>
        <time>2023-04-19T13:05:30Z</time>
      </trkpt>
      <trkpt lat="49.81915" lon="2.41736">
        <ele>32.4</ele>
        <time>2023-04-19T13:05:31Z</time>
      </trkpt>
      <trkpt lat="49.81914" lon="2.41736">
        <ele>32.4</ele>
        <time>2023-04-19T13:05:32Z</time>
      </trkpt>
      <trkpt lat="49.81913" lon="2.41735">
        <ele>32.4</ele>
        <time>2023-04-19T13:05:34Z</time>
      </trkpt>
      <trkpt lat="49.81912" lon="2.41734">
        <ele>32.4</ele>
        <time>2023-04-19T13:05:35Z</time>
      </trkpt>
      <trkpt lat="49.8191" lon="2.41733">
        <ele>32.4</ele>
        <time>2023-04-19T13:05:36Z</time>
      </trkpt>
      <trkpt lat="49.81908" lon="2.41732">
        <ele>32.4</ele>
        <time>2023-04-19T13:05:37Z</time>
      </trkpt>
      <trkpt lat="49.81907" lon="2.41731">
        <ele>32.4</ele>
        <time>2023-04-19T13:05:38Z</time>
      </trkpt>
      <trkpt lat="49.81906" lon="2.4173">
        <ele>32.4</ele>
        <time>2023-04-19T13:05:39Z</time>
      </trkpt>
      <trkpt lat="49.81906" lon="2.4173">
        <ele>32.4</ele>
        <time>2023-04-19T13:05:40Z</time>
      </trkpt>
      <trkpt lat="49.81905" lon="2.4173">
        <ele>32.4</ele>
        <time>2023-04-19T13:05:41Z</time>
      </trkpt>
      <trkpt lat="49.81904" lon="2.41729">
        <ele>32.4</ele>
        <time>2023-04-19T13:05:42Z</time>
      </trkpt>
      <trkpt lat="49.81903" lon="2.41729">
        <ele>32.4</ele>
        <time>2023-04-19T13:05:43Z</time>
      </trkpt>
      <trkpt lat="49.81902" lon="2.41728">
        <ele>32.4</ele>
        <time>2023-04-19T13:05:44Z</time>
      </trkpt>
      <trkpt lat="49.819" lon="2.41726">
        <ele>32.4</ele>
        <time>2023-04-19T13:05:46Z</time>
      </trkpt>
      <trkpt lat="49.81897" lon="2.41724">
        <ele>32.4</ele>
        <time>2023-04-19T13:05:47Z</time>
      </trkpt>
      <trkpt lat="49.81894" lon="2.41722">
        <ele>32.3</ele>
        <time>2023-04-19T13:05:48Z</time>
      </trkpt>
      <trkpt lat="49.81893" lon="2.41721">
        <ele>32.3</ele>
        <time>2023-04-19T13:05:49Z</time>
      </trkpt>
      <trkpt lat="49.81891" lon="2.4172">
        <ele>32.3</ele>
        <time>2023-04-19T13:05:50Z</time>
      </trkpt>
      <trkpt lat="49.8189" lon="2.41719">
        <ele>32.3</ele>
        <time>2023-04-19T13:05:51Z</time>
      </trkpt>
      <trkpt lat="49.81888" lon="2.41718">
        <ele>32.3</ele>
        <time>2023-04-19T13:05:53Z</time>
      </trkpt>
      <trkpt lat="49.81887" lon="2.41718">
        <ele>32.3</ele>
        <time>2023-04-19T13:05:54Z</time>
      </trkpt>
      <trkpt lat="49.81886" lon="2.41718">
        <ele>32.3</ele>
        <time>2023-04-19T13:05:55Z</time>
      </trkpt>
      <trkpt lat="49.81885" lon="2.41717">
        <ele>32.3</ele>
        <time>2023-04-19T13:05:56Z</time>
      </trkpt>
      <trkpt lat="49.81884" lon="2.41716">
        <ele>32.3</ele>
        <time>2023-04-19T13:05:57Z</time>
      </trkpt>
      <trkpt lat="49.81882" lon="2.41716">
        <ele>32.3</ele>
        <time>2023-04-19T13:05:59Z</time>
      </trkpt>
      <trkpt lat="49.8188" lon="2.41715">
        <ele>32.3</ele>
        <time>2023-04-19T13:06:00Z</time>
      </trkpt>
      <trkpt lat="49.81879" lon="2.41714">
        <ele>32.3</ele>
        <time>2023-04-19T13:06:01Z</time>
      </trkpt>
      <trkpt lat="49.81878" lon="2.41713">
        <ele>32.3</ele>
        <time>2023-04-19T13:06:02Z</time>
      </trkpt>
      <trkpt lat="49.81877" lon="2.41712">
        <ele>32.3</ele>
        <time>2023-04-19T13:06:03Z</time>
      </trkpt>
      <trkpt lat="49.81876" lon="2.41712">
        <ele>32.3</ele>
        <time>2023-04-19T13:06:04Z</time>
      </trkpt>
      <trkpt lat="49.81875" lon="2.41711">
        <ele>32.3</ele>
        <time>2023-04-19T13:06:05Z</time>
      </trkpt>
      <trkpt lat="49.81874" lon="2.41711">
        <ele>32.3</ele>
        <time>2023-04-19T13:06:06Z</time>
      </trkpt>
      <trkpt lat="49.81874" lon="2.4171">
        <ele>32.3</ele>
        <time>2023-04-19T13:06:07Z</time>
      </trkpt>
      <trkpt lat="49.81872" lon="2.41709">
        <ele>32.2</ele>
        <time>2023-04-19T13:06:08Z</time>
      </trkpt>
      <trkpt lat="49.8187" lon="2.41708">
        <ele>32.2</ele>
        <time>2023-04-19T13:06:10Z</time>
      </trkpt>
      <trkpt lat="49.81867" lon="2.41707">
        <ele>32.2</ele>
        <time>2023-04-19T13:06:11Z</time>
      </trkpt>
      <trkpt lat="49.81866" lon="2.41707">
        <ele>32.2</ele>
        <time>2023-04-19T13:06:12Z</time>
      </trkpt>
      <trkpt lat="49.81865" lon="2.41706">
        <ele>32.3</ele>
        <time>2023-04-19T13:06:13Z</time>
      </trkpt>
      <trkpt lat="49.81863" lon="2.41705">
        <ele>32.3</ele>
        <time>2023-04-19T13:06:14Z</time>
      </trkpt>
      <trkpt lat="49.81862" lon="2.41704">
        <ele>32.3</ele>
        <time>2023-04-19T13:06:15Z</time>
      </trkpt>
      <trkpt lat="49.8186" lon="2.41703">
        <ele>32.3</ele>
        <time>2023-04-19T13:06:16Z</time>
      </trkpt>
      <trkpt lat="49.81859" lon="2.41703">
        <ele>32.3</ele>
        <time>2023-04-19T13:06:17Z</time>
      </trkpt>
      <trkpt lat="49.81857" lon="2.41702">
        <ele>32.3</ele>
        <time>2023-04-19T13:06:18Z</time>
      </trkpt>
      <trkpt lat="49.81856" lon="2.41701">
        <ele>32.3</ele>
        <time>2023-04-19T13:06:20Z</time>
      </trkpt>
      <trkpt lat="49.81854" lon="2.417">
        <ele>32.4</ele>
        <time>2023-04-19T13:06:21Z</time>
      </trkpt>
      <trkpt lat="49.81853" lon="2.41698">
        <ele>32.4</ele>
        <time>2023-04-19T13:06:22Z</time>
      </trkpt>
      <trkpt lat="49.81852" lon="2.41697">
        <ele>32.4</ele>
        <time>2023-04-19T13:06:23Z</time>
      </trkpt>
      <trkpt lat="49.81851" lon="2.41697">
        <ele>32.4</ele>
        <time>2023-04-19T13:06:24Z</time>
      </trkpt>
      <trkpt lat="49.8185" lon="2.41695">
        <ele>32.5</ele>
        <time>2023-04-19T13:06:25Z</time>
      </trkpt>
      <trkpt lat="49.81849" lon="2.41694">
        <ele>32.5</ele>
        <time>2023-04-19T13:06:26Z</time>
      </trkpt>
      <trkpt lat="49.81848" lon="2.41694">
        <ele>32.5</ele>
        <time>2023-04-19T13:06:27Z</time>
      </trkpt>
      <trkpt lat="49.81846" lon="2.41693">
        <ele>32.6</ele>
        <time>2023-04-19T13:06:28Z</time>
      </trkpt>
      <trkpt lat="49.81845" lon="2.41693">
        <ele>32.6</ele>
        <time>2023-04-19T13:06:29Z</time>
      </trkpt>
      <trkpt lat="49.81844" lon="2.41692">
        <ele>32.6</ele>
        <time>2023-04-19T13:06:31Z</time>
      </trkpt>
      <trkpt lat="49.81843" lon="2.41692">
        <ele>32.6</ele>
        <time>2023-04-19T13:06:32Z</time>
      </trkpt>
      <trkpt lat="49.81842" lon="2.41691">
        <ele>32.6</ele>
        <time>2023-04-19T13:06:33Z</time>
      </trkpt>
      <trkpt lat="49.81841" lon="2.41691">
        <ele>32.7</ele>
        <time>2023-04-19T13:06:34Z</time>
      </trkpt>
      <trkpt lat="49.81839" lon="2.4169">
        <ele>32.7</ele>
        <time>2023-04-19T13:06:35Z</time>
      </trkpt>
      <trkpt lat="49.81838" lon="2.4169">
        <ele>32.7</ele>
        <time>2023-04-19T13:06:36Z</time>
      </trkpt>
      <trkpt lat="49.81837" lon="2.41689">
        <ele>32.7</ele>
        <time>2023-04-19T13:06:37Z</time>
      </trkpt>
      <trkpt lat="49.81836" lon="2.41689">
        <ele>32.7</ele>
        <time>2023-04-19T13:06:39Z</time>
      </trkpt>
      <trkpt lat="49.81834" lon="2.41688">
        <ele>32.8</ele>
        <time>2023-04-19T13:06:40Z</time>
      </trkpt>
      <trkpt lat="49.81833" lon="2.41687">
        <ele>32.8</ele>
        <time>2023-04-19T13:06:41Z</time>
      </trkpt>
      <trkpt lat="49.81831" lon="2.41687">
        <ele>32.8</ele>
        <time>2023-04-19T13:06:42Z</time>
      </trkpt>
      <trkpt lat="49.81829" lon="2.41686">
        <ele>32.8</ele>
        <time>2023-04-19T13:06:43Z</time>
      </trkpt>
      <trkpt lat="49.81828" lon="2.41686">
        <ele>32.8</ele>
        <time>2023-04-19T13:06:44Z</time>
      </trkpt>
      <trkpt lat="49.81827" lon="2.41686">
        <ele>32.9</ele>
        <time>2023-04-19T13:06:45Z</time>
      </trkpt>
      <trkpt lat="49.81826" lon="2.41686">
        <ele>32.9</ele>
        <time>2023-04-19T13:06:46Z</time>
      </trkpt>
      <trkpt lat="49.81825" lon="2.41686">
        <ele>32.9</ele>
        <time>2023-04-19T13:06:47Z</time>
      </trkpt>
      <trkpt lat="49.81823" lon="2.41686">
        <ele>32.9</ele>
        <time>2023-04-19T13:06:49Z</time>
      </trkpt>
      <trkpt lat="49.81822" lon="2.41685">
        <ele>32.9</ele>
        <time>2023-04-19T13:06:50Z</time>
      </trkpt>
      <trkpt lat="49.81821" lon="2.41685">
        <ele>32.9</ele>
        <time>2023-04-19T13:06:51Z</time>
      </trkpt>
      <trkpt lat="49.8182" lon="2.41684">
        <ele>32.9</ele>
        <time>2023-04-19T13:06:52Z</time>
      </trkpt>
      <trkpt lat="49.81818" lon="2.41684">
        <ele>32.9</ele>
        <time>2023-04-19T13:06:53Z</time>
      </trkpt>
      <trkpt lat="49.81817" lon="2.41684">
        <ele>32.9</ele>
        <time>2023-04-19T13:06:54Z</time>
      </trkpt>
      <trkpt lat="49.81817" lon="2.41683">
        <ele>32.9</ele>
        <time>2023-04-19T13:06:55Z</time>
      </trkpt>
      <trkpt lat="49.81816" lon="2.41683">
        <ele>32.9</ele>
        <time>2023-04-19T13:06:56Z</time>
      </trkpt>
      <trkpt lat="49.81814" lon="2.41683">
        <ele>32.9</ele>
        <time>2023-04-19T13:06:57Z</time>
      </trkpt>
      <trkpt lat="49.81813" lon="2.41682">
        <ele>32.9</ele>
        <time>2023-04-19T13:06:59Z</time>
      </trkpt>
      <trkpt lat="49.81812" lon="2.41682">
        <ele>32.9</ele>
        <time>2023-04-19T13:07:00Z</time>
      </trkpt>
      <trkpt lat="49.81811" lon="2.41681">
        <ele>32.9</ele>
        <time>2023-04-19T13:07:01Z</time>
      </trkpt>
      <trkpt lat="49.81809" lon="2.41681">
        <ele>32.9</ele>
        <time>2023-04-19T13:07:02Z</time>
      </trkpt>
      <trkpt lat="49.81808" lon="2.4168">
        <ele>32.9</ele>
        <time>2023-04-19T13:07:03Z</time>
      </trkpt>
      <trkpt lat="49.81806" lon="2.41679">
        <ele>32.9</ele>
        <time>2023-04-19T13:07:04Z</time>
      </trkpt>
      <trkpt lat="49.81805" lon="2.41679">
        <ele>32.9</ele>
        <time>2023-04-19T13:07:05Z</time>
      </trkpt>
      <trkpt lat="49.81803" lon="2.41678">
        <ele>32.9</ele>
        <time>2023-04-19T13:07:06Z</time>
      </trkpt>
      <trkpt lat="49.81802" lon="2.41678">
        <ele>32.9</ele>
        <time>2023-04-19T13:07:07Z</time>
      </trkpt>
      <trkpt lat="49.81801" lon="2.41678">
        <ele>32.9</ele>
        <time>2023-04-19T13:07:08Z</time>
      </trkpt>
      <trkpt lat="49.818" lon="2.41678">
        <ele>32.9</ele>
        <time>2023-04-19T13:07:10Z</time>
      </trkpt>
      <trkpt lat="49.81798" lon="2.41678">
        <ele>32.8</ele>
        <time>2023-04-19T13:07:11Z</time>
      </trkpt>
      <trkpt lat="49.81796" lon="2.41678">
        <ele>32.8</ele>
        <time>2023-04-19T13:07:12Z</time>
      </trkpt>
      <trkpt lat="49.81795" lon="2.41678">
        <ele>32.8</ele>
        <time>2023-04-19T13:07:13Z</time>
      </trkpt>
      <trkpt lat="49.81794" lon="2.41678">
        <ele>32.8</ele>
        <time>2023-04-19T13:07:14Z</time>
      </trkpt>
      <trkpt lat="49.81793" lon="2.41678">
        <ele>32.8</ele>
        <time>2023-04-19T13:07:15Z</time>
      </trkpt>
      <trkpt lat="49.81791" lon="2.41678">
        <ele>32.8</ele>
        <time>2023-04-19T13:07:16Z</time>
      </trkpt>
      <trkpt lat="49.81789" lon="2.41677">
        <ele>32.8</ele>
        <time>2023-04-19T13:07:18Z</time>
      </trkpt>
      <trkpt lat="49.81788" lon="2.41677">
        <ele>32.8</ele>
        <time>2023-04-19T13:07:19Z</time>
      </trkpt>
      <trkpt lat="49.81787" lon="2.41677">
        <ele>32.8</ele>
        <time>2023-04-19T13:07:20Z</time>
      </trkpt>
      <trkpt lat="49.81784" lon="2.41676">
        <ele>32.7</ele>
        <time>2023-04-19T13:07:21Z</time>
      </trkpt>
      <trkpt lat="49.81783" lon="2.41676">
        <ele>32.7</ele>
        <time>2023-04-19T13:07:22Z</time>
      </trkpt>
      <trkpt lat="49.81782" lon="2.41676">
        <ele>32.7</ele>
        <time>2023-04-19T13:07:23Z</time>
      </trkpt>
      <trkpt lat="49.8178" lon="2.41675">
        <ele>32.7</ele>
        <time>2023-04-19T13:07:24Z</time>
      </trkpt>
      <trkpt lat="49.81777" lon="2.41675">
        <ele>32.7</ele>
        <time>2023-04-19T13:07:25Z</time>
      </trkpt>
      <trkpt lat="49.81776" lon="2.41674">
        <ele>32.7</ele>
        <time>2023-04-19T13:07:26Z</time>
      </trkpt>
      <trkpt lat="49.81774" lon="2.41674">
        <ele>32.7</ele>
        <time>2023-04-19T13:07:28Z</time>
      </trkpt>
      <trkpt lat="49.81773" lon="2.41674">
        <ele>32.7</ele>
        <time>2023-04-19T13:07:29Z</time>
      </trkpt>
      <trkpt lat="49.81773" lon="2.41673">
        <ele>32.7</ele>
        <time>2023-04-19T13:07:30Z</time>
      </trkpt>
      <trkpt lat="49.81771" lon="2.41673">
        <ele>32.7</ele>
        <time>2023-04-19T13:07:31Z</time>
      </trkpt>
      <trkpt lat="49.81769" lon="2.41672">
        <ele>32.7</ele>
        <time>2023-04-19T13:07:32Z</time>
      </trkpt>
      <trkpt lat="49.81767" lon="2.41671">
        <ele>32.7</ele>
        <time>2023-04-19T13:07:33Z</time>
      </trkpt>
      <trkpt lat="49.81767" lon="2.41671">
        <ele>32.7</ele>
        <time>2023-04-19T13:07:34Z</time>
      </trkpt>
      <trkpt lat="49.81766" lon="2.4167">
        <ele>32.7</ele>
        <time>2023-04-19T13:07:35Z</time>
      </trkpt>
      <trkpt lat="49.81764" lon="2.41669">
        <ele>32.7</ele>
        <time>2023-04-19T13:07:36Z</time>
      </trkpt>
      <trkpt lat="49.81763" lon="2.41669">
        <ele>32.7</ele>
        <time>2023-04-19T13:07:38Z</time>
      </trkpt>
      <trkpt lat="49.81762" lon="2.41668">
        <ele>32.7</ele>
        <time>2023-04-19T13:07:39Z</time>
      </trkpt>
      <trkpt lat="49.8176" lon="2.41667">
        <ele>32.7</ele>
        <time>2023-04-19T13:07:40Z</time>
      </trkpt>
      <trkpt lat="49.8176" lon="2.41667">
        <ele>32.7</ele>
        <time>2023-04-19T13:07:41Z</time>
      </trkpt>
      <trkpt lat="49.81759" lon="2.41666">
        <ele>32.7</ele>
        <time>2023-04-19T13:07:42Z</time>
      </trkpt>
      <trkpt lat="49.81758" lon="2.41666">
        <ele>32.7</ele>
        <time>2023-04-19T13:07:43Z</time>
      </trkpt>
      <trkpt lat="49.81757" lon="2.41665">
        <ele>32.7</ele>
        <time>2023-04-19T13:07:44Z</time>
      </trkpt>
      <trkpt lat="49.81755" lon="2.41664">
        <ele>32.7</ele>
        <time>2023-04-19T13:07:46Z</time>
      </trkpt>
      <trkpt lat="49.81753" lon="2.41663">
        <ele>32.7</ele>
        <time>2023-04-19T13:07:47Z</time>
      </trkpt>
      <trkpt lat="49.81753" lon="2.41663">
        <ele>32.7</ele>
        <time>2023-04-19T13:07:48Z</time>
      </trkpt>
      <trkpt lat="49.81752" lon="2.41662">
        <ele>32.7</ele>
        <time>2023-04-19T13:07:49Z</time>
      </trkpt>
      <trkpt lat="49.8175" lon="2.41662">
        <ele>32.7</ele>
        <time>2023-04-19T13:07:50Z</time>
      </trkpt>
      <trkpt lat="49.81749" lon="2.41661">
        <ele>32.7</ele>
        <time>2023-04-19T13:07:51Z</time>
      </trkpt>
      <trkpt lat="49.81748" lon="2.41661">
        <ele>32.7</ele>
        <time>2023-04-19T13:07:52Z</time>
      </trkpt>
      <trkpt lat="49.81747" lon="2.41661">
        <ele>32.7</ele>
        <time>2023-04-19T13:07:53Z</time>
      </trkpt>
      <trkpt lat="49.81745" lon="2.41661">
        <ele>32.7</ele>
        <time>2023-04-19T13:07:55Z</time>
      </trkpt>
      <trkpt lat="49.81744" lon="2.41661">
        <ele>32.7</ele>
        <time>2023-04-19T13:07:56Z</time>
      </trkpt>
      <trkpt lat="49.81742" lon="2.4166">
        <ele>32.7</ele>
        <time>2023-04-19T13:07:57Z</time>
      </trkpt>
      <trkpt lat="49.81741" lon="2.41659">
        <ele>32.7</ele>
        <time>2023-04-19T13:07:58Z</time>
      </trkpt>
      <trkpt lat="49.81741" lon="2.41658">
        <ele>32.7</ele>
        <time>2023-04-19T13:07:59Z</time>
      </trkpt>
      <trkpt lat="49.81738" lon="2.41658">
        <ele>32.7</ele>
        <time>2023-04-19T13:08:00Z</time>
      </trkpt>
      <trkpt lat="49.81737" lon="2.41658">
        <ele>32.7</ele>
        <time>2023-04-19T13:08:02Z</time>
      </trkpt>
      <trkpt lat="49.81736" lon="2.41657">
        <ele>32.7</ele>
        <time>2023-04-19T13:08:03Z</time>
      </trkpt>
      <trkpt lat="49.81735" lon="2.41657">
        <ele>32.7</ele>
        <time>2023-04-19T13:08:04Z</time>
      </trkpt>
      <trkpt lat="49.81734" lon="2.41657">
        <ele>32.7</ele>
        <time>2023-04-19T13:08:05Z</time>
      </trkpt>
      <trkpt lat="49.81732" lon="2.41657">
        <ele>32.7</ele>
        <time>2023-04-19T13:08:06Z</time>
      </trkpt>
      <trkpt lat="49.8173" lon="2.41656">
        <ele>32.8</ele>
        <time>2023-04-19T13:08:08Z</time>
      </trkpt>
      <trkpt lat="49.81729" lon="2.41656">
        <ele>32.8</ele>
        <time>2023-04-19T13:08:09Z</time>
      </trkpt>
      <trkpt lat="49.81728" lon="2.41655">
        <ele>32.8</ele>
        <time>2023-04-19T13:08:10Z</time>
      </trkpt>
      <trkpt lat="49.81726" lon="2.41655">
        <ele>32.8</ele>
        <time>2023-04-19T13:08:11Z</time>
      </trkpt>
      <trkpt lat="49.81724" lon="2.41655">
        <ele>32.8</ele>
        <time>2023-04-19T13:08:13Z</time>
      </trkpt>
      <trkpt lat="49.81723" lon="2.41654">
        <ele>32.8</ele>
        <time>2023-04-19T13:08:14Z</time>
      </trkpt>
      <trkpt lat="49.81722" lon="2.41654">
        <ele>32.8</ele>
        <time>2023-04-19T13:08:15Z</time>
      </trkpt>
      <trkpt lat="49.8172" lon="2.41654">
        <ele>32.8</ele>
        <time>2023-04-19T13:08:16Z</time>
      </trkpt>
      <trkpt lat="49.81719" lon="2.41654">
        <ele>32.8</ele>
        <time>2023-04-19T13:08:18Z</time>
      </trkpt>
      <trkpt lat="49.81718" lon="2.41654">
        <ele>32.8</ele>
        <time>2023-04-19T13:08:19Z</time>
      </trkpt>
      <trkpt lat="49.81716" lon="2.41654">
        <ele>32.7</ele>
        <time>2023-04-19T13:08:20Z</time>
      </trkpt>
      <trkpt lat="49.81715" lon="2.41654">
        <ele>32.7</ele>
        <time>2023-04-19T13:08:21Z</time>
      </trkpt>
      <trkpt lat="49.81713" lon="2.41654">
        <ele>32.7</ele>
        <time>2023-04-19T13:08:22Z</time>
      </trkpt>
      <trkpt lat="49.81713" lon="2.41655">
        <ele>32.7</ele>
        <time>2023-04-19T13:08:23Z</time>
      </trkpt>
      <trkpt lat="49.81712" lon="2.41655">
        <ele>32.7</ele>
        <time>2023-04-19T13:08:24Z</time>
      </trkpt>
      <trkpt lat="49.8171" lon="2.41655">
        <ele>32.7</ele>
        <time>2023-04-19T13:08:25Z</time>
      </trkpt>
      <trkpt lat="49.8171" lon="2.41654">
        <ele>32.7</ele>
        <time>2023-04-19T13:08:26Z</time>
      </trkpt>
      <trkpt lat="49.81709" lon="2.41654">
        <ele>32.7</ele>
        <time>2023-04-19T13:08:27Z</time>
      </trkpt>
      <trkpt lat="49.81708" lon="2.41654">
        <ele>32.7</ele>
        <time>2023-04-19T13:08:28Z</time>
      </trkpt>
      <trkpt lat="49.81707" lon="2.41653">
        <ele>32.7</ele>
        <time>2023-04-19T13:08:30Z</time>
      </trkpt>
      <trkpt lat="49.81706" lon="2.41652">
        <ele>32.7</ele>
        <time>2023-04-19T13:08:31Z</time>
      </trkpt>
      <trkpt lat="49.81704" lon="2.41652">
        <ele>32.7</ele>
        <time>2023-04-19T13:08:32Z</time>
      </trkpt>
      <trkpt lat="49.81703" lon="2.41652">
        <ele>32.7</ele>
        <time>2023-04-19T13:08:33Z</time>
      </trkpt>
      <trkpt lat="49.81702" lon="2.41652">
        <ele>32.7</ele>
        <time>2023-04-19T13:08:34Z</time>
      </trkpt>
      <trkpt lat="49.81701" lon="2.41651">
        <ele>32.7</ele>
        <time>2023-04-19T13:08:35Z</time>
      </trkpt>
      <trkpt lat="49.817" lon="2.4165">
        <ele>32.7</ele>
        <time>2023-04-19T13:08:36Z</time>
      </trkpt>
      <trkpt lat="49.817" lon="2.4165">
        <ele>32.7</ele>
        <time>2023-04-19T13:08:37Z</time>
      </trkpt>
      <trkpt lat="49.81699" lon="2.4165">
        <ele>32.7</ele>
        <time>2023-04-19T13:08:38Z</time>
      </trkpt>
      <trkpt lat="49.81697" lon="2.41649">
        <ele>32.7</ele>
        <time>2023-04-19T13:08:39Z</time>
      </trkpt>
      <trkpt lat="49.81697" lon="2.41649">
        <ele>32.7</ele>
        <time>2023-04-19T13:08:41Z</time>
      </trkpt>
      <trkpt lat="49.81696" lon="2.41648">
        <ele>32.7</ele>
        <time>2023-04-19T13:08:42Z</time>
      </trkpt>
      <trkpt lat="49.81695" lon="2.41648">
        <ele>32.7</ele>
        <time>2023-04-19T13:08:43Z</time>
      </trkpt>
      <trkpt lat="49.81694" lon="2.41647">
        <ele>32.7</ele>
        <time>2023-04-19T13:08:44Z</time>
      </trkpt>
      <trkpt lat="49.81693" lon="2.41647">
        <ele>32.7</ele>
        <time>2023-04-19T13:08:45Z</time>
      </trkpt>
      <trkpt lat="49.81692" lon="2.41646">
        <ele>32.7</ele>
        <time>2023-04-19T13:08:46Z</time>
      </trkpt>
      <trkpt lat="49.8169" lon="2.41645">
        <ele>32.7</ele>
        <time>2023-04-19T13:08:48Z</time>
      </trkpt>
      <trkpt lat="49.81689" lon="2.41645">
        <ele>32.7</ele>
        <time>2023-04-19T13:08:49Z</time>
      </trkpt>
      <trkpt lat="49.81687" lon="2.41644">
        <ele>32.7</ele>
        <time>2023-04-19T13:08:50Z</time>
      </trkpt>
      <trkpt lat="49.81686" lon="2.41643">
        <ele>32.7</ele>
        <time>2023-04-19T13:08:51Z</time>
      </trkpt>
      <trkpt lat="49.81685" lon="2.41643">
        <ele>32.7</ele>
        <time>2023-04-19T13:08:52Z</time>
      </trkpt>
      <trkpt lat="49.81685" lon="2.41642">
        <ele>32.8</ele>
        <time>2023-04-19T13:08:53Z</time>
      </trkpt>
      <trkpt lat="49.81683" lon="2.41643">
        <ele>32.8</ele>
        <time>2023-04-19T13:08:55Z</time>
      </trkpt>
      <trkpt lat="49.81684" lon="2.41644">
        <ele>32.8</ele>
        <time>2023-04-19T13:08:56Z</time>
      </trkpt>
      <trkpt lat="49.81684" lon="2.41646">
        <ele>32.8</ele>
        <time>2023-04-19T13:08:57Z</time>
      </trkpt>
      <trkpt lat="49.81684" lon="2.41648">
        <ele>32.8</ele>
        <time>2023-04-19T13:08:59Z</time>
      </trkpt>
      <trkpt lat="49.81684" lon="2.41649">
        <ele>32.8</ele>
        <time>2023-04-19T13:09:00Z</time>
      </trkpt>
      <trkpt lat="49.81684" lon="2.41649">
        <ele>32.8</ele>
        <time>2023-04-19T13:09:01Z</time>
      </trkpt>
      <trkpt lat="49.81683" lon="2.41648">
        <ele>32.8</ele>
        <time>2023-04-19T13:09:02Z</time>
      </trkpt>
      <trkpt lat="49.81682" lon="2.41648">
        <ele>32.8</ele>
        <time>2023-04-19T13:09:04Z</time>
      </trkpt>
      <trkpt lat="49.8168" lon="2.41647">
        <ele>32.8</ele>
        <time>2023-04-19T13:09:05Z</time>
      </trkpt>
      <trkpt lat="49.81679" lon="2.41646">
        <ele>32.9</ele>
        <time>2023-04-19T13:09:06Z</time>
      </trkpt>
      <trkpt lat="49.81678" lon="2.41645">
        <ele>32.9</ele>
        <time>2023-04-19T13:09:07Z</time>
      </trkpt>
      <trkpt lat="49.81676" lon="2.41644">
        <ele>32.9</ele>
        <time>2023-04-19T13:09:08Z</time>
      </trkpt>
      <trkpt lat="49.81674" lon="2.41643">
        <ele>32.9</ele>
        <time>2023-04-19T13:09:09Z</time>
      </trkpt>
      <trkpt lat="49.81672" lon="2.41642">
        <ele>32.9</ele>
        <time>2023-04-19T13:09:11Z</time>
      </trkpt>
      <trkpt lat="49.8167" lon="2.41641">
        <ele>32.9</ele>
        <time>2023-04-19T13:09:12Z</time>
      </trkpt>
      <trkpt lat="49.81669" lon="2.41641">
        <ele>32.9</ele>
        <time>2023-04-19T13:09:13Z</time>
      </trkpt>
      <trkpt lat="49.81667" lon="2.4164">
        <ele>32.9</ele>
        <time>2023-04-19T13:09:14Z</time>
      </trkpt>
      <trkpt lat="49.81666" lon="2.41639">
        <ele>32.9</ele>
        <time>2023-04-19T13:09:15Z</time>
      </trkpt>
      <trkpt lat="49.81663" lon="2.41638">
        <ele>32.9</ele>
        <time>2023-04-19T13:09:16Z</time>
      </trkpt>
      <trkpt lat="49.81663" lon="2.41637">
        <ele>32.9</ele>
        <time>2023-04-19T13:09:17Z</time>
      </trkpt>
      <trkpt lat="49.81661" lon="2.41637">
        <ele>32.9</ele>
        <time>2023-04-19T13:09:18Z</time>
      </trkpt>
      <trkpt lat="49.8166" lon="2.41636">
        <ele>32.9</ele>
        <time>2023-04-19T13:09:19Z</time>
      </trkpt>
      <trkpt lat="49.81658" lon="2.41635">
        <ele>32.9</ele>
        <time>2023-04-19T13:09:20Z</time>
      </trkpt>
      <trkpt lat="49.81657" lon="2.41635">
        <ele>32.9</ele>
        <time>2023-04-19T13:09:22Z</time>
      </trkpt>
      <trkpt lat="49.81655" lon="2.41634">
        <ele>32.9</ele>
        <time>2023-04-19T13:09:23Z</time>
      </trkpt>
      <trkpt lat="49.81653" lon="2.41634">
        <ele>32.9</ele>
        <time>2023-04-19T13:09:24Z</time>
      </trkpt>
      <trkpt lat="49.81652" lon="2.41634">
        <ele>32.9</ele>
        <time>2023-04-19T13:09:25Z</time>
      </trkpt>
      <trkpt lat="49.8165" lon="2.41635">
        <ele>32.9</ele>
        <time>2023-04-19T13:09:26Z</time>
      </trkpt>
      <trkpt lat="49.81649" lon="2.41635">
        <ele>32.9</ele>
        <time>2023-04-19T13:09:27Z</time>
      </trkpt>
      <trkpt lat="49.81648" lon="2.41636">
        <ele>32.9</ele>
        <time>2023-04-19T13:09:28Z</time>
      </trkpt>
      <trkpt lat="49.81647" lon="2.41634">
        <ele>32.9</ele>
        <time>2023-04-19T13:09:30Z</time>
      </trkpt>
      <trkpt lat="49.81646" lon="2.41632">
        <ele>32.9</ele>
        <time>2023-04-19T13:09:31Z</time>
      </trkpt>
      <trkpt lat="49.81645" lon="2.4163">
        <ele>32.9</ele>
        <time>2023-04-19T13:09:32Z</time>
      </trkpt>
      <trkpt lat="49.81645" lon="2.41628">
        <ele>32.9</ele>
        <time>2023-04-19T13:09:33Z</time>
      </trkpt>
      <trkpt lat="49.81644" lon="2.41627">
        <ele>32.9</ele>
        <time>2023-04-19T13:09:34Z</time>
      </trkpt>
      <trkpt lat="49.81643" lon="2.41627">
        <ele>32.9</ele>
        <time>2023-04-19T13:09:35Z</time>
      </trkpt>
      <trkpt lat="49.81642" lon="2.41628">
        <ele>32.9</ele>
        <time>2023-04-19T13:09:36Z</time>
      </trkpt>
      <trkpt lat="49.81641" lon="2.41629">
        <ele>32.9</ele>
        <time>2023-04-19T13:09:37Z</time>
      </trkpt>
      <trkpt lat="49.81641" lon="2.4163">
        <ele>32.9</ele>
        <time>2023-04-19T13:09:38Z</time>
      </trkpt>
      <trkpt lat="49.8164" lon="2.41632">
        <ele>32.9</ele>
        <time>2023-04-19T13:09:39Z</time>
      </trkpt>
      <trkpt lat="49.81639" lon="2.41634">
        <ele>32.9</ele>
        <time>2023-04-19T13:09:40Z</time>
      </trkpt>
      <trkpt lat="49.81639" lon="2.41636">
        <ele>32.9</ele>
        <time>2023-04-19T13:09:42Z</time>
      </trkpt>
      <trkpt lat="49.81638" lon="2.41636">
        <ele>32.9</ele>
        <time>2023-04-19T13:09:43Z</time>
      </trkpt>
      <trkpt lat="49.81637" lon="2.41637">
        <ele>32.9</ele>
        <time>2023-04-19T13:09:44Z</time>
      </trkpt>
      <trkpt lat="49.81637" lon="2.41638">
        <ele>32.9</ele>
        <time>2023-04-19T13:09:45Z</time>
      </trkpt>
      <trkpt lat="49.81636" lon="2.41639">
        <ele>32.9</ele>
        <time>2023-04-19T13:09:46Z</time>
      </trkpt>
      <trkpt lat="49.81635" lon="2.41638">
        <ele>32.9</ele>
        <time>2023-04-19T13:09:47Z</time>
      </trkpt>
      <trkpt lat="49.81634" lon="2.41638">
        <ele>32.9</ele>
        <time>2023-04-19T13:09:49Z</time>
      </trkpt>
      <trkpt lat="49.81632" lon="2.41638">
        <ele>32.9</ele>
        <time>2023-04-19T13:09:50Z</time>
      </trkpt>
      <trkpt lat="49.81632" lon="2.41635">
        <ele>32.9</ele>
        <time>2023-04-19T13:09:51Z</time>
      </trkpt>
      <trkpt lat="49.8163" lon="2.41633">
        <ele>32.9</ele>
        <time>2023-04-19T13:09:52Z</time>
      </trkpt>
      <trkpt lat="49.81629" lon="2.41632">
        <ele>32.9</ele>
        <time>2023-04-19T13:09:53Z</time>
      </trkpt>
      <trkpt lat="49.81628" lon="2.41631">
        <ele>32.9</ele>
        <time>2023-04-19T13:09:54Z</time>
      </trkpt>
      <trkpt lat="49.81627" lon="2.4163">
        <ele>32.9</ele>
        <time>2023-04-19T13:09:55Z</time>
      </trkpt>
      <trkpt lat="49.81625" lon="2.4163">
        <ele>32.8</ele>
        <time>2023-04-19T13:09:56Z</time>
      </trkpt>
      <trkpt lat="49.81624" lon="2.41629">
        <ele>32.8</ele>
        <time>2023-04-19T13:09:57Z</time>
      </trkpt>
      <trkpt lat="49.81623" lon="2.41628">
        <ele>32.8</ele>
        <time>2023-04-19T13:09:59Z</time>
      </trkpt>
      <trkpt lat="49.81624" lon="2.41628">
        <ele>32.8</ele>
        <time>2023-04-19T13:10:00Z</time>
      </trkpt>
      <trkpt lat="49.81624" lon="2.41629">
        <ele>32.8</ele>
        <time>2023-04-19T13:10:01Z</time>
      </trkpt>
      <trkpt lat="49.81625" lon="2.41629">
        <ele>32.8</ele>
        <time>2023-04-19T13:10:02Z</time>
      </trkpt>
      <trkpt lat="49.81625" lon="2.41628">
        <ele>32.8</ele>
        <time>2023-04-19T13:10:03Z</time>
      </trkpt>
      <trkpt lat="49.81623" lon="2.41627">
        <ele>32.8</ele>
        <time>2023-04-19T13:10:04Z</time>
      </trkpt>
      <trkpt lat="49.81622" lon="2.41626">
        <ele>32.8</ele>
        <time>2023-04-19T13:10:06Z</time>
      </trkpt>
      <trkpt lat="49.8162" lon="2.41625">
        <ele>32.8</ele>
        <time>2023-04-19T13:10:07Z</time>
      </trkpt>
      <trkpt lat="49.81619" lon="2.41624">
        <ele>32.8</ele>
        <time>2023-04-19T13:10:08Z</time>
      </trkpt>
      <trkpt lat="49.81618" lon="2.41623">
        <ele>32.8</ele>
        <time>2023-04-19T13:10:09Z</time>
      </trkpt>
      <trkpt lat="49.81618" lon="2.41622">
        <ele>32.8</ele>
        <time>2023-04-19T13:10:10Z</time>
      </trkpt>
      <trkpt lat="49.81616" lon="2.4162">
        <ele>32.8</ele>
        <time>2023-04-19T13:10:11Z</time>
      </trkpt>
      <trkpt lat="49.81615" lon="2.4162">
        <ele>32.8</ele>
        <time>2023-04-19T13:10:12Z</time>
      </trkpt>
      <trkpt lat="49.81614" lon="2.41619">
        <ele>32.8</ele>
        <time>2023-04-19T13:10:13Z</time>
      </trkpt>
      <trkpt lat="49.81612" lon="2.41618">
        <ele>32.8</ele>
        <time>2023-04-19T13:10:15Z</time>
      </trkpt>
      <trkpt lat="49.81611" lon="2.41617">
        <ele>32.8</ele>
        <time>2023-04-19T13:10:16Z</time>
      </trkpt>
      <trkpt lat="49.81611" lon="2.41617">
        <ele>32.8</ele>
        <time>2023-04-19T13:10:17Z</time>
      </trkpt>
      <trkpt lat="49.8161" lon="2.41616">
        <ele>32.8</ele>
        <time>2023-04-19T13:10:18Z</time>
      </trkpt>
      <trkpt lat="49.81609" lon="2.41616">
        <ele>32.8</ele>
        <time>2023-04-19T13:10:19Z</time>
      </trkpt>
      <trkpt lat="49.81608" lon="2.41616">
        <ele>32.8</ele>
        <time>2023-04-19T13:10:20Z</time>
      </trkpt>
      <trkpt lat="49.81607" lon="2.41615">
        <ele>32.8</ele>
        <time>2023-04-19T13:10:21Z</time>
      </trkpt>
      <trkpt lat="49.81606" lon="2.41614">
        <ele>32.8</ele>
        <time>2023-04-19T13:10:23Z</time>
      </trkpt>
      <trkpt lat="49.81605" lon="2.41614">
        <ele>32.9</ele>
        <time>2023-04-19T13:10:24Z</time>
      </trkpt>
      <trkpt lat="49.81605" lon="2.41613">
        <ele>32.9</ele>
        <time>2023-04-19T13:10:25Z</time>
      </trkpt>
      <trkpt lat="49.81604" lon="2.41613">
        <ele>32.9</ele>
        <time>2023-04-19T13:10:26Z</time>
      </trkpt>
      <trkpt lat="49.81601" lon="2.41612">
        <ele>32.9</ele>
        <time>2023-04-19T13:10:27Z</time>
      </trkpt>
      <trkpt lat="49.816" lon="2.41611">
        <ele>32.9</ele>
        <time>2023-04-19T13:10:28Z</time>
      </trkpt>
      <trkpt lat="49.81597" lon="2.41609">
        <ele>32.9</ele>
        <time>2023-04-19T13:10:30Z</time>
      </trkpt>
      <trkpt lat="49.81596" lon="2.41609">
        <ele>32.9</ele>
        <time>2023-04-19T13:10:31Z</time>
      </trkpt>
      <trkpt lat="49.81595" lon="2.41608">
        <ele>32.9</ele>
        <time>2023-04-19T13:10:32Z</time>
      </trkpt>
      <trkpt lat="49.81594" lon="2.41608">
        <ele>32.9</ele>
        <time>2023-04-19T13:10:33Z</time>
      </trkpt>
      <trkpt lat="49.81593" lon="2.41607">
        <ele>32.9</ele>
        <time>2023-04-19T13:10:34Z</time>
      </trkpt>
      <trkpt lat="49.81591" lon="2.41606">
        <ele>32.9</ele>
        <time>2023-04-19T13:10:35Z</time>
      </trkpt>
      <trkpt lat="49.8159" lon="2.41605">
        <ele>32.9</ele>
        <time>2023-04-19T13:10:36Z</time>
      </trkpt>
      <trkpt lat="49.81589" lon="2.41604">
        <ele>32.9</ele>
        <time>2023-04-19T13:10:38Z</time>
      </trkpt>
      <trkpt lat="49.81588" lon="2.41604">
        <ele>32.9</ele>
        <time>2023-04-19T13:10:39Z</time>
      </trkpt>
      <trkpt lat="49.81588" lon="2.41604">
        <ele>32.9</ele>
        <time>2023-04-19T13:10:40Z</time>
      </trkpt>
      <trkpt lat="49.81587" lon="2.41603">
        <ele>32.9</ele>
        <time>2023-04-19T13:10:41Z</time>
      </trkpt>
      <trkpt lat="49.81586" lon="2.41603">
        <ele>32.9</ele>
        <time>2023-04-19T13:10:42Z</time>
      </trkpt>
      <trkpt lat="49.81585" lon="2.41602">
        <ele>32.9</ele>
        <time>2023-04-19T13:10:43Z</time>
      </trkpt>
      <trkpt lat="49.81583" lon="2.41601">
        <ele>32.9</ele>
        <time>2023-04-19T13:10:44Z</time>
      </trkpt>
      <trkpt lat="49.81582" lon="2.416">
        <ele>32.9</ele>
        <time>2023-04-19T13:10:45Z</time>
      </trkpt>
      <trkpt lat="49.81581" lon="2.41599">
        <ele>32.9</ele>
        <time>2023-04-19T13:10:46Z</time>
      </trkpt>
      <trkpt lat="49.81578" lon="2.41598">
        <ele>32.9</ele>
        <time>2023-04-19T13:10:48Z</time>
      </trkpt>
      <trkpt lat="49.81575" lon="2.41596">
        <ele>32.9</ele>
        <time>2023-04-19T13:10:49Z</time>
      </trkpt>
      <trkpt lat="49.81574" lon="2.41596">
        <ele>32.9</ele>
        <time>2023-04-19T13:10:50Z</time>
      </trkpt>
      <trkpt lat="49.81573" lon="2.41595">
        <ele>32.9</ele>
        <time>2023-04-19T13:10:51Z</time>
      </trkpt>
      <trkpt lat="49.81572" lon="2.41595">
        <ele>32.9</ele>
        <time>2023-04-19T13:10:52Z</time>
      </trkpt>
      <trkpt lat="49.8157" lon="2.41594">
        <ele>32.8</ele>
        <time>2023-04-19T13:10:53Z</time>
      </trkpt>
      <trkpt lat="49.81569" lon="2.41594">
        <ele>32.8</ele>
        <time>2023-04-19T13:10:54Z</time>
      </trkpt>
      <trkpt lat="49.81567" lon="2.41593">
        <ele>32.8</ele>
        <time>2023-04-19T13:10:55Z</time>
      </trkpt>
      <trkpt lat="49.81566" lon="2.41593">
        <ele>32.8</ele>
        <time>2023-04-19T13:10:56Z</time>
      </trkpt>
      <trkpt lat="49.81564" lon="2.41592">
        <ele>32.8</ele>
        <time>2023-04-19T13:10:58Z</time>
      </trkpt>
      <trkpt lat="49.81563" lon="2.41592">
        <ele>32.8</ele>
        <time>2023-04-19T13:10:59Z</time>
      </trkpt>
      <trkpt lat="49.81562" lon="2.41592">
        <ele>32.8</ele>
        <time>2023-04-19T13:11:00Z</time>
      </trkpt>
      <trkpt lat="49.81561" lon="2.41591">
        <ele>32.8</ele>
        <time>2023-04-19T13:11:01Z</time>
      </trkpt>
      <trkpt lat="49.8156" lon="2.41591">
        <ele>32.8</ele>
        <time>2023-04-19T13:11:02Z</time>
      </trkpt>
      <trkpt lat="49.81557" lon="2.41591">
        <ele>32.8</ele>
        <time>2023-04-19T13:11:03Z</time>
      </trkpt>
      <trkpt lat="49.81557" lon="2.41591">
        <ele>32.8</ele>
        <time>2023-04-19T13:11:04Z</time>
      </trkpt>
      <trkpt lat="49.81556" lon="2.41591">
        <ele>32.8</ele>
        <time>2023-04-19T13:11:05Z</time>
      </trkpt>
      <trkpt lat="49.81554" lon="2.41591">
        <ele>32.7</ele>
        <time>2023-04-19T13:11:06Z</time>
      </trkpt>
      <trkpt lat="49.81553" lon="2.4159">
        <ele>32.7</ele>
        <time>2023-04-19T13:11:08Z</time>
      </trkpt>
      <trkpt lat="49.81552" lon="2.4159">
        <ele>32.7</ele>
        <time>2023-04-19T13:11:09Z</time>
      </trkpt>
      <trkpt lat="49.81551" lon="2.4159">
        <ele>32.7</ele>
        <time>2023-04-19T13:11:10Z</time>
      </trkpt>
      <trkpt lat="49.81549" lon="2.4159">
        <ele>32.7</ele>
        <time>2023-04-19T13:11:11Z</time>
      </trkpt>
      <trkpt lat="49.81547" lon="2.41589">
        <ele>32.7</ele>
        <time>2023-04-19T13:11:12Z</time>
      </trkpt>
      <trkpt lat="49.81547" lon="2.41589">
        <ele>32.7</ele>
        <time>2023-04-19T13:11:13Z</time>
      </trkpt>
      <trkpt lat="49.81546" lon="2.41588">
        <ele>32.7</ele>
        <time>2023-04-19T13:11:14Z</time>
      </trkpt>
      <trkpt lat="49.81544" lon="2.41587">
        <ele>32.7</ele>
        <time>2023-04-19T13:11:15Z</time>
      </trkpt>
      <trkpt lat="49.81543" lon="2.41587">
        <ele>32.7</ele>
        <time>2023-04-19T13:11:17Z</time>
      </trkpt>
      <trkpt lat="49.81541" lon="2.41586">
        <ele>32.7</ele>
        <time>2023-04-19T13:11:18Z</time>
      </trkpt>
      <trkpt lat="49.8154" lon="2.41585">
        <ele>32.6</ele>
        <time>2023-04-19T13:11:19Z</time>
      </trkpt>
      <trkpt lat="49.81539" lon="2.41585">
        <ele>32.6</ele>
        <time>2023-04-19T13:11:20Z</time>
      </trkpt>
      <trkpt lat="49.81538" lon="2.41585">
        <ele>32.6</ele>
        <time>2023-04-19T13:11:21Z</time>
      </trkpt>
      <trkpt lat="49.81537" lon="2.41584">
        <ele>32.6</ele>
        <time>2023-04-19T13:11:22Z</time>
      </trkpt>
      <trkpt lat="49.81535" lon="2.41583">
        <ele>32.6</ele>
        <time>2023-04-19T13:11:23Z</time>
      </trkpt>
      <trkpt lat="49.81534" lon="2.41582">
        <ele>32.6</ele>
        <time>2023-04-19T13:11:25Z</time>
      </trkpt>
      <trkpt lat="49.81534" lon="2.41582">
        <ele>32.6</ele>
        <time>2023-04-19T13:11:26Z</time>
      </trkpt>
      <trkpt lat="49.81532" lon="2.41581">
        <ele>32.6</ele>
        <time>2023-04-19T13:11:27Z</time>
      </trkpt>
      <trkpt lat="49.81531" lon="2.41581">
        <ele>32.6</ele>
        <time>2023-04-19T13:11:28Z</time>
      </trkpt>
      <trkpt lat="49.8153" lon="2.4158">
        <ele>32.6</ele>
        <time>2023-04-19T13:11:29Z</time>
      </trkpt>
      <trkpt lat="49.81528" lon="2.41579">
        <ele>32.7</ele>
        <time>2023-04-19T13:11:30Z</time>
      </trkpt>
      <trkpt lat="49.81527" lon="2.41578">
        <ele>32.7</ele>
        <time>2023-04-19T13:11:31Z</time>
      </trkpt>
      <trkpt lat="49.81526" lon="2.41577">
        <ele>32.7</ele>
        <time>2023-04-19T13:11:32Z</time>
      </trkpt>
      <trkpt lat="49.81525" lon="2.41577">
        <ele>32.7</ele>
        <time>2023-04-19T13:11:34Z</time>
      </trkpt>
      <trkpt lat="49.81524" lon="2.41576">
        <ele>32.7</ele>
        <time>2023-04-19T13:11:35Z</time>
      </trkpt>
      <trkpt lat="49.81523" lon="2.41575">
        <ele>32.7</ele>
        <time>2023-04-19T13:11:36Z</time>
      </trkpt>
      <trkpt lat="49.81522" lon="2.41574">
        <ele>32.7</ele>
        <time>2023-04-19T13:11:37Z</time>
      </trkpt>
      <trkpt lat="49.81521" lon="2.41573">
        <ele>32.8</ele>
        <time>2023-04-19T13:11:38Z</time>
      </trkpt>
      <trkpt lat="49.81521" lon="2.41572">
        <ele>32.8</ele>
        <time>2023-04-19T13:11:39Z</time>
      </trkpt>
      <trkpt lat="49.81521" lon="2.41571">
        <ele>32.8</ele>
        <time>2023-04-19T13:11:40Z</time>
      </trkpt>
      <trkpt lat="49.81521" lon="2.4157">
        <ele>32.8</ele>
        <time>2023-04-19T13:11:41Z</time>
      </trkpt>
      <trkpt lat="49.8152" lon="2.41569">
        <ele>32.8</ele>
        <time>2023-04-19T13:11:43Z</time>
      </trkpt>
      <trkpt lat="49.8152" lon="2.41568">
        <ele>32.8</ele>
        <time>2023-04-19T13:11:44Z</time>
      </trkpt>
      <trkpt lat="49.81518" lon="2.41566">
        <ele>32.8</ele>
        <time>2023-04-19T13:11:45Z</time>
      </trkpt>
      <trkpt lat="49.81517" lon="2.41565">
        <ele>32.9</ele>
        <time>2023-04-19T13:11:46Z</time>
      </trkpt>
      <trkpt lat="49.81517" lon="2.41564">
        <ele>32.9</ele>
        <time>2023-04-19T13:11:47Z</time>
      </trkpt>
      <trkpt lat="49.81516" lon="2.41563">
        <ele>32.9</ele>
        <time>2023-04-19T13:11:48Z</time>
      </trkpt>
      <trkpt lat="49.81515" lon="2.41562">
        <ele>32.9</ele>
        <time>2023-04-19T13:11:50Z</time>
      </trkpt>
      <trkpt lat="49.81514" lon="2.41561">
        <ele>33</ele>
        <time>2023-04-19T13:11:51Z</time>
      </trkpt>
      <trkpt lat="49.81513" lon="2.4156">
        <ele>33</ele>
        <time>2023-04-19T13:11:52Z</time>
      </trkpt>
      <trkpt lat="49.81512" lon="2.41559">
        <ele>33</ele>
        <time>2023-04-19T13:11:53Z</time>
      </trkpt>
      <trkpt lat="49.81511" lon="2.41558">
        <ele>33</ele>
        <time>2023-04-19T13:11:54Z</time>
      </trkpt>
      <trkpt lat="49.81509" lon="2.41555">
        <ele>33.1</ele>
        <time>2023-04-19T13:11:55Z</time>
      </trkpt>
      <trkpt lat="49.81509" lon="2.41554">
        <ele>33.1</ele>
        <time>2023-04-19T13:11:57Z</time>
      </trkpt>
      <trkpt lat="49.81508" lon="2.41553">
        <ele>33.1</ele>
        <time>2023-04-19T13:11:58Z</time>
      </trkpt>
      <trkpt lat="49.81507" lon="2.41552">
        <ele>33.2</ele>
        <time>2023-04-19T13:11:59Z</time>
      </trkpt>
      <trkpt lat="49.81506" lon="2.41551">
        <ele>33.2</ele>
        <time>2023-04-19T13:12:00Z</time>
      </trkpt>
      <trkpt lat="49.81506" lon="2.4155">
        <ele>33.2</ele>
        <time>2023-04-19T13:12:01Z</time>
      </trkpt>
      <trkpt lat="49.81504" lon="2.41549">
        <ele>33.3</ele>
        <time>2023-04-19T13:12:03Z</time>
      </trkpt>
      <trkpt lat="49.81504" lon="2.41548">
        <ele>33.3</ele>
        <time>2023-04-19T13:12:04Z</time>
      </trkpt>
      <trkpt lat="49.81503" lon="2.41547">
        <ele>33.3</ele>
        <time>2023-04-19T13:12:05Z</time>
      </trkpt>
      <trkpt lat="49.81503" lon="2.41547">
        <ele>33.3</ele>
        <time>2023-04-19T13:12:06Z</time>
      </trkpt>
      <trkpt lat="49.81502" lon="2.41546">
        <ele>33.4</ele>
        <time>2023-04-19T13:12:07Z</time>
      </trkpt>
      <trkpt lat="49.81501" lon="2.41545">
        <ele>33.4</ele>
        <time>2023-04-19T13:12:08Z</time>
      </trkpt>
      <trkpt lat="49.815" lon="2.41544">
        <ele>33.4</ele>
        <time>2023-04-19T13:12:09Z</time>
      </trkpt>
      <trkpt lat="49.81499" lon="2.41544">
        <ele>33.5</ele>
        <time>2023-04-19T13:12:11Z</time>
      </trkpt>
      <trkpt lat="49.81498" lon="2.41543">
        <ele>33.5</ele>
        <time>2023-04-19T13:12:12Z</time>
      </trkpt>
      <trkpt lat="49.81497" lon="2.41542">
        <ele>33.5</ele>
        <time>2023-04-19T13:12:13Z</time>
      </trkpt>
      <trkpt lat="49.81497" lon="2.41541">
        <ele>33.6</ele>
        <time>2023-04-19T13:12:14Z</time>
      </trkpt>
      <trkpt lat="49.81496" lon="2.4154">
        <ele>33.6</ele>
        <time>2023-04-19T13:12:15Z</time>
      </trkpt>
      <trkpt lat="49.81496" lon="2.41539">
        <ele>33.6</ele>
        <time>2023-04-19T13:12:16Z</time>
      </trkpt>
      <trkpt lat="49.81495" lon="2.41537">
        <ele>33.7</ele>
        <time>2023-04-19T13:12:18Z</time>
      </trkpt>
      <trkpt lat="49.81494" lon="2.41535">
        <ele>33.7</ele>
        <time>2023-04-19T13:12:19Z</time>
      </trkpt>
      <trkpt lat="49.81494" lon="2.41534">
        <ele>33.8</ele>
        <time>2023-04-19T13:12:20Z</time>
      </trkpt>
      <trkpt lat="49.81493" lon="2.41533">
        <ele>33.8</ele>
        <time>2023-04-19T13:12:21Z</time>
      </trkpt>
      <trkpt lat="49.81493" lon="2.41531">
        <ele>33.9</ele>
        <time>2023-04-19T13:12:22Z</time>
      </trkpt>
      <trkpt lat="49.81492" lon="2.4153">
        <ele>33.9</ele>
        <time>2023-04-19T13:12:24Z</time>
      </trkpt>
      <trkpt lat="49.81491" lon="2.41529">
        <ele>34</ele>
        <time>2023-04-19T13:12:25Z</time>
      </trkpt>
      <trkpt lat="49.81491" lon="2.41528">
        <ele>34</ele>
        <time>2023-04-19T13:12:26Z</time>
      </trkpt>
      <trkpt lat="49.8149" lon="2.41527">
        <ele>34.1</ele>
        <time>2023-04-19T13:12:27Z</time>
      </trkpt>
      <trkpt lat="49.81489" lon="2.41526">
        <ele>34.1</ele>
        <time>2023-04-19T13:12:28Z</time>
      </trkpt>
      <trkpt lat="49.81488" lon="2.41525">
        <ele>34.1</ele>
        <time>2023-04-19T13:12:30Z</time>
      </trkpt>
      <trkpt lat="49.81488" lon="2.41524">
        <ele>34.2</ele>
        <time>2023-04-19T13:12:31Z</time>
      </trkpt>
      <trkpt lat="49.81487" lon="2.41523">
        <ele>34.2</ele>
        <time>2023-04-19T13:12:32Z</time>
      </trkpt>
      <trkpt lat="49.81487" lon="2.41522">
        <ele>34.2</ele>
        <time>2023-04-19T13:12:33Z</time>
      </trkpt>
      <trkpt lat="49.81486" lon="2.41521">
        <ele>34.3</ele>
        <time>2023-04-19T13:12:34Z</time>
      </trkpt>
      <trkpt lat="49.81485" lon="2.4152">
        <ele>34.3</ele>
        <time>2023-04-19T13:12:35Z</time>
      </trkpt>
      <trkpt lat="49.81485" lon="2.4152">
        <ele>34.4</ele>
        <time>2023-04-19T13:12:36Z</time>
      </trkpt>
      <trkpt lat="49.81483" lon="2.41518">
        <ele>34.5</ele>
        <time>2023-04-19T13:12:38Z</time>
      </trkpt>
      <trkpt lat="49.81483" lon="2.41516">
        <ele>34.5</ele>
        <time>2023-04-19T13:12:40Z</time>
      </trkpt>
      <trkpt lat="49.81482" lon="2.41515">
        <ele>34.6</ele>
        <time>2023-04-19T13:12:41Z</time>
      </trkpt>
      <trkpt lat="49.81481" lon="2.41513">
        <ele>34.6</ele>
        <time>2023-04-19T13:12:42Z</time>
      </trkpt>
      <trkpt lat="49.81481" lon="2.41512">
        <ele>34.7</ele>
        <time>2023-04-19T13:12:43Z</time>
      </trkpt>
      <trkpt lat="49.8148" lon="2.41509">
        <ele>34.8</ele>
        <time>2023-04-19T13:12:44Z</time>
      </trkpt>
      <trkpt lat="49.81479" lon="2.41508">
        <ele>34.8</ele>
        <time>2023-04-19T13:12:46Z</time>
      </trkpt>
      <trkpt lat="49.81479" lon="2.41507">
        <ele>34.9</ele>
        <time>2023-04-19T13:12:47Z</time>
      </trkpt>
      <trkpt lat="49.81479" lon="2.41505">
        <ele>34.9</ele>
        <time>2023-04-19T13:12:48Z</time>
      </trkpt>
      <trkpt lat="49.81478" lon="2.41504">
        <ele>35</ele>
        <time>2023-04-19T13:12:49Z</time>
      </trkpt>
      <trkpt lat="49.81477" lon="2.41502">
        <ele>35.1</ele>
        <time>2023-04-19T13:12:50Z</time>
      </trkpt>
      <trkpt lat="49.81477" lon="2.415">
        <ele>35.1</ele>
        <time>2023-04-19T13:12:51Z</time>
      </trkpt>
      <trkpt lat="49.81476" lon="2.41498">
        <ele>35.2</ele>
        <time>2023-04-19T13:12:53Z</time>
      </trkpt>
      <trkpt lat="49.81475" lon="2.41497">
        <ele>35.3</ele>
        <time>2023-04-19T13:12:54Z</time>
      </trkpt>
      <trkpt lat="49.81475" lon="2.41496">
        <ele>35.3</ele>
        <time>2023-04-19T13:12:55Z</time>
      </trkpt>
      <trkpt lat="49.81474" lon="2.41495">
        <ele>35.3</ele>
        <time>2023-04-19T13:12:56Z</time>
      </trkpt>
      <trkpt lat="49.81474" lon="2.41493">
        <ele>35.4</ele>
        <time>2023-04-19T13:12:58Z</time>
      </trkpt>
      <trkpt lat="49.81473" lon="2.41492">
        <ele>35.5</ele>
        <time>2023-04-19T13:12:59Z</time>
      </trkpt>
      <trkpt lat="49.81473" lon="2.41491">
        <ele>35.5</ele>
        <time>2023-04-19T13:13:00Z</time>
      </trkpt>
      <trkpt lat="49.81472" lon="2.4149">
        <ele>35.5</ele>
        <time>2023-04-19T13:13:01Z</time>
      </trkpt>
      <trkpt lat="49.81472" lon="2.41489">
        <ele>35.6</ele>
        <time>2023-04-19T13:13:03Z</time>
      </trkpt>
      <trkpt lat="49.81471" lon="2.41489">
        <ele>35.6</ele>
        <time>2023-04-19T13:13:04Z</time>
      </trkpt>
      <trkpt lat="49.81471" lon="2.41488">
        <ele>35.6</ele>
        <time>2023-04-19T13:13:05Z</time>
      </trkpt>
      <trkpt lat="49.81471" lon="2.41488">
        <ele>35.7</ele>
        <time>2023-04-19T13:13:06Z</time>
      </trkpt>
      <trkpt lat="49.8147" lon="2.41489">
        <ele>35.7</ele>
        <time>2023-04-19T13:13:08Z</time>
      </trkpt>
      <trkpt lat="49.8147" lon="2.4149">
        <ele>35.7</ele>
        <time>2023-04-19T13:13:10Z</time>
      </trkpt>
      <trkpt lat="49.8147" lon="2.4149">
        <ele>35.7</ele>
        <time>2023-04-19T13:13:11Z</time>
      </trkpt>
      <trkpt lat="49.8147" lon="2.41491">
        <ele>35.8</ele>
        <time>2023-04-19T13:13:12Z</time>
      </trkpt>
      <trkpt lat="49.8147" lon="2.41491">
        <ele>35.8</ele>
        <time>2023-04-19T13:13:14Z</time>
      </trkpt>
      <trkpt lat="49.8147" lon="2.41491">
        <ele>35.8</ele>
        <time>2023-04-19T13:13:15Z</time>
      </trkpt>
      <trkpt lat="49.8147" lon="2.41492">
        <ele>35.8</ele>
        <time>2023-04-19T13:13:16Z</time>
      </trkpt>
      <trkpt lat="49.8147" lon="2.41492">
        <ele>35.8</ele>
        <time>2023-04-19T13:13:18Z</time>
      </trkpt>
      <trkpt lat="49.8147" lon="2.41492">
        <ele>35.8</ele>
        <time>2023-04-19T13:13:19Z</time>
      </trkpt>
      <trkpt lat="49.8147" lon="2.41492">
        <ele>35.8</ele>
        <time>2023-04-19T13:13:20Z</time>
      </trkpt>
      <trkpt lat="49.8147" lon="2.41492">
        <ele>35.8</ele>
        <time>2023-04-19T13:13:22Z</time>
      </trkpt>
      <trkpt lat="49.8147" lon="2.41492">
        <ele>35.8</ele>
        <time>2023-04-19T13:13:23Z</time>
      </trkpt>
      <trkpt lat="49.8147" lon="2.41492">
        <ele>35.8</ele>
        <time>2023-04-19T13:13:24Z</time>
      </trkpt>
      <trkpt lat="49.81469" lon="2.41492">
        <ele>35.8</ele>
        <time>2023-04-19T13:13:25Z</time>
      </trkpt>
      <trkpt lat="49.81469" lon="2.41492">
        <ele>35.8</ele>
        <time>2023-04-19T13:13:26Z</time>
      </trkpt>
      <trkpt lat="49.81469" lon="2.41492">
        <ele>35.8</ele>
        <time>2023-04-19T13:13:27Z</time>
      </trkpt>
      <trkpt lat="49.81469" lon="2.41492">
        <ele>35.8</ele>
        <time>2023-04-19T13:13:28Z</time>
      </trkpt>
      <trkpt lat="49.81469" lon="2.41492">
        <ele>35.8</ele>
        <time>2023-04-19T13:13:29Z</time>
      </trkpt>
      <trkpt lat="49.81469" lon="2.41492">
        <ele>35.8</ele>
        <time>2023-04-19T13:13:30Z</time>
      </trkpt>
      <trkpt lat="49.81469" lon="2.41491">
        <ele>35.8</ele>
        <time>2023-04-19T13:13:31Z</time>
      </trkpt>
      <trkpt lat="49.81469" lon="2.41491">
        <ele>35.8</ele>
        <time>2023-04-19T13:13:32Z</time>
      </trkpt>
      <trkpt lat="49.81469" lon="2.41491">
        <ele>35.8</ele>
        <time>2023-04-19T13:13:33Z</time>
      </trkpt>
      <trkpt lat="49.81469" lon="2.41491">
        <ele>35.8</ele>
        <time>2023-04-19T13:13:34Z</time>
      </trkpt>
      <trkpt lat="49.81469" lon="2.41491">
        <ele>35.8</ele>
        <time>2023-04-19T13:13:35Z</time>
      </trkpt>
      <trkpt lat="49.81469" lon="2.41491">
        <ele>35.8</ele>
        <time>2023-04-19T13:13:36Z</time>
      </trkpt>
      <trkpt lat="49.81469" lon="2.41491">
        <ele>35.8</ele>
        <time>2023-04-19T13:13:37Z</time>
      </trkpt>
      <trkpt lat="49.81469" lon="2.41491">
        <ele>35.9</ele>
        <time>2023-04-19T13:13:38Z</time>
      </trkpt>
      <trkpt lat="49.81469" lon="2.41491">
        <ele>35.9</ele>
        <time>2023-04-19T13:13:39Z</time>
      </trkpt>
      <trkpt lat="49.81469" lon="2.41491">
        <ele>35.9</ele>
        <time>2023-04-19T13:13:40Z</time>
      </trkpt>
      <trkpt lat="49.81469" lon="2.41491">
        <ele>35.9</ele>
        <time>2023-04-19T13:13:41Z</time>
      </trkpt>
      <trkpt lat="49.81469" lon="2.41491">
        <ele>35.9</ele>
        <time>2023-04-19T13:13:42Z</time>
      </trkpt>
      <trkpt lat="49.81469" lon="2.41491">
        <ele>35.9</ele>
        <time>2023-04-19T13:13:43Z</time>
      </trkpt>
      <trkpt lat="49.81469" lon="2.41491">
        <ele>35.9</ele>
        <time>2023-04-19T13:13:44Z</time>
      </trkpt>
      <trkpt lat="49.81469" lon="2.41491">
        <ele>35.9</ele>
        <time>2023-04-19T13:13:45Z</time>
      </trkpt>
      <trkpt lat="49.81469" lon="2.41491">
        <ele>35.9</ele>
        <time>2023-04-19T13:13:46Z</time>
      </trkpt>
      <trkpt lat="49.81469" lon="2.41491">
        <ele>35.9</ele>
        <time>2023-04-19T13:13:47Z</time>
      </trkpt>
      <trkpt lat="49.81469" lon="2.41491">
        <ele>35.9</ele>
        <time>2023-04-19T13:13:48Z</time>
      </trkpt>
      <trkpt lat="49.81469" lon="2.41491">
        <ele>35.9</ele>
        <time>2023-04-19T13:13:49Z</time>
      </trkpt>
      <trkpt lat="49.81469" lon="2.41491">
        <ele>35.9</ele>
        <time>2023-04-19T13:13:50Z</time>
      </trkpt>
      <trkpt lat="49.81469" lon="2.41491">
        <ele>35.9</ele>
        <time>2023-04-19T13:13:51Z</time>
      </trkpt>
      <trkpt lat="49.81469" lon="2.41491">
        <ele>35.9</ele>
        <time>2023-04-19T13:13:52Z</time>
      </trkpt>
      <trkpt lat="49.81469" lon="2.41491">
        <ele>35.9</ele>
        <time>2023-04-19T13:13:53Z</time>
      </trkpt>
      <trkpt lat="49.81469" lon="2.41491">
        <ele>35.9</ele>
        <time>2023-04-19T13:13:54Z</time>
      </trkpt>
      <trkpt lat="49.81469" lon="2.41491">
        <ele>35.9</ele>
        <time>2023-04-19T13:13:55Z</time>
      </trkpt>
      <trkpt lat="49.81469" lon="2.41491">
        <ele>35.9</ele>
        <time>2023-04-19T13:13:56Z</time>
      </trkpt>
      <trkpt lat="49.81468" lon="2.41491">
        <ele>35.9</ele>
        <time>2023-04-19T13:13:57Z</time>
      </trkpt>
      <trkpt lat="49.81468" lon="2.41491">
        <ele>35.9</ele>
        <time>2023-04-19T13:13:58Z</time>
      </trkpt>
      <trkpt lat="49.81468" lon="2.41491">
        <ele>35.9</ele>
        <time>2023-04-19T13:13:59Z</time>
      </trkpt>
      <trkpt lat="49.81468" lon="2.41491">
        <ele>35.9</ele>
        <time>2023-04-19T13:14:00Z</time>
      </trkpt>
      <trkpt lat="49.81468" lon="2.41491">
        <ele>35.9</ele>
        <time>2023-04-19T13:14:01Z</time>
      </trkpt>
      <trkpt lat="49.81468" lon="2.4149">
        <ele>35.9</ele>
        <time>2023-04-19T13:14:02Z</time>
      </trkpt>
      <trkpt lat="49.81468" lon="2.4149">
        <ele>35.9</ele>
        <time>2023-04-19T13:14:03Z</time>
      </trkpt>
      <trkpt lat="49.81468" lon="2.4149">
        <ele>35.9</ele>
        <time>2023-04-19T13:14:04Z</time>
      </trkpt>
      <trkpt lat="49.81468" lon="2.4149">
        <ele>35.9</ele>
        <time>2023-04-19T13:14:05Z</time>
      </trkpt>
      <trkpt lat="49.81468" lon="2.4149">
        <ele>35.9</ele>
        <time>2023-04-19T13:14:06Z</time>
      </trkpt>
      <trkpt lat="49.81468" lon="2.4149">
        <ele>35.9</ele>
        <time>2023-04-19T13:14:07Z</time>
      </trkpt>
      <trkpt lat="49.81468" lon="2.4149">
        <ele>35.9</ele>
        <time>2023-04-19T13:14:08Z</time>
      </trkpt>
      <trkpt lat="49.81468" lon="2.4149">
        <ele>35.9</ele>
        <time>2023-04-19T13:14:09Z</time>
      </trkpt>
      <trkpt lat="49.81468" lon="2.4149">
        <ele>35.9</ele>
        <time>2023-04-19T13:14:10Z</time>
      </trkpt>
      <trkpt lat="49.81468" lon="2.4149">
        <ele>35.9</ele>
        <time>2023-04-19T13:14:11Z</time>
      </trkpt>
      <trkpt lat="49.81468" lon="2.4149">
        <ele>35.9</ele>
        <time>2023-04-19T13:14:12Z</time>
      </trkpt>
      <trkpt lat="49.81468" lon="2.4149">
        <ele>35.9</ele>
        <time>2023-04-19T13:14:13Z</time>
      </trkpt>
      <trkpt lat="49.81468" lon="2.4149">
        <ele>36</ele>
        <time>2023-04-19T13:14:14Z</time>
      </trkpt>
      <trkpt lat="49.81468" lon="2.4149">
        <ele>36</ele>
        <time>2023-04-19T13:14:15Z</time>
      </trkpt>
      <trkpt lat="49.81468" lon="2.4149">
        <ele>36</ele>
        <time>2023-04-19T13:14:16Z</time>
      </trkpt>
      <trkpt lat="49.81468" lon="2.4149">
        <ele>36</ele>
        <time>2023-04-19T13:14:17Z</time>
      </trkpt>
      <trkpt lat="49.81468" lon="2.4149">
        <ele>36</ele>
        <time>2023-04-19T13:14:18Z</time>
      </trkpt>
      <trkpt lat="49.81468" lon="2.4149">
        <ele>36</ele>
        <time>2023-04-19T13:14:19Z</time>
      </trkpt>
      <trkpt lat="49.81468" lon="2.4149">
        <ele>36</ele>
        <time>2023-04-19T13:14:20Z</time>
      </trkpt>
      <trkpt lat="49.81468" lon="2.4149">
        <ele>36</ele>
        <time>2023-04-19T13:14:21Z</time>
      </trkpt>
      <trkpt lat="49.81468" lon="2.4149">
        <ele>36</ele>
        <time>2023-04-19T13:14:22Z</time>
      </trkpt>
      <trkpt lat="49.81468" lon="2.4149">
        <ele>36</ele>
        <time>2023-04-19T13:14:23Z</time>
      </trkpt>
      <trkpt lat="49.81468" lon="2.4149">
        <ele>36</ele>
        <time>2023-04-19T13:14:24Z</time>
      </trkpt>
      <trkpt lat="49.81468" lon="2.4149">
        <ele>36</ele>
        <time>2023-04-19T13:14:25Z</time>
      </trkpt>
      <trkpt lat="49.81468" lon="2.4149">
        <ele>36</ele>
        <time>2023-04-19T13:14:26Z</time>
      </trkpt>
      <trkpt lat="49.81468" lon="2.4149">
        <ele>36</ele>
        <time>2023-04-19T13:14:27Z</time>
      </trkpt>
      <trkpt lat="49.81468" lon="2.4149">
        <ele>36</ele>
        <time>2023-04-19T13:14:28Z</time>
      </trkpt>
      <trkpt lat="49.81468" lon="2.4149">
        <ele>36</ele>
        <time>2023-04-19T13:14:29Z</time>
      </trkpt>
      <trkpt lat="49.81467" lon="2.4149">
        <ele>36</ele>
        <time>2023-04-19T13:14:30Z</time>
      </trkpt>
      <trkpt lat="49.81467" lon="2.4149">
        <ele>36</ele>
        <time>2023-04-19T13:14:31Z</time>
      </trkpt>
      <trkpt lat="49.81467" lon="2.4149">
        <ele>36</ele>
        <time>2023-04-19T13:14:32Z</time>
      </trkpt>
      <trkpt lat="49.81467" lon="2.41489">
        <ele>36</ele>
        <time>2023-04-19T13:14:33Z</time>
      </trkpt>
      <trkpt lat="49.81467" lon="2.41489">
        <ele>36</ele>
        <time>2023-04-19T13:14:34Z</time>
      </trkpt>
      <trkpt lat="49.81467" lon="2.41489">
        <ele>36</ele>
        <time>2023-04-19T13:14:35Z</time>
      </trkpt>
      <trkpt lat="49.81467" lon="2.41489">
        <ele>36</ele>
        <time>2023-04-19T13:14:36Z</time>
      </trkpt>
      <trkpt lat="49.81467" lon="2.41489">
        <ele>36</ele>
        <time>2023-04-19T13:14:37Z</time>
      </trkpt>
      <trkpt lat="49.81467" lon="2.41489">
        <ele>36</ele>
        <time>2023-04-19T13:14:38Z</time>
      </trkpt>
      <trkpt lat="49.81467" lon="2.41489">
        <ele>36</ele>
        <time>2023-04-19T13:14:39Z</time>
      </trkpt>
      <trkpt lat="49.81467" lon="2.41489">
        <ele>36</ele>
        <time>2023-04-19T13:14:40Z</time>
      </trkpt>
      <trkpt lat="49.81467" lon="2.41489">
        <ele>36</ele>
        <time>2023-04-19T13:14:41Z</time>
      </trkpt>
      <trkpt lat="49.81467" lon="2.41489">
        <ele>36</ele>
        <time>2023-04-19T13:14:42Z</time>
      </trkpt>
      <trkpt lat="49.81467" lon="2.41489">
        <ele>36</ele>
        <time>2023-04-19T13:14:43Z</time>
      </trkpt>
      <trkpt lat="49.81467" lon="2.41489">
        <ele>36</ele>
        <time>2023-04-19T13:14:44Z</time>
      </trkpt>
      <trkpt lat="49.81467" lon="2.41489">
        <ele>36</ele>
        <time>2023-04-19T13:14:45Z</time>
      </trkpt>
      <trkpt lat="49.81467" lon="2.41489">
        <ele>36</ele>
        <time>2023-04-19T13:14:46Z</time>
      </trkpt>
      <trkpt lat="49.81467" lon="2.41489">
        <ele>36</ele>
        <time>2023-04-19T13:14:47Z</time>
      </trkpt>
      <trkpt lat="49.81467" lon="2.41489">
        <ele>36</ele>
        <time>2023-04-19T13:14:48Z</time>
      </trkpt>
      <trkpt lat="49.81467" lon="2.41489">
        <ele>36</ele>
        <time>2023-04-19T13:14:49Z</time>
      </trkpt>
      <trkpt lat="49.81467" lon="2.41489">
        <ele>36</ele>
        <time>2023-04-19T13:14:50Z</time>
      </trkpt>
      <trkpt lat="49.81467" lon="2.41489">
        <ele>36</ele>
        <time>2023-04-19T13:14:51Z</time>
      </trkpt>
      <trkpt lat="49.81467" lon="2.41489">
        <ele>36</ele>
        <time>2023-04-19T13:14:52Z</time>
      </trkpt>
      <trkpt lat="49.81467" lon="2.41489">
        <ele>36</ele>
        <time>2023-04-19T13:14:53Z</time>
      </trkpt>
      <trkpt lat="49.81467" lon="2.41489">
        <ele>36</ele>
        <time>2023-04-19T13:14:54Z</time>
      </trkpt>
      <trkpt lat="49.81467" lon="2.41489">
        <ele>36</ele>
        <time>2023-04-19T13:14:55Z</time>
      </trkpt>
      <trkpt lat="49.81467" lon="2.41489">
        <ele>36.1</ele>
        <time>2023-04-19T13:14:56Z</time>
      </trkpt>
      <trkpt lat="49.81467" lon="2.41489">
        <ele>36.1</ele>
        <time>2023-04-19T13:14:57Z</time>
      </trkpt>
      <trkpt lat="49.81467" lon="2.41489">
        <ele>36.1</ele>
        <time>2023-04-19T13:14:58Z</time>
      </trkpt>
      <trkpt lat="49.81467" lon="2.41489">
        <ele>36.1</ele>
        <time>2023-04-19T13:14:59Z</time>
      </trkpt>
      <trkpt lat="49.81467" lon="2.41489">
        <ele>36.1</ele>
        <time>2023-04-19T13:15:00Z</time>
      </trkpt>
      <trkpt lat="49.81467" lon="2.41489">
        <ele>36.1</ele>
        <time>2023-04-19T13:15:01Z</time>
      </trkpt>
      <trkpt lat="49.81466" lon="2.41489">
        <ele>36.1</ele>
        <time>2023-04-19T13:15:02Z</time>
      </trkpt>
      <trkpt lat="49.81466" lon="2.41489">
        <ele>36.1</ele>
        <time>2023-04-19T13:15:03Z</time>
      </trkpt>
      <trkpt lat="49.81466" lon="2.41488">
        <ele>36.1</ele>
        <time>2023-04-19T13:15:04Z</time>
      </trkpt>
      <trkpt lat="49.81466" lon="2.41488">
        <ele>36.1</ele>
        <time>2023-04-19T13:15:05Z</time>
      </trkpt>
      <trkpt lat="49.81466" lon="2.41488">
        <ele>36.1</ele>
        <time>2023-04-19T13:15:06Z</time>
      </trkpt>
      <trkpt lat="49.81466" lon="2.41488">
        <ele>36.1</ele>
        <time>2023-04-19T13:15:07Z</time>
      </trkpt>
      <trkpt lat="49.81466" lon="2.41488">
        <ele>36.1</ele>
        <time>2023-04-19T13:15:08Z</time>
      </trkpt>
      <trkpt lat="49.81465" lon="2.41488">
        <ele>36.2</ele>
        <time>2023-04-19T13:15:09Z</time>
      </trkpt>
      <trkpt lat="49.81464" lon="2.41488">
        <ele>36.2</ele>
        <time>2023-04-19T13:15:10Z</time>
      </trkpt>
      <trkpt lat="49.81464" lon="2.41487">
        <ele>36.2</ele>
        <time>2023-04-19T13:15:11Z</time>
      </trkpt>
      <trkpt lat="49.81464" lon="2.41487">
        <ele>36.3</ele>
        <time>2023-04-19T13:15:12Z</time>
      </trkpt>
      <trkpt lat="49.81463" lon="2.41486">
        <ele>36.3</ele>
        <time>2023-04-19T13:15:13Z</time>
      </trkpt>
      <trkpt lat="49.81463" lon="2.41486">
        <ele>36.3</ele>
        <time>2023-04-19T13:15:14Z</time>
      </trkpt>
      <trkpt lat="49.81463" lon="2.41486">
        <ele>36.3</ele>
        <time>2023-04-19T13:15:15Z</time>
      </trkpt>
      <trkpt lat="49.81463" lon="2.41486">
        <ele>36.3</ele>
        <time>2023-04-19T13:15:16Z</time>
      </trkpt>
      <trkpt lat="49.81463" lon="2.41486">
        <ele>36.3</ele>
        <time>2023-04-19T13:15:17Z</time>
      </trkpt>
      <trkpt lat="49.81463" lon="2.41486">
        <ele>36.3</ele>
        <time>2023-04-19T13:15:18Z</time>
      </trkpt>
      <trkpt lat="49.81463" lon="2.41486">
        <ele>36.3</ele>
        <time>2023-04-19T13:15:19Z</time>
      </trkpt>
      <trkpt lat="49.81463" lon="2.41486">
        <ele>36.3</ele>
        <time>2023-04-19T13:15:20Z</time>
      </trkpt>
      <trkpt lat="49.81463" lon="2.41486">
        <ele>36.3</ele>
        <time>2023-04-19T13:15:21Z</time>
      </trkpt>
      <trkpt lat="49.81463" lon="2.41486">
        <ele>36.3</ele>
        <time>2023-04-19T13:15:22Z</time>
      </trkpt>
      <trkpt lat="49.81463" lon="2.41486">
        <ele>36.3</ele>
        <time>2023-04-19T13:15:23Z</time>
      </trkpt>
      <trkpt lat="49.81463" lon="2.41485">
        <ele>36.3</ele>
        <time>2023-04-19T13:15:24Z</time>
      </trkpt>
      <trkpt lat="49.81463" lon="2.41485">
        <ele>36.3</ele>
        <time>2023-04-19T13:15:25Z</time>
      </trkpt>
      <trkpt lat="49.81463" lon="2.41485">
        <ele>36.3</ele>
        <time>2023-04-19T13:15:26Z</time>
      </trkpt>
      <trkpt lat="49.81463" lon="2.41485">
        <ele>36.3</ele>
        <time>2023-04-19T13:15:27Z</time>
      </trkpt>
      <trkpt lat="49.81463" lon="2.41485">
        <ele>36.3</ele>
        <time>2023-04-19T13:15:28Z</time>
      </trkpt>
      <trkpt lat="49.81463" lon="2.41485">
        <ele>36.3</ele>
        <time>2023-04-19T13:15:29Z</time>
      </trkpt>
      <trkpt lat="49.81463" lon="2.41485">
        <ele>36.3</ele>
        <time>2023-04-19T13:15:30Z</time>
      </trkpt>
      <trkpt lat="49.81463" lon="2.41485">
        <ele>36.3</ele>
        <time>2023-04-19T13:15:31Z</time>
      </trkpt>
      <trkpt lat="49.81463" lon="2.41485">
        <ele>36.3</ele>
        <time>2023-04-19T13:15:32Z</time>
      </trkpt>
      <trkpt lat="49.81463" lon="2.41485">
        <ele>36.4</ele>
        <time>2023-04-19T13:15:33Z</time>
      </trkpt>
      <trkpt lat="49.81463" lon="2.41485">
        <ele>36.4</ele>
        <time>2023-04-19T13:15:34Z</time>
      </trkpt>
      <trkpt lat="49.81463" lon="2.41485">
        <ele>36.4</ele>
        <time>2023-04-19T13:15:35Z</time>
      </trkpt>
      <trkpt lat="49.81463" lon="2.41485">
        <ele>36.4</ele>
        <time>2023-04-19T13:15:36Z</time>
      </trkpt>
      <trkpt lat="49.81463" lon="2.41485">
        <ele>36.4</ele>
        <time>2023-04-19T13:15:37Z</time>
      </trkpt>
      <trkpt lat="49.81463" lon="2.41485">
        <ele>36.4</ele>
        <time>2023-04-19T13:15:38Z</time>
      </trkpt>
      <trkpt lat="49.81463" lon="2.41484">
        <ele>36.4</ele>
        <time>2023-04-19T13:15:39Z</time>
      </trkpt>
      <trkpt lat="49.81463" lon="2.41484">
        <ele>36.4</ele>
        <time>2023-04-19T13:15:40Z</time>
      </trkpt>
      <trkpt lat="49.81463" lon="2.41484">
        <ele>36.4</ele>
        <time>2023-04-19T13:15:41Z</time>
      </trkpt>
      <trkpt lat="49.81463" lon="2.41484">
        <ele>36.4</ele>
        <time>2023-04-19T13:15:42Z</time>
      </trkpt>
      <trkpt lat="49.81462" lon="2.41484">
        <ele>36.4</ele>
        <time>2023-04-19T13:15:43Z</time>
      </trkpt>
      <trkpt lat="49.81462" lon="2.41484">
        <ele>36.4</ele>
        <time>2023-04-19T13:15:44Z</time>
      </trkpt>
      <trkpt lat="49.81462" lon="2.41484">
        <ele>36.4</ele>
        <time>2023-04-19T13:15:45Z</time>
      </trkpt>
      <trkpt lat="49.81462" lon="2.41484">
        <ele>36.4</ele>
        <time>2023-04-19T13:15:46Z</time>
      </trkpt>
      <trkpt lat="49.81462" lon="2.41484">
        <ele>36.4</ele>
        <time>2023-04-19T13:15:47Z</time>
      </trkpt>
      <trkpt lat="49.81462" lon="2.41484">
        <ele>36.4</ele>
        <time>2023-04-19T13:15:48Z</time>
      </trkpt>
      <trkpt lat="49.81462" lon="2.41484">
        <ele>36.4</ele>
        <time>2023-04-19T13:15:49Z</time>
      </trkpt>
      <trkpt lat="49.81462" lon="2.41484">
        <ele>36.4</ele>
        <time>2023-04-19T13:15:50Z</time>
      </trkpt>
      <trkpt lat="49.81462" lon="2.41484">
        <ele>36.4</ele>
        <time>2023-04-19T13:15:51Z</time>
      </trkpt>
      <trkpt lat="49.81462" lon="2.41484">
        <ele>36.4</ele>
        <time>2023-04-19T13:15:52Z</time>
      </trkpt>
      <trkpt lat="49.81462" lon="2.41484">
        <ele>36.4</ele>
        <time>2023-04-19T13:15:53Z</time>
      </trkpt>
      <trkpt lat="49.81462" lon="2.41483">
        <ele>36.4</ele>
        <time>2023-04-19T13:15:54Z</time>
      </trkpt>
      <trkpt lat="49.81462" lon="2.41483">
        <ele>36.4</ele>
        <time>2023-04-19T13:15:55Z</time>
      </trkpt>
      <trkpt lat="49.81462" lon="2.41483">
        <ele>36.4</ele>
        <time>2023-04-19T13:15:56Z</time>
      </trkpt>
      <trkpt lat="49.81462" lon="2.41483">
        <ele>36.4</ele>
        <time>2023-04-19T13:15:57Z</time>
      </trkpt>
      <trkpt lat="49.81462" lon="2.41483">
        <ele>36.4</ele>
        <time>2023-04-19T13:15:58Z</time>
      </trkpt>
      <trkpt lat="49.81462" lon="2.41483">
        <ele>36.4</ele>
        <time>2023-04-19T13:15:59Z</time>
      </trkpt>
      <trkpt lat="49.81462" lon="2.41483">
        <ele>36.4</ele>
        <time>2023-04-19T13:16:00Z</time>
      </trkpt>
      <trkpt lat="49.81462" lon="2.41483">
        <ele>36.4</ele>
        <time>2023-04-19T13:16:01Z</time>
      </trkpt>
      <trkpt lat="49.81462" lon="2.41483">
        <ele>36.4</ele>
        <time>2023-04-19T13:16:02Z</time>
      </trkpt>
      <trkpt lat="49.81462" lon="2.41483">
        <ele>36.5</ele>
        <time>2023-04-19T13:16:03Z</time>
      </trkpt>
      <trkpt lat="49.81462" lon="2.41483">
        <ele>36.5</ele>
        <time>2023-04-19T13:16:04Z</time>
      </trkpt>
      <trkpt lat="49.81462" lon="2.41483">
        <ele>36.5</ele>
        <time>2023-04-19T13:16:05Z</time>
      </trkpt>
      <trkpt lat="49.81462" lon="2.41483">
        <ele>36.5</ele>
        <time>2023-04-19T13:16:06Z</time>
      </trkpt>
      <trkpt lat="49.81462" lon="2.41483">
        <ele>36.5</ele>
        <time>2023-04-19T13:16:07Z</time>
      </trkpt>
      <trkpt lat="49.81462" lon="2.41482">
        <ele>36.5</ele>
        <time>2023-04-19T13:16:08Z</time>
      </trkpt>
      <trkpt lat="49.81462" lon="2.41482">
        <ele>36.5</ele>
        <time>2023-04-19T13:16:09Z</time>
      </trkpt>
      <trkpt lat="49.81462" lon="2.41482">
        <ele>36.5</ele>
        <time>2023-04-19T13:16:10Z</time>
      </trkpt>
      <trkpt lat="49.81462" lon="2.41482">
        <ele>36.5</ele>
        <time>2023-04-19T13:16:11Z</time>
      </trkpt>
      <trkpt lat="49.81462" lon="2.41482">
        <ele>36.5</ele>
        <time>2023-04-19T13:16:12Z</time>
      </trkpt>
      <trkpt lat="49.81462" lon="2.41482">
        <ele>36.5</ele>
        <time>2023-04-19T13:16:13Z</time>
      </trkpt>
      <trkpt lat="49.81462" lon="2.41482">
        <ele>36.5</ele>
        <time>2023-04-19T13:16:14Z</time>
      </trkpt>
      <trkpt lat="49.81462" lon="2.41482">
        <ele>36.5</ele>
        <time>2023-04-19T13:16:15Z</time>
      </trkpt>
      <trkpt lat="49.81462" lon="2.41482">
        <ele>36.5</ele>
        <time>2023-04-19T13:16:16Z</time>
      </trkpt>
      <trkpt lat="49.81462" lon="2.41482">
        <ele>36.5</ele>
        <time>2023-04-19T13:16:17Z</time>
      </trkpt>
      <trkpt lat="49.81462" lon="2.41482">
        <ele>36.5</ele>
        <time>2023-04-19T13:16:18Z</time>
      </trkpt>
      <trkpt lat="49.81462" lon="2.41482">
        <ele>36.5</ele>
        <time>2023-04-19T13:16:19Z</time>
      </trkpt>
      <trkpt lat="49.81461" lon="2.41482">
        <ele>36.5</ele>
        <time>2023-04-19T13:16:20Z</time>
      </trkpt>
      <trkpt lat="49.81461" lon="2.41482">
        <ele>36.5</ele>
        <time>2023-04-19T13:16:21Z</time>
      </trkpt>
      <trkpt lat="49.81461" lon="2.41482">
        <ele>36.5</ele>
        <time>2023-04-19T13:16:22Z</time>
      </trkpt>
      <trkpt lat="49.81461" lon="2.41481">
        <ele>36.5</ele>
        <time>2023-04-19T13:16:23Z</time>
      </trkpt>
      <trkpt lat="49.81461" lon="2.41481">
        <ele>36.5</ele>
        <time>2023-04-19T13:16:24Z</time>
      </trkpt>
      <trkpt lat="49.81461" lon="2.41481">
        <ele>36.5</ele>
        <time>2023-04-19T13:16:25Z</time>
      </trkpt>
      <trkpt lat="49.81461" lon="2.41481">
        <ele>36.5</ele>
        <time>2023-04-19T13:16:26Z</time>
      </trkpt>
      <trkpt lat="49.81461" lon="2.41481">
        <ele>36.5</ele>
        <time>2023-04-19T13:16:27Z</time>
      </trkpt>
      <trkpt lat="49.81461" lon="2.41481">
        <ele>36.5</ele>
        <time>2023-04-19T13:16:28Z</time>
      </trkpt>
      <trkpt lat="49.81461" lon="2.41481">
        <ele>36.5</ele>
        <time>2023-04-19T13:16:29Z</time>
      </trkpt>
      <trkpt lat="49.81461" lon="2.41481">
        <ele>36.5</ele>
        <time>2023-04-19T13:16:30Z</time>
      </trkpt>
      <trkpt lat="49.81461" lon="2.41481">
        <ele>36.6</ele>
        <time>2023-04-19T13:16:31Z</time>
      </trkpt>
      <trkpt lat="49.81461" lon="2.41481">
        <ele>36.6</ele>
        <time>2023-04-19T13:16:32Z</time>
      </trkpt>
      <trkpt lat="49.81461" lon="2.41481">
        <ele>36.6</ele>
        <time>2023-04-19T13:16:33Z</time>
      </trkpt>
      <trkpt lat="49.81461" lon="2.41481">
        <ele>36.6</ele>
        <time>2023-04-19T13:16:34Z</time>
      </trkpt>
      <trkpt lat="49.81461" lon="2.41481">
        <ele>36.6</ele>
        <time>2023-04-19T13:16:35Z</time>
      </trkpt>
      <trkpt lat="49.81461" lon="2.41481">
        <ele>36.6</ele>
        <time>2023-04-19T13:16:36Z</time>
      </trkpt>
      <trkpt lat="49.81461" lon="2.41481">
        <ele>36.6</ele>
        <time>2023-04-19T13:16:37Z</time>
      </trkpt>
      <trkpt lat="49.81461" lon="2.4148">
        <ele>36.6</ele>
        <time>2023-04-19T13:16:38Z</time>
      </trkpt>
      <trkpt lat="49.81461" lon="2.4148">
        <ele>36.6</ele>
        <time>2023-04-19T13:16:39Z</time>
      </trkpt>
      <trkpt lat="49.81461" lon="2.4148">
        <ele>36.6</ele>
        <time>2023-04-19T13:16:40Z</time>
      </trkpt>
      <trkpt lat="49.81461" lon="2.4148">
        <ele>36.6</ele>
        <time>2023-04-19T13:16:41Z</time>
      </trkpt>
      <trkpt lat="49.81461" lon="2.4148">
        <ele>36.6</ele>
        <time>2023-04-19T13:16:42Z</time>
      </trkpt>
      <trkpt lat="49.81461" lon="2.4148">
        <ele>36.6</ele>
        <time>2023-04-19T13:16:43Z</time>
      </trkpt>
      <trkpt lat="49.81461" lon="2.4148">
        <ele>36.6</ele>
        <time>2023-04-19T13:16:44Z</time>
      </trkpt>
      <trkpt lat="49.81462" lon="2.41484">
        <ele>36.7</ele>
        <time>2023-04-19T13:16:46Z</time>
      </trkpt>
      <trkpt lat="49.81462" lon="2.41483">
        <ele>36.8</ele>
        <time>2023-04-19T13:16:47Z</time>
      </trkpt>
      <trkpt lat="49.81461" lon="2.41481">
        <ele>36.8</ele>
        <time>2023-04-19T13:16:48Z</time>
      </trkpt>
      <trkpt lat="49.81461" lon="2.4148">
        <ele>36.9</ele>
        <time>2023-04-19T13:16:49Z</time>
      </trkpt>
      <trkpt lat="49.81461" lon="2.41479">
        <ele>36.9</ele>
        <time>2023-04-19T13:16:50Z</time>
      </trkpt>
      <trkpt lat="49.8146" lon="2.41478">
        <ele>37</ele>
        <time>2023-04-19T13:16:52Z</time>
      </trkpt>
      <trkpt lat="49.8146" lon="2.41477">
        <ele>37</ele>
        <time>2023-04-19T13:16:53Z</time>
      </trkpt>
      <trkpt lat="49.81459" lon="2.41476">
        <ele>37</ele>
        <time>2023-04-19T13:16:54Z</time>
      </trkpt>
      <trkpt lat="49.81459" lon="2.41476">
        <ele>37</ele>
        <time>2023-04-19T13:16:56Z</time>
      </trkpt>
      <trkpt lat="49.81459" lon="2.41475">
        <ele>37</ele>
        <time>2023-04-19T13:16:57Z</time>
      </trkpt>
      <trkpt lat="49.81459" lon="2.41475">
        <ele>37.1</ele>
        <time>2023-04-19T13:16:59Z</time>
      </trkpt>
      <trkpt lat="49.81459" lon="2.41475">
        <ele>37.1</ele>
        <time>2023-04-19T13:17:00Z</time>
      </trkpt>
      <trkpt lat="49.81459" lon="2.41475">
        <ele>37.1</ele>
        <time>2023-04-19T13:17:01Z</time>
      </trkpt>
      <trkpt lat="49.81459" lon="2.41475">
        <ele>37.1</ele>
        <time>2023-04-19T13:17:03Z</time>
      </trkpt>
      <trkpt lat="49.81459" lon="2.41475">
        <ele>37.1</ele>
        <time>2023-04-19T13:17:04Z</time>
      </trkpt>
      <trkpt lat="49.81459" lon="2.41475">
        <ele>37.1</ele>
        <time>2023-04-19T13:17:05Z</time>
      </trkpt>
      <trkpt lat="49.81459" lon="2.41475">
        <ele>37.1</ele>
        <time>2023-04-19T13:17:07Z</time>
      </trkpt>
      <trkpt lat="49.81459" lon="2.41475">
        <ele>37.1</ele>
        <time>2023-04-19T13:17:08Z</time>
      </trkpt>
      <trkpt lat="49.81459" lon="2.41475">
        <ele>37.1</ele>
        <time>2023-04-19T13:17:09Z</time>
      </trkpt>
      <trkpt lat="49.81459" lon="2.41475">
        <ele>37.1</ele>
        <time>2023-04-19T13:17:10Z</time>
      </trkpt>
      <trkpt lat="49.81459" lon="2.41475">
        <ele>37.1</ele>
        <time>2023-04-19T13:17:11Z</time>
      </trkpt>
      <trkpt lat="49.81459" lon="2.41475">
        <ele>37.1</ele>
        <time>2023-04-19T13:17:12Z</time>
      </trkpt>
      <trkpt lat="49.81459" lon="2.41475">
        <ele>37.1</ele>
        <time>2023-04-19T13:17:13Z</time>
      </trkpt>
      <trkpt lat="49.81459" lon="2.41475">
        <ele>37.1</ele>
        <time>2023-04-19T13:17:14Z</time>
      </trkpt>
      <trkpt lat="49.81459" lon="2.41475">
        <ele>37.1</ele>
        <time>2023-04-19T13:17:15Z</time>
      </trkpt>
      <trkpt lat="49.81459" lon="2.41475">
        <ele>37.1</ele>
        <time>2023-04-19T13:17:16Z</time>
      </trkpt>
      <trkpt lat="49.81459" lon="2.41475">
        <ele>37.1</ele>
        <time>2023-04-19T13:17:17Z</time>
      </trkpt>
      <trkpt lat="49.81459" lon="2.41475">
        <ele>37.1</ele>
        <time>2023-04-19T13:17:18Z</time>
      </trkpt>
      <trkpt lat="49.81459" lon="2.41475">
        <ele>37.1</ele>
        <time>2023-04-19T13:17:19Z</time>
      </trkpt>
      <trkpt lat="49.81459" lon="2.41475">
        <ele>37.1</ele>
        <time>2023-04-19T13:17:20Z</time>
      </trkpt>
      <trkpt lat="49.81459" lon="2.41475">
        <ele>37.1</ele>
        <time>2023-04-19T13:17:21Z</time>
      </trkpt>
      <trkpt lat="49.81459" lon="2.41475">
        <ele>37.1</ele>
        <time>2023-04-19T13:17:22Z</time>
      </trkpt>
      <trkpt lat="49.81459" lon="2.41475">
        <ele>37.1</ele>
        <time>2023-04-19T13:17:23Z</time>
      </trkpt>
      <trkpt lat="49.81459" lon="2.41475">
        <ele>37.1</ele>
        <time>2023-04-19T13:17:24Z</time>
      </trkpt>
      <trkpt lat="49.81459" lon="2.41475">
        <ele>37.1</ele>
        <time>2023-04-19T13:17:25Z</time>
      </trkpt>
      <trkpt lat="49.81459" lon="2.41475">
        <ele>37.1</ele>
        <time>2023-04-19T13:17:26Z</time>
      </trkpt>
      <trkpt lat="49.81459" lon="2.41475">
        <ele>37.1</ele>
        <time>2023-04-19T13:17:27Z</time>
      </trkpt>
      <trkpt lat="49.81459" lon="2.41475">
        <ele>37.1</ele>
        <time>2023-04-19T13:17:28Z</time>
      </trkpt>
      <trkpt lat="49.81459" lon="2.41475">
        <ele>37.1</ele>
        <time>2023-04-19T13:17:29Z</time>
      </trkpt>
      <trkpt lat="49.81459" lon="2.41475">
        <ele>37.1</ele>
        <time>2023-04-19T13:17:30Z</time>
      </trkpt>
      <trkpt lat="49.81459" lon="2.41475">
        <ele>37.1</ele>
        <time>2023-04-19T13:17:31Z</time>
      </trkpt>
      <trkpt lat="49.81459" lon="2.41475">
        <ele>37.1</ele>
        <time>2023-04-19T13:17:32Z</time>
      </trkpt>
      <trkpt lat="49.81459" lon="2.41475">
        <ele>37.1</ele>
        <time>2023-04-19T13:17:33Z</time>
      </trkpt>
      <trkpt lat="49.81459" lon="2.41475">
        <ele>37.1</ele>
        <time>2023-04-19T13:17:34Z</time>
      </trkpt>
      <trkpt lat="49.81459" lon="2.41475">
        <ele>37.1</ele>
        <time>2023-04-19T13:17:35Z</time>
      </trkpt>
      <trkpt lat="49.81459" lon="2.41475">
        <ele>37.1</ele>
        <time>2023-04-19T13:17:36Z</time>
      </trkpt>
      <trkpt lat="49.81459" lon="2.41475">
        <ele>37.1</ele>
        <time>2023-04-19T13:17:37Z</time>
      </trkpt>
      <trkpt lat="49.81459" lon="2.41475">
        <ele>37.1</ele>
        <time>2023-04-19T13:17:38Z</time>
      </trkpt>
      <trkpt lat="49.81459" lon="2.41475">
        <ele>37.1</ele>
        <time>2023-04-19T13:17:39Z</time>
      </trkpt>
      <trkpt lat="49.81459" lon="2.41475">
        <ele>37.1</ele>
        <time>2023-04-19T13:17:40Z</time>
      </trkpt>
      <trkpt lat="49.81459" lon="2.41475">
        <ele>37.1</ele>
        <time>2023-04-19T13:17:41Z</time>
      </trkpt>
      <trkpt lat="49.81459" lon="2.41475">
        <ele>37.1</ele>
        <time>2023-04-19T13:17:42Z</time>
      </trkpt>
      <trkpt lat="49.81459" lon="2.41475">
        <ele>37.1</ele>
        <time>2023-04-19T13:17:43Z</time>
      </trkpt>
      <trkpt lat="49.81459" lon="2.41475">
        <ele>37.1</ele>
        <time>2023-04-19T13:17:44Z</time>
      </trkpt>
      <trkpt lat="49.81459" lon="2.41475">
        <ele>37.1</ele>
        <time>2023-04-19T13:17:45Z</time>
      </trkpt>
      <trkpt lat="49.81459" lon="2.41475">
        <ele>37.1</ele>
        <time>2023-04-19T13:17:46Z</time>
      </trkpt>
      <trkpt lat="49.81459" lon="2.41475">
        <ele>37.1</ele>
        <time>2023-04-19T13:17:47Z</time>
      </trkpt>
      <trkpt lat="49.81459" lon="2.41475">
        <ele>37.1</ele>
        <time>2023-04-19T13:17:48Z</time>
      </trkpt>
      <trkpt lat="49.81459" lon="2.41475">
        <ele>37.1</ele>
        <time>2023-04-19T13:17:49Z</time>
      </trkpt>
      <trkpt lat="49.81459" lon="2.41475">
        <ele>37.1</ele>
        <time>2023-04-19T13:17:50Z</time>
      </trkpt>
      <trkpt lat="49.81459" lon="2.41475">
        <ele>37.1</ele>
        <time>2023-04-19T13:17:51Z</time>
      </trkpt>
      <trkpt lat="49.81459" lon="2.41475">
        <ele>37.1</ele>
        <time>2023-04-19T13:17:52Z</time>
      </trkpt>
      <trkpt lat="49.81459" lon="2.41475">
        <ele>37.1</ele>
        <time>2023-04-19T13:17:53Z</time>
      </trkpt>
      <trkpt lat="49.81459" lon="2.41475">
        <ele>37.1</ele>
        <time>2023-04-19T13:17:54Z</time>
      </trkpt>
      <trkpt lat="49.81459" lon="2.41475">
        <ele>37.1</ele>
        <time>2023-04-19T13:17:55Z</time>
      </trkpt>
      <trkpt lat="49.81459" lon="2.41475">
        <ele>37.1</ele>
        <time>2023-04-19T13:17:56Z</time>
      </trkpt>
      <trkpt lat="49.81459" lon="2.41475">
        <ele>37.1</ele>
        <time>2023-04-19T13:17:57Z</time>
      </trkpt>
      <trkpt lat="49.81459" lon="2.41475">
        <ele>37.1</ele>
        <time>2023-04-19T13:17:58Z</time>
      </trkpt>
      <trkpt lat="49.81459" lon="2.41475">
        <ele>37.1</ele>
        <time>2023-04-19T13:17:59Z</time>
      </trkpt>
      <trkpt lat="49.81459" lon="2.41475">
        <ele>37.1</ele>
        <time>2023-04-19T13:18:00Z</time>
      </trkpt>
      <trkpt lat="49.81459" lon="2.41475">
        <ele>37.1</ele>
        <time>2023-04-19T13:18:01Z</time>
      </trkpt>
      <trkpt lat="49.81459" lon="2.41475">
        <ele>37.1</ele>
        <time>2023-04-19T13:18:02Z</time>
      </trkpt>
      <trkpt lat="49.81459" lon="2.41475">
        <ele>37.1</ele>
        <time>2023-04-19T13:18:03Z</time>
      </trkpt>
      <trkpt lat="49.81459" lon="2.41475">
        <ele>37.1</ele>
        <time>2023-04-19T13:18:04Z</time>
      </trkpt>
      <trkpt lat="49.81459" lon="2.41476">
        <ele>37.1</ele>
        <time>2023-04-19T13:18:06Z</time>
      </trkpt>
      <trkpt lat="49.8146" lon="2.41476">
        <ele>37.2</ele>
        <time>2023-04-19T13:18:07Z</time>
      </trkpt>
      <trkpt lat="49.8146" lon="2.41476">
        <ele>37.2</ele>
        <time>2023-04-19T13:18:08Z</time>
      </trkpt>
      <trkpt lat="49.81461" lon="2.41476">
        <ele>37.2</ele>
        <time>2023-04-19T13:18:09Z</time>
      </trkpt>
      <trkpt lat="49.81462" lon="2.41476">
        <ele>37.2</ele>
        <time>2023-04-19T13:18:10Z</time>
      </trkpt>
      <trkpt lat="49.81463" lon="2.41476">
        <ele>37.3</ele>
        <time>2023-04-19T13:18:12Z</time>
      </trkpt>
      <trkpt lat="49.81464" lon="2.41476">
        <ele>37.4</ele>
        <time>2023-04-19T13:18:13Z</time>
      </trkpt>
      <trkpt lat="49.81464" lon="2.41475">
        <ele>37.4</ele>
        <time>2023-04-19T13:18:14Z</time>
      </trkpt>
      <trkpt lat="49.81465" lon="2.41475">
        <ele>37.5</ele>
        <time>2023-04-19T13:18:15Z</time>
      </trkpt>
      <trkpt lat="49.81465" lon="2.41474">
        <ele>37.5</ele>
        <time>2023-04-19T13:18:16Z</time>
      </trkpt>
      <trkpt lat="49.81466" lon="2.41473">
        <ele>37.6</ele>
        <time>2023-04-19T13:18:17Z</time>
      </trkpt>
      <trkpt lat="49.81466" lon="2.41472">
        <ele>37.7</ele>
        <time>2023-04-19T13:18:19Z</time>
      </trkpt>
      <trkpt lat="49.81467" lon="2.41472">
        <ele>37.7</ele>
        <time>2023-04-19T13:18:20Z</time>
      </trkpt>
      <trkpt lat="49.81467" lon="2.41471">
        <ele>37.7</ele>
        <time>2023-04-19T13:18:21Z</time>
      </trkpt>
      <trkpt lat="49.81468" lon="2.41471">
        <ele>37.8</ele>
        <time>2023-04-19T13:18:22Z</time>
      </trkpt>
      <trkpt lat="49.81468" lon="2.4147">
        <ele>37.8</ele>
        <time>2023-04-19T13:18:23Z</time>
      </trkpt>
      <trkpt lat="49.81469" lon="2.41468">
        <ele>38</ele>
        <time>2023-04-19T13:18:25Z</time>
      </trkpt>
      <trkpt lat="49.8147" lon="2.41467">
        <ele>38</ele>
        <time>2023-04-19T13:18:26Z</time>
      </trkpt>
      <trkpt lat="49.8147" lon="2.41467">
        <ele>38.1</ele>
        <time>2023-04-19T13:18:27Z</time>
      </trkpt>
      <trkpt lat="49.81471" lon="2.41466">
        <ele>38.1</ele>
        <time>2023-04-19T13:18:28Z</time>
      </trkpt>
      <trkpt lat="49.81471" lon="2.41465">
        <ele>38.2</ele>
        <time>2023-04-19T13:18:30Z</time>
      </trkpt>
      <trkpt lat="49.81472" lon="2.41464">
        <ele>38.3</ele>
        <time>2023-04-19T13:18:31Z</time>
      </trkpt>
      <trkpt lat="49.81472" lon="2.41463">
        <ele>38.3</ele>
        <time>2023-04-19T13:18:32Z</time>
      </trkpt>
      <trkpt lat="49.81473" lon="2.41462">
        <ele>38.4</ele>
        <time>2023-04-19T13:18:33Z</time>
      </trkpt>
      <trkpt lat="49.81474" lon="2.41461">
        <ele>38.5</ele>
        <time>2023-04-19T13:18:34Z</time>
      </trkpt>
      <trkpt lat="49.81474" lon="2.4146">
        <ele>38.6</ele>
        <time>2023-04-19T13:18:36Z</time>
      </trkpt>
      <trkpt lat="49.81475" lon="2.41458">
        <ele>38.7</ele>
        <time>2023-04-19T13:18:37Z</time>
      </trkpt>
      <trkpt lat="49.81476" lon="2.41455">
        <ele>38.9</ele>
        <time>2023-04-19T13:18:39Z</time>
      </trkpt>
      <trkpt lat="49.81476" lon="2.41454">
        <ele>38.9</ele>
        <time>2023-04-19T13:18:40Z</time>
      </trkpt>
      <trkpt lat="49.81476" lon="2.41452">
        <ele>39</ele>
        <time>2023-04-19T13:18:41Z</time>
      </trkpt>
      <trkpt lat="49.81477" lon="2.41451">
        <ele>39.1</ele>
        <time>2023-04-19T13:18:42Z</time>
      </trkpt>
      <trkpt lat="49.81477" lon="2.41448">
        <ele>39.2</ele>
        <time>2023-04-19T13:18:44Z</time>
      </trkpt>
      <trkpt lat="49.81477" lon="2.41446">
        <ele>39.4</ele>
        <time>2023-04-19T13:18:45Z</time>
      </trkpt>
      <trkpt lat="49.81477" lon="2.41445">
        <ele>39.4</ele>
        <time>2023-04-19T13:18:46Z</time>
      </trkpt>
      <trkpt lat="49.81477" lon="2.41444">
        <ele>39.5</ele>
        <time>2023-04-19T13:18:47Z</time>
      </trkpt>
      <trkpt lat="49.81477" lon="2.41442">
        <ele>39.6</ele>
        <time>2023-04-19T13:18:48Z</time>
      </trkpt>
      <trkpt lat="49.81477" lon="2.41439">
        <ele>39.8</ele>
        <time>2023-04-19T13:18:49Z</time>
      </trkpt>
      <trkpt lat="49.81477" lon="2.41438">
        <ele>39.8</ele>
        <time>2023-04-19T13:18:51Z</time>
      </trkpt>
      <trkpt lat="49.81478" lon="2.41437">
        <ele>39.9</ele>
        <time>2023-04-19T13:18:52Z</time>
      </trkpt>
      <trkpt lat="49.81478" lon="2.41435">
        <ele>40</ele>
        <time>2023-04-19T13:18:53Z</time>
      </trkpt>
      <trkpt lat="49.81478" lon="2.41433">
        <ele>40.1</ele>
        <time>2023-04-19T13:18:54Z</time>
      </trkpt>
      <trkpt lat="49.81478" lon="2.41432">
        <ele>40.2</ele>
        <time>2023-04-19T13:18:55Z</time>
      </trkpt>
      <trkpt lat="49.81478" lon="2.41431">
        <ele>40.3</ele>
        <time>2023-04-19T13:18:57Z</time>
      </trkpt>
      <trkpt lat="49.81478" lon="2.4143">
        <ele>40.3</ele>
        <time>2023-04-19T13:18:58Z</time>
      </trkpt>
      <trkpt lat="49.81479" lon="2.41428">
        <ele>40.4</ele>
        <time>2023-04-19T13:18:59Z</time>
      </trkpt>
      <trkpt lat="49.81479" lon="2.41427">
        <ele>40.5</ele>
        <time>2023-04-19T13:19:00Z</time>
      </trkpt>
      <trkpt lat="49.8148" lon="2.41426">
        <ele>40.6</ele>
        <time>2023-04-19T13:19:01Z</time>
      </trkpt>
      <trkpt lat="49.8148" lon="2.41424">
        <ele>40.7</ele>
        <time>2023-04-19T13:19:02Z</time>
      </trkpt>
      <trkpt lat="49.81481" lon="2.41423">
        <ele>40.8</ele>
        <time>2023-04-19T13:19:03Z</time>
      </trkpt>
      <trkpt lat="49.81482" lon="2.4142">
        <ele>41</ele>
        <time>2023-04-19T13:19:05Z</time>
      </trkpt>
      <trkpt lat="49.81482" lon="2.41418">
        <ele>41.1</ele>
        <time>2023-04-19T13:19:06Z</time>
      </trkpt>
      <trkpt lat="49.81482" lon="2.41417">
        <ele>41.2</ele>
        <time>2023-04-19T13:19:07Z</time>
      </trkpt>
      <trkpt lat="49.81482" lon="2.41416">
        <ele>41.3</ele>
        <time>2023-04-19T13:19:08Z</time>
      </trkpt>
      <trkpt lat="49.81483" lon="2.41414">
        <ele>41.4</ele>
        <time>2023-04-19T13:19:09Z</time>
      </trkpt>
      <trkpt lat="49.81483" lon="2.41412">
        <ele>41.5</ele>
        <time>2023-04-19T13:19:10Z</time>
      </trkpt>
      <trkpt lat="49.81484" lon="2.41409">
        <ele>41.7</ele>
        <time>2023-04-19T13:19:11Z</time>
      </trkpt>
      <trkpt lat="49.81484" lon="2.41407">
        <ele>41.8</ele>
        <time>2023-04-19T13:19:12Z</time>
      </trkpt>
      <trkpt lat="49.81485" lon="2.41402">
        <ele>42.2</ele>
        <time>2023-04-19T13:19:14Z</time>
      </trkpt>
      <trkpt lat="49.81485" lon="2.41401">
        <ele>42.3</ele>
        <time>2023-04-19T13:19:15Z</time>
      </trkpt>
      <trkpt lat="49.81486" lon="2.41397">
        <ele>42.5</ele>
        <time>2023-04-19T13:19:16Z</time>
      </trkpt>
      <trkpt lat="49.81486" lon="2.41395">
        <ele>42.6</ele>
        <time>2023-04-19T13:19:17Z</time>
      </trkpt>
      <trkpt lat="49.81486" lon="2.41393">
        <ele>42.8</ele>
        <time>2023-04-19T13:19:18Z</time>
      </trkpt>
      <trkpt lat="49.81487" lon="2.41391">
        <ele>42.9</ele>
        <time>2023-04-19T13:19:20Z</time>
      </trkpt>
      <trkpt lat="49.81488" lon="2.41388">
        <ele>43.1</ele>
        <time>2023-04-19T13:19:21Z</time>
      </trkpt>
      <trkpt lat="49.81489" lon="2.41384">
        <ele>43.4</ele>
        <time>2023-04-19T13:19:23Z</time>
      </trkpt>
      <trkpt lat="49.8149" lon="2.41381">
        <ele>43.6</ele>
        <time>2023-04-19T13:19:24Z</time>
      </trkpt>
      <trkpt lat="49.8149" lon="2.41379">
        <ele>43.7</ele>
        <time>2023-04-19T13:19:26Z</time>
      </trkpt>
      <trkpt lat="49.8149" lon="2.41378">
        <ele>43.8</ele>
        <time>2023-04-19T13:19:27Z</time>
      </trkpt>
      <trkpt lat="49.81491" lon="2.41376">
        <ele>43.9</ele>
        <time>2023-04-19T13:19:28Z</time>
      </trkpt>
      <trkpt lat="49.81491" lon="2.41375">
        <ele>44</ele>
        <time>2023-04-19T13:19:29Z</time>
      </trkpt>
      <trkpt lat="49.81492" lon="2.41373">
        <ele>44.2</ele>
        <time>2023-04-19T13:19:30Z</time>
      </trkpt>
      <trkpt lat="49.81492" lon="2.4137">
        <ele>44.3</ele>
        <time>2023-04-19T13:19:32Z</time>
      </trkpt>
      <trkpt lat="49.81493" lon="2.41369">
        <ele>44.4</ele>
        <time>2023-04-19T13:19:33Z</time>
      </trkpt>
      <trkpt lat="49.81493" lon="2.41368">
        <ele>44.5</ele>
        <time>2023-04-19T13:19:34Z</time>
      </trkpt>
      <trkpt lat="49.81493" lon="2.41366">
        <ele>44.6</ele>
        <time>2023-04-19T13:19:35Z</time>
      </trkpt>
      <trkpt lat="49.81494" lon="2.41363">
        <ele>44.8</ele>
        <time>2023-04-19T13:19:36Z</time>
      </trkpt>
      <trkpt lat="49.81495" lon="2.41362">
        <ele>44.9</ele>
        <time>2023-04-19T13:19:37Z</time>
      </trkpt>
      <trkpt lat="49.81495" lon="2.41361">
        <ele>45</ele>
        <time>2023-04-19T13:19:39Z</time>
      </trkpt>
      <trkpt lat="49.81496" lon="2.4136">
        <ele>45.1</ele>
        <time>2023-04-19T13:19:40Z</time>
      </trkpt>
      <trkpt lat="49.81497" lon="2.41358">
        <ele>45.2</ele>
        <time>2023-04-19T13:19:41Z</time>
      </trkpt>
      <trkpt lat="49.81497" lon="2.41357">
        <ele>45.3</ele>
        <time>2023-04-19T13:19:42Z</time>
      </trkpt>
      <trkpt lat="49.81498" lon="2.41356">
        <ele>45.4</ele>
        <time>2023-04-19T13:19:43Z</time>
      </trkpt>
      <trkpt lat="49.81499" lon="2.41355">
        <ele>45.5</ele>
        <time>2023-04-19T13:19:45Z</time>
      </trkpt>
      <trkpt lat="49.81499" lon="2.41354">
        <ele>45.6</ele>
        <time>2023-04-19T13:19:46Z</time>
      </trkpt>
      <trkpt lat="49.815" lon="2.41352">
        <ele>45.7</ele>
        <time>2023-04-19T13:19:47Z</time>
      </trkpt>
      <trkpt lat="49.815" lon="2.41352">
        <ele>45.7</ele>
        <time>2023-04-19T13:19:48Z</time>
      </trkpt>
      <trkpt lat="49.81501" lon="2.4135">
        <ele>45.8</ele>
        <time>2023-04-19T13:19:49Z</time>
      </trkpt>
      <trkpt lat="49.81501" lon="2.41349">
        <ele>45.9</ele>
        <time>2023-04-19T13:19:50Z</time>
      </trkpt>
      <trkpt lat="49.81501" lon="2.41349">
        <ele>45.9</ele>
        <time>2023-04-19T13:19:51Z</time>
      </trkpt>
      <trkpt lat="49.81502" lon="2.41347">
        <ele>46</ele>
        <time>2023-04-19T13:19:53Z</time>
      </trkpt>
      <trkpt lat="49.81502" lon="2.41346">
        <ele>46.1</ele>
        <time>2023-04-19T13:19:54Z</time>
      </trkpt>
      <trkpt lat="49.81502" lon="2.41346">
        <ele>46.1</ele>
        <time>2023-04-19T13:19:55Z</time>
      </trkpt>
      <trkpt lat="49.81502" lon="2.41345">
        <ele>46.2</ele>
        <time>2023-04-19T13:19:56Z</time>
      </trkpt>
      <trkpt lat="49.81502" lon="2.41344">
        <ele>46.2</ele>
        <time>2023-04-19T13:19:57Z</time>
      </trkpt>
      <trkpt lat="49.81502" lon="2.41343">
        <ele>46.3</ele>
        <time>2023-04-19T13:19:58Z</time>
      </trkpt>
      <trkpt lat="49.81502" lon="2.41342">
        <ele>46.3</ele>
        <time>2023-04-19T13:19:59Z</time>
      </trkpt>
      <trkpt lat="49.81503" lon="2.41341">
        <ele>46.4</ele>
        <time>2023-04-19T13:20:00Z</time>
      </trkpt>
      <trkpt lat="49.81503" lon="2.4134">
        <ele>46.4</ele>
        <time>2023-04-19T13:20:01Z</time>
      </trkpt>
      <trkpt lat="49.81504" lon="2.41339">
        <ele>46.5</ele>
        <time>2023-04-19T13:20:03Z</time>
      </trkpt>
      <trkpt lat="49.81504" lon="2.41338">
        <ele>46.6</ele>
        <time>2023-04-19T13:20:04Z</time>
      </trkpt>
      <trkpt lat="49.81505" lon="2.41337">
        <ele>46.7</ele>
        <time>2023-04-19T13:20:05Z</time>
      </trkpt>
      <trkpt lat="49.81505" lon="2.41336">
        <ele>46.8</ele>
        <time>2023-04-19T13:20:06Z</time>
      </trkpt>
      <trkpt lat="49.81506" lon="2.41335">
        <ele>46.8</ele>
        <time>2023-04-19T13:20:07Z</time>
      </trkpt>
      <trkpt lat="49.81506" lon="2.41334">
        <ele>46.9</ele>
        <time>2023-04-19T13:20:08Z</time>
      </trkpt>
      <trkpt lat="49.81507" lon="2.41333">
        <ele>46.9</ele>
        <time>2023-04-19T13:20:09Z</time>
      </trkpt>
      <trkpt lat="49.81508" lon="2.41331">
        <ele>47.1</ele>
        <time>2023-04-19T13:20:10Z</time>
      </trkpt>
      <trkpt lat="49.81509" lon="2.4133">
        <ele>47.1</ele>
        <time>2023-04-19T13:20:12Z</time>
      </trkpt>
      <trkpt lat="49.8151" lon="2.41329">
        <ele>47.2</ele>
        <time>2023-04-19T13:20:13Z</time>
      </trkpt>
      <trkpt lat="49.8151" lon="2.41328">
        <ele>47.3</ele>
        <time>2023-04-19T13:20:14Z</time>
      </trkpt>
      <trkpt lat="49.81511" lon="2.41328">
        <ele>47.4</ele>
        <time>2023-04-19T13:20:15Z</time>
      </trkpt>
      <trkpt lat="49.81512" lon="2.41326">
        <ele>47.5</ele>
        <time>2023-04-19T13:20:17Z</time>
      </trkpt>
      <trkpt lat="49.81513" lon="2.41325">
        <ele>47.6</ele>
        <time>2023-04-19T13:20:18Z</time>
      </trkpt>
      <trkpt lat="49.81514" lon="2.41325">
        <ele>47.7</ele>
        <time>2023-04-19T13:20:19Z</time>
      </trkpt>
      <trkpt lat="49.81516" lon="2.41323">
        <ele>47.9</ele>
        <time>2023-04-19T13:20:21Z</time>
      </trkpt>
      <trkpt lat="49.81517" lon="2.41322">
        <ele>48</ele>
        <time>2023-04-19T13:20:22Z</time>
      </trkpt>
      <trkpt lat="49.81518" lon="2.41321">
        <ele>48.1</ele>
        <time>2023-04-19T13:20:24Z</time>
      </trkpt>
      <trkpt lat="49.81519" lon="2.4132">
        <ele>48.1</ele>
        <time>2023-04-19T13:20:25Z</time>
      </trkpt>
      <trkpt lat="49.8152" lon="2.4132">
        <ele>48.2</ele>
        <time>2023-04-19T13:20:26Z</time>
      </trkpt>
      <trkpt lat="49.8152" lon="2.41319">
        <ele>48.3</ele>
        <time>2023-04-19T13:20:27Z</time>
      </trkpt>
      <trkpt lat="49.81522" lon="2.41318">
        <ele>48.4</ele>
        <time>2023-04-19T13:20:28Z</time>
      </trkpt>
      <trkpt lat="49.81522" lon="2.41317">
        <ele>48.5</ele>
        <time>2023-04-19T13:20:30Z</time>
      </trkpt>
      <trkpt lat="49.81523" lon="2.41317">
        <ele>48.6</ele>
        <time>2023-04-19T13:20:31Z</time>
      </trkpt>
      <trkpt lat="49.81524" lon="2.41316">
        <ele>48.6</ele>
        <time>2023-04-19T13:20:32Z</time>
      </trkpt>
      <trkpt lat="49.81525" lon="2.41316">
        <ele>48.7</ele>
        <time>2023-04-19T13:20:33Z</time>
      </trkpt>
      <trkpt lat="49.81526" lon="2.41315">
        <ele>48.8</ele>
        <time>2023-04-19T13:20:34Z</time>
      </trkpt>
      <trkpt lat="49.81527" lon="2.41314">
        <ele>48.9</ele>
        <time>2023-04-19T13:20:35Z</time>
      </trkpt>
      <trkpt lat="49.81528" lon="2.41314">
        <ele>49</ele>
        <time>2023-04-19T13:20:36Z</time>
      </trkpt>
      <trkpt lat="49.81528" lon="2.41313">
        <ele>49</ele>
        <time>2023-04-19T13:20:37Z</time>
      </trkpt>
      <trkpt lat="49.81529" lon="2.41313">
        <ele>49.1</ele>
        <time>2023-04-19T13:20:39Z</time>
      </trkpt>
      <trkpt lat="49.8153" lon="2.41312">
        <ele>49.2</ele>
        <time>2023-04-19T13:20:40Z</time>
      </trkpt>
      <trkpt lat="49.81531" lon="2.41311">
        <ele>49.3</ele>
        <time>2023-04-19T13:20:41Z</time>
      </trkpt>
      <trkpt lat="49.81532" lon="2.41311">
        <ele>49.4</ele>
        <time>2023-04-19T13:20:42Z</time>
      </trkpt>
      <trkpt lat="49.81533" lon="2.4131">
        <ele>49.5</ele>
        <time>2023-04-19T13:20:43Z</time>
      </trkpt>
      <trkpt lat="49.81533" lon="2.41309">
        <ele>49.5</ele>
        <time>2023-04-19T13:20:44Z</time>
      </trkpt>
      <trkpt lat="49.81534" lon="2.41308">
        <ele>49.6</ele>
        <time>2023-04-19T13:20:45Z</time>
      </trkpt>
      <trkpt lat="49.81535" lon="2.41307">
        <ele>49.7</ele>
        <time>2023-04-19T13:20:47Z</time>
      </trkpt>
      <trkpt lat="49.81536" lon="2.41307">
        <ele>49.8</ele>
        <time>2023-04-19T13:20:48Z</time>
      </trkpt>
      <trkpt lat="49.81538" lon="2.41305">
        <ele>50</ele>
        <time>2023-04-19T13:20:49Z</time>
      </trkpt>
      <trkpt lat="49.81539" lon="2.41304">
        <ele>50.1</ele>
        <time>2023-04-19T13:20:50Z</time>
      </trkpt>
      <trkpt lat="49.81539" lon="2.41304">
        <ele>50.2</ele>
        <time>2023-04-19T13:20:51Z</time>
      </trkpt>
      <trkpt lat="49.81541" lon="2.41302">
        <ele>50.3</ele>
        <time>2023-04-19T13:20:52Z</time>
      </trkpt>
      <trkpt lat="49.81542" lon="2.41301">
        <ele>50.4</ele>
        <time>2023-04-19T13:20:53Z</time>
      </trkpt>
      <trkpt lat="49.81543" lon="2.41301">
        <ele>50.5</ele>
        <time>2023-04-19T13:20:54Z</time>
      </trkpt>
      <trkpt lat="49.81544" lon="2.41299">
        <ele>50.7</ele>
        <time>2023-04-19T13:20:55Z</time>
      </trkpt>
      <trkpt lat="49.81545" lon="2.41298">
        <ele>50.8</ele>
        <time>2023-04-19T13:20:57Z</time>
      </trkpt>
      <trkpt lat="49.81546" lon="2.41297">
        <ele>50.8</ele>
        <time>2023-04-19T13:20:58Z</time>
      </trkpt>
      <trkpt lat="49.81546" lon="2.41296">
        <ele>50.9</ele>
        <time>2023-04-19T13:20:59Z</time>
      </trkpt>
      <trkpt lat="49.81547" lon="2.41295">
        <ele>51</ele>
        <time>2023-04-19T13:21:00Z</time>
      </trkpt>
      <trkpt lat="49.81548" lon="2.41294">
        <ele>51.1</ele>
        <time>2023-04-19T13:21:02Z</time>
      </trkpt>
      <trkpt lat="49.81549" lon="2.41292">
        <ele>51.3</ele>
        <time>2023-04-19T13:21:03Z</time>
      </trkpt>
      <trkpt lat="49.8155" lon="2.41291">
        <ele>51.4</ele>
        <time>2023-04-19T13:21:05Z</time>
      </trkpt>
      <trkpt lat="49.81551" lon="2.41289">
        <ele>51.5</ele>
        <time>2023-04-19T13:21:06Z</time>
      </trkpt>
      <trkpt lat="49.81552" lon="2.41289">
        <ele>51.6</ele>
        <time>2023-04-19T13:21:07Z</time>
      </trkpt>
      <trkpt lat="49.81553" lon="2.41288">
        <ele>51.7</ele>
        <time>2023-04-19T13:21:08Z</time>
      </trkpt>
      <trkpt lat="49.81554" lon="2.41287">
        <ele>51.8</ele>
        <time>2023-04-19T13:21:10Z</time>
      </trkpt>
      <trkpt lat="49.81555" lon="2.41286">
        <ele>51.9</ele>
        <time>2023-04-19T13:21:11Z</time>
      </trkpt>
      <trkpt lat="49.81555" lon="2.41285">
        <ele>51.9</ele>
        <time>2023-04-19T13:21:12Z</time>
      </trkpt>
      <trkpt lat="49.81556" lon="2.41285">
        <ele>52</ele>
        <time>2023-04-19T13:21:13Z</time>
      </trkpt>
      <trkpt lat="49.81557" lon="2.41284">
        <ele>52.1</ele>
        <time>2023-04-19T13:21:14Z</time>
      </trkpt>
      <trkpt lat="49.81558" lon="2.41283">
        <ele>52.2</ele>
        <time>2023-04-19T13:21:15Z</time>
      </trkpt>
      <trkpt lat="49.81559" lon="2.41283">
        <ele>52.3</ele>
        <time>2023-04-19T13:21:16Z</time>
      </trkpt>
      <trkpt lat="49.8156" lon="2.41282">
        <ele>52.4</ele>
        <time>2023-04-19T13:21:18Z</time>
      </trkpt>
      <trkpt lat="49.81561" lon="2.41281">
        <ele>52.5</ele>
        <time>2023-04-19T13:21:19Z</time>
      </trkpt>
      <trkpt lat="49.81562" lon="2.4128">
        <ele>52.6</ele>
        <time>2023-04-19T13:21:20Z</time>
      </trkpt>
      <trkpt lat="49.81563" lon="2.41279">
        <ele>52.7</ele>
        <time>2023-04-19T13:21:21Z</time>
      </trkpt>
      <trkpt lat="49.81564" lon="2.41278">
        <ele>52.8</ele>
        <time>2023-04-19T13:21:23Z</time>
      </trkpt>
      <trkpt lat="49.81565" lon="2.41278">
        <ele>52.9</ele>
        <time>2023-04-19T13:21:24Z</time>
      </trkpt>
      <trkpt lat="49.81566" lon="2.41277">
        <ele>53</ele>
        <time>2023-04-19T13:21:25Z</time>
      </trkpt>
      <trkpt lat="49.81566" lon="2.41276">
        <ele>53</ele>
        <time>2023-04-19T13:21:26Z</time>
      </trkpt>
      <trkpt lat="49.81567" lon="2.41275">
        <ele>53.1</ele>
        <time>2023-04-19T13:21:27Z</time>
      </trkpt>
      <trkpt lat="49.81568" lon="2.41274">
        <ele>53.2</ele>
        <time>2023-04-19T13:21:28Z</time>
      </trkpt>
      <trkpt lat="49.81568" lon="2.41273">
        <ele>53.3</ele>
        <time>2023-04-19T13:21:29Z</time>
      </trkpt>
      <trkpt lat="49.81569" lon="2.41272">
        <ele>53.4</ele>
        <time>2023-04-19T13:21:30Z</time>
      </trkpt>
      <trkpt lat="49.8157" lon="2.41272">
        <ele>53.5</ele>
        <time>2023-04-19T13:21:31Z</time>
      </trkpt>
      <trkpt lat="49.81571" lon="2.41271">
        <ele>53.5</ele>
        <time>2023-04-19T13:21:33Z</time>
      </trkpt>
      <trkpt lat="49.81572" lon="2.4127">
        <ele>53.6</ele>
        <time>2023-04-19T13:21:34Z</time>
      </trkpt>
      <trkpt lat="49.81573" lon="2.4127">
        <ele>53.7</ele>
        <time>2023-04-19T13:21:35Z</time>
      </trkpt>
      <trkpt lat="49.81574" lon="2.41268">
        <ele>53.8</ele>
        <time>2023-04-19T13:21:36Z</time>
      </trkpt>
      <trkpt lat="49.81575" lon="2.41268">
        <ele>53.9</ele>
        <time>2023-04-19T13:21:37Z</time>
      </trkpt>
      <trkpt lat="49.81575" lon="2.41267">
        <ele>54</ele>
        <time>2023-04-19T13:21:38Z</time>
      </trkpt>
      <trkpt lat="49.81576" lon="2.41266">
        <ele>54</ele>
        <time>2023-04-19T13:21:39Z</time>
      </trkpt>
      <trkpt lat="49.81577" lon="2.41266">
        <ele>54.1</ele>
        <time>2023-04-19T13:21:41Z</time>
      </trkpt>
      <trkpt lat="49.81578" lon="2.41265">
        <ele>54.2</ele>
        <time>2023-04-19T13:21:42Z</time>
      </trkpt>
      <trkpt lat="49.81579" lon="2.41264">
        <ele>54.3</ele>
        <time>2023-04-19T13:21:43Z</time>
      </trkpt>
      <trkpt lat="49.8158" lon="2.41264">
        <ele>54.4</ele>
        <time>2023-04-19T13:21:44Z</time>
      </trkpt>
      <trkpt lat="49.81582" lon="2.41265">
        <ele>54.5</ele>
        <time>2023-04-19T13:21:45Z</time>
      </trkpt>
      <trkpt lat="49.81582" lon="2.41265">
        <ele>54.6</ele>
        <time>2023-04-19T13:21:46Z</time>
      </trkpt>
      <trkpt lat="49.81583" lon="2.41265">
        <ele>54.6</ele>
        <time>2023-04-19T13:21:47Z</time>
      </trkpt>
      <trkpt lat="49.81584" lon="2.41264">
        <ele>54.7</ele>
        <time>2023-04-19T13:21:49Z</time>
      </trkpt>
      <trkpt lat="49.81584" lon="2.41262">
        <ele>54.8</ele>
        <time>2023-04-19T13:21:50Z</time>
      </trkpt>
      <trkpt lat="49.81585" lon="2.4126">
        <ele>54.9</ele>
        <time>2023-04-19T13:21:51Z</time>
      </trkpt>
      <trkpt lat="49.81585" lon="2.41258">
        <ele>55</ele>
        <time>2023-04-19T13:21:52Z</time>
      </trkpt>
      <trkpt lat="49.81586" lon="2.41257">
        <ele>55.1</ele>
        <time>2023-04-19T13:21:53Z</time>
      </trkpt>
      <trkpt lat="49.81587" lon="2.41254">
        <ele>55.3</ele>
        <time>2023-04-19T13:21:55Z</time>
      </trkpt>
      <trkpt lat="49.81588" lon="2.41253">
        <ele>55.4</ele>
        <time>2023-04-19T13:21:56Z</time>
      </trkpt>
      <trkpt lat="49.81589" lon="2.41252">
        <ele>55.4</ele>
        <time>2023-04-19T13:21:58Z</time>
      </trkpt>
      <trkpt lat="49.81589" lon="2.41251">
        <ele>55.5</ele>
        <time>2023-04-19T13:21:59Z</time>
      </trkpt>
      <trkpt lat="49.8159" lon="2.41251">
        <ele>55.6</ele>
        <time>2023-04-19T13:22:00Z</time>
      </trkpt>
      <trkpt lat="49.81592" lon="2.4125">
        <ele>55.7</ele>
        <time>2023-04-19T13:22:01Z</time>
      </trkpt>
      <trkpt lat="49.81593" lon="2.41249">
        <ele>55.8</ele>
        <time>2023-04-19T13:22:02Z</time>
      </trkpt>
      <trkpt lat="49.81594" lon="2.41248">
        <ele>55.8</ele>
        <time>2023-04-19T13:22:04Z</time>
      </trkpt>
      <trkpt lat="49.81595" lon="2.41247">
        <ele>55.9</ele>
        <time>2023-04-19T13:22:05Z</time>
      </trkpt>
      <trkpt lat="49.81595" lon="2.41246">
        <ele>56</ele>
        <time>2023-04-19T13:22:06Z</time>
      </trkpt>
      <trkpt lat="49.81596" lon="2.41245">
        <ele>56.1</ele>
        <time>2023-04-19T13:22:07Z</time>
      </trkpt>
      <trkpt lat="49.81597" lon="2.41245">
        <ele>56.1</ele>
        <time>2023-04-19T13:22:08Z</time>
      </trkpt>
      <trkpt lat="49.81597" lon="2.41244">
        <ele>56.2</ele>
        <time>2023-04-19T13:22:09Z</time>
      </trkpt>
      <trkpt lat="49.81599" lon="2.41242">
        <ele>56.3</ele>
        <time>2023-04-19T13:22:10Z</time>
      </trkpt>
      <trkpt lat="49.81599" lon="2.41242">
        <ele>56.3</ele>
        <time>2023-04-19T13:22:11Z</time>
      </trkpt>
      <trkpt lat="49.816" lon="2.41241">
        <ele>56.4</ele>
        <time>2023-04-19T13:22:13Z</time>
      </trkpt>
      <trkpt lat="49.81601" lon="2.4124">
        <ele>56.5</ele>
        <time>2023-04-19T13:22:14Z</time>
      </trkpt>
      <trkpt lat="49.81602" lon="2.41239">
        <ele>56.5</ele>
        <time>2023-04-19T13:22:15Z</time>
      </trkpt>
      <trkpt lat="49.81603" lon="2.41238">
        <ele>56.6</ele>
        <time>2023-04-19T13:22:16Z</time>
      </trkpt>
      <trkpt lat="49.81604" lon="2.41236">
        <ele>56.7</ele>
        <time>2023-04-19T13:22:17Z</time>
      </trkpt>
      <trkpt lat="49.81605" lon="2.41235">
        <ele>56.8</ele>
        <time>2023-04-19T13:22:19Z</time>
      </trkpt>
      <trkpt lat="49.81606" lon="2.41234">
        <ele>56.8</ele>
        <time>2023-04-19T13:22:20Z</time>
      </trkpt>
      <trkpt lat="49.81607" lon="2.41232">
        <ele>56.9</ele>
        <time>2023-04-19T13:22:21Z</time>
      </trkpt>
      <trkpt lat="49.81608" lon="2.41231">
        <ele>57</ele>
        <time>2023-04-19T13:22:22Z</time>
      </trkpt>
      <trkpt lat="49.81609" lon="2.4123">
        <ele>57.1</ele>
        <time>2023-04-19T13:22:23Z</time>
      </trkpt>
      <trkpt lat="49.8161" lon="2.41228">
        <ele>57.1</ele>
        <time>2023-04-19T13:22:24Z</time>
      </trkpt>
      <trkpt lat="49.81611" lon="2.41226">
        <ele>57.2</ele>
        <time>2023-04-19T13:22:26Z</time>
      </trkpt>
      <trkpt lat="49.81612" lon="2.41225">
        <ele>57.3</ele>
        <time>2023-04-19T13:22:27Z</time>
      </trkpt>
      <trkpt lat="49.81613" lon="2.41223">
        <ele>57.4</ele>
        <time>2023-04-19T13:22:28Z</time>
      </trkpt>
      <trkpt lat="49.81614" lon="2.41222">
        <ele>57.5</ele>
        <time>2023-04-19T13:22:29Z</time>
      </trkpt>
      <trkpt lat="49.81616" lon="2.4122">
        <ele>57.5</ele>
        <time>2023-04-19T13:22:30Z</time>
      </trkpt>
      <trkpt lat="49.81617" lon="2.41218">
        <ele>57.7</ele>
        <time>2023-04-19T13:22:31Z</time>
      </trkpt>
      <trkpt lat="49.81618" lon="2.41216">
        <ele>57.7</ele>
        <time>2023-04-19T13:22:33Z</time>
      </trkpt>
      <trkpt lat="49.81619" lon="2.41215">
        <ele>57.8</ele>
        <time>2023-04-19T13:22:34Z</time>
      </trkpt>
      <trkpt lat="49.8162" lon="2.41214">
        <ele>57.8</ele>
        <time>2023-04-19T13:22:35Z</time>
      </trkpt>
      <trkpt lat="49.8162" lon="2.41212">
        <ele>57.9</ele>
        <time>2023-04-19T13:22:36Z</time>
      </trkpt>
      <trkpt lat="49.81621" lon="2.41211">
        <ele>57.9</ele>
        <time>2023-04-19T13:22:37Z</time>
      </trkpt>
      <trkpt lat="49.81622" lon="2.41209">
        <ele>58</ele>
        <time>2023-04-19T13:22:38Z</time>
      </trkpt>
      <trkpt lat="49.81622" lon="2.41207">
        <ele>58</ele>
        <time>2023-04-19T13:22:40Z</time>
      </trkpt>
      <trkpt lat="49.81624" lon="2.41204">
        <ele>58.1</ele>
        <time>2023-04-19T13:22:41Z</time>
      </trkpt>
      <trkpt lat="49.81624" lon="2.41204">
        <ele>58.2</ele>
        <time>2023-04-19T13:22:42Z</time>
      </trkpt>
      <trkpt lat="49.81625" lon="2.41203">
        <ele>58.2</ele>
        <time>2023-04-19T13:22:43Z</time>
      </trkpt>
      <trkpt lat="49.81626" lon="2.41201">
        <ele>58.3</ele>
        <time>2023-04-19T13:22:44Z</time>
      </trkpt>
      <trkpt lat="49.81627" lon="2.412">
        <ele>58.3</ele>
        <time>2023-04-19T13:22:45Z</time>
      </trkpt>
      <trkpt lat="49.81627" lon="2.41199">
        <ele>58.3</ele>
        <time>2023-04-19T13:22:46Z</time>
      </trkpt>
      <trkpt lat="49.81629" lon="2.41196">
        <ele>58.4</ele>
        <time>2023-04-19T13:22:47Z</time>
      </trkpt>
      <trkpt lat="49.8163" lon="2.41195">
        <ele>58.5</ele>
        <time>2023-04-19T13:22:49Z</time>
      </trkpt>
      <trkpt lat="49.8163" lon="2.41194">
        <ele>58.5</ele>
        <time>2023-04-19T13:22:50Z</time>
      </trkpt>
      <trkpt lat="49.81631" lon="2.41193">
        <ele>58.6</ele>
        <time>2023-04-19T13:22:51Z</time>
      </trkpt>
      <trkpt lat="49.81632" lon="2.41192">
        <ele>58.6</ele>
        <time>2023-04-19T13:22:52Z</time>
      </trkpt>
      <trkpt lat="49.81633" lon="2.4119">
        <ele>58.6</ele>
        <time>2023-04-19T13:22:53Z</time>
      </trkpt>
      <trkpt lat="49.81634" lon="2.41189">
        <ele>58.7</ele>
        <time>2023-04-19T13:22:54Z</time>
      </trkpt>
      <trkpt lat="49.81635" lon="2.41188">
        <ele>58.8</ele>
        <time>2023-04-19T13:22:56Z</time>
      </trkpt>
      <trkpt lat="49.81636" lon="2.41185">
        <ele>58.8</ele>
        <time>2023-04-19T13:22:57Z</time>
      </trkpt>
      <trkpt lat="49.81637" lon="2.41184">
        <ele>58.9</ele>
        <time>2023-04-19T13:22:58Z</time>
      </trkpt>
      <trkpt lat="49.81637" lon="2.41183">
        <ele>58.9</ele>
        <time>2023-04-19T13:22:59Z</time>
      </trkpt>
      <trkpt lat="49.81638" lon="2.41182">
        <ele>58.9</ele>
        <time>2023-04-19T13:23:00Z</time>
      </trkpt>
      <trkpt lat="49.81639" lon="2.4118">
        <ele>59</ele>
        <time>2023-04-19T13:23:01Z</time>
      </trkpt>
      <trkpt lat="49.81639" lon="2.41179">
        <ele>59</ele>
        <time>2023-04-19T13:23:02Z</time>
      </trkpt>
      <trkpt lat="49.81641" lon="2.41176">
        <ele>59.1</ele>
        <time>2023-04-19T13:23:04Z</time>
      </trkpt>
      <trkpt lat="49.81641" lon="2.41175">
        <ele>59.2</ele>
        <time>2023-04-19T13:23:05Z</time>
      </trkpt>
      <trkpt lat="49.81642" lon="2.41174">
        <ele>59.2</ele>
        <time>2023-04-19T13:23:06Z</time>
      </trkpt>
      <trkpt lat="49.81643" lon="2.41172">
        <ele>59.3</ele>
        <time>2023-04-19T13:23:07Z</time>
      </trkpt>
      <trkpt lat="49.81643" lon="2.41171">
        <ele>59.3</ele>
        <time>2023-04-19T13:23:08Z</time>
      </trkpt>
      <trkpt lat="49.81644" lon="2.41169">
        <ele>59.3</ele>
        <time>2023-04-19T13:23:09Z</time>
      </trkpt>
      <trkpt lat="49.81645" lon="2.41168">
        <ele>59.4</ele>
        <time>2023-04-19T13:23:10Z</time>
      </trkpt>
      <trkpt lat="49.81646" lon="2.41166">
        <ele>59.4</ele>
        <time>2023-04-19T13:23:11Z</time>
      </trkpt>
      <trkpt lat="49.81647" lon="2.41164">
        <ele>59.5</ele>
        <time>2023-04-19T13:23:13Z</time>
      </trkpt>
      <trkpt lat="49.81648" lon="2.41163">
        <ele>59.5</ele>
        <time>2023-04-19T13:23:14Z</time>
      </trkpt>
      <trkpt lat="49.81649" lon="2.41162">
        <ele>59.6</ele>
        <time>2023-04-19T13:23:15Z</time>
      </trkpt>
      <trkpt lat="49.81649" lon="2.41161">
        <ele>59.6</ele>
        <time>2023-04-19T13:23:16Z</time>
      </trkpt>
      <trkpt lat="49.8165" lon="2.4116">
        <ele>59.6</ele>
        <time>2023-04-19T13:23:17Z</time>
      </trkpt>
      <trkpt lat="49.81651" lon="2.41159">
        <ele>59.7</ele>
        <time>2023-04-19T13:23:19Z</time>
      </trkpt>
      <trkpt lat="49.81652" lon="2.41158">
        <ele>59.7</ele>
        <time>2023-04-19T13:23:20Z</time>
      </trkpt>
      <trkpt lat="49.81652" lon="2.41157">
        <ele>59.7</ele>
        <time>2023-04-19T13:23:21Z</time>
      </trkpt>
      <trkpt lat="49.81653" lon="2.41156">
        <ele>59.7</ele>
        <time>2023-04-19T13:23:22Z</time>
      </trkpt>
      <trkpt lat="49.81653" lon="2.41155">
        <ele>59.8</ele>
        <time>2023-04-19T13:23:23Z</time>
      </trkpt>
      <trkpt lat="49.81654" lon="2.41155">
        <ele>59.8</ele>
        <time>2023-04-19T13:23:24Z</time>
      </trkpt>
      <trkpt lat="49.81655" lon="2.41153">
        <ele>59.8</ele>
        <time>2023-04-19T13:23:25Z</time>
      </trkpt>
      <trkpt lat="49.81655" lon="2.41152">
        <ele>59.9</ele>
        <time>2023-04-19T13:23:26Z</time>
      </trkpt>
      <trkpt lat="49.81656" lon="2.41151">
        <ele>59.9</ele>
        <time>2023-04-19T13:23:27Z</time>
      </trkpt>
      <trkpt lat="49.81656" lon="2.41149">
        <ele>59.9</ele>
        <time>2023-04-19T13:23:28Z</time>
      </trkpt>
      <trkpt lat="49.81657" lon="2.41147">
        <ele>60</ele>
        <time>2023-04-19T13:23:30Z</time>
      </trkpt>
      <trkpt lat="49.81657" lon="2.41146">
        <ele>60</ele>
        <time>2023-04-19T13:23:31Z</time>
      </trkpt>
      <trkpt lat="49.81658" lon="2.41144">
        <ele>60</ele>
        <time>2023-04-19T13:23:32Z</time>
      </trkpt>
      <trkpt lat="49.81658" lon="2.41142">
        <ele>60.1</ele>
        <time>2023-04-19T13:23:33Z</time>
      </trkpt>
      <trkpt lat="49.81659" lon="2.41141">
        <ele>60.1</ele>
        <time>2023-04-19T13:23:34Z</time>
      </trkpt>
      <trkpt lat="49.81659" lon="2.41139">
        <ele>60.2</ele>
        <time>2023-04-19T13:23:35Z</time>
      </trkpt>
      <trkpt lat="49.8166" lon="2.41138">
        <ele>60.2</ele>
        <time>2023-04-19T13:23:36Z</time>
      </trkpt>
      <trkpt lat="49.81662" lon="2.41136">
        <ele>60.3</ele>
        <time>2023-04-19T13:23:38Z</time>
      </trkpt>
      <trkpt lat="49.81662" lon="2.41135">
        <ele>60.3</ele>
        <time>2023-04-19T13:23:39Z</time>
      </trkpt>
      <trkpt lat="49.81663" lon="2.41134">
        <ele>60.3</ele>
        <time>2023-04-19T13:23:40Z</time>
      </trkpt>
      <trkpt lat="49.81665" lon="2.41132">
        <ele>60.4</ele>
        <time>2023-04-19T13:23:41Z</time>
      </trkpt>
      <trkpt lat="49.81665" lon="2.41131">
        <ele>60.4</ele>
        <time>2023-04-19T13:23:42Z</time>
      </trkpt>
      <trkpt lat="49.81666" lon="2.4113">
        <ele>60.4</ele>
        <time>2023-04-19T13:23:43Z</time>
      </trkpt>
      <trkpt lat="49.81667" lon="2.41128">
        <ele>60.5</ele>
        <time>2023-04-19T13:23:44Z</time>
      </trkpt>
      <trkpt lat="49.81668" lon="2.41127">
        <ele>60.5</ele>
        <time>2023-04-19T13:23:45Z</time>
      </trkpt>
      <trkpt lat="49.81669" lon="2.41126">
        <ele>60.6</ele>
        <time>2023-04-19T13:23:46Z</time>
      </trkpt>
      <trkpt lat="49.81669" lon="2.41124">
        <ele>60.6</ele>
        <time>2023-04-19T13:23:48Z</time>
      </trkpt>
      <trkpt lat="49.8167" lon="2.41122">
        <ele>60.6</ele>
        <time>2023-04-19T13:23:49Z</time>
      </trkpt>
      <trkpt lat="49.81671" lon="2.4112">
        <ele>60.7</ele>
        <time>2023-04-19T13:23:50Z</time>
      </trkpt>
      <trkpt lat="49.81672" lon="2.41118">
        <ele>60.7</ele>
        <time>2023-04-19T13:23:51Z</time>
      </trkpt>
      <trkpt lat="49.81673" lon="2.41117">
        <ele>60.8</ele>
        <time>2023-04-19T13:23:52Z</time>
      </trkpt>
      <trkpt lat="49.81674" lon="2.41115">
        <ele>60.8</ele>
        <time>2023-04-19T13:23:53Z</time>
      </trkpt>
      <trkpt lat="49.81675" lon="2.41113">
        <ele>60.9</ele>
        <time>2023-04-19T13:23:55Z</time>
      </trkpt>
      <trkpt lat="49.81675" lon="2.41111">
        <ele>60.9</ele>
        <time>2023-04-19T13:23:56Z</time>
      </trkpt>
      <trkpt lat="49.81676" lon="2.41108">
        <ele>61</ele>
        <time>2023-04-19T13:23:57Z</time>
      </trkpt>
      <trkpt lat="49.81676" lon="2.41107">
        <ele>61</ele>
        <time>2023-04-19T13:23:59Z</time>
      </trkpt>
      <trkpt lat="49.81676" lon="2.41106">
        <ele>61</ele>
        <time>2023-04-19T13:24:00Z</time>
      </trkpt>
      <trkpt lat="49.81676" lon="2.41105">
        <ele>61</ele>
        <time>2023-04-19T13:24:01Z</time>
      </trkpt>
      <trkpt lat="49.81677" lon="2.41104">
        <ele>61.1</ele>
        <time>2023-04-19T13:24:03Z</time>
      </trkpt>
      <trkpt lat="49.81677" lon="2.41104">
        <ele>61.1</ele>
        <time>2023-04-19T13:24:04Z</time>
      </trkpt>
      <trkpt lat="49.81677" lon="2.41103">
        <ele>61.1</ele>
        <time>2023-04-19T13:24:05Z</time>
      </trkpt>
      <trkpt lat="49.81677" lon="2.41102">
        <ele>61.1</ele>
        <time>2023-04-19T13:24:07Z</time>
      </trkpt>
      <trkpt lat="49.81677" lon="2.41101">
        <ele>61.1</ele>
        <time>2023-04-19T13:24:08Z</time>
      </trkpt>
      <trkpt lat="49.81677" lon="2.411">
        <ele>61.2</ele>
        <time>2023-04-19T13:24:09Z</time>
      </trkpt>
      <trkpt lat="49.81678" lon="2.41099">
        <ele>61.2</ele>
        <time>2023-04-19T13:24:10Z</time>
      </trkpt>
      <trkpt lat="49.81678" lon="2.41098">
        <ele>61.2</ele>
        <time>2023-04-19T13:24:11Z</time>
      </trkpt>
      <trkpt lat="49.81679" lon="2.41096">
        <ele>61.3</ele>
        <time>2023-04-19T13:24:12Z</time>
      </trkpt>
      <trkpt lat="49.8168" lon="2.41094">
        <ele>61.3</ele>
        <time>2023-04-19T13:24:14Z</time>
      </trkpt>
      <trkpt lat="49.81681" lon="2.41093">
        <ele>61.4</ele>
        <time>2023-04-19T13:24:15Z</time>
      </trkpt>
      <trkpt lat="49.81682" lon="2.41091">
        <ele>61.4</ele>
        <time>2023-04-19T13:24:16Z</time>
      </trkpt>
      <trkpt lat="49.81683" lon="2.41088">
        <ele>61.5</ele>
        <time>2023-04-19T13:24:17Z</time>
      </trkpt>
      <trkpt lat="49.81684" lon="2.41086">
        <ele>61.5</ele>
        <time>2023-04-19T13:24:18Z</time>
      </trkpt>
      <trkpt lat="49.81683" lon="2.41084">
        <ele>61.6</ele>
        <time>2023-04-19T13:24:19Z</time>
      </trkpt>
      <trkpt lat="49.81684" lon="2.41084">
        <ele>61.6</ele>
        <time>2023-04-19T13:24:20Z</time>
      </trkpt>
      <trkpt lat="49.81685" lon="2.41083">
        <ele>61.6</ele>
        <time>2023-04-19T13:24:22Z</time>
      </trkpt>
      <trkpt lat="49.81686" lon="2.41083">
        <ele>61.7</ele>
        <time>2023-04-19T13:24:23Z</time>
      </trkpt>
      <trkpt lat="49.81687" lon="2.41082">
        <ele>61.7</ele>
        <time>2023-04-19T13:24:25Z</time>
      </trkpt>
      <trkpt lat="49.81687" lon="2.41082">
        <ele>61.7</ele>
        <time>2023-04-19T13:24:26Z</time>
      </trkpt>
      <trkpt lat="49.81689" lon="2.41078">
        <ele>61.8</ele>
        <time>2023-04-19T13:24:27Z</time>
      </trkpt>
      <trkpt lat="49.81689" lon="2.41076">
        <ele>61.9</ele>
        <time>2023-04-19T13:24:28Z</time>
      </trkpt>
      <trkpt lat="49.8169" lon="2.41074">
        <ele>61.9</ele>
        <time>2023-04-19T13:24:29Z</time>
      </trkpt>
      <trkpt lat="49.8169" lon="2.41071">
        <ele>62</ele>
        <time>2023-04-19T13:24:30Z</time>
      </trkpt>
      <trkpt lat="49.81691" lon="2.41069">
        <ele>62</ele>
        <time>2023-04-19T13:24:31Z</time>
      </trkpt>
      <trkpt lat="49.81692" lon="2.41067">
        <ele>62.1</ele>
        <time>2023-04-19T13:24:32Z</time>
      </trkpt>
      <trkpt lat="49.81693" lon="2.41065">
        <ele>62.1</ele>
        <time>2023-04-19T13:24:33Z</time>
      </trkpt>
      <trkpt lat="49.81694" lon="2.41064">
        <ele>62.2</ele>
        <time>2023-04-19T13:24:35Z</time>
      </trkpt>
      <trkpt lat="49.81694" lon="2.41063">
        <ele>62.2</ele>
        <time>2023-04-19T13:24:36Z</time>
      </trkpt>
      <trkpt lat="49.81696" lon="2.41061">
        <ele>62.3</ele>
        <time>2023-04-19T13:24:37Z</time>
      </trkpt>
      <trkpt lat="49.81696" lon="2.4106">
        <ele>62.3</ele>
        <time>2023-04-19T13:24:38Z</time>
      </trkpt>
      <trkpt lat="49.81697" lon="2.41059">
        <ele>62.3</ele>
        <time>2023-04-19T13:24:39Z</time>
      </trkpt>
      <trkpt lat="49.81697" lon="2.41058">
        <ele>62.3</ele>
        <time>2023-04-19T13:24:40Z</time>
      </trkpt>
      <trkpt lat="49.81699" lon="2.41055">
        <ele>62.4</ele>
        <time>2023-04-19T13:24:42Z</time>
      </trkpt>
      <trkpt lat="49.81699" lon="2.41054">
        <ele>62.4</ele>
        <time>2023-04-19T13:24:43Z</time>
      </trkpt>
      <trkpt lat="49.81699" lon="2.41053">
        <ele>62.5</ele>
        <time>2023-04-19T13:24:44Z</time>
      </trkpt>
      <trkpt lat="49.817" lon="2.4105">
        <ele>62.5</ele>
        <time>2023-04-19T13:24:45Z</time>
      </trkpt>
      <trkpt lat="49.817" lon="2.41048">
        <ele>62.6</ele>
        <time>2023-04-19T13:24:46Z</time>
      </trkpt>
      <trkpt lat="49.81701" lon="2.41047">
        <ele>62.6</ele>
        <time>2023-04-19T13:24:47Z</time>
      </trkpt>
      <trkpt lat="49.81701" lon="2.41046">
        <ele>62.6</ele>
        <time>2023-04-19T13:24:48Z</time>
      </trkpt>
      <trkpt lat="49.81702" lon="2.41045">
        <ele>62.6</ele>
        <time>2023-04-19T13:24:49Z</time>
      </trkpt>
      <trkpt lat="49.81702" lon="2.41043">
        <ele>62.7</ele>
        <time>2023-04-19T13:24:50Z</time>
      </trkpt>
      <trkpt lat="49.81703" lon="2.41038">
        <ele>62.8</ele>
        <time>2023-04-19T13:24:51Z</time>
      </trkpt>
      <trkpt lat="49.81703" lon="2.41037">
        <ele>62.8</ele>
        <time>2023-04-19T13:24:52Z</time>
      </trkpt>
      <trkpt lat="49.81704" lon="2.41034">
        <ele>62.9</ele>
        <time>2023-04-19T13:24:53Z</time>
      </trkpt>
      <trkpt lat="49.81704" lon="2.41032">
        <ele>62.9</ele>
        <time>2023-04-19T13:24:55Z</time>
      </trkpt>
      <trkpt lat="49.81705" lon="2.41028">
        <ele>63</ele>
        <time>2023-04-19T13:24:56Z</time>
      </trkpt>
      <trkpt lat="49.81705" lon="2.41027">
        <ele>63</ele>
        <time>2023-04-19T13:24:57Z</time>
      </trkpt>
      <trkpt lat="49.81705" lon="2.41025">
        <ele>63.1</ele>
        <time>2023-04-19T13:24:58Z</time>
      </trkpt>
      <trkpt lat="49.81706" lon="2.41023">
        <ele>63.1</ele>
        <time>2023-04-19T13:24:59Z</time>
      </trkpt>
      <trkpt lat="49.81707" lon="2.41021">
        <ele>63.2</ele>
        <time>2023-04-19T13:25:00Z</time>
      </trkpt>
      <trkpt lat="49.81708" lon="2.41019">
        <ele>63.2</ele>
        <time>2023-04-19T13:25:01Z</time>
      </trkpt>
      <trkpt lat="49.8171" lon="2.41016">
        <ele>63.3</ele>
        <time>2023-04-19T13:25:02Z</time>
      </trkpt>
      <trkpt lat="49.8171" lon="2.41015">
        <ele>63.3</ele>
        <time>2023-04-19T13:25:03Z</time>
      </trkpt>
      <trkpt lat="49.81711" lon="2.41014">
        <ele>63.3</ele>
        <time>2023-04-19T13:25:04Z</time>
      </trkpt>
      <trkpt lat="49.81712" lon="2.41013">
        <ele>63.4</ele>
        <time>2023-04-19T13:25:06Z</time>
      </trkpt>
      <trkpt lat="49.81713" lon="2.41011">
        <ele>63.4</ele>
        <time>2023-04-19T13:25:07Z</time>
      </trkpt>
      <trkpt lat="49.81714" lon="2.41009">
        <ele>63.5</ele>
        <time>2023-04-19T13:25:08Z</time>
      </trkpt>
      <trkpt lat="49.81715" lon="2.41008">
        <ele>63.5</ele>
        <time>2023-04-19T13:25:09Z</time>
      </trkpt>
      <trkpt lat="49.81715" lon="2.41007">
        <ele>63.6</ele>
        <time>2023-04-19T13:25:10Z</time>
      </trkpt>
      <trkpt lat="49.81717" lon="2.41004">
        <ele>63.6</ele>
        <time>2023-04-19T13:25:11Z</time>
      </trkpt>
      <trkpt lat="49.81717" lon="2.41004">
        <ele>63.6</ele>
        <time>2023-04-19T13:25:12Z</time>
      </trkpt>
      <trkpt lat="49.81719" lon="2.41001">
        <ele>63.7</ele>
        <time>2023-04-19T13:25:13Z</time>
      </trkpt>
      <trkpt lat="49.81719" lon="2.41">
        <ele>63.7</ele>
        <time>2023-04-19T13:25:14Z</time>
      </trkpt>
      <trkpt lat="49.8172" lon="2.40999">
        <ele>63.7</ele>
        <time>2023-04-19T13:25:15Z</time>
      </trkpt>
      <trkpt lat="49.8172" lon="2.40998">
        <ele>63.8</ele>
        <time>2023-04-19T13:25:17Z</time>
      </trkpt>
      <trkpt lat="49.81721" lon="2.40996">
        <ele>63.8</ele>
        <time>2023-04-19T13:25:18Z</time>
      </trkpt>
      <trkpt lat="49.81722" lon="2.40995">
        <ele>63.9</ele>
        <time>2023-04-19T13:25:19Z</time>
      </trkpt>
      <trkpt lat="49.81722" lon="2.40993">
        <ele>63.9</ele>
        <time>2023-04-19T13:25:20Z</time>
      </trkpt>
      <trkpt lat="49.81723" lon="2.40991">
        <ele>63.9</ele>
        <time>2023-04-19T13:25:21Z</time>
      </trkpt>
      <trkpt lat="49.81724" lon="2.40991">
        <ele>64</ele>
        <time>2023-04-19T13:25:22Z</time>
      </trkpt>
      <trkpt lat="49.81725" lon="2.40989">
        <ele>64</ele>
        <time>2023-04-19T13:25:23Z</time>
      </trkpt>
      <trkpt lat="49.81725" lon="2.40988">
        <ele>64</ele>
        <time>2023-04-19T13:25:24Z</time>
      </trkpt>
      <trkpt lat="49.81726" lon="2.40987">
        <ele>64.1</ele>
        <time>2023-04-19T13:25:25Z</time>
      </trkpt>
      <trkpt lat="49.81727" lon="2.40985">
        <ele>64.1</ele>
        <time>2023-04-19T13:25:27Z</time>
      </trkpt>
      <trkpt lat="49.81728" lon="2.40984">
        <ele>64.1</ele>
        <time>2023-04-19T13:25:28Z</time>
      </trkpt>
      <trkpt lat="49.81729" lon="2.40982">
        <ele>64.2</ele>
        <time>2023-04-19T13:25:29Z</time>
      </trkpt>
      <trkpt lat="49.8173" lon="2.40981">
        <ele>64.2</ele>
        <time>2023-04-19T13:25:30Z</time>
      </trkpt>
      <trkpt lat="49.8173" lon="2.4098">
        <ele>64.2</ele>
        <time>2023-04-19T13:25:31Z</time>
      </trkpt>
      <trkpt lat="49.81731" lon="2.40977">
        <ele>64.3</ele>
        <time>2023-04-19T13:25:32Z</time>
      </trkpt>
      <trkpt lat="49.81732" lon="2.40976">
        <ele>64.3</ele>
        <time>2023-04-19T13:25:33Z</time>
      </trkpt>
      <trkpt lat="49.81732" lon="2.40974">
        <ele>64.3</ele>
        <time>2023-04-19T13:25:34Z</time>
      </trkpt>
      <trkpt lat="49.81733" lon="2.40972">
        <ele>64.4</ele>
        <time>2023-04-19T13:25:35Z</time>
      </trkpt>
      <trkpt lat="49.81733" lon="2.40971">
        <ele>64.4</ele>
        <time>2023-04-19T13:25:36Z</time>
      </trkpt>
      <trkpt lat="49.81734" lon="2.40969">
        <ele>64.4</ele>
        <time>2023-04-19T13:25:38Z</time>
      </trkpt>
      <trkpt lat="49.81734" lon="2.40968">
        <ele>64.5</ele>
        <time>2023-04-19T13:25:39Z</time>
      </trkpt>
      <trkpt lat="49.81735" lon="2.40966">
        <ele>64.5</ele>
        <time>2023-04-19T13:25:40Z</time>
      </trkpt>
      <trkpt lat="49.81736" lon="2.40963">
        <ele>64.6</ele>
        <time>2023-04-19T13:25:41Z</time>
      </trkpt>
      <trkpt lat="49.81736" lon="2.40962">
        <ele>64.6</ele>
        <time>2023-04-19T13:25:42Z</time>
      </trkpt>
      <trkpt lat="49.81737" lon="2.40961">
        <ele>64.6</ele>
        <time>2023-04-19T13:25:43Z</time>
      </trkpt>
      <trkpt lat="49.81738" lon="2.40958">
        <ele>64.6</ele>
        <time>2023-04-19T13:25:44Z</time>
      </trkpt>
      <trkpt lat="49.81738" lon="2.40957">
        <ele>64.7</ele>
        <time>2023-04-19T13:25:45Z</time>
      </trkpt>
      <trkpt lat="49.81739" lon="2.40956">
        <ele>64.7</ele>
        <time>2023-04-19T13:25:46Z</time>
      </trkpt>
      <trkpt lat="49.8174" lon="2.40954">
        <ele>64.7</ele>
        <time>2023-04-19T13:25:48Z</time>
      </trkpt>
      <trkpt lat="49.8174" lon="2.40953">
        <ele>64.7</ele>
        <time>2023-04-19T13:25:49Z</time>
      </trkpt>
      <trkpt lat="49.81741" lon="2.40952">
        <ele>64.7</ele>
        <time>2023-04-19T13:25:50Z</time>
      </trkpt>
      <trkpt lat="49.81742" lon="2.40949">
        <ele>64.8</ele>
        <time>2023-04-19T13:25:51Z</time>
      </trkpt>
      <trkpt lat="49.81742" lon="2.40948">
        <ele>64.8</ele>
        <time>2023-04-19T13:25:52Z</time>
      </trkpt>
      <trkpt lat="49.81742" lon="2.40946">
        <ele>64.8</ele>
        <time>2023-04-19T13:25:53Z</time>
      </trkpt>
      <trkpt lat="49.81743" lon="2.40945">
        <ele>64.8</ele>
        <time>2023-04-19T13:25:54Z</time>
      </trkpt>
      <trkpt lat="49.81743" lon="2.40943">
        <ele>64.8</ele>
        <time>2023-04-19T13:25:55Z</time>
      </trkpt>
      <trkpt lat="49.81744" lon="2.40942">
        <ele>64.9</ele>
        <time>2023-04-19T13:25:56Z</time>
      </trkpt>
      <trkpt lat="49.81745" lon="2.4094">
        <ele>64.9</ele>
        <time>2023-04-19T13:25:57Z</time>
      </trkpt>
      <trkpt lat="49.81745" lon="2.40939">
        <ele>64.9</ele>
        <time>2023-04-19T13:25:58Z</time>
      </trkpt>
      <trkpt lat="49.81746" lon="2.40937">
        <ele>64.9</ele>
        <time>2023-04-19T13:26:00Z</time>
      </trkpt>
      <trkpt lat="49.81747" lon="2.40935">
        <ele>64.9</ele>
        <time>2023-04-19T13:26:01Z</time>
      </trkpt>
      <trkpt lat="49.81748" lon="2.40933">
        <ele>64.9</ele>
        <time>2023-04-19T13:26:02Z</time>
      </trkpt>
      <trkpt lat="49.81748" lon="2.40932">
        <ele>64.9</ele>
        <time>2023-04-19T13:26:03Z</time>
      </trkpt>
      <trkpt lat="49.81749" lon="2.40931">
        <ele>65</ele>
        <time>2023-04-19T13:26:04Z</time>
      </trkpt>
      <trkpt lat="49.81749" lon="2.40929">
        <ele>65</ele>
        <time>2023-04-19T13:26:05Z</time>
      </trkpt>
      <trkpt lat="49.8175" lon="2.40928">
        <ele>65</ele>
        <time>2023-04-19T13:26:06Z</time>
      </trkpt>
      <trkpt lat="49.81751" lon="2.40926">
        <ele>65</ele>
        <time>2023-04-19T13:26:07Z</time>
      </trkpt>
      <trkpt lat="49.81752" lon="2.40924">
        <ele>65</ele>
        <time>2023-04-19T13:26:08Z</time>
      </trkpt>
      <trkpt lat="49.81753" lon="2.40923">
        <ele>65</ele>
        <time>2023-04-19T13:26:10Z</time>
      </trkpt>
      <trkpt lat="49.81754" lon="2.40921">
        <ele>65</ele>
        <time>2023-04-19T13:26:11Z</time>
      </trkpt>
      <trkpt lat="49.81755" lon="2.4092">
        <ele>65</ele>
        <time>2023-04-19T13:26:12Z</time>
      </trkpt>
      <trkpt lat="49.81755" lon="2.40919">
        <ele>65.1</ele>
        <time>2023-04-19T13:26:13Z</time>
      </trkpt>
      <trkpt lat="49.81756" lon="2.40918">
        <ele>65.1</ele>
        <time>2023-04-19T13:26:14Z</time>
      </trkpt>
      <trkpt lat="49.81757" lon="2.40916">
        <ele>65.1</ele>
        <time>2023-04-19T13:26:15Z</time>
      </trkpt>
      <trkpt lat="49.81757" lon="2.40915">
        <ele>65.1</ele>
        <time>2023-04-19T13:26:16Z</time>
      </trkpt>
      <trkpt lat="49.81759" lon="2.40913">
        <ele>65.1</ele>
        <time>2023-04-19T13:26:17Z</time>
      </trkpt>
      <trkpt lat="49.8176" lon="2.40912">
        <ele>65.1</ele>
        <time>2023-04-19T13:26:18Z</time>
      </trkpt>
      <trkpt lat="49.81761" lon="2.40909">
        <ele>65.1</ele>
        <time>2023-04-19T13:26:20Z</time>
      </trkpt>
      <trkpt lat="49.81762" lon="2.40908">
        <ele>65.1</ele>
        <time>2023-04-19T13:26:21Z</time>
      </trkpt>
      <trkpt lat="49.81762" lon="2.40907">
        <ele>65.1</ele>
        <time>2023-04-19T13:26:22Z</time>
      </trkpt>
      <trkpt lat="49.81763" lon="2.40904">
        <ele>65.1</ele>
        <time>2023-04-19T13:26:23Z</time>
      </trkpt>
      <trkpt lat="49.81764" lon="2.40903">
        <ele>65.1</ele>
        <time>2023-04-19T13:26:24Z</time>
      </trkpt>
      <trkpt lat="49.81765" lon="2.40902">
        <ele>65.2</ele>
        <time>2023-04-19T13:26:25Z</time>
      </trkpt>
      <trkpt lat="49.81766" lon="2.409">
        <ele>65.2</ele>
        <time>2023-04-19T13:26:26Z</time>
      </trkpt>
      <trkpt lat="49.81768" lon="2.40897">
        <ele>65.2</ele>
        <time>2023-04-19T13:26:28Z</time>
      </trkpt>
      <trkpt lat="49.81768" lon="2.40897">
        <ele>65.2</ele>
        <time>2023-04-19T13:26:29Z</time>
      </trkpt>
      <trkpt lat="49.81769" lon="2.40896">
        <ele>65.2</ele>
        <time>2023-04-19T13:26:30Z</time>
      </trkpt>
      <trkpt lat="49.8177" lon="2.40894">
        <ele>65.1</ele>
        <time>2023-04-19T13:26:31Z</time>
      </trkpt>
      <trkpt lat="49.81771" lon="2.40893">
        <ele>65.1</ele>
        <time>2023-04-19T13:26:32Z</time>
      </trkpt>
      <trkpt lat="49.81772" lon="2.40892">
        <ele>65.1</ele>
        <time>2023-04-19T13:26:33Z</time>
      </trkpt>
      <trkpt lat="49.81773" lon="2.4089">
        <ele>65.1</ele>
        <time>2023-04-19T13:26:34Z</time>
      </trkpt>
      <trkpt lat="49.81775" lon="2.40888">
        <ele>65.1</ele>
        <time>2023-04-19T13:26:35Z</time>
      </trkpt>
      <trkpt lat="49.81776" lon="2.40887">
        <ele>65.1</ele>
        <time>2023-04-19T13:26:36Z</time>
      </trkpt>
      <trkpt lat="49.81777" lon="2.40885">
        <ele>65.1</ele>
        <time>2023-04-19T13:26:37Z</time>
      </trkpt>
      <trkpt lat="49.81778" lon="2.40884">
        <ele>65.1</ele>
        <time>2023-04-19T13:26:38Z</time>
      </trkpt>
      <trkpt lat="49.81779" lon="2.40883">
        <ele>65</ele>
        <time>2023-04-19T13:26:40Z</time>
      </trkpt>
      <trkpt lat="49.81779" lon="2.40881">
        <ele>65</ele>
        <time>2023-04-19T13:26:41Z</time>
      </trkpt>
      <trkpt lat="49.8178" lon="2.4088">
        <ele>65</ele>
        <time>2023-04-19T13:26:42Z</time>
      </trkpt>
      <trkpt lat="49.81781" lon="2.40879">
        <ele>65</ele>
        <time>2023-04-19T13:26:43Z</time>
      </trkpt>
      <trkpt lat="49.81782" lon="2.40877">
        <ele>65</ele>
        <time>2023-04-19T13:26:44Z</time>
      </trkpt>
      <trkpt lat="49.81783" lon="2.40876">
        <ele>64.9</ele>
        <time>2023-04-19T13:26:45Z</time>
      </trkpt>
      <trkpt lat="49.81784" lon="2.40875">
        <ele>64.9</ele>
        <time>2023-04-19T13:26:47Z</time>
      </trkpt>
      <trkpt lat="49.81785" lon="2.40874">
        <ele>64.9</ele>
        <time>2023-04-19T13:26:48Z</time>
      </trkpt>
      <trkpt lat="49.81786" lon="2.40873">
        <ele>64.9</ele>
        <time>2023-04-19T13:26:49Z</time>
      </trkpt>
      <trkpt lat="49.81787" lon="2.40871">
        <ele>64.9</ele>
        <time>2023-04-19T13:26:50Z</time>
      </trkpt>
      <trkpt lat="49.81788" lon="2.4087">
        <ele>64.8</ele>
        <time>2023-04-19T13:26:51Z</time>
      </trkpt>
      <trkpt lat="49.81789" lon="2.40869">
        <ele>64.8</ele>
        <time>2023-04-19T13:26:52Z</time>
      </trkpt>
      <trkpt lat="49.81789" lon="2.40868">
        <ele>64.8</ele>
        <time>2023-04-19T13:26:53Z</time>
      </trkpt>
      <trkpt lat="49.8179" lon="2.40867">
        <ele>64.8</ele>
        <time>2023-04-19T13:26:54Z</time>
      </trkpt>
      <trkpt lat="49.81792" lon="2.40866">
        <ele>64.7</ele>
        <time>2023-04-19T13:26:55Z</time>
      </trkpt>
      <trkpt lat="49.81793" lon="2.40865">
        <ele>64.7</ele>
        <time>2023-04-19T13:26:57Z</time>
      </trkpt>
      <trkpt lat="49.81794" lon="2.40865">
        <ele>64.7</ele>
        <time>2023-04-19T13:26:58Z</time>
      </trkpt>
      <trkpt lat="49.81795" lon="2.40864">
        <ele>64.7</ele>
        <time>2023-04-19T13:26:59Z</time>
      </trkpt>
      <trkpt lat="49.81796" lon="2.40864">
        <ele>64.6</ele>
        <time>2023-04-19T13:27:00Z</time>
      </trkpt>
      <trkpt lat="49.81797" lon="2.40862">
        <ele>64.6</ele>
        <time>2023-04-19T13:27:01Z</time>
      </trkpt>
      <trkpt lat="49.81797" lon="2.40859">
        <ele>64.6</ele>
        <time>2023-04-19T13:27:02Z</time>
      </trkpt>
      <trkpt lat="49.81798" lon="2.40857">
        <ele>64.5</ele>
        <time>2023-04-19T13:27:03Z</time>
      </trkpt>
      <trkpt lat="49.81799" lon="2.40855">
        <ele>64.5</ele>
        <time>2023-04-19T13:27:04Z</time>
      </trkpt>
      <trkpt lat="49.818" lon="2.40852">
        <ele>64.4</ele>
        <time>2023-04-19T13:27:05Z</time>
      </trkpt>
      <trkpt lat="49.81801" lon="2.40851">
        <ele>64.4</ele>
        <time>2023-04-19T13:27:07Z</time>
      </trkpt>
      <trkpt lat="49.81802" lon="2.4085">
        <ele>64.4</ele>
        <time>2023-04-19T13:27:08Z</time>
      </trkpt>
      <trkpt lat="49.81802" lon="2.40849">
        <ele>64.4</ele>
        <time>2023-04-19T13:27:09Z</time>
      </trkpt>
      <trkpt lat="49.81803" lon="2.40847">
        <ele>64.3</ele>
        <time>2023-04-19T13:27:10Z</time>
      </trkpt>
      <trkpt lat="49.81804" lon="2.40846">
        <ele>64.3</ele>
        <time>2023-04-19T13:27:11Z</time>
      </trkpt>
      <trkpt lat="49.81805" lon="2.40845">
        <ele>64.3</ele>
        <time>2023-04-19T13:27:12Z</time>
      </trkpt>
      <trkpt lat="49.81805" lon="2.40844">
        <ele>64.3</ele>
        <time>2023-04-19T13:27:13Z</time>
      </trkpt>
      <trkpt lat="49.81806" lon="2.40843">
        <ele>64.3</ele>
        <time>2023-04-19T13:27:14Z</time>
      </trkpt>
      <trkpt lat="49.81807" lon="2.40841">
        <ele>64.2</ele>
        <time>2023-04-19T13:27:15Z</time>
      </trkpt>
      <trkpt lat="49.81807" lon="2.40841">
        <ele>64.2</ele>
        <time>2023-04-19T13:27:16Z</time>
      </trkpt>
      <trkpt lat="49.81808" lon="2.4084">
        <ele>64.2</ele>
        <time>2023-04-19T13:27:17Z</time>
      </trkpt>
      <trkpt lat="49.81808" lon="2.40839">
        <ele>64.2</ele>
        <time>2023-04-19T13:27:18Z</time>
      </trkpt>
      <trkpt lat="49.81809" lon="2.40838">
        <ele>64.2</ele>
        <time>2023-04-19T13:27:19Z</time>
      </trkpt>
      <trkpt lat="49.8181" lon="2.40837">
        <ele>64.1</ele>
        <time>2023-04-19T13:27:21Z</time>
      </trkpt>
      <trkpt lat="49.8181" lon="2.40836">
        <ele>64.1</ele>
        <time>2023-04-19T13:27:22Z</time>
      </trkpt>
      <trkpt lat="49.81811" lon="2.40836">
        <ele>64.1</ele>
        <time>2023-04-19T13:27:23Z</time>
      </trkpt>
      <trkpt lat="49.81812" lon="2.40835">
        <ele>64.1</ele>
        <time>2023-04-19T13:27:24Z</time>
      </trkpt>
      <trkpt lat="49.81812" lon="2.40834">
        <ele>64</ele>
        <time>2023-04-19T13:27:25Z</time>
      </trkpt>
      <trkpt lat="49.81813" lon="2.40834">
        <ele>64</ele>
        <time>2023-04-19T13:27:26Z</time>
      </trkpt>
      <trkpt lat="49.81813" lon="2.40833">
        <ele>64</ele>
        <time>2023-04-19T13:27:27Z</time>
      </trkpt>
      <trkpt lat="49.81814" lon="2.40832">
        <ele>64</ele>
        <time>2023-04-19T13:27:29Z</time>
      </trkpt>
      <trkpt lat="49.81815" lon="2.40831">
        <ele>64</ele>
        <time>2023-04-19T13:27:30Z</time>
      </trkpt>
      <trkpt lat="49.81816" lon="2.40829">
        <ele>63.9</ele>
        <time>2023-04-19T13:27:31Z</time>
      </trkpt>
      <trkpt lat="49.81818" lon="2.40828">
        <ele>63.9</ele>
        <time>2023-04-19T13:27:32Z</time>
      </trkpt>
      <trkpt lat="49.81819" lon="2.40827">
        <ele>63.8</ele>
        <time>2023-04-19T13:27:33Z</time>
      </trkpt>
      <trkpt lat="49.8182" lon="2.40826">
        <ele>63.8</ele>
        <time>2023-04-19T13:27:34Z</time>
      </trkpt>
      <trkpt lat="49.81821" lon="2.40825">
        <ele>63.8</ele>
        <time>2023-04-19T13:27:35Z</time>
      </trkpt>
      <trkpt lat="49.81823" lon="2.40824">
        <ele>63.7</ele>
        <time>2023-04-19T13:27:36Z</time>
      </trkpt>
      <trkpt lat="49.81824" lon="2.40823">
        <ele>63.7</ele>
        <time>2023-04-19T13:27:37Z</time>
      </trkpt>
      <trkpt lat="49.81825" lon="2.40822">
        <ele>63.7</ele>
        <time>2023-04-19T13:27:38Z</time>
      </trkpt>
      <trkpt lat="49.81826" lon="2.40821">
        <ele>63.6</ele>
        <time>2023-04-19T13:27:39Z</time>
      </trkpt>
      <trkpt lat="49.81827" lon="2.4082">
        <ele>63.6</ele>
        <time>2023-04-19T13:27:40Z</time>
      </trkpt>
      <trkpt lat="49.81828" lon="2.40819">
        <ele>63.6</ele>
        <time>2023-04-19T13:27:42Z</time>
      </trkpt>
      <trkpt lat="49.8183" lon="2.4082">
        <ele>63.5</ele>
        <time>2023-04-19T13:27:43Z</time>
      </trkpt>
      <trkpt lat="49.81831" lon="2.4082">
        <ele>63.5</ele>
        <time>2023-04-19T13:27:44Z</time>
      </trkpt>
      <trkpt lat="49.81832" lon="2.4082">
        <ele>63.4</ele>
        <time>2023-04-19T13:27:45Z</time>
      </trkpt>
      <trkpt lat="49.81834" lon="2.4082">
        <ele>63.4</ele>
        <time>2023-04-19T13:27:46Z</time>
      </trkpt>
      <trkpt lat="49.81835" lon="2.4082">
        <ele>63.4</ele>
        <time>2023-04-19T13:27:47Z</time>
      </trkpt>
      <trkpt lat="49.81836" lon="2.40819">
        <ele>63.3</ele>
        <time>2023-04-19T13:27:49Z</time>
      </trkpt>
      <trkpt lat="49.81838" lon="2.40818">
        <ele>63.3</ele>
        <time>2023-04-19T13:27:50Z</time>
      </trkpt>
      <trkpt lat="49.81839" lon="2.40818">
        <ele>63.2</ele>
        <time>2023-04-19T13:27:51Z</time>
      </trkpt>
      <trkpt lat="49.81841" lon="2.40817">
        <ele>63.2</ele>
        <time>2023-04-19T13:27:52Z</time>
      </trkpt>
      <trkpt lat="49.81842" lon="2.40816">
        <ele>63.2</ele>
        <time>2023-04-19T13:27:53Z</time>
      </trkpt>
      <trkpt lat="49.81843" lon="2.40815">
        <ele>63.1</ele>
        <time>2023-04-19T13:27:54Z</time>
      </trkpt>
      <trkpt lat="49.81844" lon="2.40814">
        <ele>63.1</ele>
        <time>2023-04-19T13:27:55Z</time>
      </trkpt>
      <trkpt lat="49.81845" lon="2.40813">
        <ele>63</ele>
        <time>2023-04-19T13:27:56Z</time>
      </trkpt>
      <trkpt lat="49.81846" lon="2.40812">
        <ele>63</ele>
        <time>2023-04-19T13:27:57Z</time>
      </trkpt>
      <trkpt lat="49.81847" lon="2.40811">
        <ele>63</ele>
        <time>2023-04-19T13:27:58Z</time>
      </trkpt>
      <trkpt lat="49.81848" lon="2.4081">
        <ele>62.9</ele>
        <time>2023-04-19T13:28:00Z</time>
      </trkpt>
      <trkpt lat="49.8185" lon="2.40808">
        <ele>62.9</ele>
        <time>2023-04-19T13:28:01Z</time>
      </trkpt>
      <trkpt lat="49.8185" lon="2.40806">
        <ele>62.8</ele>
        <time>2023-04-19T13:28:02Z</time>
      </trkpt>
      <trkpt lat="49.81851" lon="2.40805">
        <ele>62.8</ele>
        <time>2023-04-19T13:28:03Z</time>
      </trkpt>
      <trkpt lat="49.81852" lon="2.40803">
        <ele>62.7</ele>
        <time>2023-04-19T13:28:04Z</time>
      </trkpt>
      <trkpt lat="49.81853" lon="2.40801">
        <ele>62.7</ele>
        <time>2023-04-19T13:28:05Z</time>
      </trkpt>
      <trkpt lat="49.81854" lon="2.40799">
        <ele>62.6</ele>
        <time>2023-04-19T13:28:06Z</time>
      </trkpt>
      <trkpt lat="49.81855" lon="2.40798">
        <ele>62.6</ele>
        <time>2023-04-19T13:28:07Z</time>
      </trkpt>
      <trkpt lat="49.81856" lon="2.40796">
        <ele>62.5</ele>
        <time>2023-04-19T13:28:08Z</time>
      </trkpt>
      <trkpt lat="49.81857" lon="2.40793">
        <ele>62.5</ele>
        <time>2023-04-19T13:28:09Z</time>
      </trkpt>
      <trkpt lat="49.81858" lon="2.40792">
        <ele>62.4</ele>
        <time>2023-04-19T13:28:11Z</time>
      </trkpt>
      <trkpt lat="49.81859" lon="2.40791">
        <ele>62.4</ele>
        <time>2023-04-19T13:28:12Z</time>
      </trkpt>
      <trkpt lat="49.8186" lon="2.4079">
        <ele>62.3</ele>
        <time>2023-04-19T13:28:13Z</time>
      </trkpt>
      <trkpt lat="49.81861" lon="2.40789">
        <ele>62.3</ele>
        <time>2023-04-19T13:28:14Z</time>
      </trkpt>
      <trkpt lat="49.81862" lon="2.40788">
        <ele>62.3</ele>
        <time>2023-04-19T13:28:15Z</time>
      </trkpt>
      <trkpt lat="49.81864" lon="2.40786">
        <ele>62.2</ele>
        <time>2023-04-19T13:28:16Z</time>
      </trkpt>
      <trkpt lat="49.81864" lon="2.40786">
        <ele>62.1</ele>
        <time>2023-04-19T13:28:17Z</time>
      </trkpt>
      <trkpt lat="49.81865" lon="2.40785">
        <ele>62.1</ele>
        <time>2023-04-19T13:28:18Z</time>
      </trkpt>
      <trkpt lat="49.81866" lon="2.40784">
        <ele>62</ele>
        <time>2023-04-19T13:28:19Z</time>
      </trkpt>
      <trkpt lat="49.81868" lon="2.40782">
        <ele>62</ele>
        <time>2023-04-19T13:28:20Z</time>
      </trkpt>
      <trkpt lat="49.81869" lon="2.40782">
        <ele>62</ele>
        <time>2023-04-19T13:28:22Z</time>
      </trkpt>
      <trkpt lat="49.8187" lon="2.40782">
        <ele>61.9</ele>
        <time>2023-04-19T13:28:23Z</time>
      </trkpt>
      <trkpt lat="49.81871" lon="2.40783">
        <ele>61.8</ele>
        <time>2023-04-19T13:28:24Z</time>
      </trkpt>
      <trkpt lat="49.81872" lon="2.40783">
        <ele>61.8</ele>
        <time>2023-04-19T13:28:25Z</time>
      </trkpt>
      <trkpt lat="49.81873" lon="2.40782">
        <ele>61.8</ele>
        <time>2023-04-19T13:28:26Z</time>
      </trkpt>
      <trkpt lat="49.81873" lon="2.40781">
        <ele>61.7</ele>
        <time>2023-04-19T13:28:27Z</time>
      </trkpt>
      <trkpt lat="49.81874" lon="2.4078">
        <ele>61.7</ele>
        <time>2023-04-19T13:28:28Z</time>
      </trkpt>
      <trkpt lat="49.81876" lon="2.40778">
        <ele>61.6</ele>
        <time>2023-04-19T13:28:30Z</time>
      </trkpt>
      <trkpt lat="49.81877" lon="2.40777">
        <ele>61.5</ele>
        <time>2023-04-19T13:28:31Z</time>
      </trkpt>
      <trkpt lat="49.81878" lon="2.40774">
        <ele>61.5</ele>
        <time>2023-04-19T13:28:32Z</time>
      </trkpt>
      <trkpt lat="49.81879" lon="2.40773">
        <ele>61.4</ele>
        <time>2023-04-19T13:28:33Z</time>
      </trkpt>
      <trkpt lat="49.81879" lon="2.40773">
        <ele>61.4</ele>
        <time>2023-04-19T13:28:34Z</time>
      </trkpt>
      <trkpt lat="49.8188" lon="2.40771">
        <ele>61.3</ele>
        <time>2023-04-19T13:28:35Z</time>
      </trkpt>
      <trkpt lat="49.81881" lon="2.40769">
        <ele>61.3</ele>
        <time>2023-04-19T13:28:36Z</time>
      </trkpt>
      <trkpt lat="49.81882" lon="2.40768">
        <ele>61.2</ele>
        <time>2023-04-19T13:28:37Z</time>
      </trkpt>
      <trkpt lat="49.81882" lon="2.40767">
        <ele>61.2</ele>
        <time>2023-04-19T13:28:39Z</time>
      </trkpt>
      <trkpt lat="49.81883" lon="2.40765">
        <ele>61.1</ele>
        <time>2023-04-19T13:28:40Z</time>
      </trkpt>
      <trkpt lat="49.81885" lon="2.40763">
        <ele>61</ele>
        <time>2023-04-19T13:28:41Z</time>
      </trkpt>
      <trkpt lat="49.81885" lon="2.40763">
        <ele>61</ele>
        <time>2023-04-19T13:28:42Z</time>
      </trkpt>
      <trkpt lat="49.81886" lon="2.40762">
        <ele>61</ele>
        <time>2023-04-19T13:28:43Z</time>
      </trkpt>
      <trkpt lat="49.81887" lon="2.40761">
        <ele>60.9</ele>
        <time>2023-04-19T13:28:44Z</time>
      </trkpt>
      <trkpt lat="49.81888" lon="2.4076">
        <ele>60.9</ele>
        <time>2023-04-19T13:28:45Z</time>
      </trkpt>
      <trkpt lat="49.81889" lon="2.40759">
        <ele>60.8</ele>
        <time>2023-04-19T13:28:46Z</time>
      </trkpt>
      <trkpt lat="49.8189" lon="2.40757">
        <ele>60.7</ele>
        <time>2023-04-19T13:28:48Z</time>
      </trkpt>
      <trkpt lat="49.81891" lon="2.40756">
        <ele>60.7</ele>
        <time>2023-04-19T13:28:49Z</time>
      </trkpt>
      <trkpt lat="49.81892" lon="2.40755">
        <ele>60.6</ele>
        <time>2023-04-19T13:28:50Z</time>
      </trkpt>
      <trkpt lat="49.81893" lon="2.40754">
        <ele>60.6</ele>
        <time>2023-04-19T13:28:51Z</time>
      </trkpt>
      <trkpt lat="49.81894" lon="2.40754">
        <ele>60.5</ele>
        <time>2023-04-19T13:28:52Z</time>
      </trkpt>
      <trkpt lat="49.81895" lon="2.40754">
        <ele>60.5</ele>
        <time>2023-04-19T13:28:53Z</time>
      </trkpt>
      <trkpt lat="49.81897" lon="2.40755">
        <ele>60.4</ele>
        <time>2023-04-19T13:28:54Z</time>
      </trkpt>
      <trkpt lat="49.81897" lon="2.40757">
        <ele>60.3</ele>
        <time>2023-04-19T13:28:55Z</time>
      </trkpt>
      <trkpt lat="49.81898" lon="2.40759">
        <ele>60.2</ele>
        <time>2023-04-19T13:28:57Z</time>
      </trkpt>
      <trkpt lat="49.81899" lon="2.40761">
        <ele>60.2</ele>
        <time>2023-04-19T13:28:58Z</time>
      </trkpt>
      <trkpt lat="49.819" lon="2.40763">
        <ele>60.1</ele>
        <time>2023-04-19T13:28:59Z</time>
      </trkpt>
      <trkpt lat="49.81901" lon="2.40765">
        <ele>60</ele>
        <time>2023-04-19T13:29:00Z</time>
      </trkpt>
      <trkpt lat="49.81901" lon="2.40767">
        <ele>59.9</ele>
        <time>2023-04-19T13:29:01Z</time>
      </trkpt>
      <trkpt lat="49.81902" lon="2.40769">
        <ele>59.9</ele>
        <time>2023-04-19T13:29:02Z</time>
      </trkpt>
      <trkpt lat="49.81903" lon="2.40771">
        <ele>59.8</ele>
        <time>2023-04-19T13:29:04Z</time>
      </trkpt>
      <trkpt lat="49.81904" lon="2.40773">
        <ele>59.7</ele>
        <time>2023-04-19T13:29:05Z</time>
      </trkpt>
      <trkpt lat="49.81904" lon="2.40775">
        <ele>59.7</ele>
        <time>2023-04-19T13:29:06Z</time>
      </trkpt>
      <trkpt lat="49.81905" lon="2.40778">
        <ele>59.5</ele>
        <time>2023-04-19T13:29:07Z</time>
      </trkpt>
      <trkpt lat="49.81905" lon="2.4078">
        <ele>59.5</ele>
        <time>2023-04-19T13:29:08Z</time>
      </trkpt>
      <trkpt lat="49.81906" lon="2.40781">
        <ele>59.5</ele>
        <time>2023-04-19T13:29:09Z</time>
      </trkpt>
      <trkpt lat="49.81906" lon="2.40782">
        <ele>59.4</ele>
        <time>2023-04-19T13:29:11Z</time>
      </trkpt>
      <trkpt lat="49.81906" lon="2.40784">
        <ele>59.4</ele>
        <time>2023-04-19T13:29:12Z</time>
      </trkpt>
      <trkpt lat="49.81906" lon="2.40786">
        <ele>59.3</ele>
        <time>2023-04-19T13:29:13Z</time>
      </trkpt>
      <trkpt lat="49.81907" lon="2.40787">
        <ele>59.3</ele>
        <time>2023-04-19T13:29:14Z</time>
      </trkpt>
      <trkpt lat="49.81907" lon="2.40789">
        <ele>59.2</ele>
        <time>2023-04-19T13:29:15Z</time>
      </trkpt>
      <trkpt lat="49.81907" lon="2.4079">
        <ele>59.2</ele>
        <time>2023-04-19T13:29:16Z</time>
      </trkpt>
      <trkpt lat="49.81908" lon="2.40792">
        <ele>59.1</ele>
        <time>2023-04-19T13:29:17Z</time>
      </trkpt>
      <trkpt lat="49.81909" lon="2.40794">
        <ele>59</ele>
        <time>2023-04-19T13:29:18Z</time>
      </trkpt>
      <trkpt lat="49.81909" lon="2.40796">
        <ele>59</ele>
        <time>2023-04-19T13:29:20Z</time>
      </trkpt>
      <trkpt lat="49.8191" lon="2.40797">
        <ele>58.9</ele>
        <time>2023-04-19T13:29:21Z</time>
      </trkpt>
      <trkpt lat="49.8191" lon="2.40799">
        <ele>58.9</ele>
        <time>2023-04-19T13:29:22Z</time>
      </trkpt>
      <trkpt lat="49.81911" lon="2.408">
        <ele>58.8</ele>
        <time>2023-04-19T13:29:23Z</time>
      </trkpt>
      <trkpt lat="49.81912" lon="2.40802">
        <ele>58.8</ele>
        <time>2023-04-19T13:29:24Z</time>
      </trkpt>
      <trkpt lat="49.81913" lon="2.40804">
        <ele>58.7</ele>
        <time>2023-04-19T13:29:25Z</time>
      </trkpt>
      <trkpt lat="49.81913" lon="2.40805">
        <ele>58.7</ele>
        <time>2023-04-19T13:29:26Z</time>
      </trkpt>
      <trkpt lat="49.81914" lon="2.40807">
        <ele>58.6</ele>
        <time>2023-04-19T13:29:28Z</time>
      </trkpt>
      <trkpt lat="49.81915" lon="2.40809">
        <ele>58.6</ele>
        <time>2023-04-19T13:29:29Z</time>
      </trkpt>
      <trkpt lat="49.81915" lon="2.40811">
        <ele>58.5</ele>
        <time>2023-04-19T13:29:30Z</time>
      </trkpt>
      <trkpt lat="49.81916" lon="2.40814">
        <ele>58.4</ele>
        <time>2023-04-19T13:29:31Z</time>
      </trkpt>
      <trkpt lat="49.81916" lon="2.40817">
        <ele>58.3</ele>
        <time>2023-04-19T13:29:32Z</time>
      </trkpt>
      <trkpt lat="49.81917" lon="2.40818">
        <ele>58.3</ele>
        <time>2023-04-19T13:29:33Z</time>
      </trkpt>
      <trkpt lat="49.81917" lon="2.40819">
        <ele>58.3</ele>
        <time>2023-04-19T13:29:34Z</time>
      </trkpt>
      <trkpt lat="49.81917" lon="2.40823">
        <ele>58.2</ele>
        <time>2023-04-19T13:29:36Z</time>
      </trkpt>
      <trkpt lat="49.81917" lon="2.40824">
        <ele>58.2</ele>
        <time>2023-04-19T13:29:37Z</time>
      </trkpt>
      <trkpt lat="49.81916" lon="2.40825">
        <ele>58.2</ele>
        <time>2023-04-19T13:29:38Z</time>
      </trkpt>
      <trkpt lat="49.81916" lon="2.40827">
        <ele>58.2</ele>
        <time>2023-04-19T13:29:39Z</time>
      </trkpt>
      <trkpt lat="49.81916" lon="2.40828">
        <ele>58.2</ele>
        <time>2023-04-19T13:29:40Z</time>
      </trkpt>
      <trkpt lat="49.81916" lon="2.40829">
        <ele>58.3</ele>
        <time>2023-04-19T13:29:41Z</time>
      </trkpt>
      <trkpt lat="49.81916" lon="2.4083">
        <ele>58.3</ele>
        <time>2023-04-19T13:29:42Z</time>
      </trkpt>
      <trkpt lat="49.81916" lon="2.40832">
        <ele>58.3</ele>
        <time>2023-04-19T13:29:43Z</time>
      </trkpt>
      <trkpt lat="49.81916" lon="2.40834">
        <ele>58.4</ele>
        <time>2023-04-19T13:29:45Z</time>
      </trkpt>
      <trkpt lat="49.81917" lon="2.40835">
        <ele>58.4</ele>
        <time>2023-04-19T13:29:46Z</time>
      </trkpt>
      <trkpt lat="49.81918" lon="2.40836">
        <ele>58.5</ele>
        <time>2023-04-19T13:29:47Z</time>
      </trkpt>
      <trkpt lat="49.81918" lon="2.40837">
        <ele>58.5</ele>
        <time>2023-04-19T13:29:48Z</time>
      </trkpt>
      <trkpt lat="49.81919" lon="2.40838">
        <ele>58.5</ele>
        <time>2023-04-19T13:29:49Z</time>
      </trkpt>
      <trkpt lat="49.8192" lon="2.4084">
        <ele>58.6</ele>
        <time>2023-04-19T13:29:50Z</time>
      </trkpt>
      <trkpt lat="49.81921" lon="2.40842">
        <ele>58.7</ele>
        <time>2023-04-19T13:29:51Z</time>
      </trkpt>
      <trkpt lat="49.81922" lon="2.40844">
        <ele>58.7</ele>
        <time>2023-04-19T13:29:52Z</time>
      </trkpt>
      <trkpt lat="49.81923" lon="2.40846">
        <ele>58.8</ele>
        <time>2023-04-19T13:29:53Z</time>
      </trkpt>
      <trkpt lat="49.81924" lon="2.40849">
        <ele>58.9</ele>
        <time>2023-04-19T13:29:55Z</time>
      </trkpt>
      <trkpt lat="49.81925" lon="2.4085">
        <ele>58.9</ele>
        <time>2023-04-19T13:29:56Z</time>
      </trkpt>
      <trkpt lat="49.81925" lon="2.40851">
        <ele>58.9</ele>
        <time>2023-04-19T13:29:57Z</time>
      </trkpt>
      <trkpt lat="49.81925" lon="2.40852">
        <ele>59</ele>
        <time>2023-04-19T13:29:58Z</time>
      </trkpt>
      <trkpt lat="49.81926" lon="2.40853">
        <ele>59</ele>
        <time>2023-04-19T13:29:59Z</time>
      </trkpt>
      <trkpt lat="49.81926" lon="2.40855">
        <ele>59</ele>
        <time>2023-04-19T13:30:01Z</time>
      </trkpt>
      <trkpt lat="49.81926" lon="2.40857">
        <ele>59.1</ele>
        <time>2023-04-19T13:30:02Z</time>
      </trkpt>
      <trkpt lat="49.81926" lon="2.40858">
        <ele>59.1</ele>
        <time>2023-04-19T13:30:03Z</time>
      </trkpt>
      <trkpt lat="49.81926" lon="2.40859">
        <ele>59.1</ele>
        <time>2023-04-19T13:30:04Z</time>
      </trkpt>
      <trkpt lat="49.81926" lon="2.4086">
        <ele>59.2</ele>
        <time>2023-04-19T13:30:05Z</time>
      </trkpt>
      <trkpt lat="49.81927" lon="2.40863">
        <ele>59.2</ele>
        <time>2023-04-19T13:30:06Z</time>
      </trkpt>
      <trkpt lat="49.81927" lon="2.40864">
        <ele>59.3</ele>
        <time>2023-04-19T13:30:08Z</time>
      </trkpt>
      <trkpt lat="49.81926" lon="2.40865">
        <ele>59.3</ele>
        <time>2023-04-19T13:30:09Z</time>
      </trkpt>
      <trkpt lat="49.81926" lon="2.40867">
        <ele>59.3</ele>
        <time>2023-04-19T13:30:10Z</time>
      </trkpt>
      <trkpt lat="49.81927" lon="2.40869">
        <ele>59.4</ele>
        <time>2023-04-19T13:30:11Z</time>
      </trkpt>
      <trkpt lat="49.81927" lon="2.4087">
        <ele>59.4</ele>
        <time>2023-04-19T13:30:12Z</time>
      </trkpt>
      <trkpt lat="49.81927" lon="2.40872">
        <ele>59.4</ele>
        <time>2023-04-19T13:30:13Z</time>
      </trkpt>
      <trkpt lat="49.81927" lon="2.40874">
        <ele>59.5</ele>
        <time>2023-04-19T13:30:14Z</time>
      </trkpt>
      <trkpt lat="49.81928" lon="2.40876">
        <ele>59.5</ele>
        <time>2023-04-19T13:30:16Z</time>
      </trkpt>
      <trkpt lat="49.81928" lon="2.40878">
        <ele>59.6</ele>
        <time>2023-04-19T13:30:17Z</time>
      </trkpt>
      <trkpt lat="49.81929" lon="2.40879">
        <ele>59.6</ele>
        <time>2023-04-19T13:30:18Z</time>
      </trkpt>
      <trkpt lat="49.81929" lon="2.4088">
        <ele>59.7</ele>
        <time>2023-04-19T13:30:19Z</time>
      </trkpt>
      <trkpt lat="49.8193" lon="2.40882">
        <ele>59.7</ele>
        <time>2023-04-19T13:30:20Z</time>
      </trkpt>
      <trkpt lat="49.81931" lon="2.40883">
        <ele>59.7</ele>
        <time>2023-04-19T13:30:22Z</time>
      </trkpt>
      <trkpt lat="49.81931" lon="2.40884">
        <ele>59.8</ele>
        <time>2023-04-19T13:30:23Z</time>
      </trkpt>
      <trkpt lat="49.81932" lon="2.40885">
        <ele>59.8</ele>
        <time>2023-04-19T13:30:24Z</time>
      </trkpt>
      <trkpt lat="49.81931" lon="2.40887">
        <ele>59.9</ele>
        <time>2023-04-19T13:30:25Z</time>
      </trkpt>
      <trkpt lat="49.81931" lon="2.40888">
        <ele>59.9</ele>
        <time>2023-04-19T13:30:26Z</time>
      </trkpt>
      <trkpt lat="49.81931" lon="2.4089">
        <ele>59.9</ele>
        <time>2023-04-19T13:30:27Z</time>
      </trkpt>
      <trkpt lat="49.81931" lon="2.40891">
        <ele>60</ele>
        <time>2023-04-19T13:30:28Z</time>
      </trkpt>
      <trkpt lat="49.81931" lon="2.40892">
        <ele>60</ele>
        <time>2023-04-19T13:30:30Z</time>
      </trkpt>
      <trkpt lat="49.81931" lon="2.40893">
        <ele>60</ele>
        <time>2023-04-19T13:30:31Z</time>
      </trkpt>
      <trkpt lat="49.81931" lon="2.40895">
        <ele>60.1</ele>
        <time>2023-04-19T13:30:32Z</time>
      </trkpt>
      <trkpt lat="49.81931" lon="2.40896">
        <ele>60.1</ele>
        <time>2023-04-19T13:30:33Z</time>
      </trkpt>
      <trkpt lat="49.81932" lon="2.40898">
        <ele>60.2</ele>
        <time>2023-04-19T13:30:34Z</time>
      </trkpt>
      <trkpt lat="49.81933" lon="2.40899">
        <ele>60.2</ele>
        <time>2023-04-19T13:30:35Z</time>
      </trkpt>
      <trkpt lat="49.81933" lon="2.409">
        <ele>60.2</ele>
        <time>2023-04-19T13:30:37Z</time>
      </trkpt>
      <trkpt lat="49.81934" lon="2.40901">
        <ele>60.2</ele>
        <time>2023-04-19T13:30:38Z</time>
      </trkpt>
      <trkpt lat="49.81934" lon="2.40904">
        <ele>60.3</ele>
        <time>2023-04-19T13:30:39Z</time>
      </trkpt>
      <trkpt lat="49.81934" lon="2.40905">
        <ele>60.3</ele>
        <time>2023-04-19T13:30:40Z</time>
      </trkpt>
      <trkpt lat="49.81934" lon="2.40906">
        <ele>60.4</ele>
        <time>2023-04-19T13:30:41Z</time>
      </trkpt>
      <trkpt lat="49.81935" lon="2.40908">
        <ele>60.4</ele>
        <time>2023-04-19T13:30:42Z</time>
      </trkpt>
      <trkpt lat="49.81936" lon="2.40911">
        <ele>60.5</ele>
        <time>2023-04-19T13:30:43Z</time>
      </trkpt>
      <trkpt lat="49.81936" lon="2.40912">
        <ele>60.5</ele>
        <time>2023-04-19T13:30:44Z</time>
      </trkpt>
      <trkpt lat="49.81936" lon="2.40914">
        <ele>60.5</ele>
        <time>2023-04-19T13:30:46Z</time>
      </trkpt>
      <trkpt lat="49.81936" lon="2.40915">
        <ele>60.6</ele>
        <time>2023-04-19T13:30:47Z</time>
      </trkpt>
      <trkpt lat="49.81937" lon="2.40918">
        <ele>60.6</ele>
        <time>2023-04-19T13:30:48Z</time>
      </trkpt>
      <trkpt lat="49.81937" lon="2.40919">
        <ele>60.6</ele>
        <time>2023-04-19T13:30:49Z</time>
      </trkpt>
      <trkpt lat="49.81938" lon="2.4092">
        <ele>60.6</ele>
        <time>2023-04-19T13:30:50Z</time>
      </trkpt>
      <trkpt lat="49.81939" lon="2.40923">
        <ele>60.7</ele>
        <time>2023-04-19T13:30:51Z</time>
      </trkpt>
      <trkpt lat="49.81939" lon="2.40924">
        <ele>60.7</ele>
        <time>2023-04-19T13:30:52Z</time>
      </trkpt>
      <trkpt lat="49.81939" lon="2.40925">
        <ele>60.7</ele>
        <time>2023-04-19T13:30:53Z</time>
      </trkpt>
      <trkpt lat="49.8194" lon="2.40927">
        <ele>60.8</ele>
        <time>2023-04-19T13:30:55Z</time>
      </trkpt>
      <trkpt lat="49.8194" lon="2.40928">
        <ele>60.8</ele>
        <time>2023-04-19T13:30:56Z</time>
      </trkpt>
      <trkpt lat="49.8194" lon="2.4093">
        <ele>60.8</ele>
        <time>2023-04-19T13:30:57Z</time>
      </trkpt>
      <trkpt lat="49.81941" lon="2.40932">
        <ele>60.9</ele>
        <time>2023-04-19T13:30:58Z</time>
      </trkpt>
      <trkpt lat="49.81942" lon="2.40934">
        <ele>60.9</ele>
        <time>2023-04-19T13:30:59Z</time>
      </trkpt>
      <trkpt lat="49.81942" lon="2.40935">
        <ele>60.9</ele>
        <time>2023-04-19T13:31:00Z</time>
      </trkpt>
      <trkpt lat="49.81943" lon="2.40937">
        <ele>60.9</ele>
        <time>2023-04-19T13:31:01Z</time>
      </trkpt>
      <trkpt lat="49.81943" lon="2.40939">
        <ele>60.9</ele>
        <time>2023-04-19T13:31:02Z</time>
      </trkpt>
      <trkpt lat="49.81944" lon="2.40942">
        <ele>61</ele>
        <time>2023-04-19T13:31:04Z</time>
      </trkpt>
      <trkpt lat="49.81944" lon="2.40943">
        <ele>61</ele>
        <time>2023-04-19T13:31:05Z</time>
      </trkpt>
      <trkpt lat="49.81945" lon="2.40944">
        <ele>61</ele>
        <time>2023-04-19T13:31:06Z</time>
      </trkpt>
      <trkpt lat="49.81945" lon="2.40946">
        <ele>61</ele>
        <time>2023-04-19T13:31:07Z</time>
      </trkpt>
      <trkpt lat="49.81945" lon="2.40947">
        <ele>61.1</ele>
        <time>2023-04-19T13:31:08Z</time>
      </trkpt>
      <trkpt lat="49.81946" lon="2.40949">
        <ele>61.1</ele>
        <time>2023-04-19T13:31:09Z</time>
      </trkpt>
      <trkpt lat="49.81946" lon="2.40953">
        <ele>61.1</ele>
        <time>2023-04-19T13:31:11Z</time>
      </trkpt>
      <trkpt lat="49.81946" lon="2.40954">
        <ele>61.2</ele>
        <time>2023-04-19T13:31:12Z</time>
      </trkpt>
      <trkpt lat="49.81947" lon="2.40955">
        <ele>61.2</ele>
        <time>2023-04-19T13:31:13Z</time>
      </trkpt>
      <trkpt lat="49.81947" lon="2.40957">
        <ele>61.2</ele>
        <time>2023-04-19T13:31:14Z</time>
      </trkpt>
      <trkpt lat="49.81947" lon="2.40959">
        <ele>61.2</ele>
        <time>2023-04-19T13:31:15Z</time>
      </trkpt>
      <trkpt lat="49.81947" lon="2.4096">
        <ele>61.2</ele>
        <time>2023-04-19T13:31:16Z</time>
      </trkpt>
      <trkpt lat="49.81948" lon="2.40962">
        <ele>61.3</ele>
        <time>2023-04-19T13:31:17Z</time>
      </trkpt>
      <trkpt lat="49.81948" lon="2.40964">
        <ele>61.3</ele>
        <time>2023-04-19T13:31:18Z</time>
      </trkpt>
      <trkpt lat="49.81949" lon="2.40966">
        <ele>61.3</ele>
        <time>2023-04-19T13:31:20Z</time>
      </trkpt>
      <trkpt lat="49.8195" lon="2.40969">
        <ele>61.3</ele>
        <time>2023-04-19T13:31:21Z</time>
      </trkpt>
      <trkpt lat="49.8195" lon="2.4097">
        <ele>61.3</ele>
        <time>2023-04-19T13:31:22Z</time>
      </trkpt>
      <trkpt lat="49.8195" lon="2.40971">
        <ele>61.4</ele>
        <time>2023-04-19T13:31:23Z</time>
      </trkpt>
      <trkpt lat="49.81951" lon="2.40973">
        <ele>61.4</ele>
        <time>2023-04-19T13:31:24Z</time>
      </trkpt>
      <trkpt lat="49.81951" lon="2.40976">
        <ele>61.4</ele>
        <time>2023-04-19T13:31:26Z</time>
      </trkpt>
      <trkpt lat="49.81952" lon="2.40978">
        <ele>61.4</ele>
        <time>2023-04-19T13:31:27Z</time>
      </trkpt>
      <trkpt lat="49.81952" lon="2.40979">
        <ele>61.4</ele>
        <time>2023-04-19T13:31:28Z</time>
      </trkpt>
      <trkpt lat="49.81953" lon="2.40981">
        <ele>61.5</ele>
        <time>2023-04-19T13:31:29Z</time>
      </trkpt>
      <trkpt lat="49.81953" lon="2.40983">
        <ele>61.5</ele>
        <time>2023-04-19T13:31:30Z</time>
      </trkpt>
      <trkpt lat="49.81954" lon="2.40984">
        <ele>61.5</ele>
        <time>2023-04-19T13:31:31Z</time>
      </trkpt>
      <trkpt lat="49.81955" lon="2.40986">
        <ele>61.5</ele>
        <time>2023-04-19T13:31:33Z</time>
      </trkpt>
      <trkpt lat="49.81955" lon="2.4099">
        <ele>61.5</ele>
        <time>2023-04-19T13:31:34Z</time>
      </trkpt>
      <trkpt lat="49.81955" lon="2.40991">
        <ele>61.5</ele>
        <time>2023-04-19T13:31:35Z</time>
      </trkpt>
      <trkpt lat="49.81956" lon="2.40992">
        <ele>61.6</ele>
        <time>2023-04-19T13:31:36Z</time>
      </trkpt>
      <trkpt lat="49.81956" lon="2.40995">
        <ele>61.6</ele>
        <time>2023-04-19T13:31:37Z</time>
      </trkpt>
      <trkpt lat="49.81957" lon="2.40996">
        <ele>61.6</ele>
        <time>2023-04-19T13:31:38Z</time>
      </trkpt>
      <trkpt lat="49.81957" lon="2.40997">
        <ele>61.6</ele>
        <time>2023-04-19T13:31:39Z</time>
      </trkpt>
      <trkpt lat="49.81957" lon="2.40999">
        <ele>61.6</ele>
        <time>2023-04-19T13:31:41Z</time>
      </trkpt>
      <trkpt lat="49.81958" lon="2.41">
        <ele>61.6</ele>
        <time>2023-04-19T13:31:42Z</time>
      </trkpt>
      <trkpt lat="49.81958" lon="2.41002">
        <ele>61.6</ele>
        <time>2023-04-19T13:31:43Z</time>
      </trkpt>
      <trkpt lat="49.81958" lon="2.41004">
        <ele>61.7</ele>
        <time>2023-04-19T13:31:44Z</time>
      </trkpt>
      <trkpt lat="49.81959" lon="2.41005">
        <ele>61.7</ele>
        <time>2023-04-19T13:31:45Z</time>
      </trkpt>
      <trkpt lat="49.81959" lon="2.41007">
        <ele>61.7</ele>
        <time>2023-04-19T13:31:46Z</time>
      </trkpt>
      <trkpt lat="49.8196" lon="2.41008">
        <ele>61.7</ele>
        <time>2023-04-19T13:31:47Z</time>
      </trkpt>
      <trkpt lat="49.81961" lon="2.4101">
        <ele>61.7</ele>
        <time>2023-04-19T13:31:48Z</time>
      </trkpt>
      <trkpt lat="49.81961" lon="2.41012">
        <ele>61.7</ele>
        <time>2023-04-19T13:31:50Z</time>
      </trkpt>
      <trkpt lat="49.81962" lon="2.41012">
        <ele>61.8</ele>
        <time>2023-04-19T13:31:51Z</time>
      </trkpt>
      <trkpt lat="49.81963" lon="2.41014">
        <ele>61.8</ele>
        <time>2023-04-19T13:31:52Z</time>
      </trkpt>
      <trkpt lat="49.81963" lon="2.41015">
        <ele>61.8</ele>
        <time>2023-04-19T13:31:53Z</time>
      </trkpt>
      <trkpt lat="49.81964" lon="2.41017">
        <ele>61.8</ele>
        <time>2023-04-19T13:31:54Z</time>
      </trkpt>
      <trkpt lat="49.81964" lon="2.41018">
        <ele>61.8</ele>
        <time>2023-04-19T13:31:55Z</time>
      </trkpt>
      <trkpt lat="49.81965" lon="2.41019">
        <ele>61.8</ele>
        <time>2023-04-19T13:31:56Z</time>
      </trkpt>
      <trkpt lat="49.81965" lon="2.41021">
        <ele>61.8</ele>
        <time>2023-04-19T13:31:57Z</time>
      </trkpt>
      <trkpt lat="49.81965" lon="2.41023">
        <ele>61.9</ele>
        <time>2023-04-19T13:31:59Z</time>
      </trkpt>
      <trkpt lat="49.81966" lon="2.41024">
        <ele>61.9</ele>
        <time>2023-04-19T13:32:00Z</time>
      </trkpt>
      <trkpt lat="49.81966" lon="2.41026">
        <ele>61.9</ele>
        <time>2023-04-19T13:32:01Z</time>
      </trkpt>
      <trkpt lat="49.81967" lon="2.41029">
        <ele>61.9</ele>
        <time>2023-04-19T13:32:02Z</time>
      </trkpt>
      <trkpt lat="49.81967" lon="2.4103">
        <ele>61.9</ele>
        <time>2023-04-19T13:32:03Z</time>
      </trkpt>
      <trkpt lat="49.81967" lon="2.41032">
        <ele>61.9</ele>
        <time>2023-04-19T13:32:04Z</time>
      </trkpt>
      <trkpt lat="49.81968" lon="2.41034">
        <ele>62</ele>
        <time>2023-04-19T13:32:05Z</time>
      </trkpt>
      <trkpt lat="49.81968" lon="2.41035">
        <ele>62</ele>
        <time>2023-04-19T13:32:06Z</time>
      </trkpt>
      <trkpt lat="49.81969" lon="2.41037">
        <ele>62</ele>
        <time>2023-04-19T13:32:08Z</time>
      </trkpt>
      <trkpt lat="49.81969" lon="2.41038">
        <ele>62</ele>
        <time>2023-04-19T13:32:09Z</time>
      </trkpt>
      <trkpt lat="49.8197" lon="2.4104">
        <ele>62</ele>
        <time>2023-04-19T13:32:10Z</time>
      </trkpt>
      <trkpt lat="49.8197" lon="2.41042">
        <ele>62</ele>
        <time>2023-04-19T13:32:11Z</time>
      </trkpt>
      <trkpt lat="49.81971" lon="2.41043">
        <ele>62</ele>
        <time>2023-04-19T13:32:12Z</time>
      </trkpt>
      <trkpt lat="49.81971" lon="2.41045">
        <ele>62.1</ele>
        <time>2023-04-19T13:32:13Z</time>
      </trkpt>
      <trkpt lat="49.81971" lon="2.41047">
        <ele>62.1</ele>
        <time>2023-04-19T13:32:14Z</time>
      </trkpt>
      <trkpt lat="49.81972" lon="2.41049">
        <ele>62.1</ele>
        <time>2023-04-19T13:32:16Z</time>
      </trkpt>
      <trkpt lat="49.81972" lon="2.41051">
        <ele>62.1</ele>
        <time>2023-04-19T13:32:17Z</time>
      </trkpt>
      <trkpt lat="49.81972" lon="2.41053">
        <ele>62.1</ele>
        <time>2023-04-19T13:32:18Z</time>
      </trkpt>
      <trkpt lat="49.81972" lon="2.41054">
        <ele>62.1</ele>
        <time>2023-04-19T13:32:19Z</time>
      </trkpt>
      <trkpt lat="49.81972" lon="2.41055">
        <ele>62.1</ele>
        <time>2023-04-19T13:32:20Z</time>
      </trkpt>
      <trkpt lat="49.81973" lon="2.41057">
        <ele>62.2</ele>
        <time>2023-04-19T13:32:21Z</time>
      </trkpt>
      <trkpt lat="49.81973" lon="2.41058">
        <ele>62.2</ele>
        <time>2023-04-19T13:32:23Z</time>
      </trkpt>
      <trkpt lat="49.81973" lon="2.4106">
        <ele>62.2</ele>
        <time>2023-04-19T13:32:24Z</time>
      </trkpt>
      <trkpt lat="49.81974" lon="2.41062">
        <ele>62.2</ele>
        <time>2023-04-19T13:32:25Z</time>
      </trkpt>
      <trkpt lat="49.81974" lon="2.41063">
        <ele>62.2</ele>
        <time>2023-04-19T13:32:26Z</time>
      </trkpt>
      <trkpt lat="49.81974" lon="2.41064">
        <ele>62.2</ele>
        <time>2023-04-19T13:32:27Z</time>
      </trkpt>
      <trkpt lat="49.81974" lon="2.41066">
        <ele>62.2</ele>
        <time>2023-04-19T13:32:28Z</time>
      </trkpt>
      <trkpt lat="49.81975" lon="2.41069">
        <ele>62.2</ele>
        <time>2023-04-19T13:32:29Z</time>
      </trkpt>
      <trkpt lat="49.81975" lon="2.4107">
        <ele>62.2</ele>
        <time>2023-04-19T13:32:30Z</time>
      </trkpt>
      <trkpt lat="49.81975" lon="2.41072">
        <ele>62.2</ele>
        <time>2023-04-19T13:32:32Z</time>
      </trkpt>
      <trkpt lat="49.81975" lon="2.41074">
        <ele>62.2</ele>
        <time>2023-04-19T13:32:33Z</time>
      </trkpt>
      <trkpt lat="49.81975" lon="2.41075">
        <ele>62.2</ele>
        <time>2023-04-19T13:32:34Z</time>
      </trkpt>
      <trkpt lat="49.81975" lon="2.41077">
        <ele>62.2</ele>
        <time>2023-04-19T13:32:35Z</time>
      </trkpt>
      <trkpt lat="49.81976" lon="2.41078">
        <ele>62.2</ele>
        <time>2023-04-19T13:32:36Z</time>
      </trkpt>
      <trkpt lat="49.81976" lon="2.4108">
        <ele>62.2</ele>
        <time>2023-04-19T13:32:37Z</time>
      </trkpt>
      <trkpt lat="49.81976" lon="2.41081">
        <ele>62.2</ele>
        <time>2023-04-19T13:32:38Z</time>
      </trkpt>
      <trkpt lat="49.81977" lon="2.41083">
        <ele>62.2</ele>
        <time>2023-04-19T13:32:39Z</time>
      </trkpt>
      <trkpt lat="49.81977" lon="2.41084">
        <ele>62.2</ele>
        <time>2023-04-19T13:32:40Z</time>
      </trkpt>
      <trkpt lat="49.81977" lon="2.41086">
        <ele>62.2</ele>
        <time>2023-04-19T13:32:41Z</time>
      </trkpt>
      <trkpt lat="49.81977" lon="2.41087">
        <ele>62.2</ele>
        <time>2023-04-19T13:32:42Z</time>
      </trkpt>
      <trkpt lat="49.81978" lon="2.41089">
        <ele>62.2</ele>
        <time>2023-04-19T13:32:44Z</time>
      </trkpt>
      <trkpt lat="49.81978" lon="2.4109">
        <ele>62.2</ele>
        <time>2023-04-19T13:32:45Z</time>
      </trkpt>
      <trkpt lat="49.81978" lon="2.41092">
        <ele>62.2</ele>
        <time>2023-04-19T13:32:46Z</time>
      </trkpt>
      <trkpt lat="49.81979" lon="2.41095">
        <ele>62.3</ele>
        <time>2023-04-19T13:32:47Z</time>
      </trkpt>
      <trkpt lat="49.81979" lon="2.41096">
        <ele>62.3</ele>
        <time>2023-04-19T13:32:48Z</time>
      </trkpt>
      <trkpt lat="49.8198" lon="2.41097">
        <ele>62.3</ele>
        <time>2023-04-19T13:32:49Z</time>
      </trkpt>
      <trkpt lat="49.8198" lon="2.41099">
        <ele>62.3</ele>
        <time>2023-04-19T13:32:50Z</time>
      </trkpt>
      <trkpt lat="49.81981" lon="2.41101">
        <ele>62.3</ele>
        <time>2023-04-19T13:32:51Z</time>
      </trkpt>
      <trkpt lat="49.81981" lon="2.41102">
        <ele>62.3</ele>
        <time>2023-04-19T13:32:53Z</time>
      </trkpt>
      <trkpt lat="49.81982" lon="2.41105">
        <ele>62.3</ele>
        <time>2023-04-19T13:32:54Z</time>
      </trkpt>
      <trkpt lat="49.81983" lon="2.41106">
        <ele>62.4</ele>
        <time>2023-04-19T13:32:55Z</time>
      </trkpt>
      <trkpt lat="49.81983" lon="2.41107">
        <ele>62.4</ele>
        <time>2023-04-19T13:32:56Z</time>
      </trkpt>
      <trkpt lat="49.81984" lon="2.4111">
        <ele>62.4</ele>
        <time>2023-04-19T13:32:57Z</time>
      </trkpt>
      <trkpt lat="49.81984" lon="2.41111">
        <ele>62.4</ele>
        <time>2023-04-19T13:32:58Z</time>
      </trkpt>
      <trkpt lat="49.81984" lon="2.41113">
        <ele>62.4</ele>
        <time>2023-04-19T13:32:59Z</time>
      </trkpt>
      <trkpt lat="49.81985" lon="2.41114">
        <ele>62.4</ele>
        <time>2023-04-19T13:33:00Z</time>
      </trkpt>
      <trkpt lat="49.81985" lon="2.41116">
        <ele>62.4</ele>
        <time>2023-04-19T13:33:02Z</time>
      </trkpt>
      <trkpt lat="49.81985" lon="2.41117">
        <ele>62.4</ele>
        <time>2023-04-19T13:33:03Z</time>
      </trkpt>
      <trkpt lat="49.81986" lon="2.41119">
        <ele>62.5</ele>
        <time>2023-04-19T13:33:04Z</time>
      </trkpt>
      <trkpt lat="49.81986" lon="2.41121">
        <ele>62.5</ele>
        <time>2023-04-19T13:33:05Z</time>
      </trkpt>
      <trkpt lat="49.81986" lon="2.41124">
        <ele>62.5</ele>
        <time>2023-04-19T13:33:06Z</time>
      </trkpt>
      <trkpt lat="49.81987" lon="2.41125">
        <ele>62.5</ele>
        <time>2023-04-19T13:33:07Z</time>
      </trkpt>
      <trkpt lat="49.81987" lon="2.41127">
        <ele>62.5</ele>
        <time>2023-04-19T13:33:08Z</time>
      </trkpt>
      <trkpt lat="49.81988" lon="2.41129">
        <ele>62.5</ele>
        <time>2023-04-19T13:33:10Z</time>
      </trkpt>
      <trkpt lat="49.81988" lon="2.4113">
        <ele>62.5</ele>
        <time>2023-04-19T13:33:11Z</time>
      </trkpt>
      <trkpt lat="49.81989" lon="2.41132">
        <ele>62.5</ele>
        <time>2023-04-19T13:33:12Z</time>
      </trkpt>
      <trkpt lat="49.81989" lon="2.41134">
        <ele>62.6</ele>
        <time>2023-04-19T13:33:13Z</time>
      </trkpt>
      <trkpt lat="49.81989" lon="2.41135">
        <ele>62.6</ele>
        <time>2023-04-19T13:33:14Z</time>
      </trkpt>
      <trkpt lat="49.81989" lon="2.41137">
        <ele>62.6</ele>
        <time>2023-04-19T13:33:15Z</time>
      </trkpt>
      <trkpt lat="49.81989" lon="2.41139">
        <ele>62.6</ele>
        <time>2023-04-19T13:33:16Z</time>
      </trkpt>
      <trkpt lat="49.8199" lon="2.4114">
        <ele>62.6</ele>
        <time>2023-04-19T13:33:17Z</time>
      </trkpt>
      <trkpt lat="49.8199" lon="2.41142">
        <ele>62.6</ele>
        <time>2023-04-19T13:33:19Z</time>
      </trkpt>
      <trkpt lat="49.8199" lon="2.41144">
        <ele>62.6</ele>
        <time>2023-04-19T13:33:20Z</time>
      </trkpt>
      <trkpt lat="49.81991" lon="2.41145">
        <ele>62.7</ele>
        <time>2023-04-19T13:33:21Z</time>
      </trkpt>
      <trkpt lat="49.81991" lon="2.41147">
        <ele>62.7</ele>
        <time>2023-04-19T13:33:22Z</time>
      </trkpt>
      <trkpt lat="49.81991" lon="2.4115">
        <ele>62.7</ele>
        <time>2023-04-19T13:33:24Z</time>
      </trkpt>
      <trkpt lat="49.81992" lon="2.41152">
        <ele>62.7</ele>
        <time>2023-04-19T13:33:25Z</time>
      </trkpt>
      <trkpt lat="49.81992" lon="2.41153">
        <ele>62.7</ele>
        <time>2023-04-19T13:33:26Z</time>
      </trkpt>
      <trkpt lat="49.81993" lon="2.41156">
        <ele>62.8</ele>
        <time>2023-04-19T13:33:27Z</time>
      </trkpt>
      <trkpt lat="49.81993" lon="2.41157">
        <ele>62.8</ele>
        <time>2023-04-19T13:33:28Z</time>
      </trkpt>
      <trkpt lat="49.81993" lon="2.41159">
        <ele>62.8</ele>
        <time>2023-04-19T13:33:30Z</time>
      </trkpt>
      <trkpt lat="49.81994" lon="2.41161">
        <ele>62.9</ele>
        <time>2023-04-19T13:33:31Z</time>
      </trkpt>
      <trkpt lat="49.81994" lon="2.41162">
        <ele>62.9</ele>
        <time>2023-04-19T13:33:32Z</time>
      </trkpt>
      <trkpt lat="49.81994" lon="2.41165">
        <ele>62.9</ele>
        <time>2023-04-19T13:33:33Z</time>
      </trkpt>
      <trkpt lat="49.81994" lon="2.41166">
        <ele>62.9</ele>
        <time>2023-04-19T13:33:34Z</time>
      </trkpt>
      <trkpt lat="49.81994" lon="2.41167">
        <ele>63</ele>
        <time>2023-04-19T13:33:35Z</time>
      </trkpt>
      <trkpt lat="49.81994" lon="2.41169">
        <ele>63</ele>
        <time>2023-04-19T13:33:36Z</time>
      </trkpt>
      <trkpt lat="49.81994" lon="2.4117">
        <ele>63</ele>
        <time>2023-04-19T13:33:38Z</time>
      </trkpt>
      <trkpt lat="49.81995" lon="2.41171">
        <ele>63</ele>
        <time>2023-04-19T13:33:39Z</time>
      </trkpt>
      <trkpt lat="49.81995" lon="2.41172">
        <ele>63</ele>
        <time>2023-04-19T13:33:40Z</time>
      </trkpt>
      <trkpt lat="49.81996" lon="2.41174">
        <ele>63.1</ele>
        <time>2023-04-19T13:33:41Z</time>
      </trkpt>
      <trkpt lat="49.81997" lon="2.41176">
        <ele>63.1</ele>
        <time>2023-04-19T13:33:42Z</time>
      </trkpt>
      <trkpt lat="49.81997" lon="2.41177">
        <ele>63.1</ele>
        <time>2023-04-19T13:33:43Z</time>
      </trkpt>
      <trkpt lat="49.81998" lon="2.41178">
        <ele>63.2</ele>
        <time>2023-04-19T13:33:45Z</time>
      </trkpt>
      <trkpt lat="49.81998" lon="2.4118">
        <ele>63.2</ele>
        <time>2023-04-19T13:33:46Z</time>
      </trkpt>
      <trkpt lat="49.81998" lon="2.41181">
        <ele>63.2</ele>
        <time>2023-04-19T13:33:47Z</time>
      </trkpt>
      <trkpt lat="49.81999" lon="2.41184">
        <ele>63.2</ele>
        <time>2023-04-19T13:33:48Z</time>
      </trkpt>
      <trkpt lat="49.81999" lon="2.41185">
        <ele>63.3</ele>
        <time>2023-04-19T13:33:49Z</time>
      </trkpt>
      <trkpt lat="49.81999" lon="2.41186">
        <ele>63.3</ele>
        <time>2023-04-19T13:33:50Z</time>
      </trkpt>
      <trkpt lat="49.82" lon="2.41188">
        <ele>63.3</ele>
        <time>2023-04-19T13:33:51Z</time>
      </trkpt>
      <trkpt lat="49.82" lon="2.4119">
        <ele>63.3</ele>
        <time>2023-04-19T13:33:52Z</time>
      </trkpt>
      <trkpt lat="49.82" lon="2.41191">
        <ele>63.3</ele>
        <time>2023-04-19T13:33:53Z</time>
      </trkpt>
      <trkpt lat="49.82" lon="2.41192">
        <ele>63.4</ele>
        <time>2023-04-19T13:33:55Z</time>
      </trkpt>
      <trkpt lat="49.82001" lon="2.41194">
        <ele>63.4</ele>
        <time>2023-04-19T13:33:56Z</time>
      </trkpt>
      <trkpt lat="49.82001" lon="2.41195">
        <ele>63.4</ele>
        <time>2023-04-19T13:33:57Z</time>
      </trkpt>
      <trkpt lat="49.82002" lon="2.41197">
        <ele>63.4</ele>
        <time>2023-04-19T13:33:58Z</time>
      </trkpt>
      <trkpt lat="49.82002" lon="2.41198">
        <ele>63.4</ele>
        <time>2023-04-19T13:33:59Z</time>
      </trkpt>
      <trkpt lat="49.82002" lon="2.41198">
        <ele>63.4</ele>
        <time>2023-04-19T13:34:00Z</time>
      </trkpt>
      <trkpt lat="49.82003" lon="2.41199">
        <ele>63.4</ele>
        <time>2023-04-19T13:34:01Z</time>
      </trkpt>
      <trkpt lat="49.82003" lon="2.41201">
        <ele>63.5</ele>
        <time>2023-04-19T13:34:03Z</time>
      </trkpt>
      <trkpt lat="49.82004" lon="2.41202">
        <ele>63.5</ele>
        <time>2023-04-19T13:34:04Z</time>
      </trkpt>
      <trkpt lat="49.82004" lon="2.41204">
        <ele>63.5</ele>
        <time>2023-04-19T13:34:05Z</time>
      </trkpt>
      <trkpt lat="49.82004" lon="2.41206">
        <ele>63.5</ele>
        <time>2023-04-19T13:34:06Z</time>
      </trkpt>
      <trkpt lat="49.82005" lon="2.41208">
        <ele>63.6</ele>
        <time>2023-04-19T13:34:07Z</time>
      </trkpt>
      <trkpt lat="49.82005" lon="2.41209">
        <ele>63.6</ele>
        <time>2023-04-19T13:34:08Z</time>
      </trkpt>
      <trkpt lat="49.82005" lon="2.41211">
        <ele>63.6</ele>
        <time>2023-04-19T13:34:10Z</time>
      </trkpt>
      <trkpt lat="49.82006" lon="2.41213">
        <ele>63.6</ele>
        <time>2023-04-19T13:34:11Z</time>
      </trkpt>
      <trkpt lat="49.82006" lon="2.41214">
        <ele>63.6</ele>
        <time>2023-04-19T13:34:12Z</time>
      </trkpt>
      <trkpt lat="49.82007" lon="2.41216">
        <ele>63.7</ele>
        <time>2023-04-19T13:34:13Z</time>
      </trkpt>
      <trkpt lat="49.82007" lon="2.41218">
        <ele>63.7</ele>
        <time>2023-04-19T13:34:14Z</time>
      </trkpt>
      <trkpt lat="49.82007" lon="2.4122">
        <ele>63.7</ele>
        <time>2023-04-19T13:34:15Z</time>
      </trkpt>
      <trkpt lat="49.82007" lon="2.41221">
        <ele>63.7</ele>
        <time>2023-04-19T13:34:17Z</time>
      </trkpt>
      <trkpt lat="49.82008" lon="2.41223">
        <ele>63.7</ele>
        <time>2023-04-19T13:34:18Z</time>
      </trkpt>
      <trkpt lat="49.82008" lon="2.41224">
        <ele>63.7</ele>
        <time>2023-04-19T13:34:19Z</time>
      </trkpt>
      <trkpt lat="49.82009" lon="2.41227">
        <ele>63.8</ele>
        <time>2023-04-19T13:34:20Z</time>
      </trkpt>
      <trkpt lat="49.82009" lon="2.41228">
        <ele>63.8</ele>
        <time>2023-04-19T13:34:21Z</time>
      </trkpt>
      <trkpt lat="49.82009" lon="2.4123">
        <ele>63.8</ele>
        <time>2023-04-19T13:34:22Z</time>
      </trkpt>
      <trkpt lat="49.8201" lon="2.41231">
        <ele>63.8</ele>
        <time>2023-04-19T13:34:23Z</time>
      </trkpt>
      <trkpt lat="49.8201" lon="2.41233">
        <ele>63.9</ele>
        <time>2023-04-19T13:34:24Z</time>
      </trkpt>
      <trkpt lat="49.8201" lon="2.41235">
        <ele>63.9</ele>
        <time>2023-04-19T13:34:26Z</time>
      </trkpt>
      <trkpt lat="49.82011" lon="2.41236">
        <ele>63.9</ele>
        <time>2023-04-19T13:34:27Z</time>
      </trkpt>
      <trkpt lat="49.82011" lon="2.41239">
        <ele>63.9</ele>
        <time>2023-04-19T13:34:28Z</time>
      </trkpt>
      <trkpt lat="49.82011" lon="2.4124">
        <ele>64</ele>
        <time>2023-04-19T13:34:29Z</time>
      </trkpt>
      <trkpt lat="49.82012" lon="2.41242">
        <ele>64</ele>
        <time>2023-04-19T13:34:30Z</time>
      </trkpt>
      <trkpt lat="49.82012" lon="2.41243">
        <ele>64</ele>
        <time>2023-04-19T13:34:31Z</time>
      </trkpt>
      <trkpt lat="49.82012" lon="2.41244">
        <ele>64</ele>
        <time>2023-04-19T13:34:32Z</time>
      </trkpt>
      <trkpt lat="49.82012" lon="2.41245">
        <ele>64</ele>
        <time>2023-04-19T13:34:33Z</time>
      </trkpt>
      <trkpt lat="49.82012" lon="2.41247">
        <ele>64.1</ele>
        <time>2023-04-19T13:34:34Z</time>
      </trkpt>
      <trkpt lat="49.82013" lon="2.41249">
        <ele>64.1</ele>
        <time>2023-04-19T13:34:36Z</time>
      </trkpt>
      <trkpt lat="49.82013" lon="2.4125">
        <ele>64.1</ele>
        <time>2023-04-19T13:34:37Z</time>
      </trkpt>
      <trkpt lat="49.82014" lon="2.41252">
        <ele>64.2</ele>
        <time>2023-04-19T13:34:38Z</time>
      </trkpt>
      <trkpt lat="49.82014" lon="2.41253">
        <ele>64.2</ele>
        <time>2023-04-19T13:34:39Z</time>
      </trkpt>
      <trkpt lat="49.82014" lon="2.41254">
        <ele>64.2</ele>
        <time>2023-04-19T13:34:40Z</time>
      </trkpt>
      <trkpt lat="49.82015" lon="2.41256">
        <ele>64.2</ele>
        <time>2023-04-19T13:34:41Z</time>
      </trkpt>
      <trkpt lat="49.82015" lon="2.41257">
        <ele>64.2</ele>
        <time>2023-04-19T13:34:42Z</time>
      </trkpt>
      <trkpt lat="49.82015" lon="2.41259">
        <ele>64.2</ele>
        <time>2023-04-19T13:34:43Z</time>
      </trkpt>
      <trkpt lat="49.82015" lon="2.41262">
        <ele>64.3</ele>
        <time>2023-04-19T13:34:45Z</time>
      </trkpt>
      <trkpt lat="49.82015" lon="2.41263">
        <ele>64.3</ele>
        <time>2023-04-19T13:34:46Z</time>
      </trkpt>
      <trkpt lat="49.82016" lon="2.41264">
        <ele>64.3</ele>
        <time>2023-04-19T13:34:47Z</time>
      </trkpt>
      <trkpt lat="49.82016" lon="2.41264">
        <ele>64.3</ele>
        <time>2023-04-19T13:34:48Z</time>
      </trkpt>
      <trkpt lat="49.82016" lon="2.41265">
        <ele>64.3</ele>
        <time>2023-04-19T13:34:49Z</time>
      </trkpt>
      <trkpt lat="49.82016" lon="2.41267">
        <ele>64.3</ele>
        <time>2023-04-19T13:34:50Z</time>
      </trkpt>
      <trkpt lat="49.82016" lon="2.4127">
        <ele>64.4</ele>
        <time>2023-04-19T13:34:51Z</time>
      </trkpt>
      <trkpt lat="49.82016" lon="2.41271">
        <ele>64.4</ele>
        <time>2023-04-19T13:34:52Z</time>
      </trkpt>
      <trkpt lat="49.82016" lon="2.41272">
        <ele>64.4</ele>
        <time>2023-04-19T13:34:53Z</time>
      </trkpt>
      <trkpt lat="49.82017" lon="2.41275">
        <ele>64.4</ele>
        <time>2023-04-19T13:34:55Z</time>
      </trkpt>
      <trkpt lat="49.82017" lon="2.41276">
        <ele>64.4</ele>
        <time>2023-04-19T13:34:56Z</time>
      </trkpt>
      <trkpt lat="49.82017" lon="2.41278">
        <ele>64.4</ele>
        <time>2023-04-19T13:34:57Z</time>
      </trkpt>
      <trkpt lat="49.82017" lon="2.4128">
        <ele>64.4</ele>
        <time>2023-04-19T13:34:58Z</time>
      </trkpt>
      <trkpt lat="49.82017" lon="2.41281">
        <ele>64.4</ele>
        <time>2023-04-19T13:34:59Z</time>
      </trkpt>
      <trkpt lat="49.82016" lon="2.41282">
        <ele>64.4</ele>
        <time>2023-04-19T13:35:00Z</time>
      </trkpt>
      <trkpt lat="49.82017" lon="2.41285">
        <ele>64.4</ele>
        <time>2023-04-19T13:35:01Z</time>
      </trkpt>
      <trkpt lat="49.82017" lon="2.41286">
        <ele>64.5</ele>
        <time>2023-04-19T13:35:03Z</time>
      </trkpt>
      <trkpt lat="49.82017" lon="2.41288">
        <ele>64.5</ele>
        <time>2023-04-19T13:35:04Z</time>
      </trkpt>
      <trkpt lat="49.82017" lon="2.41291">
        <ele>64.5</ele>
        <time>2023-04-19T13:35:05Z</time>
      </trkpt>
      <trkpt lat="49.82017" lon="2.41292">
        <ele>64.5</ele>
        <time>2023-04-19T13:35:06Z</time>
      </trkpt>
      <trkpt lat="49.82017" lon="2.41293">
        <ele>64.5</ele>
        <time>2023-04-19T13:35:07Z</time>
      </trkpt>
      <trkpt lat="49.82017" lon="2.41298">
        <ele>64.5</ele>
        <time>2023-04-19T13:35:09Z</time>
      </trkpt>
      <trkpt lat="49.82018" lon="2.413">
        <ele>64.5</ele>
        <time>2023-04-19T13:35:10Z</time>
      </trkpt>
      <trkpt lat="49.82018" lon="2.41301">
        <ele>64.5</ele>
        <time>2023-04-19T13:35:11Z</time>
      </trkpt>
      <trkpt lat="49.82018" lon="2.41303">
        <ele>64.5</ele>
        <time>2023-04-19T13:35:12Z</time>
      </trkpt>
      <trkpt lat="49.82018" lon="2.41305">
        <ele>64.5</ele>
        <time>2023-04-19T13:35:13Z</time>
      </trkpt>
      <trkpt lat="49.82018" lon="2.41308">
        <ele>64.5</ele>
        <time>2023-04-19T13:35:15Z</time>
      </trkpt>
      <trkpt lat="49.82018" lon="2.41309">
        <ele>64.5</ele>
        <time>2023-04-19T13:35:16Z</time>
      </trkpt>
      <trkpt lat="49.82017" lon="2.4131">
        <ele>64.5</ele>
        <time>2023-04-19T13:35:17Z</time>
      </trkpt>
      <trkpt lat="49.82017" lon="2.41312">
        <ele>64.5</ele>
        <time>2023-04-19T13:35:19Z</time>
      </trkpt>
      <trkpt lat="49.82016" lon="2.41313">
        <ele>64.5</ele>
        <time>2023-04-19T13:35:20Z</time>
      </trkpt>
      <trkpt lat="49.82015" lon="2.41313">
        <ele>64.5</ele>
        <time>2023-04-19T13:35:22Z</time>
      </trkpt>
      <trkpt lat="49.82015" lon="2.41312">
        <ele>64.5</ele>
        <time>2023-04-19T13:35:23Z</time>
      </trkpt>
      <trkpt lat="49.82014" lon="2.4131">
        <ele>64.6</ele>
        <time>2023-04-19T13:35:25Z</time>
      </trkpt>
      <trkpt lat="49.82014" lon="2.41309">
        <ele>64.6</ele>
        <time>2023-04-19T13:35:26Z</time>
      </trkpt>
      <trkpt lat="49.82014" lon="2.41308">
        <ele>64.6</ele>
        <time>2023-04-19T13:35:27Z</time>
      </trkpt>
      <trkpt lat="49.82014" lon="2.41308">
        <ele>64.6</ele>
        <time>2023-04-19T13:35:29Z</time>
      </trkpt>
      <trkpt lat="49.82015" lon="2.41307">
        <ele>64.6</ele>
        <time>2023-04-19T13:35:30Z</time>
      </trkpt>
      <trkpt lat="49.82015" lon="2.41307">
        <ele>64.6</ele>
        <time>2023-04-19T13:35:32Z</time>
      </trkpt>
      <trkpt lat="49.82015" lon="2.41307">
        <ele>64.6</ele>
        <time>2023-04-19T13:35:33Z</time>
      </trkpt>
      <trkpt lat="49.82015" lon="2.41306">
        <ele>64.6</ele>
        <time>2023-04-19T13:35:34Z</time>
      </trkpt>
      <trkpt lat="49.82015" lon="2.41306">
        <ele>64.6</ele>
        <time>2023-04-19T13:35:35Z</time>
      </trkpt>
      <trkpt lat="49.82015" lon="2.41306">
        <ele>64.6</ele>
        <time>2023-04-19T13:35:37Z</time>
      </trkpt>
      <trkpt lat="49.82015" lon="2.41306">
        <ele>64.6</ele>
        <time>2023-04-19T13:35:38Z</time>
      </trkpt>
      <trkpt lat="49.82015" lon="2.41306">
        <ele>64.6</ele>
        <time>2023-04-19T13:35:40Z</time>
      </trkpt>
      <trkpt lat="49.82015" lon="2.41307">
        <ele>64.6</ele>
        <time>2023-04-19T13:35:41Z</time>
      </trkpt>
      <trkpt lat="49.82015" lon="2.41307">
        <ele>64.6</ele>
        <time>2023-04-19T13:35:42Z</time>
      </trkpt>
      <trkpt lat="49.82015" lon="2.41308">
        <ele>64.6</ele>
        <time>2023-04-19T13:35:43Z</time>
      </trkpt>
      <trkpt lat="49.82016" lon="2.41309">
        <ele>64.6</ele>
        <time>2023-04-19T13:35:45Z</time>
      </trkpt>
      <trkpt lat="49.82016" lon="2.41311">
        <ele>64.6</ele>
        <time>2023-04-19T13:35:46Z</time>
      </trkpt>
      <trkpt lat="49.82017" lon="2.41312">
        <ele>64.6</ele>
        <time>2023-04-19T13:35:47Z</time>
      </trkpt>
      <trkpt lat="49.82017" lon="2.41311">
        <ele>64.6</ele>
        <time>2023-04-19T13:35:48Z</time>
      </trkpt>
      <trkpt lat="49.82017" lon="2.41311">
        <ele>64.6</ele>
        <time>2023-04-19T13:35:49Z</time>
      </trkpt>
      <trkpt lat="49.82017" lon="2.41311">
        <ele>64.6</ele>
        <time>2023-04-19T13:35:51Z</time>
      </trkpt>
      <trkpt lat="49.82017" lon="2.41311">
        <ele>64.6</ele>
        <time>2023-04-19T13:35:52Z</time>
      </trkpt>
      <trkpt lat="49.82017" lon="2.4131">
        <ele>64.6</ele>
        <time>2023-04-19T13:35:53Z</time>
      </trkpt>
      <trkpt lat="49.82018" lon="2.4131">
        <ele>64.6</ele>
        <time>2023-04-19T13:35:55Z</time>
      </trkpt>
      <trkpt lat="49.82018" lon="2.4131">
        <ele>64.6</ele>
        <time>2023-04-19T13:35:56Z</time>
      </trkpt>
      <trkpt lat="49.82018" lon="2.4131">
        <ele>64.6</ele>
        <time>2023-04-19T13:35:57Z</time>
      </trkpt>
      <trkpt lat="49.82018" lon="2.41309">
        <ele>64.6</ele>
        <time>2023-04-19T13:35:59Z</time>
      </trkpt>
      <trkpt lat="49.82018" lon="2.41309">
        <ele>64.6</ele>
        <time>2023-04-19T13:36:00Z</time>
      </trkpt>
      <trkpt lat="49.82019" lon="2.41309">
        <ele>64.6</ele>
        <time>2023-04-19T13:36:02Z</time>
      </trkpt>
      <trkpt lat="49.82019" lon="2.41309">
        <ele>64.7</ele>
        <time>2023-04-19T13:36:03Z</time>
      </trkpt>
      <trkpt lat="49.82019" lon="2.41308">
        <ele>64.7</ele>
        <time>2023-04-19T13:36:04Z</time>
      </trkpt>
      <trkpt lat="49.82019" lon="2.41308">
        <ele>64.7</ele>
        <time>2023-04-19T13:36:06Z</time>
      </trkpt>
      <trkpt lat="49.82019" lon="2.41308">
        <ele>64.7</ele>
        <time>2023-04-19T13:36:07Z</time>
      </trkpt>
      <trkpt lat="49.8202" lon="2.41306">
        <ele>64.7</ele>
        <time>2023-04-19T13:36:08Z</time>
      </trkpt>
      <trkpt lat="49.8202" lon="2.41306">
        <ele>64.7</ele>
        <time>2023-04-19T13:36:09Z</time>
      </trkpt>
      <trkpt lat="49.8202" lon="2.41306">
        <ele>64.7</ele>
        <time>2023-04-19T13:36:10Z</time>
      </trkpt>
      <trkpt lat="49.82019" lon="2.41307">
        <ele>64.7</ele>
        <time>2023-04-19T13:36:11Z</time>
      </trkpt>
      <trkpt lat="49.82019" lon="2.41307">
        <ele>64.7</ele>
        <time>2023-04-19T13:36:12Z</time>
      </trkpt>
      <trkpt lat="49.82019" lon="2.41307">
        <ele>64.7</ele>
        <time>2023-04-19T13:36:13Z</time>
      </trkpt>
      <trkpt lat="49.82019" lon="2.41308">
        <ele>64.7</ele>
        <time>2023-04-19T13:36:14Z</time>
      </trkpt>
      <trkpt lat="49.82019" lon="2.41308">
        <ele>64.7</ele>
        <time>2023-04-19T13:36:15Z</time>
      </trkpt>
      <trkpt lat="49.82019" lon="2.41308">
        <ele>64.7</ele>
        <time>2023-04-19T13:36:16Z</time>
      </trkpt>
      <trkpt lat="49.82019" lon="2.41308">
        <ele>64.7</ele>
        <time>2023-04-19T13:36:17Z</time>
      </trkpt>
      <trkpt lat="49.82019" lon="2.4131">
        <ele>64.7</ele>
        <time>2023-04-19T13:36:19Z</time>
      </trkpt>
      <trkpt lat="49.82019" lon="2.4131">
        <ele>64.7</ele>
        <time>2023-04-19T13:36:20Z</time>
      </trkpt>
      <trkpt lat="49.82019" lon="2.41311">
        <ele>64.7</ele>
        <time>2023-04-19T13:36:22Z</time>
      </trkpt>
      <trkpt lat="49.82019" lon="2.41311">
        <ele>64.7</ele>
        <time>2023-04-19T13:36:23Z</time>
      </trkpt>
      <trkpt lat="49.82019" lon="2.41312">
        <ele>64.7</ele>
        <time>2023-04-19T13:36:24Z</time>
      </trkpt>
      <trkpt lat="49.82019" lon="2.41313">
        <ele>64.7</ele>
        <time>2023-04-19T13:36:26Z</time>
      </trkpt>
      <trkpt lat="49.82019" lon="2.41314">
        <ele>64.7</ele>
        <time>2023-04-19T13:36:27Z</time>
      </trkpt>
      <trkpt lat="49.82019" lon="2.41313">
        <ele>64.7</ele>
        <time>2023-04-19T13:36:28Z</time>
      </trkpt>
      <trkpt lat="49.8202" lon="2.41312">
        <ele>64.7</ele>
        <time>2023-04-19T13:36:30Z</time>
      </trkpt>
      <trkpt lat="49.8202" lon="2.41311">
        <ele>64.7</ele>
        <time>2023-04-19T13:36:31Z</time>
      </trkpt>
      <trkpt lat="49.8202" lon="2.41311">
        <ele>64.8</ele>
        <time>2023-04-19T13:36:33Z</time>
      </trkpt>
      <trkpt lat="49.82021" lon="2.41311">
        <ele>64.8</ele>
        <time>2023-04-19T13:36:34Z</time>
      </trkpt>
      <trkpt lat="49.82021" lon="2.4131">
        <ele>64.8</ele>
        <time>2023-04-19T13:36:35Z</time>
      </trkpt>
      <trkpt lat="49.82021" lon="2.4131">
        <ele>64.8</ele>
        <time>2023-04-19T13:36:37Z</time>
      </trkpt>
      <trkpt lat="49.82021" lon="2.4131">
        <ele>64.8</ele>
        <time>2023-04-19T13:36:38Z</time>
      </trkpt>
      <trkpt lat="49.82021" lon="2.4131">
        <ele>64.8</ele>
        <time>2023-04-19T13:36:40Z</time>
      </trkpt>
      <trkpt lat="49.82021" lon="2.41309">
        <ele>64.8</ele>
        <time>2023-04-19T13:36:41Z</time>
      </trkpt>
      <trkpt lat="49.82021" lon="2.41308">
        <ele>64.8</ele>
        <time>2023-04-19T13:36:42Z</time>
      </trkpt>
      <trkpt lat="49.82021" lon="2.41308">
        <ele>64.8</ele>
        <time>2023-04-19T13:36:43Z</time>
      </trkpt>
      <trkpt lat="49.82021" lon="2.41308">
        <ele>64.8</ele>
        <time>2023-04-19T13:36:44Z</time>
      </trkpt>
      <trkpt lat="49.82021" lon="2.41308">
        <ele>64.8</ele>
        <time>2023-04-19T13:36:45Z</time>
      </trkpt>
      <trkpt lat="49.82021" lon="2.41308">
        <ele>64.8</ele>
        <time>2023-04-19T13:36:46Z</time>
      </trkpt>
      <trkpt lat="49.82021" lon="2.41308">
        <ele>64.8</ele>
        <time>2023-04-19T13:36:47Z</time>
      </trkpt>
      <trkpt lat="49.82021" lon="2.41308">
        <ele>64.8</ele>
        <time>2023-04-19T13:36:48Z</time>
      </trkpt>
      <trkpt lat="49.82021" lon="2.41308">
        <ele>64.8</ele>
        <time>2023-04-19T13:36:49Z</time>
      </trkpt>
      <trkpt lat="49.82021" lon="2.41308">
        <ele>64.8</ele>
        <time>2023-04-19T13:36:50Z</time>
      </trkpt>
      <trkpt lat="49.82021" lon="2.41308">
        <ele>64.8</ele>
        <time>2023-04-19T13:36:51Z</time>
      </trkpt>
      <trkpt lat="49.82021" lon="2.41308">
        <ele>64.8</ele>
        <time>2023-04-19T13:36:52Z</time>
      </trkpt>
      <trkpt lat="49.82021" lon="2.41308">
        <ele>64.8</ele>
        <time>2023-04-19T13:36:53Z</time>
      </trkpt>
      <trkpt lat="49.82021" lon="2.41308">
        <ele>64.8</ele>
        <time>2023-04-19T13:36:54Z</time>
      </trkpt>
      <trkpt lat="49.82021" lon="2.41308">
        <ele>64.8</ele>
        <time>2023-04-19T13:36:55Z</time>
      </trkpt>
      <trkpt lat="49.82021" lon="2.41308">
        <ele>64.8</ele>
        <time>2023-04-19T13:36:56Z</time>
      </trkpt>
      <trkpt lat="49.82021" lon="2.41308">
        <ele>64.8</ele>
        <time>2023-04-19T13:36:57Z</time>
      </trkpt>
      <trkpt lat="49.82021" lon="2.41308">
        <ele>64.8</ele>
        <time>2023-04-19T13:36:58Z</time>
      </trkpt>
      <trkpt lat="49.82021" lon="2.41308">
        <ele>64.8</ele>
        <time>2023-04-19T13:36:59Z</time>
      </trkpt>
      <trkpt lat="49.82021" lon="2.41308">
        <ele>64.8</ele>
        <time>2023-04-19T13:37:00Z</time>
      </trkpt>
      <trkpt lat="49.82021" lon="2.41308">
        <ele>64.8</ele>
        <time>2023-04-19T13:37:01Z</time>
      </trkpt>
      <trkpt lat="49.82021" lon="2.41308">
        <ele>64.8</ele>
        <time>2023-04-19T13:37:02Z</time>
      </trkpt>
      <trkpt lat="49.82021" lon="2.41308">
        <ele>64.8</ele>
        <time>2023-04-19T13:37:03Z</time>
      </trkpt>
      <trkpt lat="49.82021" lon="2.41308">
        <ele>64.8</ele>
        <time>2023-04-19T13:37:04Z</time>
      </trkpt>
      <trkpt lat="49.82021" lon="2.41308">
        <ele>64.8</ele>
        <time>2023-04-19T13:37:05Z</time>
      </trkpt>
      <trkpt lat="49.82021" lon="2.41308">
        <ele>64.8</ele>
        <time>2023-04-19T13:37:06Z</time>
      </trkpt>
      <trkpt lat="49.82021" lon="2.41308">
        <ele>64.8</ele>
        <time>2023-04-19T13:37:07Z</time>
      </trkpt>
      <trkpt lat="49.82021" lon="2.41308">
        <ele>64.8</ele>
        <time>2023-04-19T13:37:08Z</time>
      </trkpt>
      <trkpt lat="49.82021" lon="2.41308">
        <ele>64.8</ele>
        <time>2023-04-19T13:37:09Z</time>
      </trkpt>
      <trkpt lat="49.82021" lon="2.41308">
        <ele>64.8</ele>
        <time>2023-04-19T13:37:10Z</time>
      </trkpt>
      <trkpt lat="49.82021" lon="2.41308">
        <ele>64.8</ele>
        <time>2023-04-19T13:37:11Z</time>
      </trkpt>
      <trkpt lat="49.82021" lon="2.41308">
        <ele>64.8</ele>
        <time>2023-04-19T13:37:12Z</time>
      </trkpt>
      <trkpt lat="49.82021" lon="2.41308">
        <ele>64.8</ele>
        <time>2023-04-19T13:37:13Z</time>
      </trkpt>
      <trkpt lat="49.82021" lon="2.41308">
        <ele>64.8</ele>
        <time>2023-04-19T13:37:14Z</time>
      </trkpt>
      <trkpt lat="49.82021" lon="2.41308">
        <ele>64.8</ele>
        <time>2023-04-19T13:37:15Z</time>
      </trkpt>
      <trkpt lat="49.82021" lon="2.41308">
        <ele>64.8</ele>
        <time>2023-04-19T13:37:16Z</time>
      </trkpt>
      <trkpt lat="49.82021" lon="2.41308">
        <ele>64.8</ele>
        <time>2023-04-19T13:37:17Z</time>
      </trkpt>
      <trkpt lat="49.82021" lon="2.41308">
        <ele>64.8</ele>
        <time>2023-04-19T13:37:18Z</time>
      </trkpt>
      <trkpt lat="49.82021" lon="2.41308">
        <ele>64.8</ele>
        <time>2023-04-19T13:37:19Z</time>
      </trkpt>
      <trkpt lat="49.82021" lon="2.41308">
        <ele>64.8</ele>
        <time>2023-04-19T13:37:20Z</time>
      </trkpt>
      <trkpt lat="49.82021" lon="2.41308">
        <ele>64.8</ele>
        <time>2023-04-19T13:37:21Z</time>
      </trkpt>
      <trkpt lat="49.82021" lon="2.41308">
        <ele>64.8</ele>
        <time>2023-04-19T13:37:22Z</time>
      </trkpt>
      <trkpt lat="49.82021" lon="2.41308">
        <ele>64.8</ele>
        <time>2023-04-19T13:37:23Z</time>
      </trkpt>
      <trkpt lat="49.82021" lon="2.41308">
        <ele>64.8</ele>
        <time>2023-04-19T13:37:24Z</time>
      </trkpt>
      <trkpt lat="49.82021" lon="2.41308">
        <ele>64.8</ele>
        <time>2023-04-19T13:37:25Z</time>
      </trkpt>
      <trkpt lat="49.82021" lon="2.41308">
        <ele>64.8</ele>
        <time>2023-04-19T13:37:26Z</time>
      </trkpt>
      <trkpt lat="49.82021" lon="2.41308">
        <ele>64.8</ele>
        <time>2023-04-19T13:37:27Z</time>
      </trkpt>
      <trkpt lat="49.82021" lon="2.41308">
        <ele>64.8</ele>
        <time>2023-04-19T13:37:28Z</time>
      </trkpt>
      <trkpt lat="49.82021" lon="2.41308">
        <ele>64.8</ele>
        <time>2023-04-19T13:37:29Z</time>
      </trkpt>
      <trkpt lat="49.82021" lon="2.41308">
        <ele>64.8</ele>
        <time>2023-04-19T13:37:30Z</time>
      </trkpt>
      <trkpt lat="49.82021" lon="2.41308">
        <ele>64.8</ele>
        <time>2023-04-19T13:37:31Z</time>
      </trkpt>
      <trkpt lat="49.82021" lon="2.41308">
        <ele>64.8</ele>
        <time>2023-04-19T13:37:32Z</time>
      </trkpt>
      <trkpt lat="49.82021" lon="2.41308">
        <ele>64.8</ele>
        <time>2023-04-19T13:37:33Z</time>
      </trkpt>
      <trkpt lat="49.82021" lon="2.41308">
        <ele>64.8</ele>
        <time>2023-04-19T13:37:34Z</time>
      </trkpt>
      <trkpt lat="49.82021" lon="2.41308">
        <ele>64.8</ele>
        <time>2023-04-19T13:37:35Z</time>
      </trkpt>
      <trkpt lat="49.82021" lon="2.41308">
        <ele>64.8</ele>
        <time>2023-04-19T13:37:36Z</time>
      </trkpt>
      <trkpt lat="49.82021" lon="2.41308">
        <ele>64.8</ele>
        <time>2023-04-19T13:37:37Z</time>
      </trkpt>
      <trkpt lat="49.82021" lon="2.41308">
        <ele>64.8</ele>
        <time>2023-04-19T13:37:38Z</time>
      </trkpt>
      <trkpt lat="49.82021" lon="2.41308">
        <ele>64.8</ele>
        <time>2023-04-19T13:37:39Z</time>
      </trkpt>
      <trkpt lat="49.82021" lon="2.41308">
        <ele>64.8</ele>
        <time>2023-04-19T13:37:40Z</time>
      </trkpt>
      <trkpt lat="49.82021" lon="2.41308">
        <ele>64.8</ele>
        <time>2023-04-19T13:37:41Z</time>
      </trkpt>
      <trkpt lat="49.82021" lon="2.41308">
        <ele>64.8</ele>
        <time>2023-04-19T13:37:42Z</time>
      </trkpt>
      <trkpt lat="49.82021" lon="2.41308">
        <ele>64.8</ele>
        <time>2023-04-19T13:37:43Z</time>
      </trkpt>
      <trkpt lat="49.82021" lon="2.41308">
        <ele>64.8</ele>
        <time>2023-04-19T13:37:44Z</time>
      </trkpt>
      <trkpt lat="49.82021" lon="2.41308">
        <ele>64.8</ele>
        <time>2023-04-19T13:37:45Z</time>
      </trkpt>
      <trkpt lat="49.82021" lon="2.41307">
        <ele>64.8</ele>
        <time>2023-04-19T13:37:46Z</time>
      </trkpt>
      <trkpt lat="49.82021" lon="2.41305">
        <ele>64.8</ele>
        <time>2023-04-19T13:37:47Z</time>
      </trkpt>
      <trkpt lat="49.82022" lon="2.41305">
        <ele>64.8</ele>
        <time>2023-04-19T13:37:48Z</time>
      </trkpt>
      <trkpt lat="49.82022" lon="2.41305">
        <ele>64.8</ele>
        <time>2023-04-19T13:37:49Z</time>
      </trkpt>
      <trkpt lat="49.82022" lon="2.41306">
        <ele>64.8</ele>
        <time>2023-04-19T13:37:50Z</time>
      </trkpt>
      <trkpt lat="49.82021" lon="2.41306">
        <ele>64.8</ele>
        <time>2023-04-19T13:37:51Z</time>
      </trkpt>
      <trkpt lat="49.82021" lon="2.41306">
        <ele>64.8</ele>
        <time>2023-04-19T13:37:53Z</time>
      </trkpt>
      <trkpt lat="49.82021" lon="2.41307">
        <ele>64.8</ele>
        <time>2023-04-19T13:37:54Z</time>
      </trkpt>
      <trkpt lat="49.82021" lon="2.4131">
        <ele>64.9</ele>
        <time>2023-04-19T13:37:56Z</time>
      </trkpt>
      <trkpt lat="49.82021" lon="2.41313">
        <ele>64.9</ele>
        <time>2023-04-19T13:37:58Z</time>
      </trkpt>
      <trkpt lat="49.82021" lon="2.41316">
        <ele>64.9</ele>
        <time>2023-04-19T13:37:59Z</time>
      </trkpt>
      <trkpt lat="49.82021" lon="2.41318">
        <ele>65</ele>
        <time>2023-04-19T13:38:00Z</time>
      </trkpt>
      <trkpt lat="49.82021" lon="2.4132">
        <ele>65</ele>
        <time>2023-04-19T13:38:01Z</time>
      </trkpt>
      <trkpt lat="49.82021" lon="2.41322">
        <ele>65</ele>
        <time>2023-04-19T13:38:02Z</time>
      </trkpt>
      <trkpt lat="49.82024" lon="2.41324">
        <ele>65.1</ele>
        <time>2023-04-19T13:38:03Z</time>
      </trkpt>
      <trkpt lat="49.82025" lon="2.41325">
        <ele>65.1</ele>
        <time>2023-04-19T13:38:04Z</time>
      </trkpt>
      <trkpt lat="49.82028" lon="2.41327">
        <ele>65.2</ele>
        <time>2023-04-19T13:38:06Z</time>
      </trkpt>
      <trkpt lat="49.82028" lon="2.41328">
        <ele>65.2</ele>
        <time>2023-04-19T13:38:07Z</time>
      </trkpt>
      <trkpt lat="49.8203" lon="2.41331">
        <ele>64.6</ele>
        <time>2023-04-19T13:38:08Z</time>
      </trkpt>
      <trkpt lat="49.82031" lon="2.41332">
        <ele>64.5</ele>
        <time>2023-04-19T13:38:09Z</time>
      </trkpt>
      <trkpt lat="49.82032" lon="2.41333">
        <ele>64.4</ele>
        <time>2023-04-19T13:38:10Z</time>
      </trkpt>
      <trkpt lat="49.82033" lon="2.41335">
        <ele>64.3</ele>
        <time>2023-04-19T13:38:11Z</time>
      </trkpt>
      <trkpt lat="49.82034" lon="2.41337">
        <ele>64.1</ele>
        <time>2023-04-19T13:38:12Z</time>
      </trkpt>
      <trkpt lat="49.82036" lon="2.41338">
        <ele>64</ele>
        <time>2023-04-19T13:38:14Z</time>
      </trkpt>
      <trkpt lat="49.82037" lon="2.41339">
        <ele>63.9</ele>
        <time>2023-04-19T13:38:15Z</time>
      </trkpt>
      <trkpt lat="49.82038" lon="2.41339">
        <ele>63.8</ele>
        <time>2023-04-19T13:38:16Z</time>
      </trkpt>
      <trkpt lat="49.8204" lon="2.4134">
        <ele>63.7</ele>
        <time>2023-04-19T13:38:17Z</time>
      </trkpt>
      <trkpt lat="49.82043" lon="2.41341">
        <ele>63.4</ele>
        <time>2023-04-19T13:38:18Z</time>
      </trkpt>
      <trkpt lat="49.82044" lon="2.41342">
        <ele>63.4</ele>
        <time>2023-04-19T13:38:19Z</time>
      </trkpt>
      <trkpt lat="49.82046" lon="2.41342">
        <ele>63.2</ele>
        <time>2023-04-19T13:38:21Z</time>
      </trkpt>
      <trkpt lat="49.82047" lon="2.41342">
        <ele>63.1</ele>
        <time>2023-04-19T13:38:22Z</time>
      </trkpt>
      <trkpt lat="49.82049" lon="2.41341">
        <ele>63</ele>
        <time>2023-04-19T13:38:23Z</time>
      </trkpt>
      <trkpt lat="49.8205" lon="2.41341">
        <ele>62.9</ele>
        <time>2023-04-19T13:38:24Z</time>
      </trkpt>
      <trkpt lat="49.82051" lon="2.4134">
        <ele>62.8</ele>
        <time>2023-04-19T13:38:25Z</time>
      </trkpt>
      <trkpt lat="49.82054" lon="2.41339">
        <ele>62.6</ele>
        <time>2023-04-19T13:38:26Z</time>
      </trkpt>
      <trkpt lat="49.82056" lon="2.41337">
        <ele>62.4</ele>
        <time>2023-04-19T13:38:27Z</time>
      </trkpt>
      <trkpt lat="49.82057" lon="2.41337">
        <ele>62.4</ele>
        <time>2023-04-19T13:38:28Z</time>
      </trkpt>
      <trkpt lat="49.82059" lon="2.41336">
        <ele>62.2</ele>
        <time>2023-04-19T13:38:30Z</time>
      </trkpt>
      <trkpt lat="49.8206" lon="2.41336">
        <ele>62.2</ele>
        <time>2023-04-19T13:38:31Z</time>
      </trkpt>
      <trkpt lat="49.82061" lon="2.41336">
        <ele>62.1</ele>
        <time>2023-04-19T13:38:32Z</time>
      </trkpt>
      <trkpt lat="49.82062" lon="2.41336">
        <ele>62</ele>
        <time>2023-04-19T13:38:33Z</time>
      </trkpt>
      <trkpt lat="49.82063" lon="2.41335">
        <ele>62</ele>
        <time>2023-04-19T13:38:34Z</time>
      </trkpt>
      <trkpt lat="49.82064" lon="2.41334">
        <ele>61.8</ele>
        <time>2023-04-19T13:38:36Z</time>
      </trkpt>
      <trkpt lat="49.82065" lon="2.41333">
        <ele>61.8</ele>
        <time>2023-04-19T13:38:37Z</time>
      </trkpt>
      <trkpt lat="49.82066" lon="2.41332">
        <ele>61.7</ele>
        <time>2023-04-19T13:38:38Z</time>
      </trkpt>
      <trkpt lat="49.82067" lon="2.41331">
        <ele>61.6</ele>
        <time>2023-04-19T13:38:39Z</time>
      </trkpt>
      <trkpt lat="49.82069" lon="2.4133">
        <ele>61.5</ele>
        <time>2023-04-19T13:38:40Z</time>
      </trkpt>
      <trkpt lat="49.82069" lon="2.41329">
        <ele>61.4</ele>
        <time>2023-04-19T13:38:41Z</time>
      </trkpt>
      <trkpt lat="49.82071" lon="2.41327">
        <ele>61.3</ele>
        <time>2023-04-19T13:38:43Z</time>
      </trkpt>
      <trkpt lat="49.82072" lon="2.41327">
        <ele>61.2</ele>
        <time>2023-04-19T13:38:44Z</time>
      </trkpt>
      <trkpt lat="49.82073" lon="2.41326">
        <ele>61.2</ele>
        <time>2023-04-19T13:38:45Z</time>
      </trkpt>
      <trkpt lat="49.82074" lon="2.41325">
        <ele>61.1</ele>
        <time>2023-04-19T13:38:46Z</time>
      </trkpt>
      <trkpt lat="49.82075" lon="2.41324">
        <ele>61</ele>
        <time>2023-04-19T13:38:47Z</time>
      </trkpt>
      <trkpt lat="49.82077" lon="2.41323">
        <ele>60.9</ele>
        <time>2023-04-19T13:38:49Z</time>
      </trkpt>
      <trkpt lat="49.82078" lon="2.41322">
        <ele>60.8</ele>
        <time>2023-04-19T13:38:50Z</time>
      </trkpt>
      <trkpt lat="49.82079" lon="2.41321">
        <ele>60.7</ele>
        <time>2023-04-19T13:38:51Z</time>
      </trkpt>
      <trkpt lat="49.8208" lon="2.4132">
        <ele>60.6</ele>
        <time>2023-04-19T13:38:52Z</time>
      </trkpt>
      <trkpt lat="49.82081" lon="2.41319">
        <ele>60.6</ele>
        <time>2023-04-19T13:38:53Z</time>
      </trkpt>
      <trkpt lat="49.82082" lon="2.41318">
        <ele>60.4</ele>
        <time>2023-04-19T13:38:54Z</time>
      </trkpt>
      <trkpt lat="49.82084" lon="2.41318">
        <ele>60.4</ele>
        <time>2023-04-19T13:38:55Z</time>
      </trkpt>
      <trkpt lat="49.82085" lon="2.41318">
        <ele>60.3</ele>
        <time>2023-04-19T13:38:57Z</time>
      </trkpt>
      <trkpt lat="49.82086" lon="2.41317">
        <ele>60.2</ele>
        <time>2023-04-19T13:38:58Z</time>
      </trkpt>
      <trkpt lat="49.82087" lon="2.41317">
        <ele>60.2</ele>
        <time>2023-04-19T13:38:59Z</time>
      </trkpt>
      <trkpt lat="49.82088" lon="2.41316">
        <ele>60.1</ele>
        <time>2023-04-19T13:39:00Z</time>
      </trkpt>
      <trkpt lat="49.82088" lon="2.41316">
        <ele>60.1</ele>
        <time>2023-04-19T13:39:01Z</time>
      </trkpt>
      <trkpt lat="49.82089" lon="2.41316">
        <ele>60</ele>
        <time>2023-04-19T13:39:02Z</time>
      </trkpt>
      <trkpt lat="49.82091" lon="2.41314">
        <ele>59.9</ele>
        <time>2023-04-19T13:39:04Z</time>
      </trkpt>
      <trkpt lat="49.82092" lon="2.41313">
        <ele>59.8</ele>
        <time>2023-04-19T13:39:05Z</time>
      </trkpt>
      <trkpt lat="49.82094" lon="2.41312">
        <ele>59.7</ele>
        <time>2023-04-19T13:39:06Z</time>
      </trkpt>
      <trkpt lat="49.82095" lon="2.41311">
        <ele>59.6</ele>
        <time>2023-04-19T13:39:07Z</time>
      </trkpt>
      <trkpt lat="49.82097" lon="2.4131">
        <ele>59.5</ele>
        <time>2023-04-19T13:39:08Z</time>
      </trkpt>
      <trkpt lat="49.82099" lon="2.41309">
        <ele>59.3</ele>
        <time>2023-04-19T13:39:09Z</time>
      </trkpt>
      <trkpt lat="49.821" lon="2.41308">
        <ele>59.3</ele>
        <time>2023-04-19T13:39:10Z</time>
      </trkpt>
      <trkpt lat="49.82102" lon="2.41307">
        <ele>59.1</ele>
        <time>2023-04-19T13:39:11Z</time>
      </trkpt>
      <trkpt lat="49.82104" lon="2.41305">
        <ele>59</ele>
        <time>2023-04-19T13:39:13Z</time>
      </trkpt>
      <trkpt lat="49.82105" lon="2.41303">
        <ele>58.9</ele>
        <time>2023-04-19T13:39:14Z</time>
      </trkpt>
      <trkpt lat="49.82106" lon="2.41302">
        <ele>58.9</ele>
        <time>2023-04-19T13:39:15Z</time>
      </trkpt>
      <trkpt lat="49.82108" lon="2.41301">
        <ele>58.8</ele>
        <time>2023-04-19T13:39:16Z</time>
      </trkpt>
      <trkpt lat="49.82109" lon="2.413">
        <ele>58.8</ele>
        <time>2023-04-19T13:39:17Z</time>
      </trkpt>
      <trkpt lat="49.8211" lon="2.41299">
        <ele>58.8</ele>
        <time>2023-04-19T13:39:18Z</time>
      </trkpt>
      <trkpt lat="49.82112" lon="2.41297">
        <ele>58.7</ele>
        <time>2023-04-19T13:39:19Z</time>
      </trkpt>
      <trkpt lat="49.82113" lon="2.41296">
        <ele>58.7</ele>
        <time>2023-04-19T13:39:21Z</time>
      </trkpt>
      <trkpt lat="49.82114" lon="2.41295">
        <ele>58.6</ele>
        <time>2023-04-19T13:39:22Z</time>
      </trkpt>
      <trkpt lat="49.82115" lon="2.41294">
        <ele>58.6</ele>
        <time>2023-04-19T13:39:23Z</time>
      </trkpt>
      <trkpt lat="49.82116" lon="2.41293">
        <ele>58.5</ele>
        <time>2023-04-19T13:39:24Z</time>
      </trkpt>
      <trkpt lat="49.82117" lon="2.41293">
        <ele>58.5</ele>
        <time>2023-04-19T13:39:25Z</time>
      </trkpt>
      <trkpt lat="49.82118" lon="2.41293">
        <ele>58.5</ele>
        <time>2023-04-19T13:39:26Z</time>
      </trkpt>
      <trkpt lat="49.82119" lon="2.41292">
        <ele>58.4</ele>
        <time>2023-04-19T13:39:27Z</time>
      </trkpt>
      <trkpt lat="49.8212" lon="2.41292">
        <ele>58.4</ele>
        <time>2023-04-19T13:39:29Z</time>
      </trkpt>
      <trkpt lat="49.82121" lon="2.41291">
        <ele>58.4</ele>
        <time>2023-04-19T13:39:30Z</time>
      </trkpt>
      <trkpt lat="49.82122" lon="2.41291">
        <ele>58.3</ele>
        <time>2023-04-19T13:39:31Z</time>
      </trkpt>
      <trkpt lat="49.82123" lon="2.4129">
        <ele>58.3</ele>
        <time>2023-04-19T13:39:32Z</time>
      </trkpt>
      <trkpt lat="49.82125" lon="2.4129">
        <ele>58.2</ele>
        <time>2023-04-19T13:39:33Z</time>
      </trkpt>
      <trkpt lat="49.82126" lon="2.4129">
        <ele>58.2</ele>
        <time>2023-04-19T13:39:34Z</time>
      </trkpt>
      <trkpt lat="49.82127" lon="2.4129">
        <ele>58.1</ele>
        <time>2023-04-19T13:39:35Z</time>
      </trkpt>
      <trkpt lat="49.8213" lon="2.4129">
        <ele>58</ele>
        <time>2023-04-19T13:39:36Z</time>
      </trkpt>
      <trkpt lat="49.82131" lon="2.4129">
        <ele>58</ele>
        <time>2023-04-19T13:39:38Z</time>
      </trkpt>
      <trkpt lat="49.82132" lon="2.4129">
        <ele>57.9</ele>
        <time>2023-04-19T13:39:39Z</time>
      </trkpt>
      <trkpt lat="49.82133" lon="2.4129">
        <ele>57.9</ele>
        <time>2023-04-19T13:39:40Z</time>
      </trkpt>
      <trkpt lat="49.82134" lon="2.4129">
        <ele>57.9</ele>
        <time>2023-04-19T13:39:41Z</time>
      </trkpt>
      <trkpt lat="49.82135" lon="2.41291">
        <ele>57.8</ele>
        <time>2023-04-19T13:39:42Z</time>
      </trkpt>
      <trkpt lat="49.82136" lon="2.41291">
        <ele>57.8</ele>
        <time>2023-04-19T13:39:43Z</time>
      </trkpt>
      <trkpt lat="49.82136" lon="2.41291">
        <ele>57.8</ele>
        <time>2023-04-19T13:39:45Z</time>
      </trkpt>
      <trkpt lat="49.82137" lon="2.41291">
        <ele>57.7</ele>
        <time>2023-04-19T13:39:46Z</time>
      </trkpt>
      <trkpt lat="49.82139" lon="2.4129">
        <ele>57.7</ele>
        <time>2023-04-19T13:39:47Z</time>
      </trkpt>
      <trkpt lat="49.8214" lon="2.4129">
        <ele>57.6</ele>
        <time>2023-04-19T13:39:48Z</time>
      </trkpt>
      <trkpt lat="49.82141" lon="2.4129">
        <ele>57.6</ele>
        <time>2023-04-19T13:39:49Z</time>
      </trkpt>
      <trkpt lat="49.82142" lon="2.4129">
        <ele>57.5</ele>
        <time>2023-04-19T13:39:51Z</time>
      </trkpt>
      <trkpt lat="49.82144" lon="2.41289">
        <ele>57.5</ele>
        <time>2023-04-19T13:39:52Z</time>
      </trkpt>
      <trkpt lat="49.82145" lon="2.41289">
        <ele>57.5</ele>
        <time>2023-04-19T13:39:53Z</time>
      </trkpt>
      <trkpt lat="49.82146" lon="2.41288">
        <ele>57.4</ele>
        <time>2023-04-19T13:39:54Z</time>
      </trkpt>
      <trkpt lat="49.82146" lon="2.41288">
        <ele>57.4</ele>
        <time>2023-04-19T13:39:55Z</time>
      </trkpt>
      <trkpt lat="49.82147" lon="2.41287">
        <ele>57.4</ele>
        <time>2023-04-19T13:39:57Z</time>
      </trkpt>
      <trkpt lat="49.82149" lon="2.41286">
        <ele>57.3</ele>
        <time>2023-04-19T13:39:58Z</time>
      </trkpt>
      <trkpt lat="49.8215" lon="2.41286">
        <ele>57.2</ele>
        <time>2023-04-19T13:39:59Z</time>
      </trkpt>
      <trkpt lat="49.82151" lon="2.41285">
        <ele>57.2</ele>
        <time>2023-04-19T13:40:00Z</time>
      </trkpt>
      <trkpt lat="49.82152" lon="2.41284">
        <ele>57.2</ele>
        <time>2023-04-19T13:40:01Z</time>
      </trkpt>
      <trkpt lat="49.82152" lon="2.41284">
        <ele>57.1</ele>
        <time>2023-04-19T13:40:02Z</time>
      </trkpt>
      <trkpt lat="49.82154" lon="2.41284">
        <ele>57.1</ele>
        <time>2023-04-19T13:40:03Z</time>
      </trkpt>
      <trkpt lat="49.82155" lon="2.41284">
        <ele>57</ele>
        <time>2023-04-19T13:40:05Z</time>
      </trkpt>
      <trkpt lat="49.82157" lon="2.41283">
        <ele>56.9</ele>
        <time>2023-04-19T13:40:06Z</time>
      </trkpt>
      <trkpt lat="49.82158" lon="2.41283">
        <ele>56.9</ele>
        <time>2023-04-19T13:40:07Z</time>
      </trkpt>
      <trkpt lat="49.82159" lon="2.41283">
        <ele>56.8</ele>
        <time>2023-04-19T13:40:08Z</time>
      </trkpt>
      <trkpt lat="49.8216" lon="2.41283">
        <ele>56.8</ele>
        <time>2023-04-19T13:40:09Z</time>
      </trkpt>
      <trkpt lat="49.82161" lon="2.41282">
        <ele>56.7</ele>
        <time>2023-04-19T13:40:10Z</time>
      </trkpt>
      <trkpt lat="49.82162" lon="2.41282">
        <ele>56.7</ele>
        <time>2023-04-19T13:40:11Z</time>
      </trkpt>
      <trkpt lat="49.82163" lon="2.41282">
        <ele>56.6</ele>
        <time>2023-04-19T13:40:13Z</time>
      </trkpt>
      <trkpt lat="49.82164" lon="2.41281">
        <ele>56.6</ele>
        <time>2023-04-19T13:40:14Z</time>
      </trkpt>
      <trkpt lat="49.82165" lon="2.41281">
        <ele>56.6</ele>
        <time>2023-04-19T13:40:15Z</time>
      </trkpt>
      <trkpt lat="49.82166" lon="2.4128">
        <ele>56.5</ele>
        <time>2023-04-19T13:40:16Z</time>
      </trkpt>
      <trkpt lat="49.82166" lon="2.4128">
        <ele>56.5</ele>
        <time>2023-04-19T13:40:17Z</time>
      </trkpt>
      <trkpt lat="49.82167" lon="2.41279">
        <ele>56.5</ele>
        <time>2023-04-19T13:40:18Z</time>
      </trkpt>
      <trkpt lat="49.82168" lon="2.41279">
        <ele>56.4</ele>
        <time>2023-04-19T13:40:19Z</time>
      </trkpt>
      <trkpt lat="49.82169" lon="2.41278">
        <ele>56.4</ele>
        <time>2023-04-19T13:40:21Z</time>
      </trkpt>
      <trkpt lat="49.82169" lon="2.41277">
        <ele>56.4</ele>
        <time>2023-04-19T13:40:22Z</time>
      </trkpt>
      <trkpt lat="49.8217" lon="2.41277">
        <ele>56.3</ele>
        <time>2023-04-19T13:40:23Z</time>
      </trkpt>
      <trkpt lat="49.82171" lon="2.41276">
        <ele>56.3</ele>
        <time>2023-04-19T13:40:24Z</time>
      </trkpt>
      <trkpt lat="49.82173" lon="2.41274">
        <ele>56.2</ele>
        <time>2023-04-19T13:40:25Z</time>
      </trkpt>
      <trkpt lat="49.82173" lon="2.41273">
        <ele>56.2</ele>
        <time>2023-04-19T13:40:26Z</time>
      </trkpt>
      <trkpt lat="49.82174" lon="2.41272">
        <ele>56.1</ele>
        <time>2023-04-19T13:40:27Z</time>
      </trkpt>
      <trkpt lat="49.82176" lon="2.41271">
        <ele>56.1</ele>
        <time>2023-04-19T13:40:28Z</time>
      </trkpt>
      <trkpt lat="49.82178" lon="2.4127">
        <ele>56</ele>
        <time>2023-04-19T13:40:30Z</time>
      </trkpt>
      <trkpt lat="49.82179" lon="2.41269">
        <ele>55.9</ele>
        <time>2023-04-19T13:40:31Z</time>
      </trkpt>
      <trkpt lat="49.8218" lon="2.41268">
        <ele>55.9</ele>
        <time>2023-04-19T13:40:32Z</time>
      </trkpt>
      <trkpt lat="49.82182" lon="2.41267">
        <ele>55.8</ele>
        <time>2023-04-19T13:40:33Z</time>
      </trkpt>
      <trkpt lat="49.82183" lon="2.41266">
        <ele>55.8</ele>
        <time>2023-04-19T13:40:34Z</time>
      </trkpt>
      <trkpt lat="49.82184" lon="2.41266">
        <ele>55.7</ele>
        <time>2023-04-19T13:40:35Z</time>
      </trkpt>
      <trkpt lat="49.82185" lon="2.41265">
        <ele>55.7</ele>
        <time>2023-04-19T13:40:36Z</time>
      </trkpt>
      <trkpt lat="49.82187" lon="2.41263">
        <ele>55.6</ele>
        <time>2023-04-19T13:40:38Z</time>
      </trkpt>
      <trkpt lat="49.82188" lon="2.41262">
        <ele>55.6</ele>
        <time>2023-04-19T13:40:39Z</time>
      </trkpt>
      <trkpt lat="49.82189" lon="2.41261">
        <ele>55.5</ele>
        <time>2023-04-19T13:40:40Z</time>
      </trkpt>
      <trkpt lat="49.8219" lon="2.41261">
        <ele>55.5</ele>
        <time>2023-04-19T13:40:41Z</time>
      </trkpt>
      <trkpt lat="49.82191" lon="2.4126">
        <ele>55.4</ele>
        <time>2023-04-19T13:40:42Z</time>
      </trkpt>
      <trkpt lat="49.82192" lon="2.41259">
        <ele>55.4</ele>
        <time>2023-04-19T13:40:44Z</time>
      </trkpt>
      <trkpt lat="49.82194" lon="2.41257">
        <ele>55.3</ele>
        <time>2023-04-19T13:40:45Z</time>
      </trkpt>
      <trkpt lat="49.82196" lon="2.41257">
        <ele>55.3</ele>
        <time>2023-04-19T13:40:46Z</time>
      </trkpt>
      <trkpt lat="49.82197" lon="2.41256">
        <ele>55.2</ele>
        <time>2023-04-19T13:40:47Z</time>
      </trkpt>
      <trkpt lat="49.82198" lon="2.41255">
        <ele>55.2</ele>
        <time>2023-04-19T13:40:48Z</time>
      </trkpt>
      <trkpt lat="49.822" lon="2.41255">
        <ele>55.1</ele>
        <time>2023-04-19T13:40:49Z</time>
      </trkpt>
      <trkpt lat="49.82201" lon="2.41254">
        <ele>55.1</ele>
        <time>2023-04-19T13:40:50Z</time>
      </trkpt>
      <trkpt lat="49.82202" lon="2.41254">
        <ele>55</ele>
        <time>2023-04-19T13:40:52Z</time>
      </trkpt>
      <trkpt lat="49.82203" lon="2.41254">
        <ele>55</ele>
        <time>2023-04-19T13:40:53Z</time>
      </trkpt>
      <trkpt lat="49.82204" lon="2.41253">
        <ele>55</ele>
        <time>2023-04-19T13:40:54Z</time>
      </trkpt>
      <trkpt lat="49.82206" lon="2.41252">
        <ele>54.9</ele>
        <time>2023-04-19T13:40:55Z</time>
      </trkpt>
      <trkpt lat="49.82207" lon="2.41252">
        <ele>54.9</ele>
        <time>2023-04-19T13:40:56Z</time>
      </trkpt>
      <trkpt lat="49.82208" lon="2.41251">
        <ele>54.8</ele>
        <time>2023-04-19T13:40:57Z</time>
      </trkpt>
      <trkpt lat="49.8221" lon="2.4125">
        <ele>54.8</ele>
        <time>2023-04-19T13:40:58Z</time>
      </trkpt>
      <trkpt lat="49.82211" lon="2.4125">
        <ele>54.7</ele>
        <time>2023-04-19T13:41:00Z</time>
      </trkpt>
      <trkpt lat="49.82213" lon="2.41249">
        <ele>54.6</ele>
        <time>2023-04-19T13:41:01Z</time>
      </trkpt>
      <trkpt lat="49.82214" lon="2.41249">
        <ele>54.6</ele>
        <time>2023-04-19T13:41:02Z</time>
      </trkpt>
      <trkpt lat="49.82215" lon="2.41249">
        <ele>54.6</ele>
        <time>2023-04-19T13:41:03Z</time>
      </trkpt>
      <trkpt lat="49.82217" lon="2.41248">
        <ele>54.5</ele>
        <time>2023-04-19T13:41:04Z</time>
      </trkpt>
      <trkpt lat="49.82218" lon="2.41247">
        <ele>54.4</ele>
        <time>2023-04-19T13:41:05Z</time>
      </trkpt>
      <trkpt lat="49.82219" lon="2.41247">
        <ele>54.4</ele>
        <time>2023-04-19T13:41:06Z</time>
      </trkpt>
      <trkpt lat="49.82221" lon="2.41246">
        <ele>54.3</ele>
        <time>2023-04-19T13:41:07Z</time>
      </trkpt>
      <trkpt lat="49.82221" lon="2.41246">
        <ele>54.3</ele>
        <time>2023-04-19T13:41:08Z</time>
      </trkpt>
      <trkpt lat="49.82222" lon="2.41247">
        <ele>54.3</ele>
        <time>2023-04-19T13:41:10Z</time>
      </trkpt>
      <trkpt lat="49.82223" lon="2.41246">
        <ele>54.2</ele>
        <time>2023-04-19T13:41:11Z</time>
      </trkpt>
      <trkpt lat="49.82224" lon="2.41246">
        <ele>54.2</ele>
        <time>2023-04-19T13:41:12Z</time>
      </trkpt>
      <trkpt lat="49.82225" lon="2.41246">
        <ele>54.1</ele>
        <time>2023-04-19T13:41:13Z</time>
      </trkpt>
      <trkpt lat="49.82226" lon="2.41246">
        <ele>54.1</ele>
        <time>2023-04-19T13:41:14Z</time>
      </trkpt>
      <trkpt lat="49.82227" lon="2.41246">
        <ele>54.1</ele>
        <time>2023-04-19T13:41:15Z</time>
      </trkpt>
      <trkpt lat="49.82228" lon="2.41246">
        <ele>54</ele>
        <time>2023-04-19T13:41:16Z</time>
      </trkpt>
      <trkpt lat="49.82229" lon="2.41247">
        <ele>54</ele>
        <time>2023-04-19T13:41:17Z</time>
      </trkpt>
      <trkpt lat="49.82231" lon="2.41246">
        <ele>53.9</ele>
        <time>2023-04-19T13:41:19Z</time>
      </trkpt>
      <trkpt lat="49.82232" lon="2.41246">
        <ele>53.8</ele>
        <time>2023-04-19T13:41:20Z</time>
      </trkpt>
      <trkpt lat="49.82233" lon="2.41246">
        <ele>53.8</ele>
        <time>2023-04-19T13:41:21Z</time>
      </trkpt>
      <trkpt lat="49.82234" lon="2.41246">
        <ele>53.8</ele>
        <time>2023-04-19T13:41:22Z</time>
      </trkpt>
      <trkpt lat="49.82234" lon="2.41246">
        <ele>53.7</ele>
        <time>2023-04-19T13:41:23Z</time>
      </trkpt>
      <trkpt lat="49.82236" lon="2.41246">
        <ele>53.6</ele>
        <time>2023-04-19T13:41:25Z</time>
      </trkpt>
      <trkpt lat="49.82237" lon="2.41245">
        <ele>53.6</ele>
        <time>2023-04-19T13:41:26Z</time>
      </trkpt>
      <trkpt lat="49.82238" lon="2.41245">
        <ele>53.6</ele>
        <time>2023-04-19T13:41:27Z</time>
      </trkpt>
      <trkpt lat="49.82239" lon="2.41244">
        <ele>53.5</ele>
        <time>2023-04-19T13:41:28Z</time>
      </trkpt>
      <trkpt lat="49.8224" lon="2.41244">
        <ele>53.5</ele>
        <time>2023-04-19T13:41:29Z</time>
      </trkpt>
      <trkpt lat="49.82241" lon="2.41243">
        <ele>53.4</ele>
        <time>2023-04-19T13:41:30Z</time>
      </trkpt>
      <trkpt lat="49.82242" lon="2.41243">
        <ele>53.4</ele>
        <time>2023-04-19T13:41:31Z</time>
      </trkpt>
      <trkpt lat="49.82243" lon="2.41242">
        <ele>53.3</ele>
        <time>2023-04-19T13:41:32Z</time>
      </trkpt>
      <trkpt lat="49.82243" lon="2.41242">
        <ele>53.3</ele>
        <time>2023-04-19T13:41:34Z</time>
      </trkpt>
      <trkpt lat="49.82243" lon="2.41242">
        <ele>53.3</ele>
        <time>2023-04-19T13:41:35Z</time>
      </trkpt>
      <trkpt lat="49.82244" lon="2.41242">
        <ele>53.2</ele>
        <time>2023-04-19T13:41:36Z</time>
      </trkpt>
      <trkpt lat="49.82246" lon="2.41242">
        <ele>53.2</ele>
        <time>2023-04-19T13:41:37Z</time>
      </trkpt>
      <trkpt lat="49.82247" lon="2.41242">
        <ele>53.1</ele>
        <time>2023-04-19T13:41:38Z</time>
      </trkpt>
      <trkpt lat="49.82248" lon="2.41242">
        <ele>53</ele>
        <time>2023-04-19T13:41:39Z</time>
      </trkpt>
      <trkpt lat="49.82249" lon="2.41242">
        <ele>53</ele>
        <time>2023-04-19T13:41:40Z</time>
      </trkpt>
      <trkpt lat="49.8225" lon="2.41241">
        <ele>52.9</ele>
        <time>2023-04-19T13:41:41Z</time>
      </trkpt>
      <trkpt lat="49.82251" lon="2.41241">
        <ele>52.9</ele>
        <time>2023-04-19T13:41:42Z</time>
      </trkpt>
      <trkpt lat="49.82253" lon="2.41241">
        <ele>52.8</ele>
        <time>2023-04-19T13:41:44Z</time>
      </trkpt>
      <trkpt lat="49.82254" lon="2.41241">
        <ele>52.8</ele>
        <time>2023-04-19T13:41:45Z</time>
      </trkpt>
      <trkpt lat="49.82255" lon="2.41241">
        <ele>52.7</ele>
        <time>2023-04-19T13:41:46Z</time>
      </trkpt>
      <trkpt lat="49.82257" lon="2.4124">
        <ele>52.6</ele>
        <time>2023-04-19T13:41:47Z</time>
      </trkpt>
      <trkpt lat="49.82258" lon="2.41239">
        <ele>52.6</ele>
        <time>2023-04-19T13:41:48Z</time>
      </trkpt>
      <trkpt lat="49.82258" lon="2.41239">
        <ele>52.6</ele>
        <time>2023-04-19T13:41:49Z</time>
      </trkpt>
      <trkpt lat="49.8226" lon="2.41238">
        <ele>52.5</ele>
        <time>2023-04-19T13:41:50Z</time>
      </trkpt>
      <trkpt lat="49.82261" lon="2.41237">
        <ele>52.4</ele>
        <time>2023-04-19T13:41:51Z</time>
      </trkpt>
      <trkpt lat="49.82262" lon="2.41236">
        <ele>52.4</ele>
        <time>2023-04-19T13:41:53Z</time>
      </trkpt>
      <trkpt lat="49.82263" lon="2.41235">
        <ele>52.3</ele>
        <time>2023-04-19T13:41:54Z</time>
      </trkpt>
      <trkpt lat="49.82263" lon="2.41233">
        <ele>52.3</ele>
        <time>2023-04-19T13:41:55Z</time>
      </trkpt>
      <trkpt lat="49.82265" lon="2.41231">
        <ele>52.2</ele>
        <time>2023-04-19T13:41:56Z</time>
      </trkpt>
      <trkpt lat="49.82265" lon="2.4123">
        <ele>52.2</ele>
        <time>2023-04-19T13:41:57Z</time>
      </trkpt>
      <trkpt lat="49.82266" lon="2.41229">
        <ele>52.1</ele>
        <time>2023-04-19T13:41:58Z</time>
      </trkpt>
      <trkpt lat="49.82267" lon="2.41229">
        <ele>52.1</ele>
        <time>2023-04-19T13:41:59Z</time>
      </trkpt>
      <trkpt lat="49.82268" lon="2.41227">
        <ele>52</ele>
        <time>2023-04-19T13:42:00Z</time>
      </trkpt>
      <trkpt lat="49.82269" lon="2.41226">
        <ele>52</ele>
        <time>2023-04-19T13:42:01Z</time>
      </trkpt>
      <trkpt lat="49.82269" lon="2.41225">
        <ele>52</ele>
        <time>2023-04-19T13:42:03Z</time>
      </trkpt>
      <trkpt lat="49.8227" lon="2.41224">
        <ele>51.9</ele>
        <time>2023-04-19T13:42:04Z</time>
      </trkpt>
      <trkpt lat="49.8227" lon="2.41223">
        <ele>51.9</ele>
        <time>2023-04-19T13:42:05Z</time>
      </trkpt>
      <trkpt lat="49.82271" lon="2.41223">
        <ele>51.9</ele>
        <time>2023-04-19T13:42:06Z</time>
      </trkpt>
      <trkpt lat="49.82272" lon="2.41222">
        <ele>51.8</ele>
        <time>2023-04-19T13:42:07Z</time>
      </trkpt>
      <trkpt lat="49.82272" lon="2.41221">
        <ele>51.8</ele>
        <time>2023-04-19T13:42:08Z</time>
      </trkpt>
      <trkpt lat="49.82273" lon="2.41221">
        <ele>51.7</ele>
        <time>2023-04-19T13:42:09Z</time>
      </trkpt>
      <trkpt lat="49.82275" lon="2.4122">
        <ele>51.7</ele>
        <time>2023-04-19T13:42:10Z</time>
      </trkpt>
      <trkpt lat="49.82276" lon="2.41219">
        <ele>51.6</ele>
        <time>2023-04-19T13:42:12Z</time>
      </trkpt>
      <trkpt lat="49.82278" lon="2.41218">
        <ele>51.5</ele>
        <time>2023-04-19T13:42:13Z</time>
      </trkpt>
      <trkpt lat="49.82278" lon="2.41217">
        <ele>51.5</ele>
        <time>2023-04-19T13:42:14Z</time>
      </trkpt>
      <trkpt lat="49.8228" lon="2.41216">
        <ele>51.5</ele>
        <time>2023-04-19T13:42:15Z</time>
      </trkpt>
      <trkpt lat="49.82281" lon="2.41216">
        <ele>51.4</ele>
        <time>2023-04-19T13:42:16Z</time>
      </trkpt>
      <trkpt lat="49.82281" lon="2.41216">
        <ele>51.4</ele>
        <time>2023-04-19T13:42:17Z</time>
      </trkpt>
      <trkpt lat="49.82283" lon="2.41216">
        <ele>51.3</ele>
        <time>2023-04-19T13:42:18Z</time>
      </trkpt>
      <trkpt lat="49.82283" lon="2.41215">
        <ele>51.3</ele>
        <time>2023-04-19T13:42:19Z</time>
      </trkpt>
      <trkpt lat="49.82284" lon="2.41214">
        <ele>51.3</ele>
        <time>2023-04-19T13:42:21Z</time>
      </trkpt>
      <trkpt lat="49.82285" lon="2.41214">
        <ele>51.2</ele>
        <time>2023-04-19T13:42:22Z</time>
      </trkpt>
      <trkpt lat="49.82286" lon="2.41213">
        <ele>51.2</ele>
        <time>2023-04-19T13:42:23Z</time>
      </trkpt>
      <trkpt lat="49.82287" lon="2.41213">
        <ele>51.2</ele>
        <time>2023-04-19T13:42:24Z</time>
      </trkpt>
      <trkpt lat="49.82288" lon="2.41213">
        <ele>51.1</ele>
        <time>2023-04-19T13:42:25Z</time>
      </trkpt>
      <trkpt lat="49.82288" lon="2.41213">
        <ele>51.1</ele>
        <time>2023-04-19T13:42:26Z</time>
      </trkpt>
      <trkpt lat="49.8229" lon="2.41213">
        <ele>51</ele>
        <time>2023-04-19T13:42:27Z</time>
      </trkpt>
      <trkpt lat="49.82291" lon="2.41212">
        <ele>51</ele>
        <time>2023-04-19T13:42:28Z</time>
      </trkpt>
      <trkpt lat="49.82292" lon="2.41212">
        <ele>51</ele>
        <time>2023-04-19T13:42:29Z</time>
      </trkpt>
      <trkpt lat="49.82293" lon="2.41212">
        <ele>50.9</ele>
        <time>2023-04-19T13:42:31Z</time>
      </trkpt>
      <trkpt lat="49.82294" lon="2.41212">
        <ele>50.9</ele>
        <time>2023-04-19T13:42:32Z</time>
      </trkpt>
      <trkpt lat="49.82296" lon="2.41212">
        <ele>50.8</ele>
        <time>2023-04-19T13:42:33Z</time>
      </trkpt>
      <trkpt lat="49.82297" lon="2.41212">
        <ele>50.7</ele>
        <time>2023-04-19T13:42:34Z</time>
      </trkpt>
      <trkpt lat="49.82297" lon="2.41212">
        <ele>50.7</ele>
        <time>2023-04-19T13:42:35Z</time>
      </trkpt>
      <trkpt lat="49.82298" lon="2.41211">
        <ele>50.7</ele>
        <time>2023-04-19T13:42:36Z</time>
      </trkpt>
      <trkpt lat="49.823" lon="2.4121">
        <ele>50.6</ele>
        <time>2023-04-19T13:42:37Z</time>
      </trkpt>
      <trkpt lat="49.82301" lon="2.4121">
        <ele>50.5</ele>
        <time>2023-04-19T13:42:38Z</time>
      </trkpt>
      <trkpt lat="49.82302" lon="2.41209">
        <ele>50.5</ele>
        <time>2023-04-19T13:42:39Z</time>
      </trkpt>
      <trkpt lat="49.82303" lon="2.41208">
        <ele>50.4</ele>
        <time>2023-04-19T13:42:41Z</time>
      </trkpt>
      <trkpt lat="49.82305" lon="2.41207">
        <ele>50.4</ele>
        <time>2023-04-19T13:42:42Z</time>
      </trkpt>
      <trkpt lat="49.82306" lon="2.41206">
        <ele>50.3</ele>
        <time>2023-04-19T13:42:43Z</time>
      </trkpt>
      <trkpt lat="49.82309" lon="2.41205">
        <ele>50.2</ele>
        <time>2023-04-19T13:42:44Z</time>
      </trkpt>
      <trkpt lat="49.8231" lon="2.41205">
        <ele>50.1</ele>
        <time>2023-04-19T13:42:45Z</time>
      </trkpt>
      <trkpt lat="49.82314" lon="2.41203">
        <ele>50</ele>
        <time>2023-04-19T13:42:47Z</time>
      </trkpt>
      <trkpt lat="49.82315" lon="2.41202">
        <ele>49.9</ele>
        <time>2023-04-19T13:42:48Z</time>
      </trkpt>
      <trkpt lat="49.82316" lon="2.41201">
        <ele>49.8</ele>
        <time>2023-04-19T13:42:49Z</time>
      </trkpt>
      <trkpt lat="49.82318" lon="2.41201">
        <ele>49.8</ele>
        <time>2023-04-19T13:42:50Z</time>
      </trkpt>
      <trkpt lat="49.82319" lon="2.412">
        <ele>49.7</ele>
        <time>2023-04-19T13:42:51Z</time>
      </trkpt>
      <trkpt lat="49.82321" lon="2.41199">
        <ele>49.6</ele>
        <time>2023-04-19T13:42:52Z</time>
      </trkpt>
      <trkpt lat="49.82322" lon="2.41198">
        <ele>49.6</ele>
        <time>2023-04-19T13:42:53Z</time>
      </trkpt>
      <trkpt lat="49.82324" lon="2.41197">
        <ele>49.5</ele>
        <time>2023-04-19T13:42:54Z</time>
      </trkpt>
      <trkpt lat="49.82325" lon="2.41196">
        <ele>49.5</ele>
        <time>2023-04-19T13:42:56Z</time>
      </trkpt>
      <trkpt lat="49.82326" lon="2.41195">
        <ele>49.4</ele>
        <time>2023-04-19T13:42:57Z</time>
      </trkpt>
      <trkpt lat="49.82327" lon="2.41195">
        <ele>49.4</ele>
        <time>2023-04-19T13:42:58Z</time>
      </trkpt>
      <trkpt lat="49.82328" lon="2.41194">
        <ele>49.3</ele>
        <time>2023-04-19T13:42:59Z</time>
      </trkpt>
      <trkpt lat="49.82329" lon="2.41193">
        <ele>49.3</ele>
        <time>2023-04-19T13:43:00Z</time>
      </trkpt>
      <trkpt lat="49.8233" lon="2.41193">
        <ele>49.2</ele>
        <time>2023-04-19T13:43:01Z</time>
      </trkpt>
      <trkpt lat="49.82331" lon="2.41192">
        <ele>49.2</ele>
        <time>2023-04-19T13:43:02Z</time>
      </trkpt>
      <trkpt lat="49.82332" lon="2.41191">
        <ele>49.2</ele>
        <time>2023-04-19T13:43:03Z</time>
      </trkpt>
      <trkpt lat="49.82333" lon="2.41191">
        <ele>49.1</ele>
        <time>2023-04-19T13:43:04Z</time>
      </trkpt>
      <trkpt lat="49.82335" lon="2.4119">
        <ele>49</ele>
        <time>2023-04-19T13:43:06Z</time>
      </trkpt>
      <trkpt lat="49.82335" lon="2.41189">
        <ele>49</ele>
        <time>2023-04-19T13:43:07Z</time>
      </trkpt>
      <trkpt lat="49.82336" lon="2.41189">
        <ele>49</ele>
        <time>2023-04-19T13:43:08Z</time>
      </trkpt>
      <trkpt lat="49.82337" lon="2.41188">
        <ele>48.9</ele>
        <time>2023-04-19T13:43:09Z</time>
      </trkpt>
      <trkpt lat="49.82338" lon="2.41188">
        <ele>48.9</ele>
        <time>2023-04-19T13:43:10Z</time>
      </trkpt>
      <trkpt lat="49.8234" lon="2.41187">
        <ele>48.8</ele>
        <time>2023-04-19T13:43:11Z</time>
      </trkpt>
      <trkpt lat="49.8234" lon="2.41187">
        <ele>48.8</ele>
        <time>2023-04-19T13:43:12Z</time>
      </trkpt>
      <trkpt lat="49.82342" lon="2.41185">
        <ele>48.7</ele>
        <time>2023-04-19T13:43:13Z</time>
      </trkpt>
      <trkpt lat="49.82343" lon="2.41185">
        <ele>48.7</ele>
        <time>2023-04-19T13:43:15Z</time>
      </trkpt>
      <trkpt lat="49.82344" lon="2.41184">
        <ele>48.6</ele>
        <time>2023-04-19T13:43:16Z</time>
      </trkpt>
      <trkpt lat="49.82345" lon="2.41183">
        <ele>48.6</ele>
        <time>2023-04-19T13:43:17Z</time>
      </trkpt>
      <trkpt lat="49.82346" lon="2.41183">
        <ele>48.6</ele>
        <time>2023-04-19T13:43:18Z</time>
      </trkpt>
      <trkpt lat="49.82347" lon="2.41182">
        <ele>48.5</ele>
        <time>2023-04-19T13:43:19Z</time>
      </trkpt>
      <trkpt lat="49.82348" lon="2.41181">
        <ele>48.5</ele>
        <time>2023-04-19T13:43:20Z</time>
      </trkpt>
      <trkpt lat="49.82349" lon="2.41181">
        <ele>48.4</ele>
        <time>2023-04-19T13:43:21Z</time>
      </trkpt>
      <trkpt lat="49.82352" lon="2.41179">
        <ele>48.3</ele>
        <time>2023-04-19T13:43:22Z</time>
      </trkpt>
      <trkpt lat="49.82353" lon="2.41178">
        <ele>48.3</ele>
        <time>2023-04-19T13:43:24Z</time>
      </trkpt>
      <trkpt lat="49.82354" lon="2.41178">
        <ele>48.2</ele>
        <time>2023-04-19T13:43:25Z</time>
      </trkpt>
      <trkpt lat="49.82354" lon="2.41177">
        <ele>48.2</ele>
        <time>2023-04-19T13:43:26Z</time>
      </trkpt>
      <trkpt lat="49.82355" lon="2.41176">
        <ele>48.1</ele>
        <time>2023-04-19T13:43:27Z</time>
      </trkpt>
      <trkpt lat="49.82356" lon="2.41175">
        <ele>48.1</ele>
        <time>2023-04-19T13:43:28Z</time>
      </trkpt>
      <trkpt lat="49.82357" lon="2.41174">
        <ele>48.1</ele>
        <time>2023-04-19T13:43:29Z</time>
      </trkpt>
      <trkpt lat="49.82358" lon="2.41174">
        <ele>48</ele>
        <time>2023-04-19T13:43:30Z</time>
      </trkpt>
      <trkpt lat="49.8236" lon="2.41173">
        <ele>47.9</ele>
        <time>2023-04-19T13:43:31Z</time>
      </trkpt>
      <trkpt lat="49.82361" lon="2.41173">
        <ele>47.9</ele>
        <time>2023-04-19T13:43:32Z</time>
      </trkpt>
      <trkpt lat="49.82362" lon="2.41173">
        <ele>47.9</ele>
        <time>2023-04-19T13:43:34Z</time>
      </trkpt>
      <trkpt lat="49.82363" lon="2.41172">
        <ele>47.8</ele>
        <time>2023-04-19T13:43:35Z</time>
      </trkpt>
      <trkpt lat="49.82364" lon="2.41172">
        <ele>47.8</ele>
        <time>2023-04-19T13:43:36Z</time>
      </trkpt>
      <trkpt lat="49.82365" lon="2.41172">
        <ele>47.7</ele>
        <time>2023-04-19T13:43:37Z</time>
      </trkpt>
      <trkpt lat="49.82366" lon="2.41171">
        <ele>47.7</ele>
        <time>2023-04-19T13:43:38Z</time>
      </trkpt>
      <trkpt lat="49.82367" lon="2.4117">
        <ele>47.6</ele>
        <time>2023-04-19T13:43:39Z</time>
      </trkpt>
      <trkpt lat="49.82369" lon="2.41168">
        <ele>47.6</ele>
        <time>2023-04-19T13:43:41Z</time>
      </trkpt>
      <trkpt lat="49.8237" lon="2.41167">
        <ele>47.5</ele>
        <time>2023-04-19T13:43:42Z</time>
      </trkpt>
      <trkpt lat="49.82372" lon="2.41168">
        <ele>47.4</ele>
        <time>2023-04-19T13:43:43Z</time>
      </trkpt>
      <trkpt lat="49.82373" lon="2.41168">
        <ele>47.4</ele>
        <time>2023-04-19T13:43:44Z</time>
      </trkpt>
      <trkpt lat="49.82374" lon="2.41168">
        <ele>47.4</ele>
        <time>2023-04-19T13:43:45Z</time>
      </trkpt>
      <trkpt lat="49.82375" lon="2.41168">
        <ele>47.3</ele>
        <time>2023-04-19T13:43:47Z</time>
      </trkpt>
      <trkpt lat="49.82377" lon="2.41168">
        <ele>47.3</ele>
        <time>2023-04-19T13:43:48Z</time>
      </trkpt>
      <trkpt lat="49.82377" lon="2.41168">
        <ele>47.3</ele>
        <time>2023-04-19T13:43:49Z</time>
      </trkpt>
      <trkpt lat="49.82379" lon="2.41167">
        <ele>47.2</ele>
        <time>2023-04-19T13:43:50Z</time>
      </trkpt>
      <trkpt lat="49.8238" lon="2.41166">
        <ele>47.2</ele>
        <time>2023-04-19T13:43:51Z</time>
      </trkpt>
      <trkpt lat="49.82381" lon="2.41165">
        <ele>47.1</ele>
        <time>2023-04-19T13:43:52Z</time>
      </trkpt>
      <trkpt lat="49.82382" lon="2.41163">
        <ele>47.1</ele>
        <time>2023-04-19T13:43:53Z</time>
      </trkpt>
      <trkpt lat="49.82383" lon="2.41162">
        <ele>47</ele>
        <time>2023-04-19T13:43:54Z</time>
      </trkpt>
      <trkpt lat="49.82384" lon="2.41161">
        <ele>47</ele>
        <time>2023-04-19T13:43:55Z</time>
      </trkpt>
      <trkpt lat="49.82385" lon="2.4116">
        <ele>46.9</ele>
        <time>2023-04-19T13:43:56Z</time>
      </trkpt>
      <trkpt lat="49.82386" lon="2.41158">
        <ele>46.9</ele>
        <time>2023-04-19T13:43:58Z</time>
      </trkpt>
      <trkpt lat="49.82387" lon="2.41157">
        <ele>46.8</ele>
        <time>2023-04-19T13:43:59Z</time>
      </trkpt>
      <trkpt lat="49.82388" lon="2.41156">
        <ele>46.8</ele>
        <time>2023-04-19T13:44:00Z</time>
      </trkpt>
      <trkpt lat="49.82389" lon="2.41155">
        <ele>46.7</ele>
        <time>2023-04-19T13:44:01Z</time>
      </trkpt>
      <trkpt lat="49.82391" lon="2.41154">
        <ele>46.7</ele>
        <time>2023-04-19T13:44:02Z</time>
      </trkpt>
      <trkpt lat="49.82392" lon="2.41154">
        <ele>46.6</ele>
        <time>2023-04-19T13:44:03Z</time>
      </trkpt>
      <trkpt lat="49.82393" lon="2.41154">
        <ele>46.6</ele>
        <time>2023-04-19T13:44:04Z</time>
      </trkpt>
      <trkpt lat="49.82395" lon="2.41153">
        <ele>46.5</ele>
        <time>2023-04-19T13:44:05Z</time>
      </trkpt>
      <trkpt lat="49.82396" lon="2.41153">
        <ele>46.5</ele>
        <time>2023-04-19T13:44:06Z</time>
      </trkpt>
      <trkpt lat="49.82397" lon="2.41152">
        <ele>46.4</ele>
        <time>2023-04-19T13:44:07Z</time>
      </trkpt>
      <trkpt lat="49.82399" lon="2.41152">
        <ele>46.3</ele>
        <time>2023-04-19T13:44:09Z</time>
      </trkpt>
      <trkpt lat="49.824" lon="2.41151">
        <ele>46.3</ele>
        <time>2023-04-19T13:44:10Z</time>
      </trkpt>
      <trkpt lat="49.82401" lon="2.41151">
        <ele>46.2</ele>
        <time>2023-04-19T13:44:11Z</time>
      </trkpt>
      <trkpt lat="49.82403" lon="2.4115">
        <ele>46.2</ele>
        <time>2023-04-19T13:44:12Z</time>
      </trkpt>
      <trkpt lat="49.82404" lon="2.4115">
        <ele>46.1</ele>
        <time>2023-04-19T13:44:13Z</time>
      </trkpt>
      <trkpt lat="49.82404" lon="2.4115">
        <ele>46.1</ele>
        <time>2023-04-19T13:44:14Z</time>
      </trkpt>
      <trkpt lat="49.82407" lon="2.41148">
        <ele>46</ele>
        <time>2023-04-19T13:44:16Z</time>
      </trkpt>
      <trkpt lat="49.82408" lon="2.41148">
        <ele>45.9</ele>
        <time>2023-04-19T13:44:17Z</time>
      </trkpt>
      <trkpt lat="49.82409" lon="2.41148">
        <ele>45.9</ele>
        <time>2023-04-19T13:44:18Z</time>
      </trkpt>
      <trkpt lat="49.82411" lon="2.41147">
        <ele>45.8</ele>
        <time>2023-04-19T13:44:19Z</time>
      </trkpt>
      <trkpt lat="49.82412" lon="2.41147">
        <ele>45.7</ele>
        <time>2023-04-19T13:44:20Z</time>
      </trkpt>
      <trkpt lat="49.82414" lon="2.41146">
        <ele>45.7</ele>
        <time>2023-04-19T13:44:21Z</time>
      </trkpt>
      <trkpt lat="49.82415" lon="2.41146">
        <ele>45.6</ele>
        <time>2023-04-19T13:44:22Z</time>
      </trkpt>
      <trkpt lat="49.82416" lon="2.41146">
        <ele>45.6</ele>
        <time>2023-04-19T13:44:23Z</time>
      </trkpt>
      <trkpt lat="49.82418" lon="2.41145">
        <ele>45.5</ele>
        <time>2023-04-19T13:44:24Z</time>
      </trkpt>
      <trkpt lat="49.82419" lon="2.41144">
        <ele>45.5</ele>
        <time>2023-04-19T13:44:26Z</time>
      </trkpt>
      <trkpt lat="49.8242" lon="2.41144">
        <ele>45.4</ele>
        <time>2023-04-19T13:44:27Z</time>
      </trkpt>
      <trkpt lat="49.82421" lon="2.41144">
        <ele>45.4</ele>
        <time>2023-04-19T13:44:28Z</time>
      </trkpt>
      <trkpt lat="49.82423" lon="2.41143">
        <ele>45.3</ele>
        <time>2023-04-19T13:44:29Z</time>
      </trkpt>
      <trkpt lat="49.82424" lon="2.41142">
        <ele>45.3</ele>
        <time>2023-04-19T13:44:30Z</time>
      </trkpt>
      <trkpt lat="49.82425" lon="2.41142">
        <ele>45.2</ele>
        <time>2023-04-19T13:44:31Z</time>
      </trkpt>
      <trkpt lat="49.82426" lon="2.41141">
        <ele>45.2</ele>
        <time>2023-04-19T13:44:32Z</time>
      </trkpt>
      <trkpt lat="49.82428" lon="2.4114">
        <ele>45.1</ele>
        <time>2023-04-19T13:44:33Z</time>
      </trkpt>
      <trkpt lat="49.82428" lon="2.4114">
        <ele>45.1</ele>
        <time>2023-04-19T13:44:34Z</time>
      </trkpt>
      <trkpt lat="49.82429" lon="2.41139">
        <ele>45.1</ele>
        <time>2023-04-19T13:44:35Z</time>
      </trkpt>
      <trkpt lat="49.82432" lon="2.41138">
        <ele>45</ele>
        <time>2023-04-19T13:44:36Z</time>
      </trkpt>
      <trkpt lat="49.82433" lon="2.41137">
        <ele>44.9</ele>
        <time>2023-04-19T13:44:38Z</time>
      </trkpt>
      <trkpt lat="49.82434" lon="2.41137">
        <ele>44.9</ele>
        <time>2023-04-19T13:44:39Z</time>
      </trkpt>
      <trkpt lat="49.82435" lon="2.41136">
        <ele>44.8</ele>
        <time>2023-04-19T13:44:40Z</time>
      </trkpt>
      <trkpt lat="49.82436" lon="2.41136">
        <ele>44.8</ele>
        <time>2023-04-19T13:44:41Z</time>
      </trkpt>
      <trkpt lat="49.82436" lon="2.41135">
        <ele>44.8</ele>
        <time>2023-04-19T13:44:42Z</time>
      </trkpt>
      <trkpt lat="49.82437" lon="2.41135">
        <ele>44.7</ele>
        <time>2023-04-19T13:44:43Z</time>
      </trkpt>
      <trkpt lat="49.82438" lon="2.41134">
        <ele>44.7</ele>
        <time>2023-04-19T13:44:44Z</time>
      </trkpt>
      <trkpt lat="49.82439" lon="2.41133">
        <ele>44.6</ele>
        <time>2023-04-19T13:44:45Z</time>
      </trkpt>
      <trkpt lat="49.8244" lon="2.41132">
        <ele>44.6</ele>
        <time>2023-04-19T13:44:46Z</time>
      </trkpt>
      <trkpt lat="49.82441" lon="2.41131">
        <ele>44.6</ele>
        <time>2023-04-19T13:44:47Z</time>
      </trkpt>
      <trkpt lat="49.82443" lon="2.4113">
        <ele>44.5</ele>
        <time>2023-04-19T13:44:49Z</time>
      </trkpt>
      <trkpt lat="49.82444" lon="2.41129">
        <ele>44.4</ele>
        <time>2023-04-19T13:44:50Z</time>
      </trkpt>
      <trkpt lat="49.82445" lon="2.41129">
        <ele>44.4</ele>
        <time>2023-04-19T13:44:51Z</time>
      </trkpt>
      <trkpt lat="49.82446" lon="2.41129">
        <ele>44.4</ele>
        <time>2023-04-19T13:44:52Z</time>
      </trkpt>
      <trkpt lat="49.82447" lon="2.41128">
        <ele>44.3</ele>
        <time>2023-04-19T13:44:53Z</time>
      </trkpt>
      <trkpt lat="49.82447" lon="2.41128">
        <ele>44.3</ele>
        <time>2023-04-19T13:44:54Z</time>
      </trkpt>
      <trkpt lat="49.82449" lon="2.41128">
        <ele>44.2</ele>
        <time>2023-04-19T13:44:55Z</time>
      </trkpt>
      <trkpt lat="49.8245" lon="2.41128">
        <ele>44.2</ele>
        <time>2023-04-19T13:44:56Z</time>
      </trkpt>
      <trkpt lat="49.82452" lon="2.41127">
        <ele>44.1</ele>
        <time>2023-04-19T13:44:57Z</time>
      </trkpt>
      <trkpt lat="49.82453" lon="2.41127">
        <ele>44.1</ele>
        <time>2023-04-19T13:44:59Z</time>
      </trkpt>
      <trkpt lat="49.82453" lon="2.41127">
        <ele>44</ele>
        <time>2023-04-19T13:45:00Z</time>
      </trkpt>
      <trkpt lat="49.82454" lon="2.41126">
        <ele>44</ele>
        <time>2023-04-19T13:45:01Z</time>
      </trkpt>
      <trkpt lat="49.82455" lon="2.41126">
        <ele>43.9</ele>
        <time>2023-04-19T13:45:02Z</time>
      </trkpt>
      <trkpt lat="49.82457" lon="2.41125">
        <ele>43.9</ele>
        <time>2023-04-19T13:45:03Z</time>
      </trkpt>
      <trkpt lat="49.82458" lon="2.41125">
        <ele>43.8</ele>
        <time>2023-04-19T13:45:04Z</time>
      </trkpt>
      <trkpt lat="49.82459" lon="2.41124">
        <ele>43.8</ele>
        <time>2023-04-19T13:45:05Z</time>
      </trkpt>
      <trkpt lat="49.82461" lon="2.41124">
        <ele>43.7</ele>
        <time>2023-04-19T13:45:06Z</time>
      </trkpt>
      <trkpt lat="49.82462" lon="2.41123">
        <ele>43.6</ele>
        <time>2023-04-19T13:45:07Z</time>
      </trkpt>
      <trkpt lat="49.82463" lon="2.41123">
        <ele>43.6</ele>
        <time>2023-04-19T13:45:08Z</time>
      </trkpt>
      <trkpt lat="49.82465" lon="2.41122">
        <ele>43.5</ele>
        <time>2023-04-19T13:45:10Z</time>
      </trkpt>
      <trkpt lat="49.82466" lon="2.41122">
        <ele>43.5</ele>
        <time>2023-04-19T13:45:11Z</time>
      </trkpt>
      <trkpt lat="49.82467" lon="2.41121">
        <ele>43.4</ele>
        <time>2023-04-19T13:45:12Z</time>
      </trkpt>
      <trkpt lat="49.82469" lon="2.41121">
        <ele>43.3</ele>
        <time>2023-04-19T13:45:13Z</time>
      </trkpt>
      <trkpt lat="49.8247" lon="2.4112">
        <ele>43.3</ele>
        <time>2023-04-19T13:45:14Z</time>
      </trkpt>
      <trkpt lat="49.8247" lon="2.4112">
        <ele>43.2</ele>
        <time>2023-04-19T13:45:15Z</time>
      </trkpt>
      <trkpt lat="49.82472" lon="2.4112">
        <ele>43.2</ele>
        <time>2023-04-19T13:45:17Z</time>
      </trkpt>
      <trkpt lat="49.82473" lon="2.41119">
        <ele>43.1</ele>
        <time>2023-04-19T13:45:18Z</time>
      </trkpt>
      <trkpt lat="49.82475" lon="2.41118">
        <ele>43.1</ele>
        <time>2023-04-19T13:45:19Z</time>
      </trkpt>
      <trkpt lat="49.82475" lon="2.41118">
        <ele>43</ele>
        <time>2023-04-19T13:45:20Z</time>
      </trkpt>
      <trkpt lat="49.82476" lon="2.41117">
        <ele>43</ele>
        <time>2023-04-19T13:45:21Z</time>
      </trkpt>
      <trkpt lat="49.82478" lon="2.41116">
        <ele>42.9</ele>
        <time>2023-04-19T13:45:22Z</time>
      </trkpt>
      <trkpt lat="49.82479" lon="2.41115">
        <ele>42.9</ele>
        <time>2023-04-19T13:45:23Z</time>
      </trkpt>
      <trkpt lat="49.8248" lon="2.41115">
        <ele>42.8</ele>
        <time>2023-04-19T13:45:24Z</time>
      </trkpt>
      <trkpt lat="49.82482" lon="2.41114">
        <ele>42.7</ele>
        <time>2023-04-19T13:45:26Z</time>
      </trkpt>
      <trkpt lat="49.82483" lon="2.41113">
        <ele>42.7</ele>
        <time>2023-04-19T13:45:27Z</time>
      </trkpt>
      <trkpt lat="49.82485" lon="2.41112">
        <ele>42.6</ele>
        <time>2023-04-19T13:45:28Z</time>
      </trkpt>
      <trkpt lat="49.82486" lon="2.41112">
        <ele>42.6</ele>
        <time>2023-04-19T13:45:29Z</time>
      </trkpt>
      <trkpt lat="49.82487" lon="2.41111">
        <ele>42.5</ele>
        <time>2023-04-19T13:45:30Z</time>
      </trkpt>
      <trkpt lat="49.82489" lon="2.4111">
        <ele>42.4</ele>
        <time>2023-04-19T13:45:32Z</time>
      </trkpt>
      <trkpt lat="49.8249" lon="2.4111">
        <ele>42.4</ele>
        <time>2023-04-19T13:45:33Z</time>
      </trkpt>
      <trkpt lat="49.82492" lon="2.41109">
        <ele>42.3</ele>
        <time>2023-04-19T13:45:34Z</time>
      </trkpt>
      <trkpt lat="49.82493" lon="2.41109">
        <ele>42.3</ele>
        <time>2023-04-19T13:45:35Z</time>
      </trkpt>
      <trkpt lat="49.82496" lon="2.41108">
        <ele>42.2</ele>
        <time>2023-04-19T13:45:36Z</time>
      </trkpt>
      <trkpt lat="49.82497" lon="2.41108">
        <ele>42.1</ele>
        <time>2023-04-19T13:45:38Z</time>
      </trkpt>
      <trkpt lat="49.82498" lon="2.41107">
        <ele>42.1</ele>
        <time>2023-04-19T13:45:39Z</time>
      </trkpt>
      <trkpt lat="49.82499" lon="2.41107">
        <ele>42</ele>
        <time>2023-04-19T13:45:41Z</time>
      </trkpt>
      <trkpt lat="49.825" lon="2.41106">
        <ele>42</ele>
        <time>2023-04-19T13:45:42Z</time>
      </trkpt>
      <trkpt lat="49.82502" lon="2.41105">
        <ele>41.9</ele>
        <time>2023-04-19T13:45:43Z</time>
      </trkpt>
      <trkpt lat="49.82503" lon="2.41105">
        <ele>41.9</ele>
        <time>2023-04-19T13:45:44Z</time>
      </trkpt>
      <trkpt lat="49.82504" lon="2.41104">
        <ele>41.9</ele>
        <time>2023-04-19T13:45:45Z</time>
      </trkpt>
      <trkpt lat="49.82505" lon="2.41104">
        <ele>41.8</ele>
        <time>2023-04-19T13:45:46Z</time>
      </trkpt>
      <trkpt lat="49.82506" lon="2.41103">
        <ele>41.8</ele>
        <time>2023-04-19T13:45:48Z</time>
      </trkpt>
      <trkpt lat="49.82507" lon="2.41102">
        <ele>41.8</ele>
        <time>2023-04-19T13:45:49Z</time>
      </trkpt>
      <trkpt lat="49.82508" lon="2.41102">
        <ele>41.7</ele>
        <time>2023-04-19T13:45:50Z</time>
      </trkpt>
      <trkpt lat="49.82509" lon="2.41101">
        <ele>41.7</ele>
        <time>2023-04-19T13:45:51Z</time>
      </trkpt>
      <trkpt lat="49.82511" lon="2.41099">
        <ele>41.6</ele>
        <time>2023-04-19T13:45:52Z</time>
      </trkpt>
      <trkpt lat="49.82511" lon="2.41099">
        <ele>41.6</ele>
        <time>2023-04-19T13:45:53Z</time>
      </trkpt>
      <trkpt lat="49.82512" lon="2.41098">
        <ele>41.6</ele>
        <time>2023-04-19T13:45:54Z</time>
      </trkpt>
      <trkpt lat="49.82513" lon="2.41098">
        <ele>41.5</ele>
        <time>2023-04-19T13:45:55Z</time>
      </trkpt>
      <trkpt lat="49.82514" lon="2.41097">
        <ele>41.5</ele>
        <time>2023-04-19T13:45:56Z</time>
      </trkpt>
      <trkpt lat="49.82515" lon="2.41097">
        <ele>41.5</ele>
        <time>2023-04-19T13:45:58Z</time>
      </trkpt>
      <trkpt lat="49.82517" lon="2.41096">
        <ele>41.4</ele>
        <time>2023-04-19T13:45:59Z</time>
      </trkpt>
      <trkpt lat="49.82518" lon="2.41095">
        <ele>41.4</ele>
        <time>2023-04-19T13:46:00Z</time>
      </trkpt>
      <trkpt lat="49.82519" lon="2.41094">
        <ele>41.3</ele>
        <time>2023-04-19T13:46:01Z</time>
      </trkpt>
      <trkpt lat="49.8252" lon="2.41093">
        <ele>41.3</ele>
        <time>2023-04-19T13:46:02Z</time>
      </trkpt>
      <trkpt lat="49.82522" lon="2.41092">
        <ele>41.3</ele>
        <time>2023-04-19T13:46:03Z</time>
      </trkpt>
      <trkpt lat="49.82523" lon="2.41092">
        <ele>41.2</ele>
        <time>2023-04-19T13:46:04Z</time>
      </trkpt>
      <trkpt lat="49.82524" lon="2.41091">
        <ele>41.2</ele>
        <time>2023-04-19T13:46:05Z</time>
      </trkpt>
      <trkpt lat="49.82526" lon="2.41091">
        <ele>41.1</ele>
        <time>2023-04-19T13:46:07Z</time>
      </trkpt>
      <trkpt lat="49.82527" lon="2.4109">
        <ele>41.1</ele>
        <time>2023-04-19T13:46:08Z</time>
      </trkpt>
      <trkpt lat="49.82528" lon="2.4109">
        <ele>41.1</ele>
        <time>2023-04-19T13:46:09Z</time>
      </trkpt>
      <trkpt lat="49.82529" lon="2.4109">
        <ele>41.1</ele>
        <time>2023-04-19T13:46:10Z</time>
      </trkpt>
      <trkpt lat="49.82531" lon="2.41089">
        <ele>41</ele>
        <time>2023-04-19T13:46:12Z</time>
      </trkpt>
      <trkpt lat="49.82533" lon="2.41089">
        <ele>41</ele>
        <time>2023-04-19T13:46:13Z</time>
      </trkpt>
      <trkpt lat="49.82534" lon="2.41089">
        <ele>41</ele>
        <time>2023-04-19T13:46:14Z</time>
      </trkpt>
      <trkpt lat="49.82536" lon="2.41088">
        <ele>41</ele>
        <time>2023-04-19T13:46:15Z</time>
      </trkpt>
      <trkpt lat="49.82537" lon="2.41088">
        <ele>40.9</ele>
        <time>2023-04-19T13:46:17Z</time>
      </trkpt>
      <trkpt lat="49.82537" lon="2.41088">
        <ele>40.9</ele>
        <time>2023-04-19T13:46:18Z</time>
      </trkpt>
      <trkpt lat="49.82538" lon="2.41088">
        <ele>40.9</ele>
        <time>2023-04-19T13:46:19Z</time>
      </trkpt>
      <trkpt lat="49.82539" lon="2.41088">
        <ele>40.9</ele>
        <time>2023-04-19T13:46:20Z</time>
      </trkpt>
      <trkpt lat="49.82541" lon="2.41088">
        <ele>40.9</ele>
        <time>2023-04-19T13:46:21Z</time>
      </trkpt>
      <trkpt lat="49.82542" lon="2.41088">
        <ele>40.9</ele>
        <time>2023-04-19T13:46:22Z</time>
      </trkpt>
      <trkpt lat="49.82543" lon="2.41087">
        <ele>40.9</ele>
        <time>2023-04-19T13:46:24Z</time>
      </trkpt>
      <trkpt lat="49.82544" lon="2.41087">
        <ele>40.9</ele>
        <time>2023-04-19T13:46:25Z</time>
      </trkpt>
      <trkpt lat="49.82545" lon="2.41086">
        <ele>40.9</ele>
        <time>2023-04-19T13:46:26Z</time>
      </trkpt>
      <trkpt lat="49.82546" lon="2.41086">
        <ele>40.8</ele>
        <time>2023-04-19T13:46:27Z</time>
      </trkpt>
      <trkpt lat="49.82547" lon="2.41086">
        <ele>40.8</ele>
        <time>2023-04-19T13:46:28Z</time>
      </trkpt>
      <trkpt lat="49.82548" lon="2.41086">
        <ele>40.8</ele>
        <time>2023-04-19T13:46:29Z</time>
      </trkpt>
      <trkpt lat="49.8255" lon="2.41086">
        <ele>40.8</ele>
        <time>2023-04-19T13:46:31Z</time>
      </trkpt>
      <trkpt lat="49.82552" lon="2.41085">
        <ele>40.8</ele>
        <time>2023-04-19T13:46:32Z</time>
      </trkpt>
      <trkpt lat="49.82552" lon="2.41086">
        <ele>40.8</ele>
        <time>2023-04-19T13:46:33Z</time>
      </trkpt>
      <trkpt lat="49.82554" lon="2.41086">
        <ele>40.8</ele>
        <time>2023-04-19T13:46:34Z</time>
      </trkpt>
      <trkpt lat="49.82555" lon="2.41086">
        <ele>40.8</ele>
        <time>2023-04-19T13:46:35Z</time>
      </trkpt>
      <trkpt lat="49.82556" lon="2.41087">
        <ele>40.9</ele>
        <time>2023-04-19T13:46:36Z</time>
      </trkpt>
      <trkpt lat="49.82556" lon="2.41086">
        <ele>40.9</ele>
        <time>2023-04-19T13:46:38Z</time>
      </trkpt>
      <trkpt lat="49.82555" lon="2.41085">
        <ele>40.9</ele>
        <time>2023-04-19T13:46:39Z</time>
      </trkpt>
      <trkpt lat="49.82554" lon="2.41083">
        <ele>40.9</ele>
        <time>2023-04-19T13:46:41Z</time>
      </trkpt>
      <trkpt lat="49.82553" lon="2.41083">
        <ele>40.9</ele>
        <time>2023-04-19T13:46:42Z</time>
      </trkpt>
      <trkpt lat="49.82553" lon="2.41083">
        <ele>40.9</ele>
        <time>2023-04-19T13:46:43Z</time>
      </trkpt>
      <trkpt lat="49.82552" lon="2.41082">
        <ele>40.9</ele>
        <time>2023-04-19T13:46:45Z</time>
      </trkpt>
      <trkpt lat="49.82552" lon="2.41082">
        <ele>40.9</ele>
        <time>2023-04-19T13:46:46Z</time>
      </trkpt>
      <trkpt lat="49.82552" lon="2.41082">
        <ele>40.9</ele>
        <time>2023-04-19T13:46:48Z</time>
      </trkpt>
      <trkpt lat="49.82552" lon="2.41082">
        <ele>40.9</ele>
        <time>2023-04-19T13:46:49Z</time>
      </trkpt>
      <trkpt lat="49.82551" lon="2.41082">
        <ele>40.9</ele>
        <time>2023-04-19T13:46:51Z</time>
      </trkpt>
      <trkpt lat="49.82551" lon="2.41082">
        <ele>40.9</ele>
        <time>2023-04-19T13:46:52Z</time>
      </trkpt>
      <trkpt lat="49.82551" lon="2.41081">
        <ele>40.9</ele>
        <time>2023-04-19T13:46:53Z</time>
      </trkpt>
      <trkpt lat="49.82551" lon="2.41081">
        <ele>40.9</ele>
        <time>2023-04-19T13:46:55Z</time>
      </trkpt>
      <trkpt lat="49.82551" lon="2.41081">
        <ele>40.9</ele>
        <time>2023-04-19T13:46:56Z</time>
      </trkpt>
      <trkpt lat="49.82551" lon="2.41081">
        <ele>40.9</ele>
        <time>2023-04-19T13:46:57Z</time>
      </trkpt>
      <trkpt lat="49.82551" lon="2.41082">
        <ele>40.9</ele>
        <time>2023-04-19T13:46:58Z</time>
      </trkpt>
      <trkpt lat="49.82551" lon="2.41082">
        <ele>40.9</ele>
        <time>2023-04-19T13:46:59Z</time>
      </trkpt>
      <trkpt lat="49.82551" lon="2.41082">
        <ele>40.9</ele>
        <time>2023-04-19T13:47:00Z</time>
      </trkpt>
      <trkpt lat="49.82551" lon="2.41082">
        <ele>40.9</ele>
        <time>2023-04-19T13:47:01Z</time>
      </trkpt>
      <trkpt lat="49.82551" lon="2.41082">
        <ele>40.9</ele>
        <time>2023-04-19T13:47:02Z</time>
      </trkpt>
      <trkpt lat="49.82551" lon="2.41082">
        <ele>40.9</ele>
        <time>2023-04-19T13:47:03Z</time>
      </trkpt>
      <trkpt lat="49.82551" lon="2.41082">
        <ele>40.9</ele>
        <time>2023-04-19T13:47:04Z</time>
      </trkpt>
      <trkpt lat="49.82551" lon="2.41082">
        <ele>40.9</ele>
        <time>2023-04-19T13:47:05Z</time>
      </trkpt>
      <trkpt lat="49.82551" lon="2.41082">
        <ele>40.9</ele>
        <time>2023-04-19T13:47:06Z</time>
      </trkpt>
      <trkpt lat="49.82551" lon="2.41082">
        <ele>40.9</ele>
        <time>2023-04-19T13:47:07Z</time>
      </trkpt>
      <trkpt lat="49.82551" lon="2.41082">
        <ele>40.9</ele>
        <time>2023-04-19T13:47:08Z</time>
      </trkpt>
      <trkpt lat="49.82551" lon="2.41082">
        <ele>40.9</ele>
        <time>2023-04-19T13:47:09Z</time>
      </trkpt>
      <trkpt lat="49.82551" lon="2.41082">
        <ele>40.9</ele>
        <time>2023-04-19T13:47:10Z</time>
      </trkpt>
      <trkpt lat="49.82551" lon="2.41082">
        <ele>40.9</ele>
        <time>2023-04-19T13:47:11Z</time>
      </trkpt>
      <trkpt lat="49.82551" lon="2.41082">
        <ele>40.9</ele>
        <time>2023-04-19T13:47:12Z</time>
      </trkpt>
      <trkpt lat="49.82551" lon="2.41082">
        <ele>40.9</ele>
        <time>2023-04-19T13:47:13Z</time>
      </trkpt>
      <trkpt lat="49.82551" lon="2.41082">
        <ele>40.9</ele>
        <time>2023-04-19T13:47:14Z</time>
      </trkpt>
      <trkpt lat="49.82551" lon="2.41082">
        <ele>40.9</ele>
        <time>2023-04-19T13:47:15Z</time>
      </trkpt>
      <trkpt lat="49.82551" lon="2.41082">
        <ele>40.9</ele>
        <time>2023-04-19T13:47:16Z</time>
      </trkpt>
      <trkpt lat="49.82551" lon="2.41081">
        <ele>40.9</ele>
        <time>2023-04-19T13:47:17Z</time>
      </trkpt>
      <trkpt lat="49.8255" lon="2.41079">
        <ele>40.9</ele>
        <time>2023-04-19T13:47:18Z</time>
      </trkpt>
      <trkpt lat="49.82551" lon="2.41079">
        <ele>40.9</ele>
        <time>2023-04-19T13:47:20Z</time>
      </trkpt>
      <trkpt lat="49.82551" lon="2.41078">
        <ele>40.9</ele>
        <time>2023-04-19T13:47:21Z</time>
      </trkpt>
      <trkpt lat="49.82551" lon="2.41077">
        <ele>40.9</ele>
        <time>2023-04-19T13:47:22Z</time>
      </trkpt>
      <trkpt lat="49.82551" lon="2.41077">
        <ele>40.9</ele>
        <time>2023-04-19T13:47:23Z</time>
      </trkpt>
      <trkpt lat="49.82551" lon="2.41077">
        <ele>40.9</ele>
        <time>2023-04-19T13:47:25Z</time>
      </trkpt>
      <trkpt lat="49.82551" lon="2.41077">
        <ele>40.9</ele>
        <time>2023-04-19T13:47:26Z</time>
      </trkpt>
      <trkpt lat="49.82551" lon="2.41077">
        <ele>40.9</ele>
        <time>2023-04-19T13:47:27Z</time>
      </trkpt>
      <trkpt lat="49.82552" lon="2.41077">
        <ele>40.9</ele>
        <time>2023-04-19T13:47:29Z</time>
      </trkpt>
      <trkpt lat="49.82552" lon="2.41077">
        <ele>40.9</ele>
        <time>2023-04-19T13:47:31Z</time>
      </trkpt>
      <trkpt lat="49.82553" lon="2.41078">
        <ele>40.9</ele>
        <time>2023-04-19T13:47:32Z</time>
      </trkpt>
      <trkpt lat="49.82554" lon="2.41078">
        <ele>40.9</ele>
        <time>2023-04-19T13:47:33Z</time>
      </trkpt>
      <trkpt lat="49.82555" lon="2.41079">
        <ele>40.9</ele>
        <time>2023-04-19T13:47:34Z</time>
      </trkpt>
      <trkpt lat="49.82556" lon="2.41078">
        <ele>40.9</ele>
        <time>2023-04-19T13:47:35Z</time>
      </trkpt>
      <trkpt lat="49.82557" lon="2.41078">
        <ele>40.9</ele>
        <time>2023-04-19T13:47:36Z</time>
      </trkpt>
      <trkpt lat="49.82558" lon="2.41077">
        <ele>40.9</ele>
        <time>2023-04-19T13:47:38Z</time>
      </trkpt>
      <trkpt lat="49.82559" lon="2.41076">
        <ele>40.9</ele>
        <time>2023-04-19T13:47:39Z</time>
      </trkpt>
      <trkpt lat="49.82559" lon="2.41075">
        <ele>40.9</ele>
        <time>2023-04-19T13:47:40Z</time>
      </trkpt>
      <trkpt lat="49.8256" lon="2.41075">
        <ele>40.9</ele>
        <time>2023-04-19T13:47:41Z</time>
      </trkpt>
      <trkpt lat="49.8256" lon="2.41073">
        <ele>40.9</ele>
        <time>2023-04-19T13:47:42Z</time>
      </trkpt>
      <trkpt lat="49.82561" lon="2.41071">
        <ele>40.9</ele>
        <time>2023-04-19T13:47:43Z</time>
      </trkpt>
      <trkpt lat="49.82561" lon="2.41069">
        <ele>40.9</ele>
        <time>2023-04-19T13:47:45Z</time>
      </trkpt>
      <trkpt lat="49.82562" lon="2.41066">
        <ele>40.9</ele>
        <time>2023-04-19T13:47:46Z</time>
      </trkpt>
      <trkpt lat="49.82562" lon="2.41065">
        <ele>40.9</ele>
        <time>2023-04-19T13:47:47Z</time>
      </trkpt>
      <trkpt lat="49.82562" lon="2.41063">
        <ele>40.9</ele>
        <time>2023-04-19T13:47:48Z</time>
      </trkpt>
      <trkpt lat="49.82562" lon="2.41061">
        <ele>40.9</ele>
        <time>2023-04-19T13:47:49Z</time>
      </trkpt>
      <trkpt lat="49.82561" lon="2.41059">
        <ele>40.9</ele>
        <time>2023-04-19T13:47:50Z</time>
      </trkpt>
      <trkpt lat="49.82561" lon="2.41057">
        <ele>40.9</ele>
        <time>2023-04-19T13:47:51Z</time>
      </trkpt>
      <trkpt lat="49.82561" lon="2.41056">
        <ele>40.9</ele>
        <time>2023-04-19T13:47:52Z</time>
      </trkpt>
      <trkpt lat="49.8256" lon="2.41054">
        <ele>40.9</ele>
        <time>2023-04-19T13:47:54Z</time>
      </trkpt>
      <trkpt lat="49.8256" lon="2.41052">
        <ele>40.9</ele>
        <time>2023-04-19T13:47:55Z</time>
      </trkpt>
      <trkpt lat="49.8256" lon="2.41049">
        <ele>40.9</ele>
        <time>2023-04-19T13:47:56Z</time>
      </trkpt>
      <trkpt lat="49.82559" lon="2.41046">
        <ele>41</ele>
        <time>2023-04-19T13:47:57Z</time>
      </trkpt>
      <trkpt lat="49.82559" lon="2.41045">
        <ele>41</ele>
        <time>2023-04-19T13:47:58Z</time>
      </trkpt>
      <trkpt lat="49.82559" lon="2.41043">
        <ele>41</ele>
        <time>2023-04-19T13:47:59Z</time>
      </trkpt>
      <trkpt lat="49.82558" lon="2.41039">
        <ele>41</ele>
        <time>2023-04-19T13:48:00Z</time>
      </trkpt>
      <trkpt lat="49.82558" lon="2.41038">
        <ele>41.1</ele>
        <time>2023-04-19T13:48:01Z</time>
      </trkpt>
      <trkpt lat="49.82558" lon="2.41034">
        <ele>41.1</ele>
        <time>2023-04-19T13:48:02Z</time>
      </trkpt>
      <trkpt lat="49.82558" lon="2.41032">
        <ele>41.1</ele>
        <time>2023-04-19T13:48:04Z</time>
      </trkpt>
      <trkpt lat="49.82557" lon="2.41031">
        <ele>41.1</ele>
        <time>2023-04-19T13:48:05Z</time>
      </trkpt>
      <trkpt lat="49.82557" lon="2.41029">
        <ele>41.2</ele>
        <time>2023-04-19T13:48:06Z</time>
      </trkpt>
      <trkpt lat="49.82557" lon="2.41027">
        <ele>41.2</ele>
        <time>2023-04-19T13:48:07Z</time>
      </trkpt>
      <trkpt lat="49.82556" lon="2.41026">
        <ele>41.2</ele>
        <time>2023-04-19T13:48:08Z</time>
      </trkpt>
      <trkpt lat="49.82555" lon="2.41024">
        <ele>41.2</ele>
        <time>2023-04-19T13:48:09Z</time>
      </trkpt>
      <trkpt lat="49.82555" lon="2.41022">
        <ele>41.2</ele>
        <time>2023-04-19T13:48:10Z</time>
      </trkpt>
      <trkpt lat="49.82555" lon="2.41019">
        <ele>41.3</ele>
        <time>2023-04-19T13:48:11Z</time>
      </trkpt>
      <trkpt lat="49.82554" lon="2.41017">
        <ele>41.3</ele>
        <time>2023-04-19T13:48:13Z</time>
      </trkpt>
      <trkpt lat="49.82554" lon="2.41015">
        <ele>41.3</ele>
        <time>2023-04-19T13:48:14Z</time>
      </trkpt>
      <trkpt lat="49.82553" lon="2.41013">
        <ele>41.3</ele>
        <time>2023-04-19T13:48:15Z</time>
      </trkpt>
      <trkpt lat="49.82553" lon="2.41012">
        <ele>41.3</ele>
        <time>2023-04-19T13:48:16Z</time>
      </trkpt>
      <trkpt lat="49.82552" lon="2.41011">
        <ele>41.3</ele>
        <time>2023-04-19T13:48:17Z</time>
      </trkpt>
      <trkpt lat="49.82551" lon="2.41009">
        <ele>41.3</ele>
        <time>2023-04-19T13:48:18Z</time>
      </trkpt>
      <trkpt lat="49.8255" lon="2.41007">
        <ele>41.3</ele>
        <time>2023-04-19T13:48:19Z</time>
      </trkpt>
      <trkpt lat="49.8255" lon="2.41006">
        <ele>41.3</ele>
        <time>2023-04-19T13:48:21Z</time>
      </trkpt>
      <trkpt lat="49.82549" lon="2.41005">
        <ele>41.3</ele>
        <time>2023-04-19T13:48:22Z</time>
      </trkpt>
      <trkpt lat="49.82549" lon="2.41003">
        <ele>41.3</ele>
        <time>2023-04-19T13:48:23Z</time>
      </trkpt>
      <trkpt lat="49.82548" lon="2.41002">
        <ele>41.3</ele>
        <time>2023-04-19T13:48:24Z</time>
      </trkpt>
      <trkpt lat="49.82548" lon="2.41">
        <ele>41.3</ele>
        <time>2023-04-19T13:48:25Z</time>
      </trkpt>
      <trkpt lat="49.82547" lon="2.40999">
        <ele>41.3</ele>
        <time>2023-04-19T13:48:26Z</time>
      </trkpt>
      <trkpt lat="49.82547" lon="2.40997">
        <ele>41.3</ele>
        <time>2023-04-19T13:48:27Z</time>
      </trkpt>
      <trkpt lat="49.82546" lon="2.40995">
        <ele>41.3</ele>
        <time>2023-04-19T13:48:29Z</time>
      </trkpt>
      <trkpt lat="49.82546" lon="2.40994">
        <ele>41.3</ele>
        <time>2023-04-19T13:48:30Z</time>
      </trkpt>
      <trkpt lat="49.82545" lon="2.40991">
        <ele>41.3</ele>
        <time>2023-04-19T13:48:31Z</time>
      </trkpt>
      <trkpt lat="49.82544" lon="2.4099">
        <ele>41.3</ele>
        <time>2023-04-19T13:48:32Z</time>
      </trkpt>
      <trkpt lat="49.82544" lon="2.40989">
        <ele>41.3</ele>
        <time>2023-04-19T13:48:33Z</time>
      </trkpt>
      <trkpt lat="49.82543" lon="2.40987">
        <ele>41.3</ele>
        <time>2023-04-19T13:48:34Z</time>
      </trkpt>
      <trkpt lat="49.82542" lon="2.40986">
        <ele>41.3</ele>
        <time>2023-04-19T13:48:35Z</time>
      </trkpt>
      <trkpt lat="49.82542" lon="2.40985">
        <ele>41.3</ele>
        <time>2023-04-19T13:48:36Z</time>
      </trkpt>
      <trkpt lat="49.8254" lon="2.40983">
        <ele>41.3</ele>
        <time>2023-04-19T13:48:37Z</time>
      </trkpt>
      <trkpt lat="49.8254" lon="2.40981">
        <ele>41.3</ele>
        <time>2023-04-19T13:48:39Z</time>
      </trkpt>
      <trkpt lat="49.82539" lon="2.4098">
        <ele>41.3</ele>
        <time>2023-04-19T13:48:40Z</time>
      </trkpt>
      <trkpt lat="49.82538" lon="2.40978">
        <ele>41.3</ele>
        <time>2023-04-19T13:48:41Z</time>
      </trkpt>
      <trkpt lat="49.82538" lon="2.40977">
        <ele>41.3</ele>
        <time>2023-04-19T13:48:42Z</time>
      </trkpt>
      <trkpt lat="49.82537" lon="2.40976">
        <ele>41.3</ele>
        <time>2023-04-19T13:48:43Z</time>
      </trkpt>
      <trkpt lat="49.82536" lon="2.40975">
        <ele>41.3</ele>
        <time>2023-04-19T13:48:44Z</time>
      </trkpt>
      <trkpt lat="49.82535" lon="2.40973">
        <ele>41.3</ele>
        <time>2023-04-19T13:48:45Z</time>
      </trkpt>
      <trkpt lat="49.82534" lon="2.40972">
        <ele>41.3</ele>
        <time>2023-04-19T13:48:47Z</time>
      </trkpt>
      <trkpt lat="49.82533" lon="2.40971">
        <ele>41.3</ele>
        <time>2023-04-19T13:48:48Z</time>
      </trkpt>
      <trkpt lat="49.82532" lon="2.4097">
        <ele>41.3</ele>
        <time>2023-04-19T13:48:49Z</time>
      </trkpt>
      <trkpt lat="49.82532" lon="2.40969">
        <ele>41.3</ele>
        <time>2023-04-19T13:48:50Z</time>
      </trkpt>
      <trkpt lat="49.82531" lon="2.40968">
        <ele>41.3</ele>
        <time>2023-04-19T13:48:51Z</time>
      </trkpt>
      <trkpt lat="49.8253" lon="2.40967">
        <ele>41.3</ele>
        <time>2023-04-19T13:48:52Z</time>
      </trkpt>
      <trkpt lat="49.8253" lon="2.40965">
        <ele>41.3</ele>
        <time>2023-04-19T13:48:54Z</time>
      </trkpt>
      <trkpt lat="49.82529" lon="2.40964">
        <ele>41.3</ele>
        <time>2023-04-19T13:48:55Z</time>
      </trkpt>
      <trkpt lat="49.82528" lon="2.40963">
        <ele>41.3</ele>
        <time>2023-04-19T13:48:56Z</time>
      </trkpt>
      <trkpt lat="49.82527" lon="2.40961">
        <ele>41.3</ele>
        <time>2023-04-19T13:48:57Z</time>
      </trkpt>
      <trkpt lat="49.82526" lon="2.40961">
        <ele>41.3</ele>
        <time>2023-04-19T13:48:58Z</time>
      </trkpt>
      <trkpt lat="49.82525" lon="2.4096">
        <ele>41.3</ele>
        <time>2023-04-19T13:48:59Z</time>
      </trkpt>
      <trkpt lat="49.82523" lon="2.40957">
        <ele>41.3</ele>
        <time>2023-04-19T13:49:00Z</time>
      </trkpt>
      <trkpt lat="49.82523" lon="2.40956">
        <ele>41.3</ele>
        <time>2023-04-19T13:49:02Z</time>
      </trkpt>
      <trkpt lat="49.82522" lon="2.40954">
        <ele>41.3</ele>
        <time>2023-04-19T13:49:03Z</time>
      </trkpt>
      <trkpt lat="49.82521" lon="2.40953">
        <ele>41.3</ele>
        <time>2023-04-19T13:49:04Z</time>
      </trkpt>
      <trkpt lat="49.8252" lon="2.40952">
        <ele>41.3</ele>
        <time>2023-04-19T13:49:05Z</time>
      </trkpt>
      <trkpt lat="49.8252" lon="2.40951">
        <ele>41.3</ele>
        <time>2023-04-19T13:49:06Z</time>
      </trkpt>
      <trkpt lat="49.82518" lon="2.40949">
        <ele>41.3</ele>
        <time>2023-04-19T13:49:07Z</time>
      </trkpt>
      <trkpt lat="49.82517" lon="2.40947">
        <ele>41.3</ele>
        <time>2023-04-19T13:49:08Z</time>
      </trkpt>
      <trkpt lat="49.82516" lon="2.40946">
        <ele>41.3</ele>
        <time>2023-04-19T13:49:09Z</time>
      </trkpt>
      <trkpt lat="49.82515" lon="2.40943">
        <ele>41.3</ele>
        <time>2023-04-19T13:49:11Z</time>
      </trkpt>
      <trkpt lat="49.82514" lon="2.40942">
        <ele>41.3</ele>
        <time>2023-04-19T13:49:12Z</time>
      </trkpt>
      <trkpt lat="49.82514" lon="2.40941">
        <ele>41.3</ele>
        <time>2023-04-19T13:49:13Z</time>
      </trkpt>
      <trkpt lat="49.82512" lon="2.40939">
        <ele>41.3</ele>
        <time>2023-04-19T13:49:14Z</time>
      </trkpt>
      <trkpt lat="49.82512" lon="2.40938">
        <ele>41.3</ele>
        <time>2023-04-19T13:49:15Z</time>
      </trkpt>
      <trkpt lat="49.82511" lon="2.40937">
        <ele>41.3</ele>
        <time>2023-04-19T13:49:16Z</time>
      </trkpt>
      <trkpt lat="49.8251" lon="2.40936">
        <ele>41.3</ele>
        <time>2023-04-19T13:49:17Z</time>
      </trkpt>
      <trkpt lat="49.8251" lon="2.40935">
        <ele>41.3</ele>
        <time>2023-04-19T13:49:19Z</time>
      </trkpt>
      <trkpt lat="49.82509" lon="2.40934">
        <ele>41.3</ele>
        <time>2023-04-19T13:49:20Z</time>
      </trkpt>
      <trkpt lat="49.82508" lon="2.40932">
        <ele>41.3</ele>
        <time>2023-04-19T13:49:21Z</time>
      </trkpt>
      <trkpt lat="49.82507" lon="2.40931">
        <ele>41.3</ele>
        <time>2023-04-19T13:49:22Z</time>
      </trkpt>
      <trkpt lat="49.82506" lon="2.4093">
        <ele>41.4</ele>
        <time>2023-04-19T13:49:23Z</time>
      </trkpt>
      <trkpt lat="49.82505" lon="2.40929">
        <ele>41.4</ele>
        <time>2023-04-19T13:49:24Z</time>
      </trkpt>
      <trkpt lat="49.82504" lon="2.40928">
        <ele>41.4</ele>
        <time>2023-04-19T13:49:25Z</time>
      </trkpt>
      <trkpt lat="49.82503" lon="2.40927">
        <ele>41.4</ele>
        <time>2023-04-19T13:49:26Z</time>
      </trkpt>
      <trkpt lat="49.82502" lon="2.40925">
        <ele>41.4</ele>
        <time>2023-04-19T13:49:28Z</time>
      </trkpt>
      <trkpt lat="49.82502" lon="2.40924">
        <ele>41.4</ele>
        <time>2023-04-19T13:49:29Z</time>
      </trkpt>
      <trkpt lat="49.82501" lon="2.40923">
        <ele>41.5</ele>
        <time>2023-04-19T13:49:30Z</time>
      </trkpt>
      <trkpt lat="49.82499" lon="2.40921">
        <ele>41.5</ele>
        <time>2023-04-19T13:49:31Z</time>
      </trkpt>
      <trkpt lat="49.82499" lon="2.4092">
        <ele>41.5</ele>
        <time>2023-04-19T13:49:32Z</time>
      </trkpt>
      <trkpt lat="49.82498" lon="2.40919">
        <ele>41.5</ele>
        <time>2023-04-19T13:49:33Z</time>
      </trkpt>
      <trkpt lat="49.82497" lon="2.40918">
        <ele>41.5</ele>
        <time>2023-04-19T13:49:34Z</time>
      </trkpt>
      <trkpt lat="49.82496" lon="2.40917">
        <ele>41.5</ele>
        <time>2023-04-19T13:49:36Z</time>
      </trkpt>
      <trkpt lat="49.82495" lon="2.40917">
        <ele>41.6</ele>
        <time>2023-04-19T13:49:37Z</time>
      </trkpt>
      <trkpt lat="49.82494" lon="2.40916">
        <ele>41.6</ele>
        <time>2023-04-19T13:49:38Z</time>
      </trkpt>
      <trkpt lat="49.82493" lon="2.40915">
        <ele>41.6</ele>
        <time>2023-04-19T13:49:39Z</time>
      </trkpt>
      <trkpt lat="49.82492" lon="2.40915">
        <ele>41.6</ele>
        <time>2023-04-19T13:49:40Z</time>
      </trkpt>
      <trkpt lat="49.8249" lon="2.40913">
        <ele>41.6</ele>
        <time>2023-04-19T13:49:41Z</time>
      </trkpt>
      <trkpt lat="49.82489" lon="2.40913">
        <ele>41.6</ele>
        <time>2023-04-19T13:49:42Z</time>
      </trkpt>
      <trkpt lat="49.82489" lon="2.40912">
        <ele>41.6</ele>
        <time>2023-04-19T13:49:43Z</time>
      </trkpt>
      <trkpt lat="49.82487" lon="2.4091">
        <ele>41.7</ele>
        <time>2023-04-19T13:49:45Z</time>
      </trkpt>
      <trkpt lat="49.82486" lon="2.4091">
        <ele>41.7</ele>
        <time>2023-04-19T13:49:46Z</time>
      </trkpt>
      <trkpt lat="49.82485" lon="2.40909">
        <ele>41.7</ele>
        <time>2023-04-19T13:49:47Z</time>
      </trkpt>
      <trkpt lat="49.82484" lon="2.40908">
        <ele>41.7</ele>
        <time>2023-04-19T13:49:48Z</time>
      </trkpt>
      <trkpt lat="49.82483" lon="2.40907">
        <ele>41.7</ele>
        <time>2023-04-19T13:49:49Z</time>
      </trkpt>
      <trkpt lat="49.82481" lon="2.40906">
        <ele>41.7</ele>
        <time>2023-04-19T13:49:50Z</time>
      </trkpt>
      <trkpt lat="49.8248" lon="2.40905">
        <ele>41.7</ele>
        <time>2023-04-19T13:49:51Z</time>
      </trkpt>
      <trkpt lat="49.82479" lon="2.40902">
        <ele>41.7</ele>
        <time>2023-04-19T13:49:52Z</time>
      </trkpt>
      <trkpt lat="49.82478" lon="2.40901">
        <ele>41.8</ele>
        <time>2023-04-19T13:49:53Z</time>
      </trkpt>
      <trkpt lat="49.82478" lon="2.409">
        <ele>41.8</ele>
        <time>2023-04-19T13:49:55Z</time>
      </trkpt>
      <trkpt lat="49.82477" lon="2.40899">
        <ele>41.8</ele>
        <time>2023-04-19T13:49:56Z</time>
      </trkpt>
      <trkpt lat="49.82476" lon="2.40897">
        <ele>41.8</ele>
        <time>2023-04-19T13:49:57Z</time>
      </trkpt>
      <trkpt lat="49.82476" lon="2.40896">
        <ele>41.8</ele>
        <time>2023-04-19T13:49:58Z</time>
      </trkpt>
      <trkpt lat="49.82475" lon="2.40895">
        <ele>41.8</ele>
        <time>2023-04-19T13:49:59Z</time>
      </trkpt>
      <trkpt lat="49.82474" lon="2.40895">
        <ele>41.8</ele>
        <time>2023-04-19T13:50:00Z</time>
      </trkpt>
      <trkpt lat="49.82473" lon="2.40894">
        <ele>41.8</ele>
        <time>2023-04-19T13:50:01Z</time>
      </trkpt>
      <trkpt lat="49.82473" lon="2.40893">
        <ele>41.9</ele>
        <time>2023-04-19T13:50:02Z</time>
      </trkpt>
      <trkpt lat="49.82472" lon="2.40892">
        <ele>41.9</ele>
        <time>2023-04-19T13:50:04Z</time>
      </trkpt>
      <trkpt lat="49.8247" lon="2.40891">
        <ele>41.9</ele>
        <time>2023-04-19T13:50:05Z</time>
      </trkpt>
      <trkpt lat="49.82469" lon="2.40888">
        <ele>41.9</ele>
        <time>2023-04-19T13:50:06Z</time>
      </trkpt>
      <trkpt lat="49.82468" lon="2.40887">
        <ele>41.9</ele>
        <time>2023-04-19T13:50:07Z</time>
      </trkpt>
      <trkpt lat="49.82468" lon="2.40886">
        <ele>41.9</ele>
        <time>2023-04-19T13:50:08Z</time>
      </trkpt>
      <trkpt lat="49.82468" lon="2.40886">
        <ele>42</ele>
        <time>2023-04-19T13:50:09Z</time>
      </trkpt>
      <trkpt lat="49.82468" lon="2.40884">
        <ele>42</ele>
        <time>2023-04-19T13:50:10Z</time>
      </trkpt>
      <trkpt lat="49.82467" lon="2.40882">
        <ele>42</ele>
        <time>2023-04-19T13:50:11Z</time>
      </trkpt>
      <trkpt lat="49.82467" lon="2.40881">
        <ele>42</ele>
        <time>2023-04-19T13:50:13Z</time>
      </trkpt>
      <trkpt lat="49.82466" lon="2.40878">
        <ele>42</ele>
        <time>2023-04-19T13:50:14Z</time>
      </trkpt>
      <trkpt lat="49.82467" lon="2.40877">
        <ele>42</ele>
        <time>2023-04-19T13:50:15Z</time>
      </trkpt>
      <trkpt lat="49.82466" lon="2.40876">
        <ele>42</ele>
        <time>2023-04-19T13:50:16Z</time>
      </trkpt>
      <trkpt lat="49.82466" lon="2.40875">
        <ele>42</ele>
        <time>2023-04-19T13:50:17Z</time>
      </trkpt>
      <trkpt lat="49.82465" lon="2.40873">
        <ele>42.1</ele>
        <time>2023-04-19T13:50:18Z</time>
      </trkpt>
      <trkpt lat="49.82464" lon="2.40871">
        <ele>42.1</ele>
        <time>2023-04-19T13:50:19Z</time>
      </trkpt>
      <trkpt lat="49.82463" lon="2.4087">
        <ele>42.1</ele>
        <time>2023-04-19T13:50:21Z</time>
      </trkpt>
      <trkpt lat="49.82463" lon="2.40869">
        <ele>42.1</ele>
        <time>2023-04-19T13:50:22Z</time>
      </trkpt>
      <trkpt lat="49.82462" lon="2.40867">
        <ele>42.1</ele>
        <time>2023-04-19T13:50:23Z</time>
      </trkpt>
      <trkpt lat="49.82462" lon="2.40866">
        <ele>42.1</ele>
        <time>2023-04-19T13:50:24Z</time>
      </trkpt>
      <trkpt lat="49.82462" lon="2.40864">
        <ele>42.1</ele>
        <time>2023-04-19T13:50:25Z</time>
      </trkpt>
      <trkpt lat="49.82461" lon="2.40861">
        <ele>42.1</ele>
        <time>2023-04-19T13:50:26Z</time>
      </trkpt>
      <trkpt lat="49.82461" lon="2.40859">
        <ele>42.1</ele>
        <time>2023-04-19T13:50:27Z</time>
      </trkpt>
      <trkpt lat="49.82461" lon="2.40858">
        <ele>42.1</ele>
        <time>2023-04-19T13:50:28Z</time>
      </trkpt>
      <trkpt lat="49.8246" lon="2.40855">
        <ele>42.1</ele>
        <time>2023-04-19T13:50:30Z</time>
      </trkpt>
      <trkpt lat="49.8246" lon="2.40854">
        <ele>42.1</ele>
        <time>2023-04-19T13:50:31Z</time>
      </trkpt>
      <trkpt lat="49.8246" lon="2.40853">
        <ele>42.2</ele>
        <time>2023-04-19T13:50:32Z</time>
      </trkpt>
      <trkpt lat="49.8246" lon="2.40851">
        <ele>42.2</ele>
        <time>2023-04-19T13:50:33Z</time>
      </trkpt>
      <trkpt lat="49.8246" lon="2.40848">
        <ele>42.2</ele>
        <time>2023-04-19T13:50:34Z</time>
      </trkpt>
      <trkpt lat="49.82461" lon="2.40846">
        <ele>42.2</ele>
        <time>2023-04-19T13:50:35Z</time>
      </trkpt>
      <trkpt lat="49.82461" lon="2.40844">
        <ele>42.2</ele>
        <time>2023-04-19T13:50:36Z</time>
      </trkpt>
      <trkpt lat="49.82462" lon="2.40843">
        <ele>42.2</ele>
        <time>2023-04-19T13:50:38Z</time>
      </trkpt>
      <trkpt lat="49.82463" lon="2.40841">
        <ele>42.2</ele>
        <time>2023-04-19T13:50:39Z</time>
      </trkpt>
      <trkpt lat="49.82463" lon="2.40839">
        <ele>42.2</ele>
        <time>2023-04-19T13:50:40Z</time>
      </trkpt>
      <trkpt lat="49.82464" lon="2.40838">
        <ele>42.2</ele>
        <time>2023-04-19T13:50:41Z</time>
      </trkpt>
      <trkpt lat="49.82464" lon="2.40837">
        <ele>42.2</ele>
        <time>2023-04-19T13:50:42Z</time>
      </trkpt>
      <trkpt lat="49.82465" lon="2.40836">
        <ele>42.3</ele>
        <time>2023-04-19T13:50:43Z</time>
      </trkpt>
      <trkpt lat="49.82464" lon="2.40834">
        <ele>42.3</ele>
        <time>2023-04-19T13:50:44Z</time>
      </trkpt>
      <trkpt lat="49.82464" lon="2.40833">
        <ele>42.3</ele>
        <time>2023-04-19T13:50:45Z</time>
      </trkpt>
      <trkpt lat="49.82464" lon="2.40832">
        <ele>42.3</ele>
        <time>2023-04-19T13:50:46Z</time>
      </trkpt>
      <trkpt lat="49.82463" lon="2.40832">
        <ele>42.3</ele>
        <time>2023-04-19T13:50:48Z</time>
      </trkpt>
      <trkpt lat="49.82463" lon="2.4083">
        <ele>42.3</ele>
        <time>2023-04-19T13:50:49Z</time>
      </trkpt>
      <trkpt lat="49.82464" lon="2.40829">
        <ele>42.3</ele>
        <time>2023-04-19T13:50:50Z</time>
      </trkpt>
      <trkpt lat="49.82464" lon="2.40827">
        <ele>42.3</ele>
        <time>2023-04-19T13:50:51Z</time>
      </trkpt>
      <trkpt lat="49.82464" lon="2.40826">
        <ele>42.3</ele>
        <time>2023-04-19T13:50:52Z</time>
      </trkpt>
      <trkpt lat="49.82464" lon="2.40825">
        <ele>42.3</ele>
        <time>2023-04-19T13:50:53Z</time>
      </trkpt>
      <trkpt lat="49.82464" lon="2.40823">
        <ele>42.3</ele>
        <time>2023-04-19T13:50:54Z</time>
      </trkpt>
      <trkpt lat="49.82463" lon="2.4082">
        <ele>42.2</ele>
        <time>2023-04-19T13:50:55Z</time>
      </trkpt>
      <trkpt lat="49.82463" lon="2.40818">
        <ele>42.2</ele>
        <time>2023-04-19T13:50:57Z</time>
      </trkpt>
      <trkpt lat="49.82463" lon="2.40817">
        <ele>42.2</ele>
        <time>2023-04-19T13:50:58Z</time>
      </trkpt>
      <trkpt lat="49.82462" lon="2.40816">
        <ele>42.2</ele>
        <time>2023-04-19T13:50:59Z</time>
      </trkpt>
      <trkpt lat="49.82462" lon="2.40815">
        <ele>42.2</ele>
        <time>2023-04-19T13:51:00Z</time>
      </trkpt>
      <trkpt lat="49.82461" lon="2.40814">
        <ele>42.2</ele>
        <time>2023-04-19T13:51:01Z</time>
      </trkpt>
      <trkpt lat="49.82461" lon="2.40813">
        <ele>42.2</ele>
        <time>2023-04-19T13:51:02Z</time>
      </trkpt>
      <trkpt lat="49.82461" lon="2.40812">
        <ele>42.1</ele>
        <time>2023-04-19T13:51:03Z</time>
      </trkpt>
      <trkpt lat="49.8246" lon="2.40811">
        <ele>42.1</ele>
        <time>2023-04-19T13:51:04Z</time>
      </trkpt>
      <trkpt lat="49.8246" lon="2.40809">
        <ele>42.1</ele>
        <time>2023-04-19T13:51:06Z</time>
      </trkpt>
      <trkpt lat="49.82459" lon="2.40808">
        <ele>42.1</ele>
        <time>2023-04-19T13:51:07Z</time>
      </trkpt>
      <trkpt lat="49.82459" lon="2.40806">
        <ele>42</ele>
        <time>2023-04-19T13:51:08Z</time>
      </trkpt>
      <trkpt lat="49.82458" lon="2.40805">
        <ele>42</ele>
        <time>2023-04-19T13:51:09Z</time>
      </trkpt>
      <trkpt lat="49.82458" lon="2.40804">
        <ele>42</ele>
        <time>2023-04-19T13:51:10Z</time>
      </trkpt>
      <trkpt lat="49.82458" lon="2.40803">
        <ele>42</ele>
        <time>2023-04-19T13:51:11Z</time>
      </trkpt>
      <trkpt lat="49.82458" lon="2.40801">
        <ele>41.9</ele>
        <time>2023-04-19T13:51:12Z</time>
      </trkpt>
      <trkpt lat="49.82457" lon="2.40797">
        <ele>41.8</ele>
        <time>2023-04-19T13:51:14Z</time>
      </trkpt>
      <trkpt lat="49.82457" lon="2.40796">
        <ele>41.8</ele>
        <time>2023-04-19T13:51:15Z</time>
      </trkpt>
      <trkpt lat="49.82457" lon="2.40795">
        <ele>41.8</ele>
        <time>2023-04-19T13:51:16Z</time>
      </trkpt>
      <trkpt lat="49.8246" lon="2.40797">
        <ele>41.7</ele>
        <time>2023-04-19T13:51:17Z</time>
      </trkpt>
      <trkpt lat="49.82463" lon="2.40798">
        <ele>41.6</ele>
        <time>2023-04-19T13:51:18Z</time>
      </trkpt>
      <trkpt lat="49.82464" lon="2.40799">
        <ele>41.5</ele>
        <time>2023-04-19T13:51:19Z</time>
      </trkpt>
      <trkpt lat="49.82465" lon="2.40798">
        <ele>41.4</ele>
        <time>2023-04-19T13:51:20Z</time>
      </trkpt>
      <trkpt lat="49.82466" lon="2.40797">
        <ele>41.4</ele>
        <time>2023-04-19T13:51:21Z</time>
      </trkpt>
      <trkpt lat="49.82466" lon="2.40795">
        <ele>41.4</ele>
        <time>2023-04-19T13:51:22Z</time>
      </trkpt>
      <trkpt lat="49.82466" lon="2.40793">
        <ele>41.3</ele>
        <time>2023-04-19T13:51:23Z</time>
      </trkpt>
      <trkpt lat="49.82467" lon="2.40792">
        <ele>41.3</ele>
        <time>2023-04-19T13:51:24Z</time>
      </trkpt>
      <trkpt lat="49.82467" lon="2.40792">
        <ele>41.2</ele>
        <time>2023-04-19T13:51:26Z</time>
      </trkpt>
      <trkpt lat="49.82468" lon="2.4079">
        <ele>41.2</ele>
        <time>2023-04-19T13:51:27Z</time>
      </trkpt>
      <trkpt lat="49.82468" lon="2.40789">
        <ele>41.1</ele>
        <time>2023-04-19T13:51:28Z</time>
      </trkpt>
      <trkpt lat="49.82468" lon="2.40784">
        <ele>41</ele>
        <time>2023-04-19T13:51:29Z</time>
      </trkpt>
      <trkpt lat="49.82468" lon="2.40782">
        <ele>40.9</ele>
        <time>2023-04-19T13:51:30Z</time>
      </trkpt>
      <trkpt lat="49.82469" lon="2.4078">
        <ele>40.8</ele>
        <time>2023-04-19T13:51:31Z</time>
      </trkpt>
      <trkpt lat="49.8247" lon="2.40779">
        <ele>40.8</ele>
        <time>2023-04-19T13:51:32Z</time>
      </trkpt>
      <trkpt lat="49.8247" lon="2.40778">
        <ele>40.7</ele>
        <time>2023-04-19T13:51:33Z</time>
      </trkpt>
      <trkpt lat="49.82471" lon="2.40773">
        <ele>40.6</ele>
        <time>2023-04-19T13:51:35Z</time>
      </trkpt>
      <trkpt lat="49.82471" lon="2.40772">
        <ele>40.5</ele>
        <time>2023-04-19T13:51:36Z</time>
      </trkpt>
      <trkpt lat="49.82472" lon="2.40768">
        <ele>40.4</ele>
        <time>2023-04-19T13:51:37Z</time>
      </trkpt>
      <trkpt lat="49.82472" lon="2.40767">
        <ele>40.3</ele>
        <time>2023-04-19T13:51:38Z</time>
      </trkpt>
      <trkpt lat="49.82472" lon="2.40764">
        <ele>40.2</ele>
        <time>2023-04-19T13:51:39Z</time>
      </trkpt>
      <trkpt lat="49.82472" lon="2.40761">
        <ele>40.2</ele>
        <time>2023-04-19T13:51:40Z</time>
      </trkpt>
      <trkpt lat="49.82473" lon="2.40759">
        <ele>40.1</ele>
        <time>2023-04-19T13:51:41Z</time>
      </trkpt>
      <trkpt lat="49.82473" lon="2.40757">
        <ele>40</ele>
        <time>2023-04-19T13:51:43Z</time>
      </trkpt>
      <trkpt lat="49.82473" lon="2.40755">
        <ele>39.9</ele>
        <time>2023-04-19T13:51:44Z</time>
      </trkpt>
      <trkpt lat="49.82473" lon="2.40753">
        <ele>39.9</ele>
        <time>2023-04-19T13:51:45Z</time>
      </trkpt>
      <trkpt lat="49.82473" lon="2.40751">
        <ele>39.8</ele>
        <time>2023-04-19T13:51:46Z</time>
      </trkpt>
      <trkpt lat="49.82473" lon="2.40749">
        <ele>39.7</ele>
        <time>2023-04-19T13:51:48Z</time>
      </trkpt>
      <trkpt lat="49.82473" lon="2.40749">
        <ele>39.7</ele>
        <time>2023-04-19T13:51:49Z</time>
      </trkpt>
      <trkpt lat="49.82473" lon="2.40749">
        <ele>39.7</ele>
        <time>2023-04-19T13:51:51Z</time>
      </trkpt>
      <trkpt lat="49.82473" lon="2.40749">
        <ele>39.7</ele>
        <time>2023-04-19T13:51:52Z</time>
      </trkpt>
      <trkpt lat="49.82473" lon="2.40749">
        <ele>39.7</ele>
        <time>2023-04-19T13:51:54Z</time>
      </trkpt>
      <trkpt lat="49.82473" lon="2.40749">
        <ele>39.7</ele>
        <time>2023-04-19T13:51:55Z</time>
      </trkpt>
      <trkpt lat="49.82473" lon="2.40749">
        <ele>39.7</ele>
        <time>2023-04-19T13:51:57Z</time>
      </trkpt>
      <trkpt lat="49.82473" lon="2.40749">
        <ele>39.7</ele>
        <time>2023-04-19T13:51:58Z</time>
      </trkpt>
      <trkpt lat="49.82473" lon="2.40749">
        <ele>39.7</ele>
        <time>2023-04-19T13:51:59Z</time>
      </trkpt>
      <trkpt lat="49.82473" lon="2.40748">
        <ele>39.7</ele>
        <time>2023-04-19T13:52:01Z</time>
      </trkpt>
      <trkpt lat="49.82473" lon="2.40748">
        <ele>39.7</ele>
        <time>2023-04-19T13:52:02Z</time>
      </trkpt>
      <trkpt lat="49.82473" lon="2.40748">
        <ele>39.7</ele>
        <time>2023-04-19T13:52:04Z</time>
      </trkpt>
      <trkpt lat="49.82473" lon="2.40748">
        <ele>39.7</ele>
        <time>2023-04-19T13:52:05Z</time>
      </trkpt>
      <trkpt lat="49.82473" lon="2.40748">
        <ele>39.7</ele>
        <time>2023-04-19T13:52:07Z</time>
      </trkpt>
      <trkpt lat="49.82473" lon="2.40748">
        <ele>39.7</ele>
        <time>2023-04-19T13:52:08Z</time>
      </trkpt>
      <trkpt lat="49.82473" lon="2.40748">
        <ele>39.7</ele>
        <time>2023-04-19T13:52:09Z</time>
      </trkpt>
      <trkpt lat="49.82473" lon="2.40748">
        <ele>39.7</ele>
        <time>2023-04-19T13:52:10Z</time>
      </trkpt>
      <trkpt lat="49.82473" lon="2.40748">
        <ele>39.7</ele>
        <time>2023-04-19T13:52:11Z</time>
      </trkpt>
      <trkpt lat="49.82473" lon="2.40748">
        <ele>39.7</ele>
        <time>2023-04-19T13:52:12Z</time>
      </trkpt>
      <trkpt lat="49.82473" lon="2.40748">
        <ele>39.7</ele>
        <time>2023-04-19T13:52:13Z</time>
      </trkpt>
      <trkpt lat="49.82473" lon="2.40748">
        <ele>39.7</ele>
        <time>2023-04-19T13:52:14Z</time>
      </trkpt>
      <trkpt lat="49.82473" lon="2.40748">
        <ele>39.7</ele>
        <time>2023-04-19T13:52:15Z</time>
      </trkpt>
      <trkpt lat="49.82473" lon="2.40748">
        <ele>39.7</ele>
        <time>2023-04-19T13:52:16Z</time>
      </trkpt>
      <trkpt lat="49.82473" lon="2.40748">
        <ele>39.7</ele>
        <time>2023-04-19T13:52:17Z</time>
      </trkpt>
      <trkpt lat="49.82473" lon="2.40747">
        <ele>39.7</ele>
        <time>2023-04-19T13:52:18Z</time>
      </trkpt>
      <trkpt lat="49.82473" lon="2.40747">
        <ele>39.6</ele>
        <time>2023-04-19T13:52:19Z</time>
      </trkpt>
      <trkpt lat="49.82473" lon="2.40747">
        <ele>39.6</ele>
        <time>2023-04-19T13:52:20Z</time>
      </trkpt>
      <trkpt lat="49.82473" lon="2.40747">
        <ele>39.6</ele>
        <time>2023-04-19T13:52:21Z</time>
      </trkpt>
      <trkpt lat="49.82473" lon="2.40747">
        <ele>39.6</ele>
        <time>2023-04-19T13:52:22Z</time>
      </trkpt>
      <trkpt lat="49.82473" lon="2.40747">
        <ele>39.6</ele>
        <time>2023-04-19T13:52:23Z</time>
      </trkpt>
      <trkpt lat="49.82473" lon="2.40747">
        <ele>39.6</ele>
        <time>2023-04-19T13:52:24Z</time>
      </trkpt>
      <trkpt lat="49.82473" lon="2.40747">
        <ele>39.6</ele>
        <time>2023-04-19T13:52:25Z</time>
      </trkpt>
      <trkpt lat="49.82473" lon="2.40747">
        <ele>39.6</ele>
        <time>2023-04-19T13:52:26Z</time>
      </trkpt>
      <trkpt lat="49.82473" lon="2.40747">
        <ele>39.6</ele>
        <time>2023-04-19T13:52:27Z</time>
      </trkpt>
      <trkpt lat="49.82473" lon="2.40747">
        <ele>39.6</ele>
        <time>2023-04-19T13:52:28Z</time>
      </trkpt>
      <trkpt lat="49.82473" lon="2.40747">
        <ele>39.6</ele>
        <time>2023-04-19T13:52:29Z</time>
      </trkpt>
      <trkpt lat="49.82473" lon="2.40747">
        <ele>39.6</ele>
        <time>2023-04-19T13:52:30Z</time>
      </trkpt>
      <trkpt lat="49.82473" lon="2.40747">
        <ele>39.6</ele>
        <time>2023-04-19T13:52:31Z</time>
      </trkpt>
      <trkpt lat="49.82473" lon="2.40746">
        <ele>39.6</ele>
        <time>2023-04-19T13:52:32Z</time>
      </trkpt>
      <trkpt lat="49.82473" lon="2.40746">
        <ele>39.6</ele>
        <time>2023-04-19T13:52:33Z</time>
      </trkpt>
      <trkpt lat="49.82473" lon="2.40746">
        <ele>39.6</ele>
        <time>2023-04-19T13:52:34Z</time>
      </trkpt>
      <trkpt lat="49.82473" lon="2.40746">
        <ele>39.6</ele>
        <time>2023-04-19T13:52:35Z</time>
      </trkpt>
      <trkpt lat="49.82473" lon="2.40746">
        <ele>39.6</ele>
        <time>2023-04-19T13:52:36Z</time>
      </trkpt>
      <trkpt lat="49.82473" lon="2.40746">
        <ele>39.6</ele>
        <time>2023-04-19T13:52:37Z</time>
      </trkpt>
      <trkpt lat="49.82473" lon="2.40746">
        <ele>39.6</ele>
        <time>2023-04-19T13:52:38Z</time>
      </trkpt>
      <trkpt lat="49.82473" lon="2.40746">
        <ele>39.6</ele>
        <time>2023-04-19T13:52:39Z</time>
      </trkpt>
      <trkpt lat="49.82473" lon="2.40746">
        <ele>39.6</ele>
        <time>2023-04-19T13:52:40Z</time>
      </trkpt>
      <trkpt lat="49.82473" lon="2.40746">
        <ele>39.6</ele>
        <time>2023-04-19T13:52:41Z</time>
      </trkpt>
      <trkpt lat="49.82473" lon="2.40746">
        <ele>39.6</ele>
        <time>2023-04-19T13:52:42Z</time>
      </trkpt>
      <trkpt lat="49.82473" lon="2.40746">
        <ele>39.6</ele>
        <time>2023-04-19T13:52:43Z</time>
      </trkpt>
      <trkpt lat="49.82473" lon="2.40746">
        <ele>39.6</ele>
        <time>2023-04-19T13:52:44Z</time>
      </trkpt>
      <trkpt lat="49.82473" lon="2.40746">
        <ele>39.6</ele>
        <time>2023-04-19T13:52:45Z</time>
      </trkpt>
      <trkpt lat="49.82473" lon="2.40746">
        <ele>39.6</ele>
        <time>2023-04-19T13:52:46Z</time>
      </trkpt>
      <trkpt lat="49.82473" lon="2.40745">
        <ele>39.6</ele>
        <time>2023-04-19T13:52:47Z</time>
      </trkpt>
      <trkpt lat="49.82473" lon="2.40745">
        <ele>39.6</ele>
        <time>2023-04-19T13:52:48Z</time>
      </trkpt>
      <trkpt lat="49.82473" lon="2.40745">
        <ele>39.6</ele>
        <time>2023-04-19T13:52:49Z</time>
      </trkpt>
      <trkpt lat="49.82473" lon="2.40745">
        <ele>39.6</ele>
        <time>2023-04-19T13:52:50Z</time>
      </trkpt>
      <trkpt lat="49.82473" lon="2.40745">
        <ele>39.6</ele>
        <time>2023-04-19T13:52:51Z</time>
      </trkpt>
      <trkpt lat="49.82474" lon="2.40745">
        <ele>39.6</ele>
        <time>2023-04-19T13:52:52Z</time>
      </trkpt>
      <trkpt lat="49.82474" lon="2.40745">
        <ele>39.5</ele>
        <time>2023-04-19T13:52:53Z</time>
      </trkpt>
      <trkpt lat="49.82474" lon="2.40745">
        <ele>39.5</ele>
        <time>2023-04-19T13:52:54Z</time>
      </trkpt>
      <trkpt lat="49.82474" lon="2.40745">
        <ele>39.5</ele>
        <time>2023-04-19T13:52:55Z</time>
      </trkpt>
      <trkpt lat="49.82474" lon="2.40745">
        <ele>39.5</ele>
        <time>2023-04-19T13:52:56Z</time>
      </trkpt>
      <trkpt lat="49.82474" lon="2.40745">
        <ele>39.5</ele>
        <time>2023-04-19T13:52:57Z</time>
      </trkpt>
      <trkpt lat="49.82474" lon="2.40745">
        <ele>39.5</ele>
        <time>2023-04-19T13:52:58Z</time>
      </trkpt>
      <trkpt lat="49.82474" lon="2.40745">
        <ele>39.5</ele>
        <time>2023-04-19T13:52:59Z</time>
      </trkpt>
      <trkpt lat="49.82474" lon="2.40745">
        <ele>39.5</ele>
        <time>2023-04-19T13:53:00Z</time>
      </trkpt>
      <trkpt lat="49.82474" lon="2.40745">
        <ele>39.5</ele>
        <time>2023-04-19T13:53:01Z</time>
      </trkpt>
      <trkpt lat="49.82474" lon="2.40744">
        <ele>39.5</ele>
        <time>2023-04-19T13:53:02Z</time>
      </trkpt>
      <trkpt lat="49.82474" lon="2.40744">
        <ele>39.5</ele>
        <time>2023-04-19T13:53:03Z</time>
      </trkpt>
      <trkpt lat="49.82474" lon="2.40744">
        <ele>39.5</ele>
        <time>2023-04-19T13:53:04Z</time>
      </trkpt>
      <trkpt lat="49.82474" lon="2.40744">
        <ele>39.5</ele>
        <time>2023-04-19T13:53:05Z</time>
      </trkpt>
      <trkpt lat="49.82474" lon="2.40744">
        <ele>39.5</ele>
        <time>2023-04-19T13:53:06Z</time>
      </trkpt>
      <trkpt lat="49.82474" lon="2.40744">
        <ele>39.5</ele>
        <time>2023-04-19T13:53:07Z</time>
      </trkpt>
      <trkpt lat="49.82474" lon="2.40744">
        <ele>39.5</ele>
        <time>2023-04-19T13:53:08Z</time>
      </trkpt>
      <trkpt lat="49.82474" lon="2.40744">
        <ele>39.5</ele>
        <time>2023-04-19T13:53:09Z</time>
      </trkpt>
      <trkpt lat="49.82474" lon="2.40744">
        <ele>39.5</ele>
        <time>2023-04-19T13:53:10Z</time>
      </trkpt>
      <trkpt lat="49.82474" lon="2.40744">
        <ele>39.5</ele>
        <time>2023-04-19T13:53:11Z</time>
      </trkpt>
      <trkpt lat="49.82474" lon="2.40744">
        <ele>39.5</ele>
        <time>2023-04-19T13:53:12Z</time>
      </trkpt>
      <trkpt lat="49.82474" lon="2.40744">
        <ele>39.5</ele>
        <time>2023-04-19T13:53:13Z</time>
      </trkpt>
      <trkpt lat="49.82474" lon="2.40744">
        <ele>39.5</ele>
        <time>2023-04-19T13:53:14Z</time>
      </trkpt>
      <trkpt lat="49.82474" lon="2.40744">
        <ele>39.5</ele>
        <time>2023-04-19T13:53:15Z</time>
      </trkpt>
      <trkpt lat="49.82474" lon="2.40743">
        <ele>39.5</ele>
        <time>2023-04-19T13:53:16Z</time>
      </trkpt>
      <trkpt lat="49.82474" lon="2.40743">
        <ele>39.5</ele>
        <time>2023-04-19T13:53:17Z</time>
      </trkpt>
      <trkpt lat="49.82474" lon="2.40743">
        <ele>39.5</ele>
        <time>2023-04-19T13:53:18Z</time>
      </trkpt>
      <trkpt lat="49.82474" lon="2.40743">
        <ele>39.5</ele>
        <time>2023-04-19T13:53:19Z</time>
      </trkpt>
      <trkpt lat="49.82474" lon="2.40743">
        <ele>39.5</ele>
        <time>2023-04-19T13:53:20Z</time>
      </trkpt>
      <trkpt lat="49.82474" lon="2.40743">
        <ele>39.5</ele>
        <time>2023-04-19T13:53:21Z</time>
      </trkpt>
      <trkpt lat="49.82474" lon="2.40743">
        <ele>39.5</ele>
        <time>2023-04-19T13:53:22Z</time>
      </trkpt>
      <trkpt lat="49.82474" lon="2.40743">
        <ele>39.5</ele>
        <time>2023-04-19T13:53:23Z</time>
      </trkpt>
      <trkpt lat="49.82474" lon="2.40743">
        <ele>39.5</ele>
        <time>2023-04-19T13:53:24Z</time>
      </trkpt>
      <trkpt lat="49.82474" lon="2.40743">
        <ele>39.5</ele>
        <time>2023-04-19T13:53:25Z</time>
      </trkpt>
      <trkpt lat="49.82474" lon="2.40743">
        <ele>39.5</ele>
        <time>2023-04-19T13:53:26Z</time>
      </trkpt>
      <trkpt lat="49.82474" lon="2.40743">
        <ele>39.5</ele>
        <time>2023-04-19T13:53:27Z</time>
      </trkpt>
      <trkpt lat="49.82474" lon="2.40743">
        <ele>39.4</ele>
        <time>2023-04-19T13:53:28Z</time>
      </trkpt>
      <trkpt lat="49.82474" lon="2.40743">
        <ele>39.4</ele>
        <time>2023-04-19T13:53:29Z</time>
      </trkpt>
      <trkpt lat="49.82474" lon="2.40743">
        <ele>39.4</ele>
        <time>2023-04-19T13:53:30Z</time>
      </trkpt>
      <trkpt lat="49.82474" lon="2.40742">
        <ele>39.4</ele>
        <time>2023-04-19T13:53:31Z</time>
      </trkpt>
      <trkpt lat="49.82474" lon="2.40742">
        <ele>39.4</ele>
        <time>2023-04-19T13:53:32Z</time>
      </trkpt>
      <trkpt lat="49.82474" lon="2.40742">
        <ele>39.4</ele>
        <time>2023-04-19T13:53:33Z</time>
      </trkpt>
      <trkpt lat="49.82474" lon="2.40742">
        <ele>39.4</ele>
        <time>2023-04-19T13:53:34Z</time>
      </trkpt>
      <trkpt lat="49.82474" lon="2.40742">
        <ele>39.4</ele>
        <time>2023-04-19T13:53:35Z</time>
      </trkpt>
      <trkpt lat="49.82474" lon="2.40742">
        <ele>39.4</ele>
        <time>2023-04-19T13:53:36Z</time>
      </trkpt>
      <trkpt lat="49.82474" lon="2.40742">
        <ele>39.4</ele>
        <time>2023-04-19T13:53:37Z</time>
      </trkpt>
      <trkpt lat="49.82474" lon="2.40742">
        <ele>39.4</ele>
        <time>2023-04-19T13:53:38Z</time>
      </trkpt>
      <trkpt lat="49.82474" lon="2.40742">
        <ele>39.4</ele>
        <time>2023-04-19T13:53:39Z</time>
      </trkpt>
      <trkpt lat="49.82474" lon="2.40742">
        <ele>39.4</ele>
        <time>2023-04-19T13:53:40Z</time>
      </trkpt>
      <trkpt lat="49.82474" lon="2.40742">
        <ele>39.4</ele>
        <time>2023-04-19T13:53:41Z</time>
      </trkpt>
      <trkpt lat="49.82474" lon="2.40742">
        <ele>39.4</ele>
        <time>2023-04-19T13:53:42Z</time>
      </trkpt>
      <trkpt lat="49.82474" lon="2.40742">
        <ele>39.4</ele>
        <time>2023-04-19T13:53:43Z</time>
      </trkpt>
      <trkpt lat="49.82474" lon="2.40742">
        <ele>39.4</ele>
        <time>2023-04-19T13:53:45Z</time>
      </trkpt>
      <trkpt lat="49.82474" lon="2.40741">
        <ele>39.4</ele>
        <time>2023-04-19T13:53:46Z</time>
      </trkpt>
      <trkpt lat="49.82474" lon="2.40741">
        <ele>39.4</ele>
        <time>2023-04-19T13:53:47Z</time>
      </trkpt>
      <trkpt lat="49.82474" lon="2.40741">
        <ele>39.4</ele>
        <time>2023-04-19T13:53:48Z</time>
      </trkpt>
      <trkpt lat="49.82474" lon="2.40741">
        <ele>39.4</ele>
        <time>2023-04-19T13:53:49Z</time>
      </trkpt>
      <trkpt lat="49.82474" lon="2.40741">
        <ele>39.4</ele>
        <time>2023-04-19T13:53:50Z</time>
      </trkpt>
      <trkpt lat="49.82477" lon="2.4074">
        <ele>39.2</ele>
        <time>2023-04-19T13:53:52Z</time>
      </trkpt>
      <trkpt lat="49.8248" lon="2.40739">
        <ele>38</ele>
        <time>2023-04-19T13:53:53Z</time>
      </trkpt>
      <trkpt lat="49.82482" lon="2.40738">
        <ele>37.8</ele>
        <time>2023-04-19T13:53:54Z</time>
      </trkpt>
      <trkpt lat="49.82485" lon="2.40736">
        <ele>37.8</ele>
        <time>2023-04-19T13:53:55Z</time>
      </trkpt>
      <trkpt lat="49.82487" lon="2.40736">
        <ele>37.7</ele>
        <time>2023-04-19T13:53:56Z</time>
      </trkpt>
      <trkpt lat="49.82488" lon="2.40736">
        <ele>37.7</ele>
        <time>2023-04-19T13:53:57Z</time>
      </trkpt>
      <trkpt lat="49.82488" lon="2.40736">
        <ele>37.6</ele>
        <time>2023-04-19T13:53:58Z</time>
      </trkpt>
      <trkpt lat="49.82489" lon="2.40737">
        <ele>37.6</ele>
        <time>2023-04-19T13:53:59Z</time>
      </trkpt>
      <trkpt lat="49.8249" lon="2.40737">
        <ele>37.6</ele>
        <time>2023-04-19T13:54:01Z</time>
      </trkpt>
      <trkpt lat="49.82491" lon="2.40737">
        <ele>37.6</ele>
        <time>2023-04-19T13:54:02Z</time>
      </trkpt>
      <trkpt lat="49.82492" lon="2.40738">
        <ele>37.5</ele>
        <time>2023-04-19T13:54:03Z</time>
      </trkpt>
      <trkpt lat="49.82493" lon="2.40738">
        <ele>37.5</ele>
        <time>2023-04-19T13:54:04Z</time>
      </trkpt>
      <trkpt lat="49.82493" lon="2.40739">
        <ele>37.5</ele>
        <time>2023-04-19T13:54:05Z</time>
      </trkpt>
      <trkpt lat="49.82494" lon="2.40739">
        <ele>37.4</ele>
        <time>2023-04-19T13:54:06Z</time>
      </trkpt>
      <trkpt lat="49.82497" lon="2.40739">
        <ele>37.3</ele>
        <time>2023-04-19T13:54:07Z</time>
      </trkpt>
      <trkpt lat="49.82498" lon="2.40739">
        <ele>37.3</ele>
        <time>2023-04-19T13:54:08Z</time>
      </trkpt>
      <trkpt lat="49.82499" lon="2.4074">
        <ele>37.3</ele>
        <time>2023-04-19T13:54:09Z</time>
      </trkpt>
      <trkpt lat="49.825" lon="2.4074">
        <ele>37.2</ele>
        <time>2023-04-19T13:54:11Z</time>
      </trkpt>
      <trkpt lat="49.82501" lon="2.4074">
        <ele>37.2</ele>
        <time>2023-04-19T13:54:12Z</time>
      </trkpt>
      <trkpt lat="49.82502" lon="2.40741">
        <ele>37.2</ele>
        <time>2023-04-19T13:54:13Z</time>
      </trkpt>
      <trkpt lat="49.82503" lon="2.40741">
        <ele>37.1</ele>
        <time>2023-04-19T13:54:14Z</time>
      </trkpt>
      <trkpt lat="49.82505" lon="2.4074">
        <ele>37.1</ele>
        <time>2023-04-19T13:54:15Z</time>
      </trkpt>
      <trkpt lat="49.82506" lon="2.40738">
        <ele>37</ele>
        <time>2023-04-19T13:54:16Z</time>
      </trkpt>
      <trkpt lat="49.82507" lon="2.40738">
        <ele>37</ele>
        <time>2023-04-19T13:54:17Z</time>
      </trkpt>
      <trkpt lat="49.82509" lon="2.40737">
        <ele>37</ele>
        <time>2023-04-19T13:54:18Z</time>
      </trkpt>
      <trkpt lat="49.82511" lon="2.40733">
        <ele>36.8</ele>
        <time>2023-04-19T13:54:20Z</time>
      </trkpt>
      <trkpt lat="49.82513" lon="2.40731">
        <ele>36.8</ele>
        <time>2023-04-19T13:54:21Z</time>
      </trkpt>
      <trkpt lat="49.82513" lon="2.4073">
        <ele>36.8</ele>
        <time>2023-04-19T13:54:22Z</time>
      </trkpt>
      <trkpt lat="49.82514" lon="2.4073">
        <ele>36.7</ele>
        <time>2023-04-19T13:54:23Z</time>
      </trkpt>
      <trkpt lat="49.82517" lon="2.4073">
        <ele>36.7</ele>
        <time>2023-04-19T13:54:24Z</time>
      </trkpt>
      <trkpt lat="49.82518" lon="2.40731">
        <ele>36.6</ele>
        <time>2023-04-19T13:54:25Z</time>
      </trkpt>
      <trkpt lat="49.82519" lon="2.40731">
        <ele>36.6</ele>
        <time>2023-04-19T13:54:26Z</time>
      </trkpt>
      <trkpt lat="49.8252" lon="2.40731">
        <ele>36.5</ele>
        <time>2023-04-19T13:54:27Z</time>
      </trkpt>
      <trkpt lat="49.82521" lon="2.40731">
        <ele>36.5</ele>
        <time>2023-04-19T13:54:29Z</time>
      </trkpt>
      <trkpt lat="49.82523" lon="2.4073">
        <ele>36.5</ele>
        <time>2023-04-19T13:54:30Z</time>
      </trkpt>
      <trkpt lat="49.82524" lon="2.40729">
        <ele>36.4</ele>
        <time>2023-04-19T13:54:31Z</time>
      </trkpt>
      <trkpt lat="49.82524" lon="2.40728">
        <ele>36.4</ele>
        <time>2023-04-19T13:54:32Z</time>
      </trkpt>
      <trkpt lat="49.82526" lon="2.40727">
        <ele>36.4</ele>
        <time>2023-04-19T13:54:33Z</time>
      </trkpt>
      <trkpt lat="49.82526" lon="2.40728">
        <ele>36.3</ele>
        <time>2023-04-19T13:54:34Z</time>
      </trkpt>
      <trkpt lat="49.82528" lon="2.40727">
        <ele>36.3</ele>
        <time>2023-04-19T13:54:35Z</time>
      </trkpt>
      <trkpt lat="49.82529" lon="2.40727">
        <ele>36.3</ele>
        <time>2023-04-19T13:54:37Z</time>
      </trkpt>
      <trkpt lat="49.8253" lon="2.40727">
        <ele>36.2</ele>
        <time>2023-04-19T13:54:38Z</time>
      </trkpt>
      <trkpt lat="49.82531" lon="2.40728">
        <ele>36.2</ele>
        <time>2023-04-19T13:54:39Z</time>
      </trkpt>
      <trkpt lat="49.82532" lon="2.40728">
        <ele>36.2</ele>
        <time>2023-04-19T13:54:40Z</time>
      </trkpt>
      <trkpt lat="49.82534" lon="2.40728">
        <ele>36.1</ele>
        <time>2023-04-19T13:54:41Z</time>
      </trkpt>
      <trkpt lat="49.82535" lon="2.40729">
        <ele>36.1</ele>
        <time>2023-04-19T13:54:43Z</time>
      </trkpt>
      <trkpt lat="49.82536" lon="2.4073">
        <ele>36.1</ele>
        <time>2023-04-19T13:54:44Z</time>
      </trkpt>
      <trkpt lat="49.82536" lon="2.40731">
        <ele>36</ele>
        <time>2023-04-19T13:54:45Z</time>
      </trkpt>
      <trkpt lat="49.82537" lon="2.40732">
        <ele>36</ele>
        <time>2023-04-19T13:54:46Z</time>
      </trkpt>
      <trkpt lat="49.82537" lon="2.40733">
        <ele>36</ele>
        <time>2023-04-19T13:54:47Z</time>
      </trkpt>
      <trkpt lat="49.82537" lon="2.40733">
        <ele>36</ele>
        <time>2023-04-19T13:54:48Z</time>
      </trkpt>
      <trkpt lat="49.82536" lon="2.40733">
        <ele>36</ele>
        <time>2023-04-19T13:54:49Z</time>
      </trkpt>
      <trkpt lat="49.82537" lon="2.40733">
        <ele>36</ele>
        <time>2023-04-19T13:54:50Z</time>
      </trkpt>
      <trkpt lat="49.82539" lon="2.40733">
        <ele>35.9</ele>
        <time>2023-04-19T13:54:51Z</time>
      </trkpt>
      <trkpt lat="49.8254" lon="2.40733">
        <ele>35.9</ele>
        <time>2023-04-19T13:54:53Z</time>
      </trkpt>
      <trkpt lat="49.82542" lon="2.40733">
        <ele>35.8</ele>
        <time>2023-04-19T13:54:54Z</time>
      </trkpt>
      <trkpt lat="49.82543" lon="2.40733">
        <ele>35.8</ele>
        <time>2023-04-19T13:54:55Z</time>
      </trkpt>
      <trkpt lat="49.82544" lon="2.40733">
        <ele>35.8</ele>
        <time>2023-04-19T13:54:56Z</time>
      </trkpt>
      <trkpt lat="49.82545" lon="2.40734">
        <ele>35.8</ele>
        <time>2023-04-19T13:54:57Z</time>
      </trkpt>
      <trkpt lat="49.82546" lon="2.40734">
        <ele>35.7</ele>
        <time>2023-04-19T13:54:58Z</time>
      </trkpt>
      <trkpt lat="49.82547" lon="2.40735">
        <ele>35.7</ele>
        <time>2023-04-19T13:54:59Z</time>
      </trkpt>
      <trkpt lat="49.82547" lon="2.40735">
        <ele>35.7</ele>
        <time>2023-04-19T13:55:00Z</time>
      </trkpt>
      <trkpt lat="49.82548" lon="2.40737">
        <ele>35.7</ele>
        <time>2023-04-19T13:55:01Z</time>
      </trkpt>
      <trkpt lat="49.8255" lon="2.40737">
        <ele>35.6</ele>
        <time>2023-04-19T13:55:02Z</time>
      </trkpt>
      <trkpt lat="49.82552" lon="2.40738">
        <ele>35.6</ele>
        <time>2023-04-19T13:55:04Z</time>
      </trkpt>
      <trkpt lat="49.82553" lon="2.40738">
        <ele>35.6</ele>
        <time>2023-04-19T13:55:05Z</time>
      </trkpt>
      <trkpt lat="49.82554" lon="2.40739">
        <ele>35.5</ele>
        <time>2023-04-19T13:55:06Z</time>
      </trkpt>
      <trkpt lat="49.82555" lon="2.40739">
        <ele>35.5</ele>
        <time>2023-04-19T13:55:07Z</time>
      </trkpt>
      <trkpt lat="49.82557" lon="2.4074">
        <ele>35.5</ele>
        <time>2023-04-19T13:55:08Z</time>
      </trkpt>
      <trkpt lat="49.82558" lon="2.4074">
        <ele>35.5</ele>
        <time>2023-04-19T13:55:09Z</time>
      </trkpt>
      <trkpt lat="49.82559" lon="2.4074">
        <ele>35.4</ele>
        <time>2023-04-19T13:55:10Z</time>
      </trkpt>
      <trkpt lat="49.8256" lon="2.40741">
        <ele>35.4</ele>
        <time>2023-04-19T13:55:11Z</time>
      </trkpt>
      <trkpt lat="49.82561" lon="2.40742">
        <ele>35.4</ele>
        <time>2023-04-19T13:55:12Z</time>
      </trkpt>
      <trkpt lat="49.82562" lon="2.40743">
        <ele>35.4</ele>
        <time>2023-04-19T13:55:13Z</time>
      </trkpt>
      <trkpt lat="49.82564" lon="2.40743">
        <ele>35.4</ele>
        <time>2023-04-19T13:55:15Z</time>
      </trkpt>
      <trkpt lat="49.82565" lon="2.40744">
        <ele>35.3</ele>
        <time>2023-04-19T13:55:16Z</time>
      </trkpt>
      <trkpt lat="49.82567" lon="2.40744">
        <ele>35.3</ele>
        <time>2023-04-19T13:55:17Z</time>
      </trkpt>
      <trkpt lat="49.82568" lon="2.40743">
        <ele>35.3</ele>
        <time>2023-04-19T13:55:18Z</time>
      </trkpt>
      <trkpt lat="49.8257" lon="2.40743">
        <ele>35.2</ele>
        <time>2023-04-19T13:55:19Z</time>
      </trkpt>
      <trkpt lat="49.82571" lon="2.40742">
        <ele>35.2</ele>
        <time>2023-04-19T13:55:20Z</time>
      </trkpt>
      <trkpt lat="49.82573" lon="2.40742">
        <ele>35.2</ele>
        <time>2023-04-19T13:55:21Z</time>
      </trkpt>
      <trkpt lat="49.82574" lon="2.40742">
        <ele>35.2</ele>
        <time>2023-04-19T13:55:22Z</time>
      </trkpt>
      <trkpt lat="49.82575" lon="2.40742">
        <ele>35.1</ele>
        <time>2023-04-19T13:55:23Z</time>
      </trkpt>
      <trkpt lat="49.82576" lon="2.40743">
        <ele>35.1</ele>
        <time>2023-04-19T13:55:24Z</time>
      </trkpt>
      <trkpt lat="49.82577" lon="2.40743">
        <ele>35.1</ele>
        <time>2023-04-19T13:55:26Z</time>
      </trkpt>
      <trkpt lat="49.82579" lon="2.40743">
        <ele>35.1</ele>
        <time>2023-04-19T13:55:27Z</time>
      </trkpt>
      <trkpt lat="49.82581" lon="2.40743">
        <ele>35</ele>
        <time>2023-04-19T13:55:28Z</time>
      </trkpt>
      <trkpt lat="49.82582" lon="2.40743">
        <ele>35</ele>
        <time>2023-04-19T13:55:29Z</time>
      </trkpt>
      <trkpt lat="49.82585" lon="2.40742">
        <ele>35</ele>
        <time>2023-04-19T13:55:31Z</time>
      </trkpt>
      <trkpt lat="49.82586" lon="2.40742">
        <ele>34.9</ele>
        <time>2023-04-19T13:55:32Z</time>
      </trkpt>
      <trkpt lat="49.82588" lon="2.40741">
        <ele>34.9</ele>
        <time>2023-04-19T13:55:34Z</time>
      </trkpt>
      <trkpt lat="49.8259" lon="2.40741">
        <ele>34.9</ele>
        <time>2023-04-19T13:55:35Z</time>
      </trkpt>
      <trkpt lat="49.82591" lon="2.40741">
        <ele>34.9</ele>
        <time>2023-04-19T13:55:36Z</time>
      </trkpt>
      <trkpt lat="49.82592" lon="2.40741">
        <ele>34.8</ele>
        <time>2023-04-19T13:55:37Z</time>
      </trkpt>
      <trkpt lat="49.82594" lon="2.4074">
        <ele>34.8</ele>
        <time>2023-04-19T13:55:38Z</time>
      </trkpt>
      <trkpt lat="49.82595" lon="2.4074">
        <ele>34.8</ele>
        <time>2023-04-19T13:55:40Z</time>
      </trkpt>
      <trkpt lat="49.82596" lon="2.40739">
        <ele>34.8</ele>
        <time>2023-04-19T13:55:41Z</time>
      </trkpt>
      <trkpt lat="49.82597" lon="2.40739">
        <ele>34.7</ele>
        <time>2023-04-19T13:55:42Z</time>
      </trkpt>
      <trkpt lat="49.82599" lon="2.40739">
        <ele>34.7</ele>
        <time>2023-04-19T13:55:43Z</time>
      </trkpt>
      <trkpt lat="49.826" lon="2.40739">
        <ele>34.7</ele>
        <time>2023-04-19T13:55:44Z</time>
      </trkpt>
      <trkpt lat="49.82601" lon="2.40738">
        <ele>34.6</ele>
        <time>2023-04-19T13:55:45Z</time>
      </trkpt>
      <trkpt lat="49.82602" lon="2.40738">
        <ele>34.6</ele>
        <time>2023-04-19T13:55:46Z</time>
      </trkpt>
      <trkpt lat="49.82604" lon="2.40738">
        <ele>34.6</ele>
        <time>2023-04-19T13:55:48Z</time>
      </trkpt>
      <trkpt lat="49.82606" lon="2.40738">
        <ele>34.5</ele>
        <time>2023-04-19T13:55:49Z</time>
      </trkpt>
      <trkpt lat="49.82607" lon="2.40738">
        <ele>34.5</ele>
        <time>2023-04-19T13:55:50Z</time>
      </trkpt>
      <trkpt lat="49.82608" lon="2.40738">
        <ele>34.5</ele>
        <time>2023-04-19T13:55:51Z</time>
      </trkpt>
      <trkpt lat="49.82609" lon="2.40737">
        <ele>34.5</ele>
        <time>2023-04-19T13:55:52Z</time>
      </trkpt>
      <trkpt lat="49.8261" lon="2.40737">
        <ele>34.4</ele>
        <time>2023-04-19T13:55:53Z</time>
      </trkpt>
      <trkpt lat="49.82611" lon="2.40737">
        <ele>34.4</ele>
        <time>2023-04-19T13:55:54Z</time>
      </trkpt>
      <trkpt lat="49.82613" lon="2.40736">
        <ele>34.4</ele>
        <time>2023-04-19T13:55:55Z</time>
      </trkpt>
      <trkpt lat="49.82614" lon="2.40736">
        <ele>34.3</ele>
        <time>2023-04-19T13:55:57Z</time>
      </trkpt>
      <trkpt lat="49.82614" lon="2.40735">
        <ele>34.3</ele>
        <time>2023-04-19T13:55:58Z</time>
      </trkpt>
      <trkpt lat="49.82616" lon="2.40735">
        <ele>34.3</ele>
        <time>2023-04-19T13:55:59Z</time>
      </trkpt>
      <trkpt lat="49.82617" lon="2.40735">
        <ele>34.3</ele>
        <time>2023-04-19T13:56:00Z</time>
      </trkpt>
      <trkpt lat="49.82618" lon="2.40735">
        <ele>34.3</ele>
        <time>2023-04-19T13:56:01Z</time>
      </trkpt>
      <trkpt lat="49.8262" lon="2.40735">
        <ele>34.2</ele>
        <time>2023-04-19T13:56:02Z</time>
      </trkpt>
      <trkpt lat="49.82621" lon="2.40735">
        <ele>34.2</ele>
        <time>2023-04-19T13:56:03Z</time>
      </trkpt>
      <trkpt lat="49.82621" lon="2.40736">
        <ele>34.2</ele>
        <time>2023-04-19T13:56:04Z</time>
      </trkpt>
      <trkpt lat="49.82623" lon="2.40736">
        <ele>34.1</ele>
        <time>2023-04-19T13:56:05Z</time>
      </trkpt>
      <trkpt lat="49.82623" lon="2.40737">
        <ele>34.1</ele>
        <time>2023-04-19T13:56:07Z</time>
      </trkpt>
      <trkpt lat="49.82624" lon="2.40737">
        <ele>34.1</ele>
        <time>2023-04-19T13:56:08Z</time>
      </trkpt>
      <trkpt lat="49.82625" lon="2.40737">
        <ele>34.1</ele>
        <time>2023-04-19T13:56:09Z</time>
      </trkpt>
      <trkpt lat="49.82627" lon="2.40737">
        <ele>34</ele>
        <time>2023-04-19T13:56:10Z</time>
      </trkpt>
      <trkpt lat="49.82628" lon="2.40736">
        <ele>34</ele>
        <time>2023-04-19T13:56:11Z</time>
      </trkpt>
      <trkpt lat="49.82629" lon="2.40736">
        <ele>34</ele>
        <time>2023-04-19T13:56:12Z</time>
      </trkpt>
      <trkpt lat="49.82631" lon="2.40737">
        <ele>34</ele>
        <time>2023-04-19T13:56:13Z</time>
      </trkpt>
      <trkpt lat="49.82632" lon="2.40737">
        <ele>34</ele>
        <time>2023-04-19T13:56:15Z</time>
      </trkpt>
      <trkpt lat="49.82633" lon="2.40737">
        <ele>34</ele>
        <time>2023-04-19T13:56:16Z</time>
      </trkpt>
      <trkpt lat="49.82634" lon="2.40737">
        <ele>33.9</ele>
        <time>2023-04-19T13:56:17Z</time>
      </trkpt>
      <trkpt lat="49.82635" lon="2.40737">
        <ele>33.9</ele>
        <time>2023-04-19T13:56:18Z</time>
      </trkpt>
      <trkpt lat="49.82637" lon="2.40738">
        <ele>33.9</ele>
        <time>2023-04-19T13:56:19Z</time>
      </trkpt>
      <trkpt lat="49.82637" lon="2.40738">
        <ele>33.9</ele>
        <time>2023-04-19T13:56:21Z</time>
      </trkpt>
      <trkpt lat="49.82638" lon="2.40738">
        <ele>33.9</ele>
        <time>2023-04-19T13:56:22Z</time>
      </trkpt>
      <trkpt lat="49.82639" lon="2.40739">
        <ele>33.9</ele>
        <time>2023-04-19T13:56:23Z</time>
      </trkpt>
      <trkpt lat="49.82641" lon="2.40738">
        <ele>33.8</ele>
        <time>2023-04-19T13:56:24Z</time>
      </trkpt>
      <trkpt lat="49.82642" lon="2.40738">
        <ele>33.8</ele>
        <time>2023-04-19T13:56:25Z</time>
      </trkpt>
      <trkpt lat="49.82643" lon="2.40738">
        <ele>33.8</ele>
        <time>2023-04-19T13:56:26Z</time>
      </trkpt>
      <trkpt lat="49.82644" lon="2.40738">
        <ele>33.8</ele>
        <time>2023-04-19T13:56:27Z</time>
      </trkpt>
      <trkpt lat="49.82646" lon="2.40737">
        <ele>33.7</ele>
        <time>2023-04-19T13:56:28Z</time>
      </trkpt>
      <trkpt lat="49.82647" lon="2.40738">
        <ele>33.7</ele>
        <time>2023-04-19T13:56:30Z</time>
      </trkpt>
      <trkpt lat="49.82649" lon="2.40738">
        <ele>33.7</ele>
        <time>2023-04-19T13:56:31Z</time>
      </trkpt>
      <trkpt lat="49.8265" lon="2.40738">
        <ele>33.7</ele>
        <time>2023-04-19T13:56:32Z</time>
      </trkpt>
      <trkpt lat="49.82651" lon="2.40738">
        <ele>33.7</ele>
        <time>2023-04-19T13:56:33Z</time>
      </trkpt>
      <trkpt lat="49.82654" lon="2.40738">
        <ele>33.6</ele>
        <time>2023-04-19T13:56:35Z</time>
      </trkpt>
      <trkpt lat="49.82655" lon="2.40738">
        <ele>33.6</ele>
        <time>2023-04-19T13:56:37Z</time>
      </trkpt>
      <trkpt lat="49.82656" lon="2.40738">
        <ele>33.6</ele>
        <time>2023-04-19T13:56:38Z</time>
      </trkpt>
      <trkpt lat="49.82657" lon="2.40738">
        <ele>33.6</ele>
        <time>2023-04-19T13:56:39Z</time>
      </trkpt>
      <trkpt lat="49.82658" lon="2.40738">
        <ele>33.6</ele>
        <time>2023-04-19T13:56:40Z</time>
      </trkpt>
      <trkpt lat="49.82659" lon="2.40738">
        <ele>33.5</ele>
        <time>2023-04-19T13:56:41Z</time>
      </trkpt>
      <trkpt lat="49.8266" lon="2.40738">
        <ele>33.5</ele>
        <time>2023-04-19T13:56:42Z</time>
      </trkpt>
      <trkpt lat="49.82661" lon="2.40738">
        <ele>33.5</ele>
        <time>2023-04-19T13:56:43Z</time>
      </trkpt>
      <trkpt lat="49.82663" lon="2.40739">
        <ele>33.5</ele>
        <time>2023-04-19T13:56:45Z</time>
      </trkpt>
      <trkpt lat="49.82664" lon="2.40739">
        <ele>33.5</ele>
        <time>2023-04-19T13:56:46Z</time>
      </trkpt>
      <trkpt lat="49.82665" lon="2.4074">
        <ele>33.4</ele>
        <time>2023-04-19T13:56:47Z</time>
      </trkpt>
      <trkpt lat="49.82668" lon="2.4074">
        <ele>33.4</ele>
        <time>2023-04-19T13:56:48Z</time>
      </trkpt>
      <trkpt lat="49.82669" lon="2.40741">
        <ele>33.4</ele>
        <time>2023-04-19T13:56:49Z</time>
      </trkpt>
      <trkpt lat="49.8267" lon="2.40741">
        <ele>33.4</ele>
        <time>2023-04-19T13:56:50Z</time>
      </trkpt>
      <trkpt lat="49.82671" lon="2.40742">
        <ele>33.3</ele>
        <time>2023-04-19T13:56:51Z</time>
      </trkpt>
      <trkpt lat="49.82672" lon="2.40742">
        <ele>33.3</ele>
        <time>2023-04-19T13:56:52Z</time>
      </trkpt>
      <trkpt lat="49.82673" lon="2.40743">
        <ele>33.3</ele>
        <time>2023-04-19T13:56:54Z</time>
      </trkpt>
      <trkpt lat="49.82673" lon="2.40743">
        <ele>33.3</ele>
        <time>2023-04-19T13:56:55Z</time>
      </trkpt>
      <trkpt lat="49.82674" lon="2.40743">
        <ele>33.3</ele>
        <time>2023-04-19T13:56:56Z</time>
      </trkpt>
      <trkpt lat="49.82675" lon="2.40743">
        <ele>33.3</ele>
        <time>2023-04-19T13:56:57Z</time>
      </trkpt>
      <trkpt lat="49.82676" lon="2.40744">
        <ele>33.3</ele>
        <time>2023-04-19T13:56:58Z</time>
      </trkpt>
      <trkpt lat="49.82676" lon="2.40744">
        <ele>33.3</ele>
        <time>2023-04-19T13:56:59Z</time>
      </trkpt>
      <trkpt lat="49.82678" lon="2.40744">
        <ele>33.3</ele>
        <time>2023-04-19T13:57:01Z</time>
      </trkpt>
      <trkpt lat="49.82679" lon="2.40744">
        <ele>33.2</ele>
        <time>2023-04-19T13:57:02Z</time>
      </trkpt>
      <trkpt lat="49.8268" lon="2.40744">
        <ele>33.2</ele>
        <time>2023-04-19T13:57:03Z</time>
      </trkpt>
      <trkpt lat="49.82681" lon="2.40744">
        <ele>33.2</ele>
        <time>2023-04-19T13:57:04Z</time>
      </trkpt>
      <trkpt lat="49.82682" lon="2.40744">
        <ele>33.2</ele>
        <time>2023-04-19T13:57:05Z</time>
      </trkpt>
      <trkpt lat="49.82683" lon="2.40745">
        <ele>33.2</ele>
        <time>2023-04-19T13:57:06Z</time>
      </trkpt>
      <trkpt lat="49.82684" lon="2.40745">
        <ele>33.2</ele>
        <time>2023-04-19T13:57:08Z</time>
      </trkpt>
      <trkpt lat="49.82685" lon="2.40745">
        <ele>33.2</ele>
        <time>2023-04-19T13:57:09Z</time>
      </trkpt>
      <trkpt lat="49.82686" lon="2.40745">
        <ele>33.2</ele>
        <time>2023-04-19T13:57:10Z</time>
      </trkpt>
      <trkpt lat="49.82688" lon="2.40746">
        <ele>33.1</ele>
        <time>2023-04-19T13:57:11Z</time>
      </trkpt>
      <trkpt lat="49.82689" lon="2.40746">
        <ele>33.1</ele>
        <time>2023-04-19T13:57:12Z</time>
      </trkpt>
      <trkpt lat="49.8269" lon="2.40746">
        <ele>33.1</ele>
        <time>2023-04-19T13:57:13Z</time>
      </trkpt>
      <trkpt lat="49.82693" lon="2.40746">
        <ele>33.1</ele>
        <time>2023-04-19T13:57:14Z</time>
      </trkpt>
      <trkpt lat="49.82694" lon="2.40746">
        <ele>33.1</ele>
        <time>2023-04-19T13:57:16Z</time>
      </trkpt>
      <trkpt lat="49.82696" lon="2.40746">
        <ele>33</ele>
        <time>2023-04-19T13:57:17Z</time>
      </trkpt>
      <trkpt lat="49.82697" lon="2.40746">
        <ele>33</ele>
        <time>2023-04-19T13:57:18Z</time>
      </trkpt>
      <trkpt lat="49.82699" lon="2.40747">
        <ele>33</ele>
        <time>2023-04-19T13:57:19Z</time>
      </trkpt>
      <trkpt lat="49.827" lon="2.40747">
        <ele>33</ele>
        <time>2023-04-19T13:57:20Z</time>
      </trkpt>
      <trkpt lat="49.82701" lon="2.40747">
        <ele>33</ele>
        <time>2023-04-19T13:57:21Z</time>
      </trkpt>
      <trkpt lat="49.82702" lon="2.40748">
        <ele>33</ele>
        <time>2023-04-19T13:57:22Z</time>
      </trkpt>
      <trkpt lat="49.82703" lon="2.40748">
        <ele>33</ele>
        <time>2023-04-19T13:57:24Z</time>
      </trkpt>
      <trkpt lat="49.82703" lon="2.40748">
        <ele>33</ele>
        <time>2023-04-19T13:57:25Z</time>
      </trkpt>
      <trkpt lat="49.82704" lon="2.40748">
        <ele>32.9</ele>
        <time>2023-04-19T13:57:26Z</time>
      </trkpt>
      <trkpt lat="49.82705" lon="2.40747">
        <ele>32.9</ele>
        <time>2023-04-19T13:57:27Z</time>
      </trkpt>
      <trkpt lat="49.82706" lon="2.40746">
        <ele>32.9</ele>
        <time>2023-04-19T13:57:28Z</time>
      </trkpt>
      <trkpt lat="49.82707" lon="2.40746">
        <ele>32.9</ele>
        <time>2023-04-19T13:57:29Z</time>
      </trkpt>
      <trkpt lat="49.82708" lon="2.40746">
        <ele>32.9</ele>
        <time>2023-04-19T13:57:30Z</time>
      </trkpt>
      <trkpt lat="49.8271" lon="2.40746">
        <ele>32.9</ele>
        <time>2023-04-19T13:57:32Z</time>
      </trkpt>
      <trkpt lat="49.82711" lon="2.40746">
        <ele>32.9</ele>
        <time>2023-04-19T13:57:33Z</time>
      </trkpt>
      <trkpt lat="49.82713" lon="2.40745">
        <ele>32.8</ele>
        <time>2023-04-19T13:57:34Z</time>
      </trkpt>
      <trkpt lat="49.82714" lon="2.40744">
        <ele>32.8</ele>
        <time>2023-04-19T13:57:35Z</time>
      </trkpt>
      <trkpt lat="49.82715" lon="2.40744">
        <ele>32.8</ele>
        <time>2023-04-19T13:57:36Z</time>
      </trkpt>
      <trkpt lat="49.82717" lon="2.40742">
        <ele>32.8</ele>
        <time>2023-04-19T13:57:37Z</time>
      </trkpt>
      <trkpt lat="49.82719" lon="2.4074">
        <ele>32.8</ele>
        <time>2023-04-19T13:57:38Z</time>
      </trkpt>
      <trkpt lat="49.82719" lon="2.40739">
        <ele>32.7</ele>
        <time>2023-04-19T13:57:39Z</time>
      </trkpt>
      <trkpt lat="49.82719" lon="2.40738">
        <ele>32.7</ele>
        <time>2023-04-19T13:57:40Z</time>
      </trkpt>
      <trkpt lat="49.8272" lon="2.40737">
        <ele>32.7</ele>
        <time>2023-04-19T13:57:42Z</time>
      </trkpt>
      <trkpt lat="49.82721" lon="2.40736">
        <ele>32.7</ele>
        <time>2023-04-19T13:57:43Z</time>
      </trkpt>
      <trkpt lat="49.82722" lon="2.40735">
        <ele>32.7</ele>
        <time>2023-04-19T13:57:44Z</time>
      </trkpt>
      <trkpt lat="49.82723" lon="2.40735">
        <ele>32.7</ele>
        <time>2023-04-19T13:57:45Z</time>
      </trkpt>
      <trkpt lat="49.82724" lon="2.40735">
        <ele>32.7</ele>
        <time>2023-04-19T13:57:46Z</time>
      </trkpt>
      <trkpt lat="49.82725" lon="2.40734">
        <ele>32.7</ele>
        <time>2023-04-19T13:57:47Z</time>
      </trkpt>
      <trkpt lat="49.82727" lon="2.40734">
        <ele>32.6</ele>
        <time>2023-04-19T13:57:48Z</time>
      </trkpt>
      <trkpt lat="49.82728" lon="2.40733">
        <ele>32.6</ele>
        <time>2023-04-19T13:57:49Z</time>
      </trkpt>
      <trkpt lat="49.82728" lon="2.40732">
        <ele>32.6</ele>
        <time>2023-04-19T13:57:50Z</time>
      </trkpt>
      <trkpt lat="49.82729" lon="2.40731">
        <ele>32.6</ele>
        <time>2023-04-19T13:57:52Z</time>
      </trkpt>
      <trkpt lat="49.8273" lon="2.4073">
        <ele>32.6</ele>
        <time>2023-04-19T13:57:53Z</time>
      </trkpt>
      <trkpt lat="49.8273" lon="2.40729">
        <ele>32.6</ele>
        <time>2023-04-19T13:57:54Z</time>
      </trkpt>
      <trkpt lat="49.82731" lon="2.40728">
        <ele>32.6</ele>
        <time>2023-04-19T13:57:55Z</time>
      </trkpt>
      <trkpt lat="49.82732" lon="2.40727">
        <ele>32.6</ele>
        <time>2023-04-19T13:57:56Z</time>
      </trkpt>
      <trkpt lat="49.82732" lon="2.40726">
        <ele>32.5</ele>
        <time>2023-04-19T13:57:57Z</time>
      </trkpt>
      <trkpt lat="49.82733" lon="2.40725">
        <ele>32.5</ele>
        <time>2023-04-19T13:57:58Z</time>
      </trkpt>
      <trkpt lat="49.82734" lon="2.40724">
        <ele>32.5</ele>
        <time>2023-04-19T13:57:59Z</time>
      </trkpt>
      <trkpt lat="49.82735" lon="2.40723">
        <ele>32.5</ele>
        <time>2023-04-19T13:58:00Z</time>
      </trkpt>
      <trkpt lat="49.82736" lon="2.40723">
        <ele>32.5</ele>
        <time>2023-04-19T13:58:02Z</time>
      </trkpt>
      <trkpt lat="49.82736" lon="2.40722">
        <ele>32.5</ele>
        <time>2023-04-19T13:58:03Z</time>
      </trkpt>
      <trkpt lat="49.82737" lon="2.40722">
        <ele>32.5</ele>
        <time>2023-04-19T13:58:04Z</time>
      </trkpt>
      <trkpt lat="49.82737" lon="2.40721">
        <ele>32.5</ele>
        <time>2023-04-19T13:58:05Z</time>
      </trkpt>
      <trkpt lat="49.82738" lon="2.40721">
        <ele>32.5</ele>
        <time>2023-04-19T13:58:06Z</time>
      </trkpt>
      <trkpt lat="49.8274" lon="2.4072">
        <ele>32.5</ele>
        <time>2023-04-19T13:58:07Z</time>
      </trkpt>
      <trkpt lat="49.82743" lon="2.40719">
        <ele>32.4</ele>
        <time>2023-04-19T13:58:08Z</time>
      </trkpt>
      <trkpt lat="49.82743" lon="2.40719">
        <ele>32.4</ele>
        <time>2023-04-19T13:58:10Z</time>
      </trkpt>
      <trkpt lat="49.82744" lon="2.40718">
        <ele>32.4</ele>
        <time>2023-04-19T13:58:11Z</time>
      </trkpt>
      <trkpt lat="49.82745" lon="2.40718">
        <ele>32.4</ele>
        <time>2023-04-19T13:58:12Z</time>
      </trkpt>
      <trkpt lat="49.82746" lon="2.40718">
        <ele>32.4</ele>
        <time>2023-04-19T13:58:13Z</time>
      </trkpt>
      <trkpt lat="49.82748" lon="2.40717">
        <ele>32.3</ele>
        <time>2023-04-19T13:58:15Z</time>
      </trkpt>
      <trkpt lat="49.82749" lon="2.40717">
        <ele>32.3</ele>
        <time>2023-04-19T13:58:16Z</time>
      </trkpt>
      <trkpt lat="49.82751" lon="2.40717">
        <ele>32.3</ele>
        <time>2023-04-19T13:58:17Z</time>
      </trkpt>
      <trkpt lat="49.82752" lon="2.40717">
        <ele>32.3</ele>
        <time>2023-04-19T13:58:18Z</time>
      </trkpt>
      <trkpt lat="49.82754" lon="2.40717">
        <ele>32.3</ele>
        <time>2023-04-19T13:58:19Z</time>
      </trkpt>
      <trkpt lat="49.82755" lon="2.40717">
        <ele>32.3</ele>
        <time>2023-04-19T13:58:20Z</time>
      </trkpt>
      <trkpt lat="49.82756" lon="2.40716">
        <ele>32.2</ele>
        <time>2023-04-19T13:58:21Z</time>
      </trkpt>
      <trkpt lat="49.82758" lon="2.40716">
        <ele>32.2</ele>
        <time>2023-04-19T13:58:22Z</time>
      </trkpt>
      <trkpt lat="49.82761" lon="2.40716">
        <ele>32.2</ele>
        <time>2023-04-19T13:58:23Z</time>
      </trkpt>
      <trkpt lat="49.82762" lon="2.40716">
        <ele>32.2</ele>
        <time>2023-04-19T13:58:25Z</time>
      </trkpt>
      <trkpt lat="49.82763" lon="2.40716">
        <ele>32.2</ele>
        <time>2023-04-19T13:58:26Z</time>
      </trkpt>
      <trkpt lat="49.82764" lon="2.40716">
        <ele>32.2</ele>
        <time>2023-04-19T13:58:27Z</time>
      </trkpt>
      <trkpt lat="49.82765" lon="2.40716">
        <ele>32.1</ele>
        <time>2023-04-19T13:58:28Z</time>
      </trkpt>
      <trkpt lat="49.82767" lon="2.40716">
        <ele>32.1</ele>
        <time>2023-04-19T13:58:29Z</time>
      </trkpt>
      <trkpt lat="49.82768" lon="2.40715">
        <ele>32.1</ele>
        <time>2023-04-19T13:58:30Z</time>
      </trkpt>
      <trkpt lat="49.82768" lon="2.40715">
        <ele>32.1</ele>
        <time>2023-04-19T13:58:31Z</time>
      </trkpt>
      <trkpt lat="49.82771" lon="2.40715">
        <ele>32.1</ele>
        <time>2023-04-19T13:58:32Z</time>
      </trkpt>
      <trkpt lat="49.82771" lon="2.40715">
        <ele>32.1</ele>
        <time>2023-04-19T13:58:34Z</time>
      </trkpt>
      <trkpt lat="49.82772" lon="2.40715">
        <ele>32.1</ele>
        <time>2023-04-19T13:58:35Z</time>
      </trkpt>
      <trkpt lat="49.82774" lon="2.40714">
        <ele>32</ele>
        <time>2023-04-19T13:58:36Z</time>
      </trkpt>
      <trkpt lat="49.82775" lon="2.40714">
        <ele>32</ele>
        <time>2023-04-19T13:58:37Z</time>
      </trkpt>
      <trkpt lat="49.82776" lon="2.40713">
        <ele>32</ele>
        <time>2023-04-19T13:58:38Z</time>
      </trkpt>
      <trkpt lat="49.82777" lon="2.40713">
        <ele>32</ele>
        <time>2023-04-19T13:58:39Z</time>
      </trkpt>
      <trkpt lat="49.82778" lon="2.40712">
        <ele>32</ele>
        <time>2023-04-19T13:58:40Z</time>
      </trkpt>
      <trkpt lat="49.82779" lon="2.40712">
        <ele>32</ele>
        <time>2023-04-19T13:58:41Z</time>
      </trkpt>
      <trkpt lat="49.82781" lon="2.40711">
        <ele>32</ele>
        <time>2023-04-19T13:58:42Z</time>
      </trkpt>
      <trkpt lat="49.82782" lon="2.4071">
        <ele>32</ele>
        <time>2023-04-19T13:58:44Z</time>
      </trkpt>
      <trkpt lat="49.82783" lon="2.4071">
        <ele>32</ele>
        <time>2023-04-19T13:58:45Z</time>
      </trkpt>
      <trkpt lat="49.82785" lon="2.40709">
        <ele>32</ele>
        <time>2023-04-19T13:58:46Z</time>
      </trkpt>
      <trkpt lat="49.82786" lon="2.40709">
        <ele>31.9</ele>
        <time>2023-04-19T13:58:47Z</time>
      </trkpt>
      <trkpt lat="49.82788" lon="2.40708">
        <ele>31.9</ele>
        <time>2023-04-19T13:58:48Z</time>
      </trkpt>
      <trkpt lat="49.82789" lon="2.40707">
        <ele>31.9</ele>
        <time>2023-04-19T13:58:50Z</time>
      </trkpt>
      <trkpt lat="49.8279" lon="2.40706">
        <ele>31.9</ele>
        <time>2023-04-19T13:58:51Z</time>
      </trkpt>
      <trkpt lat="49.82791" lon="2.40706">
        <ele>31.9</ele>
        <time>2023-04-19T13:58:52Z</time>
      </trkpt>
      <trkpt lat="49.82792" lon="2.40705">
        <ele>31.9</ele>
        <time>2023-04-19T13:58:53Z</time>
      </trkpt>
      <trkpt lat="49.82794" lon="2.40704">
        <ele>31.9</ele>
        <time>2023-04-19T13:58:54Z</time>
      </trkpt>
      <trkpt lat="49.82795" lon="2.40704">
        <ele>31.9</ele>
        <time>2023-04-19T13:58:55Z</time>
      </trkpt>
      <trkpt lat="49.82796" lon="2.40703">
        <ele>31.9</ele>
        <time>2023-04-19T13:58:56Z</time>
      </trkpt>
      <trkpt lat="49.82797" lon="2.40703">
        <ele>31.9</ele>
        <time>2023-04-19T13:58:58Z</time>
      </trkpt>
      <trkpt lat="49.82798" lon="2.40702">
        <ele>31.9</ele>
        <time>2023-04-19T13:58:59Z</time>
      </trkpt>
      <trkpt lat="49.82799" lon="2.40701">
        <ele>31.9</ele>
        <time>2023-04-19T13:59:00Z</time>
      </trkpt>
      <trkpt lat="49.828" lon="2.40701">
        <ele>31.9</ele>
        <time>2023-04-19T13:59:01Z</time>
      </trkpt>
      <trkpt lat="49.82801" lon="2.407">
        <ele>31.9</ele>
        <time>2023-04-19T13:59:02Z</time>
      </trkpt>
      <trkpt lat="49.82801" lon="2.40699">
        <ele>31.9</ele>
        <time>2023-04-19T13:59:03Z</time>
      </trkpt>
      <trkpt lat="49.82802" lon="2.40698">
        <ele>31.9</ele>
        <time>2023-04-19T13:59:04Z</time>
      </trkpt>
      <trkpt lat="49.82803" lon="2.40698">
        <ele>31.9</ele>
        <time>2023-04-19T13:59:05Z</time>
      </trkpt>
      <trkpt lat="49.82804" lon="2.40697">
        <ele>31.9</ele>
        <time>2023-04-19T13:59:06Z</time>
      </trkpt>
      <trkpt lat="49.82805" lon="2.40696">
        <ele>31.9</ele>
        <time>2023-04-19T13:59:07Z</time>
      </trkpt>
      <trkpt lat="49.82806" lon="2.40696">
        <ele>31.9</ele>
        <time>2023-04-19T13:59:08Z</time>
      </trkpt>
      <trkpt lat="49.82807" lon="2.40696">
        <ele>31.9</ele>
        <time>2023-04-19T13:59:10Z</time>
      </trkpt>
      <trkpt lat="49.82808" lon="2.40695">
        <ele>31.8</ele>
        <time>2023-04-19T13:59:11Z</time>
      </trkpt>
      <trkpt lat="49.8281" lon="2.40695">
        <ele>31.8</ele>
        <time>2023-04-19T13:59:12Z</time>
      </trkpt>
      <trkpt lat="49.8281" lon="2.40695">
        <ele>31.8</ele>
        <time>2023-04-19T13:59:13Z</time>
      </trkpt>
      <trkpt lat="49.82811" lon="2.40695">
        <ele>31.8</ele>
        <time>2023-04-19T13:59:14Z</time>
      </trkpt>
      <trkpt lat="49.82812" lon="2.40694">
        <ele>31.8</ele>
        <time>2023-04-19T13:59:15Z</time>
      </trkpt>
      <trkpt lat="49.82813" lon="2.40693">
        <ele>31.8</ele>
        <time>2023-04-19T13:59:16Z</time>
      </trkpt>
      <trkpt lat="49.82814" lon="2.40693">
        <ele>31.8</ele>
        <time>2023-04-19T13:59:17Z</time>
      </trkpt>
      <trkpt lat="49.82815" lon="2.40693">
        <ele>31.8</ele>
        <time>2023-04-19T13:59:18Z</time>
      </trkpt>
      <trkpt lat="49.82816" lon="2.40693">
        <ele>31.8</ele>
        <time>2023-04-19T13:59:20Z</time>
      </trkpt>
      <trkpt lat="49.82818" lon="2.40693">
        <ele>31.8</ele>
        <time>2023-04-19T13:59:21Z</time>
      </trkpt>
      <trkpt lat="49.82819" lon="2.40692">
        <ele>31.8</ele>
        <time>2023-04-19T13:59:22Z</time>
      </trkpt>
      <trkpt lat="49.8282" lon="2.40692">
        <ele>31.8</ele>
        <time>2023-04-19T13:59:23Z</time>
      </trkpt>
      <trkpt lat="49.82821" lon="2.40692">
        <ele>31.8</ele>
        <time>2023-04-19T13:59:24Z</time>
      </trkpt>
      <trkpt lat="49.82823" lon="2.40691">
        <ele>31.8</ele>
        <time>2023-04-19T13:59:25Z</time>
      </trkpt>
      <trkpt lat="49.82825" lon="2.40691">
        <ele>31.8</ele>
        <time>2023-04-19T13:59:27Z</time>
      </trkpt>
      <trkpt lat="49.82826" lon="2.4069">
        <ele>31.8</ele>
        <time>2023-04-19T13:59:28Z</time>
      </trkpt>
      <trkpt lat="49.82827" lon="2.4069">
        <ele>31.8</ele>
        <time>2023-04-19T13:59:29Z</time>
      </trkpt>
      <trkpt lat="49.82828" lon="2.4069">
        <ele>31.8</ele>
        <time>2023-04-19T13:59:30Z</time>
      </trkpt>
      <trkpt lat="49.82829" lon="2.4069">
        <ele>31.8</ele>
        <time>2023-04-19T13:59:31Z</time>
      </trkpt>
      <trkpt lat="49.8283" lon="2.40689">
        <ele>31.8</ele>
        <time>2023-04-19T13:59:32Z</time>
      </trkpt>
      <trkpt lat="49.82832" lon="2.40688">
        <ele>31.8</ele>
        <time>2023-04-19T13:59:34Z</time>
      </trkpt>
      <trkpt lat="49.82834" lon="2.40687">
        <ele>31.8</ele>
        <time>2023-04-19T13:59:35Z</time>
      </trkpt>
      <trkpt lat="49.82835" lon="2.40686">
        <ele>31.8</ele>
        <time>2023-04-19T13:59:36Z</time>
      </trkpt>
      <trkpt lat="49.82837" lon="2.40684">
        <ele>31.8</ele>
        <time>2023-04-19T13:59:37Z</time>
      </trkpt>
      <trkpt lat="49.82838" lon="2.40684">
        <ele>31.8</ele>
        <time>2023-04-19T13:59:38Z</time>
      </trkpt>
      <trkpt lat="49.82838" lon="2.40683">
        <ele>31.8</ele>
        <time>2023-04-19T13:59:39Z</time>
      </trkpt>
      <trkpt lat="49.8284" lon="2.40683">
        <ele>31.8</ele>
        <time>2023-04-19T13:59:40Z</time>
      </trkpt>
      <trkpt lat="49.82841" lon="2.40682">
        <ele>31.8</ele>
        <time>2023-04-19T13:59:41Z</time>
      </trkpt>
      <trkpt lat="49.82842" lon="2.40682">
        <ele>31.8</ele>
        <time>2023-04-19T13:59:42Z</time>
      </trkpt>
      <trkpt lat="49.82843" lon="2.40682">
        <ele>31.8</ele>
        <time>2023-04-19T13:59:44Z</time>
      </trkpt>
      <trkpt lat="49.82845" lon="2.40681">
        <ele>31.8</ele>
        <time>2023-04-19T13:59:45Z</time>
      </trkpt>
      <trkpt lat="49.82846" lon="2.40681">
        <ele>31.8</ele>
        <time>2023-04-19T13:59:46Z</time>
      </trkpt>
      <trkpt lat="49.82847" lon="2.40681">
        <ele>31.8</ele>
        <time>2023-04-19T13:59:47Z</time>
      </trkpt>
      <trkpt lat="49.82848" lon="2.4068">
        <ele>31.8</ele>
        <time>2023-04-19T13:59:48Z</time>
      </trkpt>
      <trkpt lat="49.8285" lon="2.40679">
        <ele>31.8</ele>
        <time>2023-04-19T13:59:49Z</time>
      </trkpt>
      <trkpt lat="49.82851" lon="2.40679">
        <ele>31.7</ele>
        <time>2023-04-19T13:59:50Z</time>
      </trkpt>
      <trkpt lat="49.82852" lon="2.40679">
        <ele>31.7</ele>
        <time>2023-04-19T13:59:52Z</time>
      </trkpt>
      <trkpt lat="49.82854" lon="2.40678">
        <ele>31.7</ele>
        <time>2023-04-19T13:59:53Z</time>
      </trkpt>
      <trkpt lat="49.82855" lon="2.40678">
        <ele>31.7</ele>
        <time>2023-04-19T13:59:54Z</time>
      </trkpt>
      <trkpt lat="49.82856" lon="2.40677">
        <ele>31.7</ele>
        <time>2023-04-19T13:59:55Z</time>
      </trkpt>
      <trkpt lat="49.82856" lon="2.40677">
        <ele>31.7</ele>
        <time>2023-04-19T13:59:56Z</time>
      </trkpt>
      <trkpt lat="49.82857" lon="2.40676">
        <ele>31.7</ele>
        <time>2023-04-19T13:59:57Z</time>
      </trkpt>
      <trkpt lat="49.82858" lon="2.40675">
        <ele>31.7</ele>
        <time>2023-04-19T13:59:59Z</time>
      </trkpt>
      <trkpt lat="49.8286" lon="2.40674">
        <ele>31.7</ele>
        <time>2023-04-19T14:00:00Z</time>
      </trkpt>
      <trkpt lat="49.82861" lon="2.40674">
        <ele>31.7</ele>
        <time>2023-04-19T14:00:01Z</time>
      </trkpt>
      <trkpt lat="49.82863" lon="2.40674">
        <ele>31.7</ele>
        <time>2023-04-19T14:00:02Z</time>
      </trkpt>
      <trkpt lat="49.82864" lon="2.40674">
        <ele>31.7</ele>
        <time>2023-04-19T14:00:03Z</time>
      </trkpt>
      <trkpt lat="49.82865" lon="2.40674">
        <ele>31.7</ele>
        <time>2023-04-19T14:00:04Z</time>
      </trkpt>
      <trkpt lat="49.82867" lon="2.40674">
        <ele>31.7</ele>
        <time>2023-04-19T14:00:05Z</time>
      </trkpt>
      <trkpt lat="49.82867" lon="2.40673">
        <ele>31.7</ele>
        <time>2023-04-19T14:00:06Z</time>
      </trkpt>
      <trkpt lat="49.82868" lon="2.40673">
        <ele>31.7</ele>
        <time>2023-04-19T14:00:07Z</time>
      </trkpt>
      <trkpt lat="49.82869" lon="2.40672">
        <ele>31.7</ele>
        <time>2023-04-19T14:00:08Z</time>
      </trkpt>
      <trkpt lat="49.8287" lon="2.40671">
        <ele>31.7</ele>
        <time>2023-04-19T14:00:09Z</time>
      </trkpt>
      <trkpt lat="49.82871" lon="2.4067">
        <ele>31.7</ele>
        <time>2023-04-19T14:00:10Z</time>
      </trkpt>
      <trkpt lat="49.82873" lon="2.40669">
        <ele>31.7</ele>
        <time>2023-04-19T14:00:12Z</time>
      </trkpt>
      <trkpt lat="49.82874" lon="2.40669">
        <ele>31.7</ele>
        <time>2023-04-19T14:00:13Z</time>
      </trkpt>
      <trkpt lat="49.82875" lon="2.40668">
        <ele>31.7</ele>
        <time>2023-04-19T14:00:14Z</time>
      </trkpt>
      <trkpt lat="49.82876" lon="2.40667">
        <ele>31.7</ele>
        <time>2023-04-19T14:00:15Z</time>
      </trkpt>
      <trkpt lat="49.82878" lon="2.40666">
        <ele>31.7</ele>
        <time>2023-04-19T14:00:16Z</time>
      </trkpt>
      <trkpt lat="49.82879" lon="2.40665">
        <ele>31.7</ele>
        <time>2023-04-19T14:00:17Z</time>
      </trkpt>
      <trkpt lat="49.8288" lon="2.40664">
        <ele>31.7</ele>
        <time>2023-04-19T14:00:18Z</time>
      </trkpt>
      <trkpt lat="49.82881" lon="2.40662">
        <ele>31.7</ele>
        <time>2023-04-19T14:00:19Z</time>
      </trkpt>
      <trkpt lat="49.82881" lon="2.4066">
        <ele>31.7</ele>
        <time>2023-04-19T14:00:20Z</time>
      </trkpt>
      <trkpt lat="49.82882" lon="2.40656">
        <ele>31.7</ele>
        <time>2023-04-19T14:00:21Z</time>
      </trkpt>
      <trkpt lat="49.82882" lon="2.40655">
        <ele>31.7</ele>
        <time>2023-04-19T14:00:23Z</time>
      </trkpt>
      <trkpt lat="49.82882" lon="2.40653">
        <ele>31.7</ele>
        <time>2023-04-19T14:00:24Z</time>
      </trkpt>
      <trkpt lat="49.82882" lon="2.40652">
        <ele>31.7</ele>
        <time>2023-04-19T14:00:25Z</time>
      </trkpt>
      <trkpt lat="49.82882" lon="2.40651">
        <ele>31.7</ele>
        <time>2023-04-19T14:00:26Z</time>
      </trkpt>
      <trkpt lat="49.82882" lon="2.40649">
        <ele>31.7</ele>
        <time>2023-04-19T14:00:27Z</time>
      </trkpt>
      <trkpt lat="49.82882" lon="2.40646">
        <ele>31.7</ele>
        <time>2023-04-19T14:00:28Z</time>
      </trkpt>
      <trkpt lat="49.82882" lon="2.40645">
        <ele>31.7</ele>
        <time>2023-04-19T14:00:29Z</time>
      </trkpt>
      <trkpt lat="49.82882" lon="2.40643">
        <ele>31.7</ele>
        <time>2023-04-19T14:00:30Z</time>
      </trkpt>
      <trkpt lat="49.82882" lon="2.40641">
        <ele>31.7</ele>
        <time>2023-04-19T14:00:32Z</time>
      </trkpt>
      <trkpt lat="49.82882" lon="2.40638">
        <ele>31.7</ele>
        <time>2023-04-19T14:00:33Z</time>
      </trkpt>
      <trkpt lat="49.82883" lon="2.40637">
        <ele>31.7</ele>
        <time>2023-04-19T14:00:34Z</time>
      </trkpt>
      <trkpt lat="49.82883" lon="2.40635">
        <ele>31.7</ele>
        <time>2023-04-19T14:00:35Z</time>
      </trkpt>
      <trkpt lat="49.82883" lon="2.40633">
        <ele>31.7</ele>
        <time>2023-04-19T14:00:36Z</time>
      </trkpt>
      <trkpt lat="49.82884" lon="2.40631">
        <ele>31.7</ele>
        <time>2023-04-19T14:00:37Z</time>
      </trkpt>
      <trkpt lat="49.82884" lon="2.40629">
        <ele>31.7</ele>
        <time>2023-04-19T14:00:38Z</time>
      </trkpt>
      <trkpt lat="49.82885" lon="2.40628">
        <ele>31.6</ele>
        <time>2023-04-19T14:00:39Z</time>
      </trkpt>
      <trkpt lat="49.82885" lon="2.40626">
        <ele>31.6</ele>
        <time>2023-04-19T14:00:41Z</time>
      </trkpt>
      <trkpt lat="49.82886" lon="2.40626">
        <ele>31.6</ele>
        <time>2023-04-19T14:00:42Z</time>
      </trkpt>
      <trkpt lat="49.82887" lon="2.40625">
        <ele>31.6</ele>
        <time>2023-04-19T14:00:43Z</time>
      </trkpt>
      <trkpt lat="49.82887" lon="2.40625">
        <ele>31.6</ele>
        <time>2023-04-19T14:00:44Z</time>
      </trkpt>
      <trkpt lat="49.82888" lon="2.40624">
        <ele>31.6</ele>
        <time>2023-04-19T14:00:45Z</time>
      </trkpt>
      <trkpt lat="49.82889" lon="2.40623">
        <ele>31.6</ele>
        <time>2023-04-19T14:00:46Z</time>
      </trkpt>
      <trkpt lat="49.82891" lon="2.40622">
        <ele>31.6</ele>
        <time>2023-04-19T14:00:47Z</time>
      </trkpt>
      <trkpt lat="49.82892" lon="2.40622">
        <ele>31.5</ele>
        <time>2023-04-19T14:00:48Z</time>
      </trkpt>
      <trkpt lat="49.82892" lon="2.40621">
        <ele>31.5</ele>
        <time>2023-04-19T14:00:49Z</time>
      </trkpt>
      <trkpt lat="49.82895" lon="2.40619">
        <ele>31.5</ele>
        <time>2023-04-19T14:00:51Z</time>
      </trkpt>
      <trkpt lat="49.82896" lon="2.40618">
        <ele>31.5</ele>
        <time>2023-04-19T14:00:52Z</time>
      </trkpt>
      <trkpt lat="49.82898" lon="2.40616">
        <ele>31.5</ele>
        <time>2023-04-19T14:00:53Z</time>
      </trkpt>
      <trkpt lat="49.82899" lon="2.40616">
        <ele>31.5</ele>
        <time>2023-04-19T14:00:54Z</time>
      </trkpt>
      <trkpt lat="49.82902" lon="2.40615">
        <ele>31.4</ele>
        <time>2023-04-19T14:00:55Z</time>
      </trkpt>
      <trkpt lat="49.82903" lon="2.40614">
        <ele>31.4</ele>
        <time>2023-04-19T14:00:56Z</time>
      </trkpt>
      <trkpt lat="49.82904" lon="2.40614">
        <ele>31.4</ele>
        <time>2023-04-19T14:00:58Z</time>
      </trkpt>
      <trkpt lat="49.82905" lon="2.40613">
        <ele>31.4</ele>
        <time>2023-04-19T14:00:59Z</time>
      </trkpt>
      <trkpt lat="49.82906" lon="2.40612">
        <ele>31.4</ele>
        <time>2023-04-19T14:01:00Z</time>
      </trkpt>
      <trkpt lat="49.82907" lon="2.40612">
        <ele>31.4</ele>
        <time>2023-04-19T14:01:01Z</time>
      </trkpt>
      <trkpt lat="49.82908" lon="2.40612">
        <ele>31.4</ele>
        <time>2023-04-19T14:01:02Z</time>
      </trkpt>
      <trkpt lat="49.82909" lon="2.40611">
        <ele>31.4</ele>
        <time>2023-04-19T14:01:03Z</time>
      </trkpt>
      <trkpt lat="49.8291" lon="2.4061">
        <ele>31.4</ele>
        <time>2023-04-19T14:01:04Z</time>
      </trkpt>
      <trkpt lat="49.82911" lon="2.40609">
        <ele>31.4</ele>
        <time>2023-04-19T14:01:05Z</time>
      </trkpt>
      <trkpt lat="49.82911" lon="2.40608">
        <ele>31.4</ele>
        <time>2023-04-19T14:01:07Z</time>
      </trkpt>
      <trkpt lat="49.82912" lon="2.40608">
        <ele>31.4</ele>
        <time>2023-04-19T14:01:08Z</time>
      </trkpt>
      <trkpt lat="49.82913" lon="2.40607">
        <ele>31.4</ele>
        <time>2023-04-19T14:01:09Z</time>
      </trkpt>
      <trkpt lat="49.82914" lon="2.40607">
        <ele>31.4</ele>
        <time>2023-04-19T14:01:10Z</time>
      </trkpt>
      <trkpt lat="49.82915" lon="2.40607">
        <ele>31.4</ele>
        <time>2023-04-19T14:01:11Z</time>
      </trkpt>
      <trkpt lat="49.82916" lon="2.40606">
        <ele>31.4</ele>
        <time>2023-04-19T14:01:12Z</time>
      </trkpt>
      <trkpt lat="49.82917" lon="2.40606">
        <ele>31.4</ele>
        <time>2023-04-19T14:01:13Z</time>
      </trkpt>
      <trkpt lat="49.82919" lon="2.40605">
        <ele>31.3</ele>
        <time>2023-04-19T14:01:14Z</time>
      </trkpt>
      <trkpt lat="49.8292" lon="2.40605">
        <ele>31.3</ele>
        <time>2023-04-19T14:01:16Z</time>
      </trkpt>
      <trkpt lat="49.82921" lon="2.40605">
        <ele>31.3</ele>
        <time>2023-04-19T14:01:17Z</time>
      </trkpt>
      <trkpt lat="49.82921" lon="2.40605">
        <ele>31.3</ele>
        <time>2023-04-19T14:01:18Z</time>
      </trkpt>
      <trkpt lat="49.82922" lon="2.40605">
        <ele>31.3</ele>
        <time>2023-04-19T14:01:19Z</time>
      </trkpt>
      <trkpt lat="49.82923" lon="2.40605">
        <ele>31.3</ele>
        <time>2023-04-19T14:01:20Z</time>
      </trkpt>
      <trkpt lat="49.82924" lon="2.40605">
        <ele>31.3</ele>
        <time>2023-04-19T14:01:21Z</time>
      </trkpt>
      <trkpt lat="49.82926" lon="2.40604">
        <ele>31.3</ele>
        <time>2023-04-19T14:01:22Z</time>
      </trkpt>
      <trkpt lat="49.82927" lon="2.40604">
        <ele>31.3</ele>
        <time>2023-04-19T14:01:24Z</time>
      </trkpt>
      <trkpt lat="49.82928" lon="2.40603">
        <ele>31.3</ele>
        <time>2023-04-19T14:01:25Z</time>
      </trkpt>
      <trkpt lat="49.82929" lon="2.40603">
        <ele>31.3</ele>
        <time>2023-04-19T14:01:26Z</time>
      </trkpt>
      <trkpt lat="49.8293" lon="2.40602">
        <ele>31.2</ele>
        <time>2023-04-19T14:01:27Z</time>
      </trkpt>
      <trkpt lat="49.82932" lon="2.40602">
        <ele>31.2</ele>
        <time>2023-04-19T14:01:28Z</time>
      </trkpt>
      <trkpt lat="49.82932" lon="2.40602">
        <ele>31.2</ele>
        <time>2023-04-19T14:01:29Z</time>
      </trkpt>
      <trkpt lat="49.82933" lon="2.40602">
        <ele>31.2</ele>
        <time>2023-04-19T14:01:30Z</time>
      </trkpt>
      <trkpt lat="49.82935" lon="2.406">
        <ele>31.2</ele>
        <time>2023-04-19T14:01:31Z</time>
      </trkpt>
      <trkpt lat="49.82936" lon="2.406">
        <ele>31.2</ele>
        <time>2023-04-19T14:01:33Z</time>
      </trkpt>
      <trkpt lat="49.82937" lon="2.40599">
        <ele>31.2</ele>
        <time>2023-04-19T14:01:34Z</time>
      </trkpt>
      <trkpt lat="49.82938" lon="2.40599">
        <ele>31.1</ele>
        <time>2023-04-19T14:01:35Z</time>
      </trkpt>
      <trkpt lat="49.82939" lon="2.40598">
        <ele>31.1</ele>
        <time>2023-04-19T14:01:36Z</time>
      </trkpt>
      <trkpt lat="49.82939" lon="2.40598">
        <ele>31.1</ele>
        <time>2023-04-19T14:01:37Z</time>
      </trkpt>
      <trkpt lat="49.8294" lon="2.40598">
        <ele>31.1</ele>
        <time>2023-04-19T14:01:38Z</time>
      </trkpt>
      <trkpt lat="49.82941" lon="2.40597">
        <ele>31.1</ele>
        <time>2023-04-19T14:01:39Z</time>
      </trkpt>
      <trkpt lat="49.82942" lon="2.40597">
        <ele>31.1</ele>
        <time>2023-04-19T14:01:41Z</time>
      </trkpt>
      <trkpt lat="49.82943" lon="2.40596">
        <ele>31.1</ele>
        <time>2023-04-19T14:01:42Z</time>
      </trkpt>
      <trkpt lat="49.82945" lon="2.40595">
        <ele>31</ele>
        <time>2023-04-19T14:01:43Z</time>
      </trkpt>
      <trkpt lat="49.82945" lon="2.40594">
        <ele>31</ele>
        <time>2023-04-19T14:01:44Z</time>
      </trkpt>
      <trkpt lat="49.82946" lon="2.40593">
        <ele>31</ele>
        <time>2023-04-19T14:01:45Z</time>
      </trkpt>
      <trkpt lat="49.82947" lon="2.40593">
        <ele>31</ele>
        <time>2023-04-19T14:01:46Z</time>
      </trkpt>
      <trkpt lat="49.82948" lon="2.40592">
        <ele>31</ele>
        <time>2023-04-19T14:01:47Z</time>
      </trkpt>
      <trkpt lat="49.82949" lon="2.40591">
        <ele>31</ele>
        <time>2023-04-19T14:01:49Z</time>
      </trkpt>
      <trkpt lat="49.8295" lon="2.4059">
        <ele>31</ele>
        <time>2023-04-19T14:01:50Z</time>
      </trkpt>
      <trkpt lat="49.82951" lon="2.4059">
        <ele>31</ele>
        <time>2023-04-19T14:01:51Z</time>
      </trkpt>
      <trkpt lat="49.82952" lon="2.40589">
        <ele>31</ele>
        <time>2023-04-19T14:01:52Z</time>
      </trkpt>
      <trkpt lat="49.82953" lon="2.40589">
        <ele>30.9</ele>
        <time>2023-04-19T14:01:53Z</time>
      </trkpt>
      <trkpt lat="49.82954" lon="2.40589">
        <ele>30.9</ele>
        <time>2023-04-19T14:01:54Z</time>
      </trkpt>
      <trkpt lat="49.82955" lon="2.40588">
        <ele>30.9</ele>
        <time>2023-04-19T14:01:56Z</time>
      </trkpt>
      <trkpt lat="49.82956" lon="2.40587">
        <ele>30.9</ele>
        <time>2023-04-19T14:01:57Z</time>
      </trkpt>
      <trkpt lat="49.82958" lon="2.40586">
        <ele>30.9</ele>
        <time>2023-04-19T14:01:58Z</time>
      </trkpt>
      <trkpt lat="49.82958" lon="2.40585">
        <ele>30.9</ele>
        <time>2023-04-19T14:01:59Z</time>
      </trkpt>
      <trkpt lat="49.82959" lon="2.40585">
        <ele>30.9</ele>
        <time>2023-04-19T14:02:00Z</time>
      </trkpt>
      <trkpt lat="49.8296" lon="2.40584">
        <ele>30.9</ele>
        <time>2023-04-19T14:02:02Z</time>
      </trkpt>
      <trkpt lat="49.82961" lon="2.40583">
        <ele>30.9</ele>
        <time>2023-04-19T14:02:03Z</time>
      </trkpt>
      <trkpt lat="49.82962" lon="2.40582">
        <ele>30.9</ele>
        <time>2023-04-19T14:02:04Z</time>
      </trkpt>
      <trkpt lat="49.82963" lon="2.40582">
        <ele>30.8</ele>
        <time>2023-04-19T14:02:05Z</time>
      </trkpt>
      <trkpt lat="49.82964" lon="2.40581">
        <ele>30.8</ele>
        <time>2023-04-19T14:02:06Z</time>
      </trkpt>
      <trkpt lat="49.82966" lon="2.4058">
        <ele>30.8</ele>
        <time>2023-04-19T14:02:07Z</time>
      </trkpt>
      <trkpt lat="49.82967" lon="2.40579">
        <ele>30.8</ele>
        <time>2023-04-19T14:02:09Z</time>
      </trkpt>
      <trkpt lat="49.82969" lon="2.40578">
        <ele>30.8</ele>
        <time>2023-04-19T14:02:10Z</time>
      </trkpt>
      <trkpt lat="49.8297" lon="2.40577">
        <ele>30.8</ele>
        <time>2023-04-19T14:02:11Z</time>
      </trkpt>
      <trkpt lat="49.82971" lon="2.40576">
        <ele>30.8</ele>
        <time>2023-04-19T14:02:12Z</time>
      </trkpt>
      <trkpt lat="49.82972" lon="2.40575">
        <ele>30.8</ele>
        <time>2023-04-19T14:02:13Z</time>
      </trkpt>
      <trkpt lat="49.82974" lon="2.40574">
        <ele>30.8</ele>
        <time>2023-04-19T14:02:14Z</time>
      </trkpt>
      <trkpt lat="49.82975" lon="2.40573">
        <ele>30.8</ele>
        <time>2023-04-19T14:02:16Z</time>
      </trkpt>
      <trkpt lat="49.82976" lon="2.40572">
        <ele>30.8</ele>
        <time>2023-04-19T14:02:17Z</time>
      </trkpt>
      <trkpt lat="49.82977" lon="2.40571">
        <ele>30.8</ele>
        <time>2023-04-19T14:02:18Z</time>
      </trkpt>
      <trkpt lat="49.82978" lon="2.40571">
        <ele>30.8</ele>
        <time>2023-04-19T14:02:19Z</time>
      </trkpt>
      <trkpt lat="49.82979" lon="2.4057">
        <ele>30.8</ele>
        <time>2023-04-19T14:02:20Z</time>
      </trkpt>
      <trkpt lat="49.82979" lon="2.40569">
        <ele>30.8</ele>
        <time>2023-04-19T14:02:21Z</time>
      </trkpt>
      <trkpt lat="49.8298" lon="2.40568">
        <ele>30.8</ele>
        <time>2023-04-19T14:02:22Z</time>
      </trkpt>
      <trkpt lat="49.82981" lon="2.40567">
        <ele>30.8</ele>
        <time>2023-04-19T14:02:24Z</time>
      </trkpt>
      <trkpt lat="49.82982" lon="2.40566">
        <ele>30.8</ele>
        <time>2023-04-19T14:02:25Z</time>
      </trkpt>
      <trkpt lat="49.82983" lon="2.40566">
        <ele>30.7</ele>
        <time>2023-04-19T14:02:26Z</time>
      </trkpt>
      <trkpt lat="49.82984" lon="2.40565">
        <ele>30.7</ele>
        <time>2023-04-19T14:02:27Z</time>
      </trkpt>
      <trkpt lat="49.82985" lon="2.40564">
        <ele>30.7</ele>
        <time>2023-04-19T14:02:28Z</time>
      </trkpt>
      <trkpt lat="49.82986" lon="2.40563">
        <ele>30.7</ele>
        <time>2023-04-19T14:02:30Z</time>
      </trkpt>
      <trkpt lat="49.82987" lon="2.40563">
        <ele>30.7</ele>
        <time>2023-04-19T14:02:31Z</time>
      </trkpt>
      <trkpt lat="49.82988" lon="2.40562">
        <ele>30.7</ele>
        <time>2023-04-19T14:02:32Z</time>
      </trkpt>
      <trkpt lat="49.82989" lon="2.40561">
        <ele>30.7</ele>
        <time>2023-04-19T14:02:33Z</time>
      </trkpt>
      <trkpt lat="49.8299" lon="2.40561">
        <ele>30.7</ele>
        <time>2023-04-19T14:02:34Z</time>
      </trkpt>
      <trkpt lat="49.82992" lon="2.4056">
        <ele>30.7</ele>
        <time>2023-04-19T14:02:35Z</time>
      </trkpt>
      <trkpt lat="49.82993" lon="2.40559">
        <ele>30.7</ele>
        <time>2023-04-19T14:02:36Z</time>
      </trkpt>
      <trkpt lat="49.82993" lon="2.40559">
        <ele>30.7</ele>
        <time>2023-04-19T14:02:37Z</time>
      </trkpt>
      <trkpt lat="49.82994" lon="2.40559">
        <ele>30.7</ele>
        <time>2023-04-19T14:02:38Z</time>
      </trkpt>
      <trkpt lat="49.82995" lon="2.40558">
        <ele>30.7</ele>
        <time>2023-04-19T14:02:40Z</time>
      </trkpt>
      <trkpt lat="49.82995" lon="2.40558">
        <ele>30.7</ele>
        <time>2023-04-19T14:02:41Z</time>
      </trkpt>
      <trkpt lat="49.82996" lon="2.40557">
        <ele>30.7</ele>
        <time>2023-04-19T14:02:42Z</time>
      </trkpt>
      <trkpt lat="49.82997" lon="2.40557">
        <ele>30.7</ele>
        <time>2023-04-19T14:02:43Z</time>
      </trkpt>
      <trkpt lat="49.82998" lon="2.40556">
        <ele>30.7</ele>
        <time>2023-04-19T14:02:44Z</time>
      </trkpt>
      <trkpt lat="49.82999" lon="2.40556">
        <ele>30.7</ele>
        <time>2023-04-19T14:02:45Z</time>
      </trkpt>
      <trkpt lat="49.83" lon="2.40555">
        <ele>30.7</ele>
        <time>2023-04-19T14:02:46Z</time>
      </trkpt>
      <trkpt lat="49.83001" lon="2.40555">
        <ele>30.7</ele>
        <time>2023-04-19T14:02:47Z</time>
      </trkpt>
      <trkpt lat="49.83001" lon="2.40554">
        <ele>30.7</ele>
        <time>2023-04-19T14:02:49Z</time>
      </trkpt>
      <trkpt lat="49.83003" lon="2.40553">
        <ele>30.7</ele>
        <time>2023-04-19T14:02:50Z</time>
      </trkpt>
      <trkpt lat="49.83004" lon="2.40553">
        <ele>30.7</ele>
        <time>2023-04-19T14:02:51Z</time>
      </trkpt>
      <trkpt lat="49.83004" lon="2.40552">
        <ele>30.7</ele>
        <time>2023-04-19T14:02:52Z</time>
      </trkpt>
      <trkpt lat="49.83005" lon="2.40551">
        <ele>30.7</ele>
        <time>2023-04-19T14:02:53Z</time>
      </trkpt>
      <trkpt lat="49.83005" lon="2.40551">
        <ele>30.6</ele>
        <time>2023-04-19T14:02:54Z</time>
      </trkpt>
      <trkpt lat="49.83006" lon="2.4055">
        <ele>30.6</ele>
        <time>2023-04-19T14:02:55Z</time>
      </trkpt>
      <trkpt lat="49.83007" lon="2.40549">
        <ele>30.6</ele>
        <time>2023-04-19T14:02:56Z</time>
      </trkpt>
      <trkpt lat="49.83008" lon="2.40549">
        <ele>30.6</ele>
        <time>2023-04-19T14:02:57Z</time>
      </trkpt>
      <trkpt lat="49.83009" lon="2.40549">
        <ele>30.6</ele>
        <time>2023-04-19T14:02:59Z</time>
      </trkpt>
      <trkpt lat="49.83011" lon="2.40548">
        <ele>30.6</ele>
        <time>2023-04-19T14:03:00Z</time>
      </trkpt>
      <trkpt lat="49.83011" lon="2.40548">
        <ele>30.6</ele>
        <time>2023-04-19T14:03:01Z</time>
      </trkpt>
      <trkpt lat="49.83012" lon="2.40547">
        <ele>30.6</ele>
        <time>2023-04-19T14:03:02Z</time>
      </trkpt>
      <trkpt lat="49.83014" lon="2.40546">
        <ele>30.6</ele>
        <time>2023-04-19T14:03:03Z</time>
      </trkpt>
      <trkpt lat="49.83015" lon="2.40546">
        <ele>30.6</ele>
        <time>2023-04-19T14:03:04Z</time>
      </trkpt>
      <trkpt lat="49.83016" lon="2.40545">
        <ele>30.6</ele>
        <time>2023-04-19T14:03:05Z</time>
      </trkpt>
      <trkpt lat="49.83018" lon="2.40544">
        <ele>30.6</ele>
        <time>2023-04-19T14:03:06Z</time>
      </trkpt>
      <trkpt lat="49.83019" lon="2.40544">
        <ele>30.6</ele>
        <time>2023-04-19T14:03:08Z</time>
      </trkpt>
      <trkpt lat="49.8302" lon="2.40543">
        <ele>30.6</ele>
        <time>2023-04-19T14:03:09Z</time>
      </trkpt>
      <trkpt lat="49.83021" lon="2.40542">
        <ele>30.6</ele>
        <time>2023-04-19T14:03:10Z</time>
      </trkpt>
      <trkpt lat="49.83022" lon="2.40541">
        <ele>30.6</ele>
        <time>2023-04-19T14:03:11Z</time>
      </trkpt>
      <trkpt lat="49.83023" lon="2.4054">
        <ele>30.6</ele>
        <time>2023-04-19T14:03:12Z</time>
      </trkpt>
      <trkpt lat="49.83025" lon="2.40539">
        <ele>30.6</ele>
        <time>2023-04-19T14:03:13Z</time>
      </trkpt>
      <trkpt lat="49.83027" lon="2.40537">
        <ele>30.6</ele>
        <time>2023-04-19T14:03:14Z</time>
      </trkpt>
      <trkpt lat="49.83028" lon="2.40537">
        <ele>30.6</ele>
        <time>2023-04-19T14:03:15Z</time>
      </trkpt>
      <trkpt lat="49.83029" lon="2.40536">
        <ele>30.6</ele>
        <time>2023-04-19T14:03:17Z</time>
      </trkpt>
      <trkpt lat="49.8303" lon="2.40535">
        <ele>30.6</ele>
        <time>2023-04-19T14:03:18Z</time>
      </trkpt>
      <trkpt lat="49.8303" lon="2.40535">
        <ele>30.6</ele>
        <time>2023-04-19T14:03:19Z</time>
      </trkpt>
      <trkpt lat="49.83031" lon="2.40534">
        <ele>30.6</ele>
        <time>2023-04-19T14:03:20Z</time>
      </trkpt>
      <trkpt lat="49.83032" lon="2.40534">
        <ele>30.6</ele>
        <time>2023-04-19T14:03:21Z</time>
      </trkpt>
      <trkpt lat="49.83033" lon="2.40533">
        <ele>30.6</ele>
        <time>2023-04-19T14:03:22Z</time>
      </trkpt>
      <trkpt lat="49.83035" lon="2.40532">
        <ele>30.6</ele>
        <time>2023-04-19T14:03:23Z</time>
      </trkpt>
      <trkpt lat="49.83036" lon="2.40531">
        <ele>30.6</ele>
        <time>2023-04-19T14:03:24Z</time>
      </trkpt>
      <trkpt lat="49.83037" lon="2.4053">
        <ele>30.6</ele>
        <time>2023-04-19T14:03:25Z</time>
      </trkpt>
      <trkpt lat="49.83039" lon="2.40529">
        <ele>30.6</ele>
        <time>2023-04-19T14:03:27Z</time>
      </trkpt>
      <trkpt lat="49.8304" lon="2.40529">
        <ele>30.6</ele>
        <time>2023-04-19T14:03:28Z</time>
      </trkpt>
      <trkpt lat="49.83041" lon="2.40528">
        <ele>30.6</ele>
        <time>2023-04-19T14:03:29Z</time>
      </trkpt>
      <trkpt lat="49.83042" lon="2.40528">
        <ele>30.6</ele>
        <time>2023-04-19T14:03:30Z</time>
      </trkpt>
      <trkpt lat="49.83043" lon="2.40528">
        <ele>30.6</ele>
        <time>2023-04-19T14:03:31Z</time>
      </trkpt>
      <trkpt lat="49.83044" lon="2.40527">
        <ele>30.6</ele>
        <time>2023-04-19T14:03:32Z</time>
      </trkpt>
      <trkpt lat="49.83045" lon="2.40526">
        <ele>30.6</ele>
        <time>2023-04-19T14:03:33Z</time>
      </trkpt>
      <trkpt lat="49.83046" lon="2.40526">
        <ele>30.6</ele>
        <time>2023-04-19T14:03:34Z</time>
      </trkpt>
      <trkpt lat="49.83047" lon="2.40525">
        <ele>30.6</ele>
        <time>2023-04-19T14:03:36Z</time>
      </trkpt>
      <trkpt lat="49.83048" lon="2.40524">
        <ele>30.6</ele>
        <time>2023-04-19T14:03:37Z</time>
      </trkpt>
      <trkpt lat="49.83049" lon="2.40523">
        <ele>30.6</ele>
        <time>2023-04-19T14:03:38Z</time>
      </trkpt>
      <trkpt lat="49.8305" lon="2.40522">
        <ele>30.6</ele>
        <time>2023-04-19T14:03:39Z</time>
      </trkpt>
      <trkpt lat="49.83051" lon="2.40521">
        <ele>30.6</ele>
        <time>2023-04-19T14:03:40Z</time>
      </trkpt>
      <trkpt lat="49.83052" lon="2.40521">
        <ele>30.6</ele>
        <time>2023-04-19T14:03:41Z</time>
      </trkpt>
      <trkpt lat="49.83053" lon="2.4052">
        <ele>30.6</ele>
        <time>2023-04-19T14:03:42Z</time>
      </trkpt>
      <trkpt lat="49.83053" lon="2.40519">
        <ele>30.6</ele>
        <time>2023-04-19T14:03:43Z</time>
      </trkpt>
      <trkpt lat="49.83054" lon="2.40518">
        <ele>30.6</ele>
        <time>2023-04-19T14:03:44Z</time>
      </trkpt>
      <trkpt lat="49.83055" lon="2.40517">
        <ele>30.6</ele>
        <time>2023-04-19T14:03:45Z</time>
      </trkpt>
      <trkpt lat="49.83056" lon="2.40517">
        <ele>30.6</ele>
        <time>2023-04-19T14:03:46Z</time>
      </trkpt>
      <trkpt lat="49.83056" lon="2.40516">
        <ele>30.6</ele>
        <time>2023-04-19T14:03:48Z</time>
      </trkpt>
      <trkpt lat="49.83057" lon="2.40515">
        <ele>30.6</ele>
        <time>2023-04-19T14:03:49Z</time>
      </trkpt>
      <trkpt lat="49.83058" lon="2.40514">
        <ele>30.6</ele>
        <time>2023-04-19T14:03:50Z</time>
      </trkpt>
      <trkpt lat="49.83058" lon="2.40513">
        <ele>30.6</ele>
        <time>2023-04-19T14:03:51Z</time>
      </trkpt>
      <trkpt lat="49.83059" lon="2.40512">
        <ele>30.6</ele>
        <time>2023-04-19T14:03:52Z</time>
      </trkpt>
      <trkpt lat="49.8306" lon="2.40511">
        <ele>30.6</ele>
        <time>2023-04-19T14:03:53Z</time>
      </trkpt>
      <trkpt lat="49.83061" lon="2.40509">
        <ele>30.6</ele>
        <time>2023-04-19T14:03:54Z</time>
      </trkpt>
      <trkpt lat="49.83063" lon="2.40507">
        <ele>30.7</ele>
        <time>2023-04-19T14:03:55Z</time>
      </trkpt>
      <trkpt lat="49.83064" lon="2.40506">
        <ele>30.7</ele>
        <time>2023-04-19T14:03:56Z</time>
      </trkpt>
      <trkpt lat="49.83065" lon="2.40505">
        <ele>30.7</ele>
        <time>2023-04-19T14:03:58Z</time>
      </trkpt>
      <trkpt lat="49.83066" lon="2.40505">
        <ele>30.7</ele>
        <time>2023-04-19T14:03:59Z</time>
      </trkpt>
      <trkpt lat="49.83068" lon="2.40503">
        <ele>30.7</ele>
        <time>2023-04-19T14:04:00Z</time>
      </trkpt>
      <trkpt lat="49.83068" lon="2.40502">
        <ele>30.7</ele>
        <time>2023-04-19T14:04:01Z</time>
      </trkpt>
      <trkpt lat="49.83069" lon="2.40502">
        <ele>30.7</ele>
        <time>2023-04-19T14:04:02Z</time>
      </trkpt>
      <trkpt lat="49.8307" lon="2.40501">
        <ele>30.7</ele>
        <time>2023-04-19T14:04:03Z</time>
      </trkpt>
      <trkpt lat="49.83071" lon="2.405">
        <ele>30.7</ele>
        <time>2023-04-19T14:04:04Z</time>
      </trkpt>
      <trkpt lat="49.83074" lon="2.40498">
        <ele>30.7</ele>
        <time>2023-04-19T14:04:06Z</time>
      </trkpt>
      <trkpt lat="49.83074" lon="2.40498">
        <ele>30.8</ele>
        <time>2023-04-19T14:04:07Z</time>
      </trkpt>
      <trkpt lat="49.83075" lon="2.40497">
        <ele>30.8</ele>
        <time>2023-04-19T14:04:08Z</time>
      </trkpt>
      <trkpt lat="49.83076" lon="2.40496">
        <ele>30.8</ele>
        <time>2023-04-19T14:04:09Z</time>
      </trkpt>
      <trkpt lat="49.83078" lon="2.40495">
        <ele>30.8</ele>
        <time>2023-04-19T14:04:10Z</time>
      </trkpt>
      <trkpt lat="49.83079" lon="2.40495">
        <ele>30.8</ele>
        <time>2023-04-19T14:04:11Z</time>
      </trkpt>
      <trkpt lat="49.8308" lon="2.40494">
        <ele>30.8</ele>
        <time>2023-04-19T14:04:12Z</time>
      </trkpt>
      <trkpt lat="49.83081" lon="2.40493">
        <ele>30.8</ele>
        <time>2023-04-19T14:04:13Z</time>
      </trkpt>
      <trkpt lat="49.83083" lon="2.40492">
        <ele>30.9</ele>
        <time>2023-04-19T14:04:15Z</time>
      </trkpt>
      <trkpt lat="49.83084" lon="2.40492">
        <ele>30.9</ele>
        <time>2023-04-19T14:04:16Z</time>
      </trkpt>
      <trkpt lat="49.83084" lon="2.40491">
        <ele>30.9</ele>
        <time>2023-04-19T14:04:17Z</time>
      </trkpt>
      <trkpt lat="49.83086" lon="2.4049">
        <ele>30.9</ele>
        <time>2023-04-19T14:04:18Z</time>
      </trkpt>
      <trkpt lat="49.83087" lon="2.40489">
        <ele>30.9</ele>
        <time>2023-04-19T14:04:19Z</time>
      </trkpt>
      <trkpt lat="49.83088" lon="2.40488">
        <ele>30.9</ele>
        <time>2023-04-19T14:04:20Z</time>
      </trkpt>
      <trkpt lat="49.83089" lon="2.40488">
        <ele>31</ele>
        <time>2023-04-19T14:04:21Z</time>
      </trkpt>
      <trkpt lat="49.8309" lon="2.40487">
        <ele>31</ele>
        <time>2023-04-19T14:04:23Z</time>
      </trkpt>
      <trkpt lat="49.83091" lon="2.40486">
        <ele>31</ele>
        <time>2023-04-19T14:04:24Z</time>
      </trkpt>
      <trkpt lat="49.83092" lon="2.40486">
        <ele>31</ele>
        <time>2023-04-19T14:04:25Z</time>
      </trkpt>
      <trkpt lat="49.83093" lon="2.40484">
        <ele>31</ele>
        <time>2023-04-19T14:04:26Z</time>
      </trkpt>
      <trkpt lat="49.83094" lon="2.40483">
        <ele>31</ele>
        <time>2023-04-19T14:04:27Z</time>
      </trkpt>
      <trkpt lat="49.83095" lon="2.40482">
        <ele>31.1</ele>
        <time>2023-04-19T14:04:28Z</time>
      </trkpt>
      <trkpt lat="49.83096" lon="2.40481">
        <ele>31.1</ele>
        <time>2023-04-19T14:04:30Z</time>
      </trkpt>
      <trkpt lat="49.83097" lon="2.4048">
        <ele>31.1</ele>
        <time>2023-04-19T14:04:31Z</time>
      </trkpt>
      <trkpt lat="49.83099" lon="2.40479">
        <ele>31.1</ele>
        <time>2023-04-19T14:04:32Z</time>
      </trkpt>
      <trkpt lat="49.831" lon="2.40478">
        <ele>31.2</ele>
        <time>2023-04-19T14:04:33Z</time>
      </trkpt>
      <trkpt lat="49.83101" lon="2.40477">
        <ele>31.2</ele>
        <time>2023-04-19T14:04:34Z</time>
      </trkpt>
      <trkpt lat="49.83103" lon="2.40476">
        <ele>31.2</ele>
        <time>2023-04-19T14:04:36Z</time>
      </trkpt>
      <trkpt lat="49.83104" lon="2.40475">
        <ele>31.3</ele>
        <time>2023-04-19T14:04:37Z</time>
      </trkpt>
      <trkpt lat="49.83105" lon="2.40474">
        <ele>31.3</ele>
        <time>2023-04-19T14:04:38Z</time>
      </trkpt>
      <trkpt lat="49.83106" lon="2.40473">
        <ele>31.4</ele>
        <time>2023-04-19T14:04:39Z</time>
      </trkpt>
      <trkpt lat="49.83107" lon="2.40472">
        <ele>31.4</ele>
        <time>2023-04-19T14:04:40Z</time>
      </trkpt>
      <trkpt lat="49.83109" lon="2.40471">
        <ele>31.4</ele>
        <time>2023-04-19T14:04:41Z</time>
      </trkpt>
      <trkpt lat="49.8311" lon="2.4047">
        <ele>31.5</ele>
        <time>2023-04-19T14:04:42Z</time>
      </trkpt>
      <trkpt lat="49.8311" lon="2.40469">
        <ele>31.5</ele>
        <time>2023-04-19T14:04:43Z</time>
      </trkpt>
      <trkpt lat="49.83111" lon="2.40467">
        <ele>31.5</ele>
        <time>2023-04-19T14:04:45Z</time>
      </trkpt>
      <trkpt lat="49.83111" lon="2.40466">
        <ele>31.6</ele>
        <time>2023-04-19T14:04:46Z</time>
      </trkpt>
      <trkpt lat="49.83111" lon="2.40465">
        <ele>31.6</ele>
        <time>2023-04-19T14:04:47Z</time>
      </trkpt>
      <trkpt lat="49.83112" lon="2.40464">
        <ele>31.6</ele>
        <time>2023-04-19T14:04:48Z</time>
      </trkpt>
      <trkpt lat="49.83112" lon="2.40462">
        <ele>31.7</ele>
        <time>2023-04-19T14:04:50Z</time>
      </trkpt>
      <trkpt lat="49.83113" lon="2.40461">
        <ele>31.7</ele>
        <time>2023-04-19T14:04:51Z</time>
      </trkpt>
      <trkpt lat="49.83113" lon="2.40461">
        <ele>31.7</ele>
        <time>2023-04-19T14:04:52Z</time>
      </trkpt>
      <trkpt lat="49.83114" lon="2.4046">
        <ele>31.7</ele>
        <time>2023-04-19T14:04:53Z</time>
      </trkpt>
      <trkpt lat="49.83115" lon="2.40459">
        <ele>31.8</ele>
        <time>2023-04-19T14:04:54Z</time>
      </trkpt>
      <trkpt lat="49.83116" lon="2.40459">
        <ele>31.8</ele>
        <time>2023-04-19T14:04:55Z</time>
      </trkpt>
      <trkpt lat="49.83116" lon="2.40458">
        <ele>31.8</ele>
        <time>2023-04-19T14:04:57Z</time>
      </trkpt>
      <trkpt lat="49.83117" lon="2.40457">
        <ele>31.8</ele>
        <time>2023-04-19T14:04:58Z</time>
      </trkpt>
      <trkpt lat="49.83117" lon="2.40456">
        <ele>31.9</ele>
        <time>2023-04-19T14:04:59Z</time>
      </trkpt>
      <trkpt lat="49.83117" lon="2.40454">
        <ele>31.9</ele>
        <time>2023-04-19T14:05:00Z</time>
      </trkpt>
      <trkpt lat="49.83116" lon="2.40452">
        <ele>31.9</ele>
        <time>2023-04-19T14:05:01Z</time>
      </trkpt>
      <trkpt lat="49.83116" lon="2.4045">
        <ele>32</ele>
        <time>2023-04-19T14:05:03Z</time>
      </trkpt>
      <trkpt lat="49.83116" lon="2.40448">
        <ele>32</ele>
        <time>2023-04-19T14:05:04Z</time>
      </trkpt>
      <trkpt lat="49.83116" lon="2.40447">
        <ele>32.1</ele>
        <time>2023-04-19T14:05:05Z</time>
      </trkpt>
      <trkpt lat="49.83115" lon="2.40445">
        <ele>32.1</ele>
        <time>2023-04-19T14:05:07Z</time>
      </trkpt>
      <trkpt lat="49.83115" lon="2.40446">
        <ele>32.1</ele>
        <time>2023-04-19T14:05:08Z</time>
      </trkpt>
      <trkpt lat="49.83116" lon="2.40447">
        <ele>32.2</ele>
        <time>2023-04-19T14:05:09Z</time>
      </trkpt>
      <trkpt lat="49.83117" lon="2.40448">
        <ele>32.2</ele>
        <time>2023-04-19T14:05:10Z</time>
      </trkpt>
      <trkpt lat="49.83118" lon="2.40448">
        <ele>32.2</ele>
        <time>2023-04-19T14:05:11Z</time>
      </trkpt>
      <trkpt lat="49.83119" lon="2.40447">
        <ele>32.3</ele>
        <time>2023-04-19T14:05:12Z</time>
      </trkpt>
      <trkpt lat="49.8312" lon="2.40445">
        <ele>32.3</ele>
        <time>2023-04-19T14:05:14Z</time>
      </trkpt>
      <trkpt lat="49.83121" lon="2.40443">
        <ele>32.4</ele>
        <time>2023-04-19T14:05:16Z</time>
      </trkpt>
      <trkpt lat="49.83121" lon="2.40441">
        <ele>32.4</ele>
        <time>2023-04-19T14:05:17Z</time>
      </trkpt>
      <trkpt lat="49.83121" lon="2.4044">
        <ele>32.4</ele>
        <time>2023-04-19T14:05:18Z</time>
      </trkpt>
      <trkpt lat="49.8312" lon="2.40439">
        <ele>32.4</ele>
        <time>2023-04-19T14:05:19Z</time>
      </trkpt>
      <trkpt lat="49.83119" lon="2.40438">
        <ele>32.3</ele>
        <time>2023-04-19T14:05:21Z</time>
      </trkpt>
      <trkpt lat="49.83119" lon="2.40438">
        <ele>32.3</ele>
        <time>2023-04-19T14:05:22Z</time>
      </trkpt>
      <trkpt lat="49.83119" lon="2.40438">
        <ele>32.3</ele>
        <time>2023-04-19T14:05:23Z</time>
      </trkpt>
      <trkpt lat="49.83118" lon="2.40438">
        <ele>32.3</ele>
        <time>2023-04-19T14:05:24Z</time>
      </trkpt>
      <trkpt lat="49.83118" lon="2.40437">
        <ele>32.3</ele>
        <time>2023-04-19T14:05:26Z</time>
      </trkpt>
      <trkpt lat="49.83118" lon="2.40436">
        <ele>32.2</ele>
        <time>2023-04-19T14:05:28Z</time>
      </trkpt>
      <trkpt lat="49.83118" lon="2.40435">
        <ele>32.2</ele>
        <time>2023-04-19T14:05:29Z</time>
      </trkpt>
      <trkpt lat="49.83119" lon="2.40435">
        <ele>32.2</ele>
        <time>2023-04-19T14:05:30Z</time>
      </trkpt>
      <trkpt lat="49.8312" lon="2.40434">
        <ele>32.1</ele>
        <time>2023-04-19T14:05:31Z</time>
      </trkpt>
      <trkpt lat="49.8312" lon="2.40433">
        <ele>32.1</ele>
        <time>2023-04-19T14:05:32Z</time>
      </trkpt>
      <trkpt lat="49.83121" lon="2.40432">
        <ele>32.1</ele>
        <time>2023-04-19T14:05:33Z</time>
      </trkpt>
      <trkpt lat="49.83121" lon="2.40432">
        <ele>32.1</ele>
        <time>2023-04-19T14:05:35Z</time>
      </trkpt>
      <trkpt lat="49.83119" lon="2.40432">
        <ele>32</ele>
        <time>2023-04-19T14:05:36Z</time>
      </trkpt>
      <trkpt lat="49.83118" lon="2.40431">
        <ele>31.9</ele>
        <time>2023-04-19T14:05:38Z</time>
      </trkpt>
      <trkpt lat="49.83118" lon="2.40432">
        <ele>31.9</ele>
        <time>2023-04-19T14:05:39Z</time>
      </trkpt>
      <trkpt lat="49.83118" lon="2.40432">
        <ele>31.9</ele>
        <time>2023-04-19T14:05:40Z</time>
      </trkpt>
      <trkpt lat="49.83118" lon="2.40433">
        <ele>31.9</ele>
        <time>2023-04-19T14:05:42Z</time>
      </trkpt>
      <trkpt lat="49.83117" lon="2.40434">
        <ele>31.9</ele>
        <time>2023-04-19T14:05:43Z</time>
      </trkpt>
      <trkpt lat="49.83117" lon="2.40434">
        <ele>31.9</ele>
        <time>2023-04-19T14:05:44Z</time>
      </trkpt>
      <trkpt lat="49.83117" lon="2.40434">
        <ele>31.8</ele>
        <time>2023-04-19T14:05:45Z</time>
      </trkpt>
      <trkpt lat="49.83117" lon="2.40433">
        <ele>31.8</ele>
        <time>2023-04-19T14:05:47Z</time>
      </trkpt>
      <trkpt lat="49.83117" lon="2.40433">
        <ele>31.8</ele>
        <time>2023-04-19T14:05:48Z</time>
      </trkpt>
      <trkpt lat="49.83117" lon="2.40433">
        <ele>31.8</ele>
        <time>2023-04-19T14:05:49Z</time>
      </trkpt>
      <trkpt lat="49.83117" lon="2.40433">
        <ele>31.8</ele>
        <time>2023-04-19T14:05:51Z</time>
      </trkpt>
      <trkpt lat="49.83117" lon="2.40433">
        <ele>31.8</ele>
        <time>2023-04-19T14:05:52Z</time>
      </trkpt>
      <trkpt lat="49.83117" lon="2.40433">
        <ele>31.8</ele>
        <time>2023-04-19T14:05:53Z</time>
      </trkpt>
      <trkpt lat="49.83117" lon="2.40433">
        <ele>31.8</ele>
        <time>2023-04-19T14:05:55Z</time>
      </trkpt>
      <trkpt lat="49.83117" lon="2.40434">
        <ele>31.8</ele>
        <time>2023-04-19T14:05:56Z</time>
      </trkpt>
      <trkpt lat="49.83117" lon="2.40434">
        <ele>31.8</ele>
        <time>2023-04-19T14:05:57Z</time>
      </trkpt>
      <trkpt lat="49.83117" lon="2.40435">
        <ele>31.8</ele>
        <time>2023-04-19T14:05:58Z</time>
      </trkpt>
      <trkpt lat="49.83117" lon="2.40435">
        <ele>31.8</ele>
        <time>2023-04-19T14:05:59Z</time>
      </trkpt>
      <trkpt lat="49.83117" lon="2.40435">
        <ele>31.8</ele>
        <time>2023-04-19T14:06:00Z</time>
      </trkpt>
      <trkpt lat="49.83117" lon="2.40435">
        <ele>31.8</ele>
        <time>2023-04-19T14:06:01Z</time>
      </trkpt>
      <trkpt lat="49.83117" lon="2.40435">
        <ele>31.8</ele>
        <time>2023-04-19T14:06:02Z</time>
      </trkpt>
      <trkpt lat="49.83117" lon="2.40435">
        <ele>31.8</ele>
        <time>2023-04-19T14:06:03Z</time>
      </trkpt>
      <trkpt lat="49.83117" lon="2.40435">
        <ele>31.8</ele>
        <time>2023-04-19T14:06:04Z</time>
      </trkpt>
      <trkpt lat="49.83117" lon="2.40435">
        <ele>31.8</ele>
        <time>2023-04-19T14:06:05Z</time>
      </trkpt>
      <trkpt lat="49.83117" lon="2.40435">
        <ele>31.8</ele>
        <time>2023-04-19T14:06:06Z</time>
      </trkpt>
      <trkpt lat="49.83117" lon="2.40435">
        <ele>31.8</ele>
        <time>2023-04-19T14:06:07Z</time>
      </trkpt>
      <trkpt lat="49.83117" lon="2.40435">
        <ele>31.8</ele>
        <time>2023-04-19T14:06:08Z</time>
      </trkpt>
      <trkpt lat="49.83117" lon="2.40435">
        <ele>31.8</ele>
        <time>2023-04-19T14:06:09Z</time>
      </trkpt>
      <trkpt lat="49.83117" lon="2.40435">
        <ele>31.8</ele>
        <time>2023-04-19T14:06:10Z</time>
      </trkpt>
      <trkpt lat="49.83117" lon="2.40435">
        <ele>31.8</ele>
        <time>2023-04-19T14:06:11Z</time>
      </trkpt>
      <trkpt lat="49.83117" lon="2.40435">
        <ele>31.8</ele>
        <time>2023-04-19T14:06:12Z</time>
      </trkpt>
      <trkpt lat="49.83117" lon="2.40434">
        <ele>31.8</ele>
        <time>2023-04-19T14:06:13Z</time>
      </trkpt>
      <trkpt lat="49.83117" lon="2.40433">
        <ele>31.7</ele>
        <time>2023-04-19T14:06:15Z</time>
      </trkpt>
      <trkpt lat="49.83116" lon="2.40432">
        <ele>31.7</ele>
        <time>2023-04-19T14:06:16Z</time>
      </trkpt>
      <trkpt lat="49.83116" lon="2.40432">
        <ele>31.7</ele>
        <time>2023-04-19T14:06:17Z</time>
      </trkpt>
      <trkpt lat="49.83116" lon="2.40432">
        <ele>31.7</ele>
        <time>2023-04-19T14:06:18Z</time>
      </trkpt>
      <trkpt lat="49.83116" lon="2.40431">
        <ele>31.7</ele>
        <time>2023-04-19T14:06:19Z</time>
      </trkpt>
      <trkpt lat="49.83116" lon="2.40431">
        <ele>31.7</ele>
        <time>2023-04-19T14:06:20Z</time>
      </trkpt>
      <trkpt lat="49.83116" lon="2.4043">
        <ele>31.7</ele>
        <time>2023-04-19T14:06:21Z</time>
      </trkpt>
      <trkpt lat="49.83116" lon="2.40429">
        <ele>31.6</ele>
        <time>2023-04-19T14:06:23Z</time>
      </trkpt>
      <trkpt lat="49.83116" lon="2.40428">
        <ele>31.6</ele>
        <time>2023-04-19T14:06:24Z</time>
      </trkpt>
      <trkpt lat="49.83116" lon="2.40425">
        <ele>31.6</ele>
        <time>2023-04-19T14:06:25Z</time>
      </trkpt>
      <trkpt lat="49.83116" lon="2.40422">
        <ele>31.5</ele>
        <time>2023-04-19T14:06:26Z</time>
      </trkpt>
      <trkpt lat="49.83116" lon="2.40421">
        <ele>31.5</ele>
        <time>2023-04-19T14:06:27Z</time>
      </trkpt>
      <trkpt lat="49.83116" lon="2.40419">
        <ele>31.4</ele>
        <time>2023-04-19T14:06:28Z</time>
      </trkpt>
      <trkpt lat="49.83116" lon="2.40415">
        <ele>31.4</ele>
        <time>2023-04-19T14:06:29Z</time>
      </trkpt>
      <trkpt lat="49.83116" lon="2.40414">
        <ele>31.3</ele>
        <time>2023-04-19T14:06:30Z</time>
      </trkpt>
      <trkpt lat="49.83116" lon="2.40408">
        <ele>31.3</ele>
        <time>2023-04-19T14:06:31Z</time>
      </trkpt>
      <trkpt lat="49.83116" lon="2.40406">
        <ele>31.2</ele>
        <time>2023-04-19T14:06:32Z</time>
      </trkpt>
      <trkpt lat="49.83115" lon="2.40401">
        <ele>31.2</ele>
        <time>2023-04-19T14:06:34Z</time>
      </trkpt>
      <trkpt lat="49.83115" lon="2.40399">
        <ele>31.2</ele>
        <time>2023-04-19T14:06:35Z</time>
      </trkpt>
      <trkpt lat="49.83115" lon="2.40399">
        <ele>31.1</ele>
        <time>2023-04-19T14:06:36Z</time>
      </trkpt>
      <trkpt lat="49.83115" lon="2.40397">
        <ele>31.1</ele>
        <time>2023-04-19T14:06:37Z</time>
      </trkpt>
      <trkpt lat="49.83115" lon="2.40397">
        <ele>31.1</ele>
        <time>2023-04-19T14:06:38Z</time>
      </trkpt>
      <trkpt lat="49.83115" lon="2.40395">
        <ele>31.1</ele>
        <time>2023-04-19T14:06:39Z</time>
      </trkpt>
      <trkpt lat="49.83114" lon="2.40393">
        <ele>31.1</ele>
        <time>2023-04-19T14:06:40Z</time>
      </trkpt>
      <trkpt lat="49.83114" lon="2.4039">
        <ele>31.1</ele>
        <time>2023-04-19T14:06:41Z</time>
      </trkpt>
      <trkpt lat="49.83114" lon="2.40388">
        <ele>31</ele>
        <time>2023-04-19T14:06:43Z</time>
      </trkpt>
      <trkpt lat="49.83114" lon="2.40385">
        <ele>31</ele>
        <time>2023-04-19T14:06:44Z</time>
      </trkpt>
      <trkpt lat="49.83114" lon="2.40383">
        <ele>31</ele>
        <time>2023-04-19T14:06:45Z</time>
      </trkpt>
      <trkpt lat="49.83114" lon="2.40381">
        <ele>31</ele>
        <time>2023-04-19T14:06:46Z</time>
      </trkpt>
      <trkpt lat="49.83114" lon="2.4038">
        <ele>31</ele>
        <time>2023-04-19T14:06:47Z</time>
      </trkpt>
      <trkpt lat="49.83114" lon="2.40378">
        <ele>31</ele>
        <time>2023-04-19T14:06:48Z</time>
      </trkpt>
      <trkpt lat="49.83114" lon="2.40376">
        <ele>31</ele>
        <time>2023-04-19T14:06:49Z</time>
      </trkpt>
      <trkpt lat="49.83114" lon="2.40375">
        <ele>31</ele>
        <time>2023-04-19T14:06:50Z</time>
      </trkpt>
      <trkpt lat="49.83115" lon="2.40372">
        <ele>30.9</ele>
        <time>2023-04-19T14:06:52Z</time>
      </trkpt>
      <trkpt lat="49.83115" lon="2.40371">
        <ele>30.9</ele>
        <time>2023-04-19T14:06:53Z</time>
      </trkpt>
      <trkpt lat="49.83115" lon="2.40369">
        <ele>30.9</ele>
        <time>2023-04-19T14:06:54Z</time>
      </trkpt>
      <trkpt lat="49.83115" lon="2.40368">
        <ele>30.9</ele>
        <time>2023-04-19T14:06:55Z</time>
      </trkpt>
      <trkpt lat="49.83116" lon="2.40366">
        <ele>30.9</ele>
        <time>2023-04-19T14:06:56Z</time>
      </trkpt>
      <trkpt lat="49.83116" lon="2.40365">
        <ele>30.9</ele>
        <time>2023-04-19T14:06:57Z</time>
      </trkpt>
      <trkpt lat="49.83116" lon="2.40364">
        <ele>30.9</ele>
        <time>2023-04-19T14:06:58Z</time>
      </trkpt>
      <trkpt lat="49.83117" lon="2.40362">
        <ele>30.9</ele>
        <time>2023-04-19T14:06:59Z</time>
      </trkpt>
      <trkpt lat="49.83117" lon="2.4036">
        <ele>30.9</ele>
        <time>2023-04-19T14:07:00Z</time>
      </trkpt>
      <trkpt lat="49.83117" lon="2.40358">
        <ele>30.9</ele>
        <time>2023-04-19T14:07:01Z</time>
      </trkpt>
      <trkpt lat="49.83118" lon="2.40356">
        <ele>30.8</ele>
        <time>2023-04-19T14:07:02Z</time>
      </trkpt>
      <trkpt lat="49.83119" lon="2.40353">
        <ele>30.8</ele>
        <time>2023-04-19T14:07:04Z</time>
      </trkpt>
      <trkpt lat="49.83121" lon="2.40349">
        <ele>30.8</ele>
        <time>2023-04-19T14:07:05Z</time>
      </trkpt>
      <trkpt lat="49.83121" lon="2.40348">
        <ele>30.8</ele>
        <time>2023-04-19T14:07:06Z</time>
      </trkpt>
      <trkpt lat="49.83122" lon="2.40345">
        <ele>30.8</ele>
        <time>2023-04-19T14:07:07Z</time>
      </trkpt>
      <trkpt lat="49.83123" lon="2.40344">
        <ele>30.8</ele>
        <time>2023-04-19T14:07:08Z</time>
      </trkpt>
      <trkpt lat="49.83124" lon="2.40341">
        <ele>30.8</ele>
        <time>2023-04-19T14:07:10Z</time>
      </trkpt>
      <trkpt lat="49.83124" lon="2.40339">
        <ele>30.8</ele>
        <time>2023-04-19T14:07:11Z</time>
      </trkpt>
      <trkpt lat="49.83125" lon="2.40338">
        <ele>30.7</ele>
        <time>2023-04-19T14:07:12Z</time>
      </trkpt>
      <trkpt lat="49.83125" lon="2.40336">
        <ele>30.7</ele>
        <time>2023-04-19T14:07:13Z</time>
      </trkpt>
      <trkpt lat="49.83126" lon="2.40334">
        <ele>30.7</ele>
        <time>2023-04-19T14:07:14Z</time>
      </trkpt>
      <trkpt lat="49.83127" lon="2.40332">
        <ele>30.7</ele>
        <time>2023-04-19T14:07:15Z</time>
      </trkpt>
      <trkpt lat="49.83128" lon="2.4033">
        <ele>30.7</ele>
        <time>2023-04-19T14:07:17Z</time>
      </trkpt>
      <trkpt lat="49.83129" lon="2.40328">
        <ele>30.7</ele>
        <time>2023-04-19T14:07:18Z</time>
      </trkpt>
      <trkpt lat="49.8313" lon="2.40326">
        <ele>30.7</ele>
        <time>2023-04-19T14:07:19Z</time>
      </trkpt>
      <trkpt lat="49.8313" lon="2.40325">
        <ele>30.7</ele>
        <time>2023-04-19T14:07:20Z</time>
      </trkpt>
      <trkpt lat="49.83131" lon="2.40323">
        <ele>30.7</ele>
        <time>2023-04-19T14:07:21Z</time>
      </trkpt>
      <trkpt lat="49.83131" lon="2.40322">
        <ele>30.7</ele>
        <time>2023-04-19T14:07:22Z</time>
      </trkpt>
      <trkpt lat="49.83132" lon="2.40321">
        <ele>30.7</ele>
        <time>2023-04-19T14:07:23Z</time>
      </trkpt>
      <trkpt lat="49.83133" lon="2.4032">
        <ele>30.7</ele>
        <time>2023-04-19T14:07:24Z</time>
      </trkpt>
      <trkpt lat="49.83134" lon="2.40318">
        <ele>30.7</ele>
        <time>2023-04-19T14:07:25Z</time>
      </trkpt>
      <trkpt lat="49.83134" lon="2.40317">
        <ele>30.7</ele>
        <time>2023-04-19T14:07:27Z</time>
      </trkpt>
      <trkpt lat="49.83135" lon="2.40315">
        <ele>30.7</ele>
        <time>2023-04-19T14:07:28Z</time>
      </trkpt>
      <trkpt lat="49.83135" lon="2.40313">
        <ele>30.6</ele>
        <time>2023-04-19T14:07:29Z</time>
      </trkpt>
      <trkpt lat="49.83136" lon="2.40312">
        <ele>30.6</ele>
        <time>2023-04-19T14:07:30Z</time>
      </trkpt>
      <trkpt lat="49.83136" lon="2.4031">
        <ele>30.6</ele>
        <time>2023-04-19T14:07:31Z</time>
      </trkpt>
      <trkpt lat="49.83136" lon="2.40309">
        <ele>30.6</ele>
        <time>2023-04-19T14:07:32Z</time>
      </trkpt>
      <trkpt lat="49.83136" lon="2.40306">
        <ele>30.6</ele>
        <time>2023-04-19T14:07:33Z</time>
      </trkpt>
      <trkpt lat="49.83137" lon="2.40304">
        <ele>30.6</ele>
        <time>2023-04-19T14:07:34Z</time>
      </trkpt>
      <trkpt lat="49.83137" lon="2.40302">
        <ele>30.6</ele>
        <time>2023-04-19T14:07:35Z</time>
      </trkpt>
      <trkpt lat="49.83138" lon="2.40301">
        <ele>30.6</ele>
        <time>2023-04-19T14:07:36Z</time>
      </trkpt>
      <trkpt lat="49.83139" lon="2.40297">
        <ele>30.6</ele>
        <time>2023-04-19T14:07:38Z</time>
      </trkpt>
      <trkpt lat="49.83139" lon="2.40296">
        <ele>30.7</ele>
        <time>2023-04-19T14:07:39Z</time>
      </trkpt>
      <trkpt lat="49.8314" lon="2.40294">
        <ele>30.7</ele>
        <time>2023-04-19T14:07:40Z</time>
      </trkpt>
      <trkpt lat="49.83141" lon="2.40292">
        <ele>30.7</ele>
        <time>2023-04-19T14:07:41Z</time>
      </trkpt>
      <trkpt lat="49.83142" lon="2.40291">
        <ele>30.7</ele>
        <time>2023-04-19T14:07:42Z</time>
      </trkpt>
      <trkpt lat="49.83143" lon="2.40289">
        <ele>30.7</ele>
        <time>2023-04-19T14:07:43Z</time>
      </trkpt>
      <trkpt lat="49.83144" lon="2.40287">
        <ele>30.7</ele>
        <time>2023-04-19T14:07:44Z</time>
      </trkpt>
      <trkpt lat="49.83145" lon="2.40285">
        <ele>30.7</ele>
        <time>2023-04-19T14:07:45Z</time>
      </trkpt>
      <trkpt lat="49.83146" lon="2.40283">
        <ele>30.7</ele>
        <time>2023-04-19T14:07:47Z</time>
      </trkpt>
      <trkpt lat="49.83147" lon="2.40281">
        <ele>30.7</ele>
        <time>2023-04-19T14:07:48Z</time>
      </trkpt>
      <trkpt lat="49.83148" lon="2.40279">
        <ele>30.7</ele>
        <time>2023-04-19T14:07:49Z</time>
      </trkpt>
      <trkpt lat="49.83149" lon="2.40277">
        <ele>30.7</ele>
        <time>2023-04-19T14:07:50Z</time>
      </trkpt>
      <trkpt lat="49.8315" lon="2.40274">
        <ele>30.7</ele>
        <time>2023-04-19T14:07:51Z</time>
      </trkpt>
      <trkpt lat="49.83151" lon="2.40273">
        <ele>30.7</ele>
        <time>2023-04-19T14:07:52Z</time>
      </trkpt>
      <trkpt lat="49.83151" lon="2.40272">
        <ele>30.7</ele>
        <time>2023-04-19T14:07:53Z</time>
      </trkpt>
      <trkpt lat="49.83152" lon="2.4027">
        <ele>30.7</ele>
        <time>2023-04-19T14:07:54Z</time>
      </trkpt>
      <trkpt lat="49.83153" lon="2.40268">
        <ele>30.7</ele>
        <time>2023-04-19T14:07:55Z</time>
      </trkpt>
      <trkpt lat="49.83154" lon="2.40264">
        <ele>30.7</ele>
        <time>2023-04-19T14:07:57Z</time>
      </trkpt>
      <trkpt lat="49.83154" lon="2.40263">
        <ele>30.7</ele>
        <time>2023-04-19T14:07:58Z</time>
      </trkpt>
      <trkpt lat="49.83154" lon="2.40261">
        <ele>30.6</ele>
        <time>2023-04-19T14:07:59Z</time>
      </trkpt>
      <trkpt lat="49.83155" lon="2.40257">
        <ele>30.6</ele>
        <time>2023-04-19T14:08:00Z</time>
      </trkpt>
      <trkpt lat="49.83156" lon="2.40256">
        <ele>30.6</ele>
        <time>2023-04-19T14:08:01Z</time>
      </trkpt>
      <trkpt lat="49.83156" lon="2.40254">
        <ele>30.6</ele>
        <time>2023-04-19T14:08:02Z</time>
      </trkpt>
      <trkpt lat="49.83157" lon="2.40253">
        <ele>30.6</ele>
        <time>2023-04-19T14:08:03Z</time>
      </trkpt>
      <trkpt lat="49.83158" lon="2.40252">
        <ele>30.6</ele>
        <time>2023-04-19T14:08:04Z</time>
      </trkpt>
      <trkpt lat="49.83158" lon="2.40251">
        <ele>30.6</ele>
        <time>2023-04-19T14:08:06Z</time>
      </trkpt>
      <trkpt lat="49.83158" lon="2.4025">
        <ele>30.6</ele>
        <time>2023-04-19T14:08:07Z</time>
      </trkpt>
      <trkpt lat="49.83159" lon="2.40249">
        <ele>30.6</ele>
        <time>2023-04-19T14:08:08Z</time>
      </trkpt>
      <trkpt lat="49.83159" lon="2.40248">
        <ele>30.6</ele>
        <time>2023-04-19T14:08:09Z</time>
      </trkpt>
      <trkpt lat="49.8316" lon="2.40246">
        <ele>30.6</ele>
        <time>2023-04-19T14:08:10Z</time>
      </trkpt>
      <trkpt lat="49.83161" lon="2.40244">
        <ele>30.6</ele>
        <time>2023-04-19T14:08:11Z</time>
      </trkpt>
      <trkpt lat="49.83162" lon="2.40242">
        <ele>30.6</ele>
        <time>2023-04-19T14:08:12Z</time>
      </trkpt>
      <trkpt lat="49.83162" lon="2.40239">
        <ele>30.6</ele>
        <time>2023-04-19T14:08:13Z</time>
      </trkpt>
      <trkpt lat="49.83163" lon="2.40238">
        <ele>30.6</ele>
        <time>2023-04-19T14:08:15Z</time>
      </trkpt>
      <trkpt lat="49.83163" lon="2.40236">
        <ele>30.6</ele>
        <time>2023-04-19T14:08:16Z</time>
      </trkpt>
      <trkpt lat="49.83164" lon="2.40235">
        <ele>30.6</ele>
        <time>2023-04-19T14:08:17Z</time>
      </trkpt>
      <trkpt lat="49.83165" lon="2.40232">
        <ele>30.7</ele>
        <time>2023-04-19T14:08:18Z</time>
      </trkpt>
      <trkpt lat="49.83166" lon="2.40231">
        <ele>30.7</ele>
        <time>2023-04-19T14:08:19Z</time>
      </trkpt>
      <trkpt lat="49.83167" lon="2.4023">
        <ele>30.7</ele>
        <time>2023-04-19T14:08:20Z</time>
      </trkpt>
      <trkpt lat="49.83167" lon="2.40229">
        <ele>30.7</ele>
        <time>2023-04-19T14:08:21Z</time>
      </trkpt>
      <trkpt lat="49.83168" lon="2.40226">
        <ele>30.7</ele>
        <time>2023-04-19T14:08:22Z</time>
      </trkpt>
      <trkpt lat="49.83169" lon="2.40224">
        <ele>30.7</ele>
        <time>2023-04-19T14:08:24Z</time>
      </trkpt>
      <trkpt lat="49.8317" lon="2.40222">
        <ele>30.7</ele>
        <time>2023-04-19T14:08:25Z</time>
      </trkpt>
      <trkpt lat="49.83171" lon="2.4022">
        <ele>30.7</ele>
        <time>2023-04-19T14:08:26Z</time>
      </trkpt>
      <trkpt lat="49.83171" lon="2.40217">
        <ele>30.7</ele>
        <time>2023-04-19T14:08:27Z</time>
      </trkpt>
      <trkpt lat="49.83172" lon="2.40214">
        <ele>30.7</ele>
        <time>2023-04-19T14:08:28Z</time>
      </trkpt>
      <trkpt lat="49.83173" lon="2.40213">
        <ele>30.8</ele>
        <time>2023-04-19T14:08:29Z</time>
      </trkpt>
      <trkpt lat="49.83173" lon="2.40212">
        <ele>30.8</ele>
        <time>2023-04-19T14:08:30Z</time>
      </trkpt>
      <trkpt lat="49.83174" lon="2.4021">
        <ele>30.8</ele>
        <time>2023-04-19T14:08:31Z</time>
      </trkpt>
      <trkpt lat="49.83174" lon="2.40208">
        <ele>30.8</ele>
        <time>2023-04-19T14:08:32Z</time>
      </trkpt>
      <trkpt lat="49.83175" lon="2.40206">
        <ele>30.8</ele>
        <time>2023-04-19T14:08:34Z</time>
      </trkpt>
      <trkpt lat="49.83175" lon="2.40205">
        <ele>30.8</ele>
        <time>2023-04-19T14:08:35Z</time>
      </trkpt>
      <trkpt lat="49.83175" lon="2.40204">
        <ele>30.8</ele>
        <time>2023-04-19T14:08:36Z</time>
      </trkpt>
      <trkpt lat="49.83175" lon="2.40203">
        <ele>30.8</ele>
        <time>2023-04-19T14:08:37Z</time>
      </trkpt>
      <trkpt lat="49.83175" lon="2.40201">
        <ele>30.8</ele>
        <time>2023-04-19T14:08:38Z</time>
      </trkpt>
      <trkpt lat="49.83176" lon="2.402">
        <ele>30.8</ele>
        <time>2023-04-19T14:08:39Z</time>
      </trkpt>
      <trkpt lat="49.83176" lon="2.40198">
        <ele>30.8</ele>
        <time>2023-04-19T14:08:41Z</time>
      </trkpt>
      <trkpt lat="49.83177" lon="2.40196">
        <ele>30.8</ele>
        <time>2023-04-19T14:08:42Z</time>
      </trkpt>
      <trkpt lat="49.83178" lon="2.40194">
        <ele>30.9</ele>
        <time>2023-04-19T14:08:43Z</time>
      </trkpt>
      <trkpt lat="49.83178" lon="2.40193">
        <ele>30.9</ele>
        <time>2023-04-19T14:08:44Z</time>
      </trkpt>
      <trkpt lat="49.83179" lon="2.40192">
        <ele>30.9</ele>
        <time>2023-04-19T14:08:45Z</time>
      </trkpt>
      <trkpt lat="49.83179" lon="2.40191">
        <ele>30.9</ele>
        <time>2023-04-19T14:08:46Z</time>
      </trkpt>
      <trkpt lat="49.8318" lon="2.40189">
        <ele>30.9</ele>
        <time>2023-04-19T14:08:47Z</time>
      </trkpt>
      <trkpt lat="49.83181" lon="2.40188">
        <ele>30.9</ele>
        <time>2023-04-19T14:08:48Z</time>
      </trkpt>
      <trkpt lat="49.83182" lon="2.40186">
        <ele>30.9</ele>
        <time>2023-04-19T14:08:49Z</time>
      </trkpt>
      <trkpt lat="49.83184" lon="2.40184">
        <ele>30.9</ele>
        <time>2023-04-19T14:08:51Z</time>
      </trkpt>
      <trkpt lat="49.83185" lon="2.40183">
        <ele>30.9</ele>
        <time>2023-04-19T14:08:52Z</time>
      </trkpt>
      <trkpt lat="49.83186" lon="2.40182">
        <ele>30.9</ele>
        <time>2023-04-19T14:08:53Z</time>
      </trkpt>
      <trkpt lat="49.83187" lon="2.40181">
        <ele>30.9</ele>
        <time>2023-04-19T14:08:54Z</time>
      </trkpt>
      <trkpt lat="49.83187" lon="2.40181">
        <ele>30.9</ele>
        <time>2023-04-19T14:08:55Z</time>
      </trkpt>
      <trkpt lat="49.83188" lon="2.40181">
        <ele>30.9</ele>
        <time>2023-04-19T14:08:56Z</time>
      </trkpt>
      <trkpt lat="49.83189" lon="2.4018">
        <ele>30.9</ele>
        <time>2023-04-19T14:08:57Z</time>
      </trkpt>
      <trkpt lat="49.8319" lon="2.40179">
        <ele>30.9</ele>
        <time>2023-04-19T14:08:58Z</time>
      </trkpt>
      <trkpt lat="49.83191" lon="2.40179">
        <ele>30.9</ele>
        <time>2023-04-19T14:08:59Z</time>
      </trkpt>
      <trkpt lat="49.83191" lon="2.40179">
        <ele>30.9</ele>
        <time>2023-04-19T14:09:01Z</time>
      </trkpt>
      <trkpt lat="49.83192" lon="2.40178">
        <ele>30.9</ele>
        <time>2023-04-19T14:09:02Z</time>
      </trkpt>
      <trkpt lat="49.83194" lon="2.40177">
        <ele>30.9</ele>
        <time>2023-04-19T14:09:03Z</time>
      </trkpt>
      <trkpt lat="49.83195" lon="2.40176">
        <ele>30.9</ele>
        <time>2023-04-19T14:09:04Z</time>
      </trkpt>
      <trkpt lat="49.83195" lon="2.40175">
        <ele>30.9</ele>
        <time>2023-04-19T14:09:05Z</time>
      </trkpt>
      <trkpt lat="49.83196" lon="2.40175">
        <ele>30.9</ele>
        <time>2023-04-19T14:09:06Z</time>
      </trkpt>
      <trkpt lat="49.83196" lon="2.40174">
        <ele>30.9</ele>
        <time>2023-04-19T14:09:07Z</time>
      </trkpt>
      <trkpt lat="49.83198" lon="2.40172">
        <ele>31</ele>
        <time>2023-04-19T14:09:08Z</time>
      </trkpt>
      <trkpt lat="49.83199" lon="2.40172">
        <ele>31</ele>
        <time>2023-04-19T14:09:10Z</time>
      </trkpt>
      <trkpt lat="49.832" lon="2.40171">
        <ele>31</ele>
        <time>2023-04-19T14:09:11Z</time>
      </trkpt>
      <trkpt lat="49.83202" lon="2.40169">
        <ele>31</ele>
        <time>2023-04-19T14:09:12Z</time>
      </trkpt>
      <trkpt lat="49.83202" lon="2.40168">
        <ele>31</ele>
        <time>2023-04-19T14:09:13Z</time>
      </trkpt>
      <trkpt lat="49.83203" lon="2.40168">
        <ele>31</ele>
        <time>2023-04-19T14:09:14Z</time>
      </trkpt>
      <trkpt lat="49.83204" lon="2.40167">
        <ele>31</ele>
        <time>2023-04-19T14:09:15Z</time>
      </trkpt>
      <trkpt lat="49.83205" lon="2.40166">
        <ele>31</ele>
        <time>2023-04-19T14:09:16Z</time>
      </trkpt>
      <trkpt lat="49.83206" lon="2.40166">
        <ele>31</ele>
        <time>2023-04-19T14:09:17Z</time>
      </trkpt>
      <trkpt lat="49.83207" lon="2.40165">
        <ele>31</ele>
        <time>2023-04-19T14:09:18Z</time>
      </trkpt>
      <trkpt lat="49.83207" lon="2.40164">
        <ele>31</ele>
        <time>2023-04-19T14:09:19Z</time>
      </trkpt>
      <trkpt lat="49.83208" lon="2.40163">
        <ele>31</ele>
        <time>2023-04-19T14:09:21Z</time>
      </trkpt>
      <trkpt lat="49.83209" lon="2.40162">
        <ele>31</ele>
        <time>2023-04-19T14:09:22Z</time>
      </trkpt>
      <trkpt lat="49.83209" lon="2.40162">
        <ele>31</ele>
        <time>2023-04-19T14:09:23Z</time>
      </trkpt>
      <trkpt lat="49.8321" lon="2.40161">
        <ele>31</ele>
        <time>2023-04-19T14:09:24Z</time>
      </trkpt>
      <trkpt lat="49.8321" lon="2.40161">
        <ele>31</ele>
        <time>2023-04-19T14:09:25Z</time>
      </trkpt>
      <trkpt lat="49.8321" lon="2.4016">
        <ele>31</ele>
        <time>2023-04-19T14:09:26Z</time>
      </trkpt>
      <trkpt lat="49.83211" lon="2.40159">
        <ele>31</ele>
        <time>2023-04-19T14:09:27Z</time>
      </trkpt>
      <trkpt lat="49.83212" lon="2.40158">
        <ele>31</ele>
        <time>2023-04-19T14:09:28Z</time>
      </trkpt>
      <trkpt lat="49.83213" lon="2.40158">
        <ele>31</ele>
        <time>2023-04-19T14:09:29Z</time>
      </trkpt>
      <trkpt lat="49.83214" lon="2.40157">
        <ele>31</ele>
        <time>2023-04-19T14:09:31Z</time>
      </trkpt>
      <trkpt lat="49.83216" lon="2.40156">
        <ele>31.1</ele>
        <time>2023-04-19T14:09:32Z</time>
      </trkpt>
      <trkpt lat="49.83217" lon="2.40155">
        <ele>31.1</ele>
        <time>2023-04-19T14:09:33Z</time>
      </trkpt>
      <trkpt lat="49.83219" lon="2.40153">
        <ele>31.1</ele>
        <time>2023-04-19T14:09:34Z</time>
      </trkpt>
      <trkpt lat="49.83221" lon="2.40152">
        <ele>31.1</ele>
        <time>2023-04-19T14:09:35Z</time>
      </trkpt>
      <trkpt lat="49.83222" lon="2.40151">
        <ele>31.1</ele>
        <time>2023-04-19T14:09:36Z</time>
      </trkpt>
      <trkpt lat="49.83224" lon="2.40151">
        <ele>31.1</ele>
        <time>2023-04-19T14:09:38Z</time>
      </trkpt>
      <trkpt lat="49.83224" lon="2.40151">
        <ele>31.1</ele>
        <time>2023-04-19T14:09:39Z</time>
      </trkpt>
      <trkpt lat="49.83225" lon="2.4015">
        <ele>31.1</ele>
        <time>2023-04-19T14:09:40Z</time>
      </trkpt>
      <trkpt lat="49.83227" lon="2.40149">
        <ele>31.1</ele>
        <time>2023-04-19T14:09:41Z</time>
      </trkpt>
      <trkpt lat="49.83227" lon="2.40149">
        <ele>31.1</ele>
        <time>2023-04-19T14:09:42Z</time>
      </trkpt>
      <trkpt lat="49.83228" lon="2.40148">
        <ele>31.1</ele>
        <time>2023-04-19T14:09:43Z</time>
      </trkpt>
      <trkpt lat="49.83228" lon="2.40147">
        <ele>31.1</ele>
        <time>2023-04-19T14:09:44Z</time>
      </trkpt>
      <trkpt lat="49.83229" lon="2.40146">
        <ele>31.1</ele>
        <time>2023-04-19T14:09:46Z</time>
      </trkpt>
      <trkpt lat="49.83231" lon="2.40145">
        <ele>31.1</ele>
        <time>2023-04-19T14:09:47Z</time>
      </trkpt>
      <trkpt lat="49.83232" lon="2.40144">
        <ele>31.1</ele>
        <time>2023-04-19T14:09:48Z</time>
      </trkpt>
      <trkpt lat="49.83233" lon="2.40143">
        <ele>31.1</ele>
        <time>2023-04-19T14:09:49Z</time>
      </trkpt>
      <trkpt lat="49.83234" lon="2.40143">
        <ele>31.1</ele>
        <time>2023-04-19T14:09:50Z</time>
      </trkpt>
      <trkpt lat="49.83235" lon="2.40142">
        <ele>31.1</ele>
        <time>2023-04-19T14:09:51Z</time>
      </trkpt>
      <trkpt lat="49.83235" lon="2.40141">
        <ele>31.1</ele>
        <time>2023-04-19T14:09:52Z</time>
      </trkpt>
      <trkpt lat="49.83237" lon="2.40139">
        <ele>31.1</ele>
        <time>2023-04-19T14:09:53Z</time>
      </trkpt>
      <trkpt lat="49.83238" lon="2.40138">
        <ele>31.1</ele>
        <time>2023-04-19T14:09:54Z</time>
      </trkpt>
      <trkpt lat="49.83239" lon="2.40136">
        <ele>31.1</ele>
        <time>2023-04-19T14:09:56Z</time>
      </trkpt>
      <trkpt lat="49.8324" lon="2.40135">
        <ele>31.1</ele>
        <time>2023-04-19T14:09:57Z</time>
      </trkpt>
      <trkpt lat="49.83241" lon="2.40133">
        <ele>31.1</ele>
        <time>2023-04-19T14:09:58Z</time>
      </trkpt>
      <trkpt lat="49.83243" lon="2.40131">
        <ele>31.1</ele>
        <time>2023-04-19T14:09:59Z</time>
      </trkpt>
      <trkpt lat="49.83244" lon="2.4013">
        <ele>31.1</ele>
        <time>2023-04-19T14:10:00Z</time>
      </trkpt>
      <trkpt lat="49.83245" lon="2.40129">
        <ele>31.1</ele>
        <time>2023-04-19T14:10:01Z</time>
      </trkpt>
      <trkpt lat="49.83247" lon="2.40128">
        <ele>31.1</ele>
        <time>2023-04-19T14:10:02Z</time>
      </trkpt>
      <trkpt lat="49.83248" lon="2.40126">
        <ele>31.1</ele>
        <time>2023-04-19T14:10:03Z</time>
      </trkpt>
      <trkpt lat="49.8325" lon="2.40125">
        <ele>31.1</ele>
        <time>2023-04-19T14:10:04Z</time>
      </trkpt>
      <trkpt lat="49.83251" lon="2.40124">
        <ele>31.1</ele>
        <time>2023-04-19T14:10:06Z</time>
      </trkpt>
      <trkpt lat="49.83252" lon="2.40124">
        <ele>31.1</ele>
        <time>2023-04-19T14:10:07Z</time>
      </trkpt>
      <trkpt lat="49.83252" lon="2.40124">
        <ele>31.1</ele>
        <time>2023-04-19T14:10:08Z</time>
      </trkpt>
      <trkpt lat="49.83253" lon="2.40123">
        <ele>31.1</ele>
        <time>2023-04-19T14:10:09Z</time>
      </trkpt>
      <trkpt lat="49.83255" lon="2.40122">
        <ele>31.1</ele>
        <time>2023-04-19T14:10:10Z</time>
      </trkpt>
      <trkpt lat="49.83256" lon="2.40121">
        <ele>31.1</ele>
        <time>2023-04-19T14:10:11Z</time>
      </trkpt>
      <trkpt lat="49.83256" lon="2.4012">
        <ele>31.1</ele>
        <time>2023-04-19T14:10:12Z</time>
      </trkpt>
      <trkpt lat="49.83258" lon="2.40119">
        <ele>31.1</ele>
        <time>2023-04-19T14:10:13Z</time>
      </trkpt>
      <trkpt lat="49.83258" lon="2.40119">
        <ele>31.1</ele>
        <time>2023-04-19T14:10:15Z</time>
      </trkpt>
      <trkpt lat="49.83259" lon="2.40119">
        <ele>31.1</ele>
        <time>2023-04-19T14:10:16Z</time>
      </trkpt>
      <trkpt lat="49.8326" lon="2.40118">
        <ele>31</ele>
        <time>2023-04-19T14:10:17Z</time>
      </trkpt>
      <trkpt lat="49.83261" lon="2.40118">
        <ele>31</ele>
        <time>2023-04-19T14:10:18Z</time>
      </trkpt>
      <trkpt lat="49.83262" lon="2.40117">
        <ele>31</ele>
        <time>2023-04-19T14:10:20Z</time>
      </trkpt>
      <trkpt lat="49.83263" lon="2.40116">
        <ele>31</ele>
        <time>2023-04-19T14:10:21Z</time>
      </trkpt>
      <trkpt lat="49.83264" lon="2.40115">
        <ele>31</ele>
        <time>2023-04-19T14:10:22Z</time>
      </trkpt>
      <trkpt lat="49.83265" lon="2.40115">
        <ele>31</ele>
        <time>2023-04-19T14:10:23Z</time>
      </trkpt>
      <trkpt lat="49.83266" lon="2.40114">
        <ele>31</ele>
        <time>2023-04-19T14:10:24Z</time>
      </trkpt>
      <trkpt lat="49.83267" lon="2.40113">
        <ele>31</ele>
        <time>2023-04-19T14:10:25Z</time>
      </trkpt>
      <trkpt lat="49.83268" lon="2.40113">
        <ele>31</ele>
        <time>2023-04-19T14:10:26Z</time>
      </trkpt>
      <trkpt lat="49.83269" lon="2.40112">
        <ele>31</ele>
        <time>2023-04-19T14:10:28Z</time>
      </trkpt>
      <trkpt lat="49.8327" lon="2.40111">
        <ele>31</ele>
        <time>2023-04-19T14:10:29Z</time>
      </trkpt>
      <trkpt lat="49.83271" lon="2.40111">
        <ele>31</ele>
        <time>2023-04-19T14:10:30Z</time>
      </trkpt>
      <trkpt lat="49.83273" lon="2.4011">
        <ele>31</ele>
        <time>2023-04-19T14:10:31Z</time>
      </trkpt>
      <trkpt lat="49.83274" lon="2.40109">
        <ele>30.9</ele>
        <time>2023-04-19T14:10:32Z</time>
      </trkpt>
      <trkpt lat="49.83274" lon="2.40109">
        <ele>30.9</ele>
        <time>2023-04-19T14:10:33Z</time>
      </trkpt>
      <trkpt lat="49.83275" lon="2.40108">
        <ele>30.9</ele>
        <time>2023-04-19T14:10:34Z</time>
      </trkpt>
      <trkpt lat="49.83276" lon="2.40107">
        <ele>30.9</ele>
        <time>2023-04-19T14:10:35Z</time>
      </trkpt>
      <trkpt lat="49.83277" lon="2.40107">
        <ele>30.9</ele>
        <time>2023-04-19T14:10:36Z</time>
      </trkpt>
      <trkpt lat="49.83278" lon="2.40107">
        <ele>30.9</ele>
        <time>2023-04-19T14:10:38Z</time>
      </trkpt>
      <trkpt lat="49.83279" lon="2.40107">
        <ele>30.9</ele>
        <time>2023-04-19T14:10:39Z</time>
      </trkpt>
      <trkpt lat="49.8328" lon="2.40106">
        <ele>30.9</ele>
        <time>2023-04-19T14:10:40Z</time>
      </trkpt>
      <trkpt lat="49.83281" lon="2.40106">
        <ele>30.9</ele>
        <time>2023-04-19T14:10:41Z</time>
      </trkpt>
      <trkpt lat="49.83282" lon="2.40105">
        <ele>30.9</ele>
        <time>2023-04-19T14:10:42Z</time>
      </trkpt>
      <trkpt lat="49.83282" lon="2.40105">
        <ele>30.9</ele>
        <time>2023-04-19T14:10:43Z</time>
      </trkpt>
      <trkpt lat="49.83284" lon="2.40104">
        <ele>30.9</ele>
        <time>2023-04-19T14:10:44Z</time>
      </trkpt>
      <trkpt lat="49.83285" lon="2.40103">
        <ele>30.8</ele>
        <time>2023-04-19T14:10:45Z</time>
      </trkpt>
      <trkpt lat="49.83287" lon="2.40103">
        <ele>30.8</ele>
        <time>2023-04-19T14:10:46Z</time>
      </trkpt>
      <trkpt lat="49.83288" lon="2.40102">
        <ele>30.8</ele>
        <time>2023-04-19T14:10:48Z</time>
      </trkpt>
      <trkpt lat="49.83289" lon="2.40101">
        <ele>30.8</ele>
        <time>2023-04-19T14:10:49Z</time>
      </trkpt>
      <trkpt lat="49.83289" lon="2.40101">
        <ele>30.8</ele>
        <time>2023-04-19T14:10:50Z</time>
      </trkpt>
      <trkpt lat="49.83291" lon="2.40101">
        <ele>30.8</ele>
        <time>2023-04-19T14:10:51Z</time>
      </trkpt>
      <trkpt lat="49.83292" lon="2.401">
        <ele>30.8</ele>
        <time>2023-04-19T14:10:52Z</time>
      </trkpt>
      <trkpt lat="49.83293" lon="2.401">
        <ele>30.8</ele>
        <time>2023-04-19T14:10:53Z</time>
      </trkpt>
      <trkpt lat="49.83295" lon="2.40099">
        <ele>30.8</ele>
        <time>2023-04-19T14:10:55Z</time>
      </trkpt>
      <trkpt lat="49.83296" lon="2.40099">
        <ele>30.8</ele>
        <time>2023-04-19T14:10:56Z</time>
      </trkpt>
      <trkpt lat="49.83297" lon="2.40099">
        <ele>30.7</ele>
        <time>2023-04-19T14:10:57Z</time>
      </trkpt>
      <trkpt lat="49.83298" lon="2.40099">
        <ele>30.7</ele>
        <time>2023-04-19T14:10:58Z</time>
      </trkpt>
      <trkpt lat="49.83299" lon="2.40098">
        <ele>30.7</ele>
        <time>2023-04-19T14:10:59Z</time>
      </trkpt>
      <trkpt lat="49.833" lon="2.40098">
        <ele>30.7</ele>
        <time>2023-04-19T14:11:00Z</time>
      </trkpt>
      <trkpt lat="49.83301" lon="2.40097">
        <ele>30.7</ele>
        <time>2023-04-19T14:11:01Z</time>
      </trkpt>
      <trkpt lat="49.83302" lon="2.40096">
        <ele>30.7</ele>
        <time>2023-04-19T14:11:02Z</time>
      </trkpt>
      <trkpt lat="49.83302" lon="2.40095">
        <ele>30.7</ele>
        <time>2023-04-19T14:11:03Z</time>
      </trkpt>
      <trkpt lat="49.83303" lon="2.40095">
        <ele>30.7</ele>
        <time>2023-04-19T14:11:05Z</time>
      </trkpt>
      <trkpt lat="49.83304" lon="2.40094">
        <ele>30.7</ele>
        <time>2023-04-19T14:11:06Z</time>
      </trkpt>
      <trkpt lat="49.83306" lon="2.40093">
        <ele>30.7</ele>
        <time>2023-04-19T14:11:07Z</time>
      </trkpt>
      <trkpt lat="49.83307" lon="2.40093">
        <ele>30.7</ele>
        <time>2023-04-19T14:11:08Z</time>
      </trkpt>
      <trkpt lat="49.83308" lon="2.40092">
        <ele>30.7</ele>
        <time>2023-04-19T14:11:09Z</time>
      </trkpt>
      <trkpt lat="49.83309" lon="2.40092">
        <ele>30.7</ele>
        <time>2023-04-19T14:11:10Z</time>
      </trkpt>
      <trkpt lat="49.8331" lon="2.40091">
        <ele>30.7</ele>
        <time>2023-04-19T14:11:11Z</time>
      </trkpt>
      <trkpt lat="49.83311" lon="2.4009">
        <ele>30.7</ele>
        <time>2023-04-19T14:11:12Z</time>
      </trkpt>
      <trkpt lat="49.83313" lon="2.40089">
        <ele>30.7</ele>
        <time>2023-04-19T14:11:13Z</time>
      </trkpt>
      <trkpt lat="49.83314" lon="2.40089">
        <ele>30.6</ele>
        <time>2023-04-19T14:11:15Z</time>
      </trkpt>
      <trkpt lat="49.83315" lon="2.40089">
        <ele>30.6</ele>
        <time>2023-04-19T14:11:16Z</time>
      </trkpt>
      <trkpt lat="49.83316" lon="2.40088">
        <ele>30.6</ele>
        <time>2023-04-19T14:11:17Z</time>
      </trkpt>
      <trkpt lat="49.83317" lon="2.40088">
        <ele>30.6</ele>
        <time>2023-04-19T14:11:18Z</time>
      </trkpt>
      <trkpt lat="49.83319" lon="2.40088">
        <ele>30.6</ele>
        <time>2023-04-19T14:11:19Z</time>
      </trkpt>
      <trkpt lat="49.8332" lon="2.40087">
        <ele>30.6</ele>
        <time>2023-04-19T14:11:20Z</time>
      </trkpt>
      <trkpt lat="49.83321" lon="2.40087">
        <ele>30.6</ele>
        <time>2023-04-19T14:11:21Z</time>
      </trkpt>
      <trkpt lat="49.83322" lon="2.40087">
        <ele>30.6</ele>
        <time>2023-04-19T14:11:22Z</time>
      </trkpt>
      <trkpt lat="49.83324" lon="2.40086">
        <ele>30.6</ele>
        <time>2023-04-19T14:11:23Z</time>
      </trkpt>
      <trkpt lat="49.83326" lon="2.40087">
        <ele>30.6</ele>
        <time>2023-04-19T14:11:25Z</time>
      </trkpt>
      <trkpt lat="49.83326" lon="2.40087">
        <ele>30.6</ele>
        <time>2023-04-19T14:11:26Z</time>
      </trkpt>
      <trkpt lat="49.83327" lon="2.40087">
        <ele>30.6</ele>
        <time>2023-04-19T14:11:27Z</time>
      </trkpt>
      <trkpt lat="49.83329" lon="2.40086">
        <ele>30.6</ele>
        <time>2023-04-19T14:11:28Z</time>
      </trkpt>
      <trkpt lat="49.8333" lon="2.40086">
        <ele>30.6</ele>
        <time>2023-04-19T14:11:29Z</time>
      </trkpt>
      <trkpt lat="49.83331" lon="2.40086">
        <ele>30.6</ele>
        <time>2023-04-19T14:11:30Z</time>
      </trkpt>
      <trkpt lat="49.83332" lon="2.40085">
        <ele>30.6</ele>
        <time>2023-04-19T14:11:32Z</time>
      </trkpt>
      <trkpt lat="49.83334" lon="2.40085">
        <ele>30.6</ele>
        <time>2023-04-19T14:11:33Z</time>
      </trkpt>
      <trkpt lat="49.83335" lon="2.40085">
        <ele>30.6</ele>
        <time>2023-04-19T14:11:34Z</time>
      </trkpt>
      <trkpt lat="49.83336" lon="2.40084">
        <ele>30.6</ele>
        <time>2023-04-19T14:11:35Z</time>
      </trkpt>
      <trkpt lat="49.83337" lon="2.40084">
        <ele>30.6</ele>
        <time>2023-04-19T14:11:36Z</time>
      </trkpt>
      <trkpt lat="49.83339" lon="2.40083">
        <ele>30.6</ele>
        <time>2023-04-19T14:11:37Z</time>
      </trkpt>
      <trkpt lat="49.8334" lon="2.40083">
        <ele>30.6</ele>
        <time>2023-04-19T14:11:38Z</time>
      </trkpt>
      <trkpt lat="49.83341" lon="2.40083">
        <ele>30.6</ele>
        <time>2023-04-19T14:11:40Z</time>
      </trkpt>
      <trkpt lat="49.83343" lon="2.40082">
        <ele>30.6</ele>
        <time>2023-04-19T14:11:41Z</time>
      </trkpt>
      <trkpt lat="49.83344" lon="2.40081">
        <ele>30.6</ele>
        <time>2023-04-19T14:11:42Z</time>
      </trkpt>
      <trkpt lat="49.83346" lon="2.40081">
        <ele>30.6</ele>
        <time>2023-04-19T14:11:43Z</time>
      </trkpt>
      <trkpt lat="49.83348" lon="2.4008">
        <ele>30.6</ele>
        <time>2023-04-19T14:11:44Z</time>
      </trkpt>
      <trkpt lat="49.83349" lon="2.40079">
        <ele>30.6</ele>
        <time>2023-04-19T14:11:45Z</time>
      </trkpt>
      <trkpt lat="49.8335" lon="2.40079">
        <ele>30.6</ele>
        <time>2023-04-19T14:11:46Z</time>
      </trkpt>
      <trkpt lat="49.83352" lon="2.40078">
        <ele>30.6</ele>
        <time>2023-04-19T14:11:48Z</time>
      </trkpt>
      <trkpt lat="49.83353" lon="2.40077">
        <ele>30.6</ele>
        <time>2023-04-19T14:11:49Z</time>
      </trkpt>
      <trkpt lat="49.83354" lon="2.40077">
        <ele>30.6</ele>
        <time>2023-04-19T14:11:50Z</time>
      </trkpt>
      <trkpt lat="49.83356" lon="2.40076">
        <ele>30.6</ele>
        <time>2023-04-19T14:11:51Z</time>
      </trkpt>
      <trkpt lat="49.83357" lon="2.40075">
        <ele>30.6</ele>
        <time>2023-04-19T14:11:52Z</time>
      </trkpt>
      <trkpt lat="49.83358" lon="2.40075">
        <ele>30.6</ele>
        <time>2023-04-19T14:11:53Z</time>
      </trkpt>
      <trkpt lat="49.8336" lon="2.40074">
        <ele>30.6</ele>
        <time>2023-04-19T14:11:54Z</time>
      </trkpt>
      <trkpt lat="49.83361" lon="2.40073">
        <ele>30.6</ele>
        <time>2023-04-19T14:11:55Z</time>
      </trkpt>
      <trkpt lat="49.83361" lon="2.40073">
        <ele>30.6</ele>
        <time>2023-04-19T14:11:56Z</time>
      </trkpt>
      <trkpt lat="49.83362" lon="2.40073">
        <ele>30.6</ele>
        <time>2023-04-19T14:11:58Z</time>
      </trkpt>
      <trkpt lat="49.83364" lon="2.40072">
        <ele>30.6</ele>
        <time>2023-04-19T14:11:59Z</time>
      </trkpt>
      <trkpt lat="49.83365" lon="2.40071">
        <ele>30.6</ele>
        <time>2023-04-19T14:12:00Z</time>
      </trkpt>
      <trkpt lat="49.83366" lon="2.40071">
        <ele>30.6</ele>
        <time>2023-04-19T14:12:01Z</time>
      </trkpt>
      <trkpt lat="49.83366" lon="2.40071">
        <ele>30.6</ele>
        <time>2023-04-19T14:12:02Z</time>
      </trkpt>
      <trkpt lat="49.83367" lon="2.4007">
        <ele>30.6</ele>
        <time>2023-04-19T14:12:03Z</time>
      </trkpt>
      <trkpt lat="49.83368" lon="2.4007">
        <ele>30.6</ele>
        <time>2023-04-19T14:12:04Z</time>
      </trkpt>
      <trkpt lat="49.83369" lon="2.4007">
        <ele>30.6</ele>
        <time>2023-04-19T14:12:05Z</time>
      </trkpt>
      <trkpt lat="49.8337" lon="2.40069">
        <ele>30.6</ele>
        <time>2023-04-19T14:12:07Z</time>
      </trkpt>
      <trkpt lat="49.83371" lon="2.40069">
        <ele>30.6</ele>
        <time>2023-04-19T14:12:08Z</time>
      </trkpt>
      <trkpt lat="49.83373" lon="2.40068">
        <ele>30.7</ele>
        <time>2023-04-19T14:12:09Z</time>
      </trkpt>
      <trkpt lat="49.83374" lon="2.40067">
        <ele>30.7</ele>
        <time>2023-04-19T14:12:10Z</time>
      </trkpt>
      <trkpt lat="49.83375" lon="2.40067">
        <ele>30.7</ele>
        <time>2023-04-19T14:12:11Z</time>
      </trkpt>
      <trkpt lat="49.83376" lon="2.40067">
        <ele>30.7</ele>
        <time>2023-04-19T14:12:12Z</time>
      </trkpt>
      <trkpt lat="49.83378" lon="2.40066">
        <ele>30.7</ele>
        <time>2023-04-19T14:12:13Z</time>
      </trkpt>
      <trkpt lat="49.8338" lon="2.40065">
        <ele>30.7</ele>
        <time>2023-04-19T14:12:15Z</time>
      </trkpt>
      <trkpt lat="49.83381" lon="2.40065">
        <ele>30.7</ele>
        <time>2023-04-19T14:12:16Z</time>
      </trkpt>
      <trkpt lat="49.83383" lon="2.40064">
        <ele>30.7</ele>
        <time>2023-04-19T14:12:17Z</time>
      </trkpt>
      <trkpt lat="49.83384" lon="2.40064">
        <ele>30.7</ele>
        <time>2023-04-19T14:12:18Z</time>
      </trkpt>
      <trkpt lat="49.83385" lon="2.40064">
        <ele>30.7</ele>
        <time>2023-04-19T14:12:19Z</time>
      </trkpt>
      <trkpt lat="49.83385" lon="2.40064">
        <ele>30.7</ele>
        <time>2023-04-19T14:12:20Z</time>
      </trkpt>
      <trkpt lat="49.83386" lon="2.40064">
        <ele>30.7</ele>
        <time>2023-04-19T14:12:21Z</time>
      </trkpt>
      <trkpt lat="49.83387" lon="2.40063">
        <ele>30.7</ele>
        <time>2023-04-19T14:12:22Z</time>
      </trkpt>
      <trkpt lat="49.83388" lon="2.40063">
        <ele>30.7</ele>
        <time>2023-04-19T14:12:24Z</time>
      </trkpt>
      <trkpt lat="49.83389" lon="2.40063">
        <ele>30.7</ele>
        <time>2023-04-19T14:12:25Z</time>
      </trkpt>
      <trkpt lat="49.8339" lon="2.40062">
        <ele>30.7</ele>
        <time>2023-04-19T14:12:26Z</time>
      </trkpt>
      <trkpt lat="49.83391" lon="2.40062">
        <ele>30.7</ele>
        <time>2023-04-19T14:12:27Z</time>
      </trkpt>
      <trkpt lat="49.83392" lon="2.40061">
        <ele>30.7</ele>
        <time>2023-04-19T14:12:28Z</time>
      </trkpt>
      <trkpt lat="49.83393" lon="2.40061">
        <ele>30.7</ele>
        <time>2023-04-19T14:12:29Z</time>
      </trkpt>
      <trkpt lat="49.83393" lon="2.4006">
        <ele>30.7</ele>
        <time>2023-04-19T14:12:31Z</time>
      </trkpt>
      <trkpt lat="49.83393" lon="2.40058">
        <ele>30.7</ele>
        <time>2023-04-19T14:12:32Z</time>
      </trkpt>
      <trkpt lat="49.83394" lon="2.40057">
        <ele>30.7</ele>
        <time>2023-04-19T14:12:33Z</time>
      </trkpt>
      <trkpt lat="49.83395" lon="2.40056">
        <ele>30.7</ele>
        <time>2023-04-19T14:12:34Z</time>
      </trkpt>
      <trkpt lat="49.83396" lon="2.40055">
        <ele>30.7</ele>
        <time>2023-04-19T14:12:35Z</time>
      </trkpt>
      <trkpt lat="49.83397" lon="2.40054">
        <ele>30.7</ele>
        <time>2023-04-19T14:12:37Z</time>
      </trkpt>
      <trkpt lat="49.83397" lon="2.40053">
        <ele>30.7</ele>
        <time>2023-04-19T14:12:38Z</time>
      </trkpt>
      <trkpt lat="49.83398" lon="2.40053">
        <ele>30.7</ele>
        <time>2023-04-19T14:12:39Z</time>
      </trkpt>
      <trkpt lat="49.83398" lon="2.40052">
        <ele>30.7</ele>
        <time>2023-04-19T14:12:41Z</time>
      </trkpt>
      <trkpt lat="49.83398" lon="2.40052">
        <ele>30.7</ele>
        <time>2023-04-19T14:12:42Z</time>
      </trkpt>
      <trkpt lat="49.83398" lon="2.40052">
        <ele>30.7</ele>
        <time>2023-04-19T14:12:43Z</time>
      </trkpt>
      <trkpt lat="49.83397" lon="2.40052">
        <ele>30.6</ele>
        <time>2023-04-19T14:12:44Z</time>
      </trkpt>
      <trkpt lat="49.83397" lon="2.40051">
        <ele>30.6</ele>
        <time>2023-04-19T14:12:46Z</time>
      </trkpt>
      <trkpt lat="49.83397" lon="2.40051">
        <ele>30.6</ele>
        <time>2023-04-19T14:12:48Z</time>
      </trkpt>
      <trkpt lat="49.83397" lon="2.40051">
        <ele>30.6</ele>
        <time>2023-04-19T14:12:49Z</time>
      </trkpt>
      <trkpt lat="49.83397" lon="2.40051">
        <ele>30.6</ele>
        <time>2023-04-19T14:12:50Z</time>
      </trkpt>
      <trkpt lat="49.83397" lon="2.40051">
        <ele>30.6</ele>
        <time>2023-04-19T14:12:52Z</time>
      </trkpt>
      <trkpt lat="49.83396" lon="2.40051">
        <ele>30.6</ele>
        <time>2023-04-19T14:12:53Z</time>
      </trkpt>
      <trkpt lat="49.83396" lon="2.40051">
        <ele>30.6</ele>
        <time>2023-04-19T14:12:54Z</time>
      </trkpt>
      <trkpt lat="49.83396" lon="2.40052">
        <ele>30.6</ele>
        <time>2023-04-19T14:12:56Z</time>
      </trkpt>
      <trkpt lat="49.83396" lon="2.40052">
        <ele>30.6</ele>
        <time>2023-04-19T14:12:57Z</time>
      </trkpt>
      <trkpt lat="49.83395" lon="2.40052">
        <ele>30.5</ele>
        <time>2023-04-19T14:12:58Z</time>
      </trkpt>
      <trkpt lat="49.83395" lon="2.40052">
        <ele>30.5</ele>
        <time>2023-04-19T14:12:59Z</time>
      </trkpt>
      <trkpt lat="49.83395" lon="2.40052">
        <ele>30.5</ele>
        <time>2023-04-19T14:13:00Z</time>
      </trkpt>
      <trkpt lat="49.83395" lon="2.40052">
        <ele>30.5</ele>
        <time>2023-04-19T14:13:01Z</time>
      </trkpt>
      <trkpt lat="49.83395" lon="2.40052">
        <ele>30.5</ele>
        <time>2023-04-19T14:13:02Z</time>
      </trkpt>
      <trkpt lat="49.83395" lon="2.40052">
        <ele>30.5</ele>
        <time>2023-04-19T14:13:03Z</time>
      </trkpt>
      <trkpt lat="49.83395" lon="2.40052">
        <ele>30.5</ele>
        <time>2023-04-19T14:13:04Z</time>
      </trkpt>
      <trkpt lat="49.83395" lon="2.40052">
        <ele>30.5</ele>
        <time>2023-04-19T14:13:05Z</time>
      </trkpt>
      <trkpt lat="49.83395" lon="2.40052">
        <ele>30.5</ele>
        <time>2023-04-19T14:13:06Z</time>
      </trkpt>
      <trkpt lat="49.83395" lon="2.40052">
        <ele>30.5</ele>
        <time>2023-04-19T14:13:07Z</time>
      </trkpt>
      <trkpt lat="49.83395" lon="2.40052">
        <ele>30.5</ele>
        <time>2023-04-19T14:13:08Z</time>
      </trkpt>
      <trkpt lat="49.83395" lon="2.40052">
        <ele>30.5</ele>
        <time>2023-04-19T14:13:09Z</time>
      </trkpt>
      <trkpt lat="49.83395" lon="2.40052">
        <ele>30.5</ele>
        <time>2023-04-19T14:13:10Z</time>
      </trkpt>
      <trkpt lat="49.83395" lon="2.40052">
        <ele>30.5</ele>
        <time>2023-04-19T14:13:11Z</time>
      </trkpt>
      <trkpt lat="49.83395" lon="2.40052">
        <ele>30.5</ele>
        <time>2023-04-19T14:13:12Z</time>
      </trkpt>
      <trkpt lat="49.83395" lon="2.40052">
        <ele>30.5</ele>
        <time>2023-04-19T14:13:13Z</time>
      </trkpt>
      <trkpt lat="49.83395" lon="2.40052">
        <ele>30.5</ele>
        <time>2023-04-19T14:13:14Z</time>
      </trkpt>
      <trkpt lat="49.83395" lon="2.40052">
        <ele>30.5</ele>
        <time>2023-04-19T14:13:15Z</time>
      </trkpt>
      <trkpt lat="49.83395" lon="2.40052">
        <ele>30.5</ele>
        <time>2023-04-19T14:13:16Z</time>
      </trkpt>
      <trkpt lat="49.83396" lon="2.40052">
        <ele>30.5</ele>
        <time>2023-04-19T14:13:18Z</time>
      </trkpt>
      <trkpt lat="49.83396" lon="2.40051">
        <ele>30.5</ele>
        <time>2023-04-19T14:13:19Z</time>
      </trkpt>
      <trkpt lat="49.83395" lon="2.40051">
        <ele>30.5</ele>
        <time>2023-04-19T14:13:20Z</time>
      </trkpt>
      <trkpt lat="49.83395" lon="2.40049">
        <ele>30.4</ele>
        <time>2023-04-19T14:13:21Z</time>
      </trkpt>
      <trkpt lat="49.83394" lon="2.40047">
        <ele>30.4</ele>
        <time>2023-04-19T14:13:22Z</time>
      </trkpt>
      <trkpt lat="49.83393" lon="2.40046">
        <ele>30.3</ele>
        <time>2023-04-19T14:13:23Z</time>
      </trkpt>
      <trkpt lat="49.83392" lon="2.40044">
        <ele>30.3</ele>
        <time>2023-04-19T14:13:24Z</time>
      </trkpt>
      <trkpt lat="49.83391" lon="2.40042">
        <ele>30.2</ele>
        <time>2023-04-19T14:13:26Z</time>
      </trkpt>
      <trkpt lat="49.8339" lon="2.40041">
        <ele>30.2</ele>
        <time>2023-04-19T14:13:27Z</time>
      </trkpt>
      <trkpt lat="49.83389" lon="2.40038">
        <ele>30.1</ele>
        <time>2023-04-19T14:13:28Z</time>
      </trkpt>
      <trkpt lat="49.83389" lon="2.40037">
        <ele>30.1</ele>
        <time>2023-04-19T14:13:29Z</time>
      </trkpt>
      <trkpt lat="49.83388" lon="2.40035">
        <ele>30.1</ele>
        <time>2023-04-19T14:13:30Z</time>
      </trkpt>
      <trkpt lat="49.83388" lon="2.40034">
        <ele>30.1</ele>
        <time>2023-04-19T14:13:31Z</time>
      </trkpt>
      <trkpt lat="49.83387" lon="2.40033">
        <ele>30.1</ele>
        <time>2023-04-19T14:13:32Z</time>
      </trkpt>
      <trkpt lat="49.83387" lon="2.40031">
        <ele>30</ele>
        <time>2023-04-19T14:13:33Z</time>
      </trkpt>
      <trkpt lat="49.83386" lon="2.40028">
        <ele>30</ele>
        <time>2023-04-19T14:13:35Z</time>
      </trkpt>
      <trkpt lat="49.83386" lon="2.40027">
        <ele>30</ele>
        <time>2023-04-19T14:13:36Z</time>
      </trkpt>
      <trkpt lat="49.83386" lon="2.40026">
        <ele>30</ele>
        <time>2023-04-19T14:13:37Z</time>
      </trkpt>
      <trkpt lat="49.83385" lon="2.40023">
        <ele>30</ele>
        <time>2023-04-19T14:13:38Z</time>
      </trkpt>
      <trkpt lat="49.83385" lon="2.40021">
        <ele>29.9</ele>
        <time>2023-04-19T14:13:39Z</time>
      </trkpt>
      <trkpt lat="49.83385" lon="2.4002">
        <ele>29.9</ele>
        <time>2023-04-19T14:13:40Z</time>
      </trkpt>
      <trkpt lat="49.83385" lon="2.40018">
        <ele>29.9</ele>
        <time>2023-04-19T14:13:41Z</time>
      </trkpt>
      <trkpt lat="49.83385" lon="2.40015">
        <ele>29.9</ele>
        <time>2023-04-19T14:13:42Z</time>
      </trkpt>
      <trkpt lat="49.83385" lon="2.40013">
        <ele>29.9</ele>
        <time>2023-04-19T14:13:44Z</time>
      </trkpt>
      <trkpt lat="49.83384" lon="2.40011">
        <ele>29.9</ele>
        <time>2023-04-19T14:13:45Z</time>
      </trkpt>
      <trkpt lat="49.83383" lon="2.40008">
        <ele>29.8</ele>
        <time>2023-04-19T14:13:46Z</time>
      </trkpt>
      <trkpt lat="49.83383" lon="2.40006">
        <ele>29.8</ele>
        <time>2023-04-19T14:13:47Z</time>
      </trkpt>
      <trkpt lat="49.83383" lon="2.40005">
        <ele>29.8</ele>
        <time>2023-04-19T14:13:48Z</time>
      </trkpt>
      <trkpt lat="49.83383" lon="2.40003">
        <ele>29.8</ele>
        <time>2023-04-19T14:13:49Z</time>
      </trkpt>
      <trkpt lat="49.83382" lon="2.39999">
        <ele>29.8</ele>
        <time>2023-04-19T14:13:51Z</time>
      </trkpt>
      <trkpt lat="49.83382" lon="2.39998">
        <ele>29.8</ele>
        <time>2023-04-19T14:13:53Z</time>
      </trkpt>
      <trkpt lat="49.83381" lon="2.39996">
        <ele>29.7</ele>
        <time>2023-04-19T14:13:54Z</time>
      </trkpt>
      <trkpt lat="49.83381" lon="2.39994">
        <ele>29.7</ele>
        <time>2023-04-19T14:13:55Z</time>
      </trkpt>
      <trkpt lat="49.8338" lon="2.39993">
        <ele>29.7</ele>
        <time>2023-04-19T14:13:56Z</time>
      </trkpt>
      <trkpt lat="49.8338" lon="2.39992">
        <ele>29.7</ele>
        <time>2023-04-19T14:13:57Z</time>
      </trkpt>
      <trkpt lat="49.8338" lon="2.39991">
        <ele>29.7</ele>
        <time>2023-04-19T14:13:58Z</time>
      </trkpt>
      <trkpt lat="49.8338" lon="2.3999">
        <ele>29.7</ele>
        <time>2023-04-19T14:13:59Z</time>
      </trkpt>
      <trkpt lat="49.8338" lon="2.39989">
        <ele>29.7</ele>
        <time>2023-04-19T14:14:00Z</time>
      </trkpt>
      <trkpt lat="49.8338" lon="2.39986">
        <ele>29.6</ele>
        <time>2023-04-19T14:14:02Z</time>
      </trkpt>
      <trkpt lat="49.8338" lon="2.39985">
        <ele>29.6</ele>
        <time>2023-04-19T14:14:03Z</time>
      </trkpt>
      <trkpt lat="49.8338" lon="2.39984">
        <ele>29.6</ele>
        <time>2023-04-19T14:14:04Z</time>
      </trkpt>
      <trkpt lat="49.8338" lon="2.39982">
        <ele>29.6</ele>
        <time>2023-04-19T14:14:05Z</time>
      </trkpt>
      <trkpt lat="49.8338" lon="2.3998">
        <ele>29.6</ele>
        <time>2023-04-19T14:14:06Z</time>
      </trkpt>
      <trkpt lat="49.83379" lon="2.39977">
        <ele>29.5</ele>
        <time>2023-04-19T14:14:07Z</time>
      </trkpt>
      <trkpt lat="49.83379" lon="2.39976">
        <ele>29.5</ele>
        <time>2023-04-19T14:14:08Z</time>
      </trkpt>
      <trkpt lat="49.83378" lon="2.39974">
        <ele>29.5</ele>
        <time>2023-04-19T14:14:09Z</time>
      </trkpt>
      <trkpt lat="49.83378" lon="2.39972">
        <ele>29.4</ele>
        <time>2023-04-19T14:14:11Z</time>
      </trkpt>
      <trkpt lat="49.83378" lon="2.39971">
        <ele>29.4</ele>
        <time>2023-04-19T14:14:12Z</time>
      </trkpt>
      <trkpt lat="49.83378" lon="2.39969">
        <ele>29.4</ele>
        <time>2023-04-19T14:14:13Z</time>
      </trkpt>
      <trkpt lat="49.83377" lon="2.39968">
        <ele>29.4</ele>
        <time>2023-04-19T14:14:14Z</time>
      </trkpt>
      <trkpt lat="49.83377" lon="2.39966">
        <ele>29.4</ele>
        <time>2023-04-19T14:14:15Z</time>
      </trkpt>
      <trkpt lat="49.83377" lon="2.39965">
        <ele>29.4</ele>
        <time>2023-04-19T14:14:16Z</time>
      </trkpt>
      <trkpt lat="49.83377" lon="2.39964">
        <ele>29.3</ele>
        <time>2023-04-19T14:14:17Z</time>
      </trkpt>
      <trkpt lat="49.83377" lon="2.39963">
        <ele>29.3</ele>
        <time>2023-04-19T14:14:18Z</time>
      </trkpt>
      <trkpt lat="49.83376" lon="2.39961">
        <ele>29.3</ele>
        <time>2023-04-19T14:14:19Z</time>
      </trkpt>
      <trkpt lat="49.83376" lon="2.3996">
        <ele>29.3</ele>
        <time>2023-04-19T14:14:20Z</time>
      </trkpt>
      <trkpt lat="49.83376" lon="2.39959">
        <ele>29.3</ele>
        <time>2023-04-19T14:14:22Z</time>
      </trkpt>
      <trkpt lat="49.83376" lon="2.39958">
        <ele>29.3</ele>
        <time>2023-04-19T14:14:23Z</time>
      </trkpt>
      <trkpt lat="49.83376" lon="2.39957">
        <ele>29.3</ele>
        <time>2023-04-19T14:14:24Z</time>
      </trkpt>
      <trkpt lat="49.83376" lon="2.39956">
        <ele>29.2</ele>
        <time>2023-04-19T14:14:25Z</time>
      </trkpt>
      <trkpt lat="49.83376" lon="2.39956">
        <ele>29.2</ele>
        <time>2023-04-19T14:14:26Z</time>
      </trkpt>
      <trkpt lat="49.83376" lon="2.39955">
        <ele>29.2</ele>
        <time>2023-04-19T14:14:27Z</time>
      </trkpt>
      <trkpt lat="49.83376" lon="2.39954">
        <ele>29.2</ele>
        <time>2023-04-19T14:14:28Z</time>
      </trkpt>
      <trkpt lat="49.83376" lon="2.39952">
        <ele>29.2</ele>
        <time>2023-04-19T14:14:29Z</time>
      </trkpt>
      <trkpt lat="49.83375" lon="2.3995">
        <ele>29.2</ele>
        <time>2023-04-19T14:14:30Z</time>
      </trkpt>
      <trkpt lat="49.83375" lon="2.39948">
        <ele>29.2</ele>
        <time>2023-04-19T14:14:31Z</time>
      </trkpt>
      <trkpt lat="49.83374" lon="2.39946">
        <ele>29.1</ele>
        <time>2023-04-19T14:14:33Z</time>
      </trkpt>
      <trkpt lat="49.83374" lon="2.39944">
        <ele>29.1</ele>
        <time>2023-04-19T14:14:34Z</time>
      </trkpt>
      <trkpt lat="49.83373" lon="2.39941">
        <ele>29.1</ele>
        <time>2023-04-19T14:14:35Z</time>
      </trkpt>
      <trkpt lat="49.83372" lon="2.39937">
        <ele>29</ele>
        <time>2023-04-19T14:14:36Z</time>
      </trkpt>
      <trkpt lat="49.83372" lon="2.39935">
        <ele>29</ele>
        <time>2023-04-19T14:14:37Z</time>
      </trkpt>
      <trkpt lat="49.8337" lon="2.39931">
        <ele>29</ele>
        <time>2023-04-19T14:14:38Z</time>
      </trkpt>
      <trkpt lat="49.83369" lon="2.3993">
        <ele>29</ele>
        <time>2023-04-19T14:14:39Z</time>
      </trkpt>
      <trkpt lat="49.83369" lon="2.39927">
        <ele>29</ele>
        <time>2023-04-19T14:14:40Z</time>
      </trkpt>
      <trkpt lat="49.83368" lon="2.39925">
        <ele>29</ele>
        <time>2023-04-19T14:14:41Z</time>
      </trkpt>
      <trkpt lat="49.83368" lon="2.3992">
        <ele>28.9</ele>
        <time>2023-04-19T14:14:42Z</time>
      </trkpt>
      <trkpt lat="49.83367" lon="2.39919">
        <ele>28.9</ele>
        <time>2023-04-19T14:14:44Z</time>
      </trkpt>
      <trkpt lat="49.83367" lon="2.39917">
        <ele>28.9</ele>
        <time>2023-04-19T14:14:45Z</time>
      </trkpt>
      <trkpt lat="49.83367" lon="2.39915">
        <ele>28.9</ele>
        <time>2023-04-19T14:14:46Z</time>
      </trkpt>
      <trkpt lat="49.83367" lon="2.39913">
        <ele>28.9</ele>
        <time>2023-04-19T14:14:47Z</time>
      </trkpt>
      <trkpt lat="49.83367" lon="2.39911">
        <ele>28.9</ele>
        <time>2023-04-19T14:14:48Z</time>
      </trkpt>
      <trkpt lat="49.83367" lon="2.3991">
        <ele>28.9</ele>
        <time>2023-04-19T14:14:49Z</time>
      </trkpt>
      <trkpt lat="49.83367" lon="2.39908">
        <ele>28.9</ele>
        <time>2023-04-19T14:14:51Z</time>
      </trkpt>
      <trkpt lat="49.83367" lon="2.39905">
        <ele>28.9</ele>
        <time>2023-04-19T14:14:52Z</time>
      </trkpt>
      <trkpt lat="49.83367" lon="2.39903">
        <ele>28.9</ele>
        <time>2023-04-19T14:14:53Z</time>
      </trkpt>
      <trkpt lat="49.83368" lon="2.39902">
        <ele>28.9</ele>
        <time>2023-04-19T14:14:54Z</time>
      </trkpt>
      <trkpt lat="49.83367" lon="2.39898">
        <ele>28.9</ele>
        <time>2023-04-19T14:14:55Z</time>
      </trkpt>
      <trkpt lat="49.83367" lon="2.39897">
        <ele>28.9</ele>
        <time>2023-04-19T14:14:57Z</time>
      </trkpt>
      <trkpt lat="49.83366" lon="2.39895">
        <ele>28.9</ele>
        <time>2023-04-19T14:14:58Z</time>
      </trkpt>
      <trkpt lat="49.83366" lon="2.39894">
        <ele>28.9</ele>
        <time>2023-04-19T14:14:59Z</time>
      </trkpt>
      <trkpt lat="49.83365" lon="2.39893">
        <ele>28.9</ele>
        <time>2023-04-19T14:15:00Z</time>
      </trkpt>
      <trkpt lat="49.83364" lon="2.39891">
        <ele>28.9</ele>
        <time>2023-04-19T14:15:01Z</time>
      </trkpt>
      <trkpt lat="49.83363" lon="2.39889">
        <ele>28.9</ele>
        <time>2023-04-19T14:15:02Z</time>
      </trkpt>
      <trkpt lat="49.83362" lon="2.39887">
        <ele>28.9</ele>
        <time>2023-04-19T14:15:03Z</time>
      </trkpt>
      <trkpt lat="49.83361" lon="2.39886">
        <ele>28.9</ele>
        <time>2023-04-19T14:15:04Z</time>
      </trkpt>
      <trkpt lat="49.8336" lon="2.39884">
        <ele>28.9</ele>
        <time>2023-04-19T14:15:05Z</time>
      </trkpt>
      <trkpt lat="49.83359" lon="2.39883">
        <ele>28.9</ele>
        <time>2023-04-19T14:15:06Z</time>
      </trkpt>
      <trkpt lat="49.83358" lon="2.3988">
        <ele>28.9</ele>
        <time>2023-04-19T14:15:07Z</time>
      </trkpt>
      <trkpt lat="49.83357" lon="2.39879">
        <ele>28.9</ele>
        <time>2023-04-19T14:15:08Z</time>
      </trkpt>
      <trkpt lat="49.83356" lon="2.39876">
        <ele>28.9</ele>
        <time>2023-04-19T14:15:10Z</time>
      </trkpt>
      <trkpt lat="49.83356" lon="2.39875">
        <ele>28.9</ele>
        <time>2023-04-19T14:15:11Z</time>
      </trkpt>
      <trkpt lat="49.83356" lon="2.39874">
        <ele>28.9</ele>
        <time>2023-04-19T14:15:12Z</time>
      </trkpt>
      <trkpt lat="49.83355" lon="2.3987">
        <ele>28.9</ele>
        <time>2023-04-19T14:15:13Z</time>
      </trkpt>
      <trkpt lat="49.83355" lon="2.39869">
        <ele>28.9</ele>
        <time>2023-04-19T14:15:14Z</time>
      </trkpt>
      <trkpt lat="49.83355" lon="2.39868">
        <ele>28.9</ele>
        <time>2023-04-19T14:15:15Z</time>
      </trkpt>
      <trkpt lat="49.83354" lon="2.39866">
        <ele>28.9</ele>
        <time>2023-04-19T14:15:16Z</time>
      </trkpt>
      <trkpt lat="49.83353" lon="2.39863">
        <ele>28.9</ele>
        <time>2023-04-19T14:15:18Z</time>
      </trkpt>
      <trkpt lat="49.83353" lon="2.39861">
        <ele>28.9</ele>
        <time>2023-04-19T14:15:19Z</time>
      </trkpt>
      <trkpt lat="49.83352" lon="2.39859">
        <ele>28.9</ele>
        <time>2023-04-19T14:15:20Z</time>
      </trkpt>
      <trkpt lat="49.83352" lon="2.39857">
        <ele>28.9</ele>
        <time>2023-04-19T14:15:21Z</time>
      </trkpt>
      <trkpt lat="49.83351" lon="2.39854">
        <ele>28.9</ele>
        <time>2023-04-19T14:15:23Z</time>
      </trkpt>
      <trkpt lat="49.8335" lon="2.39852">
        <ele>28.9</ele>
        <time>2023-04-19T14:15:24Z</time>
      </trkpt>
      <trkpt lat="49.83349" lon="2.3985">
        <ele>28.9</ele>
        <time>2023-04-19T14:15:25Z</time>
      </trkpt>
      <trkpt lat="49.83349" lon="2.39848">
        <ele>28.9</ele>
        <time>2023-04-19T14:15:26Z</time>
      </trkpt>
      <trkpt lat="49.83348" lon="2.39845">
        <ele>28.9</ele>
        <time>2023-04-19T14:15:27Z</time>
      </trkpt>
      <trkpt lat="49.83347" lon="2.39842">
        <ele>28.9</ele>
        <time>2023-04-19T14:15:28Z</time>
      </trkpt>
      <trkpt lat="49.83347" lon="2.3984">
        <ele>28.9</ele>
        <time>2023-04-19T14:15:29Z</time>
      </trkpt>
      <trkpt lat="49.83346" lon="2.39838">
        <ele>28.9</ele>
        <time>2023-04-19T14:15:30Z</time>
      </trkpt>
      <trkpt lat="49.83345" lon="2.39836">
        <ele>28.9</ele>
        <time>2023-04-19T14:15:31Z</time>
      </trkpt>
      <trkpt lat="49.83344" lon="2.39834">
        <ele>28.9</ele>
        <time>2023-04-19T14:15:32Z</time>
      </trkpt>
      <trkpt lat="49.83343" lon="2.39833">
        <ele>28.9</ele>
        <time>2023-04-19T14:15:33Z</time>
      </trkpt>
      <trkpt lat="49.83342" lon="2.3983">
        <ele>28.9</ele>
        <time>2023-04-19T14:15:35Z</time>
      </trkpt>
      <trkpt lat="49.83342" lon="2.39829">
        <ele>28.9</ele>
        <time>2023-04-19T14:15:36Z</time>
      </trkpt>
      <trkpt lat="49.83341" lon="2.39828">
        <ele>29</ele>
        <time>2023-04-19T14:15:37Z</time>
      </trkpt>
      <trkpt lat="49.8334" lon="2.39826">
        <ele>29</ele>
        <time>2023-04-19T14:15:38Z</time>
      </trkpt>
      <trkpt lat="49.8334" lon="2.39826">
        <ele>29</ele>
        <time>2023-04-19T14:15:39Z</time>
      </trkpt>
      <trkpt lat="49.8334" lon="2.39824">
        <ele>29</ele>
        <time>2023-04-19T14:15:40Z</time>
      </trkpt>
      <trkpt lat="49.83339" lon="2.39823">
        <ele>29</ele>
        <time>2023-04-19T14:15:41Z</time>
      </trkpt>
      <trkpt lat="49.83339" lon="2.3982">
        <ele>29</ele>
        <time>2023-04-19T14:15:42Z</time>
      </trkpt>
      <trkpt lat="49.83338" lon="2.39819">
        <ele>29</ele>
        <time>2023-04-19T14:15:43Z</time>
      </trkpt>
      <trkpt lat="49.83338" lon="2.39818">
        <ele>29</ele>
        <time>2023-04-19T14:15:44Z</time>
      </trkpt>
      <trkpt lat="49.83338" lon="2.39816">
        <ele>29</ele>
        <time>2023-04-19T14:15:46Z</time>
      </trkpt>
      <trkpt lat="49.83338" lon="2.39814">
        <ele>29</ele>
        <time>2023-04-19T14:15:47Z</time>
      </trkpt>
      <trkpt lat="49.83337" lon="2.39812">
        <ele>29</ele>
        <time>2023-04-19T14:15:48Z</time>
      </trkpt>
      <trkpt lat="49.83337" lon="2.39811">
        <ele>29</ele>
        <time>2023-04-19T14:15:49Z</time>
      </trkpt>
      <trkpt lat="49.83337" lon="2.39809">
        <ele>29</ele>
        <time>2023-04-19T14:15:50Z</time>
      </trkpt>
      <trkpt lat="49.83337" lon="2.39808">
        <ele>29</ele>
        <time>2023-04-19T14:15:51Z</time>
      </trkpt>
      <trkpt lat="49.83336" lon="2.39806">
        <ele>29</ele>
        <time>2023-04-19T14:15:52Z</time>
      </trkpt>
      <trkpt lat="49.83336" lon="2.39803">
        <ele>29</ele>
        <time>2023-04-19T14:15:53Z</time>
      </trkpt>
      <trkpt lat="49.83336" lon="2.39802">
        <ele>29</ele>
        <time>2023-04-19T14:15:54Z</time>
      </trkpt>
      <trkpt lat="49.83336" lon="2.398">
        <ele>29</ele>
        <time>2023-04-19T14:15:55Z</time>
      </trkpt>
      <trkpt lat="49.83336" lon="2.39799">
        <ele>29</ele>
        <time>2023-04-19T14:15:57Z</time>
      </trkpt>
      <trkpt lat="49.83335" lon="2.39796">
        <ele>29</ele>
        <time>2023-04-19T14:15:58Z</time>
      </trkpt>
      <trkpt lat="49.83335" lon="2.39795">
        <ele>29</ele>
        <time>2023-04-19T14:15:59Z</time>
      </trkpt>
      <trkpt lat="49.83335" lon="2.39793">
        <ele>29</ele>
        <time>2023-04-19T14:16:00Z</time>
      </trkpt>
      <trkpt lat="49.83334" lon="2.39791">
        <ele>29.1</ele>
        <time>2023-04-19T14:16:01Z</time>
      </trkpt>
      <trkpt lat="49.83334" lon="2.3979">
        <ele>29.1</ele>
        <time>2023-04-19T14:16:02Z</time>
      </trkpt>
      <trkpt lat="49.83334" lon="2.39788">
        <ele>29.1</ele>
        <time>2023-04-19T14:16:03Z</time>
      </trkpt>
      <trkpt lat="49.83333" lon="2.39786">
        <ele>29.1</ele>
        <time>2023-04-19T14:16:04Z</time>
      </trkpt>
      <trkpt lat="49.83333" lon="2.39783">
        <ele>29.1</ele>
        <time>2023-04-19T14:16:05Z</time>
      </trkpt>
      <trkpt lat="49.83332" lon="2.39782">
        <ele>29.1</ele>
        <time>2023-04-19T14:16:07Z</time>
      </trkpt>
      <trkpt lat="49.83332" lon="2.3978">
        <ele>29.2</ele>
        <time>2023-04-19T14:16:08Z</time>
      </trkpt>
      <trkpt lat="49.83331" lon="2.39779">
        <ele>29.2</ele>
        <time>2023-04-19T14:16:09Z</time>
      </trkpt>
      <trkpt lat="49.83331" lon="2.39777">
        <ele>29.2</ele>
        <time>2023-04-19T14:16:10Z</time>
      </trkpt>
      <trkpt lat="49.83331" lon="2.39776">
        <ele>29.2</ele>
        <time>2023-04-19T14:16:11Z</time>
      </trkpt>
      <trkpt lat="49.8333" lon="2.39774">
        <ele>29.2</ele>
        <time>2023-04-19T14:16:12Z</time>
      </trkpt>
      <trkpt lat="49.8333" lon="2.39773">
        <ele>29.3</ele>
        <time>2023-04-19T14:16:13Z</time>
      </trkpt>
      <trkpt lat="49.8333" lon="2.39771">
        <ele>29.3</ele>
        <time>2023-04-19T14:16:14Z</time>
      </trkpt>
      <trkpt lat="49.8333" lon="2.39769">
        <ele>29.3</ele>
        <time>2023-04-19T14:16:15Z</time>
      </trkpt>
      <trkpt lat="49.83329" lon="2.39767">
        <ele>29.3</ele>
        <time>2023-04-19T14:16:16Z</time>
      </trkpt>
      <trkpt lat="49.83329" lon="2.39765">
        <ele>29.4</ele>
        <time>2023-04-19T14:16:18Z</time>
      </trkpt>
      <trkpt lat="49.83329" lon="2.39763">
        <ele>29.4</ele>
        <time>2023-04-19T14:16:19Z</time>
      </trkpt>
      <trkpt lat="49.83329" lon="2.39762">
        <ele>29.4</ele>
        <time>2023-04-19T14:16:20Z</time>
      </trkpt>
      <trkpt lat="49.83329" lon="2.39761">
        <ele>29.4</ele>
        <time>2023-04-19T14:16:21Z</time>
      </trkpt>
      <trkpt lat="49.83328" lon="2.3976">
        <ele>29.4</ele>
        <time>2023-04-19T14:16:22Z</time>
      </trkpt>
      <trkpt lat="49.83328" lon="2.39758">
        <ele>29.5</ele>
        <time>2023-04-19T14:16:23Z</time>
      </trkpt>
      <trkpt lat="49.83328" lon="2.39757">
        <ele>29.5</ele>
        <time>2023-04-19T14:16:24Z</time>
      </trkpt>
      <trkpt lat="49.83328" lon="2.39756">
        <ele>29.5</ele>
        <time>2023-04-19T14:16:25Z</time>
      </trkpt>
      <trkpt lat="49.83328" lon="2.39755">
        <ele>29.5</ele>
        <time>2023-04-19T14:16:27Z</time>
      </trkpt>
      <trkpt lat="49.83328" lon="2.39753">
        <ele>29.5</ele>
        <time>2023-04-19T14:16:28Z</time>
      </trkpt>
      <trkpt lat="49.83328" lon="2.39752">
        <ele>29.5</ele>
        <time>2023-04-19T14:16:29Z</time>
      </trkpt>
      <trkpt lat="49.83329" lon="2.39751">
        <ele>29.6</ele>
        <time>2023-04-19T14:16:30Z</time>
      </trkpt>
      <trkpt lat="49.8333" lon="2.3975">
        <ele>29.6</ele>
        <time>2023-04-19T14:16:31Z</time>
      </trkpt>
      <trkpt lat="49.83331" lon="2.39749">
        <ele>29.5</ele>
        <time>2023-04-19T14:16:32Z</time>
      </trkpt>
      <trkpt lat="49.83332" lon="2.39748">
        <ele>29.5</ele>
        <time>2023-04-19T14:16:33Z</time>
      </trkpt>
      <trkpt lat="49.83333" lon="2.39748">
        <ele>29.5</ele>
        <time>2023-04-19T14:16:34Z</time>
      </trkpt>
      <trkpt lat="49.83335" lon="2.39748">
        <ele>29.5</ele>
        <time>2023-04-19T14:16:36Z</time>
      </trkpt>
      <trkpt lat="49.83336" lon="2.39748">
        <ele>29.5</ele>
        <time>2023-04-19T14:16:37Z</time>
      </trkpt>
      <trkpt lat="49.83337" lon="2.39748">
        <ele>29.5</ele>
        <time>2023-04-19T14:16:38Z</time>
      </trkpt>
      <trkpt lat="49.83339" lon="2.39748">
        <ele>29.5</ele>
        <time>2023-04-19T14:16:39Z</time>
      </trkpt>
      <trkpt lat="49.83339" lon="2.39747">
        <ele>29.4</ele>
        <time>2023-04-19T14:16:40Z</time>
      </trkpt>
      <trkpt lat="49.8334" lon="2.39747">
        <ele>29.4</ele>
        <time>2023-04-19T14:16:41Z</time>
      </trkpt>
      <trkpt lat="49.83341" lon="2.39747">
        <ele>29.4</ele>
        <time>2023-04-19T14:16:42Z</time>
      </trkpt>
      <trkpt lat="49.83342" lon="2.39746">
        <ele>29.4</ele>
        <time>2023-04-19T14:16:43Z</time>
      </trkpt>
      <trkpt lat="49.83343" lon="2.39745">
        <ele>29.4</ele>
        <time>2023-04-19T14:16:45Z</time>
      </trkpt>
      <trkpt lat="49.83343" lon="2.39745">
        <ele>29.4</ele>
        <time>2023-04-19T14:16:46Z</time>
      </trkpt>
      <trkpt lat="49.83344" lon="2.39744">
        <ele>29.4</ele>
        <time>2023-04-19T14:16:47Z</time>
      </trkpt>
      <trkpt lat="49.83345" lon="2.39743">
        <ele>29.4</ele>
        <time>2023-04-19T14:16:48Z</time>
      </trkpt>
      <trkpt lat="49.83345" lon="2.39743">
        <ele>29.4</ele>
        <time>2023-04-19T14:16:49Z</time>
      </trkpt>
      <trkpt lat="49.83345" lon="2.39742">
        <ele>29.4</ele>
        <time>2023-04-19T14:16:50Z</time>
      </trkpt>
      <trkpt lat="49.83346" lon="2.39741">
        <ele>29.4</ele>
        <time>2023-04-19T14:16:51Z</time>
      </trkpt>
      <trkpt lat="49.83346" lon="2.3974">
        <ele>29.4</ele>
        <time>2023-04-19T14:16:53Z</time>
      </trkpt>
      <trkpt lat="49.83347" lon="2.39739">
        <ele>29.4</ele>
        <time>2023-04-19T14:16:54Z</time>
      </trkpt>
      <trkpt lat="49.83347" lon="2.39738">
        <ele>29.3</ele>
        <time>2023-04-19T14:16:55Z</time>
      </trkpt>
      <trkpt lat="49.83347" lon="2.39738">
        <ele>29.3</ele>
        <time>2023-04-19T14:16:56Z</time>
      </trkpt>
      <trkpt lat="49.83348" lon="2.39737">
        <ele>29.3</ele>
        <time>2023-04-19T14:16:57Z</time>
      </trkpt>
      <trkpt lat="49.83349" lon="2.39735">
        <ele>29.3</ele>
        <time>2023-04-19T14:16:58Z</time>
      </trkpt>
      <trkpt lat="49.83349" lon="2.39734">
        <ele>29.3</ele>
        <time>2023-04-19T14:17:00Z</time>
      </trkpt>
      <trkpt lat="49.8335" lon="2.39732">
        <ele>29.3</ele>
        <time>2023-04-19T14:17:01Z</time>
      </trkpt>
      <trkpt lat="49.83351" lon="2.39731">
        <ele>29.3</ele>
        <time>2023-04-19T14:17:02Z</time>
      </trkpt>
      <trkpt lat="49.83352" lon="2.39729">
        <ele>29.3</ele>
        <time>2023-04-19T14:17:03Z</time>
      </trkpt>
      <trkpt lat="49.83352" lon="2.39729">
        <ele>29.3</ele>
        <time>2023-04-19T14:17:04Z</time>
      </trkpt>
      <trkpt lat="49.83353" lon="2.39727">
        <ele>29.3</ele>
        <time>2023-04-19T14:17:05Z</time>
      </trkpt>
      <trkpt lat="49.83354" lon="2.39726">
        <ele>29.3</ele>
        <time>2023-04-19T14:17:06Z</time>
      </trkpt>
      <trkpt lat="49.83355" lon="2.39724">
        <ele>29.3</ele>
        <time>2023-04-19T14:17:08Z</time>
      </trkpt>
      <trkpt lat="49.83356" lon="2.39723">
        <ele>29.3</ele>
        <time>2023-04-19T14:17:09Z</time>
      </trkpt>
      <trkpt lat="49.83357" lon="2.39722">
        <ele>29.3</ele>
        <time>2023-04-19T14:17:10Z</time>
      </trkpt>
      <trkpt lat="49.83357" lon="2.39719">
        <ele>29.3</ele>
        <time>2023-04-19T14:17:11Z</time>
      </trkpt>
      <trkpt lat="49.83358" lon="2.39718">
        <ele>29.3</ele>
        <time>2023-04-19T14:17:12Z</time>
      </trkpt>
      <trkpt lat="49.83358" lon="2.39717">
        <ele>29.3</ele>
        <time>2023-04-19T14:17:13Z</time>
      </trkpt>
      <trkpt lat="49.83359" lon="2.39715">
        <ele>29.3</ele>
        <time>2023-04-19T14:17:14Z</time>
      </trkpt>
      <trkpt lat="49.8336" lon="2.39713">
        <ele>29.3</ele>
        <time>2023-04-19T14:17:15Z</time>
      </trkpt>
      <trkpt lat="49.83361" lon="2.39711">
        <ele>29.3</ele>
        <time>2023-04-19T14:17:16Z</time>
      </trkpt>
      <trkpt lat="49.83363" lon="2.39709">
        <ele>29.3</ele>
        <time>2023-04-19T14:17:17Z</time>
      </trkpt>
      <trkpt lat="49.83365" lon="2.39706">
        <ele>29.3</ele>
        <time>2023-04-19T14:17:19Z</time>
      </trkpt>
      <trkpt lat="49.83365" lon="2.39704">
        <ele>29.3</ele>
        <time>2023-04-19T14:17:20Z</time>
      </trkpt>
      <trkpt lat="49.83366" lon="2.39703">
        <ele>29.3</ele>
        <time>2023-04-19T14:17:21Z</time>
      </trkpt>
      <trkpt lat="49.83367" lon="2.397">
        <ele>29.3</ele>
        <time>2023-04-19T14:17:22Z</time>
      </trkpt>
      <trkpt lat="49.83369" lon="2.39696">
        <ele>29.4</ele>
        <time>2023-04-19T14:17:23Z</time>
      </trkpt>
      <trkpt lat="49.8337" lon="2.39694">
        <ele>29.4</ele>
        <time>2023-04-19T14:17:24Z</time>
      </trkpt>
      <trkpt lat="49.83371" lon="2.39693">
        <ele>29.4</ele>
        <time>2023-04-19T14:17:25Z</time>
      </trkpt>
      <trkpt lat="49.83371" lon="2.39691">
        <ele>29.4</ele>
        <time>2023-04-19T14:17:27Z</time>
      </trkpt>
      <trkpt lat="49.83372" lon="2.39688">
        <ele>29.4</ele>
        <time>2023-04-19T14:17:28Z</time>
      </trkpt>
      <trkpt lat="49.83373" lon="2.39686">
        <ele>29.4</ele>
        <time>2023-04-19T14:17:29Z</time>
      </trkpt>
      <trkpt lat="49.83373" lon="2.39684">
        <ele>29.4</ele>
        <time>2023-04-19T14:17:30Z</time>
      </trkpt>
      <trkpt lat="49.83373" lon="2.39682">
        <ele>29.4</ele>
        <time>2023-04-19T14:17:31Z</time>
      </trkpt>
      <trkpt lat="49.83374" lon="2.3968">
        <ele>29.4</ele>
        <time>2023-04-19T14:17:32Z</time>
      </trkpt>
      <trkpt lat="49.83374" lon="2.39677">
        <ele>29.4</ele>
        <time>2023-04-19T14:17:33Z</time>
      </trkpt>
      <trkpt lat="49.83374" lon="2.39674">
        <ele>29.4</ele>
        <time>2023-04-19T14:17:34Z</time>
      </trkpt>
      <trkpt lat="49.83374" lon="2.39673">
        <ele>29.4</ele>
        <time>2023-04-19T14:17:35Z</time>
      </trkpt>
      <trkpt lat="49.83374" lon="2.3967">
        <ele>29.4</ele>
        <time>2023-04-19T14:17:37Z</time>
      </trkpt>
      <trkpt lat="49.83373" lon="2.39668">
        <ele>29.4</ele>
        <time>2023-04-19T14:17:38Z</time>
      </trkpt>
      <trkpt lat="49.83373" lon="2.39667">
        <ele>29.4</ele>
        <time>2023-04-19T14:17:39Z</time>
      </trkpt>
      <trkpt lat="49.83373" lon="2.39664">
        <ele>29.5</ele>
        <time>2023-04-19T14:17:40Z</time>
      </trkpt>
      <trkpt lat="49.83373" lon="2.39663">
        <ele>29.5</ele>
        <time>2023-04-19T14:17:41Z</time>
      </trkpt>
      <trkpt lat="49.83373" lon="2.39661">
        <ele>29.5</ele>
        <time>2023-04-19T14:17:42Z</time>
      </trkpt>
      <trkpt lat="49.83373" lon="2.3966">
        <ele>29.5</ele>
        <time>2023-04-19T14:17:43Z</time>
      </trkpt>
      <trkpt lat="49.83373" lon="2.39657">
        <ele>29.5</ele>
        <time>2023-04-19T14:17:45Z</time>
      </trkpt>
      <trkpt lat="49.83373" lon="2.39656">
        <ele>29.5</ele>
        <time>2023-04-19T14:17:46Z</time>
      </trkpt>
      <trkpt lat="49.83373" lon="2.39654">
        <ele>29.5</ele>
        <time>2023-04-19T14:17:47Z</time>
      </trkpt>
      <trkpt lat="49.83373" lon="2.39652">
        <ele>29.5</ele>
        <time>2023-04-19T14:17:48Z</time>
      </trkpt>
      <trkpt lat="49.83374" lon="2.3965">
        <ele>29.5</ele>
        <time>2023-04-19T14:17:49Z</time>
      </trkpt>
      <trkpt lat="49.83374" lon="2.39649">
        <ele>29.5</ele>
        <time>2023-04-19T14:17:51Z</time>
      </trkpt>
      <trkpt lat="49.83373" lon="2.39647">
        <ele>29.6</ele>
        <time>2023-04-19T14:17:52Z</time>
      </trkpt>
      <trkpt lat="49.83373" lon="2.39645">
        <ele>29.6</ele>
        <time>2023-04-19T14:17:53Z</time>
      </trkpt>
      <trkpt lat="49.83373" lon="2.39643">
        <ele>29.6</ele>
        <time>2023-04-19T14:17:54Z</time>
      </trkpt>
      <trkpt lat="49.83373" lon="2.39641">
        <ele>29.6</ele>
        <time>2023-04-19T14:17:55Z</time>
      </trkpt>
      <trkpt lat="49.83373" lon="2.39639">
        <ele>29.6</ele>
        <time>2023-04-19T14:17:56Z</time>
      </trkpt>
      <trkpt lat="49.83372" lon="2.39638">
        <ele>29.6</ele>
        <time>2023-04-19T14:17:57Z</time>
      </trkpt>
      <trkpt lat="49.83372" lon="2.39635">
        <ele>29.6</ele>
        <time>2023-04-19T14:17:58Z</time>
      </trkpt>
      <trkpt lat="49.83372" lon="2.39633">
        <ele>29.6</ele>
        <time>2023-04-19T14:18:00Z</time>
      </trkpt>
      <trkpt lat="49.83372" lon="2.39631">
        <ele>29.6</ele>
        <time>2023-04-19T14:18:01Z</time>
      </trkpt>
      <trkpt lat="49.83372" lon="2.39629">
        <ele>29.6</ele>
        <time>2023-04-19T14:18:02Z</time>
      </trkpt>
      <trkpt lat="49.83372" lon="2.39628">
        <ele>29.6</ele>
        <time>2023-04-19T14:18:03Z</time>
      </trkpt>
      <trkpt lat="49.83372" lon="2.39626">
        <ele>29.6</ele>
        <time>2023-04-19T14:18:04Z</time>
      </trkpt>
      <trkpt lat="49.83372" lon="2.39625">
        <ele>29.7</ele>
        <time>2023-04-19T14:18:05Z</time>
      </trkpt>
      <trkpt lat="49.83372" lon="2.39623">
        <ele>29.7</ele>
        <time>2023-04-19T14:18:07Z</time>
      </trkpt>
      <trkpt lat="49.83372" lon="2.39622">
        <ele>29.7</ele>
        <time>2023-04-19T14:18:08Z</time>
      </trkpt>
      <trkpt lat="49.83373" lon="2.39621">
        <ele>29.7</ele>
        <time>2023-04-19T14:18:09Z</time>
      </trkpt>
      <trkpt lat="49.83373" lon="2.3962">
        <ele>29.7</ele>
        <time>2023-04-19T14:18:10Z</time>
      </trkpt>
      <trkpt lat="49.83374" lon="2.39619">
        <ele>29.7</ele>
        <time>2023-04-19T14:18:11Z</time>
      </trkpt>
      <trkpt lat="49.83374" lon="2.39617">
        <ele>29.7</ele>
        <time>2023-04-19T14:18:12Z</time>
      </trkpt>
      <trkpt lat="49.83374" lon="2.39616">
        <ele>29.7</ele>
        <time>2023-04-19T14:18:13Z</time>
      </trkpt>
      <trkpt lat="49.83375" lon="2.39615">
        <ele>29.7</ele>
        <time>2023-04-19T14:18:14Z</time>
      </trkpt>
      <trkpt lat="49.83375" lon="2.39614">
        <ele>29.7</ele>
        <time>2023-04-19T14:18:15Z</time>
      </trkpt>
      <trkpt lat="49.83376" lon="2.39612">
        <ele>29.6</ele>
        <time>2023-04-19T14:18:16Z</time>
      </trkpt>
      <trkpt lat="49.83376" lon="2.39611">
        <ele>29.6</ele>
        <time>2023-04-19T14:18:18Z</time>
      </trkpt>
      <trkpt lat="49.83377" lon="2.3961">
        <ele>29.6</ele>
        <time>2023-04-19T14:18:19Z</time>
      </trkpt>
      <trkpt lat="49.83377" lon="2.39609">
        <ele>29.6</ele>
        <time>2023-04-19T14:18:20Z</time>
      </trkpt>
      <trkpt lat="49.83378" lon="2.39608">
        <ele>29.6</ele>
        <time>2023-04-19T14:18:21Z</time>
      </trkpt>
      <trkpt lat="49.83378" lon="2.39607">
        <ele>29.6</ele>
        <time>2023-04-19T14:18:22Z</time>
      </trkpt>
      <trkpt lat="49.8338" lon="2.39605">
        <ele>29.6</ele>
        <time>2023-04-19T14:18:23Z</time>
      </trkpt>
      <trkpt lat="49.8338" lon="2.39605">
        <ele>29.6</ele>
        <time>2023-04-19T14:18:24Z</time>
      </trkpt>
      <trkpt lat="49.83381" lon="2.39604">
        <ele>29.6</ele>
        <time>2023-04-19T14:18:25Z</time>
      </trkpt>
      <trkpt lat="49.83382" lon="2.39602">
        <ele>29.6</ele>
        <time>2023-04-19T14:18:27Z</time>
      </trkpt>
      <trkpt lat="49.83383" lon="2.39601">
        <ele>29.6</ele>
        <time>2023-04-19T14:18:28Z</time>
      </trkpt>
      <trkpt lat="49.83383" lon="2.396">
        <ele>29.6</ele>
        <time>2023-04-19T14:18:29Z</time>
      </trkpt>
      <trkpt lat="49.83384" lon="2.39599">
        <ele>29.6</ele>
        <time>2023-04-19T14:18:30Z</time>
      </trkpt>
      <trkpt lat="49.83384" lon="2.39598">
        <ele>29.6</ele>
        <time>2023-04-19T14:18:31Z</time>
      </trkpt>
      <trkpt lat="49.83384" lon="2.39597">
        <ele>29.6</ele>
        <time>2023-04-19T14:18:32Z</time>
      </trkpt>
      <trkpt lat="49.83385" lon="2.39596">
        <ele>29.5</ele>
        <time>2023-04-19T14:18:33Z</time>
      </trkpt>
      <trkpt lat="49.83386" lon="2.39594">
        <ele>29.5</ele>
        <time>2023-04-19T14:18:34Z</time>
      </trkpt>
      <trkpt lat="49.83387" lon="2.39593">
        <ele>29.5</ele>
        <time>2023-04-19T14:18:36Z</time>
      </trkpt>
      <trkpt lat="49.83388" lon="2.39592">
        <ele>29.5</ele>
        <time>2023-04-19T14:18:37Z</time>
      </trkpt>
      <trkpt lat="49.83389" lon="2.3959">
        <ele>29.5</ele>
        <time>2023-04-19T14:18:38Z</time>
      </trkpt>
      <trkpt lat="49.8339" lon="2.39589">
        <ele>29.5</ele>
        <time>2023-04-19T14:18:39Z</time>
      </trkpt>
      <trkpt lat="49.8339" lon="2.39588">
        <ele>29.5</ele>
        <time>2023-04-19T14:18:40Z</time>
      </trkpt>
      <trkpt lat="49.83392" lon="2.39586">
        <ele>29.5</ele>
        <time>2023-04-19T14:18:41Z</time>
      </trkpt>
      <trkpt lat="49.83392" lon="2.39585">
        <ele>29.4</ele>
        <time>2023-04-19T14:18:42Z</time>
      </trkpt>
      <trkpt lat="49.83393" lon="2.39584">
        <ele>29.4</ele>
        <time>2023-04-19T14:18:43Z</time>
      </trkpt>
      <trkpt lat="49.83393" lon="2.39584">
        <ele>29.4</ele>
        <time>2023-04-19T14:18:45Z</time>
      </trkpt>
      <trkpt lat="49.83394" lon="2.39583">
        <ele>29.4</ele>
        <time>2023-04-19T14:18:46Z</time>
      </trkpt>
      <trkpt lat="49.83395" lon="2.39583">
        <ele>29.4</ele>
        <time>2023-04-19T14:18:47Z</time>
      </trkpt>
      <trkpt lat="49.83396" lon="2.39582">
        <ele>29.4</ele>
        <time>2023-04-19T14:18:48Z</time>
      </trkpt>
      <trkpt lat="49.83398" lon="2.3958">
        <ele>29.4</ele>
        <time>2023-04-19T14:18:49Z</time>
      </trkpt>
      <trkpt lat="49.83398" lon="2.3958">
        <ele>29.4</ele>
        <time>2023-04-19T14:18:50Z</time>
      </trkpt>
      <trkpt lat="49.83399" lon="2.39579">
        <ele>29.4</ele>
        <time>2023-04-19T14:18:51Z</time>
      </trkpt>
      <trkpt lat="49.834" lon="2.39578">
        <ele>29.4</ele>
        <time>2023-04-19T14:18:53Z</time>
      </trkpt>
      <trkpt lat="49.83402" lon="2.39577">
        <ele>29.4</ele>
        <time>2023-04-19T14:18:54Z</time>
      </trkpt>
      <trkpt lat="49.83402" lon="2.39576">
        <ele>29.4</ele>
        <time>2023-04-19T14:18:55Z</time>
      </trkpt>
      <trkpt lat="49.83403" lon="2.39575">
        <ele>29.3</ele>
        <time>2023-04-19T14:18:56Z</time>
      </trkpt>
      <trkpt lat="49.83404" lon="2.39573">
        <ele>29.3</ele>
        <time>2023-04-19T14:18:57Z</time>
      </trkpt>
      <trkpt lat="49.83405" lon="2.39571">
        <ele>29.3</ele>
        <time>2023-04-19T14:18:58Z</time>
      </trkpt>
      <trkpt lat="49.83406" lon="2.39569">
        <ele>29.3</ele>
        <time>2023-04-19T14:18:59Z</time>
      </trkpt>
      <trkpt lat="49.83407" lon="2.39568">
        <ele>29.3</ele>
        <time>2023-04-19T14:19:00Z</time>
      </trkpt>
      <trkpt lat="49.83408" lon="2.39566">
        <ele>29.3</ele>
        <time>2023-04-19T14:19:01Z</time>
      </trkpt>
      <trkpt lat="49.8341" lon="2.39564">
        <ele>29.3</ele>
        <time>2023-04-19T14:19:03Z</time>
      </trkpt>
      <trkpt lat="49.83411" lon="2.39563">
        <ele>29.3</ele>
        <time>2023-04-19T14:19:04Z</time>
      </trkpt>
      <trkpt lat="49.83413" lon="2.39561">
        <ele>29.3</ele>
        <time>2023-04-19T14:19:05Z</time>
      </trkpt>
      <trkpt lat="49.83413" lon="2.3956">
        <ele>29.3</ele>
        <time>2023-04-19T14:19:06Z</time>
      </trkpt>
      <trkpt lat="49.83414" lon="2.3956">
        <ele>29.3</ele>
        <time>2023-04-19T14:19:07Z</time>
      </trkpt>
      <trkpt lat="49.83415" lon="2.39558">
        <ele>29.3</ele>
        <time>2023-04-19T14:19:08Z</time>
      </trkpt>
      <trkpt lat="49.83416" lon="2.39557">
        <ele>29.3</ele>
        <time>2023-04-19T14:19:09Z</time>
      </trkpt>
      <trkpt lat="49.83417" lon="2.39554">
        <ele>29.3</ele>
        <time>2023-04-19T14:19:11Z</time>
      </trkpt>
      <trkpt lat="49.83418" lon="2.39553">
        <ele>29.3</ele>
        <time>2023-04-19T14:19:12Z</time>
      </trkpt>
      <trkpt lat="49.83418" lon="2.39552">
        <ele>29.3</ele>
        <time>2023-04-19T14:19:13Z</time>
      </trkpt>
      <trkpt lat="49.83419" lon="2.3955">
        <ele>29.3</ele>
        <time>2023-04-19T14:19:14Z</time>
      </trkpt>
      <trkpt lat="49.8342" lon="2.3955">
        <ele>29.3</ele>
        <time>2023-04-19T14:19:15Z</time>
      </trkpt>
      <trkpt lat="49.83422" lon="2.39549">
        <ele>29.3</ele>
        <time>2023-04-19T14:19:17Z</time>
      </trkpt>
      <trkpt lat="49.83423" lon="2.39548">
        <ele>29.3</ele>
        <time>2023-04-19T14:19:18Z</time>
      </trkpt>
      <trkpt lat="49.83424" lon="2.39548">
        <ele>29.3</ele>
        <time>2023-04-19T14:19:19Z</time>
      </trkpt>
      <trkpt lat="49.83425" lon="2.39547">
        <ele>29.3</ele>
        <time>2023-04-19T14:19:20Z</time>
      </trkpt>
      <trkpt lat="49.83426" lon="2.39547">
        <ele>29.3</ele>
        <time>2023-04-19T14:19:21Z</time>
      </trkpt>
      <trkpt lat="49.83427" lon="2.39546">
        <ele>29.2</ele>
        <time>2023-04-19T14:19:22Z</time>
      </trkpt>
      <trkpt lat="49.83428" lon="2.39545">
        <ele>29.2</ele>
        <time>2023-04-19T14:19:23Z</time>
      </trkpt>
      <trkpt lat="49.8343" lon="2.39544">
        <ele>29.2</ele>
        <time>2023-04-19T14:19:24Z</time>
      </trkpt>
      <trkpt lat="49.83431" lon="2.39543">
        <ele>29.2</ele>
        <time>2023-04-19T14:19:25Z</time>
      </trkpt>
      <trkpt lat="49.83433" lon="2.39542">
        <ele>29.2</ele>
        <time>2023-04-19T14:19:26Z</time>
      </trkpt>
      <trkpt lat="49.83434" lon="2.39542">
        <ele>29.2</ele>
        <time>2023-04-19T14:19:28Z</time>
      </trkpt>
      <trkpt lat="49.83435" lon="2.39542">
        <ele>29.2</ele>
        <time>2023-04-19T14:19:29Z</time>
      </trkpt>
      <trkpt lat="49.83436" lon="2.39543">
        <ele>29.2</ele>
        <time>2023-04-19T14:19:30Z</time>
      </trkpt>
      <trkpt lat="49.83437" lon="2.39542">
        <ele>29.2</ele>
        <time>2023-04-19T14:19:31Z</time>
      </trkpt>
      <trkpt lat="49.83438" lon="2.39541">
        <ele>29.2</ele>
        <time>2023-04-19T14:19:32Z</time>
      </trkpt>
      <trkpt lat="49.83439" lon="2.39541">
        <ele>29.2</ele>
        <time>2023-04-19T14:19:33Z</time>
      </trkpt>
      <trkpt lat="49.8344" lon="2.3954">
        <ele>29.2</ele>
        <time>2023-04-19T14:19:34Z</time>
      </trkpt>
      <trkpt lat="49.83442" lon="2.3954">
        <ele>29.2</ele>
        <time>2023-04-19T14:19:35Z</time>
      </trkpt>
      <trkpt lat="49.83443" lon="2.3954">
        <ele>29.2</ele>
        <time>2023-04-19T14:19:36Z</time>
      </trkpt>
      <trkpt lat="49.83445" lon="2.39539">
        <ele>29.2</ele>
        <time>2023-04-19T14:19:38Z</time>
      </trkpt>
      <trkpt lat="49.83446" lon="2.39539">
        <ele>29.2</ele>
        <time>2023-04-19T14:19:39Z</time>
      </trkpt>
      <trkpt lat="49.83447" lon="2.39539">
        <ele>29.2</ele>
        <time>2023-04-19T14:19:40Z</time>
      </trkpt>
      <trkpt lat="49.83448" lon="2.39538">
        <ele>29.2</ele>
        <time>2023-04-19T14:19:41Z</time>
      </trkpt>
      <trkpt lat="49.83449" lon="2.39537">
        <ele>29.2</ele>
        <time>2023-04-19T14:19:43Z</time>
      </trkpt>
      <trkpt lat="49.8345" lon="2.39536">
        <ele>29.2</ele>
        <time>2023-04-19T14:19:44Z</time>
      </trkpt>
      <trkpt lat="49.83451" lon="2.39535">
        <ele>29.2</ele>
        <time>2023-04-19T14:19:45Z</time>
      </trkpt>
      <trkpt lat="49.83452" lon="2.39534">
        <ele>29.2</ele>
        <time>2023-04-19T14:19:46Z</time>
      </trkpt>
      <trkpt lat="49.83453" lon="2.39533">
        <ele>29.2</ele>
        <time>2023-04-19T14:19:47Z</time>
      </trkpt>
      <trkpt lat="49.83454" lon="2.39533">
        <ele>29.2</ele>
        <time>2023-04-19T14:19:48Z</time>
      </trkpt>
      <trkpt lat="49.83455" lon="2.39532">
        <ele>29.1</ele>
        <time>2023-04-19T14:19:49Z</time>
      </trkpt>
      <trkpt lat="49.83455" lon="2.3953">
        <ele>29.1</ele>
        <time>2023-04-19T14:19:50Z</time>
      </trkpt>
      <trkpt lat="49.83456" lon="2.39529">
        <ele>29.1</ele>
        <time>2023-04-19T14:19:51Z</time>
      </trkpt>
      <trkpt lat="49.83457" lon="2.39527">
        <ele>29.1</ele>
        <time>2023-04-19T14:19:52Z</time>
      </trkpt>
      <trkpt lat="49.83458" lon="2.39526">
        <ele>29.1</ele>
        <time>2023-04-19T14:19:53Z</time>
      </trkpt>
      <trkpt lat="49.83459" lon="2.39526">
        <ele>29.1</ele>
        <time>2023-04-19T14:19:54Z</time>
      </trkpt>
      <trkpt lat="49.8346" lon="2.39523">
        <ele>29.1</ele>
        <time>2023-04-19T14:19:56Z</time>
      </trkpt>
      <trkpt lat="49.83461" lon="2.39522">
        <ele>29.1</ele>
        <time>2023-04-19T14:19:57Z</time>
      </trkpt>
      <trkpt lat="49.83462" lon="2.39522">
        <ele>29.1</ele>
        <time>2023-04-19T14:19:58Z</time>
      </trkpt>
      <trkpt lat="49.83463" lon="2.3952">
        <ele>29.1</ele>
        <time>2023-04-19T14:19:59Z</time>
      </trkpt>
      <trkpt lat="49.83464" lon="2.39519">
        <ele>29.1</ele>
        <time>2023-04-19T14:20:00Z</time>
      </trkpt>
      <trkpt lat="49.83466" lon="2.39518">
        <ele>29.1</ele>
        <time>2023-04-19T14:20:01Z</time>
      </trkpt>
      <trkpt lat="49.83467" lon="2.39516">
        <ele>29.1</ele>
        <time>2023-04-19T14:20:03Z</time>
      </trkpt>
      <trkpt lat="49.83468" lon="2.39515">
        <ele>29.1</ele>
        <time>2023-04-19T14:20:04Z</time>
      </trkpt>
      <trkpt lat="49.83469" lon="2.39514">
        <ele>29.1</ele>
        <time>2023-04-19T14:20:05Z</time>
      </trkpt>
      <trkpt lat="49.83471" lon="2.39513">
        <ele>29.1</ele>
        <time>2023-04-19T14:20:06Z</time>
      </trkpt>
      <trkpt lat="49.83472" lon="2.39512">
        <ele>29.1</ele>
        <time>2023-04-19T14:20:07Z</time>
      </trkpt>
      <trkpt lat="49.83474" lon="2.3951">
        <ele>29.1</ele>
        <time>2023-04-19T14:20:08Z</time>
      </trkpt>
      <trkpt lat="49.83475" lon="2.39508">
        <ele>29.1</ele>
        <time>2023-04-19T14:20:09Z</time>
      </trkpt>
      <trkpt lat="49.83476" lon="2.39506">
        <ele>29.1</ele>
        <time>2023-04-19T14:20:10Z</time>
      </trkpt>
      <trkpt lat="49.83477" lon="2.39504">
        <ele>29.1</ele>
        <time>2023-04-19T14:20:12Z</time>
      </trkpt>
      <trkpt lat="49.83477" lon="2.39502">
        <ele>29</ele>
        <time>2023-04-19T14:20:13Z</time>
      </trkpt>
      <trkpt lat="49.83478" lon="2.39501">
        <ele>29</ele>
        <time>2023-04-19T14:20:14Z</time>
      </trkpt>
      <trkpt lat="49.83477" lon="2.39502">
        <ele>29</ele>
        <time>2023-04-19T14:20:15Z</time>
      </trkpt>
      <trkpt lat="49.83478" lon="2.39503">
        <ele>29</ele>
        <time>2023-04-19T14:20:16Z</time>
      </trkpt>
      <trkpt lat="49.83478" lon="2.39503">
        <ele>29</ele>
        <time>2023-04-19T14:20:17Z</time>
      </trkpt>
      <trkpt lat="49.8348" lon="2.39503">
        <ele>29</ele>
        <time>2023-04-19T14:20:18Z</time>
      </trkpt>
      <trkpt lat="49.83481" lon="2.39502">
        <ele>29</ele>
        <time>2023-04-19T14:20:19Z</time>
      </trkpt>
      <trkpt lat="49.83481" lon="2.39501">
        <ele>29</ele>
        <time>2023-04-19T14:20:21Z</time>
      </trkpt>
      <trkpt lat="49.83482" lon="2.395">
        <ele>29</ele>
        <time>2023-04-19T14:20:22Z</time>
      </trkpt>
      <trkpt lat="49.83482" lon="2.39499">
        <ele>29</ele>
        <time>2023-04-19T14:20:23Z</time>
      </trkpt>
      <trkpt lat="49.83482" lon="2.39498">
        <ele>29</ele>
        <time>2023-04-19T14:20:24Z</time>
      </trkpt>
      <trkpt lat="49.83482" lon="2.39497">
        <ele>29</ele>
        <time>2023-04-19T14:20:25Z</time>
      </trkpt>
      <trkpt lat="49.83483" lon="2.39497">
        <ele>29</ele>
        <time>2023-04-19T14:20:26Z</time>
      </trkpt>
      <trkpt lat="49.83484" lon="2.39496">
        <ele>29</ele>
        <time>2023-04-19T14:20:27Z</time>
      </trkpt>
      <trkpt lat="49.83484" lon="2.39495">
        <ele>29</ele>
        <time>2023-04-19T14:20:28Z</time>
      </trkpt>
      <trkpt lat="49.83485" lon="2.39494">
        <ele>29</ele>
        <time>2023-04-19T14:20:29Z</time>
      </trkpt>
      <trkpt lat="49.83486" lon="2.39493">
        <ele>29</ele>
        <time>2023-04-19T14:20:30Z</time>
      </trkpt>
      <trkpt lat="49.83488" lon="2.39492">
        <ele>29</ele>
        <time>2023-04-19T14:20:31Z</time>
      </trkpt>
      <trkpt lat="49.83488" lon="2.39492">
        <ele>29</ele>
        <time>2023-04-19T14:20:33Z</time>
      </trkpt>
      <trkpt lat="49.83489" lon="2.39491">
        <ele>29</ele>
        <time>2023-04-19T14:20:34Z</time>
      </trkpt>
      <trkpt lat="49.8349" lon="2.3949">
        <ele>29.1</ele>
        <time>2023-04-19T14:20:35Z</time>
      </trkpt>
      <trkpt lat="49.83491" lon="2.39489">
        <ele>29.1</ele>
        <time>2023-04-19T14:20:36Z</time>
      </trkpt>
      <trkpt lat="49.83492" lon="2.39488">
        <ele>29.1</ele>
        <time>2023-04-19T14:20:37Z</time>
      </trkpt>
      <trkpt lat="49.83493" lon="2.39487">
        <ele>29.1</ele>
        <time>2023-04-19T14:20:38Z</time>
      </trkpt>
      <trkpt lat="49.83494" lon="2.39487">
        <ele>29.1</ele>
        <time>2023-04-19T14:20:39Z</time>
      </trkpt>
      <trkpt lat="49.83495" lon="2.39486">
        <ele>29.1</ele>
        <time>2023-04-19T14:20:40Z</time>
      </trkpt>
      <trkpt lat="49.83496" lon="2.39484">
        <ele>29.1</ele>
        <time>2023-04-19T14:20:41Z</time>
      </trkpt>
      <trkpt lat="49.83497" lon="2.39484">
        <ele>29.1</ele>
        <time>2023-04-19T14:20:42Z</time>
      </trkpt>
      <trkpt lat="49.83498" lon="2.39483">
        <ele>29.1</ele>
        <time>2023-04-19T14:20:43Z</time>
      </trkpt>
      <trkpt lat="49.835" lon="2.39483">
        <ele>29.1</ele>
        <time>2023-04-19T14:20:45Z</time>
      </trkpt>
      <trkpt lat="49.83501" lon="2.39484">
        <ele>29.1</ele>
        <time>2023-04-19T14:20:46Z</time>
      </trkpt>
      <trkpt lat="49.83502" lon="2.39484">
        <ele>29.1</ele>
        <time>2023-04-19T14:20:47Z</time>
      </trkpt>
      <trkpt lat="49.83503" lon="2.39483">
        <ele>29.1</ele>
        <time>2023-04-19T14:20:48Z</time>
      </trkpt>
      <trkpt lat="49.83504" lon="2.39482">
        <ele>29.1</ele>
        <time>2023-04-19T14:20:49Z</time>
      </trkpt>
      <trkpt lat="49.83505" lon="2.39482">
        <ele>29.1</ele>
        <time>2023-04-19T14:20:50Z</time>
      </trkpt>
      <trkpt lat="49.83507" lon="2.39481">
        <ele>29.1</ele>
        <time>2023-04-19T14:20:52Z</time>
      </trkpt>
      <trkpt lat="49.83508" lon="2.39481">
        <ele>29.1</ele>
        <time>2023-04-19T14:20:53Z</time>
      </trkpt>
      <trkpt lat="49.83509" lon="2.39481">
        <ele>29.1</ele>
        <time>2023-04-19T14:20:54Z</time>
      </trkpt>
      <trkpt lat="49.83511" lon="2.3948">
        <ele>29.1</ele>
        <time>2023-04-19T14:20:55Z</time>
      </trkpt>
      <trkpt lat="49.83512" lon="2.3948">
        <ele>29.1</ele>
        <time>2023-04-19T14:20:56Z</time>
      </trkpt>
      <trkpt lat="49.83513" lon="2.39479">
        <ele>29.1</ele>
        <time>2023-04-19T14:20:57Z</time>
      </trkpt>
      <trkpt lat="49.83514" lon="2.39479">
        <ele>29.1</ele>
        <time>2023-04-19T14:20:58Z</time>
      </trkpt>
      <trkpt lat="49.83515" lon="2.39479">
        <ele>29.1</ele>
        <time>2023-04-19T14:20:59Z</time>
      </trkpt>
      <trkpt lat="49.83517" lon="2.39478">
        <ele>29.1</ele>
        <time>2023-04-19T14:21:00Z</time>
      </trkpt>
      <trkpt lat="49.83518" lon="2.39477">
        <ele>29.1</ele>
        <time>2023-04-19T14:21:01Z</time>
      </trkpt>
      <trkpt lat="49.83519" lon="2.39477">
        <ele>29.1</ele>
        <time>2023-04-19T14:21:03Z</time>
      </trkpt>
      <trkpt lat="49.8352" lon="2.39476">
        <ele>29.1</ele>
        <time>2023-04-19T14:21:04Z</time>
      </trkpt>
      <trkpt lat="49.83521" lon="2.39475">
        <ele>29.1</ele>
        <time>2023-04-19T14:21:05Z</time>
      </trkpt>
      <trkpt lat="49.83522" lon="2.39474">
        <ele>29.1</ele>
        <time>2023-04-19T14:21:06Z</time>
      </trkpt>
      <trkpt lat="49.83523" lon="2.39473">
        <ele>29.2</ele>
        <time>2023-04-19T14:21:08Z</time>
      </trkpt>
      <trkpt lat="49.83524" lon="2.39473">
        <ele>29.2</ele>
        <time>2023-04-19T14:21:09Z</time>
      </trkpt>
      <trkpt lat="49.83526" lon="2.39471">
        <ele>29.2</ele>
        <time>2023-04-19T14:21:10Z</time>
      </trkpt>
      <trkpt lat="49.83527" lon="2.3947">
        <ele>29.2</ele>
        <time>2023-04-19T14:21:11Z</time>
      </trkpt>
      <trkpt lat="49.83528" lon="2.39469">
        <ele>29.2</ele>
        <time>2023-04-19T14:21:12Z</time>
      </trkpt>
      <trkpt lat="49.83528" lon="2.39468">
        <ele>29.2</ele>
        <time>2023-04-19T14:21:14Z</time>
      </trkpt>
      <trkpt lat="49.8353" lon="2.39467">
        <ele>29.2</ele>
        <time>2023-04-19T14:21:15Z</time>
      </trkpt>
      <trkpt lat="49.83531" lon="2.39467">
        <ele>29.2</ele>
        <time>2023-04-19T14:21:16Z</time>
      </trkpt>
      <trkpt lat="49.83532" lon="2.39465">
        <ele>29.2</ele>
        <time>2023-04-19T14:21:17Z</time>
      </trkpt>
      <trkpt lat="49.83533" lon="2.39464">
        <ele>29.2</ele>
        <time>2023-04-19T14:21:18Z</time>
      </trkpt>
      <trkpt lat="49.83534" lon="2.39463">
        <ele>29.2</ele>
        <time>2023-04-19T14:21:19Z</time>
      </trkpt>
      <trkpt lat="49.83534" lon="2.39462">
        <ele>29.2</ele>
        <time>2023-04-19T14:21:21Z</time>
      </trkpt>
      <trkpt lat="49.83535" lon="2.39461">
        <ele>29.2</ele>
        <time>2023-04-19T14:21:22Z</time>
      </trkpt>
      <trkpt lat="49.83536" lon="2.3946">
        <ele>29.2</ele>
        <time>2023-04-19T14:21:23Z</time>
      </trkpt>
      <trkpt lat="49.83537" lon="2.39459">
        <ele>29.2</ele>
        <time>2023-04-19T14:21:24Z</time>
      </trkpt>
      <trkpt lat="49.83538" lon="2.39458">
        <ele>29.2</ele>
        <time>2023-04-19T14:21:25Z</time>
      </trkpt>
      <trkpt lat="49.83539" lon="2.39457">
        <ele>29.2</ele>
        <time>2023-04-19T14:21:26Z</time>
      </trkpt>
      <trkpt lat="49.8354" lon="2.39456">
        <ele>29.2</ele>
        <time>2023-04-19T14:21:27Z</time>
      </trkpt>
      <trkpt lat="49.83541" lon="2.39456">
        <ele>29.2</ele>
        <time>2023-04-19T14:21:28Z</time>
      </trkpt>
      <trkpt lat="49.83542" lon="2.39455">
        <ele>29.2</ele>
        <time>2023-04-19T14:21:29Z</time>
      </trkpt>
      <trkpt lat="49.83543" lon="2.39454">
        <ele>29.2</ele>
        <time>2023-04-19T14:21:31Z</time>
      </trkpt>
      <trkpt lat="49.83544" lon="2.39454">
        <ele>29.2</ele>
        <time>2023-04-19T14:21:32Z</time>
      </trkpt>
      <trkpt lat="49.83545" lon="2.39454">
        <ele>29.2</ele>
        <time>2023-04-19T14:21:33Z</time>
      </trkpt>
      <trkpt lat="49.83547" lon="2.39452">
        <ele>29.2</ele>
        <time>2023-04-19T14:21:34Z</time>
      </trkpt>
      <trkpt lat="49.83548" lon="2.39452">
        <ele>29.2</ele>
        <time>2023-04-19T14:21:35Z</time>
      </trkpt>
      <trkpt lat="49.83548" lon="2.39451">
        <ele>29.2</ele>
        <time>2023-04-19T14:21:36Z</time>
      </trkpt>
      <trkpt lat="49.8355" lon="2.3945">
        <ele>29.2</ele>
        <time>2023-04-19T14:21:38Z</time>
      </trkpt>
      <trkpt lat="49.83552" lon="2.39449">
        <ele>29.2</ele>
        <time>2023-04-19T14:21:39Z</time>
      </trkpt>
      <trkpt lat="49.83553" lon="2.39449">
        <ele>29.3</ele>
        <time>2023-04-19T14:21:40Z</time>
      </trkpt>
      <trkpt lat="49.83554" lon="2.39448">
        <ele>29.3</ele>
        <time>2023-04-19T14:21:41Z</time>
      </trkpt>
      <trkpt lat="49.83556" lon="2.39446">
        <ele>29.3</ele>
        <time>2023-04-19T14:21:42Z</time>
      </trkpt>
      <trkpt lat="49.83557" lon="2.39446">
        <ele>29.3</ele>
        <time>2023-04-19T14:21:43Z</time>
      </trkpt>
      <trkpt lat="49.83558" lon="2.39445">
        <ele>29.3</ele>
        <time>2023-04-19T14:21:44Z</time>
      </trkpt>
      <trkpt lat="49.83559" lon="2.39443">
        <ele>29.3</ele>
        <time>2023-04-19T14:21:45Z</time>
      </trkpt>
      <trkpt lat="49.83562" lon="2.3944">
        <ele>29.3</ele>
        <time>2023-04-19T14:21:47Z</time>
      </trkpt>
      <trkpt lat="49.83563" lon="2.39439">
        <ele>29.3</ele>
        <time>2023-04-19T14:21:49Z</time>
      </trkpt>
      <trkpt lat="49.83564" lon="2.39438">
        <ele>29.3</ele>
        <time>2023-04-19T14:21:50Z</time>
      </trkpt>
      <trkpt lat="49.83565" lon="2.39436">
        <ele>29.3</ele>
        <time>2023-04-19T14:21:51Z</time>
      </trkpt>
      <trkpt lat="49.83566" lon="2.39435">
        <ele>29.3</ele>
        <time>2023-04-19T14:21:52Z</time>
      </trkpt>
      <trkpt lat="49.83567" lon="2.39434">
        <ele>29.3</ele>
        <time>2023-04-19T14:21:53Z</time>
      </trkpt>
      <trkpt lat="49.83569" lon="2.39433">
        <ele>29.3</ele>
        <time>2023-04-19T14:21:55Z</time>
      </trkpt>
      <trkpt lat="49.8357" lon="2.39431">
        <ele>29.3</ele>
        <time>2023-04-19T14:21:56Z</time>
      </trkpt>
      <trkpt lat="49.83571" lon="2.39429">
        <ele>29.3</ele>
        <time>2023-04-19T14:21:57Z</time>
      </trkpt>
      <trkpt lat="49.83572" lon="2.39428">
        <ele>29.3</ele>
        <time>2023-04-19T14:21:58Z</time>
      </trkpt>
      <trkpt lat="49.83574" lon="2.39426">
        <ele>29.3</ele>
        <time>2023-04-19T14:21:59Z</time>
      </trkpt>
      <trkpt lat="49.83575" lon="2.39425">
        <ele>29.3</ele>
        <time>2023-04-19T14:22:00Z</time>
      </trkpt>
      <trkpt lat="49.83576" lon="2.39423">
        <ele>29.3</ele>
        <time>2023-04-19T14:22:01Z</time>
      </trkpt>
      <trkpt lat="49.83577" lon="2.39423">
        <ele>29.3</ele>
        <time>2023-04-19T14:22:02Z</time>
      </trkpt>
      <trkpt lat="49.83578" lon="2.39422">
        <ele>29.3</ele>
        <time>2023-04-19T14:22:03Z</time>
      </trkpt>
      <trkpt lat="49.8358" lon="2.39421">
        <ele>29.3</ele>
        <time>2023-04-19T14:22:05Z</time>
      </trkpt>
      <trkpt lat="49.83581" lon="2.39421">
        <ele>29.3</ele>
        <time>2023-04-19T14:22:06Z</time>
      </trkpt>
      <trkpt lat="49.83581" lon="2.3942">
        <ele>29.3</ele>
        <time>2023-04-19T14:22:07Z</time>
      </trkpt>
      <trkpt lat="49.83583" lon="2.39419">
        <ele>29.3</ele>
        <time>2023-04-19T14:22:08Z</time>
      </trkpt>
      <trkpt lat="49.83584" lon="2.39418">
        <ele>29.3</ele>
        <time>2023-04-19T14:22:09Z</time>
      </trkpt>
      <trkpt lat="49.83585" lon="2.39417">
        <ele>29.3</ele>
        <time>2023-04-19T14:22:10Z</time>
      </trkpt>
      <trkpt lat="49.83586" lon="2.39417">
        <ele>29.3</ele>
        <time>2023-04-19T14:22:11Z</time>
      </trkpt>
      <trkpt lat="49.83587" lon="2.39416">
        <ele>29.3</ele>
        <time>2023-04-19T14:22:12Z</time>
      </trkpt>
      <trkpt lat="49.83588" lon="2.39415">
        <ele>29.3</ele>
        <time>2023-04-19T14:22:13Z</time>
      </trkpt>
      <trkpt lat="49.8359" lon="2.39413">
        <ele>29.3</ele>
        <time>2023-04-19T14:22:14Z</time>
      </trkpt>
      <trkpt lat="49.83591" lon="2.39413">
        <ele>29.3</ele>
        <time>2023-04-19T14:22:15Z</time>
      </trkpt>
      <trkpt lat="49.83592" lon="2.39412">
        <ele>29.3</ele>
        <time>2023-04-19T14:22:17Z</time>
      </trkpt>
      <trkpt lat="49.83593" lon="2.39412">
        <ele>29.3</ele>
        <time>2023-04-19T14:22:18Z</time>
      </trkpt>
      <trkpt lat="49.83594" lon="2.39411">
        <ele>29.3</ele>
        <time>2023-04-19T14:22:19Z</time>
      </trkpt>
      <trkpt lat="49.83594" lon="2.39411">
        <ele>29.3</ele>
        <time>2023-04-19T14:22:20Z</time>
      </trkpt>
      <trkpt lat="49.83595" lon="2.3941">
        <ele>29.3</ele>
        <time>2023-04-19T14:22:21Z</time>
      </trkpt>
      <trkpt lat="49.83596" lon="2.3941">
        <ele>29.3</ele>
        <time>2023-04-19T14:22:22Z</time>
      </trkpt>
      <trkpt lat="49.83597" lon="2.39408">
        <ele>29.3</ele>
        <time>2023-04-19T14:22:24Z</time>
      </trkpt>
      <trkpt lat="49.83598" lon="2.39407">
        <ele>29.3</ele>
        <time>2023-04-19T14:22:25Z</time>
      </trkpt>
      <trkpt lat="49.83599" lon="2.39407">
        <ele>29.3</ele>
        <time>2023-04-19T14:22:26Z</time>
      </trkpt>
      <trkpt lat="49.836" lon="2.39406">
        <ele>29.3</ele>
        <time>2023-04-19T14:22:28Z</time>
      </trkpt>
      <trkpt lat="49.83602" lon="2.39405">
        <ele>29.3</ele>
        <time>2023-04-19T14:22:29Z</time>
      </trkpt>
      <trkpt lat="49.83603" lon="2.39404">
        <ele>29.3</ele>
        <time>2023-04-19T14:22:30Z</time>
      </trkpt>
      <trkpt lat="49.83604" lon="2.39403">
        <ele>29.3</ele>
        <time>2023-04-19T14:22:31Z</time>
      </trkpt>
      <trkpt lat="49.83605" lon="2.39402">
        <ele>29.3</ele>
        <time>2023-04-19T14:22:32Z</time>
      </trkpt>
      <trkpt lat="49.83606" lon="2.39402">
        <ele>29.3</ele>
        <time>2023-04-19T14:22:33Z</time>
      </trkpt>
      <trkpt lat="49.83606" lon="2.39401">
        <ele>29.3</ele>
        <time>2023-04-19T14:22:34Z</time>
      </trkpt>
      <trkpt lat="49.83608" lon="2.394">
        <ele>29.3</ele>
        <time>2023-04-19T14:22:35Z</time>
      </trkpt>
      <trkpt lat="49.83609" lon="2.394">
        <ele>29.3</ele>
        <time>2023-04-19T14:22:36Z</time>
      </trkpt>
      <trkpt lat="49.83611" lon="2.39398">
        <ele>29.3</ele>
        <time>2023-04-19T14:22:37Z</time>
      </trkpt>
      <trkpt lat="49.83611" lon="2.39397">
        <ele>29.3</ele>
        <time>2023-04-19T14:22:39Z</time>
      </trkpt>
      <trkpt lat="49.83612" lon="2.39396">
        <ele>29.3</ele>
        <time>2023-04-19T14:22:40Z</time>
      </trkpt>
      <trkpt lat="49.83613" lon="2.39395">
        <ele>29.3</ele>
        <time>2023-04-19T14:22:41Z</time>
      </trkpt>
      <trkpt lat="49.83614" lon="2.39394">
        <ele>29.3</ele>
        <time>2023-04-19T14:22:42Z</time>
      </trkpt>
      <trkpt lat="49.83615" lon="2.39393">
        <ele>29.3</ele>
        <time>2023-04-19T14:22:43Z</time>
      </trkpt>
      <trkpt lat="49.83616" lon="2.39393">
        <ele>29.3</ele>
        <time>2023-04-19T14:22:44Z</time>
      </trkpt>
      <trkpt lat="49.83618" lon="2.39392">
        <ele>29.3</ele>
        <time>2023-04-19T14:22:45Z</time>
      </trkpt>
      <trkpt lat="49.83619" lon="2.39391">
        <ele>29.3</ele>
        <time>2023-04-19T14:22:47Z</time>
      </trkpt>
      <trkpt lat="49.8362" lon="2.3939">
        <ele>29.3</ele>
        <time>2023-04-19T14:22:48Z</time>
      </trkpt>
      <trkpt lat="49.83622" lon="2.39389">
        <ele>29.3</ele>
        <time>2023-04-19T14:22:49Z</time>
      </trkpt>
      <trkpt lat="49.83623" lon="2.39387">
        <ele>29.3</ele>
        <time>2023-04-19T14:22:50Z</time>
      </trkpt>
      <trkpt lat="49.83625" lon="2.39387">
        <ele>29.3</ele>
        <time>2023-04-19T14:22:51Z</time>
      </trkpt>
      <trkpt lat="49.83626" lon="2.39386">
        <ele>29.3</ele>
        <time>2023-04-19T14:22:52Z</time>
      </trkpt>
      <trkpt lat="49.83627" lon="2.39385">
        <ele>29.3</ele>
        <time>2023-04-19T14:22:53Z</time>
      </trkpt>
      <trkpt lat="49.83629" lon="2.39384">
        <ele>29.3</ele>
        <time>2023-04-19T14:22:54Z</time>
      </trkpt>
      <trkpt lat="49.8363" lon="2.39383">
        <ele>29.3</ele>
        <time>2023-04-19T14:22:56Z</time>
      </trkpt>
      <trkpt lat="49.8363" lon="2.39383">
        <ele>29.3</ele>
        <time>2023-04-19T14:22:57Z</time>
      </trkpt>
      <trkpt lat="49.83631" lon="2.39382">
        <ele>29.3</ele>
        <time>2023-04-19T14:22:58Z</time>
      </trkpt>
      <trkpt lat="49.83632" lon="2.39381">
        <ele>29.3</ele>
        <time>2023-04-19T14:22:59Z</time>
      </trkpt>
      <trkpt lat="49.83634" lon="2.39379">
        <ele>29.3</ele>
        <time>2023-04-19T14:23:00Z</time>
      </trkpt>
      <trkpt lat="49.83635" lon="2.39379">
        <ele>29.3</ele>
        <time>2023-04-19T14:23:01Z</time>
      </trkpt>
      <trkpt lat="49.83636" lon="2.39378">
        <ele>29.2</ele>
        <time>2023-04-19T14:23:02Z</time>
      </trkpt>
      <trkpt lat="49.83637" lon="2.39377">
        <ele>29.2</ele>
        <time>2023-04-19T14:23:03Z</time>
      </trkpt>
      <trkpt lat="49.83638" lon="2.39376">
        <ele>29.2</ele>
        <time>2023-04-19T14:23:04Z</time>
      </trkpt>
      <trkpt lat="49.83639" lon="2.39375">
        <ele>29.2</ele>
        <time>2023-04-19T14:23:05Z</time>
      </trkpt>
      <trkpt lat="49.8364" lon="2.39375">
        <ele>29.2</ele>
        <time>2023-04-19T14:23:06Z</time>
      </trkpt>
      <trkpt lat="49.83641" lon="2.39374">
        <ele>29.2</ele>
        <time>2023-04-19T14:23:08Z</time>
      </trkpt>
      <trkpt lat="49.83643" lon="2.39373">
        <ele>29.2</ele>
        <time>2023-04-19T14:23:09Z</time>
      </trkpt>
      <trkpt lat="49.83644" lon="2.39372">
        <ele>29.2</ele>
        <time>2023-04-19T14:23:10Z</time>
      </trkpt>
      <trkpt lat="49.83645" lon="2.39372">
        <ele>29.2</ele>
        <time>2023-04-19T14:23:11Z</time>
      </trkpt>
      <trkpt lat="49.83648" lon="2.39371">
        <ele>29.2</ele>
        <time>2023-04-19T14:23:12Z</time>
      </trkpt>
      <trkpt lat="49.83648" lon="2.3937">
        <ele>29.2</ele>
        <time>2023-04-19T14:23:13Z</time>
      </trkpt>
      <trkpt lat="49.83649" lon="2.39369">
        <ele>29.2</ele>
        <time>2023-04-19T14:23:14Z</time>
      </trkpt>
      <trkpt lat="49.83651" lon="2.39368">
        <ele>29.2</ele>
        <time>2023-04-19T14:23:15Z</time>
      </trkpt>
      <trkpt lat="49.83652" lon="2.39367">
        <ele>29.2</ele>
        <time>2023-04-19T14:23:16Z</time>
      </trkpt>
      <trkpt lat="49.83654" lon="2.39365">
        <ele>29.2</ele>
        <time>2023-04-19T14:23:18Z</time>
      </trkpt>
      <trkpt lat="49.83655" lon="2.39365">
        <ele>29.2</ele>
        <time>2023-04-19T14:23:19Z</time>
      </trkpt>
      <trkpt lat="49.83655" lon="2.39364">
        <ele>29.2</ele>
        <time>2023-04-19T14:23:20Z</time>
      </trkpt>
      <trkpt lat="49.83656" lon="2.39363">
        <ele>29.2</ele>
        <time>2023-04-19T14:23:21Z</time>
      </trkpt>
      <trkpt lat="49.83657" lon="2.39362">
        <ele>29.2</ele>
        <time>2023-04-19T14:23:22Z</time>
      </trkpt>
      <trkpt lat="49.83658" lon="2.39361">
        <ele>29.2</ele>
        <time>2023-04-19T14:23:23Z</time>
      </trkpt>
      <trkpt lat="49.8366" lon="2.3936">
        <ele>29.2</ele>
        <time>2023-04-19T14:23:24Z</time>
      </trkpt>
      <trkpt lat="49.83661" lon="2.39359">
        <ele>29.2</ele>
        <time>2023-04-19T14:23:25Z</time>
      </trkpt>
      <trkpt lat="49.83662" lon="2.39358">
        <ele>29.2</ele>
        <time>2023-04-19T14:23:26Z</time>
      </trkpt>
      <trkpt lat="49.83663" lon="2.39357">
        <ele>29.2</ele>
        <time>2023-04-19T14:23:27Z</time>
      </trkpt>
      <trkpt lat="49.83664" lon="2.39356">
        <ele>29.2</ele>
        <time>2023-04-19T14:23:29Z</time>
      </trkpt>
      <trkpt lat="49.83665" lon="2.39354">
        <ele>29.2</ele>
        <time>2023-04-19T14:23:30Z</time>
      </trkpt>
      <trkpt lat="49.83666" lon="2.39353">
        <ele>29.2</ele>
        <time>2023-04-19T14:23:31Z</time>
      </trkpt>
      <trkpt lat="49.83666" lon="2.39352">
        <ele>29.2</ele>
        <time>2023-04-19T14:23:32Z</time>
      </trkpt>
      <trkpt lat="49.83668" lon="2.39349">
        <ele>29.2</ele>
        <time>2023-04-19T14:23:33Z</time>
      </trkpt>
      <trkpt lat="49.83668" lon="2.39349">
        <ele>29.2</ele>
        <time>2023-04-19T14:23:34Z</time>
      </trkpt>
      <trkpt lat="49.83669" lon="2.39348">
        <ele>29.2</ele>
        <time>2023-04-19T14:23:35Z</time>
      </trkpt>
      <trkpt lat="49.8367" lon="2.39347">
        <ele>29.2</ele>
        <time>2023-04-19T14:23:36Z</time>
      </trkpt>
      <trkpt lat="49.83672" lon="2.39347">
        <ele>29.2</ele>
        <time>2023-04-19T14:23:37Z</time>
      </trkpt>
      <trkpt lat="49.83672" lon="2.39346">
        <ele>29.2</ele>
        <time>2023-04-19T14:23:39Z</time>
      </trkpt>
      <trkpt lat="49.83674" lon="2.39346">
        <ele>29.2</ele>
        <time>2023-04-19T14:23:40Z</time>
      </trkpt>
      <trkpt lat="49.83674" lon="2.39345">
        <ele>29.2</ele>
        <time>2023-04-19T14:23:41Z</time>
      </trkpt>
      <trkpt lat="49.83675" lon="2.39345">
        <ele>29.2</ele>
        <time>2023-04-19T14:23:42Z</time>
      </trkpt>
      <trkpt lat="49.83676" lon="2.39344">
        <ele>29.2</ele>
        <time>2023-04-19T14:23:43Z</time>
      </trkpt>
      <trkpt lat="49.83677" lon="2.39343">
        <ele>29.2</ele>
        <time>2023-04-19T14:23:44Z</time>
      </trkpt>
      <trkpt lat="49.83678" lon="2.39343">
        <ele>29.2</ele>
        <time>2023-04-19T14:23:45Z</time>
      </trkpt>
      <trkpt lat="49.8368" lon="2.39343">
        <ele>29.2</ele>
        <time>2023-04-19T14:23:47Z</time>
      </trkpt>
      <trkpt lat="49.83681" lon="2.39342">
        <ele>29.2</ele>
        <time>2023-04-19T14:23:48Z</time>
      </trkpt>
      <trkpt lat="49.83681" lon="2.39342">
        <ele>29.2</ele>
        <time>2023-04-19T14:23:49Z</time>
      </trkpt>
      <trkpt lat="49.83682" lon="2.39341">
        <ele>29.2</ele>
        <time>2023-04-19T14:23:50Z</time>
      </trkpt>
      <trkpt lat="49.83683" lon="2.39341">
        <ele>29.2</ele>
        <time>2023-04-19T14:23:51Z</time>
      </trkpt>
      <trkpt lat="49.83684" lon="2.3934">
        <ele>29.2</ele>
        <time>2023-04-19T14:23:52Z</time>
      </trkpt>
      <trkpt lat="49.83685" lon="2.39339">
        <ele>29.2</ele>
        <time>2023-04-19T14:23:53Z</time>
      </trkpt>
      <trkpt lat="49.83688" lon="2.39337">
        <ele>29.2</ele>
        <time>2023-04-19T14:23:55Z</time>
      </trkpt>
      <trkpt lat="49.83688" lon="2.39337">
        <ele>29.2</ele>
        <time>2023-04-19T14:23:56Z</time>
      </trkpt>
      <trkpt lat="49.83689" lon="2.39336">
        <ele>29.3</ele>
        <time>2023-04-19T14:23:58Z</time>
      </trkpt>
      <trkpt lat="49.8369" lon="2.39336">
        <ele>29.3</ele>
        <time>2023-04-19T14:23:59Z</time>
      </trkpt>
      <trkpt lat="49.83692" lon="2.39335">
        <ele>29.3</ele>
        <time>2023-04-19T14:24:00Z</time>
      </trkpt>
      <trkpt lat="49.83693" lon="2.39335">
        <ele>29.3</ele>
        <time>2023-04-19T14:24:01Z</time>
      </trkpt>
      <trkpt lat="49.83693" lon="2.39334">
        <ele>29.3</ele>
        <time>2023-04-19T14:24:02Z</time>
      </trkpt>
      <trkpt lat="49.83694" lon="2.39334">
        <ele>29.3</ele>
        <time>2023-04-19T14:24:03Z</time>
      </trkpt>
      <trkpt lat="49.83696" lon="2.39332">
        <ele>29.3</ele>
        <time>2023-04-19T14:24:04Z</time>
      </trkpt>
      <trkpt lat="49.83697" lon="2.39331">
        <ele>29.3</ele>
        <time>2023-04-19T14:24:05Z</time>
      </trkpt>
      <trkpt lat="49.83698" lon="2.3933">
        <ele>29.3</ele>
        <time>2023-04-19T14:24:07Z</time>
      </trkpt>
      <trkpt lat="49.83699" lon="2.39329">
        <ele>29.3</ele>
        <time>2023-04-19T14:24:08Z</time>
      </trkpt>
      <trkpt lat="49.83699" lon="2.39328">
        <ele>29.3</ele>
        <time>2023-04-19T14:24:09Z</time>
      </trkpt>
      <trkpt lat="49.837" lon="2.39327">
        <ele>29.3</ele>
        <time>2023-04-19T14:24:10Z</time>
      </trkpt>
      <trkpt lat="49.83701" lon="2.39326">
        <ele>29.3</ele>
        <time>2023-04-19T14:24:11Z</time>
      </trkpt>
      <trkpt lat="49.83701" lon="2.39325">
        <ele>29.3</ele>
        <time>2023-04-19T14:24:12Z</time>
      </trkpt>
      <trkpt lat="49.83702" lon="2.39323">
        <ele>29.3</ele>
        <time>2023-04-19T14:24:13Z</time>
      </trkpt>
      <trkpt lat="49.83703" lon="2.39322">
        <ele>29.3</ele>
        <time>2023-04-19T14:24:15Z</time>
      </trkpt>
      <trkpt lat="49.83704" lon="2.3932">
        <ele>29.3</ele>
        <time>2023-04-19T14:24:16Z</time>
      </trkpt>
      <trkpt lat="49.83704" lon="2.3932">
        <ele>29.3</ele>
        <time>2023-04-19T14:24:17Z</time>
      </trkpt>
      <trkpt lat="49.83705" lon="2.39319">
        <ele>29.3</ele>
        <time>2023-04-19T14:24:18Z</time>
      </trkpt>
      <trkpt lat="49.83706" lon="2.39318">
        <ele>29.3</ele>
        <time>2023-04-19T14:24:19Z</time>
      </trkpt>
      <trkpt lat="49.83707" lon="2.39317">
        <ele>29.3</ele>
        <time>2023-04-19T14:24:20Z</time>
      </trkpt>
      <trkpt lat="49.83708" lon="2.39316">
        <ele>29.3</ele>
        <time>2023-04-19T14:24:21Z</time>
      </trkpt>
      <trkpt lat="49.83709" lon="2.39315">
        <ele>29.3</ele>
        <time>2023-04-19T14:24:22Z</time>
      </trkpt>
      <trkpt lat="49.8371" lon="2.39314">
        <ele>29.3</ele>
        <time>2023-04-19T14:24:24Z</time>
      </trkpt>
      <trkpt lat="49.83712" lon="2.39312">
        <ele>29.2</ele>
        <time>2023-04-19T14:24:25Z</time>
      </trkpt>
      <trkpt lat="49.83713" lon="2.39312">
        <ele>29.2</ele>
        <time>2023-04-19T14:24:26Z</time>
      </trkpt>
      <trkpt lat="49.83715" lon="2.3931">
        <ele>29.2</ele>
        <time>2023-04-19T14:24:27Z</time>
      </trkpt>
      <trkpt lat="49.83715" lon="2.3931">
        <ele>29.2</ele>
        <time>2023-04-19T14:24:28Z</time>
      </trkpt>
      <trkpt lat="49.83716" lon="2.39309">
        <ele>29.2</ele>
        <time>2023-04-19T14:24:29Z</time>
      </trkpt>
      <trkpt lat="49.83717" lon="2.39308">
        <ele>29.2</ele>
        <time>2023-04-19T14:24:30Z</time>
      </trkpt>
      <trkpt lat="49.83718" lon="2.39308">
        <ele>29.2</ele>
        <time>2023-04-19T14:24:32Z</time>
      </trkpt>
      <trkpt lat="49.83719" lon="2.39307">
        <ele>29.2</ele>
        <time>2023-04-19T14:24:33Z</time>
      </trkpt>
      <trkpt lat="49.8372" lon="2.39306">
        <ele>29.2</ele>
        <time>2023-04-19T14:24:34Z</time>
      </trkpt>
      <trkpt lat="49.83722" lon="2.39305">
        <ele>29.2</ele>
        <time>2023-04-19T14:24:35Z</time>
      </trkpt>
      <trkpt lat="49.83723" lon="2.39304">
        <ele>29.2</ele>
        <time>2023-04-19T14:24:36Z</time>
      </trkpt>
      <trkpt lat="49.83724" lon="2.39304">
        <ele>29.2</ele>
        <time>2023-04-19T14:24:37Z</time>
      </trkpt>
      <trkpt lat="49.83725" lon="2.39303">
        <ele>29.1</ele>
        <time>2023-04-19T14:24:38Z</time>
      </trkpt>
      <trkpt lat="49.83727" lon="2.39303">
        <ele>29.1</ele>
        <time>2023-04-19T14:24:39Z</time>
      </trkpt>
      <trkpt lat="49.83728" lon="2.39302">
        <ele>29.1</ele>
        <time>2023-04-19T14:24:40Z</time>
      </trkpt>
      <trkpt lat="49.83729" lon="2.39302">
        <ele>29.1</ele>
        <time>2023-04-19T14:24:42Z</time>
      </trkpt>
      <trkpt lat="49.8373" lon="2.39301">
        <ele>29.1</ele>
        <time>2023-04-19T14:24:43Z</time>
      </trkpt>
      <trkpt lat="49.83731" lon="2.39301">
        <ele>29.1</ele>
        <time>2023-04-19T14:24:44Z</time>
      </trkpt>
      <trkpt lat="49.83732" lon="2.393">
        <ele>29.1</ele>
        <time>2023-04-19T14:24:45Z</time>
      </trkpt>
      <trkpt lat="49.83733" lon="2.39299">
        <ele>29.1</ele>
        <time>2023-04-19T14:24:46Z</time>
      </trkpt>
      <trkpt lat="49.83734" lon="2.39298">
        <ele>29.1</ele>
        <time>2023-04-19T14:24:47Z</time>
      </trkpt>
      <trkpt lat="49.83735" lon="2.39297">
        <ele>29.1</ele>
        <time>2023-04-19T14:24:48Z</time>
      </trkpt>
      <trkpt lat="49.83736" lon="2.39296">
        <ele>29.1</ele>
        <time>2023-04-19T14:24:49Z</time>
      </trkpt>
      <trkpt lat="49.83737" lon="2.39295">
        <ele>29.1</ele>
        <time>2023-04-19T14:24:51Z</time>
      </trkpt>
      <trkpt lat="49.83738" lon="2.39295">
        <ele>29.1</ele>
        <time>2023-04-19T14:24:52Z</time>
      </trkpt>
      <trkpt lat="49.83739" lon="2.39294">
        <ele>29.1</ele>
        <time>2023-04-19T14:24:53Z</time>
      </trkpt>
      <trkpt lat="49.8374" lon="2.39293">
        <ele>29.1</ele>
        <time>2023-04-19T14:24:54Z</time>
      </trkpt>
      <trkpt lat="49.83741" lon="2.39292">
        <ele>29.1</ele>
        <time>2023-04-19T14:24:55Z</time>
      </trkpt>
      <trkpt lat="49.83742" lon="2.39291">
        <ele>29.1</ele>
        <time>2023-04-19T14:24:56Z</time>
      </trkpt>
      <trkpt lat="49.83743" lon="2.39291">
        <ele>29.1</ele>
        <time>2023-04-19T14:24:57Z</time>
      </trkpt>
      <trkpt lat="49.83744" lon="2.3929">
        <ele>29.1</ele>
        <time>2023-04-19T14:24:59Z</time>
      </trkpt>
      <trkpt lat="49.83745" lon="2.3929">
        <ele>29</ele>
        <time>2023-04-19T14:25:00Z</time>
      </trkpt>
      <trkpt lat="49.83747" lon="2.39289">
        <ele>29</ele>
        <time>2023-04-19T14:25:01Z</time>
      </trkpt>
      <trkpt lat="49.83748" lon="2.39288">
        <ele>29</ele>
        <time>2023-04-19T14:25:02Z</time>
      </trkpt>
      <trkpt lat="49.83749" lon="2.39287">
        <ele>29</ele>
        <time>2023-04-19T14:25:03Z</time>
      </trkpt>
      <trkpt lat="49.8375" lon="2.39287">
        <ele>29</ele>
        <time>2023-04-19T14:25:04Z</time>
      </trkpt>
      <trkpt lat="49.83751" lon="2.39285">
        <ele>29</ele>
        <time>2023-04-19T14:25:05Z</time>
      </trkpt>
      <trkpt lat="49.83752" lon="2.39284">
        <ele>29</ele>
        <time>2023-04-19T14:25:06Z</time>
      </trkpt>
      <trkpt lat="49.83753" lon="2.39283">
        <ele>29</ele>
        <time>2023-04-19T14:25:07Z</time>
      </trkpt>
      <trkpt lat="49.83754" lon="2.39283">
        <ele>29</ele>
        <time>2023-04-19T14:25:08Z</time>
      </trkpt>
      <trkpt lat="49.83755" lon="2.39282">
        <ele>29</ele>
        <time>2023-04-19T14:25:10Z</time>
      </trkpt>
      <trkpt lat="49.83757" lon="2.39281">
        <ele>29</ele>
        <time>2023-04-19T14:25:11Z</time>
      </trkpt>
      <trkpt lat="49.83757" lon="2.39281">
        <ele>29</ele>
        <time>2023-04-19T14:25:12Z</time>
      </trkpt>
      <trkpt lat="49.83758" lon="2.3928">
        <ele>29</ele>
        <time>2023-04-19T14:25:13Z</time>
      </trkpt>
      <trkpt lat="49.8376" lon="2.3928">
        <ele>29</ele>
        <time>2023-04-19T14:25:14Z</time>
      </trkpt>
      <trkpt lat="49.83761" lon="2.39279">
        <ele>29.1</ele>
        <time>2023-04-19T14:25:15Z</time>
      </trkpt>
      <trkpt lat="49.83762" lon="2.39279">
        <ele>29.1</ele>
        <time>2023-04-19T14:25:16Z</time>
      </trkpt>
      <trkpt lat="49.83763" lon="2.39279">
        <ele>29.1</ele>
        <time>2023-04-19T14:25:17Z</time>
      </trkpt>
      <trkpt lat="49.83764" lon="2.39278">
        <ele>29.1</ele>
        <time>2023-04-19T14:25:19Z</time>
      </trkpt>
      <trkpt lat="49.83765" lon="2.39277">
        <ele>29.1</ele>
        <time>2023-04-19T14:25:20Z</time>
      </trkpt>
      <trkpt lat="49.83766" lon="2.39276">
        <ele>29.1</ele>
        <time>2023-04-19T14:25:21Z</time>
      </trkpt>
      <trkpt lat="49.83767" lon="2.39275">
        <ele>29.1</ele>
        <time>2023-04-19T14:25:22Z</time>
      </trkpt>
      <trkpt lat="49.83769" lon="2.39273">
        <ele>29.1</ele>
        <time>2023-04-19T14:25:23Z</time>
      </trkpt>
      <trkpt lat="49.8377" lon="2.39272">
        <ele>29.1</ele>
        <time>2023-04-19T14:25:24Z</time>
      </trkpt>
      <trkpt lat="49.8377" lon="2.39271">
        <ele>29.1</ele>
        <time>2023-04-19T14:25:25Z</time>
      </trkpt>
      <trkpt lat="49.83771" lon="2.3927">
        <ele>29.1</ele>
        <time>2023-04-19T14:25:26Z</time>
      </trkpt>
      <trkpt lat="49.83772" lon="2.39269">
        <ele>29.1</ele>
        <time>2023-04-19T14:25:27Z</time>
      </trkpt>
      <trkpt lat="49.83773" lon="2.39268">
        <ele>29.1</ele>
        <time>2023-04-19T14:25:29Z</time>
      </trkpt>
      <trkpt lat="49.83773" lon="2.39268">
        <ele>29.1</ele>
        <time>2023-04-19T14:25:30Z</time>
      </trkpt>
      <trkpt lat="49.83774" lon="2.39266">
        <ele>29.1</ele>
        <time>2023-04-19T14:25:31Z</time>
      </trkpt>
      <trkpt lat="49.83775" lon="2.39265">
        <ele>29.1</ele>
        <time>2023-04-19T14:25:32Z</time>
      </trkpt>
      <trkpt lat="49.83776" lon="2.39264">
        <ele>29.1</ele>
        <time>2023-04-19T14:25:33Z</time>
      </trkpt>
      <trkpt lat="49.83778" lon="2.39261">
        <ele>29.1</ele>
        <time>2023-04-19T14:25:35Z</time>
      </trkpt>
      <trkpt lat="49.83779" lon="2.3926">
        <ele>29.1</ele>
        <time>2023-04-19T14:25:36Z</time>
      </trkpt>
      <trkpt lat="49.8378" lon="2.39259">
        <ele>29.1</ele>
        <time>2023-04-19T14:25:37Z</time>
      </trkpt>
      <trkpt lat="49.8378" lon="2.39258">
        <ele>29.1</ele>
        <time>2023-04-19T14:25:39Z</time>
      </trkpt>
      <trkpt lat="49.83781" lon="2.39257">
        <ele>29.1</ele>
        <time>2023-04-19T14:25:40Z</time>
      </trkpt>
      <trkpt lat="49.83783" lon="2.39257">
        <ele>29.1</ele>
        <time>2023-04-19T14:25:41Z</time>
      </trkpt>
      <trkpt lat="49.83783" lon="2.39258">
        <ele>29.1</ele>
        <time>2023-04-19T14:25:42Z</time>
      </trkpt>
      <trkpt lat="49.83784" lon="2.39258">
        <ele>29.1</ele>
        <time>2023-04-19T14:25:43Z</time>
      </trkpt>
      <trkpt lat="49.83785" lon="2.39259">
        <ele>29.1</ele>
        <time>2023-04-19T14:25:45Z</time>
      </trkpt>
      <trkpt lat="49.83785" lon="2.39259">
        <ele>29.1</ele>
        <time>2023-04-19T14:25:46Z</time>
      </trkpt>
      <trkpt lat="49.83785" lon="2.3926">
        <ele>29.1</ele>
        <time>2023-04-19T14:25:47Z</time>
      </trkpt>
      <trkpt lat="49.83785" lon="2.3926">
        <ele>29.1</ele>
        <time>2023-04-19T14:25:49Z</time>
      </trkpt>
      <trkpt lat="49.83785" lon="2.3926">
        <ele>29.1</ele>
        <time>2023-04-19T14:25:50Z</time>
      </trkpt>
      <trkpt lat="49.83784" lon="2.3926">
        <ele>29.1</ele>
        <time>2023-04-19T14:25:51Z</time>
      </trkpt>
      <trkpt lat="49.83784" lon="2.3926">
        <ele>29.1</ele>
        <time>2023-04-19T14:25:53Z</time>
      </trkpt>
      <trkpt lat="49.83784" lon="2.3926">
        <ele>29.1</ele>
        <time>2023-04-19T14:25:54Z</time>
      </trkpt>
      <trkpt lat="49.83784" lon="2.3926">
        <ele>29.1</ele>
        <time>2023-04-19T14:25:55Z</time>
      </trkpt>
      <trkpt lat="49.83784" lon="2.3926">
        <ele>29.1</ele>
        <time>2023-04-19T14:25:57Z</time>
      </trkpt>
      <trkpt lat="49.83784" lon="2.3926">
        <ele>29.1</ele>
        <time>2023-04-19T14:25:58Z</time>
      </trkpt>
      <trkpt lat="49.83784" lon="2.3926">
        <ele>29.1</ele>
        <time>2023-04-19T14:25:59Z</time>
      </trkpt>
      <trkpt lat="49.83784" lon="2.3926">
        <ele>29.1</ele>
        <time>2023-04-19T14:26:00Z</time>
      </trkpt>
      <trkpt lat="49.83783" lon="2.3926">
        <ele>29.1</ele>
        <time>2023-04-19T14:26:02Z</time>
      </trkpt>
      <trkpt lat="49.83782" lon="2.39259">
        <ele>29.1</ele>
        <time>2023-04-19T14:26:03Z</time>
      </trkpt>
      <trkpt lat="49.83783" lon="2.39259">
        <ele>29.1</ele>
        <time>2023-04-19T14:26:04Z</time>
      </trkpt>
      <trkpt lat="49.83784" lon="2.39259">
        <ele>29.1</ele>
        <time>2023-04-19T14:26:05Z</time>
      </trkpt>
      <trkpt lat="49.83784" lon="2.39258">
        <ele>29.1</ele>
        <time>2023-04-19T14:26:06Z</time>
      </trkpt>
      <trkpt lat="49.83785" lon="2.39258">
        <ele>29.1</ele>
        <time>2023-04-19T14:26:08Z</time>
      </trkpt>
      <trkpt lat="49.83785" lon="2.39257">
        <ele>29.1</ele>
        <time>2023-04-19T14:26:09Z</time>
      </trkpt>
      <trkpt lat="49.83785" lon="2.39256">
        <ele>29.1</ele>
        <time>2023-04-19T14:26:10Z</time>
      </trkpt>
      <trkpt lat="49.83786" lon="2.39255">
        <ele>29.1</ele>
        <time>2023-04-19T14:26:11Z</time>
      </trkpt>
      <trkpt lat="49.83787" lon="2.39254">
        <ele>29.1</ele>
        <time>2023-04-19T14:26:12Z</time>
      </trkpt>
      <trkpt lat="49.83788" lon="2.39252">
        <ele>29.1</ele>
        <time>2023-04-19T14:26:13Z</time>
      </trkpt>
      <trkpt lat="49.83788" lon="2.39251">
        <ele>29.1</ele>
        <time>2023-04-19T14:26:15Z</time>
      </trkpt>
      <trkpt lat="49.8379" lon="2.39249">
        <ele>29.1</ele>
        <time>2023-04-19T14:26:16Z</time>
      </trkpt>
      <trkpt lat="49.8379" lon="2.39249">
        <ele>29.1</ele>
        <time>2023-04-19T14:26:17Z</time>
      </trkpt>
      <trkpt lat="49.83791" lon="2.39247">
        <ele>29.1</ele>
        <time>2023-04-19T14:26:18Z</time>
      </trkpt>
      <trkpt lat="49.83792" lon="2.39246">
        <ele>29.1</ele>
        <time>2023-04-19T14:26:19Z</time>
      </trkpt>
      <trkpt lat="49.83794" lon="2.39245">
        <ele>29.1</ele>
        <time>2023-04-19T14:26:20Z</time>
      </trkpt>
      <trkpt lat="49.83796" lon="2.39243">
        <ele>29.1</ele>
        <time>2023-04-19T14:26:22Z</time>
      </trkpt>
      <trkpt lat="49.83796" lon="2.39242">
        <ele>29.1</ele>
        <time>2023-04-19T14:26:23Z</time>
      </trkpt>
      <trkpt lat="49.83797" lon="2.39241">
        <ele>29.1</ele>
        <time>2023-04-19T14:26:24Z</time>
      </trkpt>
      <trkpt lat="49.83799" lon="2.3924">
        <ele>29.1</ele>
        <time>2023-04-19T14:26:25Z</time>
      </trkpt>
      <trkpt lat="49.838" lon="2.39239">
        <ele>29.1</ele>
        <time>2023-04-19T14:26:27Z</time>
      </trkpt>
      <trkpt lat="49.83801" lon="2.39238">
        <ele>29.1</ele>
        <time>2023-04-19T14:26:28Z</time>
      </trkpt>
      <trkpt lat="49.83802" lon="2.39238">
        <ele>29.1</ele>
        <time>2023-04-19T14:26:29Z</time>
      </trkpt>
      <trkpt lat="49.83803" lon="2.39237">
        <ele>29.1</ele>
        <time>2023-04-19T14:26:30Z</time>
      </trkpt>
      <trkpt lat="49.83804" lon="2.39236">
        <ele>29.1</ele>
        <time>2023-04-19T14:26:31Z</time>
      </trkpt>
      <trkpt lat="49.83805" lon="2.39236">
        <ele>29.1</ele>
        <time>2023-04-19T14:26:32Z</time>
      </trkpt>
      <trkpt lat="49.83806" lon="2.39235">
        <ele>29.1</ele>
        <time>2023-04-19T14:26:33Z</time>
      </trkpt>
      <trkpt lat="49.83807" lon="2.39234">
        <ele>29.1</ele>
        <time>2023-04-19T14:26:34Z</time>
      </trkpt>
      <trkpt lat="49.83809" lon="2.39233">
        <ele>29.1</ele>
        <time>2023-04-19T14:26:36Z</time>
      </trkpt>
      <trkpt lat="49.8381" lon="2.39232">
        <ele>29.1</ele>
        <time>2023-04-19T14:26:37Z</time>
      </trkpt>
      <trkpt lat="49.83811" lon="2.39231">
        <ele>29.1</ele>
        <time>2023-04-19T14:26:38Z</time>
      </trkpt>
      <trkpt lat="49.83812" lon="2.3923">
        <ele>29.1</ele>
        <time>2023-04-19T14:26:39Z</time>
      </trkpt>
      <trkpt lat="49.83812" lon="2.39229">
        <ele>29.1</ele>
        <time>2023-04-19T14:26:40Z</time>
      </trkpt>
      <trkpt lat="49.83813" lon="2.39227">
        <ele>29.1</ele>
        <time>2023-04-19T14:26:41Z</time>
      </trkpt>
      <trkpt lat="49.83814" lon="2.39225">
        <ele>29.1</ele>
        <time>2023-04-19T14:26:43Z</time>
      </trkpt>
      <trkpt lat="49.83815" lon="2.39224">
        <ele>29.1</ele>
        <time>2023-04-19T14:26:44Z</time>
      </trkpt>
      <trkpt lat="49.83815" lon="2.39223">
        <ele>29.1</ele>
        <time>2023-04-19T14:26:45Z</time>
      </trkpt>
      <trkpt lat="49.83816" lon="2.39223">
        <ele>29.1</ele>
        <time>2023-04-19T14:26:46Z</time>
      </trkpt>
      <trkpt lat="49.83817" lon="2.39222">
        <ele>29.1</ele>
        <time>2023-04-19T14:26:47Z</time>
      </trkpt>
      <trkpt lat="49.83818" lon="2.39221">
        <ele>29.1</ele>
        <time>2023-04-19T14:26:48Z</time>
      </trkpt>
      <trkpt lat="49.83819" lon="2.39221">
        <ele>29.1</ele>
        <time>2023-04-19T14:26:49Z</time>
      </trkpt>
      <trkpt lat="49.8382" lon="2.3922">
        <ele>29.1</ele>
        <time>2023-04-19T14:26:50Z</time>
      </trkpt>
      <trkpt lat="49.83821" lon="2.39219">
        <ele>29.1</ele>
        <time>2023-04-19T14:26:51Z</time>
      </trkpt>
      <trkpt lat="49.83823" lon="2.39218">
        <ele>29.2</ele>
        <time>2023-04-19T14:26:53Z</time>
      </trkpt>
      <trkpt lat="49.83824" lon="2.39218">
        <ele>29.2</ele>
        <time>2023-04-19T14:26:54Z</time>
      </trkpt>
      <trkpt lat="49.83825" lon="2.39217">
        <ele>29.2</ele>
        <time>2023-04-19T14:26:55Z</time>
      </trkpt>
      <trkpt lat="49.83826" lon="2.39216">
        <ele>29.2</ele>
        <time>2023-04-19T14:26:56Z</time>
      </trkpt>
      <trkpt lat="49.83827" lon="2.39216">
        <ele>29.2</ele>
        <time>2023-04-19T14:26:57Z</time>
      </trkpt>
      <trkpt lat="49.83828" lon="2.39215">
        <ele>29.2</ele>
        <time>2023-04-19T14:26:58Z</time>
      </trkpt>
      <trkpt lat="49.83829" lon="2.39214">
        <ele>29.2</ele>
        <time>2023-04-19T14:26:59Z</time>
      </trkpt>
      <trkpt lat="49.8383" lon="2.39214">
        <ele>29.2</ele>
        <time>2023-04-19T14:27:00Z</time>
      </trkpt>
      <trkpt lat="49.83831" lon="2.39213">
        <ele>29.2</ele>
        <time>2023-04-19T14:27:02Z</time>
      </trkpt>
      <trkpt lat="49.83833" lon="2.39212">
        <ele>29.2</ele>
        <time>2023-04-19T14:27:03Z</time>
      </trkpt>
      <trkpt lat="49.83834" lon="2.39211">
        <ele>29.2</ele>
        <time>2023-04-19T14:27:04Z</time>
      </trkpt>
      <trkpt lat="49.83835" lon="2.39211">
        <ele>29.2</ele>
        <time>2023-04-19T14:27:05Z</time>
      </trkpt>
      <trkpt lat="49.83837" lon="2.39209">
        <ele>29.2</ele>
        <time>2023-04-19T14:27:06Z</time>
      </trkpt>
      <trkpt lat="49.83838" lon="2.39209">
        <ele>29.2</ele>
        <time>2023-04-19T14:27:07Z</time>
      </trkpt>
      <trkpt lat="49.83838" lon="2.39209">
        <ele>29.2</ele>
        <time>2023-04-19T14:27:08Z</time>
      </trkpt>
      <trkpt lat="49.8384" lon="2.39209">
        <ele>29.2</ele>
        <time>2023-04-19T14:27:09Z</time>
      </trkpt>
      <trkpt lat="49.83841" lon="2.39208">
        <ele>29.2</ele>
        <time>2023-04-19T14:27:10Z</time>
      </trkpt>
      <trkpt lat="49.83843" lon="2.39208">
        <ele>29.2</ele>
        <time>2023-04-19T14:27:11Z</time>
      </trkpt>
      <trkpt lat="49.83844" lon="2.39207">
        <ele>29.2</ele>
        <time>2023-04-19T14:27:13Z</time>
      </trkpt>
      <trkpt lat="49.83845" lon="2.39206">
        <ele>29.2</ele>
        <time>2023-04-19T14:27:14Z</time>
      </trkpt>
      <trkpt lat="49.83847" lon="2.39205">
        <ele>29.2</ele>
        <time>2023-04-19T14:27:15Z</time>
      </trkpt>
      <trkpt lat="49.83848" lon="2.39205">
        <ele>29.2</ele>
        <time>2023-04-19T14:27:16Z</time>
      </trkpt>
      <trkpt lat="49.83849" lon="2.39204">
        <ele>29.2</ele>
        <time>2023-04-19T14:27:17Z</time>
      </trkpt>
      <trkpt lat="49.8385" lon="2.39203">
        <ele>29.2</ele>
        <time>2023-04-19T14:27:18Z</time>
      </trkpt>
      <trkpt lat="49.83852" lon="2.39202">
        <ele>29.2</ele>
        <time>2023-04-19T14:27:19Z</time>
      </trkpt>
      <trkpt lat="49.83852" lon="2.39201">
        <ele>29.2</ele>
        <time>2023-04-19T14:27:20Z</time>
      </trkpt>
      <trkpt lat="49.83853" lon="2.392">
        <ele>29.2</ele>
        <time>2023-04-19T14:27:21Z</time>
      </trkpt>
      <trkpt lat="49.83855" lon="2.39199">
        <ele>29.2</ele>
        <time>2023-04-19T14:27:23Z</time>
      </trkpt>
      <trkpt lat="49.83856" lon="2.39198">
        <ele>29.2</ele>
        <time>2023-04-19T14:27:24Z</time>
      </trkpt>
      <trkpt lat="49.83856" lon="2.39198">
        <ele>29.2</ele>
        <time>2023-04-19T14:27:25Z</time>
      </trkpt>
      <trkpt lat="49.83858" lon="2.39197">
        <ele>29.2</ele>
        <time>2023-04-19T14:27:26Z</time>
      </trkpt>
      <trkpt lat="49.83858" lon="2.39196">
        <ele>29.2</ele>
        <time>2023-04-19T14:27:27Z</time>
      </trkpt>
      <trkpt lat="49.83859" lon="2.39195">
        <ele>29.2</ele>
        <time>2023-04-19T14:27:28Z</time>
      </trkpt>
      <trkpt lat="49.83861" lon="2.39193">
        <ele>29.2</ele>
        <time>2023-04-19T14:27:29Z</time>
      </trkpt>
      <trkpt lat="49.83862" lon="2.39192">
        <ele>29.2</ele>
        <time>2023-04-19T14:27:30Z</time>
      </trkpt>
      <trkpt lat="49.83862" lon="2.39192">
        <ele>29.2</ele>
        <time>2023-04-19T14:27:31Z</time>
      </trkpt>
      <trkpt lat="49.83864" lon="2.39191">
        <ele>29.2</ele>
        <time>2023-04-19T14:27:33Z</time>
      </trkpt>
      <trkpt lat="49.83865" lon="2.3919">
        <ele>29.2</ele>
        <time>2023-04-19T14:27:34Z</time>
      </trkpt>
      <trkpt lat="49.83866" lon="2.3919">
        <ele>29.2</ele>
        <time>2023-04-19T14:27:35Z</time>
      </trkpt>
      <trkpt lat="49.83866" lon="2.3919">
        <ele>29.2</ele>
        <time>2023-04-19T14:27:36Z</time>
      </trkpt>
      <trkpt lat="49.83868" lon="2.39189">
        <ele>29.2</ele>
        <time>2023-04-19T14:27:37Z</time>
      </trkpt>
      <trkpt lat="49.83869" lon="2.39188">
        <ele>29.2</ele>
        <time>2023-04-19T14:27:38Z</time>
      </trkpt>
      <trkpt lat="49.83871" lon="2.39187">
        <ele>29.2</ele>
        <time>2023-04-19T14:27:39Z</time>
      </trkpt>
      <trkpt lat="49.83871" lon="2.39186">
        <ele>29.2</ele>
        <time>2023-04-19T14:27:40Z</time>
      </trkpt>
      <trkpt lat="49.83872" lon="2.39186">
        <ele>29.2</ele>
        <time>2023-04-19T14:27:41Z</time>
      </trkpt>
      <trkpt lat="49.83873" lon="2.39185">
        <ele>29.2</ele>
        <time>2023-04-19T14:27:43Z</time>
      </trkpt>
      <trkpt lat="49.83874" lon="2.39184">
        <ele>29.2</ele>
        <time>2023-04-19T14:27:44Z</time>
      </trkpt>
      <trkpt lat="49.83875" lon="2.39183">
        <ele>29.2</ele>
        <time>2023-04-19T14:27:45Z</time>
      </trkpt>
      <trkpt lat="49.83876" lon="2.39182">
        <ele>29.2</ele>
        <time>2023-04-19T14:27:46Z</time>
      </trkpt>
      <trkpt lat="49.83876" lon="2.39182">
        <ele>29.2</ele>
        <time>2023-04-19T14:27:47Z</time>
      </trkpt>
      <trkpt lat="49.83877" lon="2.39181">
        <ele>29.2</ele>
        <time>2023-04-19T14:27:49Z</time>
      </trkpt>
      <trkpt lat="49.83878" lon="2.3918">
        <ele>29.2</ele>
        <time>2023-04-19T14:27:50Z</time>
      </trkpt>
      <trkpt lat="49.83879" lon="2.39179">
        <ele>29.2</ele>
        <time>2023-04-19T14:27:51Z</time>
      </trkpt>
      <trkpt lat="49.8388" lon="2.39178">
        <ele>29.2</ele>
        <time>2023-04-19T14:27:52Z</time>
      </trkpt>
      <trkpt lat="49.83881" lon="2.39177">
        <ele>29.2</ele>
        <time>2023-04-19T14:27:53Z</time>
      </trkpt>
      <trkpt lat="49.83882" lon="2.39175">
        <ele>29.2</ele>
        <time>2023-04-19T14:27:54Z</time>
      </trkpt>
      <trkpt lat="49.83883" lon="2.39174">
        <ele>29.2</ele>
        <time>2023-04-19T14:27:55Z</time>
      </trkpt>
      <trkpt lat="49.83884" lon="2.39173">
        <ele>29.2</ele>
        <time>2023-04-19T14:27:57Z</time>
      </trkpt>
      <trkpt lat="49.83884" lon="2.39172">
        <ele>29.2</ele>
        <time>2023-04-19T14:27:58Z</time>
      </trkpt>
      <trkpt lat="49.83885" lon="2.39171">
        <ele>29.2</ele>
        <time>2023-04-19T14:27:59Z</time>
      </trkpt>
      <trkpt lat="49.83887" lon="2.39169">
        <ele>29.2</ele>
        <time>2023-04-19T14:28:00Z</time>
      </trkpt>
      <trkpt lat="49.83888" lon="2.39168">
        <ele>29.2</ele>
        <time>2023-04-19T14:28:01Z</time>
      </trkpt>
      <trkpt lat="49.83888" lon="2.39168">
        <ele>29.2</ele>
        <time>2023-04-19T14:28:02Z</time>
      </trkpt>
      <trkpt lat="49.8389" lon="2.39166">
        <ele>29.2</ele>
        <time>2023-04-19T14:28:03Z</time>
      </trkpt>
      <trkpt lat="49.83891" lon="2.39165">
        <ele>29.2</ele>
        <time>2023-04-19T14:28:04Z</time>
      </trkpt>
      <trkpt lat="49.83891" lon="2.39165">
        <ele>29.2</ele>
        <time>2023-04-19T14:28:05Z</time>
      </trkpt>
      <trkpt lat="49.83893" lon="2.39163">
        <ele>29.2</ele>
        <time>2023-04-19T14:28:07Z</time>
      </trkpt>
      <trkpt lat="49.83894" lon="2.39163">
        <ele>29.2</ele>
        <time>2023-04-19T14:28:08Z</time>
      </trkpt>
      <trkpt lat="49.83896" lon="2.39162">
        <ele>29.1</ele>
        <time>2023-04-19T14:28:09Z</time>
      </trkpt>
      <trkpt lat="49.83897" lon="2.39161">
        <ele>29.1</ele>
        <time>2023-04-19T14:28:10Z</time>
      </trkpt>
      <trkpt lat="49.83898" lon="2.3916">
        <ele>29.1</ele>
        <time>2023-04-19T14:28:11Z</time>
      </trkpt>
      <trkpt lat="49.83899" lon="2.3916">
        <ele>29.1</ele>
        <time>2023-04-19T14:28:12Z</time>
      </trkpt>
      <trkpt lat="49.83901" lon="2.39159">
        <ele>29.1</ele>
        <time>2023-04-19T14:28:13Z</time>
      </trkpt>
      <trkpt lat="49.83902" lon="2.39159">
        <ele>29.1</ele>
        <time>2023-04-19T14:28:15Z</time>
      </trkpt>
      <trkpt lat="49.83903" lon="2.39158">
        <ele>29.1</ele>
        <time>2023-04-19T14:28:16Z</time>
      </trkpt>
      <trkpt lat="49.83905" lon="2.39157">
        <ele>29.1</ele>
        <time>2023-04-19T14:28:17Z</time>
      </trkpt>
      <trkpt lat="49.83906" lon="2.39156">
        <ele>29.1</ele>
        <time>2023-04-19T14:28:18Z</time>
      </trkpt>
      <trkpt lat="49.83907" lon="2.39156">
        <ele>29.1</ele>
        <time>2023-04-19T14:28:19Z</time>
      </trkpt>
      <trkpt lat="49.83908" lon="2.39155">
        <ele>29.1</ele>
        <time>2023-04-19T14:28:20Z</time>
      </trkpt>
      <trkpt lat="49.83909" lon="2.39153">
        <ele>29.1</ele>
        <time>2023-04-19T14:28:22Z</time>
      </trkpt>
      <trkpt lat="49.8391" lon="2.39152">
        <ele>29.1</ele>
        <time>2023-04-19T14:28:23Z</time>
      </trkpt>
      <trkpt lat="49.83912" lon="2.39151">
        <ele>29.1</ele>
        <time>2023-04-19T14:28:24Z</time>
      </trkpt>
      <trkpt lat="49.83913" lon="2.3915">
        <ele>29.1</ele>
        <time>2023-04-19T14:28:25Z</time>
      </trkpt>
      <trkpt lat="49.83913" lon="2.39149">
        <ele>29.1</ele>
        <time>2023-04-19T14:28:26Z</time>
      </trkpt>
      <trkpt lat="49.83915" lon="2.39147">
        <ele>29.1</ele>
        <time>2023-04-19T14:28:28Z</time>
      </trkpt>
      <trkpt lat="49.83917" lon="2.39145">
        <ele>29.1</ele>
        <time>2023-04-19T14:28:29Z</time>
      </trkpt>
      <trkpt lat="49.83917" lon="2.39145">
        <ele>29.1</ele>
        <time>2023-04-19T14:28:30Z</time>
      </trkpt>
      <trkpt lat="49.83918" lon="2.39144">
        <ele>29.1</ele>
        <time>2023-04-19T14:28:31Z</time>
      </trkpt>
      <trkpt lat="49.83918" lon="2.39143">
        <ele>29.1</ele>
        <time>2023-04-19T14:28:32Z</time>
      </trkpt>
      <trkpt lat="49.83919" lon="2.39142">
        <ele>29.1</ele>
        <time>2023-04-19T14:28:33Z</time>
      </trkpt>
      <trkpt lat="49.8392" lon="2.3914">
        <ele>29.1</ele>
        <time>2023-04-19T14:28:34Z</time>
      </trkpt>
      <trkpt lat="49.83921" lon="2.39139">
        <ele>29.1</ele>
        <time>2023-04-19T14:28:35Z</time>
      </trkpt>
      <trkpt lat="49.83922" lon="2.39137">
        <ele>29.1</ele>
        <time>2023-04-19T14:28:36Z</time>
      </trkpt>
      <trkpt lat="49.83923" lon="2.39136">
        <ele>29.1</ele>
        <time>2023-04-19T14:28:37Z</time>
      </trkpt>
      <trkpt lat="49.83924" lon="2.39135">
        <ele>29.1</ele>
        <time>2023-04-19T14:28:39Z</time>
      </trkpt>
      <trkpt lat="49.83925" lon="2.39134">
        <ele>29.1</ele>
        <time>2023-04-19T14:28:40Z</time>
      </trkpt>
      <trkpt lat="49.83927" lon="2.39132">
        <ele>29.1</ele>
        <time>2023-04-19T14:28:41Z</time>
      </trkpt>
      <trkpt lat="49.83928" lon="2.39131">
        <ele>29.1</ele>
        <time>2023-04-19T14:28:42Z</time>
      </trkpt>
      <trkpt lat="49.83928" lon="2.39131">
        <ele>29.1</ele>
        <time>2023-04-19T14:28:43Z</time>
      </trkpt>
      <trkpt lat="49.83929" lon="2.3913">
        <ele>29.1</ele>
        <time>2023-04-19T14:28:44Z</time>
      </trkpt>
      <trkpt lat="49.83931" lon="2.39129">
        <ele>29.1</ele>
        <time>2023-04-19T14:28:46Z</time>
      </trkpt>
      <trkpt lat="49.83932" lon="2.39129">
        <ele>29.1</ele>
        <time>2023-04-19T14:28:47Z</time>
      </trkpt>
      <trkpt lat="49.83933" lon="2.39128">
        <ele>29.1</ele>
        <time>2023-04-19T14:28:48Z</time>
      </trkpt>
      <trkpt lat="49.83934" lon="2.39127">
        <ele>29.1</ele>
        <time>2023-04-19T14:28:49Z</time>
      </trkpt>
      <trkpt lat="49.83935" lon="2.39125">
        <ele>29</ele>
        <time>2023-04-19T14:28:51Z</time>
      </trkpt>
      <trkpt lat="49.83936" lon="2.39124">
        <ele>29</ele>
        <time>2023-04-19T14:28:52Z</time>
      </trkpt>
      <trkpt lat="49.83937" lon="2.39123">
        <ele>29</ele>
        <time>2023-04-19T14:28:53Z</time>
      </trkpt>
      <trkpt lat="49.83938" lon="2.39122">
        <ele>29</ele>
        <time>2023-04-19T14:28:54Z</time>
      </trkpt>
      <trkpt lat="49.83939" lon="2.39121">
        <ele>29</ele>
        <time>2023-04-19T14:28:55Z</time>
      </trkpt>
      <trkpt lat="49.83939" lon="2.3912">
        <ele>29</ele>
        <time>2023-04-19T14:28:56Z</time>
      </trkpt>
      <trkpt lat="49.8394" lon="2.3912">
        <ele>29</ele>
        <time>2023-04-19T14:28:57Z</time>
      </trkpt>
      <trkpt lat="49.83941" lon="2.39119">
        <ele>29</ele>
        <time>2023-04-19T14:28:58Z</time>
      </trkpt>
      <trkpt lat="49.83942" lon="2.39118">
        <ele>29</ele>
        <time>2023-04-19T14:28:59Z</time>
      </trkpt>
      <trkpt lat="49.83943" lon="2.39117">
        <ele>29</ele>
        <time>2023-04-19T14:29:00Z</time>
      </trkpt>
      <trkpt lat="49.83944" lon="2.39116">
        <ele>29</ele>
        <time>2023-04-19T14:29:02Z</time>
      </trkpt>
      <trkpt lat="49.83945" lon="2.39115">
        <ele>29</ele>
        <time>2023-04-19T14:29:03Z</time>
      </trkpt>
      <trkpt lat="49.83947" lon="2.39114">
        <ele>29</ele>
        <time>2023-04-19T14:29:04Z</time>
      </trkpt>
      <trkpt lat="49.83948" lon="2.39113">
        <ele>29</ele>
        <time>2023-04-19T14:29:05Z</time>
      </trkpt>
      <trkpt lat="49.83949" lon="2.39113">
        <ele>29</ele>
        <time>2023-04-19T14:29:06Z</time>
      </trkpt>
      <trkpt lat="49.8395" lon="2.39112">
        <ele>29</ele>
        <time>2023-04-19T14:29:07Z</time>
      </trkpt>
      <trkpt lat="49.83951" lon="2.39111">
        <ele>29</ele>
        <time>2023-04-19T14:29:08Z</time>
      </trkpt>
      <trkpt lat="49.83953" lon="2.39109">
        <ele>29</ele>
        <time>2023-04-19T14:29:09Z</time>
      </trkpt>
      <trkpt lat="49.83954" lon="2.39109">
        <ele>29</ele>
        <time>2023-04-19T14:29:10Z</time>
      </trkpt>
      <trkpt lat="49.83955" lon="2.39108">
        <ele>29</ele>
        <time>2023-04-19T14:29:12Z</time>
      </trkpt>
      <trkpt lat="49.83955" lon="2.39108">
        <ele>29</ele>
        <time>2023-04-19T14:29:13Z</time>
      </trkpt>
      <trkpt lat="49.83956" lon="2.39107">
        <ele>29</ele>
        <time>2023-04-19T14:29:14Z</time>
      </trkpt>
      <trkpt lat="49.83957" lon="2.39106">
        <ele>29</ele>
        <time>2023-04-19T14:29:15Z</time>
      </trkpt>
      <trkpt lat="49.83958" lon="2.39106">
        <ele>29</ele>
        <time>2023-04-19T14:29:16Z</time>
      </trkpt>
      <trkpt lat="49.83959" lon="2.39105">
        <ele>29</ele>
        <time>2023-04-19T14:29:17Z</time>
      </trkpt>
      <trkpt lat="49.8396" lon="2.39104">
        <ele>29</ele>
        <time>2023-04-19T14:29:18Z</time>
      </trkpt>
      <trkpt lat="49.83961" lon="2.39103">
        <ele>29</ele>
        <time>2023-04-19T14:29:20Z</time>
      </trkpt>
      <trkpt lat="49.83962" lon="2.39102">
        <ele>29</ele>
        <time>2023-04-19T14:29:21Z</time>
      </trkpt>
      <trkpt lat="49.83962" lon="2.39101">
        <ele>29</ele>
        <time>2023-04-19T14:29:22Z</time>
      </trkpt>
      <trkpt lat="49.83964" lon="2.391">
        <ele>29</ele>
        <time>2023-04-19T14:29:23Z</time>
      </trkpt>
      <trkpt lat="49.83965" lon="2.39099">
        <ele>29</ele>
        <time>2023-04-19T14:29:24Z</time>
      </trkpt>
      <trkpt lat="49.83965" lon="2.39098">
        <ele>29</ele>
        <time>2023-04-19T14:29:25Z</time>
      </trkpt>
      <trkpt lat="49.83967" lon="2.39096">
        <ele>29</ele>
        <time>2023-04-19T14:29:26Z</time>
      </trkpt>
      <trkpt lat="49.83968" lon="2.39096">
        <ele>29</ele>
        <time>2023-04-19T14:29:27Z</time>
      </trkpt>
      <trkpt lat="49.83969" lon="2.39095">
        <ele>29</ele>
        <time>2023-04-19T14:29:28Z</time>
      </trkpt>
      <trkpt lat="49.8397" lon="2.39094">
        <ele>29</ele>
        <time>2023-04-19T14:29:29Z</time>
      </trkpt>
      <trkpt lat="49.83971" lon="2.39094">
        <ele>29</ele>
        <time>2023-04-19T14:29:31Z</time>
      </trkpt>
      <trkpt lat="49.83972" lon="2.39093">
        <ele>29</ele>
        <time>2023-04-19T14:29:32Z</time>
      </trkpt>
      <trkpt lat="49.83974" lon="2.39092">
        <ele>29</ele>
        <time>2023-04-19T14:29:33Z</time>
      </trkpt>
      <trkpt lat="49.83975" lon="2.39092">
        <ele>29</ele>
        <time>2023-04-19T14:29:34Z</time>
      </trkpt>
      <trkpt lat="49.83975" lon="2.39091">
        <ele>29</ele>
        <time>2023-04-19T14:29:35Z</time>
      </trkpt>
      <trkpt lat="49.83977" lon="2.3909">
        <ele>29</ele>
        <time>2023-04-19T14:29:36Z</time>
      </trkpt>
      <trkpt lat="49.83978" lon="2.39089">
        <ele>29</ele>
        <time>2023-04-19T14:29:37Z</time>
      </trkpt>
      <trkpt lat="49.83979" lon="2.39089">
        <ele>29</ele>
        <time>2023-04-19T14:29:38Z</time>
      </trkpt>
      <trkpt lat="49.8398" lon="2.39088">
        <ele>29</ele>
        <time>2023-04-19T14:29:39Z</time>
      </trkpt>
      <trkpt lat="49.83981" lon="2.39088">
        <ele>29</ele>
        <time>2023-04-19T14:29:41Z</time>
      </trkpt>
      <trkpt lat="49.83982" lon="2.39087">
        <ele>29</ele>
        <time>2023-04-19T14:29:42Z</time>
      </trkpt>
      <trkpt lat="49.83984" lon="2.39085">
        <ele>29</ele>
        <time>2023-04-19T14:29:43Z</time>
      </trkpt>
      <trkpt lat="49.83985" lon="2.39085">
        <ele>29</ele>
        <time>2023-04-19T14:29:44Z</time>
      </trkpt>
      <trkpt lat="49.83986" lon="2.39084">
        <ele>29</ele>
        <time>2023-04-19T14:29:45Z</time>
      </trkpt>
      <trkpt lat="49.83988" lon="2.39083">
        <ele>29</ele>
        <time>2023-04-19T14:29:46Z</time>
      </trkpt>
      <trkpt lat="49.83988" lon="2.39083">
        <ele>29</ele>
        <time>2023-04-19T14:29:47Z</time>
      </trkpt>
      <trkpt lat="49.83989" lon="2.39082">
        <ele>29</ele>
        <time>2023-04-19T14:29:48Z</time>
      </trkpt>
      <trkpt lat="49.8399" lon="2.39081">
        <ele>29</ele>
        <time>2023-04-19T14:29:50Z</time>
      </trkpt>
      <trkpt lat="49.83991" lon="2.3908">
        <ele>29</ele>
        <time>2023-04-19T14:29:51Z</time>
      </trkpt>
      <trkpt lat="49.83992" lon="2.3908">
        <ele>29</ele>
        <time>2023-04-19T14:29:52Z</time>
      </trkpt>
      <trkpt lat="49.83993" lon="2.39079">
        <ele>29</ele>
        <time>2023-04-19T14:29:53Z</time>
      </trkpt>
      <trkpt lat="49.83994" lon="2.39079">
        <ele>29</ele>
        <time>2023-04-19T14:29:54Z</time>
      </trkpt>
      <trkpt lat="49.83996" lon="2.39079">
        <ele>29</ele>
        <time>2023-04-19T14:29:55Z</time>
      </trkpt>
      <trkpt lat="49.83997" lon="2.39079">
        <ele>29</ele>
        <time>2023-04-19T14:29:56Z</time>
      </trkpt>
      <trkpt lat="49.83998" lon="2.39079">
        <ele>29</ele>
        <time>2023-04-19T14:29:58Z</time>
      </trkpt>
      <trkpt lat="49.83998" lon="2.39079">
        <ele>29</ele>
        <time>2023-04-19T14:29:59Z</time>
      </trkpt>
      <trkpt lat="49.83999" lon="2.39079">
        <ele>29</ele>
        <time>2023-04-19T14:30:00Z</time>
      </trkpt>
      <trkpt lat="49.84001" lon="2.39078">
        <ele>29</ele>
        <time>2023-04-19T14:30:01Z</time>
      </trkpt>
      <trkpt lat="49.84002" lon="2.39078">
        <ele>29</ele>
        <time>2023-04-19T14:30:02Z</time>
      </trkpt>
      <trkpt lat="49.84003" lon="2.39078">
        <ele>29</ele>
        <time>2023-04-19T14:30:03Z</time>
      </trkpt>
      <trkpt lat="49.84005" lon="2.39076">
        <ele>29</ele>
        <time>2023-04-19T14:30:04Z</time>
      </trkpt>
      <trkpt lat="49.84006" lon="2.39076">
        <ele>29</ele>
        <time>2023-04-19T14:30:05Z</time>
      </trkpt>
      <trkpt lat="49.84007" lon="2.39075">
        <ele>29</ele>
        <time>2023-04-19T14:30:07Z</time>
      </trkpt>
      <trkpt lat="49.84008" lon="2.39074">
        <ele>29</ele>
        <time>2023-04-19T14:30:08Z</time>
      </trkpt>
      <trkpt lat="49.84009" lon="2.39074">
        <ele>29</ele>
        <time>2023-04-19T14:30:09Z</time>
      </trkpt>
      <trkpt lat="49.8401" lon="2.39073">
        <ele>29</ele>
        <time>2023-04-19T14:30:10Z</time>
      </trkpt>
      <trkpt lat="49.8401" lon="2.39073">
        <ele>29</ele>
        <time>2023-04-19T14:30:11Z</time>
      </trkpt>
      <trkpt lat="49.84011" lon="2.39072">
        <ele>29</ele>
        <time>2023-04-19T14:30:12Z</time>
      </trkpt>
      <trkpt lat="49.84012" lon="2.3907">
        <ele>29</ele>
        <time>2023-04-19T14:30:13Z</time>
      </trkpt>
      <trkpt lat="49.84013" lon="2.39069">
        <ele>29</ele>
        <time>2023-04-19T14:30:14Z</time>
      </trkpt>
      <trkpt lat="49.84014" lon="2.39068">
        <ele>29</ele>
        <time>2023-04-19T14:30:16Z</time>
      </trkpt>
      <trkpt lat="49.84015" lon="2.39067">
        <ele>29</ele>
        <time>2023-04-19T14:30:17Z</time>
      </trkpt>
      <trkpt lat="49.84016" lon="2.39066">
        <ele>29</ele>
        <time>2023-04-19T14:30:18Z</time>
      </trkpt>
      <trkpt lat="49.84017" lon="2.39064">
        <ele>29</ele>
        <time>2023-04-19T14:30:19Z</time>
      </trkpt>
      <trkpt lat="49.84018" lon="2.39063">
        <ele>29</ele>
        <time>2023-04-19T14:30:20Z</time>
      </trkpt>
      <trkpt lat="49.8402" lon="2.39062">
        <ele>29</ele>
        <time>2023-04-19T14:30:22Z</time>
      </trkpt>
      <trkpt lat="49.84021" lon="2.39062">
        <ele>29</ele>
        <time>2023-04-19T14:30:23Z</time>
      </trkpt>
      <trkpt lat="49.84023" lon="2.39062">
        <ele>29</ele>
        <time>2023-04-19T14:30:24Z</time>
      </trkpt>
      <trkpt lat="49.84024" lon="2.39062">
        <ele>29</ele>
        <time>2023-04-19T14:30:25Z</time>
      </trkpt>
      <trkpt lat="49.84025" lon="2.39062">
        <ele>29</ele>
        <time>2023-04-19T14:30:26Z</time>
      </trkpt>
      <trkpt lat="49.84026" lon="2.39061">
        <ele>29</ele>
        <time>2023-04-19T14:30:27Z</time>
      </trkpt>
      <trkpt lat="49.84028" lon="2.3906">
        <ele>29</ele>
        <time>2023-04-19T14:30:28Z</time>
      </trkpt>
      <trkpt lat="49.84029" lon="2.39059">
        <ele>29</ele>
        <time>2023-04-19T14:30:30Z</time>
      </trkpt>
      <trkpt lat="49.8403" lon="2.39058">
        <ele>29</ele>
        <time>2023-04-19T14:30:31Z</time>
      </trkpt>
      <trkpt lat="49.84031" lon="2.39057">
        <ele>29</ele>
        <time>2023-04-19T14:30:32Z</time>
      </trkpt>
      <trkpt lat="49.84032" lon="2.39056">
        <ele>29</ele>
        <time>2023-04-19T14:30:33Z</time>
      </trkpt>
      <trkpt lat="49.84034" lon="2.39055">
        <ele>29</ele>
        <time>2023-04-19T14:30:34Z</time>
      </trkpt>
      <trkpt lat="49.84034" lon="2.39055">
        <ele>29</ele>
        <time>2023-04-19T14:30:36Z</time>
      </trkpt>
      <trkpt lat="49.84035" lon="2.39054">
        <ele>29</ele>
        <time>2023-04-19T14:30:37Z</time>
      </trkpt>
      <trkpt lat="49.84036" lon="2.39053">
        <ele>29</ele>
        <time>2023-04-19T14:30:38Z</time>
      </trkpt>
      <trkpt lat="49.84037" lon="2.39052">
        <ele>29</ele>
        <time>2023-04-19T14:30:39Z</time>
      </trkpt>
      <trkpt lat="49.84038" lon="2.39052">
        <ele>29</ele>
        <time>2023-04-19T14:30:40Z</time>
      </trkpt>
      <trkpt lat="49.84039" lon="2.39051">
        <ele>29</ele>
        <time>2023-04-19T14:30:41Z</time>
      </trkpt>
      <trkpt lat="49.8404" lon="2.3905">
        <ele>29</ele>
        <time>2023-04-19T14:30:42Z</time>
      </trkpt>
      <trkpt lat="49.84041" lon="2.39049">
        <ele>29</ele>
        <time>2023-04-19T14:30:44Z</time>
      </trkpt>
      <trkpt lat="49.84042" lon="2.39048">
        <ele>29</ele>
        <time>2023-04-19T14:30:45Z</time>
      </trkpt>
      <trkpt lat="49.84042" lon="2.39047">
        <ele>29</ele>
        <time>2023-04-19T14:30:46Z</time>
      </trkpt>
      <trkpt lat="49.84043" lon="2.39046">
        <ele>29</ele>
        <time>2023-04-19T14:30:47Z</time>
      </trkpt>
      <trkpt lat="49.84044" lon="2.39045">
        <ele>29</ele>
        <time>2023-04-19T14:30:48Z</time>
      </trkpt>
      <trkpt lat="49.84045" lon="2.39043">
        <ele>29</ele>
        <time>2023-04-19T14:30:49Z</time>
      </trkpt>
      <trkpt lat="49.84046" lon="2.39043">
        <ele>29</ele>
        <time>2023-04-19T14:30:50Z</time>
      </trkpt>
      <trkpt lat="49.84046" lon="2.39042">
        <ele>29</ele>
        <time>2023-04-19T14:30:51Z</time>
      </trkpt>
      <trkpt lat="49.84047" lon="2.39041">
        <ele>29</ele>
        <time>2023-04-19T14:30:52Z</time>
      </trkpt>
      <trkpt lat="49.84048" lon="2.3904">
        <ele>29</ele>
        <time>2023-04-19T14:30:53Z</time>
      </trkpt>
      <trkpt lat="49.84049" lon="2.39039">
        <ele>29</ele>
        <time>2023-04-19T14:30:54Z</time>
      </trkpt>
      <trkpt lat="49.8405" lon="2.39038">
        <ele>29</ele>
        <time>2023-04-19T14:30:56Z</time>
      </trkpt>
      <trkpt lat="49.8405" lon="2.39037">
        <ele>29</ele>
        <time>2023-04-19T14:30:57Z</time>
      </trkpt>
      <trkpt lat="49.84051" lon="2.39036">
        <ele>29</ele>
        <time>2023-04-19T14:30:58Z</time>
      </trkpt>
      <trkpt lat="49.84052" lon="2.39035">
        <ele>29</ele>
        <time>2023-04-19T14:30:59Z</time>
      </trkpt>
      <trkpt lat="49.84053" lon="2.39035">
        <ele>29</ele>
        <time>2023-04-19T14:31:00Z</time>
      </trkpt>
      <trkpt lat="49.84054" lon="2.39034">
        <ele>29.1</ele>
        <time>2023-04-19T14:31:01Z</time>
      </trkpt>
      <trkpt lat="49.84055" lon="2.39033">
        <ele>29.1</ele>
        <time>2023-04-19T14:31:02Z</time>
      </trkpt>
      <trkpt lat="49.84056" lon="2.39032">
        <ele>29.1</ele>
        <time>2023-04-19T14:31:03Z</time>
      </trkpt>
      <trkpt lat="49.84057" lon="2.39031">
        <ele>29.1</ele>
        <time>2023-04-19T14:31:05Z</time>
      </trkpt>
      <trkpt lat="49.84058" lon="2.3903">
        <ele>29.1</ele>
        <time>2023-04-19T14:31:06Z</time>
      </trkpt>
      <trkpt lat="49.84059" lon="2.39029">
        <ele>29.1</ele>
        <time>2023-04-19T14:31:07Z</time>
      </trkpt>
      <trkpt lat="49.8406" lon="2.39028">
        <ele>29.1</ele>
        <time>2023-04-19T14:31:08Z</time>
      </trkpt>
      <trkpt lat="49.84061" lon="2.39027">
        <ele>29.1</ele>
        <time>2023-04-19T14:31:09Z</time>
      </trkpt>
      <trkpt lat="49.84062" lon="2.39025">
        <ele>29.1</ele>
        <time>2023-04-19T14:31:10Z</time>
      </trkpt>
      <trkpt lat="49.84063" lon="2.39024">
        <ele>29.1</ele>
        <time>2023-04-19T14:31:11Z</time>
      </trkpt>
      <trkpt lat="49.84063" lon="2.39024">
        <ele>29.1</ele>
        <time>2023-04-19T14:31:12Z</time>
      </trkpt>
      <trkpt lat="49.84064" lon="2.39023">
        <ele>29.1</ele>
        <time>2023-04-19T14:31:13Z</time>
      </trkpt>
      <trkpt lat="49.84066" lon="2.39021">
        <ele>29.1</ele>
        <time>2023-04-19T14:31:14Z</time>
      </trkpt>
      <trkpt lat="49.84066" lon="2.3902">
        <ele>29.1</ele>
        <time>2023-04-19T14:31:16Z</time>
      </trkpt>
      <trkpt lat="49.84067" lon="2.39019">
        <ele>29.1</ele>
        <time>2023-04-19T14:31:17Z</time>
      </trkpt>
      <trkpt lat="49.84068" lon="2.39018">
        <ele>29.1</ele>
        <time>2023-04-19T14:31:18Z</time>
      </trkpt>
      <trkpt lat="49.84069" lon="2.39017">
        <ele>29.1</ele>
        <time>2023-04-19T14:31:19Z</time>
      </trkpt>
      <trkpt lat="49.8407" lon="2.39016">
        <ele>29.1</ele>
        <time>2023-04-19T14:31:20Z</time>
      </trkpt>
      <trkpt lat="49.84071" lon="2.39015">
        <ele>29.1</ele>
        <time>2023-04-19T14:31:21Z</time>
      </trkpt>
      <trkpt lat="49.84073" lon="2.39014">
        <ele>29.1</ele>
        <time>2023-04-19T14:31:23Z</time>
      </trkpt>
      <trkpt lat="49.84074" lon="2.39014">
        <ele>29.1</ele>
        <time>2023-04-19T14:31:24Z</time>
      </trkpt>
      <trkpt lat="49.84075" lon="2.39013">
        <ele>29.1</ele>
        <time>2023-04-19T14:31:25Z</time>
      </trkpt>
      <trkpt lat="49.84076" lon="2.39012">
        <ele>29.1</ele>
        <time>2023-04-19T14:31:26Z</time>
      </trkpt>
      <trkpt lat="49.84077" lon="2.39011">
        <ele>29.1</ele>
        <time>2023-04-19T14:31:27Z</time>
      </trkpt>
      <trkpt lat="49.84078" lon="2.3901">
        <ele>29.1</ele>
        <time>2023-04-19T14:31:28Z</time>
      </trkpt>
      <trkpt lat="49.8408" lon="2.39009">
        <ele>29.1</ele>
        <time>2023-04-19T14:31:30Z</time>
      </trkpt>
      <trkpt lat="49.8408" lon="2.39008">
        <ele>29.1</ele>
        <time>2023-04-19T14:31:31Z</time>
      </trkpt>
      <trkpt lat="49.84081" lon="2.39008">
        <ele>29.1</ele>
        <time>2023-04-19T14:31:32Z</time>
      </trkpt>
      <trkpt lat="49.84082" lon="2.39007">
        <ele>29.1</ele>
        <time>2023-04-19T14:31:33Z</time>
      </trkpt>
      <trkpt lat="49.84084" lon="2.39006">
        <ele>29.1</ele>
        <time>2023-04-19T14:31:34Z</time>
      </trkpt>
      <trkpt lat="49.84085" lon="2.39006">
        <ele>29.1</ele>
        <time>2023-04-19T14:31:35Z</time>
      </trkpt>
      <trkpt lat="49.84086" lon="2.39005">
        <ele>29.1</ele>
        <time>2023-04-19T14:31:36Z</time>
      </trkpt>
      <trkpt lat="49.84087" lon="2.39005">
        <ele>29.1</ele>
        <time>2023-04-19T14:31:38Z</time>
      </trkpt>
      <trkpt lat="49.84089" lon="2.39005">
        <ele>29.1</ele>
        <time>2023-04-19T14:31:39Z</time>
      </trkpt>
      <trkpt lat="49.8409" lon="2.39005">
        <ele>29.1</ele>
        <time>2023-04-19T14:31:40Z</time>
      </trkpt>
      <trkpt lat="49.8409" lon="2.39005">
        <ele>29.2</ele>
        <time>2023-04-19T14:31:41Z</time>
      </trkpt>
      <trkpt lat="49.84092" lon="2.39004">
        <ele>29.2</ele>
        <time>2023-04-19T14:31:42Z</time>
      </trkpt>
      <trkpt lat="49.84093" lon="2.39004">
        <ele>29.2</ele>
        <time>2023-04-19T14:31:44Z</time>
      </trkpt>
      <trkpt lat="49.84094" lon="2.39003">
        <ele>29.2</ele>
        <time>2023-04-19T14:31:45Z</time>
      </trkpt>
      <trkpt lat="49.84095" lon="2.39003">
        <ele>29.2</ele>
        <time>2023-04-19T14:31:46Z</time>
      </trkpt>
      <trkpt lat="49.84096" lon="2.39002">
        <ele>29.2</ele>
        <time>2023-04-19T14:31:47Z</time>
      </trkpt>
      <trkpt lat="49.84097" lon="2.39002">
        <ele>29.2</ele>
        <time>2023-04-19T14:31:48Z</time>
      </trkpt>
      <trkpt lat="49.84098" lon="2.39002">
        <ele>29.2</ele>
        <time>2023-04-19T14:31:49Z</time>
      </trkpt>
      <trkpt lat="49.84099" lon="2.39002">
        <ele>29.1</ele>
        <time>2023-04-19T14:31:50Z</time>
      </trkpt>
      <trkpt lat="49.841" lon="2.39001">
        <ele>29.1</ele>
        <time>2023-04-19T14:31:51Z</time>
      </trkpt>
      <trkpt lat="49.84102" lon="2.39002">
        <ele>29</ele>
        <time>2023-04-19T14:31:53Z</time>
      </trkpt>
      <trkpt lat="49.84103" lon="2.39003">
        <ele>29</ele>
        <time>2023-04-19T14:31:55Z</time>
      </trkpt>
      <trkpt lat="49.84103" lon="2.39002">
        <ele>29</ele>
        <time>2023-04-19T14:31:56Z</time>
      </trkpt>
      <trkpt lat="49.84103" lon="2.39001">
        <ele>29</ele>
        <time>2023-04-19T14:31:57Z</time>
      </trkpt>
      <trkpt lat="49.84104" lon="2.39001">
        <ele>29</ele>
        <time>2023-04-19T14:31:59Z</time>
      </trkpt>
      <trkpt lat="49.84104" lon="2.39001">
        <ele>29</ele>
        <time>2023-04-19T14:32:00Z</time>
      </trkpt>
      <trkpt lat="49.84104" lon="2.39">
        <ele>29</ele>
        <time>2023-04-19T14:32:02Z</time>
      </trkpt>
      <trkpt lat="49.84104" lon="2.39">
        <ele>29</ele>
        <time>2023-04-19T14:32:03Z</time>
      </trkpt>
      <trkpt lat="49.84103" lon="2.38999">
        <ele>29</ele>
        <time>2023-04-19T14:32:05Z</time>
      </trkpt>
      <trkpt lat="49.84103" lon="2.38999">
        <ele>29</ele>
        <time>2023-04-19T14:32:06Z</time>
      </trkpt>
      <trkpt lat="49.84103" lon="2.38999">
        <ele>29</ele>
        <time>2023-04-19T14:32:07Z</time>
      </trkpt>
      <trkpt lat="49.84102" lon="2.38999">
        <ele>29</ele>
        <time>2023-04-19T14:32:09Z</time>
      </trkpt>
      <trkpt lat="49.84102" lon="2.38999">
        <ele>29</ele>
        <time>2023-04-19T14:32:10Z</time>
      </trkpt>
      <trkpt lat="49.84102" lon="2.38999">
        <ele>29</ele>
        <time>2023-04-19T14:32:12Z</time>
      </trkpt>
      <trkpt lat="49.84102" lon="2.39">
        <ele>29</ele>
        <time>2023-04-19T14:32:13Z</time>
      </trkpt>
      <trkpt lat="49.84102" lon="2.39">
        <ele>29</ele>
        <time>2023-04-19T14:32:14Z</time>
      </trkpt>
      <trkpt lat="49.84101" lon="2.39">
        <ele>29</ele>
        <time>2023-04-19T14:32:15Z</time>
      </trkpt>
      <trkpt lat="49.84101" lon="2.39">
        <ele>29</ele>
        <time>2023-04-19T14:32:16Z</time>
      </trkpt>
      <trkpt lat="49.84101" lon="2.39">
        <ele>29</ele>
        <time>2023-04-19T14:32:17Z</time>
      </trkpt>
      <trkpt lat="49.84101" lon="2.39001">
        <ele>29</ele>
        <time>2023-04-19T14:32:18Z</time>
      </trkpt>
      <trkpt lat="49.84101" lon="2.39001">
        <ele>29</ele>
        <time>2023-04-19T14:32:19Z</time>
      </trkpt>
      <trkpt lat="49.84101" lon="2.39001">
        <ele>29</ele>
        <time>2023-04-19T14:32:20Z</time>
      </trkpt>
      <trkpt lat="49.841" lon="2.39001">
        <ele>29</ele>
        <time>2023-04-19T14:32:21Z</time>
      </trkpt>
      <trkpt lat="49.841" lon="2.39001">
        <ele>29</ele>
        <time>2023-04-19T14:32:22Z</time>
      </trkpt>
      <trkpt lat="49.841" lon="2.39001">
        <ele>29</ele>
        <time>2023-04-19T14:32:23Z</time>
      </trkpt>
      <trkpt lat="49.841" lon="2.39001">
        <ele>29</ele>
        <time>2023-04-19T14:32:24Z</time>
      </trkpt>
      <trkpt lat="49.841" lon="2.39001">
        <ele>29</ele>
        <time>2023-04-19T14:32:25Z</time>
      </trkpt>
      <trkpt lat="49.84099" lon="2.39001">
        <ele>29</ele>
        <time>2023-04-19T14:32:26Z</time>
      </trkpt>
      <trkpt lat="49.84099" lon="2.39001">
        <ele>29</ele>
        <time>2023-04-19T14:32:27Z</time>
      </trkpt>
      <trkpt lat="49.84099" lon="2.39001">
        <ele>29</ele>
        <time>2023-04-19T14:32:28Z</time>
      </trkpt>
      <trkpt lat="49.84099" lon="2.39001">
        <ele>29</ele>
        <time>2023-04-19T14:32:29Z</time>
      </trkpt>
      <trkpt lat="49.84099" lon="2.39001">
        <ele>29</ele>
        <time>2023-04-19T14:32:30Z</time>
      </trkpt>
      <trkpt lat="49.84098" lon="2.39001">
        <ele>29</ele>
        <time>2023-04-19T14:32:31Z</time>
      </trkpt>
      <trkpt lat="49.84098" lon="2.39002">
        <ele>29</ele>
        <time>2023-04-19T14:32:32Z</time>
      </trkpt>
      <trkpt lat="49.84098" lon="2.39002">
        <ele>29</ele>
        <time>2023-04-19T14:32:33Z</time>
      </trkpt>
      <trkpt lat="49.84098" lon="2.39002">
        <ele>29</ele>
        <time>2023-04-19T14:32:34Z</time>
      </trkpt>
      <trkpt lat="49.84098" lon="2.39002">
        <ele>29</ele>
        <time>2023-04-19T14:32:35Z</time>
      </trkpt>
      <trkpt lat="49.84097" lon="2.39002">
        <ele>29</ele>
        <time>2023-04-19T14:32:36Z</time>
      </trkpt>
      <trkpt lat="49.84097" lon="2.39002">
        <ele>29</ele>
        <time>2023-04-19T14:32:37Z</time>
      </trkpt>
      <trkpt lat="49.84097" lon="2.39002">
        <ele>29</ele>
        <time>2023-04-19T14:32:38Z</time>
      </trkpt>
      <trkpt lat="49.84097" lon="2.39002">
        <ele>29</ele>
        <time>2023-04-19T14:32:39Z</time>
      </trkpt>
      <trkpt lat="49.84097" lon="2.39002">
        <ele>29</ele>
        <time>2023-04-19T14:32:40Z</time>
      </trkpt>
      <trkpt lat="49.84097" lon="2.39002">
        <ele>29</ele>
        <time>2023-04-19T14:32:41Z</time>
      </trkpt>
      <trkpt lat="49.84097" lon="2.39002">
        <ele>29</ele>
        <time>2023-04-19T14:32:42Z</time>
      </trkpt>
      <trkpt lat="49.84097" lon="2.39002">
        <ele>29</ele>
        <time>2023-04-19T14:32:43Z</time>
      </trkpt>
      <trkpt lat="49.84097" lon="2.39002">
        <ele>29</ele>
        <time>2023-04-19T14:32:44Z</time>
      </trkpt>
      <trkpt lat="49.84097" lon="2.39002">
        <ele>29</ele>
        <time>2023-04-19T14:32:45Z</time>
      </trkpt>
      <trkpt lat="49.84097" lon="2.39002">
        <ele>29</ele>
        <time>2023-04-19T14:32:46Z</time>
      </trkpt>
      <trkpt lat="49.84097" lon="2.39002">
        <ele>28.9</ele>
        <time>2023-04-19T14:32:47Z</time>
      </trkpt>
      <trkpt lat="49.84097" lon="2.39002">
        <ele>28.9</ele>
        <time>2023-04-19T14:32:48Z</time>
      </trkpt>
      <trkpt lat="49.84097" lon="2.39002">
        <ele>28.9</ele>
        <time>2023-04-19T14:32:49Z</time>
      </trkpt>
      <trkpt lat="49.84097" lon="2.39002">
        <ele>28.9</ele>
        <time>2023-04-19T14:32:50Z</time>
      </trkpt>
      <trkpt lat="49.84097" lon="2.39002">
        <ele>28.9</ele>
        <time>2023-04-19T14:32:51Z</time>
      </trkpt>
      <trkpt lat="49.84097" lon="2.39003">
        <ele>28.9</ele>
        <time>2023-04-19T14:32:52Z</time>
      </trkpt>
      <trkpt lat="49.84097" lon="2.39003">
        <ele>28.9</ele>
        <time>2023-04-19T14:32:53Z</time>
      </trkpt>
      <trkpt lat="49.84097" lon="2.39003">
        <ele>28.9</ele>
        <time>2023-04-19T14:32:54Z</time>
      </trkpt>
      <trkpt lat="49.84097" lon="2.39003">
        <ele>28.9</ele>
        <time>2023-04-19T14:32:55Z</time>
      </trkpt>
      <trkpt lat="49.84097" lon="2.39003">
        <ele>28.9</ele>
        <time>2023-04-19T14:32:56Z</time>
      </trkpt>
      <trkpt lat="49.84097" lon="2.39003">
        <ele>28.9</ele>
        <time>2023-04-19T14:32:57Z</time>
      </trkpt>
      <trkpt lat="49.84097" lon="2.39003">
        <ele>28.9</ele>
        <time>2023-04-19T14:32:58Z</time>
      </trkpt>
      <trkpt lat="49.84097" lon="2.39003">
        <ele>28.9</ele>
        <time>2023-04-19T14:32:59Z</time>
      </trkpt>
      <trkpt lat="49.84097" lon="2.39003">
        <ele>28.9</ele>
        <time>2023-04-19T14:33:00Z</time>
      </trkpt>
      <trkpt lat="49.84097" lon="2.39003">
        <ele>28.9</ele>
        <time>2023-04-19T14:33:01Z</time>
      </trkpt>
      <trkpt lat="49.84097" lon="2.39003">
        <ele>28.9</ele>
        <time>2023-04-19T14:33:02Z</time>
      </trkpt>
      <trkpt lat="49.84097" lon="2.39003">
        <ele>28.9</ele>
        <time>2023-04-19T14:33:03Z</time>
      </trkpt>
      <trkpt lat="49.84097" lon="2.39003">
        <ele>28.9</ele>
        <time>2023-04-19T14:33:04Z</time>
      </trkpt>
      <trkpt lat="49.84097" lon="2.39003">
        <ele>28.9</ele>
        <time>2023-04-19T14:33:05Z</time>
      </trkpt>
      <trkpt lat="49.84097" lon="2.39003">
        <ele>28.9</ele>
        <time>2023-04-19T14:33:06Z</time>
      </trkpt>
      <trkpt lat="49.84097" lon="2.39003">
        <ele>28.9</ele>
        <time>2023-04-19T14:33:07Z</time>
      </trkpt>
      <trkpt lat="49.84097" lon="2.39003">
        <ele>28.9</ele>
        <time>2023-04-19T14:33:08Z</time>
      </trkpt>
      <trkpt lat="49.84097" lon="2.39003">
        <ele>28.9</ele>
        <time>2023-04-19T14:33:09Z</time>
      </trkpt>
      <trkpt lat="49.84097" lon="2.39003">
        <ele>28.9</ele>
        <time>2023-04-19T14:33:10Z</time>
      </trkpt>
      <trkpt lat="49.84097" lon="2.39003">
        <ele>28.9</ele>
        <time>2023-04-19T14:33:11Z</time>
      </trkpt>
      <trkpt lat="49.84097" lon="2.39003">
        <ele>28.9</ele>
        <time>2023-04-19T14:33:12Z</time>
      </trkpt>
      <trkpt lat="49.84097" lon="2.39003">
        <ele>28.9</ele>
        <time>2023-04-19T14:33:13Z</time>
      </trkpt>
      <trkpt lat="49.84097" lon="2.39003">
        <ele>28.9</ele>
        <time>2023-04-19T14:33:14Z</time>
      </trkpt>
      <trkpt lat="49.84097" lon="2.39003">
        <ele>28.9</ele>
        <time>2023-04-19T14:33:15Z</time>
      </trkpt>
      <trkpt lat="49.84097" lon="2.39003">
        <ele>28.9</ele>
        <time>2023-04-19T14:33:16Z</time>
      </trkpt>
      <trkpt lat="49.84097" lon="2.39003">
        <ele>28.9</ele>
        <time>2023-04-19T14:33:17Z</time>
      </trkpt>
      <trkpt lat="49.84097" lon="2.39003">
        <ele>28.9</ele>
        <time>2023-04-19T14:33:18Z</time>
      </trkpt>
      <trkpt lat="49.84097" lon="2.39003">
        <ele>28.9</ele>
        <time>2023-04-19T14:33:19Z</time>
      </trkpt>
      <trkpt lat="49.84097" lon="2.39003">
        <ele>28.9</ele>
        <time>2023-04-19T14:33:20Z</time>
      </trkpt>
      <trkpt lat="49.84097" lon="2.39003">
        <ele>28.9</ele>
        <time>2023-04-19T14:33:21Z</time>
      </trkpt>
      <trkpt lat="49.84097" lon="2.39002">
        <ele>28.9</ele>
        <time>2023-04-19T14:33:22Z</time>
      </trkpt>
      <trkpt lat="49.84097" lon="2.39002">
        <ele>28.9</ele>
        <time>2023-04-19T14:33:23Z</time>
      </trkpt>
      <trkpt lat="49.84097" lon="2.39003">
        <ele>28.9</ele>
        <time>2023-04-19T14:33:24Z</time>
      </trkpt>
      <trkpt lat="49.84097" lon="2.39003">
        <ele>28.9</ele>
        <time>2023-04-19T14:33:25Z</time>
      </trkpt>
      <trkpt lat="49.84097" lon="2.39003">
        <ele>28.9</ele>
        <time>2023-04-19T14:33:26Z</time>
      </trkpt>
      <trkpt lat="49.84097" lon="2.39003">
        <ele>28.9</ele>
        <time>2023-04-19T14:33:27Z</time>
      </trkpt>
      <trkpt lat="49.84097" lon="2.39003">
        <ele>28.9</ele>
        <time>2023-04-19T14:33:28Z</time>
      </trkpt>
      <trkpt lat="49.84097" lon="2.39003">
        <ele>28.9</ele>
        <time>2023-04-19T14:33:29Z</time>
      </trkpt>
      <trkpt lat="49.84097" lon="2.39003">
        <ele>28.9</ele>
        <time>2023-04-19T14:33:30Z</time>
      </trkpt>
      <trkpt lat="49.84097" lon="2.39003">
        <ele>28.9</ele>
        <time>2023-04-19T14:33:31Z</time>
      </trkpt>
      <trkpt lat="49.84097" lon="2.39002">
        <ele>28.9</ele>
        <time>2023-04-19T14:33:32Z</time>
      </trkpt>
      <trkpt lat="49.84097" lon="2.39002">
        <ele>28.9</ele>
        <time>2023-04-19T14:33:33Z</time>
      </trkpt>
      <trkpt lat="49.84097" lon="2.39002">
        <ele>28.9</ele>
        <time>2023-04-19T14:33:34Z</time>
      </trkpt>
      <trkpt lat="49.84097" lon="2.39002">
        <ele>28.9</ele>
        <time>2023-04-19T14:33:35Z</time>
      </trkpt>
      <trkpt lat="49.84097" lon="2.39002">
        <ele>28.9</ele>
        <time>2023-04-19T14:33:36Z</time>
      </trkpt>
      <trkpt lat="49.84097" lon="2.39002">
        <ele>28.9</ele>
        <time>2023-04-19T14:33:37Z</time>
      </trkpt>
      <trkpt lat="49.84097" lon="2.39002">
        <ele>28.9</ele>
        <time>2023-04-19T14:33:38Z</time>
      </trkpt>
      <trkpt lat="49.84097" lon="2.39002">
        <ele>28.9</ele>
        <time>2023-04-19T14:33:39Z</time>
      </trkpt>
      <trkpt lat="49.84097" lon="2.39002">
        <ele>28.9</ele>
        <time>2023-04-19T14:33:40Z</time>
      </trkpt>
      <trkpt lat="49.84097" lon="2.39002">
        <ele>28.9</ele>
        <time>2023-04-19T14:33:41Z</time>
      </trkpt>
      <trkpt lat="49.84097" lon="2.39002">
        <ele>28.9</ele>
        <time>2023-04-19T14:33:42Z</time>
      </trkpt>
      <trkpt lat="49.84097" lon="2.39002">
        <ele>28.9</ele>
        <time>2023-04-19T14:33:43Z</time>
      </trkpt>
      <trkpt lat="49.84097" lon="2.39002">
        <ele>28.9</ele>
        <time>2023-04-19T14:33:44Z</time>
      </trkpt>
      <trkpt lat="49.84097" lon="2.39002">
        <ele>28.9</ele>
        <time>2023-04-19T14:33:45Z</time>
      </trkpt>
      <trkpt lat="49.84097" lon="2.39002">
        <ele>28.9</ele>
        <time>2023-04-19T14:33:46Z</time>
      </trkpt>
      <trkpt lat="49.84097" lon="2.39002">
        <ele>28.9</ele>
        <time>2023-04-19T14:33:47Z</time>
      </trkpt>
      <trkpt lat="49.84097" lon="2.39002">
        <ele>28.9</ele>
        <time>2023-04-19T14:33:48Z</time>
      </trkpt>
      <trkpt lat="49.84097" lon="2.39002">
        <ele>28.9</ele>
        <time>2023-04-19T14:33:49Z</time>
      </trkpt>
      <trkpt lat="49.84097" lon="2.39002">
        <ele>28.9</ele>
        <time>2023-04-19T14:33:50Z</time>
      </trkpt>
      <trkpt lat="49.84097" lon="2.39002">
        <ele>28.9</ele>
        <time>2023-04-19T14:33:51Z</time>
      </trkpt>
      <trkpt lat="49.84097" lon="2.39002">
        <ele>28.9</ele>
        <time>2023-04-19T14:33:52Z</time>
      </trkpt>
      <trkpt lat="49.84097" lon="2.39002">
        <ele>28.9</ele>
        <time>2023-04-19T14:33:53Z</time>
      </trkpt>
      <trkpt lat="49.84097" lon="2.39002">
        <ele>28.9</ele>
        <time>2023-04-19T14:33:54Z</time>
      </trkpt>
      <trkpt lat="49.84097" lon="2.39002">
        <ele>28.9</ele>
        <time>2023-04-19T14:33:55Z</time>
      </trkpt>
      <trkpt lat="49.84097" lon="2.39002">
        <ele>28.9</ele>
        <time>2023-04-19T14:33:56Z</time>
      </trkpt>
      <trkpt lat="49.84097" lon="2.39002">
        <ele>28.9</ele>
        <time>2023-04-19T14:33:57Z</time>
      </trkpt>
      <trkpt lat="49.84097" lon="2.39002">
        <ele>28.9</ele>
        <time>2023-04-19T14:33:58Z</time>
      </trkpt>
      <trkpt lat="49.84097" lon="2.39002">
        <ele>28.9</ele>
        <time>2023-04-19T14:33:59Z</time>
      </trkpt>
      <trkpt lat="49.84097" lon="2.39002">
        <ele>28.9</ele>
        <time>2023-04-19T14:34:00Z</time>
      </trkpt>
      <trkpt lat="49.84097" lon="2.39002">
        <ele>28.9</ele>
        <time>2023-04-19T14:34:01Z</time>
      </trkpt>
      <trkpt lat="49.84097" lon="2.39002">
        <ele>28.9</ele>
        <time>2023-04-19T14:34:02Z</time>
      </trkpt>
      <trkpt lat="49.84097" lon="2.39002">
        <ele>28.9</ele>
        <time>2023-04-19T14:34:03Z</time>
      </trkpt>
      <trkpt lat="49.84097" lon="2.39002">
        <ele>28.9</ele>
        <time>2023-04-19T14:34:04Z</time>
      </trkpt>
      <trkpt lat="49.84097" lon="2.39002">
        <ele>28.9</ele>
        <time>2023-04-19T14:34:05Z</time>
      </trkpt>
      <trkpt lat="49.84097" lon="2.39002">
        <ele>28.9</ele>
        <time>2023-04-19T14:34:06Z</time>
      </trkpt>
      <trkpt lat="49.84097" lon="2.39002">
        <ele>28.9</ele>
        <time>2023-04-19T14:34:07Z</time>
      </trkpt>
      <trkpt lat="49.84097" lon="2.39002">
        <ele>28.9</ele>
        <time>2023-04-19T14:34:08Z</time>
      </trkpt>
      <trkpt lat="49.84097" lon="2.39002">
        <ele>28.9</ele>
        <time>2023-04-19T14:34:09Z</time>
      </trkpt>
      <trkpt lat="49.84097" lon="2.39002">
        <ele>28.9</ele>
        <time>2023-04-19T14:34:10Z</time>
      </trkpt>
      <trkpt lat="49.84097" lon="2.39002">
        <ele>28.9</ele>
        <time>2023-04-19T14:34:11Z</time>
      </trkpt>
      <trkpt lat="49.84097" lon="2.39002">
        <ele>28.9</ele>
        <time>2023-04-19T14:34:12Z</time>
      </trkpt>
      <trkpt lat="49.84097" lon="2.39002">
        <ele>28.9</ele>
        <time>2023-04-19T14:34:13Z</time>
      </trkpt>
      <trkpt lat="49.84097" lon="2.39002">
        <ele>28.9</ele>
        <time>2023-04-19T14:34:14Z</time>
      </trkpt>
      <trkpt lat="49.84098" lon="2.39001">
        <ele>28.9</ele>
        <time>2023-04-19T14:34:15Z</time>
      </trkpt>
      <trkpt lat="49.84098" lon="2.39">
        <ele>28.9</ele>
        <time>2023-04-19T14:34:16Z</time>
      </trkpt>
      <trkpt lat="49.84098" lon="2.39">
        <ele>28.9</ele>
        <time>2023-04-19T14:34:17Z</time>
      </trkpt>
      <trkpt lat="49.84097" lon="2.39">
        <ele>28.9</ele>
        <time>2023-04-19T14:34:18Z</time>
      </trkpt>
      <trkpt lat="49.84097" lon="2.38999">
        <ele>28.9</ele>
        <time>2023-04-19T14:34:19Z</time>
      </trkpt>
      <trkpt lat="49.84097" lon="2.38999">
        <ele>28.9</ele>
        <time>2023-04-19T14:34:20Z</time>
      </trkpt>
      <trkpt lat="49.84097" lon="2.38999">
        <ele>28.9</ele>
        <time>2023-04-19T14:34:21Z</time>
      </trkpt>
      <trkpt lat="49.84097" lon="2.38999">
        <ele>28.9</ele>
        <time>2023-04-19T14:34:22Z</time>
      </trkpt>
      <trkpt lat="49.84097" lon="2.38999">
        <ele>28.9</ele>
        <time>2023-04-19T14:34:23Z</time>
      </trkpt>
      <trkpt lat="49.84097" lon="2.38999">
        <ele>28.9</ele>
        <time>2023-04-19T14:34:24Z</time>
      </trkpt>
      <trkpt lat="49.84097" lon="2.38999">
        <ele>28.9</ele>
        <time>2023-04-19T14:34:25Z</time>
      </trkpt>
      <trkpt lat="49.84097" lon="2.38999">
        <ele>28.9</ele>
        <time>2023-04-19T14:34:26Z</time>
      </trkpt>
      <trkpt lat="49.84097" lon="2.38999">
        <ele>28.9</ele>
        <time>2023-04-19T14:34:27Z</time>
      </trkpt>
      <trkpt lat="49.84097" lon="2.38999">
        <ele>28.9</ele>
        <time>2023-04-19T14:34:28Z</time>
      </trkpt>
      <trkpt lat="49.84097" lon="2.38999">
        <ele>28.9</ele>
        <time>2023-04-19T14:34:29Z</time>
      </trkpt>
      <trkpt lat="49.84097" lon="2.38999">
        <ele>28.9</ele>
        <time>2023-04-19T14:34:30Z</time>
      </trkpt>
      <trkpt lat="49.84097" lon="2.38999">
        <ele>28.9</ele>
        <time>2023-04-19T14:34:31Z</time>
      </trkpt>
      <trkpt lat="49.84097" lon="2.38999">
        <ele>28.9</ele>
        <time>2023-04-19T14:34:32Z</time>
      </trkpt>
      <trkpt lat="49.84097" lon="2.38999">
        <ele>28.9</ele>
        <time>2023-04-19T14:34:33Z</time>
      </trkpt>
      <trkpt lat="49.84097" lon="2.38999">
        <ele>28.9</ele>
        <time>2023-04-19T14:34:34Z</time>
      </trkpt>
      <trkpt lat="49.84097" lon="2.38999">
        <ele>28.9</ele>
        <time>2023-04-19T14:34:35Z</time>
      </trkpt>
      <trkpt lat="49.84097" lon="2.38999">
        <ele>28.9</ele>
        <time>2023-04-19T14:34:36Z</time>
      </trkpt>
      <trkpt lat="49.84097" lon="2.38999">
        <ele>28.9</ele>
        <time>2023-04-19T14:34:37Z</time>
      </trkpt>
      <trkpt lat="49.84097" lon="2.38999">
        <ele>28.9</ele>
        <time>2023-04-19T14:34:38Z</time>
      </trkpt>
      <trkpt lat="49.84097" lon="2.38999">
        <ele>28.9</ele>
        <time>2023-04-19T14:34:39Z</time>
      </trkpt>
      <trkpt lat="49.84097" lon="2.38999">
        <ele>28.9</ele>
        <time>2023-04-19T14:34:40Z</time>
      </trkpt>
      <trkpt lat="49.84097" lon="2.38999">
        <ele>28.9</ele>
        <time>2023-04-19T14:34:41Z</time>
      </trkpt>
      <trkpt lat="49.84097" lon="2.38999">
        <ele>28.9</ele>
        <time>2023-04-19T14:34:42Z</time>
      </trkpt>
      <trkpt lat="49.84097" lon="2.38999">
        <ele>28.9</ele>
        <time>2023-04-19T14:34:43Z</time>
      </trkpt>
      <trkpt lat="49.84097" lon="2.38999">
        <ele>28.9</ele>
        <time>2023-04-19T14:34:44Z</time>
      </trkpt>
      <trkpt lat="49.84097" lon="2.38999">
        <ele>28.9</ele>
        <time>2023-04-19T14:34:45Z</time>
      </trkpt>
      <trkpt lat="49.84097" lon="2.38999">
        <ele>28.9</ele>
        <time>2023-04-19T14:34:46Z</time>
      </trkpt>
      <trkpt lat="49.84097" lon="2.38999">
        <ele>28.9</ele>
        <time>2023-04-19T14:34:47Z</time>
      </trkpt>
      <trkpt lat="49.84097" lon="2.38999">
        <ele>28.9</ele>
        <time>2023-04-19T14:34:48Z</time>
      </trkpt>
      <trkpt lat="49.84097" lon="2.38999">
        <ele>28.9</ele>
        <time>2023-04-19T14:34:49Z</time>
      </trkpt>
      <trkpt lat="49.84097" lon="2.38999">
        <ele>28.9</ele>
        <time>2023-04-19T14:34:50Z</time>
      </trkpt>
      <trkpt lat="49.84097" lon="2.38999">
        <ele>28.9</ele>
        <time>2023-04-19T14:34:51Z</time>
      </trkpt>
      <trkpt lat="49.84097" lon="2.38999">
        <ele>28.9</ele>
        <time>2023-04-19T14:34:52Z</time>
      </trkpt>
      <trkpt lat="49.84097" lon="2.38999">
        <ele>28.9</ele>
        <time>2023-04-19T14:34:53Z</time>
      </trkpt>
      <trkpt lat="49.84097" lon="2.38999">
        <ele>28.9</ele>
        <time>2023-04-19T14:34:54Z</time>
      </trkpt>
      <trkpt lat="49.84097" lon="2.38999">
        <ele>28.9</ele>
        <time>2023-04-19T14:34:55Z</time>
      </trkpt>
      <trkpt lat="49.84097" lon="2.38999">
        <ele>28.9</ele>
        <time>2023-04-19T14:34:56Z</time>
      </trkpt>
      <trkpt lat="49.84097" lon="2.38999">
        <ele>28.9</ele>
        <time>2023-04-19T14:34:57Z</time>
      </trkpt>
      <trkpt lat="49.84097" lon="2.38999">
        <ele>28.9</ele>
        <time>2023-04-19T14:34:58Z</time>
      </trkpt>
      <trkpt lat="49.84097" lon="2.38999">
        <ele>28.9</ele>
        <time>2023-04-19T14:34:59Z</time>
      </trkpt>
      <trkpt lat="49.84097" lon="2.38999">
        <ele>28.9</ele>
        <time>2023-04-19T14:35:00Z</time>
      </trkpt>
      <trkpt lat="49.84097" lon="2.38999">
        <ele>28.9</ele>
        <time>2023-04-19T14:35:01Z</time>
      </trkpt>
      <trkpt lat="49.84097" lon="2.38999">
        <ele>28.9</ele>
        <time>2023-04-19T14:35:02Z</time>
      </trkpt>
      <trkpt lat="49.84097" lon="2.38999">
        <ele>28.9</ele>
        <time>2023-04-19T14:35:03Z</time>
      </trkpt>
      <trkpt lat="49.84097" lon="2.38999">
        <ele>28.9</ele>
        <time>2023-04-19T14:35:04Z</time>
      </trkpt>
      <trkpt lat="49.84097" lon="2.38999">
        <ele>28.9</ele>
        <time>2023-04-19T14:35:05Z</time>
      </trkpt>
      <trkpt lat="49.84097" lon="2.38999">
        <ele>28.9</ele>
        <time>2023-04-19T14:35:06Z</time>
      </trkpt>
      <trkpt lat="49.84097" lon="2.38999">
        <ele>28.9</ele>
        <time>2023-04-19T14:35:07Z</time>
      </trkpt>
      <trkpt lat="49.84097" lon="2.38999">
        <ele>28.9</ele>
        <time>2023-04-19T14:35:08Z</time>
      </trkpt>
      <trkpt lat="49.84097" lon="2.38999">
        <ele>28.9</ele>
        <time>2023-04-19T14:35:09Z</time>
      </trkpt>
      <trkpt lat="49.84097" lon="2.38999">
        <ele>28.9</ele>
        <time>2023-04-19T14:35:10Z</time>
      </trkpt>
      <trkpt lat="49.84097" lon="2.38999">
        <ele>28.9</ele>
        <time>2023-04-19T14:35:11Z</time>
      </trkpt>
      <trkpt lat="49.84097" lon="2.38999">
        <ele>28.9</ele>
        <time>2023-04-19T14:35:12Z</time>
      </trkpt>
      <trkpt lat="49.84096" lon="2.38998">
        <ele>28.9</ele>
        <time>2023-04-19T14:35:13Z</time>
      </trkpt>
      <trkpt lat="49.84096" lon="2.38998">
        <ele>28.9</ele>
        <time>2023-04-19T14:35:14Z</time>
      </trkpt>
      <trkpt lat="49.84096" lon="2.38998">
        <ele>28.9</ele>
        <time>2023-04-19T14:35:15Z</time>
      </trkpt>
      <trkpt lat="49.84096" lon="2.38998">
        <ele>28.9</ele>
        <time>2023-04-19T14:35:16Z</time>
      </trkpt>
      <trkpt lat="49.84096" lon="2.38999">
        <ele>28.9</ele>
        <time>2023-04-19T14:35:18Z</time>
      </trkpt>
      <trkpt lat="49.84096" lon="2.39">
        <ele>28.9</ele>
        <time>2023-04-19T14:35:19Z</time>
      </trkpt>
      <trkpt lat="49.84097" lon="2.39002">
        <ele>28.9</ele>
        <time>2023-04-19T14:35:20Z</time>
      </trkpt>
      <trkpt lat="49.84098" lon="2.39004">
        <ele>28.9</ele>
        <time>2023-04-19T14:35:21Z</time>
      </trkpt>
      <trkpt lat="49.84099" lon="2.39005">
        <ele>28.9</ele>
        <time>2023-04-19T14:35:22Z</time>
      </trkpt>
      <trkpt lat="49.84102" lon="2.39008">
        <ele>28.9</ele>
        <time>2023-04-19T14:35:24Z</time>
      </trkpt>
      <trkpt lat="49.84103" lon="2.3901">
        <ele>28.9</ele>
        <time>2023-04-19T14:35:25Z</time>
      </trkpt>
      <trkpt lat="49.84105" lon="2.39011">
        <ele>28.9</ele>
        <time>2023-04-19T14:35:27Z</time>
      </trkpt>
      <trkpt lat="49.84106" lon="2.39013">
        <ele>28.8</ele>
        <time>2023-04-19T14:35:28Z</time>
      </trkpt>
      <trkpt lat="49.84107" lon="2.39015">
        <ele>28.8</ele>
        <time>2023-04-19T14:35:29Z</time>
      </trkpt>
      <trkpt lat="49.84107" lon="2.39016">
        <ele>28.8</ele>
        <time>2023-04-19T14:35:30Z</time>
      </trkpt>
      <trkpt lat="49.84107" lon="2.39016">
        <ele>28.8</ele>
        <time>2023-04-19T14:35:31Z</time>
      </trkpt>
      <trkpt lat="49.84108" lon="2.39017">
        <ele>28.8</ele>
        <time>2023-04-19T14:35:33Z</time>
      </trkpt>
      <trkpt lat="49.84108" lon="2.39018">
        <ele>28.8</ele>
        <time>2023-04-19T14:35:34Z</time>
      </trkpt>
      <trkpt lat="49.84108" lon="2.39019">
        <ele>28.8</ele>
        <time>2023-04-19T14:35:35Z</time>
      </trkpt>
      <trkpt lat="49.84108" lon="2.3902">
        <ele>28.8</ele>
        <time>2023-04-19T14:35:36Z</time>
      </trkpt>
      <trkpt lat="49.84108" lon="2.39021">
        <ele>28.8</ele>
        <time>2023-04-19T14:35:37Z</time>
      </trkpt>
      <trkpt lat="49.84108" lon="2.39023">
        <ele>28.8</ele>
        <time>2023-04-19T14:35:38Z</time>
      </trkpt>
      <trkpt lat="49.84108" lon="2.39024">
        <ele>28.8</ele>
        <time>2023-04-19T14:35:39Z</time>
      </trkpt>
      <trkpt lat="49.84108" lon="2.39026">
        <ele>28.8</ele>
        <time>2023-04-19T14:35:40Z</time>
      </trkpt>
      <trkpt lat="49.84109" lon="2.39027">
        <ele>28.8</ele>
        <time>2023-04-19T14:35:41Z</time>
      </trkpt>
      <trkpt lat="49.84109" lon="2.39028">
        <ele>28.8</ele>
        <time>2023-04-19T14:35:42Z</time>
      </trkpt>
      <trkpt lat="49.8411" lon="2.39029">
        <ele>28.8</ele>
        <time>2023-04-19T14:35:44Z</time>
      </trkpt>
      <trkpt lat="49.8411" lon="2.39031">
        <ele>28.8</ele>
        <time>2023-04-19T14:35:45Z</time>
      </trkpt>
      <trkpt lat="49.8411" lon="2.39033">
        <ele>28.8</ele>
        <time>2023-04-19T14:35:46Z</time>
      </trkpt>
      <trkpt lat="49.84111" lon="2.39034">
        <ele>28.8</ele>
        <time>2023-04-19T14:35:47Z</time>
      </trkpt>
      <trkpt lat="49.84111" lon="2.39035">
        <ele>28.8</ele>
        <time>2023-04-19T14:35:48Z</time>
      </trkpt>
      <trkpt lat="49.84112" lon="2.39038">
        <ele>28.8</ele>
        <time>2023-04-19T14:35:49Z</time>
      </trkpt>
      <trkpt lat="49.84113" lon="2.39041">
        <ele>28.8</ele>
        <time>2023-04-19T14:35:50Z</time>
      </trkpt>
      <trkpt lat="49.84114" lon="2.39044">
        <ele>28.8</ele>
        <time>2023-04-19T14:35:52Z</time>
      </trkpt>
      <trkpt lat="49.84115" lon="2.39048">
        <ele>28.8</ele>
        <time>2023-04-19T14:35:53Z</time>
      </trkpt>
      <trkpt lat="49.84116" lon="2.39049">
        <ele>28.8</ele>
        <time>2023-04-19T14:35:54Z</time>
      </trkpt>
      <trkpt lat="49.84117" lon="2.39052">
        <ele>28.8</ele>
        <time>2023-04-19T14:35:55Z</time>
      </trkpt>
      <trkpt lat="49.84117" lon="2.39053">
        <ele>28.8</ele>
        <time>2023-04-19T14:35:56Z</time>
      </trkpt>
      <trkpt lat="49.84119" lon="2.39056">
        <ele>28.8</ele>
        <time>2023-04-19T14:35:57Z</time>
      </trkpt>
      <trkpt lat="49.84119" lon="2.39057">
        <ele>28.8</ele>
        <time>2023-04-19T14:35:58Z</time>
      </trkpt>
      <trkpt lat="49.8412" lon="2.39058">
        <ele>28.8</ele>
        <time>2023-04-19T14:35:59Z</time>
      </trkpt>
      <trkpt lat="49.84121" lon="2.3906">
        <ele>28.8</ele>
        <time>2023-04-19T14:36:01Z</time>
      </trkpt>
      <trkpt lat="49.84121" lon="2.39061">
        <ele>28.8</ele>
        <time>2023-04-19T14:36:02Z</time>
      </trkpt>
      <trkpt lat="49.84122" lon="2.39062">
        <ele>28.7</ele>
        <time>2023-04-19T14:36:03Z</time>
      </trkpt>
      <trkpt lat="49.84122" lon="2.39064">
        <ele>28.7</ele>
        <time>2023-04-19T14:36:04Z</time>
      </trkpt>
      <trkpt lat="49.84123" lon="2.39065">
        <ele>28.7</ele>
        <time>2023-04-19T14:36:05Z</time>
      </trkpt>
      <trkpt lat="49.84124" lon="2.39066">
        <ele>28.7</ele>
        <time>2023-04-19T14:36:06Z</time>
      </trkpt>
      <trkpt lat="49.84124" lon="2.39068">
        <ele>28.7</ele>
        <time>2023-04-19T14:36:08Z</time>
      </trkpt>
      <trkpt lat="49.84125" lon="2.3907">
        <ele>28.7</ele>
        <time>2023-04-19T14:36:09Z</time>
      </trkpt>
      <trkpt lat="49.84125" lon="2.39071">
        <ele>28.7</ele>
        <time>2023-04-19T14:36:10Z</time>
      </trkpt>
      <trkpt lat="49.84126" lon="2.39072">
        <ele>28.7</ele>
        <time>2023-04-19T14:36:11Z</time>
      </trkpt>
      <trkpt lat="49.84127" lon="2.39074">
        <ele>28.7</ele>
        <time>2023-04-19T14:36:12Z</time>
      </trkpt>
      <trkpt lat="49.84127" lon="2.39076">
        <ele>28.7</ele>
        <time>2023-04-19T14:36:13Z</time>
      </trkpt>
      <trkpt lat="49.84128" lon="2.39077">
        <ele>28.7</ele>
        <time>2023-04-19T14:36:14Z</time>
      </trkpt>
      <trkpt lat="49.84129" lon="2.39079">
        <ele>28.7</ele>
        <time>2023-04-19T14:36:16Z</time>
      </trkpt>
      <trkpt lat="49.8413" lon="2.39081">
        <ele>28.7</ele>
        <time>2023-04-19T14:36:17Z</time>
      </trkpt>
      <trkpt lat="49.8413" lon="2.39082">
        <ele>28.7</ele>
        <time>2023-04-19T14:36:18Z</time>
      </trkpt>
      <trkpt lat="49.84131" lon="2.39083">
        <ele>28.7</ele>
        <time>2023-04-19T14:36:19Z</time>
      </trkpt>
      <trkpt lat="49.84131" lon="2.39085">
        <ele>28.7</ele>
        <time>2023-04-19T14:36:20Z</time>
      </trkpt>
      <trkpt lat="49.84132" lon="2.39086">
        <ele>28.7</ele>
        <time>2023-04-19T14:36:21Z</time>
      </trkpt>
      <trkpt lat="49.84133" lon="2.39088">
        <ele>28.7</ele>
        <time>2023-04-19T14:36:22Z</time>
      </trkpt>
      <trkpt lat="49.84134" lon="2.3909">
        <ele>28.7</ele>
        <time>2023-04-19T14:36:23Z</time>
      </trkpt>
      <trkpt lat="49.84135" lon="2.39091">
        <ele>28.7</ele>
        <time>2023-04-19T14:36:24Z</time>
      </trkpt>
      <trkpt lat="49.84135" lon="2.39094">
        <ele>28.7</ele>
        <time>2023-04-19T14:36:26Z</time>
      </trkpt>
      <trkpt lat="49.84136" lon="2.39095">
        <ele>28.7</ele>
        <time>2023-04-19T14:36:27Z</time>
      </trkpt>
      <trkpt lat="49.84136" lon="2.39096">
        <ele>28.7</ele>
        <time>2023-04-19T14:36:28Z</time>
      </trkpt>
      <trkpt lat="49.84137" lon="2.391">
        <ele>28.7</ele>
        <time>2023-04-19T14:36:29Z</time>
      </trkpt>
      <trkpt lat="49.84137" lon="2.39101">
        <ele>28.7</ele>
        <time>2023-04-19T14:36:30Z</time>
      </trkpt>
      <trkpt lat="49.84138" lon="2.39102">
        <ele>28.7</ele>
        <time>2023-04-19T14:36:31Z</time>
      </trkpt>
      <trkpt lat="49.84138" lon="2.39104">
        <ele>28.7</ele>
        <time>2023-04-19T14:36:32Z</time>
      </trkpt>
      <trkpt lat="49.84139" lon="2.39106">
        <ele>28.7</ele>
        <time>2023-04-19T14:36:34Z</time>
      </trkpt>
      <trkpt lat="49.84139" lon="2.39107">
        <ele>28.7</ele>
        <time>2023-04-19T14:36:35Z</time>
      </trkpt>
      <trkpt lat="49.84139" lon="2.39109">
        <ele>28.7</ele>
        <time>2023-04-19T14:36:36Z</time>
      </trkpt>
      <trkpt lat="49.8414" lon="2.3911">
        <ele>28.7</ele>
        <time>2023-04-19T14:36:37Z</time>
      </trkpt>
      <trkpt lat="49.8414" lon="2.39112">
        <ele>28.7</ele>
        <time>2023-04-19T14:36:38Z</time>
      </trkpt>
      <trkpt lat="49.84141" lon="2.39113">
        <ele>28.7</ele>
        <time>2023-04-19T14:36:39Z</time>
      </trkpt>
      <trkpt lat="49.84142" lon="2.39115">
        <ele>28.7</ele>
        <time>2023-04-19T14:36:40Z</time>
      </trkpt>
      <trkpt lat="49.84142" lon="2.39117">
        <ele>28.7</ele>
        <time>2023-04-19T14:36:41Z</time>
      </trkpt>
      <trkpt lat="49.84143" lon="2.39119">
        <ele>28.7</ele>
        <time>2023-04-19T14:36:43Z</time>
      </trkpt>
      <trkpt lat="49.84143" lon="2.3912">
        <ele>28.7</ele>
        <time>2023-04-19T14:36:44Z</time>
      </trkpt>
      <trkpt lat="49.84143" lon="2.39122">
        <ele>28.7</ele>
        <time>2023-04-19T14:36:45Z</time>
      </trkpt>
      <trkpt lat="49.84144" lon="2.39125">
        <ele>28.7</ele>
        <time>2023-04-19T14:36:46Z</time>
      </trkpt>
      <trkpt lat="49.84144" lon="2.39125">
        <ele>28.7</ele>
        <time>2023-04-19T14:36:47Z</time>
      </trkpt>
      <trkpt lat="49.84145" lon="2.39127">
        <ele>28.7</ele>
        <time>2023-04-19T14:36:48Z</time>
      </trkpt>
      <trkpt lat="49.84145" lon="2.39129">
        <ele>28.7</ele>
        <time>2023-04-19T14:36:49Z</time>
      </trkpt>
      <trkpt lat="49.84145" lon="2.39131">
        <ele>28.7</ele>
        <time>2023-04-19T14:36:50Z</time>
      </trkpt>
      <trkpt lat="49.84146" lon="2.39133">
        <ele>28.7</ele>
        <time>2023-04-19T14:36:52Z</time>
      </trkpt>
      <trkpt lat="49.84146" lon="2.39134">
        <ele>28.7</ele>
        <time>2023-04-19T14:36:53Z</time>
      </trkpt>
      <trkpt lat="49.84147" lon="2.39135">
        <ele>28.7</ele>
        <time>2023-04-19T14:36:54Z</time>
      </trkpt>
      <trkpt lat="49.84148" lon="2.39137">
        <ele>28.7</ele>
        <time>2023-04-19T14:36:55Z</time>
      </trkpt>
      <trkpt lat="49.84148" lon="2.39138">
        <ele>28.7</ele>
        <time>2023-04-19T14:36:56Z</time>
      </trkpt>
      <trkpt lat="49.84149" lon="2.39139">
        <ele>28.7</ele>
        <time>2023-04-19T14:36:57Z</time>
      </trkpt>
      <trkpt lat="49.84149" lon="2.39141">
        <ele>28.7</ele>
        <time>2023-04-19T14:36:58Z</time>
      </trkpt>
      <trkpt lat="49.8415" lon="2.39143">
        <ele>28.7</ele>
        <time>2023-04-19T14:36:59Z</time>
      </trkpt>
      <trkpt lat="49.8415" lon="2.39144">
        <ele>28.7</ele>
        <time>2023-04-19T14:37:01Z</time>
      </trkpt>
      <trkpt lat="49.8415" lon="2.39146">
        <ele>28.7</ele>
        <time>2023-04-19T14:37:02Z</time>
      </trkpt>
      <trkpt lat="49.84151" lon="2.39147">
        <ele>28.7</ele>
        <time>2023-04-19T14:37:03Z</time>
      </trkpt>
      <trkpt lat="49.84151" lon="2.39149">
        <ele>28.7</ele>
        <time>2023-04-19T14:37:04Z</time>
      </trkpt>
      <trkpt lat="49.84152" lon="2.3915">
        <ele>28.7</ele>
        <time>2023-04-19T14:37:05Z</time>
      </trkpt>
      <trkpt lat="49.84153" lon="2.39153">
        <ele>28.7</ele>
        <time>2023-04-19T14:37:06Z</time>
      </trkpt>
      <trkpt lat="49.84154" lon="2.39154">
        <ele>28.7</ele>
        <time>2023-04-19T14:37:07Z</time>
      </trkpt>
      <trkpt lat="49.84154" lon="2.39155">
        <ele>28.6</ele>
        <time>2023-04-19T14:37:08Z</time>
      </trkpt>
      <trkpt lat="49.84156" lon="2.39158">
        <ele>28.6</ele>
        <time>2023-04-19T14:37:09Z</time>
      </trkpt>
      <trkpt lat="49.84156" lon="2.39158">
        <ele>28.6</ele>
        <time>2023-04-19T14:37:11Z</time>
      </trkpt>
      <trkpt lat="49.84157" lon="2.39159">
        <ele>28.6</ele>
        <time>2023-04-19T14:37:12Z</time>
      </trkpt>
      <trkpt lat="49.84158" lon="2.39161">
        <ele>28.6</ele>
        <time>2023-04-19T14:37:13Z</time>
      </trkpt>
      <trkpt lat="49.84159" lon="2.39163">
        <ele>28.6</ele>
        <time>2023-04-19T14:37:14Z</time>
      </trkpt>
      <trkpt lat="49.84159" lon="2.39166">
        <ele>28.6</ele>
        <time>2023-04-19T14:37:15Z</time>
      </trkpt>
      <trkpt lat="49.8416" lon="2.39167">
        <ele>28.6</ele>
        <time>2023-04-19T14:37:16Z</time>
      </trkpt>
      <trkpt lat="49.8416" lon="2.39168">
        <ele>28.6</ele>
        <time>2023-04-19T14:37:17Z</time>
      </trkpt>
      <trkpt lat="49.84161" lon="2.39171">
        <ele>28.6</ele>
        <time>2023-04-19T14:37:18Z</time>
      </trkpt>
      <trkpt lat="49.84161" lon="2.39173">
        <ele>28.6</ele>
        <time>2023-04-19T14:37:19Z</time>
      </trkpt>
      <trkpt lat="49.84162" lon="2.39174">
        <ele>28.6</ele>
        <time>2023-04-19T14:37:21Z</time>
      </trkpt>
      <trkpt lat="49.84162" lon="2.39176">
        <ele>28.6</ele>
        <time>2023-04-19T14:37:22Z</time>
      </trkpt>
      <trkpt lat="49.84162" lon="2.39177">
        <ele>28.6</ele>
        <time>2023-04-19T14:37:23Z</time>
      </trkpt>
      <trkpt lat="49.84163" lon="2.39179">
        <ele>28.6</ele>
        <time>2023-04-19T14:37:24Z</time>
      </trkpt>
      <trkpt lat="49.84163" lon="2.39181">
        <ele>28.6</ele>
        <time>2023-04-19T14:37:25Z</time>
      </trkpt>
      <trkpt lat="49.84163" lon="2.39183">
        <ele>28.6</ele>
        <time>2023-04-19T14:37:26Z</time>
      </trkpt>
      <trkpt lat="49.84164" lon="2.39186">
        <ele>28.6</ele>
        <time>2023-04-19T14:37:27Z</time>
      </trkpt>
      <trkpt lat="49.84164" lon="2.39187">
        <ele>28.6</ele>
        <time>2023-04-19T14:37:28Z</time>
      </trkpt>
      <trkpt lat="49.84165" lon="2.39188">
        <ele>28.6</ele>
        <time>2023-04-19T14:37:29Z</time>
      </trkpt>
      <trkpt lat="49.84165" lon="2.39191">
        <ele>28.6</ele>
        <time>2023-04-19T14:37:31Z</time>
      </trkpt>
      <trkpt lat="49.84165" lon="2.39192">
        <ele>28.6</ele>
        <time>2023-04-19T14:37:32Z</time>
      </trkpt>
      <trkpt lat="49.84166" lon="2.39193">
        <ele>28.6</ele>
        <time>2023-04-19T14:37:33Z</time>
      </trkpt>
      <trkpt lat="49.84167" lon="2.39196">
        <ele>28.6</ele>
        <time>2023-04-19T14:37:34Z</time>
      </trkpt>
      <trkpt lat="49.84168" lon="2.39197">
        <ele>28.6</ele>
        <time>2023-04-19T14:37:35Z</time>
      </trkpt>
      <trkpt lat="49.84168" lon="2.39198">
        <ele>28.6</ele>
        <time>2023-04-19T14:37:36Z</time>
      </trkpt>
      <trkpt lat="49.84169" lon="2.39199">
        <ele>28.6</ele>
        <time>2023-04-19T14:37:37Z</time>
      </trkpt>
      <trkpt lat="49.8417" lon="2.392">
        <ele>28.6</ele>
        <time>2023-04-19T14:37:38Z</time>
      </trkpt>
      <trkpt lat="49.84171" lon="2.39202">
        <ele>28.6</ele>
        <time>2023-04-19T14:37:40Z</time>
      </trkpt>
      <trkpt lat="49.84171" lon="2.39203">
        <ele>28.6</ele>
        <time>2023-04-19T14:37:41Z</time>
      </trkpt>
      <trkpt lat="49.84172" lon="2.39204">
        <ele>28.6</ele>
        <time>2023-04-19T14:37:42Z</time>
      </trkpt>
      <trkpt lat="49.84173" lon="2.39206">
        <ele>28.6</ele>
        <time>2023-04-19T14:37:43Z</time>
      </trkpt>
      <trkpt lat="49.84174" lon="2.39209">
        <ele>28.6</ele>
        <time>2023-04-19T14:37:44Z</time>
      </trkpt>
      <trkpt lat="49.84174" lon="2.3921">
        <ele>28.6</ele>
        <time>2023-04-19T14:37:45Z</time>
      </trkpt>
      <trkpt lat="49.84174" lon="2.39212">
        <ele>28.6</ele>
        <time>2023-04-19T14:37:46Z</time>
      </trkpt>
      <trkpt lat="49.84175" lon="2.39214">
        <ele>28.6</ele>
        <time>2023-04-19T14:37:47Z</time>
      </trkpt>
      <trkpt lat="49.84175" lon="2.39216">
        <ele>28.6</ele>
        <time>2023-04-19T14:37:48Z</time>
      </trkpt>
      <trkpt lat="49.84175" lon="2.39218">
        <ele>28.6</ele>
        <time>2023-04-19T14:37:50Z</time>
      </trkpt>
      <trkpt lat="49.84175" lon="2.39221">
        <ele>28.6</ele>
        <time>2023-04-19T14:37:51Z</time>
      </trkpt>
      <trkpt lat="49.84175" lon="2.39221">
        <ele>28.6</ele>
        <time>2023-04-19T14:37:52Z</time>
      </trkpt>
      <trkpt lat="49.84176" lon="2.39223">
        <ele>28.6</ele>
        <time>2023-04-19T14:37:53Z</time>
      </trkpt>
      <trkpt lat="49.84176" lon="2.39225">
        <ele>28.6</ele>
        <time>2023-04-19T14:37:54Z</time>
      </trkpt>
      <trkpt lat="49.84177" lon="2.39226">
        <ele>28.6</ele>
        <time>2023-04-19T14:37:55Z</time>
      </trkpt>
      <trkpt lat="49.84177" lon="2.39228">
        <ele>28.6</ele>
        <time>2023-04-19T14:37:57Z</time>
      </trkpt>
      <trkpt lat="49.84177" lon="2.39229">
        <ele>28.6</ele>
        <time>2023-04-19T14:37:58Z</time>
      </trkpt>
      <trkpt lat="49.84178" lon="2.3923">
        <ele>28.6</ele>
        <time>2023-04-19T14:37:59Z</time>
      </trkpt>
      <trkpt lat="49.84178" lon="2.39232">
        <ele>28.6</ele>
        <time>2023-04-19T14:38:00Z</time>
      </trkpt>
      <trkpt lat="49.84178" lon="2.39233">
        <ele>28.6</ele>
        <time>2023-04-19T14:38:01Z</time>
      </trkpt>
      <trkpt lat="49.84178" lon="2.39235">
        <ele>28.6</ele>
        <time>2023-04-19T14:38:02Z</time>
      </trkpt>
      <trkpt lat="49.84179" lon="2.39236">
        <ele>28.6</ele>
        <time>2023-04-19T14:38:03Z</time>
      </trkpt>
      <trkpt lat="49.84179" lon="2.39238">
        <ele>28.6</ele>
        <time>2023-04-19T14:38:05Z</time>
      </trkpt>
      <trkpt lat="49.8418" lon="2.39239">
        <ele>28.6</ele>
        <time>2023-04-19T14:38:06Z</time>
      </trkpt>
      <trkpt lat="49.84181" lon="2.39241">
        <ele>28.6</ele>
        <time>2023-04-19T14:38:07Z</time>
      </trkpt>
      <trkpt lat="49.84181" lon="2.39242">
        <ele>28.6</ele>
        <time>2023-04-19T14:38:08Z</time>
      </trkpt>
      <trkpt lat="49.84182" lon="2.39245">
        <ele>28.6</ele>
        <time>2023-04-19T14:38:09Z</time>
      </trkpt>
      <trkpt lat="49.84183" lon="2.39246">
        <ele>28.6</ele>
        <time>2023-04-19T14:38:10Z</time>
      </trkpt>
      <trkpt lat="49.84183" lon="2.39247">
        <ele>28.6</ele>
        <time>2023-04-19T14:38:12Z</time>
      </trkpt>
      <trkpt lat="49.84184" lon="2.39248">
        <ele>28.6</ele>
        <time>2023-04-19T14:38:13Z</time>
      </trkpt>
      <trkpt lat="49.84184" lon="2.39249">
        <ele>28.6</ele>
        <time>2023-04-19T14:38:14Z</time>
      </trkpt>
      <trkpt lat="49.84184" lon="2.3925">
        <ele>28.6</ele>
        <time>2023-04-19T14:38:15Z</time>
      </trkpt>
      <trkpt lat="49.84185" lon="2.39251">
        <ele>28.6</ele>
        <time>2023-04-19T14:38:16Z</time>
      </trkpt>
      <trkpt lat="49.84185" lon="2.39253">
        <ele>28.6</ele>
        <time>2023-04-19T14:38:17Z</time>
      </trkpt>
      <trkpt lat="49.84186" lon="2.39255">
        <ele>28.6</ele>
        <time>2023-04-19T14:38:18Z</time>
      </trkpt>
      <trkpt lat="49.84186" lon="2.39257">
        <ele>28.6</ele>
        <time>2023-04-19T14:38:19Z</time>
      </trkpt>
      <trkpt lat="49.84186" lon="2.39259">
        <ele>28.6</ele>
        <time>2023-04-19T14:38:21Z</time>
      </trkpt>
      <trkpt lat="49.84186" lon="2.3926">
        <ele>28.6</ele>
        <time>2023-04-19T14:38:22Z</time>
      </trkpt>
      <trkpt lat="49.84186" lon="2.39262">
        <ele>28.6</ele>
        <time>2023-04-19T14:38:23Z</time>
      </trkpt>
      <trkpt lat="49.84187" lon="2.39266">
        <ele>28.6</ele>
        <time>2023-04-19T14:38:24Z</time>
      </trkpt>
      <trkpt lat="49.84188" lon="2.39267">
        <ele>28.6</ele>
        <time>2023-04-19T14:38:26Z</time>
      </trkpt>
      <trkpt lat="49.84188" lon="2.39269">
        <ele>28.6</ele>
        <time>2023-04-19T14:38:27Z</time>
      </trkpt>
      <trkpt lat="49.84188" lon="2.3927">
        <ele>28.6</ele>
        <time>2023-04-19T14:38:28Z</time>
      </trkpt>
      <trkpt lat="49.84189" lon="2.39271">
        <ele>28.6</ele>
        <time>2023-04-19T14:38:29Z</time>
      </trkpt>
      <trkpt lat="49.84189" lon="2.39273">
        <ele>28.6</ele>
        <time>2023-04-19T14:38:30Z</time>
      </trkpt>
      <trkpt lat="49.8419" lon="2.39274">
        <ele>28.6</ele>
        <time>2023-04-19T14:38:31Z</time>
      </trkpt>
      <trkpt lat="49.84191" lon="2.39276">
        <ele>28.6</ele>
        <time>2023-04-19T14:38:32Z</time>
      </trkpt>
      <trkpt lat="49.84192" lon="2.39278">
        <ele>28.7</ele>
        <time>2023-04-19T14:38:33Z</time>
      </trkpt>
      <trkpt lat="49.84192" lon="2.39279">
        <ele>28.7</ele>
        <time>2023-04-19T14:38:35Z</time>
      </trkpt>
      <trkpt lat="49.84193" lon="2.3928">
        <ele>28.7</ele>
        <time>2023-04-19T14:38:36Z</time>
      </trkpt>
      <trkpt lat="49.84193" lon="2.39282">
        <ele>28.7</ele>
        <time>2023-04-19T14:38:37Z</time>
      </trkpt>
      <trkpt lat="49.84194" lon="2.39284">
        <ele>28.7</ele>
        <time>2023-04-19T14:38:38Z</time>
      </trkpt>
      <trkpt lat="49.84194" lon="2.39285">
        <ele>28.7</ele>
        <time>2023-04-19T14:38:39Z</time>
      </trkpt>
      <trkpt lat="49.84195" lon="2.39288">
        <ele>28.7</ele>
        <time>2023-04-19T14:38:40Z</time>
      </trkpt>
      <trkpt lat="49.84196" lon="2.39289">
        <ele>28.7</ele>
        <time>2023-04-19T14:38:41Z</time>
      </trkpt>
      <trkpt lat="49.84196" lon="2.3929">
        <ele>28.7</ele>
        <time>2023-04-19T14:38:42Z</time>
      </trkpt>
      <trkpt lat="49.84197" lon="2.39293">
        <ele>28.7</ele>
        <time>2023-04-19T14:38:44Z</time>
      </trkpt>
      <trkpt lat="49.84198" lon="2.39294">
        <ele>28.7</ele>
        <time>2023-04-19T14:38:45Z</time>
      </trkpt>
      <trkpt lat="49.84198" lon="2.39295">
        <ele>28.7</ele>
        <time>2023-04-19T14:38:46Z</time>
      </trkpt>
      <trkpt lat="49.84199" lon="2.39297">
        <ele>28.7</ele>
        <time>2023-04-19T14:38:47Z</time>
      </trkpt>
      <trkpt lat="49.842" lon="2.39299">
        <ele>28.7</ele>
        <time>2023-04-19T14:38:48Z</time>
      </trkpt>
      <trkpt lat="49.842" lon="2.393">
        <ele>28.7</ele>
        <time>2023-04-19T14:38:49Z</time>
      </trkpt>
      <trkpt lat="49.84201" lon="2.39301">
        <ele>28.7</ele>
        <time>2023-04-19T14:38:50Z</time>
      </trkpt>
      <trkpt lat="49.84201" lon="2.39303">
        <ele>28.7</ele>
        <time>2023-04-19T14:38:51Z</time>
      </trkpt>
      <trkpt lat="49.84202" lon="2.39304">
        <ele>28.7</ele>
        <time>2023-04-19T14:38:52Z</time>
      </trkpt>
      <trkpt lat="49.84203" lon="2.39306">
        <ele>28.8</ele>
        <time>2023-04-19T14:38:54Z</time>
      </trkpt>
      <trkpt lat="49.84203" lon="2.39307">
        <ele>28.8</ele>
        <time>2023-04-19T14:38:55Z</time>
      </trkpt>
      <trkpt lat="49.84204" lon="2.39309">
        <ele>28.8</ele>
        <time>2023-04-19T14:38:56Z</time>
      </trkpt>
      <trkpt lat="49.84205" lon="2.3931">
        <ele>28.8</ele>
        <time>2023-04-19T14:38:57Z</time>
      </trkpt>
      <trkpt lat="49.84206" lon="2.39311">
        <ele>28.8</ele>
        <time>2023-04-19T14:38:58Z</time>
      </trkpt>
      <trkpt lat="49.84207" lon="2.39312">
        <ele>28.8</ele>
        <time>2023-04-19T14:38:59Z</time>
      </trkpt>
      <trkpt lat="49.84207" lon="2.39313">
        <ele>28.8</ele>
        <time>2023-04-19T14:39:00Z</time>
      </trkpt>
      <trkpt lat="49.84208" lon="2.39314">
        <ele>28.8</ele>
        <time>2023-04-19T14:39:01Z</time>
      </trkpt>
      <trkpt lat="49.84209" lon="2.39317">
        <ele>28.8</ele>
        <time>2023-04-19T14:39:03Z</time>
      </trkpt>
      <trkpt lat="49.8421" lon="2.39318">
        <ele>28.8</ele>
        <time>2023-04-19T14:39:04Z</time>
      </trkpt>
      <trkpt lat="49.8421" lon="2.39319">
        <ele>28.8</ele>
        <time>2023-04-19T14:39:05Z</time>
      </trkpt>
      <trkpt lat="49.84211" lon="2.39322">
        <ele>28.9</ele>
        <time>2023-04-19T14:39:06Z</time>
      </trkpt>
      <trkpt lat="49.84212" lon="2.39323">
        <ele>28.9</ele>
        <time>2023-04-19T14:39:07Z</time>
      </trkpt>
      <trkpt lat="49.84213" lon="2.39324">
        <ele>28.9</ele>
        <time>2023-04-19T14:39:08Z</time>
      </trkpt>
      <trkpt lat="49.84213" lon="2.39325">
        <ele>28.9</ele>
        <time>2023-04-19T14:39:10Z</time>
      </trkpt>
      <trkpt lat="49.84214" lon="2.39327">
        <ele>28.9</ele>
        <time>2023-04-19T14:39:11Z</time>
      </trkpt>
      <trkpt lat="49.84214" lon="2.39328">
        <ele>28.9</ele>
        <time>2023-04-19T14:39:12Z</time>
      </trkpt>
      <trkpt lat="49.84215" lon="2.39329">
        <ele>28.9</ele>
        <time>2023-04-19T14:39:13Z</time>
      </trkpt>
      <trkpt lat="49.84216" lon="2.39331">
        <ele>28.9</ele>
        <time>2023-04-19T14:39:14Z</time>
      </trkpt>
      <trkpt lat="49.84216" lon="2.39332">
        <ele>28.9</ele>
        <time>2023-04-19T14:39:15Z</time>
      </trkpt>
      <trkpt lat="49.84218" lon="2.39334">
        <ele>28.9</ele>
        <time>2023-04-19T14:39:16Z</time>
      </trkpt>
      <trkpt lat="49.84218" lon="2.39335">
        <ele>28.9</ele>
        <time>2023-04-19T14:39:17Z</time>
      </trkpt>
      <trkpt lat="49.84219" lon="2.39336">
        <ele>29</ele>
        <time>2023-04-19T14:39:18Z</time>
      </trkpt>
      <trkpt lat="49.8422" lon="2.39337">
        <ele>29</ele>
        <time>2023-04-19T14:39:20Z</time>
      </trkpt>
      <trkpt lat="49.84221" lon="2.39339">
        <ele>29</ele>
        <time>2023-04-19T14:39:21Z</time>
      </trkpt>
      <trkpt lat="49.84221" lon="2.3934">
        <ele>29</ele>
        <time>2023-04-19T14:39:22Z</time>
      </trkpt>
      <trkpt lat="49.84222" lon="2.39341">
        <ele>29</ele>
        <time>2023-04-19T14:39:23Z</time>
      </trkpt>
      <trkpt lat="49.84223" lon="2.39343">
        <ele>29</ele>
        <time>2023-04-19T14:39:24Z</time>
      </trkpt>
      <trkpt lat="49.84224" lon="2.39344">
        <ele>29</ele>
        <time>2023-04-19T14:39:25Z</time>
      </trkpt>
      <trkpt lat="49.84225" lon="2.39345">
        <ele>29</ele>
        <time>2023-04-19T14:39:26Z</time>
      </trkpt>
      <trkpt lat="49.84225" lon="2.39347">
        <ele>29</ele>
        <time>2023-04-19T14:39:27Z</time>
      </trkpt>
      <trkpt lat="49.84226" lon="2.39348">
        <ele>29</ele>
        <time>2023-04-19T14:39:29Z</time>
      </trkpt>
      <trkpt lat="49.84226" lon="2.3935">
        <ele>29</ele>
        <time>2023-04-19T14:39:30Z</time>
      </trkpt>
      <trkpt lat="49.84227" lon="2.39352">
        <ele>29</ele>
        <time>2023-04-19T14:39:31Z</time>
      </trkpt>
      <trkpt lat="49.84228" lon="2.39353">
        <ele>29</ele>
        <time>2023-04-19T14:39:32Z</time>
      </trkpt>
      <trkpt lat="49.84228" lon="2.39355">
        <ele>29.1</ele>
        <time>2023-04-19T14:39:33Z</time>
      </trkpt>
      <trkpt lat="49.84229" lon="2.39356">
        <ele>29.1</ele>
        <time>2023-04-19T14:39:34Z</time>
      </trkpt>
      <trkpt lat="49.8423" lon="2.39358">
        <ele>29.1</ele>
        <time>2023-04-19T14:39:35Z</time>
      </trkpt>
      <trkpt lat="49.8423" lon="2.39359">
        <ele>29.1</ele>
        <time>2023-04-19T14:39:36Z</time>
      </trkpt>
      <trkpt lat="49.84231" lon="2.39361">
        <ele>29.1</ele>
        <time>2023-04-19T14:39:37Z</time>
      </trkpt>
      <trkpt lat="49.84231" lon="2.39362">
        <ele>29.1</ele>
        <time>2023-04-19T14:39:38Z</time>
      </trkpt>
      <trkpt lat="49.84232" lon="2.39364">
        <ele>29.1</ele>
        <time>2023-04-19T14:39:40Z</time>
      </trkpt>
      <trkpt lat="49.84232" lon="2.39365">
        <ele>29.1</ele>
        <time>2023-04-19T14:39:41Z</time>
      </trkpt>
      <trkpt lat="49.84233" lon="2.39367">
        <ele>29.1</ele>
        <time>2023-04-19T14:39:42Z</time>
      </trkpt>
      <trkpt lat="49.84233" lon="2.39369">
        <ele>29.1</ele>
        <time>2023-04-19T14:39:43Z</time>
      </trkpt>
      <trkpt lat="49.84234" lon="2.3937">
        <ele>29.1</ele>
        <time>2023-04-19T14:39:44Z</time>
      </trkpt>
      <trkpt lat="49.84234" lon="2.39372">
        <ele>29.1</ele>
        <time>2023-04-19T14:39:45Z</time>
      </trkpt>
      <trkpt lat="49.84235" lon="2.39374">
        <ele>29.1</ele>
        <time>2023-04-19T14:39:46Z</time>
      </trkpt>
      <trkpt lat="49.84236" lon="2.39375">
        <ele>29.2</ele>
        <time>2023-04-19T14:39:47Z</time>
      </trkpt>
      <trkpt lat="49.84236" lon="2.39377">
        <ele>29.2</ele>
        <time>2023-04-19T14:39:48Z</time>
      </trkpt>
      <trkpt lat="49.84237" lon="2.39379">
        <ele>29.2</ele>
        <time>2023-04-19T14:39:50Z</time>
      </trkpt>
      <trkpt lat="49.84237" lon="2.3938">
        <ele>29.2</ele>
        <time>2023-04-19T14:39:51Z</time>
      </trkpt>
      <trkpt lat="49.84237" lon="2.39382">
        <ele>29.2</ele>
        <time>2023-04-19T14:39:52Z</time>
      </trkpt>
      <trkpt lat="49.84238" lon="2.39384">
        <ele>29.2</ele>
        <time>2023-04-19T14:39:53Z</time>
      </trkpt>
      <trkpt lat="49.84239" lon="2.39385">
        <ele>29.2</ele>
        <time>2023-04-19T14:39:54Z</time>
      </trkpt>
      <trkpt lat="49.8424" lon="2.39388">
        <ele>29.2</ele>
        <time>2023-04-19T14:39:56Z</time>
      </trkpt>
      <trkpt lat="49.8424" lon="2.39389">
        <ele>29.2</ele>
        <time>2023-04-19T14:39:57Z</time>
      </trkpt>
      <trkpt lat="49.8424" lon="2.39391">
        <ele>29.2</ele>
        <time>2023-04-19T14:39:58Z</time>
      </trkpt>
      <trkpt lat="49.84241" lon="2.39393">
        <ele>29.2</ele>
        <time>2023-04-19T14:39:59Z</time>
      </trkpt>
      <trkpt lat="49.84241" lon="2.39394">
        <ele>29.2</ele>
        <time>2023-04-19T14:40:00Z</time>
      </trkpt>
      <trkpt lat="49.84241" lon="2.39396">
        <ele>29.2</ele>
        <time>2023-04-19T14:40:01Z</time>
      </trkpt>
      <trkpt lat="49.84242" lon="2.39398">
        <ele>29.2</ele>
        <time>2023-04-19T14:40:03Z</time>
      </trkpt>
      <trkpt lat="49.84242" lon="2.394">
        <ele>29.2</ele>
        <time>2023-04-19T14:40:04Z</time>
      </trkpt>
      <trkpt lat="49.84243" lon="2.39403">
        <ele>29.3</ele>
        <time>2023-04-19T14:40:05Z</time>
      </trkpt>
      <trkpt lat="49.84243" lon="2.39405">
        <ele>29.3</ele>
        <time>2023-04-19T14:40:06Z</time>
      </trkpt>
      <trkpt lat="49.84244" lon="2.39406">
        <ele>29.3</ele>
        <time>2023-04-19T14:40:07Z</time>
      </trkpt>
      <trkpt lat="49.84245" lon="2.39409">
        <ele>29.3</ele>
        <time>2023-04-19T14:40:08Z</time>
      </trkpt>
      <trkpt lat="49.84245" lon="2.3941">
        <ele>29.3</ele>
        <time>2023-04-19T14:40:09Z</time>
      </trkpt>
      <trkpt lat="49.84245" lon="2.39411">
        <ele>29.3</ele>
        <time>2023-04-19T14:40:10Z</time>
      </trkpt>
      <trkpt lat="49.84246" lon="2.39413">
        <ele>29.3</ele>
        <time>2023-04-19T14:40:12Z</time>
      </trkpt>
      <trkpt lat="49.84246" lon="2.39415">
        <ele>29.3</ele>
        <time>2023-04-19T14:40:13Z</time>
      </trkpt>
      <trkpt lat="49.84247" lon="2.39416">
        <ele>29.3</ele>
        <time>2023-04-19T14:40:14Z</time>
      </trkpt>
      <trkpt lat="49.84247" lon="2.39418">
        <ele>29.3</ele>
        <time>2023-04-19T14:40:15Z</time>
      </trkpt>
      <trkpt lat="49.84247" lon="2.39419">
        <ele>29.3</ele>
        <time>2023-04-19T14:40:16Z</time>
      </trkpt>
      <trkpt lat="49.84248" lon="2.39421">
        <ele>29.3</ele>
        <time>2023-04-19T14:40:17Z</time>
      </trkpt>
      <trkpt lat="49.84248" lon="2.39424">
        <ele>29.3</ele>
        <time>2023-04-19T14:40:18Z</time>
      </trkpt>
      <trkpt lat="49.84248" lon="2.39425">
        <ele>29.3</ele>
        <time>2023-04-19T14:40:19Z</time>
      </trkpt>
      <trkpt lat="49.84249" lon="2.39427">
        <ele>29.3</ele>
        <time>2023-04-19T14:40:20Z</time>
      </trkpt>
      <trkpt lat="49.84249" lon="2.39428">
        <ele>29.3</ele>
        <time>2023-04-19T14:40:22Z</time>
      </trkpt>
      <trkpt lat="49.84249" lon="2.3943">
        <ele>29.3</ele>
        <time>2023-04-19T14:40:23Z</time>
      </trkpt>
      <trkpt lat="49.8425" lon="2.39431">
        <ele>29.3</ele>
        <time>2023-04-19T14:40:24Z</time>
      </trkpt>
      <trkpt lat="49.8425" lon="2.39433">
        <ele>29.3</ele>
        <time>2023-04-19T14:40:25Z</time>
      </trkpt>
      <trkpt lat="49.84251" lon="2.39435">
        <ele>29.3</ele>
        <time>2023-04-19T14:40:26Z</time>
      </trkpt>
      <trkpt lat="49.84251" lon="2.39436">
        <ele>29.3</ele>
        <time>2023-04-19T14:40:27Z</time>
      </trkpt>
      <trkpt lat="49.84252" lon="2.39438">
        <ele>29.3</ele>
        <time>2023-04-19T14:40:28Z</time>
      </trkpt>
      <trkpt lat="49.84253" lon="2.39439">
        <ele>29.3</ele>
        <time>2023-04-19T14:40:29Z</time>
      </trkpt>
      <trkpt lat="49.84253" lon="2.3944">
        <ele>29.3</ele>
        <time>2023-04-19T14:40:30Z</time>
      </trkpt>
      <trkpt lat="49.84255" lon="2.39443">
        <ele>29.3</ele>
        <time>2023-04-19T14:40:32Z</time>
      </trkpt>
      <trkpt lat="49.84255" lon="2.39444">
        <ele>29.3</ele>
        <time>2023-04-19T14:40:33Z</time>
      </trkpt>
      <trkpt lat="49.84255" lon="2.39445">
        <ele>29.3</ele>
        <time>2023-04-19T14:40:34Z</time>
      </trkpt>
      <trkpt lat="49.84256" lon="2.39448">
        <ele>29.3</ele>
        <time>2023-04-19T14:40:35Z</time>
      </trkpt>
      <trkpt lat="49.84257" lon="2.39449">
        <ele>29.3</ele>
        <time>2023-04-19T14:40:36Z</time>
      </trkpt>
      <trkpt lat="49.84257" lon="2.39451">
        <ele>29.3</ele>
        <time>2023-04-19T14:40:37Z</time>
      </trkpt>
      <trkpt lat="49.84258" lon="2.39453">
        <ele>29.3</ele>
        <time>2023-04-19T14:40:38Z</time>
      </trkpt>
      <trkpt lat="49.84258" lon="2.39455">
        <ele>29.3</ele>
        <time>2023-04-19T14:40:39Z</time>
      </trkpt>
      <trkpt lat="49.84259" lon="2.39457">
        <ele>29.3</ele>
        <time>2023-04-19T14:40:40Z</time>
      </trkpt>
      <trkpt lat="49.84258" lon="2.39458">
        <ele>29.3</ele>
        <time>2023-04-19T14:40:42Z</time>
      </trkpt>
      <trkpt lat="49.84258" lon="2.39459">
        <ele>29.3</ele>
        <time>2023-04-19T14:40:43Z</time>
      </trkpt>
      <trkpt lat="49.84258" lon="2.39461">
        <ele>29.3</ele>
        <time>2023-04-19T14:40:44Z</time>
      </trkpt>
      <trkpt lat="49.84258" lon="2.39462">
        <ele>29.3</ele>
        <time>2023-04-19T14:40:45Z</time>
      </trkpt>
      <trkpt lat="49.84258" lon="2.39464">
        <ele>29.2</ele>
        <time>2023-04-19T14:40:46Z</time>
      </trkpt>
      <trkpt lat="49.84258" lon="2.39465">
        <ele>29.2</ele>
        <time>2023-04-19T14:40:47Z</time>
      </trkpt>
      <trkpt lat="49.84258" lon="2.39468">
        <ele>29.2</ele>
        <time>2023-04-19T14:40:48Z</time>
      </trkpt>
      <trkpt lat="49.84258" lon="2.39469">
        <ele>29.2</ele>
        <time>2023-04-19T14:40:50Z</time>
      </trkpt>
      <trkpt lat="49.84259" lon="2.39471">
        <ele>29.2</ele>
        <time>2023-04-19T14:40:51Z</time>
      </trkpt>
      <trkpt lat="49.84259" lon="2.39472">
        <ele>29.2</ele>
        <time>2023-04-19T14:40:52Z</time>
      </trkpt>
      <trkpt lat="49.84259" lon="2.39474">
        <ele>29.2</ele>
        <time>2023-04-19T14:40:53Z</time>
      </trkpt>
      <trkpt lat="49.84259" lon="2.39475">
        <ele>29.2</ele>
        <time>2023-04-19T14:40:54Z</time>
      </trkpt>
      <trkpt lat="49.84258" lon="2.39478">
        <ele>29.2</ele>
        <time>2023-04-19T14:40:56Z</time>
      </trkpt>
      <trkpt lat="49.84258" lon="2.3948">
        <ele>29.2</ele>
        <time>2023-04-19T14:40:57Z</time>
      </trkpt>
      <trkpt lat="49.84258" lon="2.39482">
        <ele>29.2</ele>
        <time>2023-04-19T14:40:58Z</time>
      </trkpt>
      <trkpt lat="49.84257" lon="2.39484">
        <ele>29.2</ele>
        <time>2023-04-19T14:40:59Z</time>
      </trkpt>
      <trkpt lat="49.84256" lon="2.39485">
        <ele>29.2</ele>
        <time>2023-04-19T14:41:00Z</time>
      </trkpt>
      <trkpt lat="49.84255" lon="2.39487">
        <ele>29.2</ele>
        <time>2023-04-19T14:41:02Z</time>
      </trkpt>
      <trkpt lat="49.84253" lon="2.39488">
        <ele>29.2</ele>
        <time>2023-04-19T14:41:03Z</time>
      </trkpt>
      <trkpt lat="49.84253" lon="2.39488">
        <ele>29.2</ele>
        <time>2023-04-19T14:41:04Z</time>
      </trkpt>
      <trkpt lat="49.84252" lon="2.39488">
        <ele>29.2</ele>
        <time>2023-04-19T14:41:05Z</time>
      </trkpt>
      <trkpt lat="49.8425" lon="2.39488">
        <ele>29.2</ele>
        <time>2023-04-19T14:41:06Z</time>
      </trkpt>
      <trkpt lat="49.84249" lon="2.39488">
        <ele>29.2</ele>
        <time>2023-04-19T14:41:07Z</time>
      </trkpt>
      <trkpt lat="49.84248" lon="2.39489">
        <ele>29.2</ele>
        <time>2023-04-19T14:41:08Z</time>
      </trkpt>
      <trkpt lat="49.84248" lon="2.39491">
        <ele>29.2</ele>
        <time>2023-04-19T14:41:09Z</time>
      </trkpt>
      <trkpt lat="49.84248" lon="2.39492">
        <ele>29.2</ele>
        <time>2023-04-19T14:41:11Z</time>
      </trkpt>
      <trkpt lat="49.84248" lon="2.39494">
        <ele>29.2</ele>
        <time>2023-04-19T14:41:12Z</time>
      </trkpt>
      <trkpt lat="49.84248" lon="2.39496">
        <ele>29.2</ele>
        <time>2023-04-19T14:41:13Z</time>
      </trkpt>
      <trkpt lat="49.84248" lon="2.39497">
        <ele>29.2</ele>
        <time>2023-04-19T14:41:14Z</time>
      </trkpt>
      <trkpt lat="49.84247" lon="2.39499">
        <ele>29.1</ele>
        <time>2023-04-19T14:41:16Z</time>
      </trkpt>
      <trkpt lat="49.84247" lon="2.395">
        <ele>29.1</ele>
        <time>2023-04-19T14:41:17Z</time>
      </trkpt>
      <trkpt lat="49.84247" lon="2.39499">
        <ele>29.1</ele>
        <time>2023-04-19T14:41:18Z</time>
      </trkpt>
      <trkpt lat="49.84248" lon="2.39499">
        <ele>29.1</ele>
        <time>2023-04-19T14:41:20Z</time>
      </trkpt>
      <trkpt lat="49.84248" lon="2.39499">
        <ele>29.1</ele>
        <time>2023-04-19T14:41:21Z</time>
      </trkpt>
      <trkpt lat="49.84248" lon="2.39499">
        <ele>29.1</ele>
        <time>2023-04-19T14:41:22Z</time>
      </trkpt>
      <trkpt lat="49.84248" lon="2.39499">
        <ele>29.1</ele>
        <time>2023-04-19T14:41:24Z</time>
      </trkpt>
      <trkpt lat="49.84248" lon="2.39499">
        <ele>29.1</ele>
        <time>2023-04-19T14:41:25Z</time>
      </trkpt>
      <trkpt lat="49.84248" lon="2.39499">
        <ele>29.1</ele>
        <time>2023-04-19T14:41:26Z</time>
      </trkpt>
      <trkpt lat="49.84248" lon="2.39498">
        <ele>29.1</ele>
        <time>2023-04-19T14:41:28Z</time>
      </trkpt>
      <trkpt lat="49.84248" lon="2.39498">
        <ele>29.1</ele>
        <time>2023-04-19T14:41:29Z</time>
      </trkpt>
      <trkpt lat="49.84248" lon="2.39498">
        <ele>29.1</ele>
        <time>2023-04-19T14:41:31Z</time>
      </trkpt>
      <trkpt lat="49.84248" lon="2.39498">
        <ele>29.1</ele>
        <time>2023-04-19T14:41:32Z</time>
      </trkpt>
      <trkpt lat="49.84248" lon="2.39498">
        <ele>29.1</ele>
        <time>2023-04-19T14:41:33Z</time>
      </trkpt>
      <trkpt lat="49.84248" lon="2.39498">
        <ele>29.1</ele>
        <time>2023-04-19T14:41:35Z</time>
      </trkpt>
      <trkpt lat="49.84248" lon="2.39497">
        <ele>29.1</ele>
        <time>2023-04-19T14:41:36Z</time>
      </trkpt>
      <trkpt lat="49.84248" lon="2.39497">
        <ele>29.1</ele>
        <time>2023-04-19T14:41:37Z</time>
      </trkpt>
      <trkpt lat="49.84248" lon="2.39497">
        <ele>29.1</ele>
        <time>2023-04-19T14:41:38Z</time>
      </trkpt>
      <trkpt lat="49.84248" lon="2.39497">
        <ele>29.1</ele>
        <time>2023-04-19T14:41:39Z</time>
      </trkpt>
      <trkpt lat="49.84248" lon="2.39497">
        <ele>29.1</ele>
        <time>2023-04-19T14:41:40Z</time>
      </trkpt>
      <trkpt lat="49.84248" lon="2.39497">
        <ele>29.1</ele>
        <time>2023-04-19T14:41:41Z</time>
      </trkpt>
      <trkpt lat="49.84248" lon="2.39497">
        <ele>29.1</ele>
        <time>2023-04-19T14:41:42Z</time>
      </trkpt>
      <trkpt lat="49.84248" lon="2.39497">
        <ele>29.1</ele>
        <time>2023-04-19T14:41:43Z</time>
      </trkpt>
      <trkpt lat="49.84248" lon="2.39497">
        <ele>29.1</ele>
        <time>2023-04-19T14:41:44Z</time>
      </trkpt>
      <trkpt lat="49.84248" lon="2.39497">
        <ele>29.1</ele>
        <time>2023-04-19T14:41:45Z</time>
      </trkpt>
      <trkpt lat="49.84248" lon="2.39497">
        <ele>29.1</ele>
        <time>2023-04-19T14:41:46Z</time>
      </trkpt>
      <trkpt lat="49.84248" lon="2.39497">
        <ele>29.1</ele>
        <time>2023-04-19T14:41:47Z</time>
      </trkpt>
      <trkpt lat="49.84248" lon="2.39497">
        <ele>29.1</ele>
        <time>2023-04-19T14:41:48Z</time>
      </trkpt>
      <trkpt lat="49.84248" lon="2.39494">
        <ele>29.1</ele>
        <time>2023-04-19T14:41:49Z</time>
      </trkpt>
      <trkpt lat="49.84248" lon="2.39492">
        <ele>29.1</ele>
        <time>2023-04-19T14:41:50Z</time>
      </trkpt>
      <trkpt lat="49.84248" lon="2.39491">
        <ele>29.1</ele>
        <time>2023-04-19T14:41:51Z</time>
      </trkpt>
      <trkpt lat="49.84248" lon="2.3949">
        <ele>29.1</ele>
        <time>2023-04-19T14:41:52Z</time>
      </trkpt>
      <trkpt lat="49.84248" lon="2.3949">
        <ele>29.1</ele>
        <time>2023-04-19T14:41:53Z</time>
      </trkpt>
      <trkpt lat="49.84248" lon="2.3949">
        <ele>29.1</ele>
        <time>2023-04-19T14:41:54Z</time>
      </trkpt>
      <trkpt lat="49.84248" lon="2.39489">
        <ele>29.1</ele>
        <time>2023-04-19T14:41:55Z</time>
      </trkpt>
      <trkpt lat="49.84248" lon="2.39489">
        <ele>29.1</ele>
        <time>2023-04-19T14:41:56Z</time>
      </trkpt>
      <trkpt lat="49.84248" lon="2.39489">
        <ele>29.1</ele>
        <time>2023-04-19T14:41:57Z</time>
      </trkpt>
      <trkpt lat="49.84248" lon="2.39489">
        <ele>29.1</ele>
        <time>2023-04-19T14:41:58Z</time>
      </trkpt>
      <trkpt lat="49.84248" lon="2.39489">
        <ele>29.1</ele>
        <time>2023-04-19T14:41:59Z</time>
      </trkpt>
      <trkpt lat="49.84248" lon="2.39489">
        <ele>29.1</ele>
        <time>2023-04-19T14:42:00Z</time>
      </trkpt>
      <trkpt lat="49.84248" lon="2.39489">
        <ele>29.1</ele>
        <time>2023-04-19T14:42:01Z</time>
      </trkpt>
      <trkpt lat="49.84248" lon="2.39489">
        <ele>29.1</ele>
        <time>2023-04-19T14:42:02Z</time>
      </trkpt>
      <trkpt lat="49.84248" lon="2.39489">
        <ele>29.1</ele>
        <time>2023-04-19T14:42:03Z</time>
      </trkpt>
      <trkpt lat="49.84248" lon="2.39489">
        <ele>29.1</ele>
        <time>2023-04-19T14:42:04Z</time>
      </trkpt>
      <trkpt lat="49.84248" lon="2.39489">
        <ele>29.1</ele>
        <time>2023-04-19T14:42:05Z</time>
      </trkpt>
      <trkpt lat="49.84248" lon="2.39489">
        <ele>29.1</ele>
        <time>2023-04-19T14:42:06Z</time>
      </trkpt>
      <trkpt lat="49.84248" lon="2.39489">
        <ele>29.1</ele>
        <time>2023-04-19T14:42:07Z</time>
      </trkpt>
      <trkpt lat="49.84248" lon="2.39489">
        <ele>29.1</ele>
        <time>2023-04-19T14:42:08Z</time>
      </trkpt>
      <trkpt lat="49.84248" lon="2.39489">
        <ele>29.1</ele>
        <time>2023-04-19T14:42:09Z</time>
      </trkpt>
      <trkpt lat="49.84248" lon="2.39489">
        <ele>29.1</ele>
        <time>2023-04-19T14:42:10Z</time>
      </trkpt>
      <trkpt lat="49.84248" lon="2.39489">
        <ele>29.1</ele>
        <time>2023-04-19T14:42:11Z</time>
      </trkpt>
      <trkpt lat="49.84248" lon="2.39489">
        <ele>29.1</ele>
        <time>2023-04-19T14:42:12Z</time>
      </trkpt>
      <trkpt lat="49.84248" lon="2.39489">
        <ele>29.1</ele>
        <time>2023-04-19T14:42:13Z</time>
      </trkpt>
      <trkpt lat="49.84248" lon="2.39489">
        <ele>29.1</ele>
        <time>2023-04-19T14:42:14Z</time>
      </trkpt>
      <trkpt lat="49.84248" lon="2.39489">
        <ele>29.1</ele>
        <time>2023-04-19T14:42:15Z</time>
      </trkpt>
      <trkpt lat="49.84248" lon="2.39489">
        <ele>29.1</ele>
        <time>2023-04-19T14:42:16Z</time>
      </trkpt>
      <trkpt lat="49.84247" lon="2.39489">
        <ele>29.1</ele>
        <time>2023-04-19T14:42:17Z</time>
      </trkpt>
      <trkpt lat="49.84247" lon="2.39489">
        <ele>29.1</ele>
        <time>2023-04-19T14:42:18Z</time>
      </trkpt>
      <trkpt lat="49.84247" lon="2.39489">
        <ele>29.1</ele>
        <time>2023-04-19T14:42:19Z</time>
      </trkpt>
      <trkpt lat="49.84247" lon="2.39489">
        <ele>29.1</ele>
        <time>2023-04-19T14:42:20Z</time>
      </trkpt>
      <trkpt lat="49.84247" lon="2.39489">
        <ele>29.1</ele>
        <time>2023-04-19T14:42:21Z</time>
      </trkpt>
      <trkpt lat="49.84247" lon="2.39489">
        <ele>29.1</ele>
        <time>2023-04-19T14:42:22Z</time>
      </trkpt>
      <trkpt lat="49.84247" lon="2.39489">
        <ele>29.1</ele>
        <time>2023-04-19T14:42:23Z</time>
      </trkpt>
      <trkpt lat="49.84247" lon="2.39489">
        <ele>29.1</ele>
        <time>2023-04-19T14:42:24Z</time>
      </trkpt>
      <trkpt lat="49.84247" lon="2.39489">
        <ele>29.1</ele>
        <time>2023-04-19T14:42:25Z</time>
      </trkpt>
      <trkpt lat="49.84247" lon="2.39489">
        <ele>29.1</ele>
        <time>2023-04-19T14:42:26Z</time>
      </trkpt>
      <trkpt lat="49.84247" lon="2.39489">
        <ele>29.1</ele>
        <time>2023-04-19T14:42:27Z</time>
      </trkpt>
      <trkpt lat="49.84247" lon="2.39489">
        <ele>29.1</ele>
        <time>2023-04-19T14:42:28Z</time>
      </trkpt>
      <trkpt lat="49.84247" lon="2.39489">
        <ele>29.1</ele>
        <time>2023-04-19T14:42:29Z</time>
      </trkpt>
      <trkpt lat="49.84247" lon="2.39489">
        <ele>29.1</ele>
        <time>2023-04-19T14:42:30Z</time>
      </trkpt>
      <trkpt lat="49.84247" lon="2.39489">
        <ele>29.1</ele>
        <time>2023-04-19T14:42:31Z</time>
      </trkpt>
      <trkpt lat="49.84247" lon="2.39489">
        <ele>29.1</ele>
        <time>2023-04-19T14:42:32Z</time>
      </trkpt>
      <trkpt lat="49.84247" lon="2.39489">
        <ele>29.1</ele>
        <time>2023-04-19T14:42:33Z</time>
      </trkpt>
      <trkpt lat="49.84247" lon="2.39489">
        <ele>29.1</ele>
        <time>2023-04-19T14:42:34Z</time>
      </trkpt>
      <trkpt lat="49.84247" lon="2.39489">
        <ele>29.1</ele>
        <time>2023-04-19T14:42:35Z</time>
      </trkpt>
      <trkpt lat="49.84247" lon="2.39489">
        <ele>29.1</ele>
        <time>2023-04-19T14:42:36Z</time>
      </trkpt>
      <trkpt lat="49.84247" lon="2.39489">
        <ele>29.1</ele>
        <time>2023-04-19T14:42:37Z</time>
      </trkpt>
      <trkpt lat="49.84247" lon="2.39489">
        <ele>29.1</ele>
        <time>2023-04-19T14:42:38Z</time>
      </trkpt>
      <trkpt lat="49.84247" lon="2.39489">
        <ele>29.1</ele>
        <time>2023-04-19T14:42:39Z</time>
      </trkpt>
      <trkpt lat="49.84247" lon="2.39489">
        <ele>29.1</ele>
        <time>2023-04-19T14:42:40Z</time>
      </trkpt>
      <trkpt lat="49.84247" lon="2.39489">
        <ele>29.1</ele>
        <time>2023-04-19T14:42:41Z</time>
      </trkpt>
      <trkpt lat="49.84247" lon="2.39489">
        <ele>29.1</ele>
        <time>2023-04-19T14:42:42Z</time>
      </trkpt>
      <trkpt lat="49.84247" lon="2.39489">
        <ele>29.1</ele>
        <time>2023-04-19T14:42:43Z</time>
      </trkpt>
      <trkpt lat="49.84247" lon="2.39489">
        <ele>29.1</ele>
        <time>2023-04-19T14:42:44Z</time>
      </trkpt>
      <trkpt lat="49.84247" lon="2.39489">
        <ele>29.1</ele>
        <time>2023-04-19T14:42:45Z</time>
      </trkpt>
      <trkpt lat="49.84247" lon="2.39489">
        <ele>29.1</ele>
        <time>2023-04-19T14:42:46Z</time>
      </trkpt>
      <trkpt lat="49.84247" lon="2.39489">
        <ele>29.1</ele>
        <time>2023-04-19T14:42:47Z</time>
      </trkpt>
      <trkpt lat="49.84247" lon="2.39489">
        <ele>29.1</ele>
        <time>2023-04-19T14:42:48Z</time>
      </trkpt>
      <trkpt lat="49.84247" lon="2.39489">
        <ele>29.1</ele>
        <time>2023-04-19T14:42:49Z</time>
      </trkpt>
      <trkpt lat="49.84247" lon="2.39489">
        <ele>29.1</ele>
        <time>2023-04-19T14:42:50Z</time>
      </trkpt>
      <trkpt lat="49.84247" lon="2.39489">
        <ele>29.1</ele>
        <time>2023-04-19T14:42:51Z</time>
      </trkpt>
      <trkpt lat="49.84247" lon="2.39489">
        <ele>29.1</ele>
        <time>2023-04-19T14:42:52Z</time>
      </trkpt>
      <trkpt lat="49.84247" lon="2.39489">
        <ele>29.1</ele>
        <time>2023-04-19T14:42:53Z</time>
      </trkpt>
      <trkpt lat="49.84247" lon="2.39489">
        <ele>29.1</ele>
        <time>2023-04-19T14:42:54Z</time>
      </trkpt>
      <trkpt lat="49.84247" lon="2.39489">
        <ele>29.1</ele>
        <time>2023-04-19T14:42:55Z</time>
      </trkpt>
      <trkpt lat="49.84247" lon="2.39489">
        <ele>29.1</ele>
        <time>2023-04-19T14:42:56Z</time>
      </trkpt>
      <trkpt lat="49.84247" lon="2.39489">
        <ele>29.1</ele>
        <time>2023-04-19T14:42:57Z</time>
      </trkpt>
      <trkpt lat="49.84247" lon="2.39489">
        <ele>29.1</ele>
        <time>2023-04-19T14:42:58Z</time>
      </trkpt>
      <trkpt lat="49.84247" lon="2.39489">
        <ele>29.1</ele>
        <time>2023-04-19T14:42:59Z</time>
      </trkpt>
      <trkpt lat="49.84247" lon="2.39489">
        <ele>29.1</ele>
        <time>2023-04-19T14:43:00Z</time>
      </trkpt>
      <trkpt lat="49.84247" lon="2.39489">
        <ele>29.1</ele>
        <time>2023-04-19T14:43:01Z</time>
      </trkpt>
      <trkpt lat="49.84247" lon="2.39489">
        <ele>29.1</ele>
        <time>2023-04-19T14:43:02Z</time>
      </trkpt>
      <trkpt lat="49.84247" lon="2.39489">
        <ele>29.1</ele>
        <time>2023-04-19T14:43:03Z</time>
      </trkpt>
      <trkpt lat="49.84247" lon="2.39489">
        <ele>29.1</ele>
        <time>2023-04-19T14:43:04Z</time>
      </trkpt>
      <trkpt lat="49.84247" lon="2.39489">
        <ele>29.1</ele>
        <time>2023-04-19T14:43:05Z</time>
      </trkpt>
      <trkpt lat="49.84247" lon="2.39489">
        <ele>29.1</ele>
        <time>2023-04-19T14:43:06Z</time>
      </trkpt>
      <trkpt lat="49.84247" lon="2.39489">
        <ele>29.1</ele>
        <time>2023-04-19T14:43:07Z</time>
      </trkpt>
      <trkpt lat="49.84247" lon="2.39489">
        <ele>29.1</ele>
        <time>2023-04-19T14:43:08Z</time>
      </trkpt>
      <trkpt lat="49.84247" lon="2.39489">
        <ele>29.1</ele>
        <time>2023-04-19T14:43:09Z</time>
      </trkpt>
      <trkpt lat="49.84247" lon="2.39489">
        <ele>29.1</ele>
        <time>2023-04-19T14:43:10Z</time>
      </trkpt>
      <trkpt lat="49.84247" lon="2.39489">
        <ele>29.1</ele>
        <time>2023-04-19T14:43:11Z</time>
      </trkpt>
      <trkpt lat="49.84247" lon="2.39489">
        <ele>29.1</ele>
        <time>2023-04-19T14:43:12Z</time>
      </trkpt>
      <trkpt lat="49.84247" lon="2.39489">
        <ele>29.1</ele>
        <time>2023-04-19T14:43:13Z</time>
      </trkpt>
      <trkpt lat="49.84247" lon="2.39489">
        <ele>29.1</ele>
        <time>2023-04-19T14:43:14Z</time>
      </trkpt>
      <trkpt lat="49.84247" lon="2.39489">
        <ele>29.1</ele>
        <time>2023-04-19T14:43:15Z</time>
      </trkpt>
      <trkpt lat="49.84247" lon="2.39489">
        <ele>29.1</ele>
        <time>2023-04-19T14:43:16Z</time>
      </trkpt>
      <trkpt lat="49.84247" lon="2.39489">
        <ele>29.1</ele>
        <time>2023-04-19T14:43:17Z</time>
      </trkpt>
      <trkpt lat="49.84247" lon="2.39489">
        <ele>29.1</ele>
        <time>2023-04-19T14:43:18Z</time>
      </trkpt>
      <trkpt lat="49.84247" lon="2.39489">
        <ele>29.1</ele>
        <time>2023-04-19T14:43:19Z</time>
      </trkpt>
      <trkpt lat="49.84247" lon="2.39489">
        <ele>29.1</ele>
        <time>2023-04-19T14:43:20Z</time>
      </trkpt>
      <trkpt lat="49.84247" lon="2.39489">
        <ele>29.1</ele>
        <time>2023-04-19T14:43:21Z</time>
      </trkpt>
      <trkpt lat="49.84247" lon="2.39489">
        <ele>29.1</ele>
        <time>2023-04-19T14:43:22Z</time>
      </trkpt>
      <trkpt lat="49.84247" lon="2.39489">
        <ele>29.1</ele>
        <time>2023-04-19T14:43:23Z</time>
      </trkpt>
      <trkpt lat="49.84247" lon="2.39489">
        <ele>29.1</ele>
        <time>2023-04-19T14:43:24Z</time>
      </trkpt>
      <trkpt lat="49.84247" lon="2.39489">
        <ele>29.1</ele>
        <time>2023-04-19T14:43:25Z</time>
      </trkpt>
      <trkpt lat="49.84247" lon="2.39489">
        <ele>29.1</ele>
        <time>2023-04-19T14:43:26Z</time>
      </trkpt>
      <trkpt lat="49.84247" lon="2.39489">
        <ele>29.1</ele>
        <time>2023-04-19T14:43:27Z</time>
      </trkpt>
      <trkpt lat="49.84247" lon="2.39489">
        <ele>29.1</ele>
        <time>2023-04-19T14:43:28Z</time>
      </trkpt>
      <trkpt lat="49.84247" lon="2.39489">
        <ele>29.1</ele>
        <time>2023-04-19T14:43:29Z</time>
      </trkpt>
      <trkpt lat="49.84247" lon="2.39489">
        <ele>29.1</ele>
        <time>2023-04-19T14:43:30Z</time>
      </trkpt>
      <trkpt lat="49.84247" lon="2.39489">
        <ele>29.1</ele>
        <time>2023-04-19T14:43:31Z</time>
      </trkpt>
      <trkpt lat="49.84247" lon="2.39489">
        <ele>29.1</ele>
        <time>2023-04-19T14:43:32Z</time>
      </trkpt>
      <trkpt lat="49.84247" lon="2.39489">
        <ele>29.1</ele>
        <time>2023-04-19T14:43:33Z</time>
      </trkpt>
      <trkpt lat="49.84247" lon="2.39489">
        <ele>29.1</ele>
        <time>2023-04-19T14:43:34Z</time>
      </trkpt>
      <trkpt lat="49.84247" lon="2.39489">
        <ele>29.1</ele>
        <time>2023-04-19T14:43:35Z</time>
      </trkpt>
      <trkpt lat="49.84247" lon="2.39489">
        <ele>29.1</ele>
        <time>2023-04-19T14:43:36Z</time>
      </trkpt>
      <trkpt lat="49.84247" lon="2.39489">
        <ele>29.1</ele>
        <time>2023-04-19T14:43:37Z</time>
      </trkpt>
      <trkpt lat="49.84247" lon="2.39489">
        <ele>29.1</ele>
        <time>2023-04-19T14:43:38Z</time>
      </trkpt>
      <trkpt lat="49.84247" lon="2.39489">
        <ele>29.1</ele>
        <time>2023-04-19T14:43:39Z</time>
      </trkpt>
      <trkpt lat="49.84247" lon="2.39489">
        <ele>29.1</ele>
        <time>2023-04-19T14:43:40Z</time>
      </trkpt>
      <trkpt lat="49.84247" lon="2.39489">
        <ele>29.1</ele>
        <time>2023-04-19T14:43:41Z</time>
      </trkpt>
      <trkpt lat="49.84247" lon="2.39489">
        <ele>29.1</ele>
        <time>2023-04-19T14:43:42Z</time>
      </trkpt>
      <trkpt lat="49.84247" lon="2.39489">
        <ele>29.1</ele>
        <time>2023-04-19T14:43:43Z</time>
      </trkpt>
      <trkpt lat="49.84247" lon="2.39489">
        <ele>29.1</ele>
        <time>2023-04-19T14:43:44Z</time>
      </trkpt>
      <trkpt lat="49.84247" lon="2.39489">
        <ele>29.1</ele>
        <time>2023-04-19T14:43:45Z</time>
      </trkpt>
      <trkpt lat="49.84247" lon="2.39489">
        <ele>29.1</ele>
        <time>2023-04-19T14:43:46Z</time>
      </trkpt>
      <trkpt lat="49.84247" lon="2.39489">
        <ele>29.1</ele>
        <time>2023-04-19T14:43:47Z</time>
      </trkpt>
      <trkpt lat="49.84247" lon="2.39489">
        <ele>29.1</ele>
        <time>2023-04-19T14:43:48Z</time>
      </trkpt>
      <trkpt lat="49.84247" lon="2.39489">
        <ele>29.1</ele>
        <time>2023-04-19T14:43:49Z</time>
      </trkpt>
      <trkpt lat="49.84247" lon="2.39489">
        <ele>29.1</ele>
        <time>2023-04-19T14:43:50Z</time>
      </trkpt>
      <trkpt lat="49.84247" lon="2.39489">
        <ele>29.1</ele>
        <time>2023-04-19T14:43:51Z</time>
      </trkpt>
      <trkpt lat="49.84247" lon="2.39489">
        <ele>29.1</ele>
        <time>2023-04-19T14:43:52Z</time>
      </trkpt>
      <trkpt lat="49.84247" lon="2.39489">
        <ele>29.1</ele>
        <time>2023-04-19T14:43:53Z</time>
      </trkpt>
      <trkpt lat="49.84247" lon="2.39489">
        <ele>29.1</ele>
        <time>2023-04-19T14:43:54Z</time>
      </trkpt>
      <trkpt lat="49.84247" lon="2.39489">
        <ele>29.1</ele>
        <time>2023-04-19T14:43:55Z</time>
      </trkpt>
      <trkpt lat="49.84247" lon="2.39489">
        <ele>29.1</ele>
        <time>2023-04-19T14:43:56Z</time>
      </trkpt>
      <trkpt lat="49.84247" lon="2.39489">
        <ele>29.1</ele>
        <time>2023-04-19T14:43:57Z</time>
      </trkpt>
      <trkpt lat="49.84247" lon="2.39489">
        <ele>29.1</ele>
        <time>2023-04-19T14:43:58Z</time>
      </trkpt>
      <trkpt lat="49.84247" lon="2.39489">
        <ele>29.1</ele>
        <time>2023-04-19T14:43:59Z</time>
      </trkpt>
      <trkpt lat="49.84247" lon="2.39489">
        <ele>29.1</ele>
        <time>2023-04-19T14:44:00Z</time>
      </trkpt>
      <trkpt lat="49.84247" lon="2.39489">
        <ele>29.1</ele>
        <time>2023-04-19T14:44:01Z</time>
      </trkpt>
      <trkpt lat="49.84247" lon="2.39489">
        <ele>29.1</ele>
        <time>2023-04-19T14:44:02Z</time>
      </trkpt>
      <trkpt lat="49.84247" lon="2.39489">
        <ele>29.1</ele>
        <time>2023-04-19T14:44:03Z</time>
      </trkpt>
      <trkpt lat="49.84247" lon="2.39489">
        <ele>29.1</ele>
        <time>2023-04-19T14:44:04Z</time>
      </trkpt>
      <trkpt lat="49.84247" lon="2.39489">
        <ele>29.1</ele>
        <time>2023-04-19T14:44:05Z</time>
      </trkpt>
      <trkpt lat="49.84247" lon="2.39489">
        <ele>29.1</ele>
        <time>2023-04-19T14:44:06Z</time>
      </trkpt>
      <trkpt lat="49.84247" lon="2.39489">
        <ele>29.1</ele>
        <time>2023-04-19T14:44:07Z</time>
      </trkpt>
      <trkpt lat="49.84247" lon="2.39489">
        <ele>29.1</ele>
        <time>2023-04-19T14:44:08Z</time>
      </trkpt>
      <trkpt lat="49.84247" lon="2.39489">
        <ele>29.1</ele>
        <time>2023-04-19T14:44:09Z</time>
      </trkpt>
      <trkpt lat="49.84247" lon="2.39489">
        <ele>29.1</ele>
        <time>2023-04-19T14:44:10Z</time>
      </trkpt>
      <trkpt lat="49.84247" lon="2.39489">
        <ele>29.1</ele>
        <time>2023-04-19T14:44:11Z</time>
      </trkpt>
      <trkpt lat="49.84247" lon="2.39489">
        <ele>29.1</ele>
        <time>2023-04-19T14:44:12Z</time>
      </trkpt>
      <trkpt lat="49.84247" lon="2.39489">
        <ele>29.1</ele>
        <time>2023-04-19T14:44:13Z</time>
      </trkpt>
      <trkpt lat="49.84247" lon="2.39489">
        <ele>29.1</ele>
        <time>2023-04-19T14:44:14Z</time>
      </trkpt>
      <trkpt lat="49.84247" lon="2.39489">
        <ele>29.1</ele>
        <time>2023-04-19T14:44:15Z</time>
      </trkpt>
      <trkpt lat="49.84247" lon="2.39489">
        <ele>29.1</ele>
        <time>2023-04-19T14:44:16Z</time>
      </trkpt>
      <trkpt lat="49.84247" lon="2.39489">
        <ele>29.1</ele>
        <time>2023-04-19T14:44:17Z</time>
      </trkpt>
      <trkpt lat="49.84247" lon="2.39489">
        <ele>29.1</ele>
        <time>2023-04-19T14:44:18Z</time>
      </trkpt>
      <trkpt lat="49.84247" lon="2.39489">
        <ele>29.1</ele>
        <time>2023-04-19T14:44:19Z</time>
      </trkpt>
      <trkpt lat="49.84247" lon="2.39489">
        <ele>29.1</ele>
        <time>2023-04-19T14:44:20Z</time>
      </trkpt>
      <trkpt lat="49.84247" lon="2.39489">
        <ele>29.1</ele>
        <time>2023-04-19T14:44:21Z</time>
      </trkpt>
      <trkpt lat="49.84247" lon="2.39489">
        <ele>29.1</ele>
        <time>2023-04-19T14:44:22Z</time>
      </trkpt>
      <trkpt lat="49.84247" lon="2.39489">
        <ele>29.1</ele>
        <time>2023-04-19T14:44:23Z</time>
      </trkpt>
      <trkpt lat="49.84247" lon="2.39489">
        <ele>29.1</ele>
        <time>2023-04-19T14:44:24Z</time>
      </trkpt>
      <trkpt lat="49.84247" lon="2.39489">
        <ele>29.1</ele>
        <time>2023-04-19T14:44:25Z</time>
      </trkpt>
      <trkpt lat="49.84247" lon="2.39489">
        <ele>29.1</ele>
        <time>2023-04-19T14:44:26Z</time>
      </trkpt>
      <trkpt lat="49.84247" lon="2.39489">
        <ele>29.1</ele>
        <time>2023-04-19T14:44:27Z</time>
      </trkpt>
      <trkpt lat="49.84247" lon="2.39489">
        <ele>29.1</ele>
        <time>2023-04-19T14:44:28Z</time>
      </trkpt>
      <trkpt lat="49.84247" lon="2.39489">
        <ele>29.1</ele>
        <time>2023-04-19T14:44:29Z</time>
      </trkpt>
      <trkpt lat="49.84247" lon="2.39489">
        <ele>29.1</ele>
        <time>2023-04-19T14:44:30Z</time>
      </trkpt>
      <trkpt lat="49.84247" lon="2.39489">
        <ele>29.1</ele>
        <time>2023-04-19T14:44:31Z</time>
      </trkpt>
      <trkpt lat="49.84247" lon="2.39489">
        <ele>29.1</ele>
        <time>2023-04-19T14:44:32Z</time>
      </trkpt>
      <trkpt lat="49.84247" lon="2.39489">
        <ele>29.1</ele>
        <time>2023-04-19T14:44:33Z</time>
      </trkpt>
      <trkpt lat="49.84247" lon="2.39489">
        <ele>29.1</ele>
        <time>2023-04-19T14:44:34Z</time>
      </trkpt>
      <trkpt lat="49.84247" lon="2.39489">
        <ele>29.1</ele>
        <time>2023-04-19T14:44:35Z</time>
      </trkpt>
      <trkpt lat="49.84247" lon="2.39489">
        <ele>29.1</ele>
        <time>2023-04-19T14:44:36Z</time>
      </trkpt>
      <trkpt lat="49.84247" lon="2.39489">
        <ele>29.1</ele>
        <time>2023-04-19T14:44:37Z</time>
      </trkpt>
      <trkpt lat="49.84247" lon="2.39489">
        <ele>29.1</ele>
        <time>2023-04-19T14:44:38Z</time>
      </trkpt>
      <trkpt lat="49.84247" lon="2.39489">
        <ele>29.1</ele>
        <time>2023-04-19T14:44:39Z</time>
      </trkpt>
      <trkpt lat="49.84247" lon="2.39489">
        <ele>29.1</ele>
        <time>2023-04-19T14:44:40Z</time>
      </trkpt>
      <trkpt lat="49.84247" lon="2.39489">
        <ele>29.1</ele>
        <time>2023-04-19T14:44:41Z</time>
      </trkpt>
      <trkpt lat="49.84247" lon="2.39489">
        <ele>29.1</ele>
        <time>2023-04-19T14:44:42Z</time>
      </trkpt>
      <trkpt lat="49.84247" lon="2.39489">
        <ele>29.1</ele>
        <time>2023-04-19T14:44:43Z</time>
      </trkpt>
      <trkpt lat="49.84247" lon="2.39489">
        <ele>29.1</ele>
        <time>2023-04-19T14:44:44Z</time>
      </trkpt>
      <trkpt lat="49.84247" lon="2.39489">
        <ele>29.1</ele>
        <time>2023-04-19T14:44:45Z</time>
      </trkpt>
      <trkpt lat="49.84247" lon="2.39489">
        <ele>29.1</ele>
        <time>2023-04-19T14:44:46Z</time>
      </trkpt>
      <trkpt lat="49.84247" lon="2.39489">
        <ele>29.1</ele>
        <time>2023-04-19T14:44:47Z</time>
      </trkpt>
      <trkpt lat="49.84247" lon="2.39489">
        <ele>29.1</ele>
        <time>2023-04-19T14:44:48Z</time>
      </trkpt>
      <trkpt lat="49.84247" lon="2.39489">
        <ele>29.1</ele>
        <time>2023-04-19T14:44:49Z</time>
      </trkpt>
      <trkpt lat="49.84247" lon="2.39489">
        <ele>29.1</ele>
        <time>2023-04-19T14:44:50Z</time>
      </trkpt>
      <trkpt lat="49.84247" lon="2.39489">
        <ele>29.1</ele>
        <time>2023-04-19T14:44:51Z</time>
      </trkpt>
      <trkpt lat="49.84247" lon="2.39489">
        <ele>29.1</ele>
        <time>2023-04-19T14:44:52Z</time>
      </trkpt>
      <trkpt lat="49.84247" lon="2.39489">
        <ele>29.1</ele>
        <time>2023-04-19T14:44:53Z</time>
      </trkpt>
      <trkpt lat="49.84247" lon="2.39489">
        <ele>29.1</ele>
        <time>2023-04-19T14:44:54Z</time>
      </trkpt>
      <trkpt lat="49.84247" lon="2.39489">
        <ele>29.1</ele>
        <time>2023-04-19T14:44:55Z</time>
      </trkpt>
      <trkpt lat="49.84247" lon="2.39489">
        <ele>29.1</ele>
        <time>2023-04-19T14:44:56Z</time>
      </trkpt>
      <trkpt lat="49.84247" lon="2.39489">
        <ele>29.1</ele>
        <time>2023-04-19T14:44:57Z</time>
      </trkpt>
      <trkpt lat="49.84247" lon="2.39489">
        <ele>29.1</ele>
        <time>2023-04-19T14:44:58Z</time>
      </trkpt>
      <trkpt lat="49.84247" lon="2.39489">
        <ele>29.1</ele>
        <time>2023-04-19T14:44:59Z</time>
      </trkpt>
      <trkpt lat="49.84247" lon="2.39489">
        <ele>29.1</ele>
        <time>2023-04-19T14:45:00Z</time>
      </trkpt>
      <trkpt lat="49.84247" lon="2.39489">
        <ele>29.1</ele>
        <time>2023-04-19T14:45:01Z</time>
      </trkpt>
      <trkpt lat="49.84247" lon="2.39489">
        <ele>29.1</ele>
        <time>2023-04-19T14:45:02Z</time>
      </trkpt>
      <trkpt lat="49.84247" lon="2.39489">
        <ele>29.1</ele>
        <time>2023-04-19T14:45:03Z</time>
      </trkpt>
      <trkpt lat="49.84247" lon="2.39489">
        <ele>29.1</ele>
        <time>2023-04-19T14:45:04Z</time>
      </trkpt>
      <trkpt lat="49.84247" lon="2.39489">
        <ele>29.1</ele>
        <time>2023-04-19T14:45:05Z</time>
      </trkpt>
      <trkpt lat="49.84247" lon="2.39489">
        <ele>29.1</ele>
        <time>2023-04-19T14:45:06Z</time>
      </trkpt>
      <trkpt lat="49.84247" lon="2.39489">
        <ele>29.1</ele>
        <time>2023-04-19T14:45:07Z</time>
      </trkpt>
      <trkpt lat="49.84247" lon="2.39489">
        <ele>29.1</ele>
        <time>2023-04-19T14:45:08Z</time>
      </trkpt>
      <trkpt lat="49.84247" lon="2.39489">
        <ele>29.1</ele>
        <time>2023-04-19T14:45:09Z</time>
      </trkpt>
      <trkpt lat="49.84247" lon="2.39489">
        <ele>29.1</ele>
        <time>2023-04-19T14:45:10Z</time>
      </trkpt>
      <trkpt lat="49.84247" lon="2.39489">
        <ele>29.1</ele>
        <time>2023-04-19T14:45:11Z</time>
      </trkpt>
      <trkpt lat="49.84247" lon="2.39489">
        <ele>29.1</ele>
        <time>2023-04-19T14:45:12Z</time>
      </trkpt>
      <trkpt lat="49.84247" lon="2.39489">
        <ele>29.1</ele>
        <time>2023-04-19T14:45:13Z</time>
      </trkpt>
      <trkpt lat="49.84247" lon="2.39489">
        <ele>29.1</ele>
        <time>2023-04-19T14:45:14Z</time>
      </trkpt>
      <trkpt lat="49.84247" lon="2.39489">
        <ele>29.1</ele>
        <time>2023-04-19T14:45:15Z</time>
      </trkpt>
      <trkpt lat="49.84247" lon="2.39489">
        <ele>29.1</ele>
        <time>2023-04-19T14:45:16Z</time>
      </trkpt>
      <trkpt lat="49.84247" lon="2.39489">
        <ele>29.1</ele>
        <time>2023-04-19T14:45:17Z</time>
      </trkpt>
      <trkpt lat="49.84247" lon="2.39489">
        <ele>29.1</ele>
        <time>2023-04-19T14:45:18Z</time>
      </trkpt>
      <trkpt lat="49.84247" lon="2.39489">
        <ele>29.1</ele>
        <time>2023-04-19T14:45:19Z</time>
      </trkpt>
      <trkpt lat="49.84247" lon="2.39489">
        <ele>29.1</ele>
        <time>2023-04-19T14:45:20Z</time>
      </trkpt>
      <trkpt lat="49.84247" lon="2.39489">
        <ele>29.1</ele>
        <time>2023-04-19T14:45:21Z</time>
      </trkpt>
      <trkpt lat="49.84247" lon="2.39489">
        <ele>29.1</ele>
        <time>2023-04-19T14:45:22Z</time>
      </trkpt>
      <trkpt lat="49.84247" lon="2.39489">
        <ele>29.1</ele>
        <time>2023-04-19T14:45:23Z</time>
      </trkpt>
      <trkpt lat="49.84247" lon="2.39489">
        <ele>29.1</ele>
        <time>2023-04-19T14:45:24Z</time>
      </trkpt>
      <trkpt lat="49.84247" lon="2.39489">
        <ele>29.1</ele>
        <time>2023-04-19T14:45:25Z</time>
      </trkpt>
      <trkpt lat="49.84247" lon="2.39489">
        <ele>29.1</ele>
        <time>2023-04-19T14:45:26Z</time>
      </trkpt>
      <trkpt lat="49.84247" lon="2.39489">
        <ele>29.1</ele>
        <time>2023-04-19T14:45:27Z</time>
      </trkpt>
      <trkpt lat="49.84247" lon="2.39489">
        <ele>29.1</ele>
        <time>2023-04-19T14:45:28Z</time>
      </trkpt>
      <trkpt lat="49.84247" lon="2.39489">
        <ele>29.1</ele>
        <time>2023-04-19T14:45:29Z</time>
      </trkpt>
      <trkpt lat="49.84247" lon="2.39489">
        <ele>29.1</ele>
        <time>2023-04-19T14:45:30Z</time>
      </trkpt>
      <trkpt lat="49.84247" lon="2.39489">
        <ele>29.1</ele>
        <time>2023-04-19T14:45:31Z</time>
      </trkpt>
      <trkpt lat="49.84247" lon="2.39489">
        <ele>29.1</ele>
        <time>2023-04-19T14:45:32Z</time>
      </trkpt>
      <trkpt lat="49.84247" lon="2.39489">
        <ele>29.1</ele>
        <time>2023-04-19T14:45:33Z</time>
      </trkpt>
      <trkpt lat="49.84247" lon="2.39489">
        <ele>29.1</ele>
        <time>2023-04-19T14:45:34Z</time>
      </trkpt>
      <trkpt lat="49.84247" lon="2.39489">
        <ele>29.1</ele>
        <time>2023-04-19T14:45:35Z</time>
      </trkpt>
      <trkpt lat="49.84247" lon="2.39489">
        <ele>29.1</ele>
        <time>2023-04-19T14:45:36Z</time>
      </trkpt>
      <trkpt lat="49.84247" lon="2.39489">
        <ele>29.1</ele>
        <time>2023-04-19T14:45:37Z</time>
      </trkpt>
      <trkpt lat="49.84247" lon="2.39489">
        <ele>29.1</ele>
        <time>2023-04-19T14:45:38Z</time>
      </trkpt>
      <trkpt lat="49.84247" lon="2.39489">
        <ele>29.1</ele>
        <time>2023-04-19T14:45:39Z</time>
      </trkpt>
      <trkpt lat="49.84247" lon="2.39489">
        <ele>29.1</ele>
        <time>2023-04-19T14:45:40Z</time>
      </trkpt>
      <trkpt lat="49.84247" lon="2.39489">
        <ele>29.1</ele>
        <time>2023-04-19T14:45:41Z</time>
      </trkpt>
      <trkpt lat="49.84247" lon="2.39489">
        <ele>29.1</ele>
        <time>2023-04-19T14:45:42Z</time>
      </trkpt>
      <trkpt lat="49.84247" lon="2.39489">
        <ele>29.1</ele>
        <time>2023-04-19T14:45:43Z</time>
      </trkpt>
      <trkpt lat="49.84247" lon="2.39489">
        <ele>29.1</ele>
        <time>2023-04-19T14:45:44Z</time>
      </trkpt>
      <trkpt lat="49.84247" lon="2.39489">
        <ele>29.1</ele>
        <time>2023-04-19T14:45:45Z</time>
      </trkpt>
      <trkpt lat="49.84247" lon="2.39489">
        <ele>29.1</ele>
        <time>2023-04-19T14:45:46Z</time>
      </trkpt>
      <trkpt lat="49.84247" lon="2.39489">
        <ele>29.1</ele>
        <time>2023-04-19T14:45:47Z</time>
      </trkpt>
      <trkpt lat="49.84247" lon="2.39489">
        <ele>29.1</ele>
        <time>2023-04-19T14:45:48Z</time>
      </trkpt>
      <trkpt lat="49.84247" lon="2.39489">
        <ele>29.1</ele>
        <time>2023-04-19T14:45:49Z</time>
      </trkpt>
      <trkpt lat="49.84247" lon="2.39489">
        <ele>29.1</ele>
        <time>2023-04-19T14:45:50Z</time>
      </trkpt>
      <trkpt lat="49.84247" lon="2.39489">
        <ele>29.1</ele>
        <time>2023-04-19T14:45:51Z</time>
      </trkpt>
      <trkpt lat="49.84247" lon="2.39489">
        <ele>29.1</ele>
        <time>2023-04-19T14:45:52Z</time>
      </trkpt>
      <trkpt lat="49.84247" lon="2.39489">
        <ele>29.1</ele>
        <time>2023-04-19T14:45:53Z</time>
      </trkpt>
      <trkpt lat="49.84247" lon="2.39489">
        <ele>29.1</ele>
        <time>2023-04-19T14:45:54Z</time>
      </trkpt>
      <trkpt lat="49.84247" lon="2.39489">
        <ele>29.1</ele>
        <time>2023-04-19T14:45:55Z</time>
      </trkpt>
      <trkpt lat="49.84247" lon="2.39489">
        <ele>29.1</ele>
        <time>2023-04-19T14:45:56Z</time>
      </trkpt>
      <trkpt lat="49.84247" lon="2.39489">
        <ele>29.1</ele>
        <time>2023-04-19T14:45:57Z</time>
      </trkpt>
      <trkpt lat="49.84247" lon="2.39489">
        <ele>29.1</ele>
        <time>2023-04-19T14:45:58Z</time>
      </trkpt>
      <trkpt lat="49.84247" lon="2.39489">
        <ele>29.1</ele>
        <time>2023-04-19T14:45:59Z</time>
      </trkpt>
      <trkpt lat="49.84247" lon="2.39489">
        <ele>29.1</ele>
        <time>2023-04-19T14:46:00Z</time>
      </trkpt>
      <trkpt lat="49.84247" lon="2.39489">
        <ele>29.1</ele>
        <time>2023-04-19T14:46:01Z</time>
      </trkpt>
      <trkpt lat="49.84247" lon="2.39489">
        <ele>29.1</ele>
        <time>2023-04-19T14:46:02Z</time>
      </trkpt>
      <trkpt lat="49.84246" lon="2.39486">
        <ele>29.1</ele>
        <time>2023-04-19T14:46:03Z</time>
      </trkpt>
      <trkpt lat="49.84246" lon="2.39485">
        <ele>29.1</ele>
        <time>2023-04-19T14:46:04Z</time>
      </trkpt>
      <trkpt lat="49.84245" lon="2.39485">
        <ele>29.1</ele>
        <time>2023-04-19T14:46:05Z</time>
      </trkpt>
      <trkpt lat="49.84245" lon="2.39485">
        <ele>29.1</ele>
        <time>2023-04-19T14:46:06Z</time>
      </trkpt>
      <trkpt lat="49.84245" lon="2.39485">
        <ele>29.1</ele>
        <time>2023-04-19T14:46:07Z</time>
      </trkpt>
      <trkpt lat="49.84245" lon="2.39485">
        <ele>29.1</ele>
        <time>2023-04-19T14:46:08Z</time>
      </trkpt>
      <trkpt lat="49.84245" lon="2.39485">
        <ele>29.1</ele>
        <time>2023-04-19T14:46:09Z</time>
      </trkpt>
      <trkpt lat="49.84245" lon="2.39485">
        <ele>29.1</ele>
        <time>2023-04-19T14:46:10Z</time>
      </trkpt>
      <trkpt lat="49.84245" lon="2.39485">
        <ele>29.1</ele>
        <time>2023-04-19T14:46:11Z</time>
      </trkpt>
      <trkpt lat="49.84245" lon="2.39485">
        <ele>29.1</ele>
        <time>2023-04-19T14:46:12Z</time>
      </trkpt>
      <trkpt lat="49.84245" lon="2.39485">
        <ele>29.1</ele>
        <time>2023-04-19T14:46:13Z</time>
      </trkpt>
      <trkpt lat="49.84245" lon="2.39485">
        <ele>29.1</ele>
        <time>2023-04-19T14:46:14Z</time>
      </trkpt>
      <trkpt lat="49.84245" lon="2.39485">
        <ele>29.1</ele>
        <time>2023-04-19T14:46:15Z</time>
      </trkpt>
      <trkpt lat="49.84245" lon="2.39485">
        <ele>29.1</ele>
        <time>2023-04-19T14:46:16Z</time>
      </trkpt>
      <trkpt lat="49.84245" lon="2.39485">
        <ele>29.1</ele>
        <time>2023-04-19T14:46:17Z</time>
      </trkpt>
      <trkpt lat="49.84245" lon="2.39485">
        <ele>29.1</ele>
        <time>2023-04-19T14:46:18Z</time>
      </trkpt>
      <trkpt lat="49.84245" lon="2.39485">
        <ele>29.1</ele>
        <time>2023-04-19T14:46:19Z</time>
      </trkpt>
      <trkpt lat="49.84245" lon="2.39485">
        <ele>29.1</ele>
        <time>2023-04-19T14:46:20Z</time>
      </trkpt>
      <trkpt lat="49.84245" lon="2.39485">
        <ele>29.1</ele>
        <time>2023-04-19T14:46:21Z</time>
      </trkpt>
      <trkpt lat="49.84245" lon="2.39485">
        <ele>29.1</ele>
        <time>2023-04-19T14:46:22Z</time>
      </trkpt>
      <trkpt lat="49.84245" lon="2.39485">
        <ele>29.1</ele>
        <time>2023-04-19T14:46:23Z</time>
      </trkpt>
      <trkpt lat="49.84245" lon="2.39485">
        <ele>29.1</ele>
        <time>2023-04-19T14:46:24Z</time>
      </trkpt>
      <trkpt lat="49.84245" lon="2.39485">
        <ele>29.1</ele>
        <time>2023-04-19T14:46:25Z</time>
      </trkpt>
      <trkpt lat="49.84245" lon="2.39485">
        <ele>29.1</ele>
        <time>2023-04-19T14:46:26Z</time>
      </trkpt>
      <trkpt lat="49.84245" lon="2.39485">
        <ele>29.1</ele>
        <time>2023-04-19T14:46:27Z</time>
      </trkpt>
      <trkpt lat="49.84245" lon="2.39485">
        <ele>29.1</ele>
        <time>2023-04-19T14:46:28Z</time>
      </trkpt>
      <trkpt lat="49.84245" lon="2.39485">
        <ele>29.1</ele>
        <time>2023-04-19T14:46:29Z</time>
      </trkpt>
      <trkpt lat="49.84245" lon="2.39485">
        <ele>29.1</ele>
        <time>2023-04-19T14:46:30Z</time>
      </trkpt>
      <trkpt lat="49.84245" lon="2.39485">
        <ele>29.1</ele>
        <time>2023-04-19T14:46:31Z</time>
      </trkpt>
      <trkpt lat="49.84245" lon="2.39485">
        <ele>29.1</ele>
        <time>2023-04-19T14:46:32Z</time>
      </trkpt>
      <trkpt lat="49.84245" lon="2.39485">
        <ele>29.1</ele>
        <time>2023-04-19T14:46:33Z</time>
      </trkpt>
      <trkpt lat="49.84245" lon="2.39485">
        <ele>29.1</ele>
        <time>2023-04-19T14:46:34Z</time>
      </trkpt>
      <trkpt lat="49.84245" lon="2.39485">
        <ele>29.1</ele>
        <time>2023-04-19T14:46:35Z</time>
      </trkpt>
      <trkpt lat="49.84245" lon="2.39485">
        <ele>29.1</ele>
        <time>2023-04-19T14:46:36Z</time>
      </trkpt>
      <trkpt lat="49.84245" lon="2.39485">
        <ele>29.1</ele>
        <time>2023-04-19T14:46:37Z</time>
      </trkpt>
      <trkpt lat="49.84245" lon="2.39485">
        <ele>29.1</ele>
        <time>2023-04-19T14:46:38Z</time>
      </trkpt>
      <trkpt lat="49.84245" lon="2.39485">
        <ele>29.1</ele>
        <time>2023-04-19T14:46:39Z</time>
      </trkpt>
      <trkpt lat="49.84245" lon="2.39485">
        <ele>29.1</ele>
        <time>2023-04-19T14:46:40Z</time>
      </trkpt>
      <trkpt lat="49.84245" lon="2.39485">
        <ele>29.1</ele>
        <time>2023-04-19T14:46:41Z</time>
      </trkpt>
      <trkpt lat="49.84245" lon="2.39485">
        <ele>29.1</ele>
        <time>2023-04-19T14:46:42Z</time>
      </trkpt>
      <trkpt lat="49.84245" lon="2.39485">
        <ele>29.1</ele>
        <time>2023-04-19T14:46:43Z</time>
      </trkpt>
      <trkpt lat="49.84245" lon="2.39485">
        <ele>29.1</ele>
        <time>2023-04-19T14:46:44Z</time>
      </trkpt>
      <trkpt lat="49.84245" lon="2.39485">
        <ele>29.1</ele>
        <time>2023-04-19T14:46:45Z</time>
      </trkpt>
      <trkpt lat="49.84245" lon="2.39485">
        <ele>29.1</ele>
        <time>2023-04-19T14:46:46Z</time>
      </trkpt>
      <trkpt lat="49.84245" lon="2.39485">
        <ele>29.1</ele>
        <time>2023-04-19T14:46:47Z</time>
      </trkpt>
      <trkpt lat="49.84245" lon="2.39485">
        <ele>29.1</ele>
        <time>2023-04-19T14:46:48Z</time>
      </trkpt>
      <trkpt lat="49.84245" lon="2.39485">
        <ele>29.1</ele>
        <time>2023-04-19T14:46:49Z</time>
      </trkpt>
      <trkpt lat="49.84245" lon="2.39485">
        <ele>29.1</ele>
        <time>2023-04-19T14:46:50Z</time>
      </trkpt>
      <trkpt lat="49.84245" lon="2.39485">
        <ele>29.1</ele>
        <time>2023-04-19T14:46:51Z</time>
      </trkpt>
      <trkpt lat="49.84245" lon="2.39485">
        <ele>29.1</ele>
        <time>2023-04-19T14:46:52Z</time>
      </trkpt>
      <trkpt lat="49.84245" lon="2.39485">
        <ele>29.1</ele>
        <time>2023-04-19T14:46:53Z</time>
      </trkpt>
      <trkpt lat="49.84245" lon="2.39485">
        <ele>29.1</ele>
        <time>2023-04-19T14:46:54Z</time>
      </trkpt>
      <trkpt lat="49.84245" lon="2.39485">
        <ele>29.1</ele>
        <time>2023-04-19T14:46:55Z</time>
      </trkpt>
      <trkpt lat="49.84245" lon="2.39485">
        <ele>29.1</ele>
        <time>2023-04-19T14:46:56Z</time>
      </trkpt>
      <trkpt lat="49.84245" lon="2.39485">
        <ele>29.1</ele>
        <time>2023-04-19T14:46:57Z</time>
      </trkpt>
      <trkpt lat="49.84245" lon="2.39485">
        <ele>29.1</ele>
        <time>2023-04-19T14:46:58Z</time>
      </trkpt>
      <trkpt lat="49.84245" lon="2.39485">
        <ele>29.1</ele>
        <time>2023-04-19T14:46:59Z</time>
      </trkpt>
      <trkpt lat="49.84245" lon="2.39485">
        <ele>29.1</ele>
        <time>2023-04-19T14:47:00Z</time>
      </trkpt>
      <trkpt lat="49.84245" lon="2.39485">
        <ele>29.1</ele>
        <time>2023-04-19T14:47:01Z</time>
      </trkpt>
      <trkpt lat="49.84245" lon="2.39485">
        <ele>29.1</ele>
        <time>2023-04-19T14:47:02Z</time>
      </trkpt>
      <trkpt lat="49.84245" lon="2.39485">
        <ele>29.1</ele>
        <time>2023-04-19T14:47:03Z</time>
      </trkpt>
      <trkpt lat="49.84245" lon="2.39485">
        <ele>29.1</ele>
        <time>2023-04-19T14:47:04Z</time>
      </trkpt>
      <trkpt lat="49.84245" lon="2.39485">
        <ele>29.1</ele>
        <time>2023-04-19T14:47:05Z</time>
      </trkpt>
      <trkpt lat="49.84245" lon="2.39485">
        <ele>29.1</ele>
        <time>2023-04-19T14:47:06Z</time>
      </trkpt>
      <trkpt lat="49.84245" lon="2.39485">
        <ele>29.1</ele>
        <time>2023-04-19T14:47:07Z</time>
      </trkpt>
      <trkpt lat="49.84245" lon="2.39485">
        <ele>29.1</ele>
        <time>2023-04-19T14:47:08Z</time>
      </trkpt>
      <trkpt lat="49.84245" lon="2.39485">
        <ele>29.1</ele>
        <time>2023-04-19T14:47:09Z</time>
      </trkpt>
      <trkpt lat="49.84245" lon="2.39485">
        <ele>29.1</ele>
        <time>2023-04-19T14:47:10Z</time>
      </trkpt>
      <trkpt lat="49.84245" lon="2.39485">
        <ele>29.1</ele>
        <time>2023-04-19T14:47:11Z</time>
      </trkpt>
      <trkpt lat="49.84245" lon="2.39485">
        <ele>29.1</ele>
        <time>2023-04-19T14:47:12Z</time>
      </trkpt>
      <trkpt lat="49.84245" lon="2.39485">
        <ele>29.1</ele>
        <time>2023-04-19T14:47:13Z</time>
      </trkpt>
      <trkpt lat="49.84245" lon="2.39485">
        <ele>29.1</ele>
        <time>2023-04-19T14:47:14Z</time>
      </trkpt>
      <trkpt lat="49.84245" lon="2.39485">
        <ele>29.1</ele>
        <time>2023-04-19T14:47:15Z</time>
      </trkpt>
      <trkpt lat="49.84245" lon="2.39485">
        <ele>29.1</ele>
        <time>2023-04-19T14:47:16Z</time>
      </trkpt>
      <trkpt lat="49.84245" lon="2.39485">
        <ele>29.1</ele>
        <time>2023-04-19T14:47:17Z</time>
      </trkpt>
      <trkpt lat="49.84245" lon="2.39485">
        <ele>29.1</ele>
        <time>2023-04-19T14:47:18Z</time>
      </trkpt>
      <trkpt lat="49.84245" lon="2.39485">
        <ele>29.1</ele>
        <time>2023-04-19T14:47:19Z</time>
      </trkpt>
      <trkpt lat="49.84245" lon="2.39485">
        <ele>29.1</ele>
        <time>2023-04-19T14:47:20Z</time>
      </trkpt>
      <trkpt lat="49.84245" lon="2.39485">
        <ele>29.1</ele>
        <time>2023-04-19T14:47:21Z</time>
      </trkpt>
      <trkpt lat="49.84245" lon="2.39485">
        <ele>29.1</ele>
        <time>2023-04-19T14:47:22Z</time>
      </trkpt>
      <trkpt lat="49.84245" lon="2.39485">
        <ele>29.1</ele>
        <time>2023-04-19T14:47:23Z</time>
      </trkpt>
      <trkpt lat="49.84245" lon="2.39485">
        <ele>29.1</ele>
        <time>2023-04-19T14:47:24Z</time>
      </trkpt>
      <trkpt lat="49.84245" lon="2.39485">
        <ele>29.1</ele>
        <time>2023-04-19T14:47:25Z</time>
      </trkpt>
      <trkpt lat="49.84245" lon="2.39485">
        <ele>29.1</ele>
        <time>2023-04-19T14:47:26Z</time>
      </trkpt>
      <trkpt lat="49.84245" lon="2.39485">
        <ele>29.1</ele>
        <time>2023-04-19T14:47:27Z</time>
      </trkpt>
      <trkpt lat="49.84245" lon="2.39485">
        <ele>29.1</ele>
        <time>2023-04-19T14:47:28Z</time>
      </trkpt>
      <trkpt lat="49.84245" lon="2.39485">
        <ele>29.1</ele>
        <time>2023-04-19T14:47:29Z</time>
      </trkpt>
      <trkpt lat="49.84245" lon="2.39485">
        <ele>29.1</ele>
        <time>2023-04-19T14:47:30Z</time>
      </trkpt>
      <trkpt lat="49.84245" lon="2.39485">
        <ele>29.1</ele>
        <time>2023-04-19T14:47:31Z</time>
      </trkpt>
      <trkpt lat="49.84245" lon="2.39485">
        <ele>29.1</ele>
        <time>2023-04-19T14:47:32Z</time>
      </trkpt>
      <trkpt lat="49.84245" lon="2.39485">
        <ele>29.1</ele>
        <time>2023-04-19T14:47:33Z</time>
      </trkpt>
      <trkpt lat="49.84245" lon="2.39485">
        <ele>29.1</ele>
        <time>2023-04-19T14:47:34Z</time>
      </trkpt>
      <trkpt lat="49.84245" lon="2.39485">
        <ele>29.1</ele>
        <time>2023-04-19T14:47:35Z</time>
      </trkpt>
      <trkpt lat="49.84245" lon="2.39485">
        <ele>29.1</ele>
        <time>2023-04-19T14:47:36Z</time>
      </trkpt>
      <trkpt lat="49.84245" lon="2.39485">
        <ele>29.1</ele>
        <time>2023-04-19T14:47:37Z</time>
      </trkpt>
      <trkpt lat="49.84245" lon="2.39485">
        <ele>29.1</ele>
        <time>2023-04-19T14:47:38Z</time>
      </trkpt>
      <trkpt lat="49.84245" lon="2.39485">
        <ele>29.1</ele>
        <time>2023-04-19T14:47:39Z</time>
      </trkpt>
      <trkpt lat="49.84245" lon="2.39485">
        <ele>29.1</ele>
        <time>2023-04-19T14:47:40Z</time>
      </trkpt>
      <trkpt lat="49.84245" lon="2.39485">
        <ele>29.1</ele>
        <time>2023-04-19T14:47:41Z</time>
      </trkpt>
      <trkpt lat="49.84245" lon="2.39485">
        <ele>29.1</ele>
        <time>2023-04-19T14:47:42Z</time>
      </trkpt>
      <trkpt lat="49.84245" lon="2.39485">
        <ele>29.1</ele>
        <time>2023-04-19T14:47:43Z</time>
      </trkpt>
      <trkpt lat="49.84245" lon="2.39485">
        <ele>29.1</ele>
        <time>2023-04-19T14:47:44Z</time>
      </trkpt>
      <trkpt lat="49.84245" lon="2.39485">
        <ele>29.1</ele>
        <time>2023-04-19T14:47:45Z</time>
      </trkpt>
      <trkpt lat="49.84245" lon="2.39485">
        <ele>29.1</ele>
        <time>2023-04-19T14:47:46Z</time>
      </trkpt>
      <trkpt lat="49.84245" lon="2.39485">
        <ele>29.1</ele>
        <time>2023-04-19T14:47:47Z</time>
      </trkpt>
      <trkpt lat="49.84245" lon="2.39485">
        <ele>29.1</ele>
        <time>2023-04-19T14:47:48Z</time>
      </trkpt>
      <trkpt lat="49.84245" lon="2.39485">
        <ele>29.1</ele>
        <time>2023-04-19T14:47:49Z</time>
      </trkpt>
      <trkpt lat="49.84245" lon="2.39485">
        <ele>29.1</ele>
        <time>2023-04-19T14:47:50Z</time>
      </trkpt>
      <trkpt lat="49.84245" lon="2.39485">
        <ele>29.1</ele>
        <time>2023-04-19T14:47:51Z</time>
      </trkpt>
      <trkpt lat="49.84245" lon="2.39485">
        <ele>29.1</ele>
        <time>2023-04-19T14:47:52Z</time>
      </trkpt>
      <trkpt lat="49.84245" lon="2.39485">
        <ele>29.1</ele>
        <time>2023-04-19T14:47:53Z</time>
      </trkpt>
      <trkpt lat="49.84245" lon="2.39485">
        <ele>29.1</ele>
        <time>2023-04-19T14:47:54Z</time>
      </trkpt>
      <trkpt lat="49.84245" lon="2.39485">
        <ele>29.1</ele>
        <time>2023-04-19T14:47:55Z</time>
      </trkpt>
      <trkpt lat="49.84245" lon="2.39485">
        <ele>29.1</ele>
        <time>2023-04-19T14:47:56Z</time>
      </trkpt>
      <trkpt lat="49.84245" lon="2.39485">
        <ele>29.1</ele>
        <time>2023-04-19T14:47:57Z</time>
      </trkpt>
      <trkpt lat="49.84245" lon="2.39485">
        <ele>29.1</ele>
        <time>2023-04-19T14:47:58Z</time>
      </trkpt>
      <trkpt lat="49.84245" lon="2.39485">
        <ele>29.1</ele>
        <time>2023-04-19T14:47:59Z</time>
      </trkpt>
      <trkpt lat="49.84245" lon="2.39485">
        <ele>29.1</ele>
        <time>2023-04-19T14:48:00Z</time>
      </trkpt>
      <trkpt lat="49.84245" lon="2.39485">
        <ele>29.1</ele>
        <time>2023-04-19T14:48:01Z</time>
      </trkpt>
      <trkpt lat="49.84245" lon="2.39485">
        <ele>29.1</ele>
        <time>2023-04-19T14:48:02Z</time>
      </trkpt>
      <trkpt lat="49.84245" lon="2.39485">
        <ele>29.1</ele>
        <time>2023-04-19T14:48:03Z</time>
      </trkpt>
      <trkpt lat="49.84245" lon="2.39485">
        <ele>29.1</ele>
        <time>2023-04-19T14:48:04Z</time>
      </trkpt>
      <trkpt lat="49.84244" lon="2.39484">
        <ele>29.1</ele>
        <time>2023-04-19T14:48:05Z</time>
      </trkpt>
      <trkpt lat="49.84243" lon="2.39484">
        <ele>29.1</ele>
        <time>2023-04-19T14:48:06Z</time>
      </trkpt>
      <trkpt lat="49.84242" lon="2.39484">
        <ele>29.1</ele>
        <time>2023-04-19T14:48:07Z</time>
      </trkpt>
      <trkpt lat="49.84242" lon="2.39484">
        <ele>29.1</ele>
        <time>2023-04-19T14:48:08Z</time>
      </trkpt>
      <trkpt lat="49.84242" lon="2.39483">
        <ele>29.1</ele>
        <time>2023-04-19T14:48:09Z</time>
      </trkpt>
      <trkpt lat="49.84242" lon="2.39483">
        <ele>29.1</ele>
        <time>2023-04-19T14:48:10Z</time>
      </trkpt>
      <trkpt lat="49.84242" lon="2.39483">
        <ele>29.1</ele>
        <time>2023-04-19T14:48:11Z</time>
      </trkpt>
      <trkpt lat="49.84242" lon="2.39483">
        <ele>29.1</ele>
        <time>2023-04-19T14:48:12Z</time>
      </trkpt>
      <trkpt lat="49.84242" lon="2.39483">
        <ele>29.1</ele>
        <time>2023-04-19T14:48:13Z</time>
      </trkpt>
      <trkpt lat="49.84242" lon="2.39483">
        <ele>29.1</ele>
        <time>2023-04-19T14:48:14Z</time>
      </trkpt>
      <trkpt lat="49.84242" lon="2.39484">
        <ele>29.1</ele>
        <time>2023-04-19T14:48:15Z</time>
      </trkpt>
      <trkpt lat="49.84242" lon="2.39484">
        <ele>29.1</ele>
        <time>2023-04-19T14:48:16Z</time>
      </trkpt>
      <trkpt lat="49.84242" lon="2.39484">
        <ele>29.1</ele>
        <time>2023-04-19T14:48:17Z</time>
      </trkpt>
      <trkpt lat="49.84243" lon="2.39483">
        <ele>29.1</ele>
        <time>2023-04-19T14:48:19Z</time>
      </trkpt>
      <trkpt lat="49.84243" lon="2.39483">
        <ele>29.1</ele>
        <time>2023-04-19T14:48:20Z</time>
      </trkpt>
      <trkpt lat="49.84243" lon="2.39482">
        <ele>29.1</ele>
        <time>2023-04-19T14:48:21Z</time>
      </trkpt>
      <trkpt lat="49.84243" lon="2.39482">
        <ele>29.1</ele>
        <time>2023-04-19T14:48:23Z</time>
      </trkpt>
      <trkpt lat="49.84243" lon="2.39481">
        <ele>29.1</ele>
        <time>2023-04-19T14:48:24Z</time>
      </trkpt>
      <trkpt lat="49.84243" lon="2.39481">
        <ele>29.1</ele>
        <time>2023-04-19T14:48:25Z</time>
      </trkpt>
      <trkpt lat="49.84243" lon="2.3948">
        <ele>29.1</ele>
        <time>2023-04-19T14:48:26Z</time>
      </trkpt>
      <trkpt lat="49.84243" lon="2.3948">
        <ele>29.1</ele>
        <time>2023-04-19T14:48:28Z</time>
      </trkpt>
      <trkpt lat="49.84242" lon="2.3948">
        <ele>29.1</ele>
        <time>2023-04-19T14:48:29Z</time>
      </trkpt>
      <trkpt lat="49.84242" lon="2.3948">
        <ele>29.1</ele>
        <time>2023-04-19T14:48:31Z</time>
      </trkpt>
      <trkpt lat="49.84242" lon="2.39481">
        <ele>29.1</ele>
        <time>2023-04-19T14:48:32Z</time>
      </trkpt>
      <trkpt lat="49.84242" lon="2.39482">
        <ele>29.1</ele>
        <time>2023-04-19T14:48:33Z</time>
      </trkpt>
      <trkpt lat="49.84241" lon="2.39482">
        <ele>29.1</ele>
        <time>2023-04-19T14:48:35Z</time>
      </trkpt>
      <trkpt lat="49.84241" lon="2.39482">
        <ele>29.1</ele>
        <time>2023-04-19T14:48:36Z</time>
      </trkpt>
      <trkpt lat="49.84242" lon="2.39482">
        <ele>29.1</ele>
        <time>2023-04-19T14:48:38Z</time>
      </trkpt>
      <trkpt lat="49.84242" lon="2.39482">
        <ele>29.1</ele>
        <time>2023-04-19T14:48:39Z</time>
      </trkpt>
      <trkpt lat="49.84241" lon="2.39482">
        <ele>29.1</ele>
        <time>2023-04-19T14:48:41Z</time>
      </trkpt>
      <trkpt lat="49.84241" lon="2.39482">
        <ele>29.1</ele>
        <time>2023-04-19T14:48:42Z</time>
      </trkpt>
      <trkpt lat="49.84241" lon="2.39482">
        <ele>29.1</ele>
        <time>2023-04-19T14:48:43Z</time>
      </trkpt>
      <trkpt lat="49.84241" lon="2.39482">
        <ele>29.1</ele>
        <time>2023-04-19T14:48:44Z</time>
      </trkpt>
      <trkpt lat="49.84241" lon="2.39482">
        <ele>29.1</ele>
        <time>2023-04-19T14:48:46Z</time>
      </trkpt>
      <trkpt lat="49.84241" lon="2.39482">
        <ele>29.1</ele>
        <time>2023-04-19T14:48:47Z</time>
      </trkpt>
      <trkpt lat="49.84242" lon="2.39482">
        <ele>29.1</ele>
        <time>2023-04-19T14:48:48Z</time>
      </trkpt>
      <trkpt lat="49.84242" lon="2.39482">
        <ele>29.1</ele>
        <time>2023-04-19T14:48:50Z</time>
      </trkpt>
      <trkpt lat="49.84242" lon="2.39482">
        <ele>29.1</ele>
        <time>2023-04-19T14:48:51Z</time>
      </trkpt>
      <trkpt lat="49.84242" lon="2.39483">
        <ele>29.1</ele>
        <time>2023-04-19T14:48:52Z</time>
      </trkpt>
      <trkpt lat="49.84242" lon="2.39483">
        <ele>29.1</ele>
        <time>2023-04-19T14:48:54Z</time>
      </trkpt>
      <trkpt lat="49.84242" lon="2.39483">
        <ele>29.1</ele>
        <time>2023-04-19T14:48:55Z</time>
      </trkpt>
      <trkpt lat="49.84242" lon="2.39483">
        <ele>29.1</ele>
        <time>2023-04-19T14:48:57Z</time>
      </trkpt>
      <trkpt lat="49.84242" lon="2.39483">
        <ele>29.1</ele>
        <time>2023-04-19T14:48:58Z</time>
      </trkpt>
      <trkpt lat="49.84242" lon="2.39483">
        <ele>29.1</ele>
        <time>2023-04-19T14:48:59Z</time>
      </trkpt>
      <trkpt lat="49.84242" lon="2.39483">
        <ele>29.1</ele>
        <time>2023-04-19T14:49:01Z</time>
      </trkpt>
      <trkpt lat="49.84242" lon="2.39483">
        <ele>29.1</ele>
        <time>2023-04-19T14:49:02Z</time>
      </trkpt>
      <trkpt lat="49.84242" lon="2.39483">
        <ele>29.1</ele>
        <time>2023-04-19T14:49:03Z</time>
      </trkpt>
      <trkpt lat="49.84242" lon="2.39483">
        <ele>29.1</ele>
        <time>2023-04-19T14:49:04Z</time>
      </trkpt>
      <trkpt lat="49.84242" lon="2.39483">
        <ele>29.1</ele>
        <time>2023-04-19T14:49:05Z</time>
      </trkpt>
      <trkpt lat="49.84242" lon="2.39483">
        <ele>29.1</ele>
        <time>2023-04-19T14:49:06Z</time>
      </trkpt>
      <trkpt lat="49.84242" lon="2.39483">
        <ele>29.1</ele>
        <time>2023-04-19T14:49:07Z</time>
      </trkpt>
      <trkpt lat="49.84242" lon="2.39483">
        <ele>29.1</ele>
        <time>2023-04-19T14:49:08Z</time>
      </trkpt>
      <trkpt lat="49.84242" lon="2.39483">
        <ele>29.1</ele>
        <time>2023-04-19T14:49:09Z</time>
      </trkpt>
      <trkpt lat="49.84242" lon="2.39483">
        <ele>29.1</ele>
        <time>2023-04-19T14:49:10Z</time>
      </trkpt>
      <trkpt lat="49.84242" lon="2.39483">
        <ele>29.1</ele>
        <time>2023-04-19T14:49:11Z</time>
      </trkpt>
      <trkpt lat="49.84242" lon="2.39483">
        <ele>29.1</ele>
        <time>2023-04-19T14:49:12Z</time>
      </trkpt>
      <trkpt lat="49.84242" lon="2.39483">
        <ele>29.1</ele>
        <time>2023-04-19T14:49:13Z</time>
      </trkpt>
      <trkpt lat="49.84242" lon="2.39483">
        <ele>29.1</ele>
        <time>2023-04-19T14:49:14Z</time>
      </trkpt>
      <trkpt lat="49.84242" lon="2.39483">
        <ele>29.1</ele>
        <time>2023-04-19T14:49:15Z</time>
      </trkpt>
      <trkpt lat="49.84242" lon="2.39483">
        <ele>29.1</ele>
        <time>2023-04-19T14:49:16Z</time>
      </trkpt>
      <trkpt lat="49.84242" lon="2.39483">
        <ele>29.1</ele>
        <time>2023-04-19T14:49:17Z</time>
      </trkpt>
      <trkpt lat="49.84242" lon="2.39483">
        <ele>29.1</ele>
        <time>2023-04-19T14:49:18Z</time>
      </trkpt>
      <trkpt lat="49.84242" lon="2.39483">
        <ele>29.1</ele>
        <time>2023-04-19T14:49:19Z</time>
      </trkpt>
      <trkpt lat="49.84242" lon="2.39483">
        <ele>29.1</ele>
        <time>2023-04-19T14:49:20Z</time>
      </trkpt>
      <trkpt lat="49.84242" lon="2.39483">
        <ele>29.1</ele>
        <time>2023-04-19T14:49:21Z</time>
      </trkpt>
      <trkpt lat="49.84242" lon="2.39483">
        <ele>29.1</ele>
        <time>2023-04-19T14:49:22Z</time>
      </trkpt>
      <trkpt lat="49.84242" lon="2.39483">
        <ele>29.1</ele>
        <time>2023-04-19T14:49:23Z</time>
      </trkpt>
      <trkpt lat="49.84242" lon="2.39483">
        <ele>29.1</ele>
        <time>2023-04-19T14:49:24Z</time>
      </trkpt>
      <trkpt lat="49.84242" lon="2.39483">
        <ele>29.1</ele>
        <time>2023-04-19T14:49:25Z</time>
      </trkpt>
      <trkpt lat="49.84242" lon="2.39483">
        <ele>29.1</ele>
        <time>2023-04-19T14:49:26Z</time>
      </trkpt>
      <trkpt lat="49.84242" lon="2.39483">
        <ele>29.1</ele>
        <time>2023-04-19T14:49:27Z</time>
      </trkpt>
      <trkpt lat="49.84242" lon="2.39483">
        <ele>29.1</ele>
        <time>2023-04-19T14:49:28Z</time>
      </trkpt>
      <trkpt lat="49.84242" lon="2.39483">
        <ele>29.1</ele>
        <time>2023-04-19T14:49:29Z</time>
      </trkpt>
      <trkpt lat="49.84242" lon="2.39483">
        <ele>29.1</ele>
        <time>2023-04-19T14:49:30Z</time>
      </trkpt>
      <trkpt lat="49.84242" lon="2.39483">
        <ele>29.1</ele>
        <time>2023-04-19T14:49:31Z</time>
      </trkpt>
      <trkpt lat="49.84242" lon="2.39483">
        <ele>29.1</ele>
        <time>2023-04-19T14:49:32Z</time>
      </trkpt>
      <trkpt lat="49.84242" lon="2.39483">
        <ele>29.1</ele>
        <time>2023-04-19T14:49:33Z</time>
      </trkpt>
      <trkpt lat="49.84242" lon="2.39483">
        <ele>29.1</ele>
        <time>2023-04-19T14:49:34Z</time>
      </trkpt>
      <trkpt lat="49.84242" lon="2.39483">
        <ele>29.1</ele>
        <time>2023-04-19T14:49:35Z</time>
      </trkpt>
      <trkpt lat="49.84242" lon="2.39483">
        <ele>29.1</ele>
        <time>2023-04-19T14:49:36Z</time>
      </trkpt>
      <trkpt lat="49.84242" lon="2.39483">
        <ele>29.1</ele>
        <time>2023-04-19T14:49:37Z</time>
      </trkpt>
      <trkpt lat="49.84242" lon="2.39483">
        <ele>29.1</ele>
        <time>2023-04-19T14:49:38Z</time>
      </trkpt>
      <trkpt lat="49.84242" lon="2.39483">
        <ele>29.1</ele>
        <time>2023-04-19T14:49:39Z</time>
      </trkpt>
      <trkpt lat="49.84242" lon="2.39483">
        <ele>29.1</ele>
        <time>2023-04-19T14:49:40Z</time>
      </trkpt>
      <trkpt lat="49.84242" lon="2.39483">
        <ele>29.1</ele>
        <time>2023-04-19T14:49:41Z</time>
      </trkpt>
      <trkpt lat="49.84242" lon="2.39483">
        <ele>29.1</ele>
        <time>2023-04-19T14:49:42Z</time>
      </trkpt>
      <trkpt lat="49.84242" lon="2.39483">
        <ele>29.1</ele>
        <time>2023-04-19T14:49:43Z</time>
      </trkpt>
      <trkpt lat="49.84242" lon="2.39483">
        <ele>29.1</ele>
        <time>2023-04-19T14:49:44Z</time>
      </trkpt>
    </trkseg>
  </trk>
</gpx>